<?xml version='1.0' encoding='UTF-8'?><gpx version="1.1" creator="JPX - https://github.com/jenetics/jpx" xmlns="http://www.topografix.com/GPX/1/1"><trk><trkseg><trkpt lat="45.58419360252136" lon="9.336159064208296"><ele>170.0</ele><time>2026-04-18T07:15:20.399Z</time></trkpt><trkpt lat="45.584334991914766" lon="9.336135489874833"><ele>170.0</ele><time>2026-04-18T07:15:40.999Z</time></trkpt><trkpt lat="45.58424548071584" lon="9.33601910947574"><ele>170.0</ele><time>2026-04-18T07:16:41.999Z</time></trkpt><trkpt lat="45.58429072699164" lon="9.335915782068858"><ele>170.0</ele><time>2026-04-18T07:23:25Z</time></trkpt><trkpt lat="45.58431022242349" lon="9.335783486249738"><ele>170.0</ele><time>2026-04-18T07:23:27Z</time></trkpt><trkpt lat="45.584331001800976" lon="9.335681918876713"><ele>170.0</ele><time>2026-04-18T07:23:29Z</time></trkpt><trkpt lat="45.584388368508854" lon="9.335596238081704"><ele>170.0</ele><time>2026-04-18T07:23:33Z</time></trkpt><trkpt lat="45.58448310521843" lon="9.335638830713073"><ele>170.0</ele><time>2026-04-18T07:23:35Z</time></trkpt><trkpt lat="45.58458610573448" lon="9.335678726208233"><ele>170.0</ele><time>2026-04-18T07:23:37Z</time></trkpt><trkpt lat="45.58465523947985" lon="9.335645100920138"><ele>170.0</ele><time>2026-04-18T07:23:39Z</time></trkpt><trkpt lat="45.584674596867764" lon="9.335478537099373"><ele>170.0</ele><time>2026-04-18T07:23:41Z</time></trkpt><trkpt lat="45.58468853052785" lon="9.335315130355802"><ele>170.0</ele><time>2026-04-18T07:23:43Z</time></trkpt><trkpt lat="45.58469340100453" lon="9.335196022308292"><ele>170.0</ele><time>2026-04-18T07:23:44Z</time></trkpt><trkpt lat="45.58470953404305" lon="9.335044754096357"><ele>170.0</ele><time>2026-04-18T07:23:46Z</time></trkpt><trkpt lat="45.5847342214423" lon="9.334886311305436"><ele>170.0</ele><time>2026-04-18T07:23:48Z</time></trkpt><trkpt lat="45.58474934514774" lon="9.334786521468716"><ele>170.16666666666666</ele><time>2026-04-18T07:23:49Z</time></trkpt><trkpt lat="45.584760774385714" lon="9.334671310896848"><ele>170.33333333333331</ele><time>2026-04-18T07:23:50Z</time></trkpt><trkpt lat="45.58477186824466" lon="9.334552794418217"><ele>170.5</ele><time>2026-04-18T07:23:51Z</time></trkpt><trkpt lat="45.58478781888291" lon="9.334425480097684"><ele>170.66666666666666</ele><time>2026-04-18T07:23:52Z</time></trkpt><trkpt lat="45.58480131870844" lon="9.33430764723414"><ele>170.83333333333334</ele><time>2026-04-18T07:23:53Z</time></trkpt><trkpt lat="45.584819339228396" lon="9.334197398539377"><ele>171.0</ele><time>2026-04-18T07:23:54Z</time></trkpt><trkpt lat="45.58482922293002" lon="9.334095046358541"><ele>171.0</ele><time>2026-04-18T07:23:55Z</time></trkpt><trkpt lat="45.584838053058895" lon="9.33399600257138"><ele>171.0</ele><time>2026-04-18T07:23:56Z</time></trkpt><trkpt lat="45.584847550173976" lon="9.333892493266806"><ele>171.0</ele><time>2026-04-18T07:23:57Z</time></trkpt><trkpt lat="45.584854854389306" lon="9.333787534200509"><ele>171.0</ele><time>2026-04-18T07:23:58Z</time></trkpt><trkpt lat="45.584862176591365" lon="9.33368886531184"><ele>171.0</ele><time>2026-04-18T07:23:59Z</time></trkpt><trkpt lat="45.58488756875239" lon="9.333561911464756"><ele>171.0</ele><time>2026-04-18T07:24:01Z</time></trkpt><trkpt lat="45.58502681252707" lon="9.333547492202603"><ele>170.83333333333334</ele><time>2026-04-18T07:24:05.999Z</time></trkpt><trkpt lat="45.58509218059853" lon="9.333580659461882"><ele>170.66666666666666</ele><time>2026-04-18T07:24:06.999Z</time></trkpt><trkpt lat="45.585164478690494" lon="9.333587509043307"><ele>170.5</ele><time>2026-04-18T07:24:07.999Z</time></trkpt><trkpt lat="45.58530284827776" lon="9.33362688098534"><ele>170.33333333333331</ele><time>2026-04-18T07:24:09.999Z</time></trkpt><trkpt lat="45.58538703505816" lon="9.333645956794202"><ele>170.16666666666666</ele><time>2026-04-18T07:24:10.999Z</time></trkpt><trkpt lat="45.58546388416785" lon="9.333661796673104"><ele>170.0</ele><time>2026-04-18T07:24:11.999Z</time></trkpt><trkpt lat="45.58555574278513" lon="9.33368281334265"><ele>170.6</ele><time>2026-04-18T07:24:12.999Z</time></trkpt><trkpt lat="45.58563793992061" lon="9.333714872650283"><ele>171.2</ele><time>2026-04-18T07:24:13.999Z</time></trkpt><trkpt lat="45.58572609955994" lon="9.333719509169168"><ele>171.8</ele><time>2026-04-18T07:24:14.999Z</time></trkpt><trkpt lat="45.58582555052194" lon="9.333752141234438"><ele>172.4</ele><time>2026-04-18T07:24:15.999Z</time></trkpt><trkpt lat="45.58592692034199" lon="9.333778677109905"><ele>173.0</ele><time>2026-04-18T07:24:16.999Z</time></trkpt><trkpt lat="45.58601544423403" lon="9.333810783104502"><ele>173.0</ele><time>2026-04-18T07:24:17.999Z</time></trkpt><trkpt lat="45.58610326306277" lon="9.333830722343269"><ele>173.0</ele><time>2026-04-18T07:24:18.999Z</time></trkpt><trkpt lat="45.58618480947238" lon="9.33384925198359"><ele>173.0</ele><time>2026-04-18T07:24:19.999Z</time></trkpt><trkpt lat="45.5862645979788" lon="9.33386487050326"><ele>173.0</ele><time>2026-04-18T07:24:20.999Z</time></trkpt><trkpt lat="45.58633680568059" lon="9.333882658154812"><ele>173.0</ele><time>2026-04-18T07:24:21.999Z</time></trkpt><trkpt lat="45.58641103727155" lon="9.33390542769873"><ele>173.0</ele><time>2026-04-18T07:24:22.999Z</time></trkpt><trkpt lat="45.58647416676755" lon="9.33391171677489"><ele>173.16666666666666</ele><time>2026-04-18T07:24:23.999Z</time></trkpt><trkpt lat="45.586584363995485" lon="9.33393795820723"><ele>173.33333333333331</ele><time>2026-04-18T07:24:25.999Z</time></trkpt><trkpt lat="45.58667017091976" lon="9.333969336223653"><ele>173.5</ele><time>2026-04-18T07:24:27.999Z</time></trkpt><trkpt lat="45.58673874523663" lon="9.333971804470911"><ele>173.66666666666666</ele><time>2026-04-18T07:24:29.999Z</time></trkpt><trkpt lat="45.58680397207632" lon="9.333970591219005"><ele>173.83333333333334</ele><time>2026-04-18T07:24:31.999Z</time></trkpt><trkpt lat="45.586798206618674" lon="9.333835711818052"><ele>174.0</ele><time>2026-04-18T07:24:33.999Z</time></trkpt><trkpt lat="45.58677140630996" lon="9.3337133904369"><ele>174.0</ele><time>2026-04-18T07:24:35.999Z</time></trkpt><trkpt lat="45.586798000924034" lon="9.333595014501382"><ele>174.0</ele><time>2026-04-18T07:24:40Z</time></trkpt><trkpt lat="45.58676543298331" lon="9.333442067692191"><ele>174.0</ele><time>2026-04-18T07:24:42Z</time></trkpt><trkpt lat="45.58677860273057" lon="9.333351524854868"><ele>174.0</ele><time>2026-04-18T07:24:43Z</time></trkpt><trkpt lat="45.58676706833656" lon="9.33325616340861"><ele>174.0</ele><time>2026-04-18T07:24:44Z</time></trkpt><trkpt lat="45.58676359262849" lon="9.33314441577077"><ele>174.0</ele><time>2026-04-18T07:24:45Z</time></trkpt><trkpt lat="45.58676118678414" lon="9.333017884282127"><ele>174.33333333333334</ele><time>2026-04-18T07:24:46Z</time></trkpt><trkpt lat="45.58675985992144" lon="9.33288482577181"><ele>174.66666666666666</ele><time>2026-04-18T07:24:47Z</time></trkpt><trkpt lat="45.58676057235119" lon="9.332750867814246"><ele>175.0</ele><time>2026-04-18T07:24:48Z</time></trkpt><trkpt lat="45.58676523843669" lon="9.332628022929027"><ele>175.33333333333331</ele><time>2026-04-18T07:24:49Z</time></trkpt><trkpt lat="45.58675680517864" lon="9.332507344626151"><ele>175.66666666666666</ele><time>2026-04-18T07:24:50Z</time></trkpt><trkpt lat="45.58673888164253" lon="9.332396302555242"><ele>176.0</ele><time>2026-04-18T07:24:51Z</time></trkpt><trkpt lat="45.586750086297805" lon="9.332303563081693"><ele>175.60000000000002</ele><time>2026-04-18T07:24:52Z</time></trkpt><trkpt lat="45.58672372318905" lon="9.332170081192945"><ele>175.2</ele><time>2026-04-18T07:24:53Z</time></trkpt><trkpt lat="45.586702172102136" lon="9.332021011161173"><ele>174.8</ele><time>2026-04-18T07:24:54Z</time></trkpt><trkpt lat="45.58668254414475" lon="9.331905377248406"><ele>174.39999999999998</ele><time>2026-04-18T07:24:55Z</time></trkpt><trkpt lat="45.58667557213268" lon="9.331812396858124"><ele>174.0</ele><time>2026-04-18T07:24:56Z</time></trkpt><trkpt lat="45.58663304049657" lon="9.33167218706526"><ele>174.0</ele><time>2026-04-18T07:24:58Z</time></trkpt><trkpt lat="45.586641266217" lon="9.331505641705824"><ele>174.0</ele><time>2026-04-18T07:25:00Z</time></trkpt><trkpt lat="45.58667212150237" lon="9.331427100661609"><ele>174.0</ele><time>2026-04-18T07:25:01Z</time></trkpt><trkpt lat="45.58673620238963" lon="9.331277056519454"><ele>174.0</ele><time>2026-04-18T07:25:03Z</time></trkpt><trkpt lat="45.58679146357796" lon="9.331152076819409"><ele>174.0</ele><time>2026-04-18T07:25:05Z</time></trkpt><trkpt lat="45.586854349086245" lon="9.331024811229113"><ele>173.0</ele><time>2026-04-18T07:25:07Z</time></trkpt><trkpt lat="45.58692556250212" lon="9.330897952256537"><ele>172.0</ele><time>2026-04-18T07:25:09Z</time></trkpt><trkpt lat="45.586997816117176" lon="9.330793466217754"><ele>171.0</ele><time>2026-04-18T07:25:11Z</time></trkpt><trkpt lat="45.58706339438085" lon="9.330670385881607"><ele>170.0</ele><time>2026-04-18T07:25:13Z</time></trkpt><trkpt lat="45.58719026108091" lon="9.33059950043341"><ele>170.0</ele><time>2026-04-18T07:25:15Z</time></trkpt><trkpt lat="45.58726915338371" lon="9.330615668231417"><ele>170.0</ele><time>2026-04-18T07:25:16Z</time></trkpt><trkpt lat="45.58734544244469" lon="9.33061645787837"><ele>170.0</ele><time>2026-04-18T07:25:17Z</time></trkpt><trkpt lat="45.58741509166861" lon="9.330563162784207"><ele>170.0</ele><time>2026-04-18T07:25:18Z</time></trkpt><trkpt lat="45.58749336695741" lon="9.33064253851593"><ele>170.0</ele><time>2026-04-18T07:25:19Z</time></trkpt><trkpt lat="45.58755466258521" lon="9.33067097656797"><ele>170.0</ele><time>2026-04-18T07:25:20Z</time></trkpt><trkpt lat="45.5876449151472" lon="9.330757807096273"><ele>170.0</ele><time>2026-04-18T07:25:22Z</time></trkpt><trkpt lat="45.58769988205187" lon="9.330804056708315"><ele>170.0</ele><time>2026-04-18T07:25:24Z</time></trkpt><trkpt lat="45.58780564081365" lon="9.330789979627921"><ele>170.0</ele><time>2026-04-18T07:28:32Z</time></trkpt><trkpt lat="45.5878771407231" lon="9.330789849189905"><ele>170.0</ele><time>2026-04-18T07:29:43.001Z</time></trkpt><trkpt lat="45.587983031894325" lon="9.330753265317535"><ele>170.0</ele><time>2026-04-18T07:29:52.001Z</time></trkpt><trkpt lat="45.587817699892376" lon="9.330631626768495"><ele>170.0</ele><time>2026-04-18T07:29:59.001Z</time></trkpt><trkpt lat="45.58772257989402" lon="9.330589247554018"><ele>170.0</ele><time>2026-04-18T07:30:01.001Z</time></trkpt><trkpt lat="45.587624334210915" lon="9.330568176131216"><ele>170.0</ele><time>2026-04-18T07:30:03.001Z</time></trkpt><trkpt lat="45.58750203648681" lon="9.330543195094503"><ele>170.0</ele><time>2026-04-18T07:30:05.001Z</time></trkpt><trkpt lat="45.587427997555835" lon="9.330522148261734"><ele>170.0</ele><time>2026-04-18T07:30:06.001Z</time></trkpt><trkpt lat="45.58735085839856" lon="9.33049236318707"><ele>169.5</ele><time>2026-04-18T07:30:07.001Z</time></trkpt><trkpt lat="45.587276620267055" lon="9.330455740072903"><ele>169.0</ele><time>2026-04-18T07:30:08.001Z</time></trkpt><trkpt lat="45.58719997716495" lon="9.33042077274741"><ele>168.5</ele><time>2026-04-18T07:30:09.001Z</time></trkpt><trkpt lat="45.587120605097574" lon="9.330377030419298"><ele>168.0</ele><time>2026-04-18T07:30:10.001Z</time></trkpt><trkpt lat="45.58703165824583" lon="9.330335835791887"><ele>167.5</ele><time>2026-04-18T07:30:11.001Z</time></trkpt><trkpt lat="45.586936634250485" lon="9.330317601071513"><ele>167.0</ele><time>2026-04-18T07:30:12.001Z</time></trkpt><trkpt lat="45.58683239314247" lon="9.330315475352895"><ele>167.0</ele><time>2026-04-18T07:30:13.001Z</time></trkpt><trkpt lat="45.58672238185621" lon="9.330315235978619"><ele>167.0</ele><time>2026-04-18T07:30:14.001Z</time></trkpt><trkpt lat="45.58660621398495" lon="9.330301868836393"><ele>167.0</ele><time>2026-04-18T07:30:15.001Z</time></trkpt><trkpt lat="45.586492568572574" lon="9.330274789526188"><ele>167.0</ele><time>2026-04-18T07:30:16.001Z</time></trkpt><trkpt lat="45.586385414063365" lon="9.33024833896027"><ele>167.0</ele><time>2026-04-18T07:30:17.001Z</time></trkpt><trkpt lat="45.58626889097766" lon="9.33022096714354"><ele>167.0</ele><time>2026-04-18T07:30:18.001Z</time></trkpt><trkpt lat="45.58614424250592" lon="9.33019338611745"><ele>167.0</ele><time>2026-04-18T07:30:19.001Z</time></trkpt><trkpt lat="45.58601303186146" lon="9.33016486303358"><ele>167.0</ele><time>2026-04-18T07:30:20.001Z</time></trkpt><trkpt lat="45.58587702002857" lon="9.330136167433603"><ele>167.5</ele><time>2026-04-18T07:30:21.001Z</time></trkpt><trkpt lat="45.585739445354555" lon="9.33010342079947"><ele>168.0</ele><time>2026-04-18T07:30:21.999Z</time></trkpt><trkpt lat="45.58560371928304" lon="9.330065252506946"><ele>168.5</ele><time>2026-04-18T07:30:22.999Z</time></trkpt><trkpt lat="45.58547983809012" lon="9.330018300041196"><ele>169.0</ele><time>2026-04-18T07:30:23.999Z</time></trkpt><trkpt lat="45.585361412544145" lon="9.329958050984821"><ele>168.75</ele><time>2026-04-18T07:30:24.999Z</time></trkpt><trkpt lat="45.585243934846126" lon="9.329878069130183"><ele>168.5</ele><time>2026-04-18T07:30:25.999Z</time></trkpt><trkpt lat="45.5851319435376" lon="9.329784371309973"><ele>168.25</ele><time>2026-04-18T07:30:26.999Z</time></trkpt><trkpt lat="45.58502065479648" lon="9.32966962659242"><ele>168.0</ele><time>2026-04-18T07:30:27.999Z</time></trkpt><trkpt lat="45.58490842895557" lon="9.329544034780517"><ele>168.0</ele><time>2026-04-18T07:30:28.999Z</time></trkpt><trkpt lat="45.58478507507765" lon="9.329415078736442"><ele>168.0</ele><time>2026-04-18T07:30:29.999Z</time></trkpt><trkpt lat="45.584663251504985" lon="9.329288894750269"><ele>168.0</ele><time>2026-04-18T07:30:30.999Z</time></trkpt><trkpt lat="45.58455658043588" lon="9.329177348220107"><ele>168.0</ele><time>2026-04-18T07:30:31.999Z</time></trkpt><trkpt lat="45.5844541573915" lon="9.32906845805359"><ele>167.75</ele><time>2026-04-18T07:30:32.999Z</time></trkpt><trkpt lat="45.5843609121975" lon="9.32896332939383"><ele>167.5</ele><time>2026-04-18T07:30:33.999Z</time></trkpt><trkpt lat="45.58426079069815" lon="9.328861381782747"><ele>167.25</ele><time>2026-04-18T07:30:34.999Z</time></trkpt><trkpt lat="45.58415853864859" lon="9.328761082022787"><ele>167.0</ele><time>2026-04-18T07:30:35.999Z</time></trkpt><trkpt lat="45.58405354927423" lon="9.328649036718339"><ele>167.0</ele><time>2026-04-18T07:30:36.999Z</time></trkpt><trkpt lat="45.58395227549692" lon="9.328542615570408"><ele>167.0</ele><time>2026-04-18T07:30:38Z</time></trkpt><trkpt lat="45.58384969983627" lon="9.328435662046756"><ele>167.0</ele><time>2026-04-18T07:30:39Z</time></trkpt><trkpt lat="45.583747611435335" lon="9.328327268429378"><ele>167.0</ele><time>2026-04-18T07:30:40Z</time></trkpt><trkpt lat="45.58364684613595" lon="9.328219589000206"><ele>167.0</ele><time>2026-04-18T07:30:41Z</time></trkpt><trkpt lat="45.5835480196764" lon="9.328112628111965"><ele>167.0</ele><time>2026-04-18T07:30:42Z</time></trkpt><trkpt lat="45.58345009437291" lon="9.328011323658309"><ele>167.0</ele><time>2026-04-18T07:30:43Z</time></trkpt><trkpt lat="45.58335484867854" lon="9.32791018878873"><ele>167.0</ele><time>2026-04-18T07:30:44Z</time></trkpt><trkpt lat="45.583262107741575" lon="9.327810288908232"><ele>166.83333333333331</ele><time>2026-04-18T07:30:45Z</time></trkpt><trkpt lat="45.58317613682051" lon="9.327721079312758"><ele>166.66666666666666</ele><time>2026-04-18T07:30:46Z</time></trkpt><trkpt lat="45.58309760716639" lon="9.327630079618675"><ele>166.5</ele><time>2026-04-18T07:30:47Z</time></trkpt><trkpt lat="45.583025612369546" lon="9.327549650576058"><ele>166.33333333333334</ele><time>2026-04-18T07:30:48Z</time></trkpt><trkpt lat="45.582970456272484" lon="9.327480340170991"><ele>166.16666666666669</ele><time>2026-04-18T07:30:49Z</time></trkpt><trkpt lat="45.582929484012574" lon="9.327407470777983"><ele>166.0</ele><time>2026-04-18T07:30:50Z</time></trkpt><trkpt lat="45.58289617627114" lon="9.327325623778796"><ele>165.66666666666669</ele><time>2026-04-18T07:30:51Z</time></trkpt><trkpt lat="45.58287350504771" lon="9.327221535055225"><ele>165.33333333333334</ele><time>2026-04-18T07:30:52Z</time></trkpt><trkpt lat="45.58285175784135" lon="9.327115154962117"><ele>165.0</ele><time>2026-04-18T07:30:53Z</time></trkpt><trkpt lat="45.582817475159665" lon="9.327023960880492"><ele>164.66666666666666</ele><time>2026-04-18T07:30:54Z</time></trkpt><trkpt lat="45.58269407001308" lon="9.326935562996677"><ele>164.33333333333331</ele><time>2026-04-18T07:30:56Z</time></trkpt><trkpt lat="45.58261085268142" lon="9.326934495092107"><ele>164.0</ele><time>2026-04-18T07:30:57Z</time></trkpt><trkpt lat="45.5825362196469" lon="9.326993936216681"><ele>163.79999999999998</ele><time>2026-04-18T07:30:58Z</time></trkpt><trkpt lat="45.58244629754271" lon="9.327018017675368"><ele>163.6</ele><time>2026-04-18T07:30:59Z</time></trkpt><trkpt lat="45.582350285663736" lon="9.32686553725526"><ele>163.4</ele><time>2026-04-18T07:31:00Z</time></trkpt><trkpt lat="45.58226912979853" lon="9.326777001002572"><ele>163.2</ele><time>2026-04-18T07:31:01Z</time></trkpt><trkpt lat="45.58217914849683" lon="9.326685973634106"><ele>163.0</ele><time>2026-04-18T07:31:02Z</time></trkpt><trkpt lat="45.58208682307815" lon="9.326580408243707"><ele>163.25</ele><time>2026-04-18T07:31:03Z</time></trkpt><trkpt lat="45.58198875830371" lon="9.326477099270734"><ele>163.5</ele><time>2026-04-18T07:31:04Z</time></trkpt><trkpt lat="45.58188611830005" lon="9.32637190514208"><ele>163.75</ele><time>2026-04-18T07:31:05Z</time></trkpt><trkpt lat="45.58177585369199" lon="9.32626238706394"><ele>164.0</ele><time>2026-04-18T07:31:06Z</time></trkpt><trkpt lat="45.5816666049317" lon="9.326154342212279"><ele>164.0</ele><time>2026-04-18T07:31:07Z</time></trkpt><trkpt lat="45.58155669728576" lon="9.326046882938904"><ele>164.0</ele><time>2026-04-18T07:31:08Z</time></trkpt><trkpt lat="45.58145106391919" lon="9.325941993456434"><ele>164.0</ele><time>2026-04-18T07:31:09Z</time></trkpt><trkpt lat="45.58135073721303" lon="9.32583559453462"><ele>164.0</ele><time>2026-04-18T07:31:10Z</time></trkpt><trkpt lat="45.58125222370635" lon="9.325729438602002"><ele>164.0</ele><time>2026-04-18T07:31:11Z</time></trkpt><trkpt lat="45.58115225845752" lon="9.325628542753133"><ele>164.0</ele><time>2026-04-18T07:31:12Z</time></trkpt><trkpt lat="45.58105671737534" lon="9.325536029652953"><ele>164.0</ele><time>2026-04-18T07:31:13Z</time></trkpt><trkpt lat="45.580963716327965" lon="9.32545015615673"><ele>164.0</ele><time>2026-04-18T07:31:14Z</time></trkpt><trkpt lat="45.580875748178585" lon="9.325364423104103"><ele>164.0</ele><time>2026-04-18T07:31:15Z</time></trkpt><trkpt lat="45.58079557460291" lon="9.32528346030079"><ele>164.0</ele><time>2026-04-18T07:31:16Z</time></trkpt><trkpt lat="45.5807213209697" lon="9.325213282395792"><ele>164.0</ele><time>2026-04-18T07:31:17Z</time></trkpt><trkpt lat="45.58064974414938" lon="9.325145035292719"><ele>164.0</ele><time>2026-04-18T07:31:18Z</time></trkpt><trkpt lat="45.58058856178977" lon="9.325081106058304"><ele>164.0</ele><time>2026-04-18T07:31:19Z</time></trkpt><trkpt lat="45.58052933689397" lon="9.325018926753371"><ele>164.0</ele><time>2026-04-18T07:31:20Z</time></trkpt><trkpt lat="45.580479337564974" lon="9.324942318193898"><ele>164.0</ele><time>2026-04-18T07:31:21Z</time></trkpt><trkpt lat="45.58042327509276" lon="9.324884033853797"><ele>164.0</ele><time>2026-04-18T07:31:22Z</time></trkpt><trkpt lat="45.580363155688154" lon="9.324849812146772"><ele>164.0</ele><time>2026-04-18T07:31:23Z</time></trkpt><trkpt lat="45.58027736065485" lon="9.32475331113183"><ele>164.0</ele><time>2026-04-18T07:31:25Z</time></trkpt><trkpt lat="45.580205428866606" lon="9.324689149777194"><ele>164.0</ele><time>2026-04-18T07:31:27Z</time></trkpt><trkpt lat="45.58014545451409" lon="9.324627244658593"><ele>164.0</ele><time>2026-04-18T07:31:30Z</time></trkpt><trkpt lat="45.580105670213406" lon="9.324556999515181"><ele>163.75</ele><time>2026-04-18T07:32:48.999Z</time></trkpt><trkpt lat="45.58004019311603" lon="9.324479540385695"><ele>163.5</ele><time>2026-04-18T07:32:50.999Z</time></trkpt><trkpt lat="45.579966488957126" lon="9.324389946877657"><ele>163.25</ele><time>2026-04-18T07:32:52.999Z</time></trkpt><trkpt lat="45.57971703779136" lon="9.324296636588171"><ele>163.0</ele><time>2026-04-18T07:32:56Z</time></trkpt><trkpt lat="45.57972769730339" lon="9.324663239213328"><ele>162.8</ele><time>2026-04-18T07:32:57Z</time></trkpt><trkpt lat="45.579689623730985" lon="9.324784165429378"><ele>162.60000000000002</ele><time>2026-04-18T07:32:58Z</time></trkpt><trkpt lat="45.57965242955737" lon="9.324913959207388"><ele>162.39999999999998</ele><time>2026-04-18T07:32:59Z</time></trkpt><trkpt lat="45.579614376055154" lon="9.325045227455416"><ele>162.2</ele><time>2026-04-18T07:33:00Z</time></trkpt><trkpt lat="45.57957408273474" lon="9.32517612862699"><ele>162.0</ele><time>2026-04-18T07:33:01Z</time></trkpt><trkpt lat="45.579527293389404" lon="9.325317464902348"><ele>161.75</ele><time>2026-04-18T07:33:02Z</time></trkpt><trkpt lat="45.57947633188135" lon="9.325465827970564"><ele>161.5</ele><time>2026-04-18T07:33:03Z</time></trkpt><trkpt lat="45.57942272180774" lon="9.325620496036013"><ele>161.25</ele><time>2026-04-18T07:33:04Z</time></trkpt><trkpt lat="45.57936719289898" lon="9.325778942990608"><ele>161.0</ele><time>2026-04-18T07:33:05Z</time></trkpt><trkpt lat="45.57930698737484" lon="9.32594098539326"><ele>161.5</ele><time>2026-04-18T07:33:06Z</time></trkpt><trkpt lat="45.57924571989648" lon="9.326104977718469"><ele>162.0</ele><time>2026-04-18T07:33:07Z</time></trkpt><trkpt lat="45.57918553052757" lon="9.326260880234202"><ele>162.5</ele><time>2026-04-18T07:33:08Z</time></trkpt><trkpt lat="45.5791285464487" lon="9.326416226272544"><ele>163.0</ele><time>2026-04-18T07:33:09Z</time></trkpt><trkpt lat="45.5790684740643" lon="9.326573833135862"><ele>163.25</ele><time>2026-04-18T07:33:10Z</time></trkpt><trkpt lat="45.579009361302425" lon="9.326732268888382"><ele>163.5</ele><time>2026-04-18T07:33:11Z</time></trkpt><trkpt lat="45.57894808516712" lon="9.326894990161838"><ele>163.75</ele><time>2026-04-18T07:33:12Z</time></trkpt><trkpt lat="45.578886346050844" lon="9.327060167324923"><ele>164.0</ele><time>2026-04-18T07:33:13Z</time></trkpt><trkpt lat="45.57882531568753" lon="9.327220845532672"><ele>163.75</ele><time>2026-04-18T07:33:14Z</time></trkpt><trkpt lat="45.57876347435717" lon="9.327387321708592"><ele>163.5</ele><time>2026-04-18T07:33:15Z</time></trkpt><trkpt lat="45.578702418037" lon="9.327555055113887"><ele>163.25</ele><time>2026-04-18T07:33:16Z</time></trkpt><trkpt lat="45.578640272929" lon="9.327723230174037"><ele>163.0</ele><time>2026-04-18T07:33:17Z</time></trkpt><trkpt lat="45.57858306432061" lon="9.3278749210518"><ele>162.8</ele><time>2026-04-18T07:33:18Z</time></trkpt><trkpt lat="45.57852775258781" lon="9.328032133705234"><ele>162.60000000000002</ele><time>2026-04-18T07:33:19Z</time></trkpt><trkpt lat="45.578473317184255" lon="9.328188466546342"><ele>162.39999999999998</ele><time>2026-04-18T07:33:20Z</time></trkpt><trkpt lat="45.578432858292224" lon="9.328306477247738"><ele>162.2</ele><time>2026-04-18T07:33:21Z</time></trkpt><trkpt lat="45.578400188199424" lon="9.32840533688589"><ele>162.0</ele><time>2026-04-18T07:33:22Z</time></trkpt><trkpt lat="45.5783033039504" lon="9.328649685886651"><ele>162.0</ele><time>2026-04-18T07:33:23Z</time></trkpt><trkpt lat="45.57826172689052" lon="9.328760793407747"><ele>162.0</ele><time>2026-04-18T07:33:24Z</time></trkpt><trkpt lat="45.57821822441149" lon="9.328856613996562"><ele>162.0</ele><time>2026-04-18T07:33:25Z</time></trkpt><trkpt lat="45.57818687929703" lon="9.328947889964107"><ele>162.0</ele><time>2026-04-18T07:33:26Z</time></trkpt><trkpt lat="45.578156864448275" lon="9.329033965610842"><ele>162.0</ele><time>2026-04-18T07:33:27Z</time></trkpt><trkpt lat="45.578115371235434" lon="9.329193101923464"><ele>162.0</ele><time>2026-04-18T07:33:29Z</time></trkpt><trkpt lat="45.57805921346438" lon="9.329337410607309"><ele>162.0</ele><time>2026-04-18T07:33:31Z</time></trkpt><trkpt lat="45.57800645696423" lon="9.329463825860229"><ele>162.0</ele><time>2026-04-18T07:33:33Z</time></trkpt><trkpt lat="45.57796652459718" lon="9.32955926377658"><ele>162.0</ele><time>2026-04-18T07:33:35Z</time></trkpt><trkpt lat="45.57793707311578" lon="9.329645022545243"><ele>162.0</ele><time>2026-04-18T07:33:37Z</time></trkpt><trkpt lat="45.577907893504765" lon="9.329726407604506"><ele>162.0</ele><time>2026-04-18T07:33:40.001Z</time></trkpt><trkpt lat="45.57785602524142" lon="9.329848102589809"><ele>162.0</ele><time>2026-04-18T07:33:44.001Z</time></trkpt><trkpt lat="45.577816536345715" lon="9.329953353906594"><ele>162.0</ele><time>2026-04-18T07:33:45.001Z</time></trkpt><trkpt lat="45.577771491460304" lon="9.330063988433631"><ele>162.0</ele><time>2026-04-18T07:33:46.001Z</time></trkpt><trkpt lat="45.57772415378266" lon="9.330186858237674"><ele>162.0</ele><time>2026-04-18T07:33:47.001Z</time></trkpt><trkpt lat="45.57767201273156" lon="9.330320313628519"><ele>162.0</ele><time>2026-04-18T07:33:48.001Z</time></trkpt><trkpt lat="45.57762242049398" lon="9.330452635874362"><ele>162.0</ele><time>2026-04-18T07:33:49.001Z</time></trkpt><trkpt lat="45.57756666065963" lon="9.330602619151167"><ele>162.0</ele><time>2026-04-18T07:33:50.001Z</time></trkpt><trkpt lat="45.57750568767037" lon="9.330766532540302"><ele>162.0</ele><time>2026-04-18T07:33:51.001Z</time></trkpt><trkpt lat="45.57744063682802" lon="9.330945241713726"><ele>162.0</ele><time>2026-04-18T07:33:52.001Z</time></trkpt><trkpt lat="45.57736874692915" lon="9.331120675232158"><ele>162.0</ele><time>2026-04-18T07:33:53.001Z</time></trkpt><trkpt lat="45.57730860139786" lon="9.331296140352045"><ele>162.5</ele><time>2026-04-18T07:33:54.001Z</time></trkpt><trkpt lat="45.57723835535249" lon="9.331476075911324"><ele>163.0</ele><time>2026-04-18T07:33:55.001Z</time></trkpt><trkpt lat="45.577170460136855" lon="9.33166357135372"><ele>163.5</ele><time>2026-04-18T07:33:56.001Z</time></trkpt><trkpt lat="45.577099672670265" lon="9.33185342494088"><ele>164.0</ele><time>2026-04-18T07:33:57.001Z</time></trkpt><trkpt lat="45.577027044789205" lon="9.332045751771348"><ele>163.66666666666666</ele><time>2026-04-18T07:33:58.001Z</time></trkpt><trkpt lat="45.57695307718489" lon="9.332247138227075"><ele>163.33333333333334</ele><time>2026-04-18T07:33:59.001Z</time></trkpt><trkpt lat="45.57688633656528" lon="9.332440340669539"><ele>163.0</ele><time>2026-04-18T07:34:00.001Z</time></trkpt><trkpt lat="45.57681906220577" lon="9.332636049548121"><ele>163.0</ele><time>2026-04-18T07:34:01.001Z</time></trkpt><trkpt lat="45.57674031292627" lon="9.332846153132767"><ele>163.0</ele><time>2026-04-18T07:34:02.001Z</time></trkpt><trkpt lat="45.57666872086549" lon="9.333045264631092"><ele>163.0</ele><time>2026-04-18T07:34:03.001Z</time></trkpt><trkpt lat="45.57660168487901" lon="9.333235879203027"><ele>163.25</ele><time>2026-04-18T07:34:04.001Z</time></trkpt><trkpt lat="45.57654211044107" lon="9.333415812822054"><ele>163.5</ele><time>2026-04-18T07:34:05.001Z</time></trkpt><trkpt lat="45.57649096046432" lon="9.333595860481427"><ele>163.75</ele><time>2026-04-18T07:34:06.001Z</time></trkpt><trkpt lat="45.57644404461463" lon="9.333768356011442"><ele>164.0</ele><time>2026-04-18T07:34:07.001Z</time></trkpt><trkpt lat="45.576396642357516" lon="9.333957301563318"><ele>164.0</ele><time>2026-04-18T07:34:08.001Z</time></trkpt><trkpt lat="45.576343414964676" lon="9.334146620119128"><ele>164.0</ele><time>2026-04-18T07:34:09.001Z</time></trkpt><trkpt lat="45.576286961304746" lon="9.334346355260099"><ele>164.0</ele><time>2026-04-18T07:34:10.001Z</time></trkpt><trkpt lat="45.57623006796157" lon="9.334552415354706"><ele>164.0</ele><time>2026-04-18T07:34:11.001Z</time></trkpt><trkpt lat="45.57617854108869" lon="9.334734408623062"><ele>163.5</ele><time>2026-04-18T07:34:12.001Z</time></trkpt><trkpt lat="45.57613762885645" lon="9.334903424074485"><ele>163.0</ele><time>2026-04-18T07:34:13.001Z</time></trkpt><trkpt lat="45.57610180269689" lon="9.33506812861856"><ele>162.5</ele><time>2026-04-18T07:34:14.001Z</time></trkpt><trkpt lat="45.57608396814949" lon="9.33524180065895"><ele>162.0</ele><time>2026-04-18T07:34:15.001Z</time></trkpt><trkpt lat="45.57604819221994" lon="9.335422124415917"><ele>162.0</ele><time>2026-04-18T07:34:16.001Z</time></trkpt><trkpt lat="45.57600983021062" lon="9.33561339237957"><ele>162.0</ele><time>2026-04-18T07:34:17.001Z</time></trkpt><trkpt lat="45.57595379366445" lon="9.335810259290396"><ele>162.0</ele><time>2026-04-18T07:34:18.001Z</time></trkpt><trkpt lat="45.57591448539061" lon="9.33602241837596"><ele>162.0</ele><time>2026-04-18T07:34:19.001Z</time></trkpt><trkpt lat="45.57588314439122" lon="9.336241172221659"><ele>162.0</ele><time>2026-04-18T07:34:20.001Z</time></trkpt><trkpt lat="45.57584730422557" lon="9.336461935031338"><ele>162.0</ele><time>2026-04-18T07:34:21.001Z</time></trkpt><trkpt lat="45.57579136455992" lon="9.336688385043939"><ele>162.0</ele><time>2026-04-18T07:34:22.001Z</time></trkpt><trkpt lat="45.57575056806735" lon="9.336922634547875"><ele>162.0</ele><time>2026-04-18T07:34:23.001Z</time></trkpt><trkpt lat="45.57570406298594" lon="9.337159237480114"><ele>162.0</ele><time>2026-04-18T07:34:24.001Z</time></trkpt><trkpt lat="45.57565881559071" lon="9.337400576148534"><ele>162.0</ele><time>2026-04-18T07:34:25.001Z</time></trkpt><trkpt lat="45.57561307403077" lon="9.337636427942305"><ele>162.0</ele><time>2026-04-18T07:34:26.001Z</time></trkpt><trkpt lat="45.57556463345083" lon="9.337873582359844"><ele>162.0</ele><time>2026-04-18T07:34:27.001Z</time></trkpt><trkpt lat="45.57552291860697" lon="9.338109348834102"><ele>162.0</ele><time>2026-04-18T07:34:28.001Z</time></trkpt><trkpt lat="45.575480140377344" lon="9.338343137848168"><ele>162.0</ele><time>2026-04-18T07:34:29.001Z</time></trkpt><trkpt lat="45.57543740156691" lon="9.338563862916297"><ele>162.0</ele><time>2026-04-18T07:34:30.001Z</time></trkpt><trkpt lat="45.57541113365716" lon="9.338778735556307"><ele>162.0</ele><time>2026-04-18T07:34:31.001Z</time></trkpt><trkpt lat="45.57535942234192" lon="9.33897677541394"><ele>162.25</ele><time>2026-04-18T07:34:32.001Z</time></trkpt><trkpt lat="45.57534068894336" lon="9.33916993949588"><ele>162.5</ele><time>2026-04-18T07:34:33.001Z</time></trkpt><trkpt lat="45.57530651944245" lon="9.339350687283085"><ele>162.75</ele><time>2026-04-18T07:34:33.999Z</time></trkpt><trkpt lat="45.57527464604237" lon="9.339519291287381"><ele>163.0</ele><time>2026-04-18T07:34:34.999Z</time></trkpt><trkpt lat="45.57524334456825" lon="9.33968562840257"><ele>162.75</ele><time>2026-04-18T07:34:35.999Z</time></trkpt><trkpt lat="45.57521063421738" lon="9.33984363513724"><ele>162.5</ele><time>2026-04-18T07:34:36.999Z</time></trkpt><trkpt lat="45.57517743903315" lon="9.339984880946815"><ele>162.25</ele><time>2026-04-18T07:34:37.999Z</time></trkpt><trkpt lat="45.57514550575582" lon="9.340103985537144"><ele>162.0</ele><time>2026-04-18T07:34:39Z</time></trkpt><trkpt lat="45.57500440769263" lon="9.340143176123659"><ele>162.0</ele><time>2026-04-18T07:34:40Z</time></trkpt><trkpt lat="45.57493595780026" lon="9.340225144479325"><ele>162.0</ele><time>2026-04-18T07:34:41Z</time></trkpt><trkpt lat="45.57484444574058" lon="9.340232481565273"><ele>162.0</ele><time>2026-04-18T07:34:42Z</time></trkpt><trkpt lat="45.57475690363989" lon="9.340216538605334"><ele>162.0</ele><time>2026-04-18T07:34:43Z</time></trkpt><trkpt lat="45.574671807048794" lon="9.34015184940127"><ele>162.0</ele><time>2026-04-18T07:34:44Z</time></trkpt><trkpt lat="45.57458654977503" lon="9.34006188523428"><ele>162.0</ele><time>2026-04-18T07:34:45Z</time></trkpt><trkpt lat="45.57450571710462" lon="9.339942278134279"><ele>162.0</ele><time>2026-04-18T07:34:46Z</time></trkpt><trkpt lat="45.57442644095798" lon="9.339824078455594"><ele>162.0</ele><time>2026-04-18T07:34:47Z</time></trkpt><trkpt lat="45.57433338661878" lon="9.339712787649512"><ele>162.0</ele><time>2026-04-18T07:34:48Z</time></trkpt><trkpt lat="45.57423822152502" lon="9.339605473432288"><ele>162.2</ele><time>2026-04-18T07:34:49Z</time></trkpt><trkpt lat="45.57414810044355" lon="9.339506776492943"><ele>162.39999999999998</ele><time>2026-04-18T07:34:50Z</time></trkpt><trkpt lat="45.5740660730264" lon="9.339432744195713"><ele>162.60000000000002</ele><time>2026-04-18T07:34:51Z</time></trkpt><trkpt lat="45.57397248638272" lon="9.339397089637854"><ele>162.8</ele><time>2026-04-18T07:34:52Z</time></trkpt><trkpt lat="45.57387069816152" lon="9.339408088989849"><ele>163.0</ele><time>2026-04-18T07:34:53Z</time></trkpt><trkpt lat="45.57376873471831" lon="9.339455440960737"><ele>162.75</ele><time>2026-04-18T07:34:54Z</time></trkpt><trkpt lat="45.57368556604889" lon="9.339575895909377"><ele>162.5</ele><time>2026-04-18T07:34:55Z</time></trkpt><trkpt lat="45.57357742241698" lon="9.339635463567099"><ele>162.25</ele><time>2026-04-18T07:34:56Z</time></trkpt><trkpt lat="45.57347378403652" lon="9.339718874719544"><ele>162.0</ele><time>2026-04-18T07:34:57Z</time></trkpt><trkpt lat="45.573353176272626" lon="9.339768699075634"><ele>162.0</ele><time>2026-04-18T07:34:58Z</time></trkpt><trkpt lat="45.573223205856834" lon="9.339794836615168"><ele>162.0</ele><time>2026-04-18T07:34:59Z</time></trkpt><trkpt lat="45.57308609462635" lon="9.339791495346553"><ele>162.0</ele><time>2026-04-18T07:35:00Z</time></trkpt><trkpt lat="45.572945717043176" lon="9.33975586122747"><ele>162.0</ele><time>2026-04-18T07:35:01Z</time></trkpt><trkpt lat="45.57280943816148" lon="9.339692054308665"><ele>161.33333333333334</ele><time>2026-04-18T07:35:02Z</time></trkpt><trkpt lat="45.572670550280684" lon="9.339606581724597"><ele>160.66666666666669</ele><time>2026-04-18T07:35:03Z</time></trkpt><trkpt lat="45.57252953303794" lon="9.339512928998086"><ele>160.0</ele><time>2026-04-18T07:35:04Z</time></trkpt><trkpt lat="45.572392894029534" lon="9.339427615109129"><ele>160.0</ele><time>2026-04-18T07:35:05Z</time></trkpt><trkpt lat="45.57224954084908" lon="9.339340258631458"><ele>160.0</ele><time>2026-04-18T07:35:06Z</time></trkpt><trkpt lat="45.57209815632718" lon="9.339253026469798"><ele>160.0</ele><time>2026-04-18T07:35:07Z</time></trkpt><trkpt lat="45.57194202697771" lon="9.339163712673514"><ele>159.66666666666669</ele><time>2026-04-18T07:35:08Z</time></trkpt><trkpt lat="45.571781738872915" lon="9.339068343955478"><ele>159.33333333333334</ele><time>2026-04-18T07:35:09Z</time></trkpt><trkpt lat="45.57161839025817" lon="9.338969232358346"><ele>159.0</ele><time>2026-04-18T07:35:10Z</time></trkpt><trkpt lat="45.57145307373603" lon="9.33886900626451"><ele>159.0</ele><time>2026-04-18T07:35:11Z</time></trkpt><trkpt lat="45.5712836424768" lon="9.338763102981915"><ele>159.0</ele><time>2026-04-18T07:35:12Z</time></trkpt><trkpt lat="45.57111164162303" lon="9.338657382012501"><ele>159.0</ele><time>2026-04-18T07:35:13Z</time></trkpt><trkpt lat="45.570945669482704" lon="9.338554428985185"><ele>158.0</ele><time>2026-04-18T07:35:14Z</time></trkpt><trkpt lat="45.570781880579574" lon="9.338451415618076"><ele>157.0</ele><time>2026-04-18T07:35:15Z</time></trkpt><trkpt lat="45.57061330540261" lon="9.338348427957678"><ele>156.0</ele><time>2026-04-18T07:35:16Z</time></trkpt><trkpt lat="45.57044358954466" lon="9.338246104539296"><ele>155.66666666666666</ele><time>2026-04-18T07:35:17Z</time></trkpt><trkpt lat="45.570274603012095" lon="9.33814665063716"><ele>155.33333333333331</ele><time>2026-04-18T07:35:18Z</time></trkpt><trkpt lat="45.570103604611255" lon="9.338045367227693"><ele>155.0</ele><time>2026-04-18T07:35:19Z</time></trkpt><trkpt lat="45.56993138443538" lon="9.337940290068753"><ele>156.0</ele><time>2026-04-18T07:35:20Z</time></trkpt><trkpt lat="45.56975785396172" lon="9.337832295354064"><ele>157.0</ele><time>2026-04-18T07:35:21Z</time></trkpt><trkpt lat="45.56958194400393" lon="9.33772511324616"><ele>158.0</ele><time>2026-04-18T07:35:22Z</time></trkpt><trkpt lat="45.569400073782056" lon="9.33761933585044"><ele>158.0</ele><time>2026-04-18T07:35:23Z</time></trkpt><trkpt lat="45.569218422208664" lon="9.33751164731767"><ele>158.0</ele><time>2026-04-18T07:35:24Z</time></trkpt><trkpt lat="45.56903709984482" lon="9.33740495111961"><ele>158.0</ele><time>2026-04-18T07:35:25Z</time></trkpt><trkpt lat="45.56885074200338" lon="9.337302213020177"><ele>157.66666666666666</ele><time>2026-04-18T07:35:26Z</time></trkpt><trkpt lat="45.5686648475541" lon="9.337204906493822"><ele>157.33333333333334</ele><time>2026-04-18T07:35:27Z</time></trkpt><trkpt lat="45.56847558055933" lon="9.337107055883992"><ele>157.0</ele><time>2026-04-18T07:35:28Z</time></trkpt><trkpt lat="45.56828877460415" lon="9.337009824384129"><ele>157.0</ele><time>2026-04-18T07:35:29Z</time></trkpt><trkpt lat="45.568109082391885" lon="9.336913303021884"><ele>157.0</ele><time>2026-04-18T07:35:30Z</time></trkpt><trkpt lat="45.56792686696133" lon="9.336822481771447"><ele>157.0</ele><time>2026-04-18T07:35:31Z</time></trkpt><trkpt lat="45.56774004376813" lon="9.336738371120507"><ele>157.0</ele><time>2026-04-18T07:35:32Z</time></trkpt><trkpt lat="45.567549457464914" lon="9.336655650102387"><ele>157.0</ele><time>2026-04-18T07:35:33Z</time></trkpt><trkpt lat="45.56736131137277" lon="9.336573130205732"><ele>157.0</ele><time>2026-04-18T07:35:34.001Z</time></trkpt><trkpt lat="45.56717097421049" lon="9.336487887602122"><ele>157.33333333333334</ele><time>2026-04-18T07:35:35.001Z</time></trkpt><trkpt lat="45.56698678157746" lon="9.33640641078877"><ele>157.66666666666666</ele><time>2026-04-18T07:35:36.001Z</time></trkpt><trkpt lat="45.566799828432394" lon="9.336318377230727"><ele>158.0</ele><time>2026-04-18T07:35:37.001Z</time></trkpt><trkpt lat="45.5666143409823" lon="9.336228990885653"><ele>158.0</ele><time>2026-04-18T07:35:38.001Z</time></trkpt><trkpt lat="45.56642818713397" lon="9.336144913999274"><ele>158.0</ele><time>2026-04-18T07:35:39.001Z</time></trkpt><trkpt lat="45.566243198402915" lon="9.336054849927399"><ele>158.0</ele><time>2026-04-18T07:35:40.001Z</time></trkpt><trkpt lat="45.56606161260636" lon="9.33595928785417"><ele>158.33333333333331</ele><time>2026-04-18T07:35:41.001Z</time></trkpt><trkpt lat="45.565879775968234" lon="9.3358588366366"><ele>158.66666666666666</ele><time>2026-04-18T07:35:42.001Z</time></trkpt><trkpt lat="45.56570132662737" lon="9.335753813840213"><ele>159.0</ele><time>2026-04-18T07:35:43.001Z</time></trkpt><trkpt lat="45.56551343162177" lon="9.335632808973346"><ele>159.0</ele><time>2026-04-18T07:35:44.001Z</time></trkpt><trkpt lat="45.56533734457672" lon="9.335516831837596"><ele>159.0</ele><time>2026-04-18T07:35:45.001Z</time></trkpt><trkpt lat="45.56515971420248" lon="9.335391161896867"><ele>159.0</ele><time>2026-04-18T07:35:46.001Z</time></trkpt><trkpt lat="45.56498433899596" lon="9.335257306441008"><ele>159.0</ele><time>2026-04-18T07:35:47.001Z</time></trkpt><trkpt lat="45.56481188329367" lon="9.33512189687302"><ele>159.0</ele><time>2026-04-18T07:35:48.001Z</time></trkpt><trkpt lat="45.56464683689546" lon="9.334989166932774"><ele>159.0</ele><time>2026-04-18T07:35:49.001Z</time></trkpt><trkpt lat="45.564478382464216" lon="9.334852552667844"><ele>158.33333333333334</ele><time>2026-04-18T07:35:50.001Z</time></trkpt><trkpt lat="45.56431015049819" lon="9.334720098894936"><ele>157.66666666666669</ele><time>2026-04-18T07:35:51.001Z</time></trkpt><trkpt lat="45.56414703569978" lon="9.33457862948677"><ele>157.0</ele><time>2026-04-18T07:35:52.001Z</time></trkpt><trkpt lat="45.5639745614203" lon="9.334460197551785"><ele>157.0</ele><time>2026-04-18T07:35:53.001Z</time></trkpt><trkpt lat="45.563808885498595" lon="9.334344445432613"><ele>157.0</ele><time>2026-04-18T07:35:54.001Z</time></trkpt><trkpt lat="45.56363978691533" lon="9.334232417129147"><ele>157.0</ele><time>2026-04-18T07:35:55.001Z</time></trkpt><trkpt lat="45.56346750116701" lon="9.334126406479795"><ele>156.33333333333334</ele><time>2026-04-18T07:35:56.001Z</time></trkpt><trkpt lat="45.56330909902645" lon="9.3340201425973"><ele>155.66666666666666</ele><time>2026-04-18T07:35:57.001Z</time></trkpt><trkpt lat="45.56314973423048" lon="9.333896699616401"><ele>155.0</ele><time>2026-04-18T07:35:58.001Z</time></trkpt><trkpt lat="45.56300386593956" lon="9.333763434003682"><ele>155.33333333333331</ele><time>2026-04-18T07:35:59.001Z</time></trkpt><trkpt lat="45.562867399263006" lon="9.333626610101287"><ele>155.66666666666666</ele><time>2026-04-18T07:36:00.001Z</time></trkpt><trkpt lat="45.56274028514343" lon="9.333497595580592"><ele>156.0</ele><time>2026-04-18T07:36:01.001Z</time></trkpt><trkpt lat="45.562618869616365" lon="9.333379648551961"><ele>156.0</ele><time>2026-04-18T07:36:02.001Z</time></trkpt><trkpt lat="45.56249868024433" lon="9.333273761228307"><ele>156.0</ele><time>2026-04-18T07:36:03.001Z</time></trkpt><trkpt lat="45.56237900491162" lon="9.333178591694967"><ele>156.0</ele><time>2026-04-18T07:36:04.001Z</time></trkpt><trkpt lat="45.56226164058024" lon="9.333097156900173"><ele>156.0</ele><time>2026-04-18T07:36:05.001Z</time></trkpt><trkpt lat="45.56214986906535" lon="9.333024566777727"><ele>156.0</ele><time>2026-04-18T07:36:06.001Z</time></trkpt><trkpt lat="45.5620496019249" lon="9.332936169199185"><ele>156.0</ele><time>2026-04-18T07:36:07.001Z</time></trkpt><trkpt lat="45.56194796052495" lon="9.332875088674374"><ele>156.0</ele><time>2026-04-18T07:36:08.001Z</time></trkpt><trkpt lat="45.561852401206274" lon="9.33281766321789"><ele>156.0</ele><time>2026-04-18T07:36:09.001Z</time></trkpt><trkpt lat="45.561765654264626" lon="9.332765533566112"><ele>156.0</ele><time>2026-04-18T07:36:10.001Z</time></trkpt><trkpt lat="45.56168418355448" lon="9.332717490536295"><ele>155.6</ele><time>2026-04-18T07:36:11.001Z</time></trkpt><trkpt lat="45.56161257368488" lon="9.332676099372856"><ele>155.2</ele><time>2026-04-18T07:36:12.001Z</time></trkpt><trkpt lat="45.5615456879753" lon="9.332661994784532"><ele>154.8</ele><time>2026-04-18T07:36:13.001Z</time></trkpt><trkpt lat="45.56143370138937" lon="9.33257410571219"><ele>154.4</ele><time>2026-04-18T07:36:15.001Z</time></trkpt><trkpt lat="45.561353391781466" lon="9.332536155161641"><ele>154.0</ele><time>2026-04-18T07:36:16.001Z</time></trkpt><trkpt lat="45.561256004555844" lon="9.332497890077123"><ele>153.25</ele><time>2026-04-18T07:36:17.001Z</time></trkpt><trkpt lat="45.56112395115052" lon="9.332461321406342"><ele>152.5</ele><time>2026-04-18T07:36:18.001Z</time></trkpt><trkpt lat="45.56098961879578" lon="9.332459424267403"><ele>151.75</ele><time>2026-04-18T07:36:19.001Z</time></trkpt><trkpt lat="45.56084946231486" lon="9.332432928992615"><ele>151.0</ele><time>2026-04-18T07:36:20.001Z</time></trkpt><trkpt lat="45.56070320956601" lon="9.332405960853446"><ele>151.0</ele><time>2026-04-18T07:36:21.001Z</time></trkpt><trkpt lat="45.56056212559854" lon="9.332382124347445"><ele>151.0</ele><time>2026-04-18T07:36:22.001Z</time></trkpt><trkpt lat="45.56042247634132" lon="9.33235188606722"><ele>151.0</ele><time>2026-04-18T07:36:23.001Z</time></trkpt><trkpt lat="45.56028338474485" lon="9.33231632147916"><ele>151.0</ele><time>2026-04-18T07:36:24.001Z</time></trkpt><trkpt lat="45.5601352825341" lon="9.33229514622924"><ele>150.66666666666669</ele><time>2026-04-18T07:36:25.001Z</time></trkpt><trkpt lat="45.55999267648063" lon="9.33221517216775"><ele>150.33333333333334</ele><time>2026-04-18T07:36:26.001Z</time></trkpt><trkpt lat="45.559845697077336" lon="9.332151452341252"><ele>150.0</ele><time>2026-04-18T07:36:27.001Z</time></trkpt><trkpt lat="45.559692010789675" lon="9.332075415479773"><ele>149.66666666666666</ele><time>2026-04-18T07:36:28.001Z</time></trkpt><trkpt lat="45.559530432186854" lon="9.331988221706915"><ele>149.33333333333331</ele><time>2026-04-18T07:36:29.001Z</time></trkpt><trkpt lat="45.559366949051665" lon="9.331899281238883"><ele>149.0</ele><time>2026-04-18T07:36:30.001Z</time></trkpt><trkpt lat="45.559199290671124" lon="9.331806082666494"><ele>149.0</ele><time>2026-04-18T07:36:31.001Z</time></trkpt><trkpt lat="45.559030702565266" lon="9.331714341992209"><ele>149.0</ele><time>2026-04-18T07:36:32.002Z</time></trkpt><trkpt lat="45.55886024481133" lon="9.33161880479084"><ele>149.0</ele><time>2026-04-18T07:36:33.002Z</time></trkpt><trkpt lat="45.55869024686848" lon="9.331523165103501"><ele>149.66666666666666</ele><time>2026-04-18T07:36:34.002Z</time></trkpt><trkpt lat="45.558523911103094" lon="9.331432820099883"><ele>150.33333333333334</ele><time>2026-04-18T07:36:35.002Z</time></trkpt><trkpt lat="45.55835954489938" lon="9.331333184976103"><ele>151.0</ele><time>2026-04-18T07:36:36.002Z</time></trkpt><trkpt lat="45.558191288797666" lon="9.331233277669309"><ele>151.33333333333334</ele><time>2026-04-18T07:36:37.002Z</time></trkpt><trkpt lat="45.558023164729924" lon="9.33113498564097"><ele>151.66666666666666</ele><time>2026-04-18T07:36:38.002Z</time></trkpt><trkpt lat="45.55785180891344" lon="9.331034934745407"><ele>152.0</ele><time>2026-04-18T07:36:39.002Z</time></trkpt><trkpt lat="45.557678939420484" lon="9.330934165903214"><ele>152.0</ele><time>2026-04-18T07:36:39.999Z</time></trkpt><trkpt lat="45.55750465306696" lon="9.330832391682156"><ele>152.0</ele><time>2026-04-18T07:36:40.999Z</time></trkpt><trkpt lat="45.5573255052714" lon="9.330726613073848"><ele>152.0</ele><time>2026-04-18T07:36:41.999Z</time></trkpt><trkpt lat="45.55714754939231" lon="9.33062093997117"><ele>151.33333333333331</ele><time>2026-04-18T07:36:42.999Z</time></trkpt><trkpt lat="45.55696804609129" lon="9.330513082750084"><ele>150.66666666666666</ele><time>2026-04-18T07:36:43.999Z</time></trkpt><trkpt lat="45.556787313676885" lon="9.330405263563227"><ele>150.0</ele><time>2026-04-18T07:36:44.999Z</time></trkpt><trkpt lat="45.556605125901854" lon="9.3302976929062"><ele>150.0</ele><time>2026-04-18T07:36:45.999Z</time></trkpt><trkpt lat="45.55642157047345" lon="9.330189449938924"><ele>150.0</ele><time>2026-04-18T07:36:46.999Z</time></trkpt><trkpt lat="45.55623749583421" lon="9.330081648043018"><ele>150.0</ele><time>2026-04-18T07:36:47.999Z</time></trkpt><trkpt lat="45.55605273694686" lon="9.329973695500847"><ele>149.0</ele><time>2026-04-18T07:36:48.999Z</time></trkpt><trkpt lat="45.555867903379294" lon="9.329864863378823"><ele>148.0</ele><time>2026-04-18T07:36:49.999Z</time></trkpt><trkpt lat="45.55568212487158" lon="9.329757222036617"><ele>147.0</ele><time>2026-04-18T07:36:51Z</time></trkpt><trkpt lat="45.55549605262239" lon="9.329648555495629"><ele>147.66666666666666</ele><time>2026-04-18T07:36:52Z</time></trkpt><trkpt lat="45.55530917368942" lon="9.329536993624316"><ele>148.33333333333331</ele><time>2026-04-18T07:36:53Z</time></trkpt><trkpt lat="45.555120160364346" lon="9.329421414702654"><ele>149.0</ele><time>2026-04-18T07:36:54Z</time></trkpt><trkpt lat="45.554926279549534" lon="9.329301045878044"><ele>149.0</ele><time>2026-04-18T07:36:55Z</time></trkpt><trkpt lat="45.55472449702568" lon="9.32917710977199"><ele>149.0</ele><time>2026-04-18T07:36:56Z</time></trkpt><trkpt lat="45.55451828822304" lon="9.329056406884414"><ele>149.0</ele><time>2026-04-18T07:36:57Z</time></trkpt><trkpt lat="45.55430728104463" lon="9.328932021231678"><ele>146.5</ele><time>2026-04-18T07:36:58Z</time></trkpt><trkpt lat="45.55409839882338" lon="9.328816414971799"><ele>144.0</ele><time>2026-04-18T07:36:59Z</time></trkpt><trkpt lat="45.55388784500198" lon="9.328698219680902"><ele>143.5</ele><time>2026-04-18T07:37:00Z</time></trkpt><trkpt lat="45.553676668791425" lon="9.32857488012203"><ele>143.0</ele><time>2026-04-18T07:37:01Z</time></trkpt><trkpt lat="45.553463000671655" lon="9.32844752201221"><ele>143.0</ele><time>2026-04-18T07:37:02Z</time></trkpt><trkpt lat="45.55324842281543" lon="9.328322445150889"><ele>143.0</ele><time>2026-04-18T07:37:03Z</time></trkpt><trkpt lat="45.5530342452076" lon="9.328197215758395"><ele>142.5</ele><time>2026-04-18T07:37:04Z</time></trkpt><trkpt lat="45.55281836687323" lon="9.328069812259892"><ele>142.0</ele><time>2026-04-18T07:37:05Z</time></trkpt><trkpt lat="45.55260381355411" lon="9.327945145223005"><ele>142.0</ele><time>2026-04-18T07:37:06Z</time></trkpt><trkpt lat="45.55238833239878" lon="9.327818025930696"><ele>142.0</ele><time>2026-04-18T07:37:07Z</time></trkpt><trkpt lat="45.5521733182742" lon="9.327690520257194"><ele>143.0</ele><time>2026-04-18T07:37:08Z</time></trkpt><trkpt lat="45.55195778660594" lon="9.327564284407087"><ele>144.0</ele><time>2026-04-18T07:37:09Z</time></trkpt><trkpt lat="45.55174330755467" lon="9.327437993565306"><ele>144.0</ele><time>2026-04-18T07:37:10Z</time></trkpt><trkpt lat="45.551527527591205" lon="9.32731076400883"><ele>144.0</ele><time>2026-04-18T07:37:11Z</time></trkpt><trkpt lat="45.551311244088915" lon="9.327183317568366"><ele>143.0</ele><time>2026-04-18T07:37:12Z</time></trkpt><trkpt lat="45.5510951650473" lon="9.327058140577462"><ele>142.0</ele><time>2026-04-18T07:37:13Z</time></trkpt><trkpt lat="45.55087699717854" lon="9.326930989077653"><ele>142.0</ele><time>2026-04-18T07:37:14Z</time></trkpt><trkpt lat="45.55066253817511" lon="9.326806213088656"><ele>142.0</ele><time>2026-04-18T07:37:15Z</time></trkpt><trkpt lat="45.5504476337614" lon="9.326679179050451"><ele>143.0</ele><time>2026-04-18T07:37:16Z</time></trkpt><trkpt lat="45.550233659544226" lon="9.326549650111144"><ele>144.0</ele><time>2026-04-18T07:37:17Z</time></trkpt><trkpt lat="45.55001662621548" lon="9.32641705092858"><ele>144.0</ele><time>2026-04-18T07:37:18Z</time></trkpt><trkpt lat="45.54979644809357" lon="9.32628539123421"><ele>144.0</ele><time>2026-04-18T07:37:19Z</time></trkpt><trkpt lat="45.54957487072707" lon="9.326149955043887"><ele>142.5</ele><time>2026-04-18T07:37:20Z</time></trkpt><trkpt lat="45.54935278443154" lon="9.326009966638342"><ele>141.0</ele><time>2026-04-18T07:37:21Z</time></trkpt><trkpt lat="45.54913297189717" lon="9.32586211732993"><ele>141.0</ele><time>2026-04-18T07:37:22Z</time></trkpt><trkpt lat="45.54891499959459" lon="9.325705342670517"><ele>141.0</ele><time>2026-04-18T07:37:23Z</time></trkpt><trkpt lat="45.54870640512755" lon="9.325540347979725"><ele>143.0</ele><time>2026-04-18T07:37:24Z</time></trkpt><trkpt lat="45.54850842197857" lon="9.325371280033348"><ele>145.0</ele><time>2026-04-18T07:37:25Z</time></trkpt><trkpt lat="45.54831531506341" lon="9.32519345769765"><ele>145.0</ele><time>2026-04-18T07:37:26Z</time></trkpt><trkpt lat="45.548128262836585" lon="9.325013879130962"><ele>145.0</ele><time>2026-04-18T07:37:27Z</time></trkpt><trkpt lat="45.54794522575258" lon="9.324835529834873"><ele>145.0</ele><time>2026-04-18T07:37:28Z</time></trkpt><trkpt lat="45.547775642720254" lon="9.324645694298384"><ele>144.33333333333334</ele><time>2026-04-18T07:37:29Z</time></trkpt><trkpt lat="45.54761186758272" lon="9.324458937062277"><ele>143.66666666666666</ele><time>2026-04-18T07:37:30Z</time></trkpt><trkpt lat="45.547452228883735" lon="9.324265750936206"><ele>143.0</ele><time>2026-04-18T07:37:31.001Z</time></trkpt><trkpt lat="45.547296611636376" lon="9.324070089673015"><ele>142.66666666666666</ele><time>2026-04-18T07:37:32.001Z</time></trkpt><trkpt lat="45.547150528167336" lon="9.323867370617684"><ele>142.33333333333334</ele><time>2026-04-18T07:37:33.001Z</time></trkpt><trkpt lat="45.54701334834124" lon="9.323660838021524"><ele>142.0</ele><time>2026-04-18T07:37:34.001Z</time></trkpt><trkpt lat="45.54688278412876" lon="9.323455676812777"><ele>142.0</ele><time>2026-04-18T07:37:35.001Z</time></trkpt><trkpt lat="45.54674929668778" lon="9.323243754693992"><ele>142.0</ele><time>2026-04-18T07:37:36.001Z</time></trkpt><trkpt lat="45.54661248910219" lon="9.323027066467423"><ele>142.0</ele><time>2026-04-18T07:37:37.001Z</time></trkpt><trkpt lat="45.546474870725206" lon="9.322804505784633"><ele>142.33333333333334</ele><time>2026-04-18T07:37:38.001Z</time></trkpt><trkpt lat="45.5463433598155" lon="9.322573259974051"><ele>142.66666666666666</ele><time>2026-04-18T07:37:39.001Z</time></trkpt><trkpt lat="45.5462192359843" lon="9.322327908774536"><ele>143.0</ele><time>2026-04-18T07:37:40.001Z</time></trkpt><trkpt lat="45.54609769781421" lon="9.322074293091946"><ele>142.33333333333331</ele><time>2026-04-18T07:37:41.001Z</time></trkpt><trkpt lat="45.54598139928383" lon="9.321813210899931"><ele>141.66666666666666</ele><time>2026-04-18T07:37:42.001Z</time></trkpt><trkpt lat="45.545869360721504" lon="9.321551132268127"><ele>141.0</ele><time>2026-04-18T07:37:43.001Z</time></trkpt><trkpt lat="45.54576185925719" lon="9.32128728362665"><ele>141.0</ele><time>2026-04-18T07:37:44.001Z</time></trkpt><trkpt lat="45.54566043130958" lon="9.321019583333731"><ele>141.0</ele><time>2026-04-18T07:37:45.001Z</time></trkpt><trkpt lat="45.54555812832331" lon="9.320753222226312"><ele>141.0</ele><time>2026-04-18T07:37:46.001Z</time></trkpt><trkpt lat="45.54545760476453" lon="9.320486829057387"><ele>141.0</ele><time>2026-04-18T07:37:47.001Z</time></trkpt><trkpt lat="45.54535726164486" lon="9.320225026106437"><ele>141.0</ele><time>2026-04-18T07:37:48.001Z</time></trkpt><trkpt lat="45.545254920097406" lon="9.319968475748343"><ele>141.0</ele><time>2026-04-18T07:37:49.001Z</time></trkpt><trkpt lat="45.54514746113473" lon="9.319715919045358"><ele>141.0</ele><time>2026-04-18T07:37:50.001Z</time></trkpt><trkpt lat="45.54503423065861" lon="9.319468590407766"><ele>141.0</ele><time>2026-04-18T07:37:51.001Z</time></trkpt><trkpt lat="45.54491424419387" lon="9.31923010426141"><ele>141.0</ele><time>2026-04-18T07:37:52.001Z</time></trkpt><trkpt lat="45.54479045234262" lon="9.318995763128985"><ele>140.66666666666666</ele><time>2026-04-18T07:37:53.001Z</time></trkpt><trkpt lat="45.54466296115726" lon="9.318765614158535"><ele>140.33333333333331</ele><time>2026-04-18T07:37:54.001Z</time></trkpt><trkpt lat="45.54452896089106" lon="9.31853817840037"><ele>140.0</ele><time>2026-04-18T07:37:55.001Z</time></trkpt><trkpt lat="45.54438465646494" lon="9.318325387229972"><ele>140.0</ele><time>2026-04-18T07:37:56.001Z</time></trkpt><trkpt lat="45.5442335618699" lon="9.318119881056521"><ele>140.0</ele><time>2026-04-18T07:37:57.001Z</time></trkpt><trkpt lat="45.54407322110209" lon="9.317924597345531"><ele>140.0</ele><time>2026-04-18T07:37:58.001Z</time></trkpt><trkpt lat="45.54390718330971" lon="9.317738284331424"><ele>140.0</ele><time>2026-04-18T07:37:59.001Z</time></trkpt><trkpt lat="45.54373367705499" lon="9.317561796315271"><ele>140.0</ele><time>2026-04-18T07:38:00.001Z</time></trkpt><trkpt lat="45.54354912988768" lon="9.317392886148218"><ele>140.0</ele><time>2026-04-18T07:38:01.001Z</time></trkpt><trkpt lat="45.543359827449045" lon="9.317239985801157"><ele>140.0</ele><time>2026-04-18T07:38:02.001Z</time></trkpt><trkpt lat="45.54316623648559" lon="9.317091253239164"><ele>140.0</ele><time>2026-04-18T07:38:03.001Z</time></trkpt><trkpt lat="45.54296902639704" lon="9.316948409792682"><ele>140.0</ele><time>2026-04-18T07:38:04.001Z</time></trkpt><trkpt lat="45.54276877078197" lon="9.316810626813865"><ele>140.0</ele><time>2026-04-18T07:38:05.001Z</time></trkpt><trkpt lat="45.5425622695012" lon="9.316673198603553"><ele>140.0</ele><time>2026-04-18T07:38:06.001Z</time></trkpt><trkpt lat="45.54235513142851" lon="9.316536763773163"><ele>139.0</ele><time>2026-04-18T07:38:07.001Z</time></trkpt><trkpt lat="45.542146175079644" lon="9.316400940108094"><ele>138.0</ele><time>2026-04-18T07:38:08.001Z</time></trkpt><trkpt lat="45.541938711580904" lon="9.31626533196146"><ele>137.5</ele><time>2026-04-18T07:38:09.001Z</time></trkpt><trkpt lat="45.54173076884658" lon="9.316125820091036"><ele>137.0</ele><time>2026-04-18T07:38:10.001Z</time></trkpt><trkpt lat="45.54152368825811" lon="9.315983477406757"><ele>137.0</ele><time>2026-04-18T07:38:11.001Z</time></trkpt><trkpt lat="45.541319230304936" lon="9.315830563620777"><ele>137.0</ele><time>2026-04-18T07:38:12.001Z</time></trkpt><trkpt lat="45.54112081603181" lon="9.315661433260674"><ele>137.5</ele><time>2026-04-18T07:38:13.001Z</time></trkpt><trkpt lat="45.540923997069676" lon="9.315480546417668"><ele>138.0</ele><time>2026-04-18T07:38:14.001Z</time></trkpt><trkpt lat="45.54073647593052" lon="9.315283717730903"><ele>138.0</ele><time>2026-04-18T07:38:15.001Z</time></trkpt><trkpt lat="45.54055670480791" lon="9.315071800096797"><ele>138.0</ele><time>2026-04-18T07:38:16.001Z</time></trkpt><trkpt lat="45.54038418319523" lon="9.314847740813727"><ele>136.5</ele><time>2026-04-18T07:38:17.001Z</time></trkpt><trkpt lat="45.54021753178827" lon="9.314606755120778"><ele>135.0</ele><time>2026-04-18T07:38:18.001Z</time></trkpt><trkpt lat="45.54006056878713" lon="9.314353320052641"><ele>135.0</ele><time>2026-04-18T07:38:19.001Z</time></trkpt><trkpt lat="45.539910597513355" lon="9.314084933816673"><ele>135.0</ele><time>2026-04-18T07:38:20.001Z</time></trkpt><trkpt lat="45.5397709128743" lon="9.313805599178963"><ele>135.5</ele><time>2026-04-18T07:38:21.002Z</time></trkpt><trkpt lat="45.53963946551774" lon="9.313513572054424"><ele>136.0</ele><time>2026-04-18T07:38:22.002Z</time></trkpt><trkpt lat="45.539523261717754" lon="9.31321210576285"><ele>135.5</ele><time>2026-04-18T07:38:23.002Z</time></trkpt><trkpt lat="45.53941851297733" lon="9.312902620236104"><ele>135.0</ele><time>2026-04-18T07:38:24.002Z</time></trkpt><trkpt lat="45.53931994528533" lon="9.312575627484405"><ele>135.0</ele><time>2026-04-18T07:38:25.002Z</time></trkpt><trkpt lat="45.539235141830666" lon="9.312246893297639"><ele>135.0</ele><time>2026-04-18T07:38:26.002Z</time></trkpt><trkpt lat="45.53916611204432" lon="9.31191380578636"><ele>135.0</ele><time>2026-04-18T07:38:27.002Z</time></trkpt><trkpt lat="45.53910972217319" lon="9.311572083709118"><ele>135.0</ele><time>2026-04-18T07:38:28.002Z</time></trkpt><trkpt lat="45.539065253529564" lon="9.311225829449805"><ele>135.0</ele><time>2026-04-18T07:38:29.002Z</time></trkpt><trkpt lat="45.539027694329775" lon="9.310874444436106"><ele>135.0</ele><time>2026-04-18T07:38:30.002Z</time></trkpt><trkpt lat="45.53899204626998" lon="9.310524559711359"><ele>136.0</ele><time>2026-04-18T07:38:31.002Z</time></trkpt><trkpt lat="45.538955428042854" lon="9.31017342544199"><ele>137.0</ele><time>2026-04-18T07:38:32.002Z</time></trkpt><trkpt lat="45.53891751737709" lon="9.30982214013842"><ele>137.0</ele><time>2026-04-18T07:38:33.002Z</time></trkpt><trkpt lat="45.5388773689398" lon="9.309471255353747"><ele>137.0</ele><time>2026-04-18T07:38:34.002Z</time></trkpt><trkpt lat="45.53883804067764" lon="9.30911962834597"><ele>137.5</ele><time>2026-04-18T07:38:35.002Z</time></trkpt><trkpt lat="45.53879791432648" lon="9.308759621938863"><ele>138.0</ele><time>2026-04-18T07:38:36.002Z</time></trkpt><trkpt lat="45.53875867589224" lon="9.3083941093841"><ele>137.5</ele><time>2026-04-18T07:38:37.002Z</time></trkpt><trkpt lat="45.53872044857246" lon="9.30802526960138"><ele>137.0</ele><time>2026-04-18T07:38:38.002Z</time></trkpt><trkpt lat="45.53868214013883" lon="9.307655367019319"><ele>137.0</ele><time>2026-04-18T07:38:39.002Z</time></trkpt><trkpt lat="45.53864330869609" lon="9.307287866865183"><ele>137.0</ele><time>2026-04-18T07:38:40.002Z</time></trkpt><trkpt lat="45.538606135197725" lon="9.306923047345045"><ele>135.0</ele><time>2026-04-18T07:38:41.002Z</time></trkpt><trkpt lat="45.53856884432695" lon="9.306571737669797"><ele>133.0</ele><time>2026-04-18T07:38:42.002Z</time></trkpt><trkpt lat="45.53853059091399" lon="9.306223093132903"><ele>133.0</ele><time>2026-04-18T07:38:43.002Z</time></trkpt><trkpt lat="45.53849213611674" lon="9.305873609983978"><ele>133.0</ele><time>2026-04-18T07:38:44.002Z</time></trkpt><trkpt lat="45.53845350545875" lon="9.305526013898145"><ele>134.0</ele><time>2026-04-18T07:38:45.002Z</time></trkpt><trkpt lat="45.53841282569035" lon="9.305181703307266"><ele>135.0</ele><time>2026-04-18T07:38:46Z</time></trkpt><trkpt lat="45.53837360062732" lon="9.304840479677907"><ele>134.5</ele><time>2026-04-18T07:38:47Z</time></trkpt><trkpt lat="45.53833268200752" lon="9.304502994433625"><ele>134.0</ele><time>2026-04-18T07:38:48Z</time></trkpt><trkpt lat="45.53829424618468" lon="9.304167872626875"><ele>133.5</ele><time>2026-04-18T07:38:49Z</time></trkpt><trkpt lat="45.538256356811054" lon="9.303826046822538"><ele>133.0</ele><time>2026-04-18T07:38:50Z</time></trkpt><trkpt lat="45.538217958271716" lon="9.303485719704582"><ele>133.0</ele><time>2026-04-18T07:38:51Z</time></trkpt><trkpt lat="45.53817907684544" lon="9.303148068822146"><ele>133.0</ele><time>2026-04-18T07:38:52Z</time></trkpt><trkpt lat="45.53814004911535" lon="9.302815094023392"><ele>134.5</ele><time>2026-04-18T07:38:52.999Z</time></trkpt><trkpt lat="45.53809975510985" lon="9.302478955586507"><ele>136.0</ele><time>2026-04-18T07:38:54Z</time></trkpt><trkpt lat="45.538061328599376" lon="9.302143871567905"><ele>136.5</ele><time>2026-04-18T07:38:54.999Z</time></trkpt><trkpt lat="45.53802279329084" lon="9.30180865546342"><ele>137.0</ele><time>2026-04-18T07:38:55.999Z</time></trkpt><trkpt lat="45.53798411087216" lon="9.301470529536365"><ele>137.5</ele><time>2026-04-18T07:38:56.999Z</time></trkpt><trkpt lat="45.537944265768445" lon="9.3011283652261"><ele>138.0</ele><time>2026-04-18T07:38:57.999Z</time></trkpt><trkpt lat="45.537904144667586" lon="9.30078349403499"><ele>135.0</ele><time>2026-04-18T07:38:58.999Z</time></trkpt><trkpt lat="45.537863722456514" lon="9.300433868377223"><ele>132.0</ele><time>2026-04-18T07:38:59.999Z</time></trkpt><trkpt lat="45.53782380064412" lon="9.300081333199358"><ele>132.0</ele><time>2026-04-18T07:39:00.999Z</time></trkpt><trkpt lat="45.537784800297004" lon="9.29972575825445"><ele>132.0</ele><time>2026-04-18T07:39:02Z</time></trkpt><trkpt lat="45.537747055481994" lon="9.299370787664845"><ele>132.0</ele><time>2026-04-18T07:39:03Z</time></trkpt><trkpt lat="45.53771131627355" lon="9.29901006880801"><ele>132.0</ele><time>2026-04-18T07:39:04Z</time></trkpt><trkpt lat="45.53767928271016" lon="9.298651081442431"><ele>131.5</ele><time>2026-04-18T07:39:05Z</time></trkpt><trkpt lat="45.53765027541489" lon="9.29828998702189"><ele>131.0</ele><time>2026-04-18T07:39:06Z</time></trkpt><trkpt lat="45.53761939149887" lon="9.297925546116945"><ele>131.0</ele><time>2026-04-18T07:39:07Z</time></trkpt><trkpt lat="45.5375845647361" lon="9.297561486738312"><ele>131.0</ele><time>2026-04-18T07:39:08Z</time></trkpt><trkpt lat="45.53754848719007" lon="9.297201328273909"><ele>132.0</ele><time>2026-04-18T07:39:09Z</time></trkpt><trkpt lat="45.53750948101017" lon="9.296835279856364"><ele>133.0</ele><time>2026-04-18T07:39:10Z</time></trkpt><trkpt lat="45.53746833864411" lon="9.296470045361113"><ele>133.5</ele><time>2026-04-18T07:39:11Z</time></trkpt><trkpt lat="45.537427373036614" lon="9.296114775076335"><ele>134.0</ele><time>2026-04-18T07:39:12Z</time></trkpt><trkpt lat="45.53738881513287" lon="9.29575814309899"><ele>137.0</ele><time>2026-04-18T07:39:13Z</time></trkpt><trkpt lat="45.5373461518638" lon="9.295402348676765"><ele>140.0</ele><time>2026-04-18T07:39:14Z</time></trkpt><trkpt lat="45.53730706165157" lon="9.295045142414809"><ele>141.0</ele><time>2026-04-18T07:39:15Z</time></trkpt><trkpt lat="45.53727205038126" lon="9.2946915957998"><ele>142.0</ele><time>2026-04-18T07:39:16Z</time></trkpt><trkpt lat="45.53723573562661" lon="9.294339721689607"><ele>142.0</ele><time>2026-04-18T07:39:17Z</time></trkpt><trkpt lat="45.537196497234696" lon="9.293990285775504"><ele>142.0</ele><time>2026-04-18T07:39:18Z</time></trkpt><trkpt lat="45.537156550702264" lon="9.293639186731642"><ele>140.5</ele><time>2026-04-18T07:39:19Z</time></trkpt><trkpt lat="45.537116741531264" lon="9.293289302390138"><ele>139.0</ele><time>2026-04-18T07:39:20Z</time></trkpt><trkpt lat="45.53707959293588" lon="9.292935987841018"><ele>137.0</ele><time>2026-04-18T07:39:21Z</time></trkpt><trkpt lat="45.537040680236" lon="9.292585486538234"><ele>135.0</ele><time>2026-04-18T07:39:22Z</time></trkpt><trkpt lat="45.53700268605727" lon="9.29224037944424"><ele>133.5</ele><time>2026-04-18T07:39:23Z</time></trkpt><trkpt lat="45.536964772761124" lon="9.291910097958658"><ele>132.0</ele><time>2026-04-18T07:39:24Z</time></trkpt><trkpt lat="45.5369293647502" lon="9.291586100546002"><ele>133.5</ele><time>2026-04-18T07:39:25Z</time></trkpt><trkpt lat="45.53690041742163" lon="9.291265063272059"><ele>135.0</ele><time>2026-04-18T07:39:26Z</time></trkpt><trkpt lat="45.53688399964347" lon="9.290942675366272"><ele>135.0</ele><time>2026-04-18T07:39:27Z</time></trkpt><trkpt lat="45.53688924875142" lon="9.290623823349682"><ele>135.0</ele><time>2026-04-18T07:39:28Z</time></trkpt><trkpt lat="45.536909146449126" lon="9.290317818009722"><ele>135.0</ele><time>2026-04-18T07:39:29Z</time></trkpt><trkpt lat="45.536943036260645" lon="9.290014630636092"><ele>135.33333333333334</ele><time>2026-04-18T07:39:30Z</time></trkpt><trkpt lat="45.53698656212207" lon="9.289714685576433"><ele>135.66666666666669</ele><time>2026-04-18T07:39:31Z</time></trkpt><trkpt lat="45.537043186879394" lon="9.289409123448497"><ele>136.0</ele><time>2026-04-18T07:39:32Z</time></trkpt><trkpt lat="45.5371151789363" lon="9.289097995849025"><ele>135.5</ele><time>2026-04-18T07:39:33Z</time></trkpt><trkpt lat="45.537203067975646" lon="9.28879138371247"><ele>135.0</ele><time>2026-04-18T07:39:34Z</time></trkpt><trkpt lat="45.537309137765035" lon="9.288489268262358"><ele>135.0</ele><time>2026-04-18T07:39:35Z</time></trkpt><trkpt lat="45.53742875438273" lon="9.28819323468868"><ele>135.0</ele><time>2026-04-18T07:39:36Z</time></trkpt><trkpt lat="45.53755682113886" lon="9.287893581916828"><ele>135.5</ele><time>2026-04-18T07:39:37Z</time></trkpt><trkpt lat="45.53767542430271" lon="9.28758886391545"><ele>136.0</ele><time>2026-04-18T07:39:38Z</time></trkpt><trkpt lat="45.53779022500579" lon="9.287281961335731"><ele>137.5</ele><time>2026-04-18T07:39:39Z</time></trkpt><trkpt lat="45.53788700024843" lon="9.286964412102824"><ele>139.0</ele><time>2026-04-18T07:39:40Z</time></trkpt><trkpt lat="45.53796271712113" lon="9.28664014957906"><ele>138.0</ele><time>2026-04-18T07:39:41.001Z</time></trkpt><trkpt lat="45.538011386147055" lon="9.28631530024287"><ele>137.0</ele><time>2026-04-18T07:39:42.001Z</time></trkpt><trkpt lat="45.53804304813918" lon="9.285979881411453"><ele>137.0</ele><time>2026-04-18T07:39:43.001Z</time></trkpt><trkpt lat="45.53805432746333" lon="9.28564334501979"><ele>137.0</ele><time>2026-04-18T07:39:44.001Z</time></trkpt><trkpt lat="45.53804856981679" lon="9.285313664580782"><ele>137.0</ele><time>2026-04-18T07:39:45.001Z</time></trkpt><trkpt lat="45.53801973178293" lon="9.28499035827324"><ele>137.0</ele><time>2026-04-18T07:39:46.001Z</time></trkpt><trkpt lat="45.53797304965632" lon="9.284679185673413"><ele>137.0</ele><time>2026-04-18T07:39:47.001Z</time></trkpt><trkpt lat="45.53790836989645" lon="9.284371453051495"><ele>137.0</ele><time>2026-04-18T07:39:48.001Z</time></trkpt><trkpt lat="45.53782650687411" lon="9.284074198933727"><ele>137.0</ele><time>2026-04-18T07:39:49.001Z</time></trkpt><trkpt lat="45.5377332201225" lon="9.283801365811424"><ele>137.66666666666666</ele><time>2026-04-18T07:39:50.001Z</time></trkpt><trkpt lat="45.53763327992634" lon="9.283555481938043"><ele>138.33333333333334</ele><time>2026-04-18T07:39:51.001Z</time></trkpt><trkpt lat="45.53752385474522" lon="9.283321431402841"><ele>139.0</ele><time>2026-04-18T07:39:52.001Z</time></trkpt><trkpt lat="45.53740452235134" lon="9.28309251584028"><ele>139.0</ele><time>2026-04-18T07:39:53.001Z</time></trkpt><trkpt lat="45.53727887458938" lon="9.28286087737607"><ele>139.0</ele><time>2026-04-18T07:39:54.001Z</time></trkpt><trkpt lat="45.53715064587088" lon="9.282613720672488"><ele>139.0</ele><time>2026-04-18T07:39:55.001Z</time></trkpt><trkpt lat="45.537020319796596" lon="9.282360188790106"><ele>138.5</ele><time>2026-04-18T07:39:56.001Z</time></trkpt><trkpt lat="45.536886835471435" lon="9.282098722413172"><ele>138.0</ele><time>2026-04-18T07:39:57.001Z</time></trkpt><trkpt lat="45.53674957763752" lon="9.281834192508105"><ele>138.0</ele><time>2026-04-18T07:39:58.001Z</time></trkpt><trkpt lat="45.53661091819467" lon="9.28156061665936"><ele>138.0</ele><time>2026-04-18T07:39:59.001Z</time></trkpt><trkpt lat="45.53646890491971" lon="9.281276371715993"><ele>138.0</ele><time>2026-04-18T07:40:00.001Z</time></trkpt><trkpt lat="45.53632742335988" lon="9.280990828389195"><ele>138.0</ele><time>2026-04-18T07:40:01.001Z</time></trkpt><trkpt lat="45.5361836766284" lon="9.280697488856754"><ele>137.5</ele><time>2026-04-18T07:40:02.001Z</time></trkpt><trkpt lat="45.53603843426177" lon="9.280401755308446"><ele>137.0</ele><time>2026-04-18T07:40:03.001Z</time></trkpt><trkpt lat="45.5358916098943" lon="9.280101725448352"><ele>137.0</ele><time>2026-04-18T07:40:04.001Z</time></trkpt><trkpt lat="45.53574330476055" lon="9.279800515683768"><ele>137.0</ele><time>2026-04-18T07:40:05.001Z</time></trkpt><trkpt lat="45.53559510968999" lon="9.279501668824558"><ele>137.0</ele><time>2026-04-18T07:40:06.001Z</time></trkpt><trkpt lat="45.535447580957644" lon="9.279201866932672"><ele>137.0</ele><time>2026-04-18T07:40:07.001Z</time></trkpt><trkpt lat="45.535294707952694" lon="9.278886830540923"><ele>137.0</ele><time>2026-04-18T07:40:08.001Z</time></trkpt><trkpt lat="45.53515019107776" lon="9.278575192139654"><ele>137.0</ele><time>2026-04-18T07:40:09.001Z</time></trkpt><trkpt lat="45.53499641304015" lon="9.278255854910743"><ele>138.0</ele><time>2026-04-18T07:40:10.001Z</time></trkpt><trkpt lat="45.5348468061463" lon="9.27793863671414"><ele>139.0</ele><time>2026-04-18T07:40:11.001Z</time></trkpt><trkpt lat="45.53469482658747" lon="9.277616983380115"><ele>138.0</ele><time>2026-04-18T07:40:12.001Z</time></trkpt><trkpt lat="45.53454406503253" lon="9.277299477671427"><ele>137.0</ele><time>2026-04-18T07:40:13.001Z</time></trkpt><trkpt lat="45.53439477802314" lon="9.276987224731283"><ele>136.5</ele><time>2026-04-18T07:40:14.001Z</time></trkpt><trkpt lat="45.534246150587975" lon="9.276669876117262"><ele>136.0</ele><time>2026-04-18T07:40:15.001Z</time></trkpt><trkpt lat="45.53409646249624" lon="9.276352320845083"><ele>136.0</ele><time>2026-04-18T07:40:16.001Z</time></trkpt><trkpt lat="45.53394883483178" lon="9.276033408055413"><ele>136.0</ele><time>2026-04-18T07:40:17.001Z</time></trkpt><trkpt lat="45.53380068960748" lon="9.275718038401388"><ele>136.0</ele><time>2026-04-18T07:40:18.001Z</time></trkpt><trkpt lat="45.53365362018906" lon="9.27540281228694"><ele>136.0</ele><time>2026-04-18T07:40:19.001Z</time></trkpt><trkpt lat="45.53350952128234" lon="9.275095614208231"><ele>136.0</ele><time>2026-04-18T07:40:20.001Z</time></trkpt><trkpt lat="45.5333610310981" lon="9.274786207189651"><ele>136.0</ele><time>2026-04-18T07:40:21.001Z</time></trkpt><trkpt lat="45.53321163172094" lon="9.274478182893121"><ele>136.5</ele><time>2026-04-18T07:40:22.001Z</time></trkpt><trkpt lat="45.53306466984641" lon="9.274172404464041"><ele>137.0</ele><time>2026-04-18T07:40:23.001Z</time></trkpt><trkpt lat="45.53291900022849" lon="9.273866687249374"><ele>136.5</ele><time>2026-04-18T07:40:24.001Z</time></trkpt><trkpt lat="45.532776198938556" lon="9.273567282242887"><ele>136.0</ele><time>2026-04-18T07:40:25.001Z</time></trkpt><trkpt lat="45.532634667229445" lon="9.273271741032167"><ele>135.5</ele><time>2026-04-18T07:40:26.001Z</time></trkpt><trkpt lat="45.53249513709084" lon="9.272974482120595"><ele>135.0</ele><time>2026-04-18T07:40:27.001Z</time></trkpt><trkpt lat="45.532353723974175" lon="9.272668407923492"><ele>135.0</ele><time>2026-04-18T07:40:28.001Z</time></trkpt><trkpt lat="45.53221683866859" lon="9.272371062729414"><ele>135.0</ele><time>2026-04-18T07:40:29.002Z</time></trkpt><trkpt lat="45.53207470611276" lon="9.272073921166028"><ele>134.0</ele><time>2026-04-18T07:40:30.002Z</time></trkpt><trkpt lat="45.53193528654773" lon="9.271781479267153"><ele>133.0</ele><time>2026-04-18T07:40:31.002Z</time></trkpt><trkpt lat="45.53179408695938" lon="9.271487983721448"><ele>134.0</ele><time>2026-04-18T07:40:32.002Z</time></trkpt><trkpt lat="45.53165395858247" lon="9.271199393017582"><ele>135.0</ele><time>2026-04-18T07:40:33.002Z</time></trkpt><trkpt lat="45.531515882477386" lon="9.27091318907161"><ele>135.0</ele><time>2026-04-18T07:40:34.002Z</time></trkpt><trkpt lat="45.53137694836485" lon="9.270625891328995"><ele>135.0</ele><time>2026-04-18T07:40:35.002Z</time></trkpt><trkpt lat="45.53123830455295" lon="9.270338195292059"><ele>135.5</ele><time>2026-04-18T07:40:36.002Z</time></trkpt><trkpt lat="45.53110156261868" lon="9.270052239769157"><ele>136.0</ele><time>2026-04-18T07:40:37.002Z</time></trkpt><trkpt lat="45.530963768965904" lon="9.269765923771253"><ele>136.5</ele><time>2026-04-18T07:40:38.002Z</time></trkpt><trkpt lat="45.53082665218199" lon="9.269481246554015"><ele>137.0</ele><time>2026-04-18T07:40:39.002Z</time></trkpt><trkpt lat="45.53068984068868" lon="9.269193322751079"><ele>135.5</ele><time>2026-04-18T07:40:40.002Z</time></trkpt><trkpt lat="45.53055468066917" lon="9.26891247333027"><ele>134.0</ele><time>2026-04-18T07:40:41.002Z</time></trkpt><trkpt lat="45.53041694006105" lon="9.268637149528818"><ele>134.0</ele><time>2026-04-18T07:40:42.002Z</time></trkpt><trkpt lat="45.530273479615175" lon="9.268364385646649"><ele>134.0</ele><time>2026-04-18T07:40:43.002Z</time></trkpt><trkpt lat="45.53012400650231" lon="9.268106540546135"><ele>134.0</ele><time>2026-04-18T07:40:44.002Z</time></trkpt><trkpt lat="45.52996570950943" lon="9.267858618344953"><ele>134.0</ele><time>2026-04-18T07:40:45.002Z</time></trkpt><trkpt lat="45.529797614316635" lon="9.267626267975896"><ele>134.0</ele><time>2026-04-18T07:40:46.002Z</time></trkpt><trkpt lat="45.52962012651936" lon="9.267408167872535"><ele>134.0</ele><time>2026-04-18T07:40:47.002Z</time></trkpt><trkpt lat="45.52943535290661" lon="9.267206392339109"><ele>134.0</ele><time>2026-04-18T07:40:48.002Z</time></trkpt><trkpt lat="45.52924451932115" lon="9.267017495180232"><ele>134.0</ele><time>2026-04-18T07:40:49.002Z</time></trkpt><trkpt lat="45.52904846074121" lon="9.266837838053256"><ele>134.0</ele><time>2026-04-18T07:40:50.002Z</time></trkpt><trkpt lat="45.52884853461007" lon="9.266670896608296"><ele>134.0</ele><time>2026-04-18T07:40:51.002Z</time></trkpt><trkpt lat="45.528649028106095" lon="9.266512758671356"><ele>136.5</ele><time>2026-04-18T07:40:51.998Z</time></trkpt><trkpt lat="45.528446738406814" lon="9.266355980974074"><ele>139.0</ele><time>2026-04-18T07:40:52.998Z</time></trkpt><trkpt lat="45.528245873100616" lon="9.266199151715577"><ele>139.0</ele><time>2026-04-18T07:40:53.998Z</time></trkpt><trkpt lat="45.52804730832632" lon="9.266039819768478"><ele>139.0</ele><time>2026-04-18T07:40:54.998Z</time></trkpt><trkpt lat="45.52785343003002" lon="9.265883164646244"><ele>138.66666666666669</ele><time>2026-04-18T07:40:55.998Z</time></trkpt><trkpt lat="45.52766140102522" lon="9.265722451373925"><ele>138.33333333333334</ele><time>2026-04-18T07:40:56.999Z</time></trkpt><trkpt lat="45.52747915086876" lon="9.265551370653185"><ele>138.0</ele><time>2026-04-18T07:40:57.999Z</time></trkpt><trkpt lat="45.52730709185955" lon="9.265368451569845"><ele>137.66666666666666</ele><time>2026-04-18T07:40:58.999Z</time></trkpt><trkpt lat="45.527143048952524" lon="9.265170081042195"><ele>137.33333333333331</ele><time>2026-04-18T07:40:59.999Z</time></trkpt><trkpt lat="45.52698733483871" lon="9.264960910275713"><ele>137.0</ele><time>2026-04-18T07:41:00.999Z</time></trkpt><trkpt lat="45.52683936941008" lon="9.264737099360358"><ele>137.0</ele><time>2026-04-18T07:41:01.999Z</time></trkpt><trkpt lat="45.52670086366062" lon="9.264500903071932"><ele>137.0</ele><time>2026-04-18T07:41:02.999Z</time></trkpt><trkpt lat="45.52657475825158" lon="9.26425404524381"><ele>137.0</ele><time>2026-04-18T07:41:03.999Z</time></trkpt><trkpt lat="45.526460649256165" lon="9.263996180913587"><ele>136.66666666666666</ele><time>2026-04-18T07:41:04.999Z</time></trkpt><trkpt lat="45.52635588448463" lon="9.263727891358718"><ele>136.33333333333334</ele><time>2026-04-18T07:41:05.999Z</time></trkpt><trkpt lat="45.52626113261972" lon="9.263451096350124"><ele>136.0</ele><time>2026-04-18T07:41:06.999Z</time></trkpt><trkpt lat="45.52617234982715" lon="9.263174382767795"><ele>135.0</ele><time>2026-04-18T07:41:07.999Z</time></trkpt><trkpt lat="45.52607907302426" lon="9.262894558869412"><ele>134.0</ele><time>2026-04-18T07:41:08.999Z</time></trkpt><trkpt lat="45.525977635381096" lon="9.262624390023335"><ele>133.0</ele><time>2026-04-18T07:41:09.999Z</time></trkpt><trkpt lat="45.525865842621556" lon="9.262362280174171"><ele>133.0</ele><time>2026-04-18T07:41:10.999Z</time></trkpt><trkpt lat="45.525740165674726" lon="9.2621152026409"><ele>133.0</ele><time>2026-04-18T07:41:11.999Z</time></trkpt><trkpt lat="45.52559954733583" lon="9.261881331812278"><ele>133.0</ele><time>2026-04-18T07:41:12.999Z</time></trkpt><trkpt lat="45.52545041924994" lon="9.261655624717099"><ele>131.66666666666669</ele><time>2026-04-18T07:41:13.999Z</time></trkpt><trkpt lat="45.52529182768031" lon="9.261445845838226"><ele>130.33333333333334</ele><time>2026-04-18T07:41:14.999Z</time></trkpt><trkpt lat="45.52512484799032" lon="9.261253481731911"><ele>129.0</ele><time>2026-04-18T07:41:15.999Z</time></trkpt><trkpt lat="45.52495360196131" lon="9.261083557159116"><ele>129.0</ele><time>2026-04-18T07:41:16.999Z</time></trkpt><trkpt lat="45.52477985116666" lon="9.260936929916836"><ele>129.0</ele><time>2026-04-18T07:41:17.999Z</time></trkpt><trkpt lat="45.52458910388908" lon="9.260808895811214"><ele>129.0</ele><time>2026-04-18T07:41:19Z</time></trkpt><trkpt lat="45.52438692718108" lon="9.26069685394816"><ele>129.33333333333334</ele><time>2026-04-18T07:41:20Z</time></trkpt><trkpt lat="45.524181364540944" lon="9.26060273458585"><ele>129.66666666666669</ele><time>2026-04-18T07:41:21Z</time></trkpt><trkpt lat="45.523967142211816" lon="9.260515093163658"><ele>130.0</ele><time>2026-04-18T07:41:22Z</time></trkpt><trkpt lat="45.523746317246406" lon="9.260450902344235"><ele>130.0</ele><time>2026-04-18T07:41:23Z</time></trkpt><trkpt lat="45.523521256178114" lon="9.260408982117758"><ele>130.0</ele><time>2026-04-18T07:41:24Z</time></trkpt><trkpt lat="45.523293470336554" lon="9.260384523314524"><ele>130.0</ele><time>2026-04-18T07:41:25Z</time></trkpt><trkpt lat="45.52306369167144" lon="9.260380268974853"><ele>130.0</ele><time>2026-04-18T07:41:26Z</time></trkpt><trkpt lat="45.52283438024978" lon="9.260399609178155"><ele>129.0</ele><time>2026-04-18T07:41:27Z</time></trkpt><trkpt lat="45.522607495850515" lon="9.260441372764905"><ele>128.0</ele><time>2026-04-18T07:41:28Z</time></trkpt><trkpt lat="45.52238115347682" lon="9.260506454609873"><ele>128.0</ele><time>2026-04-18T07:41:29Z</time></trkpt><trkpt lat="45.52215467524084" lon="9.260572842385745"><ele>128.0</ele><time>2026-04-18T07:41:30Z</time></trkpt><trkpt lat="45.52192732698396" lon="9.260644052023965"><ele>129.5</ele><time>2026-04-18T07:41:31Z</time></trkpt><trkpt lat="45.52169797532467" lon="9.26071021878345"><ele>131.0</ele><time>2026-04-18T07:41:32Z</time></trkpt><trkpt lat="45.521473439317" lon="9.260777772643726"><ele>131.0</ele><time>2026-04-18T07:41:33Z</time></trkpt><trkpt lat="45.52124941014393" lon="9.26084397666387"><ele>131.0</ele><time>2026-04-18T07:41:34Z</time></trkpt><trkpt lat="45.521027004473396" lon="9.260909172072735"><ele>130.0</ele><time>2026-04-18T07:41:35Z</time></trkpt><trkpt lat="45.52080529944046" lon="9.26097562540671"><ele>129.0</ele><time>2026-04-18T07:41:36Z</time></trkpt><trkpt lat="45.52058184589196" lon="9.261034673418507"><ele>129.5</ele><time>2026-04-18T07:41:37Z</time></trkpt><trkpt lat="45.520355194668454" lon="9.26108880457551"><ele>130.0</ele><time>2026-04-18T07:41:38Z</time></trkpt><trkpt lat="45.5201242439185" lon="9.261139142697555"><ele>130.0</ele><time>2026-04-18T07:41:39Z</time></trkpt><trkpt lat="45.519894543170835" lon="9.261186720250137"><ele>130.0</ele><time>2026-04-18T07:41:40Z</time></trkpt><trkpt lat="45.51966079600981" lon="9.261234493427876"><ele>128.0</ele><time>2026-04-18T07:41:41Z</time></trkpt><trkpt lat="45.51942703563296" lon="9.261276956093774"><ele>126.0</ele><time>2026-04-18T07:41:42Z</time></trkpt><trkpt lat="45.51918778096932" lon="9.261317362439852"><ele>126.0</ele><time>2026-04-18T07:41:43Z</time></trkpt><trkpt lat="45.518952310242966" lon="9.261354132166272"><ele>126.0</ele><time>2026-04-18T07:41:44Z</time></trkpt><trkpt lat="45.51871339433273" lon="9.26139257353668"><ele>126.5</ele><time>2026-04-18T07:41:45Z</time></trkpt><trkpt lat="45.51847177851958" lon="9.261428254715605"><ele>127.0</ele><time>2026-04-18T07:41:46Z</time></trkpt><trkpt lat="45.5182329981068" lon="9.261465352873115"><ele>126.0</ele><time>2026-04-18T07:41:47Z</time></trkpt><trkpt lat="45.51799295305702" lon="9.261496317177501"><ele>125.0</ele><time>2026-04-18T07:41:48Z</time></trkpt><trkpt lat="45.517752665162995" lon="9.261522347518397"><ele>124.0</ele><time>2026-04-18T07:41:49Z</time></trkpt><trkpt lat="45.5175113807477" lon="9.261541435756124"><ele>123.0</ele><time>2026-04-18T07:41:50.001Z</time></trkpt><trkpt lat="45.51727262224413" lon="9.261547220623656"><ele>124.0</ele><time>2026-04-18T07:41:51.001Z</time></trkpt><trkpt lat="45.51703255911011" lon="9.261550263905828"><ele>125.0</ele><time>2026-04-18T07:41:52.001Z</time></trkpt><trkpt lat="45.51679454613326" lon="9.261553502790646"><ele>125.0</ele><time>2026-04-18T07:41:53.001Z</time></trkpt><trkpt lat="45.51655381201509" lon="9.26155130387551"><ele>125.0</ele><time>2026-04-18T07:41:54.001Z</time></trkpt><trkpt lat="45.51631669905048" lon="9.261540578489443"><ele>126.5</ele><time>2026-04-18T07:41:55.001Z</time></trkpt><trkpt lat="45.516079994135396" lon="9.261521858306265"><ele>128.0</ele><time>2026-04-18T07:41:56.001Z</time></trkpt><trkpt lat="45.51584633350295" lon="9.261498219503503"><ele>128.0</ele><time>2026-04-18T07:41:57.001Z</time></trkpt><trkpt lat="45.515611150686965" lon="9.261474667643844"><ele>128.0</ele><time>2026-04-18T07:41:58.001Z</time></trkpt><trkpt lat="45.515380635367634" lon="9.261451069540028"><ele>126.0</ele><time>2026-04-18T07:41:59.001Z</time></trkpt><trkpt lat="45.51515295527899" lon="9.261423910886275"><ele>124.0</ele><time>2026-04-18T07:42:00.001Z</time></trkpt><trkpt lat="45.51492981947329" lon="9.261395997941321"><ele>124.0</ele><time>2026-04-18T07:42:01.001Z</time></trkpt><trkpt lat="45.51470790309409" lon="9.261367329149348"><ele>124.0</ele><time>2026-04-18T07:42:02.001Z</time></trkpt><trkpt lat="45.514489401336796" lon="9.261343259730097"><ele>124.0</ele><time>2026-04-18T07:42:03.001Z</time></trkpt><trkpt lat="45.51427282096875" lon="9.261322008179636"><ele>125.33333333333334</ele><time>2026-04-18T07:42:04.001Z</time></trkpt><trkpt lat="45.51405645309639" lon="9.261306225002905"><ele>126.66666666666666</ele><time>2026-04-18T07:42:05.001Z</time></trkpt><trkpt lat="45.51384434399215" lon="9.261296894545847"><ele>128.0</ele><time>2026-04-18T07:42:06.001Z</time></trkpt><trkpt lat="45.51363046443585" lon="9.261294347888358"><ele>129.66666666666666</ele><time>2026-04-18T07:42:07.001Z</time></trkpt><trkpt lat="45.51341634027116" lon="9.261297816577281"><ele>131.33333333333334</ele><time>2026-04-18T07:42:08.001Z</time></trkpt><trkpt lat="45.51320111785474" lon="9.261306409044524"><ele>133.0</ele><time>2026-04-18T07:42:09.001Z</time></trkpt><trkpt lat="45.512984240239625" lon="9.261318215012992"><ele>131.66666666666669</ele><time>2026-04-18T07:42:10.001Z</time></trkpt><trkpt lat="45.512769047818" lon="9.261329292174912"><ele>130.33333333333334</ele><time>2026-04-18T07:42:11.001Z</time></trkpt><trkpt lat="45.51255464068762" lon="9.261339705836676"><ele>129.0</ele><time>2026-04-18T07:42:12.001Z</time></trkpt><trkpt lat="45.51233939121941" lon="9.26134984658894"><ele>129.0</ele><time>2026-04-18T07:42:13.001Z</time></trkpt><trkpt lat="45.512121992425925" lon="9.261362164510873"><ele>129.0</ele><time>2026-04-18T07:42:14.001Z</time></trkpt><trkpt lat="45.511903654574986" lon="9.261380116744835"><ele>129.0</ele><time>2026-04-18T07:42:15.001Z</time></trkpt><trkpt lat="45.511683675628746" lon="9.261409284074205"><ele>128.66666666666666</ele><time>2026-04-18T07:42:16.001Z</time></trkpt><trkpt lat="45.51146475563095" lon="9.261451521167897"><ele>128.33333333333331</ele><time>2026-04-18T07:42:17.001Z</time></trkpt><trkpt lat="45.511245128598304" lon="9.261504406841384"><ele>128.0</ele><time>2026-04-18T07:42:18.001Z</time></trkpt><trkpt lat="45.51102639424584" lon="9.261561963151035"><ele>127.0</ele><time>2026-04-18T07:42:19.001Z</time></trkpt><trkpt lat="45.51080761921635" lon="9.261622555170517"><ele>126.0</ele><time>2026-04-18T07:42:20.001Z</time></trkpt><trkpt lat="45.51059336258316" lon="9.261685056609235"><ele>125.0</ele><time>2026-04-18T07:42:21.001Z</time></trkpt><trkpt lat="45.510373243909115" lon="9.261733035065081"><ele>125.0</ele><time>2026-04-18T07:42:22.001Z</time></trkpt><trkpt lat="45.51015017309536" lon="9.261757300797132"><ele>125.0</ele><time>2026-04-18T07:42:23.001Z</time></trkpt><trkpt lat="45.50992462870599" lon="9.261756223557114"><ele>125.0</ele><time>2026-04-18T07:42:24.001Z</time></trkpt><trkpt lat="45.509697596204006" lon="9.261736674016428"><ele>124.5</ele><time>2026-04-18T07:42:25.001Z</time></trkpt><trkpt lat="45.509469788782326" lon="9.261697744905266"><ele>124.0</ele><time>2026-04-18T07:42:26.001Z</time></trkpt><trkpt lat="45.50924475888496" lon="9.26163882652481"><ele>124.0</ele><time>2026-04-18T07:42:27.001Z</time></trkpt><trkpt lat="45.509020846233135" lon="9.261557884074335"><ele>124.0</ele><time>2026-04-18T07:42:28.001Z</time></trkpt><trkpt lat="45.50880062629" lon="9.261454826545567"><ele>123.5</ele><time>2026-04-18T07:42:29.002Z</time></trkpt><trkpt lat="45.50858295549838" lon="9.26133282281172"><ele>123.0</ele><time>2026-04-18T07:42:30.002Z</time></trkpt><trkpt lat="45.508372579181994" lon="9.261196401191869"><ele>123.0</ele><time>2026-04-18T07:42:31.002Z</time></trkpt><trkpt lat="45.50816733365333" lon="9.261046811760297"><ele>123.0</ele><time>2026-04-18T07:42:32.002Z</time></trkpt><trkpt lat="45.50796917982761" lon="9.260891893765256"><ele>123.33333333333334</ele><time>2026-04-18T07:42:33.002Z</time></trkpt><trkpt lat="45.50778093864542" lon="9.260747014130162"><ele>123.66666666666667</ele><time>2026-04-18T07:42:34.002Z</time></trkpt><trkpt lat="45.50760189514449" lon="9.260613574848739"><ele>124.0</ele><time>2026-04-18T07:42:35.002Z</time></trkpt><trkpt lat="45.50743570938977" lon="9.260487850507653"><ele>124.0</ele><time>2026-04-18T07:42:36.002Z</time></trkpt><trkpt lat="45.507275545817244" lon="9.260361689104037"><ele>124.0</ele><time>2026-04-18T07:42:37.002Z</time></trkpt><trkpt lat="45.50711303079509" lon="9.260234173262821"><ele>124.0</ele><time>2026-04-18T07:42:38.002Z</time></trkpt><trkpt lat="45.5069440096166" lon="9.260105211810723"><ele>123.66666666666667</ele><time>2026-04-18T07:42:39.002Z</time></trkpt><trkpt lat="45.50676857311919" lon="9.259972790302632"><ele>123.33333333333334</ele><time>2026-04-18T07:42:40.002Z</time></trkpt><trkpt lat="45.506576211233366" lon="9.259835076128871"><ele>123.0</ele><time>2026-04-18T07:42:41.002Z</time></trkpt><trkpt lat="45.50637041303099" lon="9.259686237428745"><ele>122.0</ele><time>2026-04-18T07:42:42.002Z</time></trkpt><trkpt lat="45.50615724876468" lon="9.259530381214617"><ele>121.0</ele><time>2026-04-18T07:42:43.002Z</time></trkpt><trkpt lat="45.505941266251824" lon="9.259367652098208"><ele>121.0</ele><time>2026-04-18T07:42:44.002Z</time></trkpt><trkpt lat="45.505727305873584" lon="9.259203609314449"><ele>121.0</ele><time>2026-04-18T07:42:45.002Z</time></trkpt><trkpt lat="45.505512193884314" lon="9.259038397299761"><ele>122.0</ele><time>2026-04-18T07:42:46.002Z</time></trkpt><trkpt lat="45.50529621156966" lon="9.258872076258237"><ele>123.0</ele><time>2026-04-18T07:42:47.002Z</time></trkpt><trkpt lat="45.50507605404632" lon="9.258704728534806"><ele>123.0</ele><time>2026-04-18T07:42:48.002Z</time></trkpt><trkpt lat="45.50485827664961" lon="9.258538303169447"><ele>123.0</ele><time>2026-04-18T07:42:49.002Z</time></trkpt><trkpt lat="45.504639699979926" lon="9.2583701445932"><ele>123.0</ele><time>2026-04-18T07:42:50.002Z</time></trkpt><trkpt lat="45.50442174830186" lon="9.25820279596508"><ele>123.0</ele><time>2026-04-18T07:42:51.002Z</time></trkpt><trkpt lat="45.504205699486796" lon="9.258035703828472"><ele>121.0</ele><time>2026-04-18T07:42:52.002Z</time></trkpt><trkpt lat="45.5039984459687" lon="9.2578766324031"><ele>119.0</ele><time>2026-04-18T07:42:53.002Z</time></trkpt><trkpt lat="45.5037940609684" lon="9.2577181366957"><ele>119.5</ele><time>2026-04-18T07:42:54.002Z</time></trkpt><trkpt lat="45.50359305957779" lon="9.25756052513377"><ele>120.0</ele><time>2026-04-18T07:42:55.002Z</time></trkpt><trkpt lat="45.50338921225982" lon="9.257400732416954"><ele>121.5</ele><time>2026-04-18T07:42:56.002Z</time></trkpt><trkpt lat="45.50318840968708" lon="9.257244775694177"><ele>123.0</ele><time>2026-04-18T07:42:57.002Z</time></trkpt><trkpt lat="45.5029837897164" lon="9.257088851711714"><ele>121.5</ele><time>2026-04-18T07:42:57.999Z</time></trkpt><trkpt lat="45.502778694389605" lon="9.256932013381489"><ele>120.0</ele><time>2026-04-18T07:42:58.999Z</time></trkpt><trkpt lat="45.50257187660699" lon="9.25677221166195"><ele>120.0</ele><time>2026-04-18T07:42:59.999Z</time></trkpt><trkpt lat="45.502359070416176" lon="9.256608597007956"><ele>120.0</ele><time>2026-04-18T07:43:00.999Z</time></trkpt><trkpt lat="45.502143401526894" lon="9.256442318727991"><ele>121.0</ele><time>2026-04-18T07:43:01.999Z</time></trkpt><trkpt lat="45.501924252825724" lon="9.256277780671672"><ele>122.0</ele><time>2026-04-18T07:43:02.999Z</time></trkpt><trkpt lat="45.50170024289326" lon="9.256121938378502"><ele>122.0</ele><time>2026-04-18T07:43:03.999Z</time></trkpt><trkpt lat="45.50147009008343" lon="9.255983464247196"><ele>122.0</ele><time>2026-04-18T07:43:04.999Z</time></trkpt><trkpt lat="45.50123269510111" lon="9.255856815750887"><ele>121.5</ele><time>2026-04-18T07:43:05.999Z</time></trkpt><trkpt lat="45.50099460192768" lon="9.25574769957594"><ele>121.0</ele><time>2026-04-18T07:43:06.999Z</time></trkpt><trkpt lat="45.5007506474164" lon="9.255651053182515"><ele>121.0</ele><time>2026-04-18T07:43:07.999Z</time></trkpt><trkpt lat="45.50050515765728" lon="9.255571228711958"><ele>121.0</ele><time>2026-04-18T07:43:08.999Z</time></trkpt><trkpt lat="45.50025954427269" lon="9.255504821777992"><ele>121.0</ele><time>2026-04-18T07:43:09.999Z</time></trkpt><trkpt lat="45.50001021110945" lon="9.255450847285752"><ele>121.0</ele><time>2026-04-18T07:43:10.999Z</time></trkpt><trkpt lat="45.49975673620036" lon="9.255413224116639"><ele>122.0</ele><time>2026-04-18T07:43:11.999Z</time></trkpt><trkpt lat="45.499497927706855" lon="9.255380914827029"><ele>123.0</ele><time>2026-04-18T07:43:12.999Z</time></trkpt><trkpt lat="45.499238834712905" lon="9.25535241455991"><ele>123.0</ele><time>2026-04-18T07:43:13.999Z</time></trkpt><trkpt lat="45.49897585828892" lon="9.255324260806265"><ele>123.0</ele><time>2026-04-18T07:43:14.999Z</time></trkpt><trkpt lat="45.49871104203613" lon="9.255296823912754"><ele>124.5</ele><time>2026-04-18T07:43:15.999Z</time></trkpt><trkpt lat="45.4984479649981" lon="9.25526821921252"><ele>126.0</ele><time>2026-04-18T07:43:16.999Z</time></trkpt><trkpt lat="45.49818532477261" lon="9.255242254010671"><ele>126.0</ele><time>2026-04-18T07:43:17.999Z</time></trkpt><trkpt lat="45.49792671780197" lon="9.255215787007469"><ele>126.0</ele><time>2026-04-18T07:43:18.999Z</time></trkpt><trkpt lat="45.497666585998964" lon="9.255189833644927"><ele>125.0</ele><time>2026-04-18T07:43:20Z</time></trkpt><trkpt lat="45.49740389265784" lon="9.255163479365583"><ele>124.0</ele><time>2026-04-18T07:43:21Z</time></trkpt><trkpt lat="45.497142772206786" lon="9.255131423559195"><ele>121.5</ele><time>2026-04-18T07:43:22Z</time></trkpt><trkpt lat="45.496879338202746" lon="9.255094398967223"><ele>119.0</ele><time>2026-04-18T07:43:23Z</time></trkpt><trkpt lat="45.49662075057963" lon="9.255045766244704"><ele>119.0</ele><time>2026-04-18T07:43:24Z</time></trkpt><trkpt lat="45.49636326726854" lon="9.254964094498199"><ele>119.0</ele><time>2026-04-18T07:43:25Z</time></trkpt><trkpt lat="45.49611265004954" lon="9.254868559974554"><ele>122.0</ele><time>2026-04-18T07:43:26Z</time></trkpt><trkpt lat="45.495862755336525" lon="9.254753640568959"><ele>125.0</ele><time>2026-04-18T07:43:27Z</time></trkpt><trkpt lat="45.495618705160254" lon="9.254621186056815"><ele>122.5</ele><time>2026-04-18T07:43:28Z</time></trkpt><trkpt lat="45.495374479438695" lon="9.254477492164849"><ele>120.0</ele><time>2026-04-18T07:43:29Z</time></trkpt><trkpt lat="45.495134086415966" lon="9.254326493607737"><ele>120.0</ele><time>2026-04-18T07:43:30Z</time></trkpt><trkpt lat="45.494894734529865" lon="9.254176907037674"><ele>120.0</ele><time>2026-04-18T07:43:31Z</time></trkpt><trkpt lat="45.49465598610759" lon="9.254028682518088"><ele>119.0</ele><time>2026-04-18T07:43:32Z</time></trkpt><trkpt lat="45.49442180118369" lon="9.253886755372605"><ele>118.0</ele><time>2026-04-18T07:43:33Z</time></trkpt><trkpt lat="45.49419386532954" lon="9.253742271649868"><ele>118.0</ele><time>2026-04-18T07:43:34Z</time></trkpt><trkpt lat="45.49397049772634" lon="9.253594073567031"><ele>118.0</ele><time>2026-04-18T07:43:35Z</time></trkpt><trkpt lat="45.493750451663125" lon="9.253440152539955"><ele>119.5</ele><time>2026-04-18T07:43:36Z</time></trkpt><trkpt lat="45.493525919718664" lon="9.253287520931238"><ele>121.0</ele><time>2026-04-18T07:43:37Z</time></trkpt><trkpt lat="45.49330059260396" lon="9.253140049420763"><ele>121.0</ele><time>2026-04-18T07:43:38Z</time></trkpt><trkpt lat="45.49307245739528" lon="9.252994270511904"><ele>121.0</ele><time>2026-04-18T07:43:39Z</time></trkpt><trkpt lat="45.492843928466804" lon="9.252850650418582"><ele>121.0</ele><time>2026-04-18T07:43:40Z</time></trkpt><trkpt lat="45.49261961059267" lon="9.252714528066432"><ele>121.0</ele><time>2026-04-18T07:43:41Z</time></trkpt><trkpt lat="45.492398925836135" lon="9.252592039735076"><ele>121.0</ele><time>2026-04-18T07:43:42Z</time></trkpt><trkpt lat="45.49218385286757" lon="9.252481086698188"><ele>121.0</ele><time>2026-04-18T07:43:43Z</time></trkpt><trkpt lat="45.49196502887709" lon="9.252376039786135"><ele>122.5</ele><time>2026-04-18T07:43:44Z</time></trkpt><trkpt lat="45.491743185244694" lon="9.252278209799131"><ele>124.0</ele><time>2026-04-18T07:43:45Z</time></trkpt><trkpt lat="45.49149966035707" lon="9.252189518140005"><ele>125.0</ele><time>2026-04-18T07:43:46Z</time></trkpt><trkpt lat="45.49125327490983" lon="9.252104219363265"><ele>126.0</ele><time>2026-04-18T07:43:47Z</time></trkpt><trkpt lat="45.4910098790637" lon="9.252024131602148"><ele>126.0</ele><time>2026-04-18T07:43:48Z</time></trkpt><trkpt lat="45.49076771323922" lon="9.251951809612827"><ele>126.0</ele><time>2026-04-18T07:43:49.001Z</time></trkpt><trkpt lat="45.49052156386779" lon="9.251889179865517"><ele>123.5</ele><time>2026-04-18T07:43:50.001Z</time></trkpt><trkpt lat="45.490278081673" lon="9.251837836315213"><ele>121.0</ele><time>2026-04-18T07:43:51.001Z</time></trkpt><trkpt lat="45.49003089324781" lon="9.251791476067966"><ele>121.0</ele><time>2026-04-18T07:43:52.001Z</time></trkpt><trkpt lat="45.48978221639298" lon="9.251746156947993"><ele>121.0</ele><time>2026-04-18T07:43:53.001Z</time></trkpt><trkpt lat="45.48953385858595" lon="9.251705579720543"><ele>121.0</ele><time>2026-04-18T07:43:54.001Z</time></trkpt><trkpt lat="45.48928431407955" lon="9.251665974483256"><ele>121.0</ele><time>2026-04-18T07:43:55.001Z</time></trkpt><trkpt lat="45.48903603220786" lon="9.251628404019366"><ele>121.0</ele><time>2026-04-18T07:43:56.001Z</time></trkpt><trkpt lat="45.488786762094485" lon="9.251587027806377"><ele>121.0</ele><time>2026-04-18T07:43:57.001Z</time></trkpt><trkpt lat="45.48853923793532" lon="9.251540656731084"><ele>120.0</ele><time>2026-04-18T07:43:58.001Z</time></trkpt><trkpt lat="45.48829267802327" lon="9.251493913970643"><ele>119.0</ele><time>2026-04-18T07:43:59.001Z</time></trkpt><trkpt lat="45.48805382124972" lon="9.251449881467776"><ele>118.0</ele><time>2026-04-18T07:44:00.001Z</time></trkpt><trkpt lat="45.48781036039385" lon="9.251406660273249"><ele>117.0</ele><time>2026-04-18T07:44:01.001Z</time></trkpt><trkpt lat="45.487567500900845" lon="9.251366726866799"><ele>117.0</ele><time>2026-04-18T07:44:02.001Z</time></trkpt><trkpt lat="45.487322506030175" lon="9.251329583298087"><ele>117.0</ele><time>2026-04-18T07:44:03.001Z</time></trkpt><trkpt lat="45.48707771708928" lon="9.251292472188617"><ele>116.5</ele><time>2026-04-18T07:44:04.001Z</time></trkpt><trkpt lat="45.48683619609284" lon="9.251256324628185"><ele>116.0</ele><time>2026-04-18T07:44:05.001Z</time></trkpt><trkpt lat="45.48659694258423" lon="9.251219960852561"><ele>116.0</ele><time>2026-04-18T07:44:06.001Z</time></trkpt><trkpt lat="45.486360344373004" lon="9.251182976465897"><ele>116.0</ele><time>2026-04-18T07:44:07.001Z</time></trkpt><trkpt lat="45.4861250080232" lon="9.251145465282756"><ele>117.0</ele><time>2026-04-18T07:44:08.001Z</time></trkpt><trkpt lat="45.48588711649657" lon="9.251109759907006"><ele>118.0</ele><time>2026-04-18T07:44:09.001Z</time></trkpt><trkpt lat="45.48564755276282" lon="9.251077751658272"><ele>118.0</ele><time>2026-04-18T07:44:10.001Z</time></trkpt><trkpt lat="45.48540810361063" lon="9.25104353441735"><ele>118.0</ele><time>2026-04-18T07:44:11.001Z</time></trkpt><trkpt lat="45.48516936410191" lon="9.251009661020369"><ele>118.0</ele><time>2026-04-18T07:44:12.001Z</time></trkpt><trkpt lat="45.484931350585875" lon="9.25098138205733"><ele>118.0</ele><time>2026-04-18T07:44:13.001Z</time></trkpt><trkpt lat="45.48469349279971" lon="9.250958610367556"><ele>119.0</ele><time>2026-04-18T07:44:14.001Z</time></trkpt><trkpt lat="45.48445584369645" lon="9.250946625974917"><ele>120.0</ele><time>2026-04-18T07:44:15.001Z</time></trkpt><trkpt lat="45.48421547601685" lon="9.250941821664462"><ele>120.0</ele><time>2026-04-18T07:44:16.001Z</time></trkpt><trkpt lat="45.48397968337988" lon="9.250949315066904"><ele>120.0</ele><time>2026-04-18T07:44:17.001Z</time></trkpt><trkpt lat="45.48374280878755" lon="9.250966031606524"><ele>119.0</ele><time>2026-04-18T07:44:18.001Z</time></trkpt><trkpt lat="45.48350782356155" lon="9.250993270806442"><ele>118.0</ele><time>2026-04-18T07:44:19.001Z</time></trkpt><trkpt lat="45.48327388583151" lon="9.25102752894985"><ele>118.0</ele><time>2026-04-18T07:44:20.001Z</time></trkpt><trkpt lat="45.48304239072676" lon="9.251073259684274"><ele>118.0</ele><time>2026-04-18T07:44:21.001Z</time></trkpt><trkpt lat="45.48281210143746" lon="9.251130907706703"><ele>119.0</ele><time>2026-04-18T07:44:22.001Z</time></trkpt><trkpt lat="45.482581169101785" lon="9.251199084689873"><ele>120.0</ele><time>2026-04-18T07:44:23.001Z</time></trkpt><trkpt lat="45.482353078569936" lon="9.251279578109196"><ele>120.0</ele><time>2026-04-18T07:44:24.002Z</time></trkpt><trkpt lat="45.48212779444964" lon="9.251370411777211"><ele>120.0</ele><time>2026-04-18T07:44:25.002Z</time></trkpt><trkpt lat="45.48190383743938" lon="9.251465928160735"><ele>120.5</ele><time>2026-04-18T07:44:26.002Z</time></trkpt><trkpt lat="45.48168243650603" lon="9.251560492150952"><ele>121.0</ele><time>2026-04-18T07:44:27.002Z</time></trkpt><trkpt lat="45.48146291267139" lon="9.251654847920786"><ele>121.0</ele><time>2026-04-18T07:44:28.002Z</time></trkpt><trkpt lat="45.481247266100226" lon="9.25175049551954"><ele>121.0</ele><time>2026-04-18T07:44:29.002Z</time></trkpt><trkpt lat="45.48103651027996" lon="9.251847702840895"><ele>121.0</ele><time>2026-04-18T07:44:30.002Z</time></trkpt><trkpt lat="45.480829216811976" lon="9.25194204455044"><ele>121.0</ele><time>2026-04-18T07:44:31.002Z</time></trkpt><trkpt lat="45.4806220750923" lon="9.252034791258147"><ele>121.0</ele><time>2026-04-18T07:44:32.002Z</time></trkpt><trkpt lat="45.4804170840796" lon="9.252126638848967"><ele>121.0</ele><time>2026-04-18T07:44:33.002Z</time></trkpt><trkpt lat="45.480214095548824" lon="9.252219377725531"><ele>120.33333333333334</ele><time>2026-04-18T07:44:34.002Z</time></trkpt><trkpt lat="45.4800069080526" lon="9.252318412178564"><ele>119.66666666666666</ele><time>2026-04-18T07:44:35.002Z</time></trkpt><trkpt lat="45.47979295670282" lon="9.25242300074293"><ele>119.0</ele><time>2026-04-18T07:44:36.002Z</time></trkpt><trkpt lat="45.47957203473343" lon="9.252529557208984"><ele>119.0</ele><time>2026-04-18T07:44:37.002Z</time></trkpt><trkpt lat="45.4793470138885" lon="9.252632450377751"><ele>119.0</ele><time>2026-04-18T07:44:38.002Z</time></trkpt><trkpt lat="45.479121928801874" lon="9.252735156164437"><ele>119.0</ele><time>2026-04-18T07:44:39.002Z</time></trkpt><trkpt lat="45.478898844048864" lon="9.252840843645528"><ele>119.0</ele><time>2026-04-18T07:44:40.002Z</time></trkpt><trkpt lat="45.478681465533015" lon="9.252941015818978"><ele>118.0</ele><time>2026-04-18T07:44:41.002Z</time></trkpt><trkpt lat="45.47846594493198" lon="9.253038235572717"><ele>117.0</ele><time>2026-04-18T07:44:42.002Z</time></trkpt><trkpt lat="45.47825007722474" lon="9.253135240012865"><ele>117.0</ele><time>2026-04-18T07:44:43.002Z</time></trkpt><trkpt lat="45.47803387960754" lon="9.253224929696112"><ele>117.0</ele><time>2026-04-18T07:44:44.002Z</time></trkpt><trkpt lat="45.477816925077704" lon="9.253307756076765"><ele>115.5</ele><time>2026-04-18T07:44:45.002Z</time></trkpt><trkpt lat="45.47759774866985" lon="9.253378408001195"><ele>114.0</ele><time>2026-04-18T07:44:46.002Z</time></trkpt><trkpt lat="45.47737651957957" lon="9.253437246988335"><ele>114.0</ele><time>2026-04-18T07:44:47.002Z</time></trkpt><trkpt lat="45.477150965766654" lon="9.253484400401733"><ele>114.0</ele><time>2026-04-18T07:44:48.002Z</time></trkpt><trkpt lat="45.47692193745823" lon="9.253517351342728"><ele>115.5</ele><time>2026-04-18T07:44:49.002Z</time></trkpt><trkpt lat="45.47668673910375" lon="9.253534988947658"><ele>117.0</ele><time>2026-04-18T07:44:50.002Z</time></trkpt><trkpt lat="45.476450203149305" lon="9.253540242161407"><ele>117.0</ele><time>2026-04-18T07:44:51.002Z</time></trkpt><trkpt lat="45.47621108688866" lon="9.253531004087733"><ele>117.0</ele><time>2026-04-18T07:44:52.002Z</time></trkpt><trkpt lat="45.475970214695394" lon="9.253506929261151"><ele>117.0</ele><time>2026-04-18T07:44:53.002Z</time></trkpt><trkpt lat="45.47573470994886" lon="9.253467749500139"><ele>117.0</ele><time>2026-04-18T07:44:54.002Z</time></trkpt><trkpt lat="45.475498730163125" lon="9.253413094949423"><ele>118.5</ele><time>2026-04-18T07:44:55.002Z</time></trkpt><trkpt lat="45.47526439015213" lon="9.253349494705587"><ele>120.0</ele><time>2026-04-18T07:44:56.002Z</time></trkpt><trkpt lat="45.4750317466172" lon="9.253278194836316"><ele>120.0</ele><time>2026-04-18T07:44:57.002Z</time></trkpt><trkpt lat="45.47479670416074" lon="9.253202720726161"><ele>120.0</ele><time>2026-04-18T07:44:58.002Z</time></trkpt><trkpt lat="45.47456699544116" lon="9.253125462886302"><ele>118.5</ele><time>2026-04-18T07:44:59.003Z</time></trkpt><trkpt lat="45.47433458497856" lon="9.253043622463615"><ele>117.0</ele><time>2026-04-18T07:45:00.003Z</time></trkpt><trkpt lat="45.47410523481959" lon="9.252967654383644"><ele>117.0</ele><time>2026-04-18T07:45:01.003Z</time></trkpt><trkpt lat="45.47387593557479" lon="9.252892958727681"><ele>117.0</ele><time>2026-04-18T07:45:02.003Z</time></trkpt><trkpt lat="45.47364491118216" lon="9.25281760556759"><ele>118.0</ele><time>2026-04-18T07:45:03.003Z</time></trkpt><trkpt lat="45.47341923442135" lon="9.252743284896052"><ele>119.0</ele><time>2026-04-18T07:45:03.998Z</time></trkpt><trkpt lat="45.473193645131076" lon="9.252666697360427"><ele>119.0</ele><time>2026-04-18T07:45:04.998Z</time></trkpt><trkpt lat="45.47296556255156" lon="9.252591284903085"><ele>119.0</ele><time>2026-04-18T07:45:05.998Z</time></trkpt><trkpt lat="45.47273652829704" lon="9.252522930962826"><ele>120.0</ele><time>2026-04-18T07:45:06.998Z</time></trkpt><trkpt lat="45.472504681193186" lon="9.252459887483154"><ele>121.0</ele><time>2026-04-18T07:45:07.998Z</time></trkpt><trkpt lat="45.47227225275157" lon="9.252399134666428"><ele>119.0</ele><time>2026-04-18T07:45:08.998Z</time></trkpt><trkpt lat="45.47203537160638" lon="9.252339725131936"><ele>117.0</ele><time>2026-04-18T07:45:09.998Z</time></trkpt><trkpt lat="45.47179385236338" lon="9.25228137828701"><ele>115.5</ele><time>2026-04-18T07:45:10.998Z</time></trkpt><trkpt lat="45.471551997881335" lon="9.252229249717287"><ele>114.0</ele><time>2026-04-18T07:45:11.998Z</time></trkpt><trkpt lat="45.471306444546585" lon="9.252181521552096"><ele>113.5</ele><time>2026-04-18T07:45:12.998Z</time></trkpt><trkpt lat="45.471056344600115" lon="9.252138914009059"><ele>113.0</ele><time>2026-04-18T07:45:13.998Z</time></trkpt><trkpt lat="45.47080834806582" lon="9.252102483196914"><ele>113.0</ele><time>2026-04-18T07:45:14.999Z</time></trkpt><trkpt lat="45.4705600754907" lon="9.25207191125579"><ele>113.0</ele><time>2026-04-18T07:45:15.999Z</time></trkpt><trkpt lat="45.47031082096483" lon="9.2520482467836"><ele>113.5</ele><time>2026-04-18T07:45:16.999Z</time></trkpt><trkpt lat="45.47006167182744" lon="9.252026752751945"><ele>114.0</ele><time>2026-04-18T07:45:17.999Z</time></trkpt><trkpt lat="45.46980846124162" lon="9.25201189439418"><ele>113.0</ele><time>2026-04-18T07:45:18.999Z</time></trkpt><trkpt lat="45.46955256581426" lon="9.252001932268167"><ele>112.0</ele><time>2026-04-18T07:45:19.999Z</time></trkpt><trkpt lat="45.46929591404736" lon="9.251993876338641"><ele>112.0</ele><time>2026-04-18T07:45:20.999Z</time></trkpt><trkpt lat="45.46904132282187" lon="9.251993253784898"><ele>112.0</ele><time>2026-04-18T07:45:21.999Z</time></trkpt><trkpt lat="45.46878510123523" lon="9.251992746914892"><ele>113.5</ele><time>2026-04-18T07:45:22.999Z</time></trkpt><trkpt lat="45.468529123876365" lon="9.251997017267309"><ele>115.0</ele><time>2026-04-18T07:45:23.999Z</time></trkpt><trkpt lat="45.46827238178344" lon="9.252002316630932"><ele>115.0</ele><time>2026-04-18T07:45:24.999Z</time></trkpt><trkpt lat="45.46801109849215" lon="9.25200558037721"><ele>115.0</ele><time>2026-04-18T07:45:25.999Z</time></trkpt><trkpt lat="45.46775406645516" lon="9.252006579026283"><ele>115.0</ele><time>2026-04-18T07:45:26.999Z</time></trkpt><trkpt lat="45.467503577301834" lon="9.25200134814004"><ele>115.0</ele><time>2026-04-18T07:45:27.999Z</time></trkpt><trkpt lat="45.46724824902478" lon="9.251986741487737"><ele>115.0</ele><time>2026-04-18T07:45:28.999Z</time></trkpt><trkpt lat="45.46699303604058" lon="9.25195917388111"><ele>115.0</ele><time>2026-04-18T07:45:29.999Z</time></trkpt><trkpt lat="45.46673987079109" lon="9.251918912248817"><ele>115.0</ele><time>2026-04-18T07:45:30.999Z</time></trkpt><trkpt lat="45.46648632290982" lon="9.251863370506786"><ele>115.0</ele><time>2026-04-18T07:45:32Z</time></trkpt><trkpt lat="45.46623146111118" lon="9.251795203141466"><ele>114.5</ele><time>2026-04-18T07:45:33Z</time></trkpt><trkpt lat="45.46598641415952" lon="9.251718398176065"><ele>114.0</ele><time>2026-04-18T07:45:34Z</time></trkpt><trkpt lat="45.46574879390586" lon="9.251626346000512"><ele>114.0</ele><time>2026-04-18T07:45:35Z</time></trkpt><trkpt lat="45.46552761132466" lon="9.251521117524526"><ele>114.0</ele><time>2026-04-18T07:45:36Z</time></trkpt><trkpt lat="45.465315494034016" lon="9.251408998614089"><ele>113.5</ele><time>2026-04-18T07:45:37Z</time></trkpt><trkpt lat="45.46510009455561" lon="9.25130456191363"><ele>113.0</ele><time>2026-04-18T07:45:38Z</time></trkpt><trkpt lat="45.464867387189635" lon="9.251213514954985"><ele>114.0</ele><time>2026-04-18T07:45:39Z</time></trkpt><trkpt lat="45.46458721117583" lon="9.251135482075103"><ele>115.0</ele><time>2026-04-18T07:45:40Z</time></trkpt><trkpt lat="45.46428762610271" lon="9.251066249027726"><ele>115.0</ele><time>2026-04-18T07:45:41Z</time></trkpt><trkpt lat="45.46402610126007" lon="9.25102660851473"><ele>115.0</ele><time>2026-04-18T07:45:42Z</time></trkpt><trkpt lat="45.46376375704216" lon="9.250998530058316"><ele>115.0</ele><time>2026-04-18T07:45:43Z</time></trkpt><trkpt lat="45.463510110724464" lon="9.250986707295766"><ele>115.0</ele><time>2026-04-18T07:45:44Z</time></trkpt><trkpt lat="45.46325302221263" lon="9.25098415008155"><ele>115.0</ele><time>2026-04-18T07:45:45Z</time></trkpt><trkpt lat="45.46299177110974" lon="9.25099625735466"><ele>115.0</ele><time>2026-04-18T07:45:46Z</time></trkpt><trkpt lat="45.46273108350135" lon="9.251021550388755"><ele>111.5</ele><time>2026-04-18T07:45:47Z</time></trkpt><trkpt lat="45.46247974276793" lon="9.251047626349935"><ele>108.0</ele><time>2026-04-18T07:45:48Z</time></trkpt><trkpt lat="45.462227538027705" lon="9.25106912549837"><ele>112.0</ele><time>2026-04-18T07:45:49Z</time></trkpt><trkpt lat="45.46198084796393" lon="9.251091945734569"><ele>116.0</ele><time>2026-04-18T07:45:50Z</time></trkpt><trkpt lat="45.4617307558541" lon="9.251114592763129"><ele>116.0</ele><time>2026-04-18T07:45:51Z</time></trkpt><trkpt lat="45.46148194643898" lon="9.25113648087185"><ele>116.0</ele><time>2026-04-18T07:45:52Z</time></trkpt><trkpt lat="45.46123157980819" lon="9.251157475044074"><ele>116.5</ele><time>2026-04-18T07:45:53Z</time></trkpt><trkpt lat="45.4609847202438" lon="9.251177295322172"><ele>117.0</ele><time>2026-04-18T07:45:54Z</time></trkpt><trkpt lat="45.460744394694025" lon="9.251198460470382"><ele>117.0</ele><time>2026-04-18T07:45:55Z</time></trkpt><trkpt lat="45.460506236523294" lon="9.251216419894561"><ele>117.0</ele><time>2026-04-18T07:45:56Z</time></trkpt><trkpt lat="45.46026932374614" lon="9.25123548015676"><ele>115.0</ele><time>2026-04-18T07:45:57Z</time></trkpt><trkpt lat="45.46002991330287" lon="9.251257676043105"><ele>113.0</ele><time>2026-04-18T07:45:58.001Z</time></trkpt><trkpt lat="45.45979350159425" lon="9.25129378946951"><ele>112.5</ele><time>2026-04-18T07:45:59.001Z</time></trkpt><trkpt lat="45.45956152480611" lon="9.251337889852788"><ele>112.0</ele><time>2026-04-18T07:46:00.001Z</time></trkpt><trkpt lat="45.45932807541057" lon="9.251384377813544"><ele>112.0</ele><time>2026-04-18T07:46:01.001Z</time></trkpt><trkpt lat="45.45909889377576" lon="9.251442019462882"><ele>112.0</ele><time>2026-04-18T07:46:02.001Z</time></trkpt><trkpt lat="45.458865837376166" lon="9.251509037153014"><ele>113.0</ele><time>2026-04-18T07:46:03.001Z</time></trkpt><trkpt lat="45.45863646498334" lon="9.251579104888872"><ele>114.0</ele><time>2026-04-18T07:46:04.001Z</time></trkpt><trkpt lat="45.45840350850406" lon="9.251659414949879"><ele>114.0</ele><time>2026-04-18T07:46:05.001Z</time></trkpt><trkpt lat="45.45816772636734" lon="9.251745412413584"><ele>114.0</ele><time>2026-04-18T07:46:06.001Z</time></trkpt><trkpt lat="45.457927810809714" lon="9.251846916845725"><ele>112.5</ele><time>2026-04-18T07:46:07.001Z</time></trkpt><trkpt lat="45.45768897127283" lon="9.251963471483037"><ele>111.0</ele><time>2026-04-18T07:46:08.001Z</time></trkpt><trkpt lat="45.45745500044242" lon="9.252093858252337"><ele>111.0</ele><time>2026-04-18T07:46:09.001Z</time></trkpt><trkpt lat="45.45722125021485" lon="9.252231820264361"><ele>111.0</ele><time>2026-04-18T07:46:10.001Z</time></trkpt><trkpt lat="45.456993076507096" lon="9.252378045403011"><ele>111.5</ele><time>2026-04-18T07:46:11.001Z</time></trkpt><trkpt lat="45.456763371671634" lon="9.25252800308262"><ele>112.0</ele><time>2026-04-18T07:46:12.001Z</time></trkpt><trkpt lat="45.45654200480507" lon="9.252684675547425"><ele>112.0</ele><time>2026-04-18T07:46:13.001Z</time></trkpt><trkpt lat="45.45632895999128" lon="9.252850112734066"><ele>112.0</ele><time>2026-04-18T07:46:14.001Z</time></trkpt><trkpt lat="45.45612075182337" lon="9.25301736775035"><ele>111.5</ele><time>2026-04-18T07:46:15.001Z</time></trkpt><trkpt lat="45.455918603112366" lon="9.253188517465777"><ele>111.0</ele><time>2026-04-18T07:46:16.001Z</time></trkpt><trkpt lat="45.455716866209805" lon="9.253358745682638"><ele>111.0</ele><time>2026-04-18T07:46:17.001Z</time></trkpt><trkpt lat="45.455513541676616" lon="9.25352416144479"><ele>111.0</ele><time>2026-04-18T07:46:18.001Z</time></trkpt><trkpt lat="45.45531339423881" lon="9.253687764947262"><ele>110.5</ele><time>2026-04-18T07:46:19.001Z</time></trkpt><trkpt lat="45.45511207870421" lon="9.253858584257836"><ele>110.0</ele><time>2026-04-18T07:46:20.001Z</time></trkpt><trkpt lat="45.45490962912365" lon="9.254027792439954"><ele>109.5</ele><time>2026-04-18T07:46:21.001Z</time></trkpt><trkpt lat="45.4547061257625" lon="9.254197437498586"><ele>109.0</ele><time>2026-04-18T07:46:22.001Z</time></trkpt><trkpt lat="45.45450116757206" lon="9.25436435533119"><ele>109.0</ele><time>2026-04-18T07:46:23.001Z</time></trkpt><trkpt lat="45.45429882451561" lon="9.254528749682592"><ele>109.0</ele><time>2026-04-18T07:46:24.001Z</time></trkpt><trkpt lat="45.454104715928075" lon="9.254686674509049"><ele>109.33333333333334</ele><time>2026-04-18T07:46:25.001Z</time></trkpt><trkpt lat="45.4539133005755" lon="9.254842680059449"><ele>109.66666666666666</ele><time>2026-04-18T07:46:26.001Z</time></trkpt><trkpt lat="45.45372161662496" lon="9.255002292664388"><ele>110.0</ele><time>2026-04-18T07:46:27.001Z</time></trkpt><trkpt lat="45.45353544178368" lon="9.255157762156655"><ele>110.0</ele><time>2026-04-18T07:46:28.001Z</time></trkpt><trkpt lat="45.453347231257524" lon="9.255316133840008"><ele>110.0</ele><time>2026-04-18T07:46:29.001Z</time></trkpt><trkpt lat="45.453157854522445" lon="9.255475759017985"><ele>110.0</ele><time>2026-04-18T07:46:30.002Z</time></trkpt><trkpt lat="45.452966038537326" lon="9.25563553549594"><ele>110.0</ele><time>2026-04-18T07:46:31.002Z</time></trkpt><trkpt lat="45.45277830776808" lon="9.255796418267918"><ele>110.0</ele><time>2026-04-18T07:46:32.002Z</time></trkpt><trkpt lat="45.452583931220694" lon="9.255957863844927"><ele>110.0</ele><time>2026-04-18T07:46:33.002Z</time></trkpt><trkpt lat="45.45239071021626" lon="9.256118012676207"><ele>110.0</ele><time>2026-04-18T07:46:34.002Z</time></trkpt><trkpt lat="45.452191338385866" lon="9.256284101116421"><ele>110.0</ele><time>2026-04-18T07:46:35.002Z</time></trkpt><trkpt lat="45.451987846150594" lon="9.25645257377144"><ele>110.5</ele><time>2026-04-18T07:46:36.002Z</time></trkpt><trkpt lat="45.45178316312607" lon="9.256622236069921"><ele>111.0</ele><time>2026-04-18T07:46:37.002Z</time></trkpt><trkpt lat="45.45158044666211" lon="9.256790718581971"><ele>111.0</ele><time>2026-04-18T07:46:38.002Z</time></trkpt><trkpt lat="45.45138357105474" lon="9.2569548622273"><ele>111.0</ele><time>2026-04-18T07:46:39.002Z</time></trkpt><trkpt lat="45.4511869481365" lon="9.257116988269113"><ele>111.5</ele><time>2026-04-18T07:46:40.002Z</time></trkpt><trkpt lat="45.45098917015047" lon="9.257279630461264"><ele>112.0</ele><time>2026-04-18T07:46:41.002Z</time></trkpt><trkpt lat="45.450787712377604" lon="9.257443202203373"><ele>112.0</ele><time>2026-04-18T07:46:42.002Z</time></trkpt><trkpt lat="45.4505844969433" lon="9.257604889601044"><ele>112.0</ele><time>2026-04-18T07:46:43.002Z</time></trkpt><trkpt lat="45.450373526753886" lon="9.257761846843401"><ele>112.5</ele><time>2026-04-18T07:46:44.002Z</time></trkpt><trkpt lat="45.45015637114056" lon="9.257911168976163"><ele>113.0</ele><time>2026-04-18T07:46:45.002Z</time></trkpt><trkpt lat="45.44993013286852" lon="9.258054356466987"><ele>112.5</ele><time>2026-04-18T07:46:46.002Z</time></trkpt><trkpt lat="45.44969814899158" lon="9.258185617306445"><ele>112.0</ele><time>2026-04-18T07:46:47.002Z</time></trkpt><trkpt lat="45.449459088324716" lon="9.2583032745242"><ele>110.5</ele><time>2026-04-18T07:46:48.002Z</time></trkpt><trkpt lat="45.449219256537354" lon="9.258409931399244"><ele>109.0</ele><time>2026-04-18T07:46:49.002Z</time></trkpt><trkpt lat="45.44897788935463" lon="9.258500386129647"><ele>108.0</ele><time>2026-04-18T07:46:50.002Z</time></trkpt><trkpt lat="45.44873480950477" lon="9.258578423902211"><ele>107.0</ele><time>2026-04-18T07:46:51.002Z</time></trkpt><trkpt lat="45.448492485821006" lon="9.258642602678036"><ele>107.0</ele><time>2026-04-18T07:46:52.002Z</time></trkpt><trkpt lat="45.44824562742773" lon="9.258691264676258"><ele>107.0</ele><time>2026-04-18T07:46:53.002Z</time></trkpt><trkpt lat="45.44799710921938" lon="9.2587244338885"><ele>105.5</ele><time>2026-04-18T07:46:54.002Z</time></trkpt><trkpt lat="45.447749949855734" lon="9.258740080586827"><ele>104.0</ele><time>2026-04-18T07:46:55.002Z</time></trkpt><trkpt lat="45.44750547514802" lon="9.258743489636931"><ele>104.0</ele><time>2026-04-18T07:46:56.002Z</time></trkpt><trkpt lat="45.4472585373363" lon="9.258734373133578"><ele>104.0</ele><time>2026-04-18T07:46:57.002Z</time></trkpt><trkpt lat="45.4470101037579" lon="9.258714193629874"><ele>107.5</ele><time>2026-04-18T07:46:58.002Z</time></trkpt><trkpt lat="45.44676311855014" lon="9.258679943459823"><ele>111.0</ele><time>2026-04-18T07:46:59.002Z</time></trkpt><trkpt lat="45.44651691919218" lon="9.258631498333237"><ele>106.0</ele><time>2026-04-18T07:47:00.002Z</time></trkpt><trkpt lat="45.446274346600596" lon="9.258571221173144"><ele>101.0</ele><time>2026-04-18T07:47:01.002Z</time></trkpt><trkpt lat="45.44603757416837" lon="9.258505717174758"><ele>101.0</ele><time>2026-04-18T07:47:02.002Z</time></trkpt><trkpt lat="45.445795167497934" lon="9.258434663635976"><ele>101.0</ele><time>2026-04-18T07:47:03.003Z</time></trkpt><trkpt lat="45.44555486712364" lon="9.25836332127217"><ele>96.0</ele><time>2026-04-18T07:47:04.003Z</time></trkpt><trkpt lat="45.445317044482124" lon="9.25829583924133"><ele>91.0</ele><time>2026-04-18T07:47:05.003Z</time></trkpt><trkpt lat="45.4450832195249" lon="9.258230081546177"><ele>91.0</ele><time>2026-04-18T07:47:06.003Z</time></trkpt><trkpt lat="45.44484791518937" lon="9.258166108739612"><ele>91.0</ele><time>2026-04-18T07:47:07.003Z</time></trkpt><trkpt lat="45.444610385605536" lon="9.258098466630079"><ele>92.5</ele><time>2026-04-18T07:47:08.003Z</time></trkpt><trkpt lat="45.44437305118063" lon="9.258028527406038"><ele>94.0</ele><time>2026-04-18T07:47:09.003Z</time></trkpt><trkpt lat="45.444138524809794" lon="9.257964346684295"><ele>94.0</ele><time>2026-04-18T07:47:09.999Z</time></trkpt><trkpt lat="45.44389944072945" lon="9.2578984446412"><ele>94.0</ele><time>2026-04-18T07:47:10.999Z</time></trkpt><trkpt lat="45.443660532976075" lon="9.257833353411767"><ele>95.5</ele><time>2026-04-18T07:47:11.999Z</time></trkpt><trkpt lat="45.443417652559" lon="9.257767155957639"><ele>97.0</ele><time>2026-04-18T07:47:12.999Z</time></trkpt><trkpt lat="45.44317133936663" lon="9.257699162556406"><ele>100.5</ele><time>2026-04-18T07:47:13.999Z</time></trkpt><trkpt lat="45.44292167759217" lon="9.25762866041204"><ele>104.0</ele><time>2026-04-18T07:47:14.999Z</time></trkpt><trkpt lat="45.44267116874066" lon="9.257555469482122"><ele>104.0</ele><time>2026-04-18T07:47:15.999Z</time></trkpt><trkpt lat="45.442419618803285" lon="9.257480164652872"><ele>104.0</ele><time>2026-04-18T07:47:16.999Z</time></trkpt><trkpt lat="45.44216996988551" lon="9.257402835619663"><ele>104.0</ele><time>2026-04-18T07:47:17.999Z</time></trkpt><trkpt lat="45.44192336958211" lon="9.257325169248668"><ele>104.0</ele><time>2026-04-18T07:47:19Z</time></trkpt><trkpt lat="45.4416779931871" lon="9.2572495045669"><ele>104.0</ele><time>2026-04-18T07:47:20Z</time></trkpt><trkpt lat="45.441434786612255" lon="9.257176183266273"><ele>104.0</ele><time>2026-04-18T07:47:21Z</time></trkpt><trkpt lat="45.441190701436255" lon="9.257104656807359"><ele>104.0</ele><time>2026-04-18T07:47:22Z</time></trkpt><trkpt lat="45.44095241442955" lon="9.257035201092568"><ele>104.0</ele><time>2026-04-18T07:47:23Z</time></trkpt><trkpt lat="45.440711690965756" lon="9.256967088122366"><ele>104.0</ele><time>2026-04-18T07:47:24Z</time></trkpt><trkpt lat="45.44047490789447" lon="9.256900840183135"><ele>104.0</ele><time>2026-04-18T07:47:25Z</time></trkpt><trkpt lat="45.44023790458006" lon="9.256831371821056"><ele>104.5</ele><time>2026-04-18T07:47:26Z</time></trkpt><trkpt lat="45.440000040771366" lon="9.256761642435919"><ele>105.0</ele><time>2026-04-18T07:47:27Z</time></trkpt><trkpt lat="45.43976138721519" lon="9.256692310963128"><ele>104.5</ele><time>2026-04-18T07:47:28Z</time></trkpt><trkpt lat="45.43951989304977" lon="9.256623719662983"><ele>104.0</ele><time>2026-04-18T07:47:29Z</time></trkpt><trkpt lat="45.439279521224414" lon="9.25655465610627"><ele>104.0</ele><time>2026-04-18T07:47:30Z</time></trkpt><trkpt lat="45.43903917579146" lon="9.256486283145977"><ele>104.0</ele><time>2026-04-18T07:47:31Z</time></trkpt><trkpt lat="45.43880010080786" lon="9.256420255739656"><ele>104.5</ele><time>2026-04-18T07:47:32Z</time></trkpt><trkpt lat="45.438562404406014" lon="9.256351144148187"><ele>105.0</ele><time>2026-04-18T07:47:33Z</time></trkpt><trkpt lat="45.43832627388443" lon="9.256281647580694"><ele>105.0</ele><time>2026-04-18T07:47:34Z</time></trkpt><trkpt lat="45.43809204489921" lon="9.256211074094654"><ele>105.0</ele><time>2026-04-18T07:47:35Z</time></trkpt><trkpt lat="45.43785734031216" lon="9.25614157722002"><ele>106.5</ele><time>2026-04-18T07:47:36Z</time></trkpt><trkpt lat="45.43762097182174" lon="9.256071697274843"><ele>108.0</ele><time>2026-04-18T07:47:37Z</time></trkpt><trkpt lat="45.43738714233112" lon="9.255999532994279"><ele>108.0</ele><time>2026-04-18T07:47:38Z</time></trkpt><trkpt lat="45.43715153240362" lon="9.25592638041806"><ele>108.0</ele><time>2026-04-18T07:47:39Z</time></trkpt><trkpt lat="45.43691343558021" lon="9.255852424476798"><ele>107.0</ele><time>2026-04-18T07:47:40Z</time></trkpt><trkpt lat="45.43667435680087" lon="9.255777323310017"><ele>106.0</ele><time>2026-04-18T07:47:41Z</time></trkpt><trkpt lat="45.43643179334777" lon="9.255697040845279"><ele>104.5</ele><time>2026-04-18T07:47:42Z</time></trkpt><trkpt lat="45.43618623388869" lon="9.255609279962"><ele>103.0</ele><time>2026-04-18T07:47:43.001Z</time></trkpt><trkpt lat="45.43594009217422" lon="9.255506328386106"><ele>103.0</ele><time>2026-04-18T07:47:44.001Z</time></trkpt><trkpt lat="45.435695094162725" lon="9.255393548025188"><ele>103.0</ele><time>2026-04-18T07:47:45.001Z</time></trkpt><trkpt lat="45.435456587265776" lon="9.255272909708186"><ele>104.5</ele><time>2026-04-18T07:47:46.001Z</time></trkpt><trkpt lat="45.43521437752682" lon="9.25514896003669"><ele>106.0</ele><time>2026-04-18T07:47:47.001Z</time></trkpt><trkpt lat="45.434973061044225" lon="9.255015469628166"><ele>106.0</ele><time>2026-04-18T07:47:48.001Z</time></trkpt><trkpt lat="45.4347435580422" lon="9.254872861801124"><ele>106.0</ele><time>2026-04-18T07:47:49.001Z</time></trkpt><trkpt lat="45.434519945584036" lon="9.254728440425124"><ele>106.5</ele><time>2026-04-18T07:47:50.001Z</time></trkpt><trkpt lat="45.434295213769644" lon="9.254573124799903"><ele>107.0</ele><time>2026-04-18T07:47:51.001Z</time></trkpt><trkpt lat="45.434074512582136" lon="9.254408249714603"><ele>107.0</ele><time>2026-04-18T07:47:52.001Z</time></trkpt><trkpt lat="45.43385626391265" lon="9.254238723880968"><ele>107.0</ele><time>2026-04-18T07:47:53.001Z</time></trkpt><trkpt lat="45.43363969130218" lon="9.25406205210407"><ele>107.0</ele><time>2026-04-18T07:47:54.001Z</time></trkpt><trkpt lat="45.4334278896035" lon="9.25387911096812"><ele>107.0</ele><time>2026-04-18T07:47:55.001Z</time></trkpt><trkpt lat="45.43321868122369" lon="9.253687139687937"><ele>107.0</ele><time>2026-04-18T07:47:56.001Z</time></trkpt><trkpt lat="45.433014946785185" lon="9.253490309044578"><ele>107.0</ele><time>2026-04-18T07:47:57.001Z</time></trkpt><trkpt lat="45.43281225038906" lon="9.253287959779733"><ele>104.5</ele><time>2026-04-18T07:47:58.001Z</time></trkpt><trkpt lat="45.43261641710726" lon="9.253087003283198"><ele>102.0</ele><time>2026-04-18T07:47:59.001Z</time></trkpt><trkpt lat="45.43242504659399" lon="9.252882489325616"><ele>102.0</ele><time>2026-04-18T07:48:00.001Z</time></trkpt><trkpt lat="45.43223879603823" lon="9.252670087545525"><ele>102.0</ele><time>2026-04-18T07:48:01.001Z</time></trkpt><trkpt lat="45.43206113139388" lon="9.252455809727515"><ele>103.5</ele><time>2026-04-18T07:48:02.001Z</time></trkpt><trkpt lat="45.431886559495055" lon="9.252238043835922"><ele>105.0</ele><time>2026-04-18T07:48:03.001Z</time></trkpt><trkpt lat="45.431716313285264" lon="9.252020090200578"><ele>105.0</ele><time>2026-04-18T07:48:04.001Z</time></trkpt><trkpt lat="45.431541908426496" lon="9.251793648023515"><ele>105.0</ele><time>2026-04-18T07:48:05.001Z</time></trkpt><trkpt lat="45.43137010219979" lon="9.251554929403175"><ele>105.5</ele><time>2026-04-18T07:48:06.001Z</time></trkpt><trkpt lat="45.43119976933549" lon="9.251312610207734"><ele>106.0</ele><time>2026-04-18T07:48:07.001Z</time></trkpt><trkpt lat="45.43103097389427" lon="9.251067669757505"><ele>106.0</ele><time>2026-04-18T07:48:08.001Z</time></trkpt><trkpt lat="45.430869889108486" lon="9.250830447199943"><ele>106.0</ele><time>2026-04-18T07:48:09.001Z</time></trkpt><trkpt lat="45.43071165810872" lon="9.250596269985351"><ele>106.5</ele><time>2026-04-18T07:48:10.001Z</time></trkpt><trkpt lat="45.430554385104045" lon="9.250363989758561"><ele>107.0</ele><time>2026-04-18T07:48:11.001Z</time></trkpt><trkpt lat="45.430398304973416" lon="9.250131874224113"><ele>107.0</ele><time>2026-04-18T07:48:12.001Z</time></trkpt><trkpt lat="45.430242268273574" lon="9.249899453310343"><ele>107.0</ele><time>2026-04-18T07:48:13.002Z</time></trkpt><trkpt lat="45.43008849685175" lon="9.249660154565243"><ele>107.0</ele><time>2026-04-18T07:48:14.002Z</time></trkpt><trkpt lat="45.42993818302057" lon="9.249418481931833"><ele>107.0</ele><time>2026-04-18T07:48:15.002Z</time></trkpt><trkpt lat="45.42978746173527" lon="9.249175786368728"><ele>108.0</ele><time>2026-04-18T07:48:16.002Z</time></trkpt><trkpt lat="45.42963984699068" lon="9.248932550379749"><ele>109.0</ele><time>2026-04-18T07:48:17.002Z</time></trkpt><trkpt lat="45.42949481637966" lon="9.248695886598988"><ele>110.0</ele><time>2026-04-18T07:48:18.002Z</time></trkpt><trkpt lat="45.42934580651131" lon="9.248458645067378"><ele>110.0</ele><time>2026-04-18T07:48:19.002Z</time></trkpt><trkpt lat="45.42919620272133" lon="9.248226502160753"><ele>110.0</ele><time>2026-04-18T07:48:20.002Z</time></trkpt><trkpt lat="45.429045862137855" lon="9.247993843228612"><ele>110.0</ele><time>2026-04-18T07:48:21.002Z</time></trkpt><trkpt lat="45.42889885002196" lon="9.24775890731016"><ele>110.33333333333333</ele><time>2026-04-18T07:48:22.002Z</time></trkpt><trkpt lat="45.42875418988228" lon="9.247525503583343"><ele>110.66666666666666</ele><time>2026-04-18T07:48:23.002Z</time></trkpt><trkpt lat="45.42860146852657" lon="9.247302045668825"><ele>111.0</ele><time>2026-04-18T07:48:24.002Z</time></trkpt><trkpt lat="45.42843759253363" lon="9.247088173622684"><ele>111.33333333333334</ele><time>2026-04-18T07:48:25.002Z</time></trkpt><trkpt lat="45.428265382147906" lon="9.246886505130957"><ele>111.66666666666667</ele><time>2026-04-18T07:48:26.002Z</time></trkpt><trkpt lat="45.42808718264902" lon="9.246693656910724"><ele>112.0</ele><time>2026-04-18T07:48:27.002Z</time></trkpt><trkpt lat="45.4278997618811" lon="9.246502934933556"><ele>108.0</ele><time>2026-04-18T07:48:28.002Z</time></trkpt><trkpt lat="45.42770324775784" lon="9.246333279252562"><ele>104.0</ele><time>2026-04-18T07:48:29.002Z</time></trkpt><trkpt lat="45.42750125281812" lon="9.246171964549504"><ele>104.0</ele><time>2026-04-18T07:48:30.002Z</time></trkpt><trkpt lat="45.42729624391645" lon="9.246020338190148"><ele>104.0</ele><time>2026-04-18T07:48:31.002Z</time></trkpt><trkpt lat="45.42708438301332" lon="9.245892377827724"><ele>102.5</ele><time>2026-04-18T07:48:32.002Z</time></trkpt><trkpt lat="45.42686993922211" lon="9.245769762316906"><ele>101.0</ele><time>2026-04-18T07:48:33.002Z</time></trkpt><trkpt lat="45.42665068330129" lon="9.245664799979522"><ele>100.5</ele><time>2026-04-18T07:48:34.002Z</time></trkpt><trkpt lat="45.426428561894824" lon="9.245566371257526"><ele>100.0</ele><time>2026-04-18T07:48:35.002Z</time></trkpt><trkpt lat="45.42620350657447" lon="9.245492610581731"><ele>102.5</ele><time>2026-04-18T07:48:36.002Z</time></trkpt><trkpt lat="45.425976759514" lon="9.245435437867654"><ele>105.0</ele><time>2026-04-18T07:48:37.002Z</time></trkpt><trkpt lat="45.42574758936121" lon="9.24539421081763"><ele>105.0</ele><time>2026-04-18T07:48:38.002Z</time></trkpt><trkpt lat="45.42551573338338" lon="9.245374698567847"><ele>105.0</ele><time>2026-04-18T07:48:39.002Z</time></trkpt><trkpt lat="45.42528327348537" lon="9.245366723867466"><ele>104.5</ele><time>2026-04-18T07:48:40.002Z</time></trkpt><trkpt lat="45.425048930568394" lon="9.245374046591689"><ele>104.0</ele><time>2026-04-18T07:48:41.002Z</time></trkpt><trkpt lat="45.424812337251346" lon="9.245390770883006"><ele>104.0</ele><time>2026-04-18T07:48:42.002Z</time></trkpt><trkpt lat="45.42458191781338" lon="9.245415748455564"><ele>104.0</ele><time>2026-04-18T07:48:43.002Z</time></trkpt><trkpt lat="45.42434955877432" lon="9.245443237501853"><ele>104.0</ele><time>2026-04-18T07:48:44.002Z</time></trkpt><trkpt lat="45.42412001775407" lon="9.245471801728298"><ele>104.0</ele><time>2026-04-18T07:48:45.003Z</time></trkpt><trkpt lat="45.423890147029276" lon="9.245497560279626"><ele>104.33333333333333</ele><time>2026-04-18T07:48:46.003Z</time></trkpt><trkpt lat="45.42366704480282" lon="9.245521881491994"><ele>104.66666666666666</ele><time>2026-04-18T07:48:47.003Z</time></trkpt><trkpt lat="45.423450784711456" lon="9.245549799983662"><ele>105.0</ele><time>2026-04-18T07:48:48.003Z</time></trkpt><trkpt lat="45.42323439122947" lon="9.245576857700152"><ele>105.0</ele><time>2026-04-18T07:48:49.003Z</time></trkpt><trkpt lat="45.42301814874289" lon="9.245605797608402"><ele>105.0</ele><time>2026-04-18T07:48:50.003Z</time></trkpt><trkpt lat="45.422801977587305" lon="9.245634799650023"><ele>105.0</ele><time>2026-04-18T07:48:51.003Z</time></trkpt><trkpt lat="45.42258600601121" lon="9.245663570321614"><ele>105.0</ele><time>2026-04-18T07:48:52.003Z</time></trkpt><trkpt lat="45.42236709090333" lon="9.245688824640728"><ele>105.0</ele><time>2026-04-18T07:48:53.003Z</time></trkpt><trkpt lat="45.42214881804914" lon="9.245712311516302"><ele>105.0</ele><time>2026-04-18T07:48:54.003Z</time></trkpt><trkpt lat="45.421928492327005" lon="9.245736406321253"><ele>105.66666666666666</ele><time>2026-04-18T07:48:55.003Z</time></trkpt><trkpt lat="45.42170621896819" lon="9.245760098350232"><ele>106.33333333333333</ele><time>2026-04-18T07:48:56.003Z</time></trkpt><trkpt lat="45.42148302243788" lon="9.245785952415023"><ele>107.0</ele><time>2026-04-18T07:48:57.003Z</time></trkpt><trkpt lat="45.42126044256362" lon="9.245814390117571"><ele>107.0</ele><time>2026-04-18T07:48:58.003Z</time></trkpt><trkpt lat="45.421037172521" lon="9.245845881716226"><ele>107.0</ele><time>2026-04-18T07:48:59.003Z</time></trkpt><trkpt lat="45.420816065752845" lon="9.245880053204838"><ele>107.0</ele><time>2026-04-18T07:49:00.003Z</time></trkpt><trkpt lat="45.42059437340709" lon="9.245919906078212"><ele>106.33333333333333</ele><time>2026-04-18T07:49:01.003Z</time></trkpt><trkpt lat="45.42037752352043" lon="9.2459665096756"><ele>105.66666666666666</ele><time>2026-04-18T07:49:02.003Z</time></trkpt><trkpt lat="45.420167999411895" lon="9.246022558239138"><ele>105.0</ele><time>2026-04-18T07:49:03.003Z</time></trkpt><trkpt lat="45.41996094462729" lon="9.246082281538982"><ele>105.0</ele><time>2026-04-18T07:49:04.003Z</time></trkpt><trkpt lat="45.41976212657465" lon="9.24614949975793"><ele>105.0</ele><time>2026-04-18T07:49:05.003Z</time></trkpt><trkpt lat="45.419558603876204" lon="9.24622935188484"><ele>105.0</ele><time>2026-04-18T07:49:06.003Z</time></trkpt><trkpt lat="45.41936138768383" lon="9.246314704721671"><ele>105.0</ele><time>2026-04-18T07:49:07.003Z</time></trkpt><trkpt lat="45.419167952089474" lon="9.246418151359403"><ele>105.0</ele><time>2026-04-18T07:49:08.003Z</time></trkpt><trkpt lat="45.41897548288103" lon="9.246534263364634"><ele>105.0</ele><time>2026-04-18T07:49:09.003Z</time></trkpt><trkpt lat="45.41878593331118" lon="9.246655440905636"><ele>103.66666666666666</ele><time>2026-04-18T07:49:10.003Z</time></trkpt><trkpt lat="45.418603164069744" lon="9.246790211067362"><ele>102.33333333333333</ele><time>2026-04-18T07:49:11.003Z</time></trkpt><trkpt lat="45.41842770357193" lon="9.246933963745962"><ele>101.0</ele><time>2026-04-18T07:49:12.003Z</time></trkpt><trkpt lat="45.418249357059196" lon="9.247090307127692"><ele>101.0</ele><time>2026-04-18T07:49:13.003Z</time></trkpt><trkpt lat="45.41807480612714" lon="9.247247477282126"><ele>101.0</ele><time>2026-04-18T07:49:14.003Z</time></trkpt><trkpt lat="45.41790259128843" lon="9.247417677335811"><ele>101.0</ele><time>2026-04-18T07:49:15.003Z</time></trkpt><trkpt lat="45.417735763076195" lon="9.247607198819486"><ele>100.5</ele><time>2026-04-18T07:49:16Z</time></trkpt><trkpt lat="45.417563236025295" lon="9.247831875879774"><ele>100.0</ele><time>2026-04-18T07:49:17Z</time></trkpt><trkpt lat="45.41738913296567" lon="9.248080990752685"><ele>99.0</ele><time>2026-04-18T07:49:18Z</time></trkpt><trkpt lat="45.41720660052487" lon="9.248342257301502"><ele>98.0</ele><time>2026-04-18T07:49:19Z</time></trkpt><trkpt lat="45.41701844482766" lon="9.248625000203495"><ele>100.0</ele><time>2026-04-18T07:49:20Z</time></trkpt><trkpt lat="45.416821444766555" lon="9.248913624315483"><ele>102.0</ele><time>2026-04-18T07:49:21Z</time></trkpt><trkpt lat="45.416620002538316" lon="9.249204659359874"><ele>102.0</ele><time>2026-04-18T07:49:22Z</time></trkpt><trkpt lat="45.41642495765539" lon="9.24948755605006"><ele>102.0</ele><time>2026-04-18T07:49:23Z</time></trkpt><trkpt lat="45.41623931393857" lon="9.249757677809637"><ele>102.5</ele><time>2026-04-18T07:49:24Z</time></trkpt><trkpt lat="45.41606393605548" lon="9.250012439088627"><ele>103.0</ele><time>2026-04-18T07:49:25Z</time></trkpt><trkpt lat="45.415897041288076" lon="9.250256726897454"><ele>103.0</ele><time>2026-04-18T07:49:26Z</time></trkpt><trkpt lat="45.415727230657694" lon="9.250509614225454"><ele>103.0</ele><time>2026-04-18T07:49:27Z</time></trkpt><trkpt lat="45.41555229637572" lon="9.250768839971633"><ele>101.0</ele><time>2026-04-18T07:49:28Z</time></trkpt><trkpt lat="45.41538578457977" lon="9.251018956777344"><ele>99.0</ele><time>2026-04-18T07:49:29Z</time></trkpt><trkpt lat="45.41521616023471" lon="9.251274586308961"><ele>99.0</ele><time>2026-04-18T07:49:30Z</time></trkpt><trkpt lat="45.41504847797755" lon="9.251522174574909"><ele>99.0</ele><time>2026-04-18T07:49:31Z</time></trkpt><trkpt lat="45.41487910885942" lon="9.251772899215293"><ele>99.0</ele><time>2026-04-18T07:49:32Z</time></trkpt><trkpt lat="45.414709236212" lon="9.25202202806894"><ele>99.0</ele><time>2026-04-18T07:49:33Z</time></trkpt><trkpt lat="45.41453508985288" lon="9.25227311913948"><ele>102.5</ele><time>2026-04-18T07:49:34Z</time></trkpt><trkpt lat="45.41436203247304" lon="9.252517812341972"><ele>106.0</ele><time>2026-04-18T07:49:35Z</time></trkpt><trkpt lat="45.41418820018082" lon="9.252762121374023"><ele>106.0</ele><time>2026-04-18T07:49:36Z</time></trkpt><trkpt lat="45.41401283373381" lon="9.25301269426912"><ele>106.0</ele><time>2026-04-18T07:49:37Z</time></trkpt><trkpt lat="45.41383909421009" lon="9.253259495713957"><ele>104.5</ele><time>2026-04-18T07:49:38Z</time></trkpt><trkpt lat="45.41366488736413" lon="9.253499863582544"><ele>103.0</ele><time>2026-04-18T07:49:39Z</time></trkpt><trkpt lat="45.41349104939562" lon="9.253732714362782"><ele>102.0</ele><time>2026-04-18T07:49:40Z</time></trkpt><trkpt lat="45.41332178293896" lon="9.253956611610082"><ele>101.0</ele><time>2026-04-18T07:49:41Z</time></trkpt><trkpt lat="45.413149055449914" lon="9.254185030498391"><ele>99.5</ele><time>2026-04-18T07:49:42Z</time></trkpt><trkpt lat="45.4129737707615" lon="9.254415503195647"><ele>98.0</ele><time>2026-04-18T07:49:43Z</time></trkpt><trkpt lat="45.41279934850486" lon="9.254639229091815"><ele>99.0</ele><time>2026-04-18T07:49:44.001Z</time></trkpt><trkpt lat="45.4126222897951" lon="9.254860540053647"><ele>100.0</ele><time>2026-04-18T07:49:45.001Z</time></trkpt><trkpt lat="45.412442880891746" lon="9.255080081106307"><ele>100.0</ele><time>2026-04-18T07:49:46.001Z</time></trkpt><trkpt lat="45.41226498883574" lon="9.255295514820965"><ele>100.0</ele><time>2026-04-18T07:49:47.001Z</time></trkpt><trkpt lat="45.41208854700936" lon="9.255507275711025"><ele>100.0</ele><time>2026-04-18T07:49:48.001Z</time></trkpt><trkpt lat="45.41191426430482" lon="9.25572014559169"><ele>100.0</ele><time>2026-04-18T07:49:49.001Z</time></trkpt><trkpt lat="45.41173891866786" lon="9.255940629125861"><ele>100.0</ele><time>2026-04-18T07:49:50.001Z</time></trkpt><trkpt lat="45.411567077680914" lon="9.256156767085647"><ele>100.0</ele><time>2026-04-18T07:49:51.001Z</time></trkpt><trkpt lat="45.41139064452068" lon="9.256376496465078"><ele>99.5</ele><time>2026-04-18T07:49:52.001Z</time></trkpt><trkpt lat="45.41121483974868" lon="9.256596738640669"><ele>99.0</ele><time>2026-04-18T07:49:53.001Z</time></trkpt><trkpt lat="45.41103955785904" lon="9.256816681966443"><ele>99.0</ele><time>2026-04-18T07:49:54.001Z</time></trkpt><trkpt lat="45.410862879834916" lon="9.257039556664463"><ele>99.0</ele><time>2026-04-18T07:49:55.001Z</time></trkpt><trkpt lat="45.410686955382296" lon="9.25726099929916"><ele>99.5</ele><time>2026-04-18T07:49:56.001Z</time></trkpt><trkpt lat="45.410509590554426" lon="9.257485061611641"><ele>100.0</ele><time>2026-04-18T07:49:57.001Z</time></trkpt><trkpt lat="45.410331233789336" lon="9.257708750565165"><ele>100.0</ele><time>2026-04-18T07:49:58.001Z</time></trkpt><trkpt lat="45.41015112864793" lon="9.257928486528217"><ele>100.0</ele><time>2026-04-18T07:49:59.001Z</time></trkpt><trkpt lat="45.409974696066385" lon="9.258146882806306"><ele>101.0</ele><time>2026-04-18T07:50:00.001Z</time></trkpt><trkpt lat="45.40979670106885" lon="9.258364716579548"><ele>102.0</ele><time>2026-04-18T07:50:01.001Z</time></trkpt><trkpt lat="45.40962057070897" lon="9.25857600607392"><ele>100.0</ele><time>2026-04-18T07:50:02.001Z</time></trkpt><trkpt lat="45.409444437004574" lon="9.25878915579821"><ele>98.0</ele><time>2026-04-18T07:50:03.001Z</time></trkpt><trkpt lat="45.409272884789296" lon="9.259003797310404"><ele>98.0</ele><time>2026-04-18T07:50:04.001Z</time></trkpt><trkpt lat="45.40910394299498" lon="9.259216859043125"><ele>98.0</ele><time>2026-04-18T07:50:05.001Z</time></trkpt><trkpt lat="45.40893210277199" lon="9.259427304522477"><ele>98.0</ele><time>2026-04-18T07:50:06.001Z</time></trkpt><trkpt lat="45.40876252157934" lon="9.259637267756002"><ele>98.0</ele><time>2026-04-18T07:50:07.001Z</time></trkpt><trkpt lat="45.40858776573076" lon="9.259840565725382"><ele>98.0</ele><time>2026-04-18T07:50:08.001Z</time></trkpt><trkpt lat="45.40841705188732" lon="9.260033642524228"><ele>98.0</ele><time>2026-04-18T07:50:09.001Z</time></trkpt><trkpt lat="45.40823872943131" lon="9.260210212321095"><ele>98.0</ele><time>2026-04-18T07:50:10.001Z</time></trkpt><trkpt lat="45.40805123111675" lon="9.26037280116597"><ele>98.0</ele><time>2026-04-18T07:50:11.001Z</time></trkpt><trkpt lat="45.407857120077416" lon="9.260522250064136"><ele>98.0</ele><time>2026-04-18T07:50:12.001Z</time></trkpt><trkpt lat="45.40765986449881" lon="9.260658523330234"><ele>98.0</ele><time>2026-04-18T07:50:13.001Z</time></trkpt><trkpt lat="45.40745707880834" lon="9.26078485300579"><ele>98.0</ele><time>2026-04-18T07:50:14.001Z</time></trkpt><trkpt lat="45.407252795983396" lon="9.260893340660756"><ele>98.0</ele><time>2026-04-18T07:50:15.001Z</time></trkpt><trkpt lat="45.407044236046374" lon="9.260988864388882"><ele>98.0</ele><time>2026-04-18T07:50:16.001Z</time></trkpt><trkpt lat="45.40683781956176" lon="9.261067192115803"><ele>98.33333333333333</ele><time>2026-04-18T07:50:17.001Z</time></trkpt><trkpt lat="45.40663378609016" lon="9.261130582517074"><ele>98.66666666666666</ele><time>2026-04-18T07:50:18.001Z</time></trkpt><trkpt lat="45.406422463164425" lon="9.261176455824634"><ele>99.0</ele><time>2026-04-18T07:50:19.002Z</time></trkpt><trkpt lat="45.406206537976495" lon="9.261208201374165"><ele>99.33333333333334</ele><time>2026-04-18T07:50:20.002Z</time></trkpt><trkpt lat="45.4059899731048" lon="9.261224123909342"><ele>99.66666666666667</ele><time>2026-04-18T07:50:21.002Z</time></trkpt><trkpt lat="45.40577237456596" lon="9.261227997904575"><ele>100.0</ele><time>2026-04-18T07:50:22.002Z</time></trkpt><trkpt lat="45.40554715984063" lon="9.261219133469686"><ele>99.33333333333334</ele><time>2026-04-18T07:50:23.002Z</time></trkpt><trkpt lat="45.40532523386813" lon="9.261201941077072"><ele>98.66666666666666</ele><time>2026-04-18T07:50:24.002Z</time></trkpt><trkpt lat="45.405103235208685" lon="9.26118348302701"><ele>98.0</ele><time>2026-04-18T07:50:25.002Z</time></trkpt><trkpt lat="45.40488070084314" lon="9.261169039075869"><ele>98.5</ele><time>2026-04-18T07:50:26.002Z</time></trkpt><trkpt lat="45.40465633342033" lon="9.2611512630771"><ele>99.0</ele><time>2026-04-18T07:50:27.002Z</time></trkpt><trkpt lat="45.40442902659359" lon="9.26113430371602"><ele>99.0</ele><time>2026-04-18T07:50:28.002Z</time></trkpt><trkpt lat="45.40419877072349" lon="9.261111949228868"><ele>99.0</ele><time>2026-04-18T07:50:29.002Z</time></trkpt><trkpt lat="45.40396726293195" lon="9.261084184103424"><ele>99.5</ele><time>2026-04-18T07:50:30.002Z</time></trkpt><trkpt lat="45.403732545266784" lon="9.261053787165547"><ele>100.0</ele><time>2026-04-18T07:50:31.002Z</time></trkpt><trkpt lat="45.403496978286995" lon="9.261026338928295"><ele>100.0</ele><time>2026-04-18T07:50:32.002Z</time></trkpt><trkpt lat="45.403258504498815" lon="9.261003404463056"><ele>100.0</ele><time>2026-04-18T07:50:33.002Z</time></trkpt><trkpt lat="45.40301756585588" lon="9.26097453311536"><ele>99.5</ele><time>2026-04-18T07:50:34.002Z</time></trkpt><trkpt lat="45.40277681164478" lon="9.260946829889814"><ele>99.0</ele><time>2026-04-18T07:50:35.002Z</time></trkpt><trkpt lat="45.40253607037436" lon="9.260916672766685"><ele>99.0</ele><time>2026-04-18T07:50:36.002Z</time></trkpt><trkpt lat="45.40229598303978" lon="9.260887889520024"><ele>99.0</ele><time>2026-04-18T07:50:37.002Z</time></trkpt><trkpt lat="45.40205588125115" lon="9.260860937560302"><ele>99.0</ele><time>2026-04-18T07:50:38.002Z</time></trkpt><trkpt lat="45.40181410850113" lon="9.260833922645988"><ele>99.0</ele><time>2026-04-18T07:50:39.002Z</time></trkpt><trkpt lat="45.401572600227624" lon="9.260806249609058"><ele>99.0</ele><time>2026-04-18T07:50:40.002Z</time></trkpt><trkpt lat="45.401337293250265" lon="9.260780202661254"><ele>99.0</ele><time>2026-04-18T07:50:41.002Z</time></trkpt><trkpt lat="45.401107996580826" lon="9.260755211758694"><ele>98.66666666666666</ele><time>2026-04-18T07:50:42.002Z</time></trkpt><trkpt lat="45.400884717087855" lon="9.260730525332793"><ele>98.33333333333333</ele><time>2026-04-18T07:50:43.002Z</time></trkpt><trkpt lat="45.40066536260728" lon="9.260707385045107"><ele>98.0</ele><time>2026-04-18T07:50:44.002Z</time></trkpt><trkpt lat="45.40044587256316" lon="9.260684365246265"><ele>98.0</ele><time>2026-04-18T07:50:45.002Z</time></trkpt><trkpt lat="45.400230692515116" lon="9.260659150778043"><ele>98.0</ele><time>2026-04-18T07:50:46.002Z</time></trkpt><trkpt lat="45.4000098440332" lon="9.260633351614556"><ele>98.0</ele><time>2026-04-18T07:50:47.002Z</time></trkpt><trkpt lat="45.3997908169281" lon="9.260611566431129"><ele>98.66666666666666</ele><time>2026-04-18T07:50:48.002Z</time></trkpt><trkpt lat="45.39957336793582" lon="9.2605884282332"><ele>99.33333333333334</ele><time>2026-04-18T07:50:49.002Z</time></trkpt><trkpt lat="45.39935546666933" lon="9.260566232211923"><ele>100.0</ele><time>2026-04-18T07:50:50.002Z</time></trkpt><trkpt lat="45.39913675788466" lon="9.26054248351952"><ele>100.0</ele><time>2026-04-18T07:50:51.002Z</time></trkpt><trkpt lat="45.398913321353504" lon="9.260516797358854"><ele>100.0</ele><time>2026-04-18T07:50:52.002Z</time></trkpt><trkpt lat="45.39869782186421" lon="9.260491730009983"><ele>100.0</ele><time>2026-04-18T07:50:53.002Z</time></trkpt><trkpt lat="45.398480534788256" lon="9.260463815705219"><ele>100.33333333333334</ele><time>2026-04-18T07:50:54.003Z</time></trkpt><trkpt lat="45.39826284452769" lon="9.260436860689092"><ele>100.66666666666666</ele><time>2026-04-18T07:50:55.003Z</time></trkpt><trkpt lat="45.398045802813115" lon="9.260410982279422"><ele>101.0</ele><time>2026-04-18T07:50:56.003Z</time></trkpt><trkpt lat="45.39783190405531" lon="9.260386981622975"><ele>101.0</ele><time>2026-04-18T07:50:57.003Z</time></trkpt><trkpt lat="45.397617241541774" lon="9.260362799127039"><ele>101.0</ele><time>2026-04-18T07:50:58.003Z</time></trkpt><trkpt lat="45.39740329914628" lon="9.260343912451697"><ele>101.0</ele><time>2026-04-18T07:50:59.003Z</time></trkpt><trkpt lat="45.39719051002026" lon="9.260318261058465"><ele>100.66666666666666</ele><time>2026-04-18T07:51:00.003Z</time></trkpt><trkpt lat="45.39697751341186" lon="9.26029402322309"><ele>100.33333333333334</ele><time>2026-04-18T07:51:01.003Z</time></trkpt><trkpt lat="45.396764650213456" lon="9.260268452506553"><ele>100.0</ele><time>2026-04-18T07:51:02.003Z</time></trkpt><trkpt lat="45.39655300089629" lon="9.260245963296564"><ele>100.0</ele><time>2026-04-18T07:51:03.003Z</time></trkpt><trkpt lat="45.39634192950186" lon="9.260227645339887"><ele>100.0</ele><time>2026-04-18T07:51:04.003Z</time></trkpt><trkpt lat="45.396127160980214" lon="9.260207123181342"><ele>100.0</ele><time>2026-04-18T07:51:05.003Z</time></trkpt><trkpt lat="45.39591673939304" lon="9.260190369380169"><ele>100.0</ele><time>2026-04-18T07:51:06.003Z</time></trkpt><trkpt lat="45.39570852447474" lon="9.260176070800236"><ele>100.0</ele><time>2026-04-18T07:51:07.003Z</time></trkpt><trkpt lat="45.39551018343725" lon="9.26017104194"><ele>100.0</ele><time>2026-04-18T07:51:08.003Z</time></trkpt><trkpt lat="45.39531004953019" lon="9.26016926958192"><ele>100.0</ele><time>2026-04-18T07:51:09.003Z</time></trkpt><trkpt lat="45.395108368814725" lon="9.26017317626004"><ele>100.0</ele><time>2026-04-18T07:51:10.003Z</time></trkpt><trkpt lat="45.39491091136863" lon="9.26018295382046"><ele>100.0</ele><time>2026-04-18T07:51:11.003Z</time></trkpt><trkpt lat="45.39471340495671" lon="9.260194184805997"><ele>100.66666666666667</ele><time>2026-04-18T07:51:12.003Z</time></trkpt><trkpt lat="45.39451354534043" lon="9.260208524153382"><ele>101.33333333333334</ele><time>2026-04-18T07:51:13.003Z</time></trkpt><trkpt lat="45.39431379730803" lon="9.260227365916544"><ele>102.0</ele><time>2026-04-18T07:51:14.003Z</time></trkpt><trkpt lat="45.39412008371186" lon="9.260252604483465"><ele>102.0</ele><time>2026-04-18T07:51:15.003Z</time></trkpt><trkpt lat="45.39393283014786" lon="9.260285618323579"><ele>102.0</ele><time>2026-04-18T07:51:16.003Z</time></trkpt><trkpt lat="45.393751982864266" lon="9.2603243211437"><ele>102.0</ele><time>2026-04-18T07:51:17.003Z</time></trkpt><trkpt lat="45.39358008529163" lon="9.2603638442208"><ele>101.75</ele><time>2026-04-18T07:51:18.003Z</time></trkpt><trkpt lat="45.39341915608307" lon="9.260401502400004"><ele>101.5</ele><time>2026-04-18T07:51:19.003Z</time></trkpt><trkpt lat="45.3932768157136" lon="9.260435784249227"><ele>101.25</ele><time>2026-04-18T07:51:20.003Z</time></trkpt><trkpt lat="45.39314442613366" lon="9.260467468085253"><ele>101.0</ele><time>2026-04-18T07:51:21.003Z</time></trkpt><trkpt lat="45.39302475844172" lon="9.26048476399927"><ele>101.75</ele><time>2026-04-18T07:51:22Z</time></trkpt><trkpt lat="45.39290677730945" lon="9.260489103110682"><ele>102.5</ele><time>2026-04-18T07:51:23Z</time></trkpt><trkpt lat="45.39279983881428" lon="9.260469792470515"><ele>103.25</ele><time>2026-04-18T07:51:24Z</time></trkpt><trkpt lat="45.39269305006724" lon="9.260420828863486"><ele>104.0</ele><time>2026-04-18T07:51:25Z</time></trkpt><trkpt lat="45.39258676807468" lon="9.26034044970298"><ele>104.0</ele><time>2026-04-18T07:51:26Z</time></trkpt><trkpt lat="45.39248132062156" lon="9.260234308338834"><ele>104.0</ele><time>2026-04-18T07:51:27Z</time></trkpt><trkpt lat="45.39239121642455" lon="9.26010037371608"><ele>104.0</ele><time>2026-04-18T07:51:28Z</time></trkpt><trkpt lat="45.3923196095112" lon="9.259931309581054"><ele>104.0</ele><time>2026-04-18T07:51:29Z</time></trkpt><trkpt lat="45.39226434392057" lon="9.259772981773427"><ele>103.75</ele><time>2026-04-18T07:51:30Z</time></trkpt><trkpt lat="45.39222327858347" lon="9.259577532965444"><ele>103.5</ele><time>2026-04-18T07:51:31Z</time></trkpt><trkpt lat="45.392176584091885" lon="9.259382965711595"><ele>103.25</ele><time>2026-04-18T07:51:32Z</time></trkpt><trkpt lat="45.39212709140243" lon="9.259191134191475"><ele>103.0</ele><time>2026-04-18T07:51:33Z</time></trkpt><trkpt lat="45.39208045825932" lon="9.25900818107952"><ele>102.0</ele><time>2026-04-18T07:51:34Z</time></trkpt><trkpt lat="45.39203200093942" lon="9.258826511036158"><ele>101.0</ele><time>2026-04-18T07:51:35Z</time></trkpt><trkpt lat="45.39198514660616" lon="9.258653424677009"><ele>100.0</ele><time>2026-04-18T07:51:36Z</time></trkpt><trkpt lat="45.391941362334315" lon="9.258488199385548"><ele>99.0</ele><time>2026-04-18T07:51:37Z</time></trkpt><trkpt lat="45.391903700095185" lon="9.25833936444142"><ele>99.0</ele><time>2026-04-18T07:51:38Z</time></trkpt><trkpt lat="45.39187557385523" lon="9.258207436835574"><ele>99.0</ele><time>2026-04-18T07:51:39Z</time></trkpt><trkpt lat="45.391860871746744" lon="9.258094601920156"><ele>99.0</ele><time>2026-04-18T07:51:40Z</time></trkpt><trkpt lat="45.39185835537635" lon="9.257991963126576"><ele>99.0</ele><time>2026-04-18T07:51:41Z</time></trkpt><trkpt lat="45.39186221732199" lon="9.257898241011535"><ele>99.0</ele><time>2026-04-18T07:51:42Z</time></trkpt><trkpt lat="45.39185857737349" lon="9.257722756302403"><ele>99.0</ele><time>2026-04-18T07:51:44Z</time></trkpt><trkpt lat="45.39184279989934" lon="9.25762769245528"><ele>98.66666666666667</ele><time>2026-04-18T07:51:45Z</time></trkpt><trkpt lat="45.39180596507699" lon="9.257540329301495"><ele>98.33333333333334</ele><time>2026-04-18T07:51:46Z</time></trkpt><trkpt lat="45.39174909857652" lon="9.257475538090082"><ele>98.0</ele><time>2026-04-18T07:51:47Z</time></trkpt><trkpt lat="45.39168464258757" lon="9.257442310020243"><ele>97.66666666666667</ele><time>2026-04-18T07:51:48Z</time></trkpt><trkpt lat="45.3915734459422" lon="9.257491049125662"><ele>97.33333333333334</ele><time>2026-04-18T07:51:50.001Z</time></trkpt><trkpt lat="45.39150940884023" lon="9.257549197145131"><ele>97.0</ele><time>2026-04-18T07:51:51.001Z</time></trkpt><trkpt lat="45.391446544655764" lon="9.25762213959695"><ele>97.00000000000001</ele><time>2026-04-18T07:51:52.001Z</time></trkpt><trkpt lat="45.39137132456564" lon="9.257696254025117"><ele>97.0</ele><time>2026-04-18T07:51:53.001Z</time></trkpt><trkpt lat="45.391287867247854" lon="9.257758944707412"><ele>97.0</ele><time>2026-04-18T07:51:54.001Z</time></trkpt><trkpt lat="45.39120898047198" lon="9.25778987890957"><ele>97.0</ele><time>2026-04-18T07:51:55.001Z</time></trkpt><trkpt lat="45.391138359489744" lon="9.25781574089226"><ele>97.00000000000001</ele><time>2026-04-18T07:51:56.001Z</time></trkpt><trkpt lat="45.39107322647464" lon="9.257850785311378"><ele>97.0</ele><time>2026-04-18T07:51:57.001Z</time></trkpt><trkpt lat="45.39100110909816" lon="9.257897734886615"><ele>97.6</ele><time>2026-04-18T07:51:58.001Z</time></trkpt><trkpt lat="45.390922214538676" lon="9.25795444140227"><ele>98.19999999999999</ele><time>2026-04-18T07:51:59.001Z</time></trkpt><trkpt lat="45.39083774756605" lon="9.258018173399208"><ele>98.8</ele><time>2026-04-18T07:52:00.001Z</time></trkpt><trkpt lat="45.3907526650385" lon="9.258083098809925"><ele>99.4</ele><time>2026-04-18T07:52:01.001Z</time></trkpt><trkpt lat="45.39066407331584" lon="9.258138351013727"><ele>100.0</ele><time>2026-04-18T07:52:02.001Z</time></trkpt><trkpt lat="45.39057629728429" lon="9.25817380344371"><ele>100.0</ele><time>2026-04-18T07:52:03.001Z</time></trkpt><trkpt lat="45.39047869776271" lon="9.258197119731049"><ele>100.0</ele><time>2026-04-18T07:52:04.001Z</time></trkpt><trkpt lat="45.390372842764634" lon="9.258213825069742"><ele>100.0</ele><time>2026-04-18T07:52:05.001Z</time></trkpt><trkpt lat="45.390260572281086" lon="9.25823773667265"><ele>100.0</ele><time>2026-04-18T07:52:06.001Z</time></trkpt><trkpt lat="45.39014801871971" lon="9.258264887108123"><ele>100.0</ele><time>2026-04-18T07:52:07.001Z</time></trkpt><trkpt lat="45.390029368121766" lon="9.258290772865168"><ele>100.0</ele><time>2026-04-18T07:52:08.001Z</time></trkpt><trkpt lat="45.3899029826258" lon="9.258319907392359"><ele>100.0</ele><time>2026-04-18T07:52:09.001Z</time></trkpt><trkpt lat="45.38977101554247" lon="9.258352759266742"><ele>100.0</ele><time>2026-04-18T07:52:10.001Z</time></trkpt><trkpt lat="45.38963337110715" lon="9.258397433051378"><ele>100.0</ele><time>2026-04-18T07:52:11.001Z</time></trkpt><trkpt lat="45.38949283782178" lon="9.258466800428385"><ele>99.5</ele><time>2026-04-18T07:52:12.001Z</time></trkpt><trkpt lat="45.38935214725183" lon="9.258541043796281"><ele>99.0</ele><time>2026-04-18T07:52:13.001Z</time></trkpt><trkpt lat="45.38921598046393" lon="9.258628599350661"><ele>98.5</ele><time>2026-04-18T07:52:14.001Z</time></trkpt><trkpt lat="45.389087253890644" lon="9.258719609264407"><ele>98.0</ele><time>2026-04-18T07:52:15.001Z</time></trkpt><trkpt lat="45.388965246579254" lon="9.258818507189176"><ele>98.0</ele><time>2026-04-18T07:52:16.001Z</time></trkpt><trkpt lat="45.388849207623146" lon="9.258919082890962"><ele>98.0</ele><time>2026-04-18T07:52:17.001Z</time></trkpt><trkpt lat="45.38873203057524" lon="9.259019351987899"><ele>98.0</ele><time>2026-04-18T07:52:18.001Z</time></trkpt><trkpt lat="45.388613982733744" lon="9.259117248676136"><ele>98.0</ele><time>2026-04-18T07:52:19.001Z</time></trkpt><trkpt lat="45.38849461442812" lon="9.259216539710124"><ele>97.75</ele><time>2026-04-18T07:52:20.001Z</time></trkpt><trkpt lat="45.38837235131889" lon="9.259317561197946"><ele>97.5</ele><time>2026-04-18T07:52:21.001Z</time></trkpt><trkpt lat="45.38825745491808" lon="9.259412260000214"><ele>97.25</ele><time>2026-04-18T07:52:22.001Z</time></trkpt><trkpt lat="45.388143023896475" lon="9.259510806965213"><ele>97.0</ele><time>2026-04-18T07:52:23.001Z</time></trkpt><trkpt lat="45.3880434357614" lon="9.259601609936821"><ele>97.25</ele><time>2026-04-18T07:52:24.001Z</time></trkpt><trkpt lat="45.38794895109515" lon="9.25970360570958"><ele>97.5</ele><time>2026-04-18T07:52:25.001Z</time></trkpt><trkpt lat="45.38786595881882" lon="9.259828427781231"><ele>97.75</ele><time>2026-04-18T07:52:26.001Z</time></trkpt><trkpt lat="45.38780383119933" lon="9.259972872612135"><ele>98.0</ele><time>2026-04-18T07:52:27.002Z</time></trkpt><trkpt lat="45.38775119140533" lon="9.260126620137552"><ele>98.2</ele><time>2026-04-18T07:52:28.002Z</time></trkpt><trkpt lat="45.38770454679264" lon="9.260274993864527"><ele>98.4</ele><time>2026-04-18T07:52:29.002Z</time></trkpt><trkpt lat="45.38766772563058" lon="9.260418731004089"><ele>98.60000000000001</ele><time>2026-04-18T07:52:30.002Z</time></trkpt><trkpt lat="45.38764099478759" lon="9.26055108582801"><ele>98.80000000000001</ele><time>2026-04-18T07:52:31.002Z</time></trkpt><trkpt lat="45.38761419565453" lon="9.260678274480084"><ele>99.0</ele><time>2026-04-18T07:52:32.002Z</time></trkpt><trkpt lat="45.38757246732839" lon="9.260807416859393"><ele>99.0</ele><time>2026-04-18T07:52:33.002Z</time></trkpt><trkpt lat="45.387496769591635" lon="9.26092267730561"><ele>99.0</ele><time>2026-04-18T07:52:34.002Z</time></trkpt><trkpt lat="45.38743414370699" lon="9.261047464011845"><ele>99.0</ele><time>2026-04-18T07:52:35.002Z</time></trkpt><trkpt lat="45.38737157801716" lon="9.26119133878942"><ele>99.0</ele><time>2026-04-18T07:52:36.002Z</time></trkpt><trkpt lat="45.387297315518005" lon="9.261319767308887"><ele>99.0</ele><time>2026-04-18T07:52:37.002Z</time></trkpt><trkpt lat="45.387221914284034" lon="9.261442441960451"><ele>99.0</ele><time>2026-04-18T07:52:38.002Z</time></trkpt><trkpt lat="45.38715193947835" lon="9.261581723113167"><ele>99.0</ele><time>2026-04-18T07:52:39.002Z</time></trkpt><trkpt lat="45.38708841267612" lon="9.26172554627546"><ele>99.0</ele><time>2026-04-18T07:52:40.002Z</time></trkpt><trkpt lat="45.3870283656359" lon="9.261866697087866"><ele>99.0</ele><time>2026-04-18T07:52:41.002Z</time></trkpt><trkpt lat="45.38697038221328" lon="9.262006022068494"><ele>99.0</ele><time>2026-04-18T07:52:42.002Z</time></trkpt><trkpt lat="45.38691415344852" lon="9.262146738903585"><ele>99.0</ele><time>2026-04-18T07:52:43.002Z</time></trkpt><trkpt lat="45.386857235762946" lon="9.262288306037549"><ele>99.0</ele><time>2026-04-18T07:52:44.002Z</time></trkpt><trkpt lat="45.386798681296646" lon="9.262425384929411"><ele>99.0</ele><time>2026-04-18T07:52:45.002Z</time></trkpt><trkpt lat="45.38673591811761" lon="9.262562789129435"><ele>99.0</ele><time>2026-04-18T07:52:46.002Z</time></trkpt><trkpt lat="45.38666347472335" lon="9.262688262205659"><ele>99.0</ele><time>2026-04-18T07:52:47.002Z</time></trkpt><trkpt lat="45.38657670226928" lon="9.262786427204269"><ele>99.0</ele><time>2026-04-18T07:52:48.002Z</time></trkpt><trkpt lat="45.38647655943477" lon="9.262869767362313"><ele>99.0</ele><time>2026-04-18T07:52:49.002Z</time></trkpt><trkpt lat="45.386366206410656" lon="9.262955707644872"><ele>99.0</ele><time>2026-04-18T07:52:50.002Z</time></trkpt><trkpt lat="45.38625670868357" lon="9.26304671741018"><ele>99.0</ele><time>2026-04-18T07:52:51.002Z</time></trkpt><trkpt lat="45.38614645817141" lon="9.263139810785347"><ele>99.0</ele><time>2026-04-18T07:52:52.002Z</time></trkpt><trkpt lat="45.3860295940357" lon="9.263230812623647"><ele>98.75</ele><time>2026-04-18T07:52:53.002Z</time></trkpt><trkpt lat="45.38590439979149" lon="9.263325423520554"><ele>98.5</ele><time>2026-04-18T07:52:54.002Z</time></trkpt><trkpt lat="45.3857754367541" lon="9.26342158038349"><ele>98.25</ele><time>2026-04-18T07:52:55.002Z</time></trkpt><trkpt lat="45.385649621917054" lon="9.263510625836629"><ele>98.0</ele><time>2026-04-18T07:52:56.002Z</time></trkpt><trkpt lat="45.38552706706104" lon="9.263601260018902"><ele>97.75</ele><time>2026-04-18T07:52:57.002Z</time></trkpt><trkpt lat="45.385402902828844" lon="9.263687640936114"><ele>97.5</ele><time>2026-04-18T07:52:58.002Z</time></trkpt><trkpt lat="45.385279706351234" lon="9.263760078431593"><ele>97.25</ele><time>2026-04-18T07:52:59.002Z</time></trkpt><trkpt lat="45.385154999472995" lon="9.26382390604964"><ele>97.0</ele><time>2026-04-18T07:53:00.002Z</time></trkpt><trkpt lat="45.38502576350759" lon="9.26388610250183"><ele>97.0</ele><time>2026-04-18T07:53:01.002Z</time></trkpt><trkpt lat="45.38489824877757" lon="9.263953540456937"><ele>97.0</ele><time>2026-04-18T07:53:02.002Z</time></trkpt><trkpt lat="45.38476843679859" lon="9.264023699487435"><ele>97.0</ele><time>2026-04-18T07:53:03.003Z</time></trkpt><trkpt lat="45.38463633867138" lon="9.26409046072406"><ele>97.0</ele><time>2026-04-18T07:53:04.003Z</time></trkpt><trkpt lat="45.38450909733726" lon="9.26415780989717"><ele>97.0</ele><time>2026-04-18T07:53:05.003Z</time></trkpt><trkpt lat="45.384387566889316" lon="9.264221453549828"><ele>97.0</ele><time>2026-04-18T07:53:06.003Z</time></trkpt><trkpt lat="45.38426154817778" lon="9.264290720798169"><ele>97.0</ele><time>2026-04-18T07:53:07.003Z</time></trkpt><trkpt lat="45.38414163087869" lon="9.264352665668127"><ele>97.0</ele><time>2026-04-18T07:53:08.003Z</time></trkpt><trkpt lat="45.38403228205896" lon="9.26441042486931"><ele>97.0</ele><time>2026-04-18T07:53:09.003Z</time></trkpt><trkpt lat="45.38392508124548" lon="9.26446799776429"><ele>97.0</ele><time>2026-04-18T07:53:10.003Z</time></trkpt><trkpt lat="45.38382472952847" lon="9.264518844604478"><ele>97.0</ele><time>2026-04-18T07:53:11.003Z</time></trkpt><trkpt lat="45.38372144195592" lon="9.264568537097055"><ele>97.0</ele><time>2026-04-18T07:53:12.003Z</time></trkpt><trkpt lat="45.38362314997144" lon="9.264617833344172"><ele>97.0</ele><time>2026-04-18T07:53:13.003Z</time></trkpt><trkpt lat="45.383533205807026" lon="9.26465920342471"><ele>97.33333333333334</ele><time>2026-04-18T07:53:14.003Z</time></trkpt><trkpt lat="45.383450224957784" lon="9.264688435938913"><ele>97.66666666666667</ele><time>2026-04-18T07:53:15.003Z</time></trkpt><trkpt lat="45.38338377088928" lon="9.264731030903933"><ele>98.0</ele><time>2026-04-18T07:53:16.003Z</time></trkpt><trkpt lat="45.38328893999942" lon="9.26471735259971"><ele>98.33333333333334</ele><time>2026-04-18T07:53:18.003Z</time></trkpt><trkpt lat="45.38323474141485" lon="9.264646562278326"><ele>98.66666666666667</ele><time>2026-04-18T07:53:19.003Z</time></trkpt><trkpt lat="45.383159098133376" lon="9.264529460061302"><ele>99.0</ele><time>2026-04-18T07:53:21.003Z</time></trkpt><trkpt lat="45.38322941634654" lon="9.264316450308883"><ele>99.0</ele><time>2026-04-18T07:53:22.003Z</time></trkpt><trkpt lat="45.38321410346891" lon="9.26417795834594"><ele>99.0</ele><time>2026-04-18T07:53:23.003Z</time></trkpt><trkpt lat="45.383263591404074" lon="9.264024813564518"><ele>99.0</ele><time>2026-04-18T07:53:24.003Z</time></trkpt><trkpt lat="45.38327716941341" lon="9.263878781060189"><ele>99.0</ele><time>2026-04-18T07:53:25.003Z</time></trkpt><trkpt lat="45.38327902268477" lon="9.263717584883638"><ele>99.0</ele><time>2026-04-18T07:53:26.003Z</time></trkpt><trkpt lat="45.383260550337496" lon="9.263542159776467"><ele>99.0</ele><time>2026-04-18T07:53:27.003Z</time></trkpt><trkpt lat="45.383223530827046" lon="9.263366071932843"><ele>99.0</ele><time>2026-04-18T07:53:28.001Z</time></trkpt><trkpt lat="45.38316945742949" lon="9.263190473064837"><ele>99.0</ele><time>2026-04-18T07:53:29.001Z</time></trkpt><trkpt lat="45.38310029282286" lon="9.263048037402184"><ele>99.0</ele><time>2026-04-18T07:53:30.001Z</time></trkpt><trkpt lat="45.38301166579052" lon="9.262930874160062"><ele>98.75</ele><time>2026-04-18T07:53:31.001Z</time></trkpt><trkpt lat="45.382908727755925" lon="9.262832050501116"><ele>98.5</ele><time>2026-04-18T07:53:32.001Z</time></trkpt><trkpt lat="45.382787785286254" lon="9.262757988675906"><ele>98.25</ele><time>2026-04-18T07:53:33.001Z</time></trkpt><trkpt lat="45.38265579310631" lon="9.262702286389716"><ele>98.0</ele><time>2026-04-18T07:53:34.001Z</time></trkpt><trkpt lat="45.38251160404276" lon="9.262666200442105"><ele>98.0</ele><time>2026-04-18T07:53:35.001Z</time></trkpt><trkpt lat="45.38236417702896" lon="9.262626925389338"><ele>98.0</ele><time>2026-04-18T07:53:36.001Z</time></trkpt><trkpt lat="45.38221466267835" lon="9.262586935379488"><ele>98.0</ele><time>2026-04-18T07:53:37.001Z</time></trkpt><trkpt lat="45.38206198332496" lon="9.26254959315127"><ele>97.75</ele><time>2026-04-18T07:53:38.001Z</time></trkpt><trkpt lat="45.3819119655945" lon="9.262516661051347"><ele>97.5</ele><time>2026-04-18T07:53:39.001Z</time></trkpt><trkpt lat="45.3817686449397" lon="9.262485791834562"><ele>97.25</ele><time>2026-04-18T07:53:40.001Z</time></trkpt><trkpt lat="45.38162757205588" lon="9.262453664035169"><ele>97.0</ele><time>2026-04-18T07:53:41.001Z</time></trkpt><trkpt lat="45.38149110643847" lon="9.262422080478366"><ele>97.0</ele><time>2026-04-18T07:53:42.001Z</time></trkpt><trkpt lat="45.38135820921351" lon="9.262369843597432"><ele>97.0</ele><time>2026-04-18T07:53:43.001Z</time></trkpt><trkpt lat="45.38121671801437" lon="9.262353560177248"><ele>97.0</ele><time>2026-04-18T07:53:44.001Z</time></trkpt><trkpt lat="45.381080026827455" lon="9.262306338865455"><ele>97.0</ele><time>2026-04-18T07:53:45.001Z</time></trkpt><trkpt lat="45.38092546852979" lon="9.262260381785687"><ele>97.0</ele><time>2026-04-18T07:53:46.001Z</time></trkpt><trkpt lat="45.38076802787122" lon="9.262217759657025"><ele>97.0</ele><time>2026-04-18T07:53:47.001Z</time></trkpt><trkpt lat="45.38060655029905" lon="9.26217581661655"><ele>97.0</ele><time>2026-04-18T07:53:48.001Z</time></trkpt><trkpt lat="45.38043839344517" lon="9.262131832706915"><ele>96.33333333333334</ele><time>2026-04-18T07:53:49.001Z</time></trkpt><trkpt lat="45.38026299580824" lon="9.262085741075596"><ele>95.66666666666667</ele><time>2026-04-18T07:53:50.001Z</time></trkpt><trkpt lat="45.38008002624473" lon="9.262037812396123"><ele>95.0</ele><time>2026-04-18T07:53:51.001Z</time></trkpt><trkpt lat="45.37989892724256" lon="9.261989410922093"><ele>95.0</ele><time>2026-04-18T07:53:52.001Z</time></trkpt><trkpt lat="45.379717374429404" lon="9.261938285094068"><ele>95.0</ele><time>2026-04-18T07:53:53.001Z</time></trkpt><trkpt lat="45.3795390761538" lon="9.261879580371449"><ele>95.0</ele><time>2026-04-18T07:53:54.001Z</time></trkpt><trkpt lat="45.37936625424272" lon="9.26180650250417"><ele>95.0</ele><time>2026-04-18T07:53:55.001Z</time></trkpt><trkpt lat="45.37919610114395" lon="9.261716474096081"><ele>95.0</ele><time>2026-04-18T07:53:56.001Z</time></trkpt><trkpt lat="45.3790285091291" lon="9.261609339638603"><ele>95.0</ele><time>2026-04-18T07:53:57.001Z</time></trkpt><trkpt lat="45.37887028922918" lon="9.261485636912647"><ele>95.33333333333334</ele><time>2026-04-18T07:53:58.001Z</time></trkpt><trkpt lat="45.378715934837736" lon="9.26134366439826"><ele>95.66666666666667</ele><time>2026-04-18T07:53:59.001Z</time></trkpt><trkpt lat="45.378569649149895" lon="9.26118624146384"><ele>96.0</ele><time>2026-04-18T07:54:00.001Z</time></trkpt><trkpt lat="45.378429562772816" lon="9.261016596431212"><ele>96.0</ele><time>2026-04-18T07:54:01.001Z</time></trkpt><trkpt lat="45.37829368501936" lon="9.260830767683021"><ele>96.0</ele><time>2026-04-18T07:54:02.001Z</time></trkpt><trkpt lat="45.378166855190656" lon="9.260630806794826"><ele>96.0</ele><time>2026-04-18T07:54:03.001Z</time></trkpt><trkpt lat="45.37804702657974" lon="9.260420709715017"><ele>96.0</ele><time>2026-04-18T07:54:04.001Z</time></trkpt><trkpt lat="45.37791809670646" lon="9.260201841486717"><ele>96.0</ele><time>2026-04-18T07:54:05.001Z</time></trkpt><trkpt lat="45.377796619447736" lon="9.26000004641257"><ele>96.0</ele><time>2026-04-18T07:54:06.001Z</time></trkpt><trkpt lat="45.377672341647795" lon="9.259793234675827"><ele>95.33333333333333</ele><time>2026-04-18T07:54:07.001Z</time></trkpt><trkpt lat="45.377547591468606" lon="9.259587838153442"><ele>94.66666666666666</ele><time>2026-04-18T07:54:08.001Z</time></trkpt><trkpt lat="45.37741900927999" lon="9.259389263302422"><ele>94.0</ele><time>2026-04-18T07:54:09.001Z</time></trkpt><trkpt lat="45.37728125569192" lon="9.259198521783937"><ele>94.33333333333333</ele><time>2026-04-18T07:54:10.001Z</time></trkpt><trkpt lat="45.37713728823739" lon="9.259025997515275"><ele>94.66666666666667</ele><time>2026-04-18T07:54:11.001Z</time></trkpt><trkpt lat="45.37698330123335" lon="9.258868412855106"><ele>95.0</ele><time>2026-04-18T07:54:12.001Z</time></trkpt><trkpt lat="45.3768207065896" lon="9.258722293103549"><ele>95.0</ele><time>2026-04-18T07:54:13.001Z</time></trkpt><trkpt lat="45.376650333064745" lon="9.258593170637653"><ele>95.0</ele><time>2026-04-18T07:54:14.001Z</time></trkpt><trkpt lat="45.376478492560985" lon="9.258485253173163"><ele>95.0</ele><time>2026-04-18T07:54:15.001Z</time></trkpt><trkpt lat="45.37629033400641" lon="9.258383495898435"><ele>95.66666666666667</ele><time>2026-04-18T07:54:16.001Z</time></trkpt><trkpt lat="45.37610148406131" lon="9.258308950791301"><ele>96.33333333333334</ele><time>2026-04-18T07:54:17.001Z</time></trkpt><trkpt lat="45.37591043829896" lon="9.258253290142243"><ele>97.0</ele><time>2026-04-18T07:54:18.001Z</time></trkpt><trkpt lat="45.37571592270211" lon="9.25821736603048"><ele>96.66666666666667</ele><time>2026-04-18T07:54:19.001Z</time></trkpt><trkpt lat="45.3755195400842" lon="9.258202535149637"><ele>96.33333333333334</ele><time>2026-04-18T07:54:20.001Z</time></trkpt><trkpt lat="45.3753223770765" lon="9.258199083703976"><ele>96.0</ele><time>2026-04-18T07:54:21.001Z</time></trkpt><trkpt lat="45.37512294561415" lon="9.258197457375969"><ele>96.0</ele><time>2026-04-18T07:54:22.001Z</time></trkpt><trkpt lat="45.37492207217932" lon="9.258189635797363"><ele>96.0</ele><time>2026-04-18T07:54:23.001Z</time></trkpt><trkpt lat="45.37472091166381" lon="9.258181426328392"><ele>96.0</ele><time>2026-04-18T07:54:24.001Z</time></trkpt><trkpt lat="45.37451773590046" lon="9.258177605390454"><ele>95.33333333333333</ele><time>2026-04-18T07:54:25.001Z</time></trkpt><trkpt lat="45.37431372125038" lon="9.25817244047456"><ele>94.66666666666666</ele><time>2026-04-18T07:54:26.001Z</time></trkpt><trkpt lat="45.374109838916375" lon="9.25817081311124"><ele>94.0</ele><time>2026-04-18T07:54:27.001Z</time></trkpt><trkpt lat="45.373912224668885" lon="9.258159700417282"><ele>94.0</ele><time>2026-04-18T07:54:28.001Z</time></trkpt><trkpt lat="45.373712642283294" lon="9.25813858628815"><ele>94.0</ele><time>2026-04-18T07:54:29.001Z</time></trkpt><trkpt lat="45.37351690632351" lon="9.258103033373235"><ele>94.0</ele><time>2026-04-18T07:54:30.001Z</time></trkpt><trkpt lat="45.373325362128654" lon="9.258044992683004"><ele>94.0</ele><time>2026-04-18T07:54:31.002Z</time></trkpt><trkpt lat="45.37313986989488" lon="9.257974373708011"><ele>94.0</ele><time>2026-04-18T07:54:32.002Z</time></trkpt><trkpt lat="45.37295046244725" lon="9.257897568172384"><ele>94.0</ele><time>2026-04-18T07:54:33.002Z</time></trkpt><trkpt lat="45.372765446235555" lon="9.257802521707893"><ele>94.33333333333333</ele><time>2026-04-18T07:54:34.002Z</time></trkpt><trkpt lat="45.37258777086021" lon="9.25769257908475"><ele>94.66666666666667</ele><time>2026-04-18T07:54:35.002Z</time></trkpt><trkpt lat="45.37241418786422" lon="9.257571366337464"><ele>95.0</ele><time>2026-04-18T07:54:36.002Z</time></trkpt><trkpt lat="45.37224422377491" lon="9.257426383518592"><ele>94.33333333333334</ele><time>2026-04-18T07:54:37.002Z</time></trkpt><trkpt lat="45.37207992707075" lon="9.257274813175673"><ele>93.66666666666667</ele><time>2026-04-18T07:54:38.002Z</time></trkpt><trkpt lat="45.37192160380953" lon="9.257110009901602"><ele>93.0</ele><time>2026-04-18T07:54:39.002Z</time></trkpt><trkpt lat="45.371764968298194" lon="9.256936486540411"><ele>93.0</ele><time>2026-04-18T07:54:40.002Z</time></trkpt><trkpt lat="45.37161869518282" lon="9.256749386050949"><ele>93.0</ele><time>2026-04-18T07:54:41.002Z</time></trkpt><trkpt lat="45.371477958055685" lon="9.256550092461627"><ele>93.0</ele><time>2026-04-18T07:54:42.002Z</time></trkpt><trkpt lat="45.371350064966926" lon="9.256341315250713"><ele>93.33333333333333</ele><time>2026-04-18T07:54:43.002Z</time></trkpt><trkpt lat="45.371229904097575" lon="9.256117281093703"><ele>93.66666666666666</ele><time>2026-04-18T07:54:44.002Z</time></trkpt><trkpt lat="45.37111476288268" lon="9.255888488453518"><ele>94.0</ele><time>2026-04-18T07:54:45.002Z</time></trkpt><trkpt lat="45.371000171267355" lon="9.255662078890884"><ele>94.66666666666666</ele><time>2026-04-18T07:54:46.002Z</time></trkpt><trkpt lat="45.37088356991722" lon="9.255438169866503"><ele>95.33333333333333</ele><time>2026-04-18T07:54:47.002Z</time></trkpt><trkpt lat="45.370769010012815" lon="9.255217742699765"><ele>96.0</ele><time>2026-04-18T07:54:48.002Z</time></trkpt><trkpt lat="45.37065712922242" lon="9.255002345567457"><ele>96.0</ele><time>2026-04-18T07:54:49.002Z</time></trkpt><trkpt lat="45.37054190240205" lon="9.254782659539027"><ele>96.0</ele><time>2026-04-18T07:54:50.002Z</time></trkpt><trkpt lat="45.37042681086008" lon="9.254565218174074"><ele>96.0</ele><time>2026-04-18T07:54:51.002Z</time></trkpt><trkpt lat="45.37031253907204" lon="9.254352130956129"><ele>95.66666666666667</ele><time>2026-04-18T07:54:52.002Z</time></trkpt><trkpt lat="45.37020424224564" lon="9.254139340237833"><ele>95.33333333333334</ele><time>2026-04-18T07:54:53.002Z</time></trkpt><trkpt lat="45.37009780666384" lon="9.253933342156222"><ele>95.0</ele><time>2026-04-18T07:54:54.002Z</time></trkpt><trkpt lat="45.369991053413486" lon="9.25372477081046"><ele>95.0</ele><time>2026-04-18T07:54:55.002Z</time></trkpt><trkpt lat="45.36988352512177" lon="9.253525614109757"><ele>95.0</ele><time>2026-04-18T07:54:56.002Z</time></trkpt><trkpt lat="45.369778682691276" lon="9.25332552574102"><ele>95.0</ele><time>2026-04-18T07:54:57.002Z</time></trkpt><trkpt lat="45.3696745917655" lon="9.253123961595945"><ele>95.33333333333334</ele><time>2026-04-18T07:54:58.002Z</time></trkpt><trkpt lat="45.36957277654431" lon="9.252923392205394"><ele>95.66666666666667</ele><time>2026-04-18T07:54:59.002Z</time></trkpt><trkpt lat="45.369472380724794" lon="9.252726218091903"><ele>96.0</ele><time>2026-04-18T07:55:00.002Z</time></trkpt><trkpt lat="45.369367624315515" lon="9.25252670803128"><ele>96.0</ele><time>2026-04-18T07:55:01.002Z</time></trkpt><trkpt lat="45.3692660352424" lon="9.252332370293832"><ele>96.0</ele><time>2026-04-18T07:55:02.002Z</time></trkpt><trkpt lat="45.369161844624664" lon="9.252132479936874"><ele>96.0</ele><time>2026-04-18T07:55:03.002Z</time></trkpt><trkpt lat="45.36906090889577" lon="9.251935204514234"><ele>95.33333333333333</ele><time>2026-04-18T07:55:04.002Z</time></trkpt><trkpt lat="45.3689602675881" lon="9.251741586399556"><ele>94.66666666666666</ele><time>2026-04-18T07:55:05.002Z</time></trkpt><trkpt lat="45.36885705379634" lon="9.251548086728619"><ele>94.0</ele><time>2026-04-18T07:55:06.002Z</time></trkpt><trkpt lat="45.36875693035016" lon="9.251355191027299"><ele>94.0</ele><time>2026-04-18T07:55:07.002Z</time></trkpt><trkpt lat="45.368656977776126" lon="9.251162182497604"><ele>94.0</ele><time>2026-04-18T07:55:08.002Z</time></trkpt><trkpt lat="45.36855965847038" lon="9.250973221409556"><ele>94.0</ele><time>2026-04-18T07:55:09.002Z</time></trkpt><trkpt lat="45.3684646585922" lon="9.250792510801512"><ele>94.0</ele><time>2026-04-18T07:55:10.003Z</time></trkpt><trkpt lat="45.368379309991774" lon="9.2506161131666"><ele>94.0</ele><time>2026-04-18T07:55:11.003Z</time></trkpt><trkpt lat="45.36829213110279" lon="9.250452116015653"><ele>94.0</ele><time>2026-04-18T07:55:12.003Z</time></trkpt><trkpt lat="45.36820499167083" lon="9.250294624730781"><ele>94.0</ele><time>2026-04-18T07:55:13.003Z</time></trkpt><trkpt lat="45.36809028946127" lon="9.250134570794192"><ele>94.66666666666666</ele><time>2026-04-18T07:55:14.003Z</time></trkpt><trkpt lat="45.367933552160736" lon="9.249954790251167"><ele>95.33333333333333</ele><time>2026-04-18T07:55:15.003Z</time></trkpt><trkpt lat="45.36778974045172" lon="9.24979381148001"><ele>96.0</ele><time>2026-04-18T07:55:16.003Z</time></trkpt><trkpt lat="45.36765600802077" lon="9.249648814824292"><ele>96.0</ele><time>2026-04-18T07:55:17.003Z</time></trkpt><trkpt lat="45.3675228243159" lon="9.249510207685391"><ele>96.0</ele><time>2026-04-18T07:55:18.003Z</time></trkpt><trkpt lat="45.367387174637244" lon="9.249375177164584"><ele>96.0</ele><time>2026-04-18T07:55:19.003Z</time></trkpt><trkpt lat="45.36724985197755" lon="9.249254630359774"><ele>95.33333333333333</ele><time>2026-04-18T07:55:20.003Z</time></trkpt><trkpt lat="45.36711232438003" lon="9.249141224541853"><ele>94.66666666666666</ele><time>2026-04-18T07:55:21.003Z</time></trkpt><trkpt lat="45.36697132764517" lon="9.249036291039712"><ele>94.0</ele><time>2026-04-18T07:55:22.003Z</time></trkpt><trkpt lat="45.36682234366609" lon="9.248944066710708"><ele>93.33333333333333</ele><time>2026-04-18T07:55:23.003Z</time></trkpt><trkpt lat="45.36667325308447" lon="9.24885242897687"><ele>92.66666666666667</ele><time>2026-04-18T07:55:24.003Z</time></trkpt><trkpt lat="45.366528885902476" lon="9.248763433479906"><ele>92.0</ele><time>2026-04-18T07:55:25.003Z</time></trkpt><trkpt lat="45.36637906956854" lon="9.24867141093096"><ele>92.33333333333334</ele><time>2026-04-18T07:55:26.003Z</time></trkpt><trkpt lat="45.36623121001273" lon="9.248553197554468"><ele>92.66666666666667</ele><time>2026-04-18T07:55:27.003Z</time></trkpt><trkpt lat="45.36607868592627" lon="9.248455537301801"><ele>93.0</ele><time>2026-04-18T07:55:28.003Z</time></trkpt><trkpt lat="45.36593237384005" lon="9.248362629643644"><ele>93.0</ele><time>2026-04-18T07:55:29.003Z</time></trkpt><trkpt lat="45.365796682813496" lon="9.248276906323746"><ele>93.0</ele><time>2026-04-18T07:55:30.003Z</time></trkpt><trkpt lat="45.36566524710467" lon="9.2482144734239"><ele>93.0</ele><time>2026-04-18T07:55:31.003Z</time></trkpt><trkpt lat="45.365537483500454" lon="9.248130456103452"><ele>93.0</ele><time>2026-04-18T07:55:32.003Z</time></trkpt><trkpt lat="45.365397973686335" lon="9.248043186514556"><ele>93.66666666666667</ele><time>2026-04-18T07:55:33.003Z</time></trkpt><trkpt lat="45.36524811426003" lon="9.247944408724637"><ele>94.33333333333334</ele><time>2026-04-18T07:55:34.001Z</time></trkpt><trkpt lat="45.365096286811834" lon="9.247841483569745"><ele>95.0</ele><time>2026-04-18T07:55:35.001Z</time></trkpt><trkpt lat="45.36494645733777" lon="9.247740904922384"><ele>95.0</ele><time>2026-04-18T07:55:36.001Z</time></trkpt><trkpt lat="45.364806119986426" lon="9.247648802626184"><ele>95.0</ele><time>2026-04-18T07:55:37.001Z</time></trkpt><trkpt lat="45.36466750207582" lon="9.24755624541591"><ele>95.0</ele><time>2026-04-18T07:55:38.001Z</time></trkpt><trkpt lat="45.36452510545448" lon="9.24746333943345"><ele>94.33333333333334</ele><time>2026-04-18T07:55:39.001Z</time></trkpt><trkpt lat="45.364386264936286" lon="9.247364872895625"><ele>93.66666666666667</ele><time>2026-04-18T07:55:40.001Z</time></trkpt><trkpt lat="45.36425390971186" lon="9.247256137214592"><ele>93.0</ele><time>2026-04-18T07:55:41.001Z</time></trkpt><trkpt lat="45.36413063705576" lon="9.247136068185492"><ele>93.0</ele><time>2026-04-18T07:55:42.001Z</time></trkpt><trkpt lat="45.36400370457052" lon="9.247008180024467"><ele>93.0</ele><time>2026-04-18T07:55:43.001Z</time></trkpt><trkpt lat="45.36387695555509" lon="9.246866427191419"><ele>93.0</ele><time>2026-04-18T07:55:44.001Z</time></trkpt><trkpt lat="45.36376055540658" lon="9.246703465834788"><ele>93.0</ele><time>2026-04-18T07:55:45.001Z</time></trkpt><trkpt lat="45.36364122212699" lon="9.246537730340824"><ele>93.0</ele><time>2026-04-18T07:55:46.001Z</time></trkpt><trkpt lat="45.363530078056314" lon="9.246372895347953"><ele>93.0</ele><time>2026-04-18T07:55:47.001Z</time></trkpt><trkpt lat="45.36343112219295" lon="9.24620464196153"><ele>93.0</ele><time>2026-04-18T07:55:48.001Z</time></trkpt><trkpt lat="45.36334265900188" lon="9.24603259005497"><ele>93.0</ele><time>2026-04-18T07:55:49.001Z</time></trkpt><trkpt lat="45.36325826211079" lon="9.24584955074781"><ele>93.0</ele><time>2026-04-18T07:55:50.001Z</time></trkpt><trkpt lat="45.36318083458704" lon="9.245661913462193"><ele>93.0</ele><time>2026-04-18T07:55:51.001Z</time></trkpt><trkpt lat="45.36311392957328" lon="9.245480559331842"><ele>93.0</ele><time>2026-04-18T07:55:52.001Z</time></trkpt><trkpt lat="45.36305279816302" lon="9.245300841049945"><ele>93.0</ele><time>2026-04-18T07:55:53.001Z</time></trkpt><trkpt lat="45.362993801688624" lon="9.245121130793574"><ele>93.0</ele><time>2026-04-18T07:55:54.001Z</time></trkpt><trkpt lat="45.362940810534454" lon="9.244952113190031"><ele>93.25</ele><time>2026-04-18T07:55:55.001Z</time></trkpt><trkpt lat="45.36289407626288" lon="9.244791743922843"><ele>93.5</ele><time>2026-04-18T07:55:56.001Z</time></trkpt><trkpt lat="45.36284267459988" lon="9.244632953685613"><ele>93.75</ele><time>2026-04-18T07:55:57.001Z</time></trkpt><trkpt lat="45.36278406823398" lon="9.244459640770113"><ele>94.0</ele><time>2026-04-18T07:55:58.001Z</time></trkpt><trkpt lat="45.362725127895445" lon="9.244273634967332"><ele>94.0</ele><time>2026-04-18T07:55:59.001Z</time></trkpt><trkpt lat="45.362666016251566" lon="9.24407222214998"><ele>94.0</ele><time>2026-04-18T07:56:00.001Z</time></trkpt><trkpt lat="45.36260121370211" lon="9.243867184680106"><ele>94.0</ele><time>2026-04-18T07:56:01.001Z</time></trkpt><trkpt lat="45.362541836136565" lon="9.243661639835343"><ele>94.0</ele><time>2026-04-18T07:56:02.001Z</time></trkpt><trkpt lat="45.36247813627707" lon="9.243456700893246"><ele>94.0</ele><time>2026-04-18T07:56:03.001Z</time></trkpt><trkpt lat="45.36241850626694" lon="9.243257400043579"><ele>94.0</ele><time>2026-04-18T07:56:04.001Z</time></trkpt><trkpt lat="45.362364249290586" lon="9.243068294568827"><ele>94.0</ele><time>2026-04-18T07:56:05.001Z</time></trkpt><trkpt lat="45.36230977285411" lon="9.242890778226093"><ele>94.0</ele><time>2026-04-18T07:56:06.001Z</time></trkpt><trkpt lat="45.362254962781414" lon="9.242709933157238"><ele>94.0</ele><time>2026-04-18T07:56:07.001Z</time></trkpt><trkpt lat="45.36219986674794" lon="9.2425216023191"><ele>94.0</ele><time>2026-04-18T07:56:08.001Z</time></trkpt><trkpt lat="45.362134611458224" lon="9.242324090515842"><ele>94.0</ele><time>2026-04-18T07:56:09.001Z</time></trkpt><trkpt lat="45.3620623333039" lon="9.242110689564694"><ele>94.0</ele><time>2026-04-18T07:56:10.001Z</time></trkpt><trkpt lat="45.361994762786225" lon="9.24187772952584"><ele>94.0</ele><time>2026-04-18T07:56:11.001Z</time></trkpt><trkpt lat="45.36193148403854" lon="9.24162610270666"><ele>94.33333333333333</ele><time>2026-04-18T07:56:12.001Z</time></trkpt><trkpt lat="45.3618640916642" lon="9.241376240855484"><ele>94.66666666666667</ele><time>2026-04-18T07:56:13.001Z</time></trkpt><trkpt lat="45.361790155369626" lon="9.241126963107275"><ele>95.0</ele><time>2026-04-18T07:56:14.001Z</time></trkpt><trkpt lat="45.36171634483225" lon="9.240881186734265"><ele>95.0</ele><time>2026-04-18T07:56:15.001Z</time></trkpt><trkpt lat="45.3616464570499" lon="9.240633522124796"><ele>95.0</ele><time>2026-04-18T07:56:16.001Z</time></trkpt><trkpt lat="45.36159191647737" lon="9.240392122717328"><ele>95.0</ele><time>2026-04-18T07:56:17.001Z</time></trkpt><trkpt lat="45.36155039217368" lon="9.24015640811142"><ele>94.66666666666667</ele><time>2026-04-18T07:56:18.001Z</time></trkpt><trkpt lat="45.361517883448215" lon="9.239924679125513"><ele>94.33333333333333</ele><time>2026-04-18T07:56:19.001Z</time></trkpt><trkpt lat="45.36149900712283" lon="9.239699699129737"><ele>94.0</ele><time>2026-04-18T07:56:20.001Z</time></trkpt><trkpt lat="45.36148975863136" lon="9.239468650561369"><ele>93.66666666666666</ele><time>2026-04-18T07:56:21.001Z</time></trkpt><trkpt lat="45.361490865559496" lon="9.23923796075518"><ele>93.33333333333333</ele><time>2026-04-18T07:56:22.001Z</time></trkpt><trkpt lat="45.361496956713744" lon="9.239004667460046"><ele>93.0</ele><time>2026-04-18T07:56:23.001Z</time></trkpt><trkpt lat="45.361512619911" lon="9.23877872762814"><ele>92.75</ele><time>2026-04-18T07:56:24.001Z</time></trkpt><trkpt lat="45.361530018738705" lon="9.238562127572054"><ele>92.5</ele><time>2026-04-18T07:56:25.001Z</time></trkpt><trkpt lat="45.36154570183757" lon="9.238354794046819"><ele>92.25</ele><time>2026-04-18T07:56:26.001Z</time></trkpt><trkpt lat="45.361557976721755" lon="9.238159619825558"><ele>92.0</ele><time>2026-04-18T07:56:27.001Z</time></trkpt><trkpt lat="45.36157360045266" lon="9.237971436617343"><ele>92.0</ele><time>2026-04-18T07:56:28.001Z</time></trkpt><trkpt lat="45.36159051551458" lon="9.237781295408473"><ele>92.0</ele><time>2026-04-18T07:56:29.001Z</time></trkpt><trkpt lat="45.36160573743025" lon="9.237593394956104"><ele>92.0</ele><time>2026-04-18T07:56:30.001Z</time></trkpt><trkpt lat="45.36162181252184" lon="9.23740894843844"><ele>92.0</ele><time>2026-04-18T07:56:31.001Z</time></trkpt><trkpt lat="45.36163711478547" lon="9.237222299398415"><ele>92.5</ele><time>2026-04-18T07:56:32.001Z</time></trkpt><trkpt lat="45.361654031905175" lon="9.237042218737228"><ele>93.0</ele><time>2026-04-18T07:56:33.001Z</time></trkpt><trkpt lat="45.36167353889481" lon="9.23687030162303"><ele>93.5</ele><time>2026-04-18T07:56:34.001Z</time></trkpt><trkpt lat="45.361700520503405" lon="9.236714522250502"><ele>94.0</ele><time>2026-04-18T07:56:35.001Z</time></trkpt><trkpt lat="45.361732401644" lon="9.23658716363179"><ele>94.0</ele><time>2026-04-18T07:56:36.001Z</time></trkpt><trkpt lat="45.36177539624384" lon="9.236487094752395"><ele>94.0</ele><time>2026-04-18T07:56:37.002Z</time></trkpt><trkpt lat="45.361828997931674" lon="9.236422204260549"><ele>94.0</ele><time>2026-04-18T07:56:38.002Z</time></trkpt><trkpt lat="45.36188280974406" lon="9.236373196689636"><ele>94.0</ele><time>2026-04-18T07:56:39.002Z</time></trkpt><trkpt lat="45.36194655924009" lon="9.236323756730767"><ele>94.0</ele><time>2026-04-18T07:56:40.002Z</time></trkpt><trkpt lat="45.362010296601895" lon="9.23625188829589"><ele>94.0</ele><time>2026-04-18T07:56:41.002Z</time></trkpt><trkpt lat="45.3620578819033" lon="9.236161598890158"><ele>94.0</ele><time>2026-04-18T07:56:42.002Z</time></trkpt><trkpt lat="45.362081668234154" lon="9.236058197479691"><ele>94.0</ele><time>2026-04-18T07:56:43.002Z</time></trkpt><trkpt lat="45.36208264226689" lon="9.235944106176332"><ele>94.0</ele><time>2026-04-18T07:56:44.002Z</time></trkpt><trkpt lat="45.36206217995865" lon="9.235826703993816"><ele>94.0</ele><time>2026-04-18T07:56:45.002Z</time></trkpt><trkpt lat="45.36203647928921" lon="9.235699432197427"><ele>94.0</ele><time>2026-04-18T07:56:46.002Z</time></trkpt><trkpt lat="45.36209053114229" lon="9.23552957410819"><ele>94.0</ele><time>2026-04-18T07:56:47.002Z</time></trkpt><trkpt lat="45.36210018546715" lon="9.23536979053507"><ele>94.0</ele><time>2026-04-18T07:56:48.002Z</time></trkpt><trkpt lat="45.36209749517103" lon="9.235197735256918"><ele>94.0</ele><time>2026-04-18T07:56:49.002Z</time></trkpt><trkpt lat="45.362086898304106" lon="9.2350184182835"><ele>94.0</ele><time>2026-04-18T07:56:50.002Z</time></trkpt><trkpt lat="45.3620760132651" lon="9.234836027478911"><ele>93.75</ele><time>2026-04-18T07:56:51.002Z</time></trkpt><trkpt lat="45.362062715904706" lon="9.23465482801207"><ele>93.5</ele><time>2026-04-18T07:56:52.002Z</time></trkpt><trkpt lat="45.36204598140995" lon="9.234479043612186"><ele>93.25</ele><time>2026-04-18T07:56:53.002Z</time></trkpt><trkpt lat="45.36202739924979" lon="9.234310449967099"><ele>93.0</ele><time>2026-04-18T07:56:54.002Z</time></trkpt><trkpt lat="45.36200793687185" lon="9.234135658878987"><ele>93.5</ele><time>2026-04-18T07:56:55.002Z</time></trkpt><trkpt lat="45.36198746184397" lon="9.233958251204047"><ele>94.0</ele><time>2026-04-18T07:56:56.002Z</time></trkpt><trkpt lat="45.36196504432359" lon="9.233776643989907"><ele>94.5</ele><time>2026-04-18T07:56:57.002Z</time></trkpt><trkpt lat="45.36194105128093" lon="9.233598141217684"><ele>95.0</ele><time>2026-04-18T07:56:58.002Z</time></trkpt><trkpt lat="45.36191494702713" lon="9.233418360636978"><ele>95.0</ele><time>2026-04-18T07:56:59.002Z</time></trkpt><trkpt lat="45.36188742399158" lon="9.233245196243068"><ele>95.0</ele><time>2026-04-18T07:57:00.002Z</time></trkpt><trkpt lat="45.36185841213756" lon="9.2330726458752"><ele>95.0</ele><time>2026-04-18T07:57:01.002Z</time></trkpt><trkpt lat="45.36182797854161" lon="9.232898558910772"><ele>95.0</ele><time>2026-04-18T07:57:02.002Z</time></trkpt><trkpt lat="45.3617987260881" lon="9.232725692068934"><ele>94.75</ele><time>2026-04-18T07:57:03.002Z</time></trkpt><trkpt lat="45.36176804027938" lon="9.232557226340573"><ele>94.5</ele><time>2026-04-18T07:57:04.002Z</time></trkpt><trkpt lat="45.36173809660233" lon="9.232393514917074"><ele>94.25</ele><time>2026-04-18T07:57:05.002Z</time></trkpt><trkpt lat="45.36170429416559" lon="9.232231006450343"><ele>94.0</ele><time>2026-04-18T07:57:06.002Z</time></trkpt><trkpt lat="45.36167005098262" lon="9.23206755400328"><ele>94.0</ele><time>2026-04-18T07:57:07.002Z</time></trkpt><trkpt lat="45.36163481833707" lon="9.231912652931973"><ele>94.0</ele><time>2026-04-18T07:57:08.002Z</time></trkpt><trkpt lat="45.361599916334804" lon="9.231762708606187"><ele>94.0</ele><time>2026-04-18T07:57:09.002Z</time></trkpt><trkpt lat="45.3615615978596" lon="9.23161187622551"><ele>94.0</ele><time>2026-04-18T07:57:10.002Z</time></trkpt><trkpt lat="45.3615269550543" lon="9.231470183932263"><ele>94.0</ele><time>2026-04-18T07:57:11.002Z</time></trkpt><trkpt lat="45.36149605977006" lon="9.23134074921868"><ele>94.2</ele><time>2026-04-18T07:57:12.002Z</time></trkpt><trkpt lat="45.361467070761016" lon="9.231215674314639"><ele>94.4</ele><time>2026-04-18T07:57:13.002Z</time></trkpt><trkpt lat="45.36143618143876" lon="9.231086187746984"><ele>94.6</ele><time>2026-04-18T07:57:14.002Z</time></trkpt><trkpt lat="45.361403296547934" lon="9.230952418845524"><ele>94.8</ele><time>2026-04-18T07:57:15.002Z</time></trkpt><trkpt lat="45.361370435358964" lon="9.230821119583364"><ele>95.0</ele><time>2026-04-18T07:57:16.002Z</time></trkpt><trkpt lat="45.36133868360847" lon="9.2306980589999"><ele>95.16666666666667</ele><time>2026-04-18T07:57:17.002Z</time></trkpt><trkpt lat="45.361308392960126" lon="9.23058295316178"><ele>95.33333333333334</ele><time>2026-04-18T07:57:18.002Z</time></trkpt><trkpt lat="45.36128392854341" lon="9.230467387559996"><ele>95.5</ele><time>2026-04-18T07:57:19.002Z</time></trkpt><trkpt lat="45.361255782214506" lon="9.230357812120275"><ele>95.66666666666667</ele><time>2026-04-18T07:57:20.002Z</time></trkpt><trkpt lat="45.3612304228684" lon="9.230253265126244"><ele>95.83333333333333</ele><time>2026-04-18T07:57:21.003Z</time></trkpt><trkpt lat="45.36120931733687" lon="9.230149627084204"><ele>96.0</ele><time>2026-04-18T07:57:22.003Z</time></trkpt><trkpt lat="45.361182969160744" lon="9.230030602249311"><ele>96.0</ele><time>2026-04-18T07:57:23.003Z</time></trkpt><trkpt lat="45.361164317659224" lon="9.22990559116675"><ele>96.0</ele><time>2026-04-18T07:57:24.003Z</time></trkpt><trkpt lat="45.36115367908023" lon="9.229775512932372"><ele>96.0</ele><time>2026-04-18T07:57:25.003Z</time></trkpt><trkpt lat="45.36115361864763" lon="9.229647732867914"><ele>96.0</ele><time>2026-04-18T07:57:26.003Z</time></trkpt><trkpt lat="45.36116454181035" lon="9.229526982390224"><ele>96.0</ele><time>2026-04-18T07:57:27.003Z</time></trkpt><trkpt lat="45.36118563219693" lon="9.229413958331907"><ele>96.0</ele><time>2026-04-18T07:57:28.003Z</time></trkpt><trkpt lat="45.361220539829944" lon="9.229320368098877"><ele>95.6</ele><time>2026-04-18T07:57:29.003Z</time></trkpt><trkpt lat="45.36126599442022" lon="9.2292554678985"><ele>95.19999999999999</ele><time>2026-04-18T07:57:30.003Z</time></trkpt><trkpt lat="45.361375519407254" lon="9.229219592764549"><ele>94.80000000000001</ele><time>2026-04-18T07:57:32.003Z</time></trkpt><trkpt lat="45.36150067553456" lon="9.229303119563413"><ele>94.4</ele><time>2026-04-18T07:57:34.003Z</time></trkpt><trkpt lat="45.3615617414227" lon="9.229406037824264"><ele>94.0</ele><time>2026-04-18T07:57:35.003Z</time></trkpt><trkpt lat="45.361613631286815" lon="9.229533853613255"><ele>94.0</ele><time>2026-04-18T07:57:36.003Z</time></trkpt><trkpt lat="45.36165316214009" lon="9.229659144824355"><ele>94.0</ele><time>2026-04-18T07:57:37.003Z</time></trkpt><trkpt lat="45.36169115931842" lon="9.22979801714953"><ele>94.0</ele><time>2026-04-18T07:57:38.003Z</time></trkpt><trkpt lat="45.36173297385862" lon="9.229947350449418"><ele>94.0</ele><time>2026-04-18T07:57:39.003Z</time></trkpt><trkpt lat="45.3617715054804" lon="9.2300982218356"><ele>94.0</ele><time>2026-04-18T07:57:40Z</time></trkpt><trkpt lat="45.361809460054296" lon="9.230249009965695"><ele>93.80000000000001</ele><time>2026-04-18T07:57:41Z</time></trkpt><trkpt lat="45.36184533746054" lon="9.230392503162001"><ele>93.60000000000001</ele><time>2026-04-18T07:57:42Z</time></trkpt><trkpt lat="45.36187059470419" lon="9.230523000514022"><ele>93.4</ele><time>2026-04-18T07:57:43Z</time></trkpt><trkpt lat="45.361895323548254" lon="9.230637115202178"><ele>93.2</ele><time>2026-04-18T07:57:44Z</time></trkpt><trkpt lat="45.36185510902414" lon="9.230762758760367"><ele>93.0</ele><time>2026-04-18T07:57:45Z</time></trkpt><trkpt lat="45.3618131977828" lon="9.230856953134362"><ele>93.4</ele><time>2026-04-18T07:57:46Z</time></trkpt><trkpt lat="45.361749205819756" lon="9.230922883299803"><ele>93.80000000000001</ele><time>2026-04-18T07:57:47Z</time></trkpt><trkpt lat="45.361676920219146" lon="9.23099880823559"><ele>94.2</ele><time>2026-04-18T07:57:48Z</time></trkpt><trkpt lat="45.3616009740638" lon="9.231090733391934"><ele>94.6</ele><time>2026-04-18T07:57:49Z</time></trkpt><trkpt lat="45.36145534539669" lon="9.231086538519868"><ele>95.0</ele><time>2026-04-18T07:57:50Z</time></trkpt><trkpt lat="45.36134294406264" lon="9.231142463777084"><ele>95.0</ele><time>2026-04-18T07:57:51Z</time></trkpt><trkpt lat="45.36122640135942" lon="9.231203362945012"><ele>95.0</ele><time>2026-04-18T07:57:52Z</time></trkpt><trkpt lat="45.361113291046394" lon="9.231257142647758"><ele>95.0</ele><time>2026-04-18T07:57:53Z</time></trkpt><trkpt lat="45.36099432543647" lon="9.231316145560873"><ele>95.0</ele><time>2026-04-18T07:57:54Z</time></trkpt><trkpt lat="45.36087361712633" lon="9.231375149960606"><ele>95.0</ele><time>2026-04-18T07:57:55Z</time></trkpt><trkpt lat="45.36075567971721" lon="9.231433893435847"><ele>95.0</ele><time>2026-04-18T07:57:56Z</time></trkpt><trkpt lat="45.36063873293943" lon="9.231493117235894"><ele>95.0</ele><time>2026-04-18T07:57:57Z</time></trkpt><trkpt lat="45.360526134349946" lon="9.231550816975355"><ele>95.0</ele><time>2026-04-18T07:57:58Z</time></trkpt><trkpt lat="45.36042027078928" lon="9.23160428254754"><ele>95.2</ele><time>2026-04-18T07:57:59Z</time></trkpt><trkpt lat="45.3603153073669" lon="9.231659249110145"><ele>95.4</ele><time>2026-04-18T07:58:00Z</time></trkpt><trkpt lat="45.360208450089516" lon="9.231714540079171"><ele>95.6</ele><time>2026-04-18T07:58:01Z</time></trkpt><trkpt lat="45.36010320846524" lon="9.231767799083476"><ele>95.8</ele><time>2026-04-18T07:58:02Z</time></trkpt><trkpt lat="45.359999848849625" lon="9.23181567793851"><ele>96.0</ele><time>2026-04-18T07:58:03Z</time></trkpt><trkpt lat="45.35988992659443" lon="9.231868691920985"><ele>96.0</ele><time>2026-04-18T07:58:04Z</time></trkpt><trkpt lat="45.35977945071511" lon="9.23192157726301"><ele>96.0</ele><time>2026-04-18T07:58:05Z</time></trkpt><trkpt lat="45.359666271828665" lon="9.23197425252678"><ele>96.0</ele><time>2026-04-18T07:58:06Z</time></trkpt><trkpt lat="45.359552168104074" lon="9.232030350334853"><ele>96.0</ele><time>2026-04-18T07:58:07Z</time></trkpt><trkpt lat="45.359436583845685" lon="9.232087831669237"><ele>96.0</ele><time>2026-04-18T07:58:08Z</time></trkpt><trkpt lat="45.35931667712918" lon="9.232147021560401"><ele>96.0</ele><time>2026-04-18T07:58:09Z</time></trkpt><trkpt lat="45.3591869213729" lon="9.232210030723765"><ele>96.0</ele><time>2026-04-18T07:58:10.001Z</time></trkpt><trkpt lat="45.359054359107446" lon="9.232270727159943"><ele>96.0</ele><time>2026-04-18T07:58:11Z</time></trkpt><trkpt lat="45.3589333236613" lon="9.232326154312736"><ele>96.25</ele><time>2026-04-18T07:58:12.001Z</time></trkpt><trkpt lat="45.358807990558596" lon="9.23238575666584"><ele>96.5</ele><time>2026-04-18T07:58:13.001Z</time></trkpt><trkpt lat="45.3586800224847" lon="9.232444190582312"><ele>96.75</ele><time>2026-04-18T07:58:14.001Z</time></trkpt><trkpt lat="45.35854505976181" lon="9.232507466738044"><ele>97.0</ele><time>2026-04-18T07:58:15.001Z</time></trkpt><trkpt lat="45.35840832301879" lon="9.232573932260774"><ele>97.0</ele><time>2026-04-18T07:58:16.001Z</time></trkpt><trkpt lat="45.3582729994757" lon="9.232640628306905"><ele>97.0</ele><time>2026-04-18T07:58:17.001Z</time></trkpt><trkpt lat="45.35813817525475" lon="9.232703763677174"><ele>97.0</ele><time>2026-04-18T07:58:18.001Z</time></trkpt><trkpt lat="45.35800346640425" lon="9.232767761953006"><ele>97.0</ele><time>2026-04-18T07:58:19.001Z</time></trkpt><trkpt lat="45.357867335635255" lon="9.23283428086262"><ele>97.0</ele><time>2026-04-18T07:58:20.001Z</time></trkpt><trkpt lat="45.35773026649271" lon="9.232899805420494"><ele>97.0</ele><time>2026-04-18T07:58:21.001Z</time></trkpt><trkpt lat="45.35759436776362" lon="9.232962609380257"><ele>97.0</ele><time>2026-04-18T07:58:22.001Z</time></trkpt><trkpt lat="45.35746086681787" lon="9.233022348954766"><ele>97.0</ele><time>2026-04-18T07:58:23.001Z</time></trkpt><trkpt lat="45.357334321570114" lon="9.233079340094694"><ele>97.0</ele><time>2026-04-18T07:58:24.001Z</time></trkpt><trkpt lat="45.35721834708378" lon="9.233126557086845"><ele>97.0</ele><time>2026-04-18T07:58:25.001Z</time></trkpt><trkpt lat="45.357104575916985" lon="9.233168508535755"><ele>97.0</ele><time>2026-04-18T07:58:26.001Z</time></trkpt><trkpt lat="45.35700057341673" lon="9.233207041416128"><ele>97.0</ele><time>2026-04-18T07:58:27.001Z</time></trkpt><trkpt lat="45.35691625909341" lon="9.233233513424405"><ele>97.0</ele><time>2026-04-18T07:58:28.001Z</time></trkpt><trkpt lat="45.35685126453792" lon="9.233249456661882"><ele>97.19999999999999</ele><time>2026-04-18T07:58:29.001Z</time></trkpt><trkpt lat="45.3567771286954" lon="9.233196194024817"><ele>97.4</ele><time>2026-04-18T07:58:30.001Z</time></trkpt><trkpt lat="45.35670835188341" lon="9.233173581177109"><ele>97.6</ele><time>2026-04-18T07:58:31.001Z</time></trkpt><trkpt lat="45.35659839293286" lon="9.233112413103632"><ele>97.80000000000001</ele><time>2026-04-18T07:58:33.001Z</time></trkpt><trkpt lat="45.35652017155366" lon="9.233199869958447"><ele>98.0</ele><time>2026-04-18T07:58:35.001Z</time></trkpt><trkpt lat="45.35645383620466" lon="9.233131841157757"><ele>98.0</ele><time>2026-04-18T07:58:36.001Z</time></trkpt><trkpt lat="45.35637517897986" lon="9.233161456485211"><ele>95.0</ele><time>2026-04-18T07:58:38.001Z</time></trkpt><trkpt lat="45.356390507229804" lon="9.233296057699668"><ele>95.0</ele><time>2026-04-18T07:58:40.001Z</time></trkpt></trkseg><trkseg><trkpt lat="45.35637890303971" lon="9.233280242903502"><ele>95.0</ele><time>2026-04-18T08:15:50.999Z</time></trkpt><trkpt lat="45.35634423911477" lon="9.233388499016124"><ele>95.0</ele><time>2026-04-18T08:15:52.999Z</time></trkpt><trkpt lat="45.35624042515666" lon="9.233547711974131"><ele>95.0</ele><time>2026-04-18T08:15:54.999Z</time></trkpt><trkpt lat="45.356187181691745" lon="9.23360551255333"><ele>95.0</ele><time>2026-04-18T08:15:55.999Z</time></trkpt><trkpt lat="45.3561141156897" lon="9.233653166865077"><ele>95.0</ele><time>2026-04-18T08:15:56.999Z</time></trkpt><trkpt lat="45.35603006370877" lon="9.233695723222949"><ele>95.0</ele><time>2026-04-18T08:15:57.999Z</time></trkpt><trkpt lat="45.35594022424522" lon="9.233740349623249"><ele>95.0</ele><time>2026-04-18T08:15:58.999Z</time></trkpt><trkpt lat="45.35583086531838" lon="9.23380123872683"><ele>95.0</ele><time>2026-04-18T08:15:59.999Z</time></trkpt><trkpt lat="45.35571372509896" lon="9.233866372551097"><ele>95.0</ele><time>2026-04-18T08:16:00.999Z</time></trkpt><trkpt lat="45.35560264375192" lon="9.233927136083029"><ele>94.75</ele><time>2026-04-18T08:16:01.999Z</time></trkpt><trkpt lat="45.35547694653403" lon="9.233994807812524"><ele>94.5</ele><time>2026-04-18T08:16:02.999Z</time></trkpt><trkpt lat="45.35534615416624" lon="9.23406031514348"><ele>94.25</ele><time>2026-04-18T08:16:03.999Z</time></trkpt><trkpt lat="45.355214487555536" lon="9.234121755129726"><ele>94.0</ele><time>2026-04-18T08:16:04.999Z</time></trkpt><trkpt lat="45.35508169059963" lon="9.234186433364053"><ele>94.0</ele><time>2026-04-18T08:16:05.999Z</time></trkpt><trkpt lat="45.35494472329639" lon="9.234253897266049"><ele>94.0</ele><time>2026-04-18T08:16:06.999Z</time></trkpt><trkpt lat="45.35480176449376" lon="9.234323357187431"><ele>94.0</ele><time>2026-04-18T08:16:07.999Z</time></trkpt><trkpt lat="45.354655884447155" lon="9.234393460045633"><ele>94.0</ele><time>2026-04-18T08:16:08.999Z</time></trkpt><trkpt lat="45.35450964890321" lon="9.234461340132436"><ele>94.0</ele><time>2026-04-18T08:16:09.999Z</time></trkpt><trkpt lat="45.354369686863485" lon="9.234523471482985"><ele>94.0</ele><time>2026-04-18T08:16:10.999Z</time></trkpt><trkpt lat="45.354225704676" lon="9.23458604339238"><ele>94.0</ele><time>2026-04-18T08:16:11.999Z</time></trkpt><trkpt lat="45.35408434981986" lon="9.234647854686397"><ele>94.0</ele><time>2026-04-18T08:16:12.999Z</time></trkpt><trkpt lat="45.35394455401969" lon="9.234711014450237"><ele>94.0</ele><time>2026-04-18T08:16:13.999Z</time></trkpt><trkpt lat="45.35380961464338" lon="9.234773574378414"><ele>94.0</ele><time>2026-04-18T08:16:14.999Z</time></trkpt><trkpt lat="45.3536820891368" lon="9.234832635850681"><ele>93.5</ele><time>2026-04-18T08:16:15.999Z</time></trkpt><trkpt lat="45.353555989853675" lon="9.234885017565475"><ele>93.0</ele><time>2026-04-18T08:16:16.999Z</time></trkpt><trkpt lat="45.35343691774921" lon="9.234917082657153"><ele>92.5</ele><time>2026-04-18T08:16:17.999Z</time></trkpt><trkpt lat="45.35331520037148" lon="9.234925109456102"><ele>92.0</ele><time>2026-04-18T08:16:18.999Z</time></trkpt><trkpt lat="45.353185659376216" lon="9.23491657891236"><ele>92.0</ele><time>2026-04-18T08:16:19.999Z</time></trkpt><trkpt lat="45.35305941288231" lon="9.234885697745188"><ele>92.0</ele><time>2026-04-18T08:16:20.999Z</time></trkpt><trkpt lat="45.35294238576421" lon="9.234830120264286"><ele>92.0</ele><time>2026-04-18T08:16:21.999Z</time></trkpt><trkpt lat="45.35283009757251" lon="9.234755898509967"><ele>92.0</ele><time>2026-04-18T08:16:22.999Z</time></trkpt><trkpt lat="45.352729803754436" lon="9.234666529336629"><ele>92.5</ele><time>2026-04-18T08:16:23.999Z</time></trkpt><trkpt lat="45.352642110799465" lon="9.234565710099305"><ele>93.0</ele><time>2026-04-18T08:16:24.999Z</time></trkpt><trkpt lat="45.35256950365625" lon="9.234443387410822"><ele>93.5</ele><time>2026-04-18T08:16:25.999Z</time></trkpt><trkpt lat="45.35250663096089" lon="9.23429625245552"><ele>94.0</ele><time>2026-04-18T08:16:26.999Z</time></trkpt><trkpt lat="45.3524159193911" lon="9.234184060419459"><ele>94.0</ele><time>2026-04-18T08:16:27.999Z</time></trkpt><trkpt lat="45.35236311178699" lon="9.233974611757166"><ele>94.0</ele><time>2026-04-18T08:16:28.999Z</time></trkpt><trkpt lat="45.35230859275229" lon="9.233782879586128"><ele>94.0</ele><time>2026-04-18T08:16:29.999Z</time></trkpt><trkpt lat="45.35225291757135" lon="9.23358251493585"><ele>94.0</ele><time>2026-04-18T08:16:30.999Z</time></trkpt><trkpt lat="45.352184426396526" lon="9.23339166813823"><ele>94.0</ele><time>2026-04-18T08:16:31.999Z</time></trkpt><trkpt lat="45.35212534476378" lon="9.233206509699784"><ele>94.0</ele><time>2026-04-18T08:16:32.999Z</time></trkpt><trkpt lat="45.35207471875885" lon="9.233035717395584"><ele>94.0</ele><time>2026-04-18T08:16:33.996Z</time></trkpt><trkpt lat="45.352015929759844" lon="9.232880222859077"><ele>94.0</ele><time>2026-04-18T08:16:34.996Z</time></trkpt><trkpt lat="45.35196697534052" lon="9.232711440021362"><ele>94.0</ele><time>2026-04-18T08:16:35.996Z</time></trkpt><trkpt lat="45.35190573983748" lon="9.232544060142407"><ele>94.0</ele><time>2026-04-18T08:16:36.996Z</time></trkpt><trkpt lat="45.35183978501111" lon="9.232359087516917"><ele>94.0</ele><time>2026-04-18T08:16:37.996Z</time></trkpt><trkpt lat="45.35176928216671" lon="9.232164405410854"><ele>94.0</ele><time>2026-04-18T08:16:38.997Z</time></trkpt><trkpt lat="45.351699445755706" lon="9.231959076638482"><ele>94.0</ele><time>2026-04-18T08:16:39.997Z</time></trkpt><trkpt lat="45.351629857357054" lon="9.231743355551961"><ele>94.0</ele><time>2026-04-18T08:16:40.997Z</time></trkpt><trkpt lat="45.35156797037933" lon="9.231535485366912"><ele>93.66666666666666</ele><time>2026-04-18T08:16:41.997Z</time></trkpt><trkpt lat="45.35150401249296" lon="9.231337224223306"><ele>93.33333333333333</ele><time>2026-04-18T08:16:42.997Z</time></trkpt><trkpt lat="45.35144277052345" lon="9.231139381321604"><ele>93.0</ele><time>2026-04-18T08:16:43.997Z</time></trkpt><trkpt lat="45.351383955664616" lon="9.230950730486997"><ele>93.33333333333333</ele><time>2026-04-18T08:16:44.997Z</time></trkpt><trkpt lat="45.351319151775094" lon="9.230762869771254"><ele>93.66666666666666</ele><time>2026-04-18T08:16:45.997Z</time></trkpt><trkpt lat="45.351247305431436" lon="9.230559940058694"><ele>94.0</ele><time>2026-04-18T08:16:46.997Z</time></trkpt><trkpt lat="45.3511784257991" lon="9.230353980804038"><ele>94.0</ele><time>2026-04-18T08:16:47.997Z</time></trkpt><trkpt lat="45.35110851479462" lon="9.230143229361216"><ele>94.0</ele><time>2026-04-18T08:16:48.997Z</time></trkpt><trkpt lat="45.35103819339413" lon="9.229929854643114"><ele>94.0</ele><time>2026-04-18T08:16:49.997Z</time></trkpt><trkpt lat="45.35097272868178" lon="9.229729465614144"><ele>93.75</ele><time>2026-04-18T08:16:50.997Z</time></trkpt><trkpt lat="45.35091429973737" lon="9.229548375789077"><ele>93.5</ele><time>2026-04-18T08:16:51.997Z</time></trkpt><trkpt lat="45.350856834945546" lon="9.229385139689558"><ele>93.25</ele><time>2026-04-18T08:16:52.997Z</time></trkpt><trkpt lat="45.35079409602835" lon="9.229246470881652"><ele>93.0</ele><time>2026-04-18T08:16:53.998Z</time></trkpt><trkpt lat="45.3507091942513" lon="9.229155469468632"><ele>93.0</ele><time>2026-04-18T08:16:54.998Z</time></trkpt><trkpt lat="45.35064442192301" lon="9.229062182098268"><ele>93.0</ele><time>2026-04-18T08:16:55.998Z</time></trkpt><trkpt lat="45.350566479879596" lon="9.228996543076951"><ele>93.0</ele><time>2026-04-18T08:16:56.998Z</time></trkpt><trkpt lat="45.3504965672601" lon="9.22893249039374"><ele>93.0</ele><time>2026-04-18T08:16:57.998Z</time></trkpt><trkpt lat="45.35043469543268" lon="9.228866580642407"><ele>93.0</ele><time>2026-04-18T08:16:58.998Z</time></trkpt><trkpt lat="45.35037412118238" lon="9.228804273098824"><ele>93.0</ele><time>2026-04-18T08:16:59.998Z</time></trkpt><trkpt lat="45.350305216179244" lon="9.228758967838099"><ele>93.0</ele><time>2026-04-18T08:17:00.998Z</time></trkpt><trkpt lat="45.35023478730717" lon="9.228748195214461"><ele>93.0</ele><time>2026-04-18T08:17:01.998Z</time></trkpt><trkpt lat="45.35015339334217" lon="9.228770437230605"><ele>93.0</ele><time>2026-04-18T08:17:02.998Z</time></trkpt><trkpt lat="45.350063842214254" lon="9.22882277773803"><ele>93.0</ele><time>2026-04-18T08:17:03.998Z</time></trkpt><trkpt lat="45.34996930275902" lon="9.228896359787448"><ele>93.0</ele><time>2026-04-18T08:17:04.998Z</time></trkpt><trkpt lat="45.34986743088235" lon="9.228981141088392"><ele>93.0</ele><time>2026-04-18T08:17:05.998Z</time></trkpt><trkpt lat="45.34975855522979" lon="9.229075398267504"><ele>93.0</ele><time>2026-04-18T08:17:06.998Z</time></trkpt><trkpt lat="45.349661574095165" lon="9.229193242184323"><ele>93.0</ele><time>2026-04-18T08:17:07.998Z</time></trkpt><trkpt lat="45.34953128156943" lon="9.229279812613326"><ele>93.0</ele><time>2026-04-18T08:17:08.998Z</time></trkpt><trkpt lat="45.3494098678201" lon="9.229385066655864"><ele>92.75</ele><time>2026-04-18T08:17:09.998Z</time></trkpt><trkpt lat="45.349290930037604" lon="9.22948368842949"><ele>92.5</ele><time>2026-04-18T08:17:10.998Z</time></trkpt><trkpt lat="45.349168229531834" lon="9.229581703992807"><ele>92.25</ele><time>2026-04-18T08:17:11.998Z</time></trkpt><trkpt lat="45.3490425950406" lon="9.229673824919459"><ele>92.0</ele><time>2026-04-18T08:17:12.998Z</time></trkpt><trkpt lat="45.34891174664608" lon="9.229765890303002"><ele>92.33333333333334</ele><time>2026-04-18T08:17:13.998Z</time></trkpt><trkpt lat="45.348778175061135" lon="9.229858677307261"><ele>92.66666666666667</ele><time>2026-04-18T08:17:14.999Z</time></trkpt><trkpt lat="45.34864403231605" lon="9.229952893651497"><ele>93.0</ele><time>2026-04-18T08:17:15.999Z</time></trkpt><trkpt lat="45.348507876838354" lon="9.23004898745647"><ele>93.0</ele><time>2026-04-18T08:17:16.999Z</time></trkpt><trkpt lat="45.348371392016205" lon="9.230149038030559"><ele>93.0</ele><time>2026-04-18T08:17:17.999Z</time></trkpt><trkpt lat="45.34823427361712" lon="9.23025282140294"><ele>93.0</ele><time>2026-04-18T08:17:18.999Z</time></trkpt><trkpt lat="45.348095948438576" lon="9.230360015860349"><ele>93.0</ele><time>2026-04-18T08:17:19.999Z</time></trkpt><trkpt lat="45.34795861459437" lon="9.230472162199275"><ele>93.0</ele><time>2026-04-18T08:17:20.999Z</time></trkpt><trkpt lat="45.34782643131802" lon="9.230585982464769"><ele>93.0</ele><time>2026-04-18T08:17:21.999Z</time></trkpt><trkpt lat="45.34767871928307" lon="9.230684251517605"><ele>93.0</ele><time>2026-04-18T08:17:22.999Z</time></trkpt><trkpt lat="45.34752811234503" lon="9.230841427491802"><ele>93.0</ele><time>2026-04-18T08:17:23.999Z</time></trkpt><trkpt lat="45.34735434002002" lon="9.230987733815684"><ele>93.0</ele><time>2026-04-18T08:17:24.999Z</time></trkpt><trkpt lat="45.34716660742134" lon="9.231139764238646"><ele>93.0</ele><time>2026-04-18T08:17:25.999Z</time></trkpt><trkpt lat="45.34697934000417" lon="9.231289671645362"><ele>93.0</ele><time>2026-04-18T08:17:26.999Z</time></trkpt><trkpt lat="45.34681211355777" lon="9.231428172081017"><ele>93.0</ele><time>2026-04-18T08:17:27.999Z</time></trkpt><trkpt lat="45.346658613831536" lon="9.231561691004211"><ele>93.0</ele><time>2026-04-18T08:17:28.999Z</time></trkpt><trkpt lat="45.346514183321304" lon="9.231693799117998"><ele>93.0</ele><time>2026-04-18T08:17:29.999Z</time></trkpt><trkpt lat="45.3463760606161" lon="9.231834323782472"><ele>93.0</ele><time>2026-04-18T08:17:30.999Z</time></trkpt><trkpt lat="45.346239062730554" lon="9.231967685298475"><ele>93.0</ele><time>2026-04-18T08:17:31.999Z</time></trkpt><trkpt lat="45.34609343680028" lon="9.232092191075226"><ele>93.0</ele><time>2026-04-18T08:17:32.999Z</time></trkpt><trkpt lat="45.345941908852716" lon="9.232210547482484"><ele>93.0</ele><time>2026-04-18T08:17:33.999Z</time></trkpt><trkpt lat="45.3457895361837" lon="9.232328396608326"><ele>93.0</ele><time>2026-04-18T08:17:34.999Z</time></trkpt><trkpt lat="45.34563729392083" lon="9.232450338474964"><ele>93.0</ele><time>2026-04-18T08:17:35.999Z</time></trkpt><trkpt lat="45.34548470523579" lon="9.232571044264837"><ele>93.0</ele><time>2026-04-18T08:17:36.999Z</time></trkpt><trkpt lat="45.345332111483394" lon="9.232687501710064"><ele>93.0</ele><time>2026-04-18T08:17:37.999Z</time></trkpt><trkpt lat="45.34518226814026" lon="9.23280214451353"><ele>93.0</ele><time>2026-04-18T08:17:38.999Z</time></trkpt><trkpt lat="45.34503138032563" lon="9.232919911919462"><ele>93.0</ele><time>2026-04-18T08:17:39.999Z</time></trkpt><trkpt lat="45.344883988455486" lon="9.233037964220774"><ele>92.66666666666667</ele><time>2026-04-18T08:17:40.999Z</time></trkpt><trkpt lat="45.34473776912204" lon="9.233157493787953"><ele>92.33333333333334</ele><time>2026-04-18T08:17:41.999Z</time></trkpt><trkpt lat="45.34459390586844" lon="9.233278591401907"><ele>92.0</ele><time>2026-04-18T08:17:42.999Z</time></trkpt><trkpt lat="45.34445211325924" lon="9.233403122897384"><ele>92.0</ele><time>2026-04-18T08:17:43.999Z</time></trkpt><trkpt lat="45.34431513515186" lon="9.233528303601906"><ele>92.0</ele><time>2026-04-18T08:17:44.999Z</time></trkpt><trkpt lat="45.34418484683023" lon="9.233652729253853"><ele>92.0</ele><time>2026-04-18T08:17:45.999Z</time></trkpt><trkpt lat="45.3440577704332" lon="9.233777871576985"><ele>92.0</ele><time>2026-04-18T08:17:46.999Z</time></trkpt><trkpt lat="45.34393430084339" lon="9.233903911804626"><ele>92.0</ele><time>2026-04-18T08:17:47.999Z</time></trkpt><trkpt lat="45.34381242323676" lon="9.234029315814382"><ele>92.0</ele><time>2026-04-18T08:17:48.999Z</time></trkpt><trkpt lat="45.34368961246447" lon="9.234151071486034"><ele>92.66666666666667</ele><time>2026-04-18T08:17:49.999Z</time></trkpt><trkpt lat="45.34356247984611" lon="9.23426573919433"><ele>93.33333333333333</ele><time>2026-04-18T08:17:50.999Z</time></trkpt><trkpt lat="45.34342315818375" lon="9.23436736467175"><ele>94.0</ele><time>2026-04-18T08:17:51.999Z</time></trkpt><trkpt lat="45.3432709289173" lon="9.234463696708938"><ele>94.0</ele><time>2026-04-18T08:17:52.999Z</time></trkpt><trkpt lat="45.34311919155617" lon="9.234555968572595"><ele>94.0</ele><time>2026-04-18T08:17:53.999Z</time></trkpt><trkpt lat="45.342965345227334" lon="9.234657133301067"><ele>94.0</ele><time>2026-04-18T08:17:54.999Z</time></trkpt><trkpt lat="45.34280608166005" lon="9.234752645767541"><ele>93.33333333333333</ele><time>2026-04-18T08:17:55.999Z</time></trkpt><trkpt lat="45.34264697941086" lon="9.234844559521742"><ele>92.66666666666667</ele><time>2026-04-18T08:17:56.999Z</time></trkpt><trkpt lat="45.34248556965945" lon="9.234955946517276"><ele>92.0</ele><time>2026-04-18T08:17:57.999Z</time></trkpt><trkpt lat="45.34232728883679" lon="9.235083185963887"><ele>91.66666666666667</ele><time>2026-04-18T08:17:58.999Z</time></trkpt><trkpt lat="45.3421717726904" lon="9.235222355380701"><ele>91.33333333333333</ele><time>2026-04-18T08:17:59.999Z</time></trkpt><trkpt lat="45.34201336673752" lon="9.235367171160716"><ele>91.0</ele><time>2026-04-18T08:18:00.999Z</time></trkpt><trkpt lat="45.34185018937095" lon="9.235513875904546"><ele>90.66666666666666</ele><time>2026-04-18T08:18:01.999Z</time></trkpt><trkpt lat="45.34168218278336" lon="9.235665120281654"><ele>90.33333333333333</ele><time>2026-04-18T08:18:02.999Z</time></trkpt><trkpt lat="45.34151661536407" lon="9.23581865754329"><ele>90.0</ele><time>2026-04-18T08:18:03.999Z</time></trkpt><trkpt lat="45.34135114911089" lon="9.235976238155855"><ele>89.33333333333333</ele><time>2026-04-18T08:18:04.999Z</time></trkpt><trkpt lat="45.34119198670453" lon="9.236125387994361"><ele>88.66666666666666</ele><time>2026-04-18T08:18:05.999Z</time></trkpt><trkpt lat="45.34103127073696" lon="9.236273096773749"><ele>88.0</ele><time>2026-04-18T08:18:06.999Z</time></trkpt><trkpt lat="45.34086780588377" lon="9.236415006564089"><ele>88.33333333333333</ele><time>2026-04-18T08:18:07.999Z</time></trkpt><trkpt lat="45.34070595997978" lon="9.23655101715711"><ele>88.66666666666667</ele><time>2026-04-18T08:18:08.999Z</time></trkpt><trkpt lat="45.34054939811072" lon="9.236684109428762"><ele>89.0</ele><time>2026-04-18T08:18:09.999Z</time></trkpt><trkpt lat="45.34039916372396" lon="9.236812493168387"><ele>89.0</ele><time>2026-04-18T08:18:11Z</time></trkpt><trkpt lat="45.34026329770686" lon="9.23693006165271"><ele>89.0</ele><time>2026-04-18T08:18:12Z</time></trkpt><trkpt lat="45.340136174717934" lon="9.237040253810282"><ele>89.0</ele><time>2026-04-18T08:18:13Z</time></trkpt><trkpt lat="45.34001689303348" lon="9.237145835158296"><ele>89.0</ele><time>2026-04-18T08:18:14Z</time></trkpt><trkpt lat="45.33989521019584" lon="9.237254490713328"><ele>89.5</ele><time>2026-04-18T08:18:15Z</time></trkpt><trkpt lat="45.339776058593046" lon="9.237360207683574"><ele>90.0</ele><time>2026-04-18T08:18:16Z</time></trkpt><trkpt lat="45.3396558098453" lon="9.237469967005055"><ele>90.5</ele><time>2026-04-18T08:18:17Z</time></trkpt><trkpt lat="45.33952687027724" lon="9.237593657267778"><ele>91.0</ele><time>2026-04-18T08:18:18Z</time></trkpt><trkpt lat="45.3393910438254" lon="9.237726529767738"><ele>91.0</ele><time>2026-04-18T08:18:19Z</time></trkpt><trkpt lat="45.33924317013112" lon="9.237860526994213"><ele>91.0</ele><time>2026-04-18T08:18:20Z</time></trkpt><trkpt lat="45.33908567063621" lon="9.237993499748137"><ele>91.0</ele><time>2026-04-18T08:18:21Z</time></trkpt><trkpt lat="45.33892177803358" lon="9.238128428059184"><ele>91.0</ele><time>2026-04-18T08:18:22Z</time></trkpt><trkpt lat="45.33875493074673" lon="9.238266458978545"><ele>91.0</ele><time>2026-04-18T08:18:23Z</time></trkpt><trkpt lat="45.338585053252494" lon="9.238407377976031"><ele>91.0</ele><time>2026-04-18T08:18:24Z</time></trkpt><trkpt lat="45.33841106666709" lon="9.238551156395136"><ele>91.0</ele><time>2026-04-18T08:18:25Z</time></trkpt><trkpt lat="45.33823771104252" lon="9.238696471276898"><ele>91.0</ele><time>2026-04-18T08:18:26Z</time></trkpt><trkpt lat="45.33806330454337" lon="9.238842672284738"><ele>91.0</ele><time>2026-04-18T08:18:27Z</time></trkpt><trkpt lat="45.337886482044524" lon="9.238987778988053"><ele>91.0</ele><time>2026-04-18T08:18:28Z</time></trkpt><trkpt lat="45.33770975917071" lon="9.239127820190467"><ele>91.0</ele><time>2026-04-18T08:18:29Z</time></trkpt><trkpt lat="45.337536669604205" lon="9.239262384701712"><ele>91.0</ele><time>2026-04-18T08:18:30Z</time></trkpt><trkpt lat="45.337360771326196" lon="9.239399186913154"><ele>91.0</ele><time>2026-04-18T08:18:31Z</time></trkpt><trkpt lat="45.337181018546694" lon="9.239541358962308"><ele>91.0</ele><time>2026-04-18T08:18:32Z</time></trkpt><trkpt lat="45.33700318624459" lon="9.23968391811008"><ele>91.0</ele><time>2026-04-18T08:18:33Z</time></trkpt><trkpt lat="45.33682444142465" lon="9.239827994809335"><ele>91.0</ele><time>2026-04-18T08:18:34Z</time></trkpt><trkpt lat="45.33664556865857" lon="9.239969423337426"><ele>91.0</ele><time>2026-04-18T08:18:35Z</time></trkpt><trkpt lat="45.33647046410602" lon="9.240110054577757"><ele>91.0</ele><time>2026-04-18T08:18:36Z</time></trkpt><trkpt lat="45.33629853171678" lon="9.24025004812291"><ele>91.0</ele><time>2026-04-18T08:18:37Z</time></trkpt><trkpt lat="45.33613239454946" lon="9.240384127329161"><ele>91.0</ele><time>2026-04-18T08:18:38Z</time></trkpt><trkpt lat="45.335974652862014" lon="9.240512305172508"><ele>91.0</ele><time>2026-04-18T08:18:39Z</time></trkpt><trkpt lat="45.33582888243675" lon="9.240635999662965"><ele>90.66666666666666</ele><time>2026-04-18T08:18:39.994Z</time></trkpt><trkpt lat="45.3356833010999" lon="9.24075733284809"><ele>90.33333333333333</ele><time>2026-04-18T08:18:40.994Z</time></trkpt><trkpt lat="45.33554940317398" lon="9.240863214736871"><ele>90.0</ele><time>2026-04-18T08:18:41.994Z</time></trkpt><trkpt lat="45.335419985230345" lon="9.240965063132315"><ele>90.0</ele><time>2026-04-18T08:18:42.994Z</time></trkpt><trkpt lat="45.335299386421646" lon="9.241064680775617"><ele>90.0</ele><time>2026-04-18T08:18:43.994Z</time></trkpt><trkpt lat="45.335187165222415" lon="9.241157389892788"><ele>90.0</ele><time>2026-04-18T08:18:44.995Z</time></trkpt><trkpt lat="45.3350965627902" lon="9.24123088721091"><ele>90.0</ele><time>2026-04-18T08:18:45.995Z</time></trkpt><trkpt lat="45.33502553427556" lon="9.241293911412889"><ele>90.0</ele><time>2026-04-18T08:18:46.995Z</time></trkpt><trkpt lat="45.334950633368955" lon="9.241382371703002"><ele>90.0</ele><time>2026-04-18T08:18:48.995Z</time></trkpt><trkpt lat="45.334967846401405" lon="9.24150714673378"><ele>90.0</ele><time>2026-04-18T08:18:51.995Z</time></trkpt><trkpt lat="45.33500939363628" lon="9.24157589231532"><ele>90.0</ele><time>2026-04-18T08:18:52.996Z</time></trkpt><trkpt lat="45.33507352000783" lon="9.241660964471171"><ele>90.0</ele><time>2026-04-18T08:18:53.996Z</time></trkpt><trkpt lat="45.335121325265554" lon="9.24176576966508"><ele>90.0</ele><time>2026-04-18T08:18:54.996Z</time></trkpt><trkpt lat="45.335176850848136" lon="9.241873814078959"><ele>90.0</ele><time>2026-04-18T08:18:55.996Z</time></trkpt><trkpt lat="45.33523306266001" lon="9.242024969659715"><ele>90.0</ele><time>2026-04-18T08:18:56.996Z</time></trkpt><trkpt lat="45.33531779714758" lon="9.242161949995245"><ele>90.0</ele><time>2026-04-18T08:18:57.996Z</time></trkpt><trkpt lat="45.3353964891183" lon="9.242314926707762"><ele>90.0</ele><time>2026-04-18T08:18:58.996Z</time></trkpt><trkpt lat="45.33547456633588" lon="9.24246235063929"><ele>90.0</ele><time>2026-04-18T08:18:59.997Z</time></trkpt><trkpt lat="45.33554872988961" lon="9.242603587738417"><ele>90.0</ele><time>2026-04-18T08:19:00.997Z</time></trkpt><trkpt lat="45.33562498046674" lon="9.242748186383098"><ele>90.0</ele><time>2026-04-18T08:19:01.997Z</time></trkpt><trkpt lat="45.33569898233609" lon="9.24289255458278"><ele>90.0</ele><time>2026-04-18T08:19:02.997Z</time></trkpt><trkpt lat="45.33576182325563" lon="9.243056220507695"><ele>90.25</ele><time>2026-04-18T08:19:03.997Z</time></trkpt><trkpt lat="45.33583868765031" lon="9.24321288552442"><ele>90.5</ele><time>2026-04-18T08:19:04.997Z</time></trkpt><trkpt lat="45.33591971838985" lon="9.243377315110733"><ele>90.75</ele><time>2026-04-18T08:19:05.997Z</time></trkpt><trkpt lat="45.33599862783859" lon="9.2435374403159"><ele>91.0</ele><time>2026-04-18T08:19:06.997Z</time></trkpt><trkpt lat="45.3360719882082" lon="9.243684111187353"><ele>91.0</ele><time>2026-04-18T08:19:07.997Z</time></trkpt><trkpt lat="45.33614125807141" lon="9.243823222798843"><ele>91.0</ele><time>2026-04-18T08:19:08.997Z</time></trkpt><trkpt lat="45.336208311850775" lon="9.243958186215206"><ele>91.0</ele><time>2026-04-18T08:19:09.998Z</time></trkpt><trkpt lat="45.33628597472392" lon="9.244080962597769"><ele>91.0</ele><time>2026-04-18T08:19:10.998Z</time></trkpt><trkpt lat="45.33635411297722" lon="9.244221991547908"><ele>91.0</ele><time>2026-04-18T08:19:11.998Z</time></trkpt><trkpt lat="45.33642602706013" lon="9.244364529930602"><ele>91.0</ele><time>2026-04-18T08:19:12.998Z</time></trkpt><trkpt lat="45.336493783293406" lon="9.244515283583727"><ele>91.0</ele><time>2026-04-18T08:19:13.998Z</time></trkpt><trkpt lat="45.33656057064306" lon="9.244656543998543"><ele>91.0</ele><time>2026-04-18T08:19:14.998Z</time></trkpt><trkpt lat="45.33663804541561" lon="9.244775706058553"><ele>91.16666666666666</ele><time>2026-04-18T08:19:15.998Z</time></trkpt><trkpt lat="45.33670124246395" lon="9.244877574877453"><ele>91.33333333333333</ele><time>2026-04-18T08:19:16.998Z</time></trkpt><trkpt lat="45.33675141965123" lon="9.244976983796029"><ele>91.5</ele><time>2026-04-18T08:19:17.998Z</time></trkpt><trkpt lat="45.33679638446096" lon="9.245065765568675"><ele>91.66666666666667</ele><time>2026-04-18T08:19:18.998Z</time></trkpt><trkpt lat="45.33683810732381" lon="9.245146493772932"><ele>91.83333333333334</ele><time>2026-04-18T08:19:19.998Z</time></trkpt><trkpt lat="45.33687967924587" lon="9.245256660242802"><ele>92.0</ele><time>2026-04-18T08:19:21.998Z</time></trkpt><trkpt lat="45.33687061807065" lon="9.24534714364843"><ele>92.0</ele><time>2026-04-18T08:19:23.998Z</time></trkpt><trkpt lat="45.33680879379413" lon="9.245404835587964"><ele>92.0</ele><time>2026-04-18T08:19:24.998Z</time></trkpt><trkpt lat="45.3366934706134" lon="9.24551942928332"><ele>92.0</ele><time>2026-04-18T08:19:26.999Z</time></trkpt><trkpt lat="45.336613414783116" lon="9.245580630783406"><ele>92.0</ele><time>2026-04-18T08:19:27.999Z</time></trkpt><trkpt lat="45.33654494765178" lon="9.245656254042371"><ele>92.0</ele><time>2026-04-18T08:19:28.999Z</time></trkpt><trkpt lat="45.3364919857974" lon="9.24572276133155"><ele>92.16666666666667</ele><time>2026-04-18T08:19:29.999Z</time></trkpt><trkpt lat="45.33643633541594" lon="9.245832753566766"><ele>92.33333333333334</ele><time>2026-04-18T08:19:31.999Z</time></trkpt><trkpt lat="45.336447839036275" lon="9.245954731651864"><ele>92.5</ele><time>2026-04-18T08:19:33.999Z</time></trkpt><trkpt lat="45.336488834559105" lon="9.246023009834028"><ele>92.66666666666667</ele><time>2026-04-18T08:19:34.999Z</time></trkpt><trkpt lat="45.33653010406068" lon="9.246098502084202"><ele>92.83333333333333</ele><time>2026-04-18T08:19:35.999Z</time></trkpt><trkpt lat="45.33657665432537" lon="9.246185249635055"><ele>93.0</ele><time>2026-04-18T08:19:36.999Z</time></trkpt><trkpt lat="45.33664097722963" lon="9.246273149545905"><ele>93.0</ele><time>2026-04-18T08:19:37.999Z</time></trkpt><trkpt lat="45.33669099207786" lon="9.24638921499616"><ele>93.0</ele><time>2026-04-18T08:19:38.999Z</time></trkpt><trkpt lat="45.33675659379764" lon="9.246481126816365"><ele>93.0</ele><time>2026-04-18T08:19:39.999Z</time></trkpt><trkpt lat="45.3368116154104" lon="9.24658109814655"><ele>93.0</ele><time>2026-04-18T08:19:40.999Z</time></trkpt><trkpt lat="45.3368553067339" lon="9.246689548929226"><ele>93.0</ele><time>2026-04-18T08:19:41.999Z</time></trkpt><trkpt lat="45.33689514457874" lon="9.246800887622388"><ele>93.0</ele><time>2026-04-18T08:19:42.999Z</time></trkpt><trkpt lat="45.33694103784284" lon="9.246897122978426"><ele>93.0</ele><time>2026-04-18T08:19:43.999Z</time></trkpt><trkpt lat="45.33700100956332" lon="9.246988929764658"><ele>93.0</ele><time>2026-04-18T08:19:44.999Z</time></trkpt><trkpt lat="45.33705238596688" lon="9.247079829331877"><ele>93.0</ele><time>2026-04-18T08:19:45.999Z</time></trkpt><trkpt lat="45.33711397281714" lon="9.247195271351606"><ele>93.0</ele><time>2026-04-18T08:19:46.999Z</time></trkpt><trkpt lat="45.33718157366039" lon="9.247318134002192"><ele>93.0</ele><time>2026-04-18T08:19:47.999Z</time></trkpt><trkpt lat="45.33723885806201" lon="9.247448904757249"><ele>93.0</ele><time>2026-04-18T08:19:48.999Z</time></trkpt><trkpt lat="45.33730227233961" lon="9.247543941659307"><ele>93.0</ele><time>2026-04-18T08:19:49.999Z</time></trkpt><trkpt lat="45.33734749984994" lon="9.24763913355239"><ele>93.0</ele><time>2026-04-18T08:19:50.999Z</time></trkpt><trkpt lat="45.33737449709474" lon="9.24772182811769"><ele>93.0</ele><time>2026-04-18T08:19:51.999Z</time></trkpt><trkpt lat="45.3374202333046" lon="9.247813937696673"><ele>93.0</ele><time>2026-04-18T08:19:53.999Z</time></trkpt><trkpt lat="45.337310234570964" lon="9.247886805812385"><ele>93.0</ele><time>2026-04-18T08:19:55Z</time></trkpt><trkpt lat="45.33725507962722" lon="9.247946934664482"><ele>93.0</ele><time>2026-04-18T08:19:56Z</time></trkpt><trkpt lat="45.337185824758336" lon="9.24802326168563"><ele>93.0</ele><time>2026-04-18T08:19:57Z</time></trkpt><trkpt lat="45.337117499310324" lon="9.248118304538885"><ele>93.0</ele><time>2026-04-18T08:19:58Z</time></trkpt><trkpt lat="45.33703405647415" lon="9.248216182327354"><ele>93.0</ele><time>2026-04-18T08:19:59Z</time></trkpt><trkpt lat="45.33694566234904" lon="9.248323359993751"><ele>93.0</ele><time>2026-04-18T08:20:00Z</time></trkpt><trkpt lat="45.336852607043475" lon="9.248431478283354"><ele>93.0</ele><time>2026-04-18T08:20:01Z</time></trkpt><trkpt lat="45.33676812538612" lon="9.248532516765708"><ele>93.0</ele><time>2026-04-18T08:20:02Z</time></trkpt><trkpt lat="45.336695016134044" lon="9.248618926607937"><ele>93.0</ele><time>2026-04-18T08:20:03Z</time></trkpt><trkpt lat="45.33663618564101" lon="9.248696821515843"><ele>93.0</ele><time>2026-04-18T08:20:04Z</time></trkpt><trkpt lat="45.33657139199284" lon="9.248770666323189"><ele>93.0</ele><time>2026-04-18T08:20:06Z</time></trkpt><trkpt lat="45.336517828101" lon="9.248818794671843"><ele>93.0</ele><time>2026-04-18T08:20:13Z</time></trkpt><trkpt lat="45.33645215367035" lon="9.248835062338772"><ele>93.0</ele><time>2026-04-18T08:20:15Z</time></trkpt><trkpt lat="45.33637189237763" lon="9.24886969180987"><ele>93.0</ele><time>2026-04-18T08:20:17Z</time></trkpt><trkpt lat="45.33629272156976" lon="9.248841071404826"><ele>93.0</ele><time>2026-04-18T08:20:18Z</time></trkpt><trkpt lat="45.336225383581464" lon="9.248806261710232"><ele>93.0</ele><time>2026-04-18T08:20:19Z</time></trkpt><trkpt lat="45.33618240714894" lon="9.248696413491187"><ele>92.80000000000001</ele><time>2026-04-18T08:20:20Z</time></trkpt><trkpt lat="45.336118324692045" lon="9.248614316503382"><ele>92.6</ele><time>2026-04-18T08:20:21Z</time></trkpt><trkpt lat="45.33605808958395" lon="9.248523457436972"><ele>92.4</ele><time>2026-04-18T08:20:22Z</time></trkpt><trkpt lat="45.33600481952383" lon="9.248419549155582"><ele>92.19999999999999</ele><time>2026-04-18T08:20:23Z</time></trkpt><trkpt lat="45.33594093862491" lon="9.248320193767873"><ele>92.0</ele><time>2026-04-18T08:20:24Z</time></trkpt><trkpt lat="45.335911628749145" lon="9.248194348249545"><ele>92.16666666666667</ele><time>2026-04-18T08:20:25Z</time></trkpt><trkpt lat="45.33586849257592" lon="9.248083757529555"><ele>92.33333333333334</ele><time>2026-04-18T08:20:26Z</time></trkpt><trkpt lat="45.33582760635594" lon="9.247975626234291"><ele>92.5</ele><time>2026-04-18T08:20:27Z</time></trkpt><trkpt lat="45.335789824428424" lon="9.247872777363337"><ele>92.66666666666667</ele><time>2026-04-18T08:20:28Z</time></trkpt><trkpt lat="45.3357507539581" lon="9.24776014722996"><ele>92.83333333333333</ele><time>2026-04-18T08:20:29Z</time></trkpt><trkpt lat="45.33570725569335" lon="9.247635316304008"><ele>93.0</ele><time>2026-04-18T08:20:30.001Z</time></trkpt><trkpt lat="45.33566183932492" lon="9.247506661590513"><ele>93.0</ele><time>2026-04-18T08:20:31.001Z</time></trkpt><trkpt lat="45.33561621972871" lon="9.24737293577836"><ele>93.0</ele><time>2026-04-18T08:20:32.001Z</time></trkpt><trkpt lat="45.33556765686724" lon="9.247233534025582"><ele>93.0</ele><time>2026-04-18T08:20:33.001Z</time></trkpt><trkpt lat="45.33552001482157" lon="9.247095075798368"><ele>93.0</ele><time>2026-04-18T08:20:34.001Z</time></trkpt><trkpt lat="45.3354717218891" lon="9.246952709053431"><ele>93.0</ele><time>2026-04-18T08:20:35.001Z</time></trkpt><trkpt lat="45.335422643349915" lon="9.246810277418229"><ele>92.5</ele><time>2026-04-18T08:20:36.001Z</time></trkpt><trkpt lat="45.335370642661786" lon="9.246660749350777"><ele>92.0</ele><time>2026-04-18T08:20:37.001Z</time></trkpt><trkpt lat="45.335313813430886" lon="9.246500243664158"><ele>91.5</ele><time>2026-04-18T08:20:38.001Z</time></trkpt><trkpt lat="45.33525450576335" lon="9.246341745412705"><ele>91.0</ele><time>2026-04-18T08:20:39.001Z</time></trkpt><trkpt lat="45.335193272844684" lon="9.246178994061006"><ele>91.0</ele><time>2026-04-18T08:20:40.001Z</time></trkpt><trkpt lat="45.33513184370839" lon="9.246010089524905"><ele>91.0</ele><time>2026-04-18T08:20:41.001Z</time></trkpt><trkpt lat="45.33508222728771" lon="9.245858849047341"><ele>91.0</ele><time>2026-04-18T08:20:42.001Z</time></trkpt><trkpt lat="45.335030994652456" lon="9.24570482432771"><ele>91.0</ele><time>2026-04-18T08:20:43.001Z</time></trkpt><trkpt lat="45.33497861086797" lon="9.245550535163094"><ele>91.25</ele><time>2026-04-18T08:20:44.001Z</time></trkpt><trkpt lat="45.33492498127709" lon="9.245393751629335"><ele>91.5</ele><time>2026-04-18T08:20:45.001Z</time></trkpt><trkpt lat="45.33486993132222" lon="9.24523809644159"><ele>91.75</ele><time>2026-04-18T08:20:45.996Z</time></trkpt><trkpt lat="45.334812267405106" lon="9.24507802025146"><ele>92.0</ele><time>2026-04-18T08:20:46.996Z</time></trkpt><trkpt lat="45.334752395662015" lon="9.244910833973721"><ele>91.75</ele><time>2026-04-18T08:20:47.996Z</time></trkpt><trkpt lat="45.33469812560799" lon="9.244747779392787"><ele>91.5</ele><time>2026-04-18T08:20:48.996Z</time></trkpt><trkpt lat="45.334640460311284" lon="9.244581407334811"><ele>91.25</ele><time>2026-04-18T08:20:49.996Z</time></trkpt><trkpt lat="45.33458890738406" lon="9.244413414776195"><ele>91.0</ele><time>2026-04-18T08:20:50.996Z</time></trkpt><trkpt lat="45.33454679725866" lon="9.244267788776318"><ele>91.0</ele><time>2026-04-18T08:20:51.996Z</time></trkpt><trkpt lat="45.33451210037059" lon="9.244134581664735"><ele>91.0</ele><time>2026-04-18T08:20:52.996Z</time></trkpt><trkpt lat="45.33448077188203" lon="9.24400994261686"><ele>91.0</ele><time>2026-04-18T08:20:53.996Z</time></trkpt><trkpt lat="45.334454549066585" lon="9.243885128769955"><ele>91.0</ele><time>2026-04-18T08:20:54.997Z</time></trkpt><trkpt lat="45.334292982247945" lon="9.243554247329302"><ele>91.25</ele><time>2026-04-18T08:20:55.997Z</time></trkpt><trkpt lat="45.3342342557907" lon="9.243384305286055"><ele>91.5</ele><time>2026-04-18T08:20:56.997Z</time></trkpt><trkpt lat="45.3341737428276" lon="9.243206035593074"><ele>91.75</ele><time>2026-04-18T08:20:57.997Z</time></trkpt><trkpt lat="45.33410992514722" lon="9.243024967459629"><ele>92.0</ele><time>2026-04-18T08:20:58.997Z</time></trkpt><trkpt lat="45.33404381072837" lon="9.24283475013633"><ele>92.0</ele><time>2026-04-18T08:20:59.997Z</time></trkpt><trkpt lat="45.333980023563" lon="9.24264228438279"><ele>92.0</ele><time>2026-04-18T08:21:00.997Z</time></trkpt><trkpt lat="45.33391646866554" lon="9.242451615005661"><ele>92.0</ele><time>2026-04-18T08:21:01.997Z</time></trkpt><trkpt lat="45.33385160435824" lon="9.242270758180934"><ele>92.0</ele><time>2026-04-18T08:21:02.997Z</time></trkpt><trkpt lat="45.33378440455235" lon="9.24208268084288"><ele>91.66666666666667</ele><time>2026-04-18T08:21:03.998Z</time></trkpt><trkpt lat="45.33371513809785" lon="9.241895362710686"><ele>91.33333333333333</ele><time>2026-04-18T08:21:04.998Z</time></trkpt><trkpt lat="45.33364303246919" lon="9.241701850710175"><ele>91.0</ele><time>2026-04-18T08:21:05.998Z</time></trkpt><trkpt lat="45.33357430427744" lon="9.241502354764753"><ele>91.0</ele><time>2026-04-18T08:21:06.998Z</time></trkpt><trkpt lat="45.33349948883565" lon="9.241298781530597"><ele>91.0</ele><time>2026-04-18T08:21:07.998Z</time></trkpt><trkpt lat="45.33342481273902" lon="9.241089341687104"><ele>91.0</ele><time>2026-04-18T08:21:08.998Z</time></trkpt><trkpt lat="45.3333520229161" lon="9.240881317235973"><ele>91.0</ele><time>2026-04-18T08:21:09.998Z</time></trkpt><trkpt lat="45.33327904572538" lon="9.240692849794517"><ele>91.0</ele><time>2026-04-18T08:21:10.998Z</time></trkpt><trkpt lat="45.33321191527998" lon="9.240494034506867"><ele>91.0</ele><time>2026-04-18T08:21:11.998Z</time></trkpt><trkpt lat="45.3331476982684" lon="9.240315454242111"><ele>91.0</ele><time>2026-04-18T08:21:12.998Z</time></trkpt><trkpt lat="45.33308648333115" lon="9.240141996045265"><ele>90.33333333333333</ele><time>2026-04-18T08:21:13.998Z</time></trkpt><trkpt lat="45.33302005425017" lon="9.239951188149577"><ele>89.66666666666667</ele><time>2026-04-18T08:21:14.999Z</time></trkpt><trkpt lat="45.33295030619518" lon="9.239749337588115"><ele>89.0</ele><time>2026-04-18T08:21:15.999Z</time></trkpt><trkpt lat="45.33287598708687" lon="9.239539325166792"><ele>88.66666666666667</ele><time>2026-04-18T08:21:16.999Z</time></trkpt><trkpt lat="45.332801444314384" lon="9.23932809640424"><ele>88.33333333333333</ele><time>2026-04-18T08:21:17.999Z</time></trkpt><trkpt lat="45.3327192857326" lon="9.239084144038186"><ele>88.0</ele><time>2026-04-18T08:21:18.999Z</time></trkpt><trkpt lat="45.33263526317579" lon="9.23885196217824"><ele>88.66666666666666</ele><time>2026-04-18T08:21:19.999Z</time></trkpt><trkpt lat="45.33255514046904" lon="9.238617580483035"><ele>89.33333333333333</ele><time>2026-04-18T08:21:20.999Z</time></trkpt><trkpt lat="45.332474458911314" lon="9.238393502214693"><ele>90.0</ele><time>2026-04-18T08:21:21.999Z</time></trkpt><trkpt lat="45.33240524400105" lon="9.238199632546547"><ele>89.75</ele><time>2026-04-18T08:21:22.999Z</time></trkpt><trkpt lat="45.33233718053179" lon="9.238019862134829"><ele>89.5</ele><time>2026-04-18T08:21:23.999Z</time></trkpt><trkpt lat="45.332269738628035" lon="9.237829882435152"><ele>89.25</ele><time>2026-04-18T08:21:24.999Z</time></trkpt><trkpt lat="45.332203852379806" lon="9.237649585405716"><ele>89.0</ele><time>2026-04-18T08:21:25.999Z</time></trkpt><trkpt lat="45.332135898200285" lon="9.237459678249566"><ele>89.0</ele><time>2026-04-18T08:21:26.999Z</time></trkpt><trkpt lat="45.33207871239556" lon="9.237280717000122"><ele>89.0</ele><time>2026-04-18T08:21:27.999Z</time></trkpt><trkpt lat="45.33202245471514" lon="9.23713640936123"><ele>89.0</ele><time>2026-04-18T08:21:28.999Z</time></trkpt><trkpt lat="45.33198980257487" lon="9.237044686950757"><ele>89.0</ele><time>2026-04-18T08:21:29.999Z</time></trkpt><trkpt lat="45.33196890782564" lon="9.236937695214962"><ele>89.0</ele><time>2026-04-18T08:21:31.999Z</time></trkpt><trkpt lat="45.33184276595575" lon="9.23700532219061"><ele>89.0</ele><time>2026-04-18T08:21:35Z</time></trkpt><trkpt lat="45.33174877684757" lon="9.237135671927252"><ele>89.0</ele><time>2026-04-18T08:21:37Z</time></trkpt><trkpt lat="45.33166833974215" lon="9.237230082053657"><ele>89.0</ele><time>2026-04-18T08:21:38Z</time></trkpt><trkpt lat="45.331596697870815" lon="9.237349271241104"><ele>89.0</ele><time>2026-04-18T08:21:39Z</time></trkpt><trkpt lat="45.33150586777457" lon="9.237476561958799"><ele>89.0</ele><time>2026-04-18T08:21:40Z</time></trkpt><trkpt lat="45.3314262792063" lon="9.237598469058161"><ele>89.0</ele><time>2026-04-18T08:21:41Z</time></trkpt><trkpt lat="45.33134788747287" lon="9.237723363609312"><ele>89.0</ele><time>2026-04-18T08:21:42Z</time></trkpt><trkpt lat="45.33127259948333" lon="9.237842189183755"><ele>89.0</ele><time>2026-04-18T08:21:43Z</time></trkpt><trkpt lat="45.331193780996166" lon="9.237954492255843"><ele>89.0</ele><time>2026-04-18T08:21:44Z</time></trkpt><trkpt lat="45.33112476400994" lon="9.238054615337836"><ele>89.0</ele><time>2026-04-18T08:21:45Z</time></trkpt><trkpt lat="45.33104948498879" lon="9.23817483063751"><ele>89.0</ele><time>2026-04-18T08:21:46Z</time></trkpt><trkpt lat="45.330973401849526" lon="9.238293542940935"><ele>89.0</ele><time>2026-04-18T08:21:47Z</time></trkpt><trkpt lat="45.33089580913484" lon="9.238410481515809"><ele>89.0</ele><time>2026-04-18T08:21:48Z</time></trkpt><trkpt lat="45.330824114699176" lon="9.238518135709501"><ele>89.0</ele><time>2026-04-18T08:21:49Z</time></trkpt><trkpt lat="45.33076052506525" lon="9.238613531349618"><ele>89.0</ele><time>2026-04-18T08:21:50Z</time></trkpt><trkpt lat="45.33070069550943" lon="9.238706076799744"><ele>89.0</ele><time>2026-04-18T08:21:51Z</time></trkpt><trkpt lat="45.330641285769744" lon="9.238790464374203"><ele>89.0</ele><time>2026-04-18T08:21:52Z</time></trkpt><trkpt lat="45.330580414648296" lon="9.23888171671052"><ele>89.0</ele><time>2026-04-18T08:21:53Z</time></trkpt><trkpt lat="45.33052269351399" lon="9.238972948059118"><ele>89.0</ele><time>2026-04-18T08:21:54Z</time></trkpt><trkpt lat="45.33045775641712" lon="9.239070600483638"><ele>88.83333333333334</ele><time>2026-04-18T08:21:55Z</time></trkpt><trkpt lat="45.33039406501972" lon="9.239168033944262"><ele>88.66666666666667</ele><time>2026-04-18T08:21:56Z</time></trkpt><trkpt lat="45.33033126376902" lon="9.239263584703151"><ele>88.5</ele><time>2026-04-18T08:21:57Z</time></trkpt><trkpt lat="45.33026917568695" lon="9.239355611595752"><ele>88.33333333333333</ele><time>2026-04-18T08:21:58Z</time></trkpt><trkpt lat="45.33020339903474" lon="9.239420716607464"><ele>88.16666666666666</ele><time>2026-04-18T08:21:59Z</time></trkpt><trkpt lat="45.33015210196066" lon="9.239504784973667"><ele>88.0</ele><time>2026-04-18T08:22:00Z</time></trkpt><trkpt lat="45.330109466796735" lon="9.239588491818566"><ele>88.0</ele><time>2026-04-18T08:22:01Z</time></trkpt><trkpt lat="45.33005082135136" lon="9.239657603426915"><ele>88.0</ele><time>2026-04-18T08:22:02Z</time></trkpt><trkpt lat="45.33001206318569" lon="9.239749897419356"><ele>88.0</ele><time>2026-04-18T08:22:03.001Z</time></trkpt><trkpt lat="45.32997517880087" lon="9.239851605133927"><ele>88.0</ele><time>2026-04-18T08:22:04.001Z</time></trkpt><trkpt lat="45.32990960746686" lon="9.239949714675403"><ele>88.0</ele><time>2026-04-18T08:22:05.001Z</time></trkpt><trkpt lat="45.32983443720645" lon="9.240054256395371"><ele>88.0</ele><time>2026-04-18T08:22:06.001Z</time></trkpt><trkpt lat="45.32977248179152" lon="9.24014194993021"><ele>88.16666666666666</ele><time>2026-04-18T08:22:07.001Z</time></trkpt><trkpt lat="45.32972703246198" lon="9.240205375222459"><ele>88.33333333333333</ele><time>2026-04-18T08:22:08.001Z</time></trkpt><trkpt lat="45.32966980836985" lon="9.240265187968623"><ele>88.5</ele><time>2026-04-18T08:22:12.001Z</time></trkpt><trkpt lat="45.32959170849216" lon="9.240432551945467"><ele>88.66666666666667</ele><time>2026-04-18T08:22:14.001Z</time></trkpt><trkpt lat="45.32954127008563" lon="9.240514765152886"><ele>88.83333333333334</ele><time>2026-04-18T08:22:15.001Z</time></trkpt><trkpt lat="45.32949252024925" lon="9.240588972220172"><ele>89.0</ele><time>2026-04-18T08:22:16.001Z</time></trkpt><trkpt lat="45.329379469898065" lon="9.240645006978374"><ele>89.0</ele><time>2026-04-18T08:22:18.001Z</time></trkpt><trkpt lat="45.32930992313916" lon="9.24064056179579"><ele>89.0</ele><time>2026-04-18T08:22:19.001Z</time></trkpt><trkpt lat="45.32922478257409" lon="9.240620795124187"><ele>89.0</ele><time>2026-04-18T08:22:20.001Z</time></trkpt><trkpt lat="45.329133746936385" lon="9.240594618060081"><ele>89.0</ele><time>2026-04-18T08:22:21.001Z</time></trkpt><trkpt lat="45.329047826607614" lon="9.240557955776799"><ele>89.0</ele><time>2026-04-18T08:22:22.001Z</time></trkpt><trkpt lat="45.32896696225138" lon="9.24052419868462"><ele>89.0</ele><time>2026-04-18T08:22:23.001Z</time></trkpt><trkpt lat="45.32890059874221" lon="9.240485088115033"><ele>88.2</ele><time>2026-04-18T08:22:24.001Z</time></trkpt><trkpt lat="45.32884077078376" lon="9.240456940854115"><ele>87.4</ele><time>2026-04-18T08:22:25.001Z</time></trkpt><trkpt lat="45.32877106263516" lon="9.240444105558153"><ele>86.6</ele><time>2026-04-18T08:22:28.001Z</time></trkpt><trkpt lat="45.3287744841441" lon="9.240569443987832"><ele>85.8</ele><time>2026-04-18T08:22:35.002Z</time></trkpt><trkpt lat="45.32880163077719" lon="9.2407552565219"><ele>85.0</ele><time>2026-04-18T08:22:37.002Z</time></trkpt><trkpt lat="45.32880106560358" lon="9.240927680167548"><ele>85.0</ele><time>2026-04-18T08:22:39.002Z</time></trkpt><trkpt lat="45.328802244820444" lon="9.241057960927797"><ele>85.0</ele><time>2026-04-18T08:22:40.002Z</time></trkpt><trkpt lat="45.32881323793701" lon="9.24121432140187"><ele>85.0</ele><time>2026-04-18T08:22:41.002Z</time></trkpt><trkpt lat="45.328825283660684" lon="9.241362334246757"><ele>85.0</ele><time>2026-04-18T08:22:42.002Z</time></trkpt><trkpt lat="45.32885046851105" lon="9.241514508770699"><ele>85.0</ele><time>2026-04-18T08:22:43.002Z</time></trkpt><trkpt lat="45.328869703259606" lon="9.241681823507225"><ele>86.0</ele><time>2026-04-18T08:22:44.002Z</time></trkpt><trkpt lat="45.32891309087294" lon="9.241845150118527"><ele>87.0</ele><time>2026-04-18T08:22:45.002Z</time></trkpt><trkpt lat="45.32895865584135" lon="9.242006517293955"><ele>88.0</ele><time>2026-04-18T08:22:46.002Z</time></trkpt><trkpt lat="45.3289909802468" lon="9.242176432271187"><ele>89.0</ele><time>2026-04-18T08:22:47.002Z</time></trkpt><trkpt lat="45.329034819441034" lon="9.242344191705154"><ele>89.25</ele><time>2026-04-18T08:22:48.002Z</time></trkpt><trkpt lat="45.32908479071346" lon="9.242517447782511"><ele>89.5</ele><time>2026-04-18T08:22:49.002Z</time></trkpt><trkpt lat="45.329133046896246" lon="9.242680990384898"><ele>89.75</ele><time>2026-04-18T08:22:50.002Z</time></trkpt><trkpt lat="45.32918006919853" lon="9.24283611704314"><ele>90.0</ele><time>2026-04-18T08:22:51.002Z</time></trkpt><trkpt lat="45.32924137485487" lon="9.24299255096409"><ele>90.5</ele><time>2026-04-18T08:22:51.997Z</time></trkpt><trkpt lat="45.32930705690991" lon="9.243153162466136"><ele>91.0</ele><time>2026-04-18T08:22:52.998Z</time></trkpt><trkpt lat="45.329370192587476" lon="9.243319272283554"><ele>91.5</ele><time>2026-04-18T08:22:53.998Z</time></trkpt><trkpt lat="45.32943098944748" lon="9.243476461787917"><ele>92.0</ele><time>2026-04-18T08:22:54.998Z</time></trkpt><trkpt lat="45.32949422426978" lon="9.243639941763085"><ele>92.0</ele><time>2026-04-18T08:22:55.998Z</time></trkpt><trkpt lat="45.329558830536484" lon="9.24380941079824"><ele>92.0</ele><time>2026-04-18T08:22:56.998Z</time></trkpt><trkpt lat="45.329619303612496" lon="9.243978843493448"><ele>92.0</ele><time>2026-04-18T08:22:57.998Z</time></trkpt><trkpt lat="45.32968219572836" lon="9.244145676236984"><ele>92.0</ele><time>2026-04-18T08:22:58.998Z</time></trkpt><trkpt lat="45.32974562076829" lon="9.244317574522901"><ele>91.6</ele><time>2026-04-18T08:22:59.999Z</time></trkpt><trkpt lat="45.32980129391417" lon="9.244467573796648"><ele>91.19999999999999</ele><time>2026-04-18T08:23:00.999Z</time></trkpt><trkpt lat="45.329854692937936" lon="9.244602622154728"><ele>90.8</ele><time>2026-04-18T08:23:01.999Z</time></trkpt><trkpt lat="45.32989932989646" lon="9.244717286257455"><ele>90.4</ele><time>2026-04-18T08:23:02.999Z</time></trkpt><trkpt lat="45.32993763065644" lon="9.244820155390325"><ele>90.0</ele><time>2026-04-18T08:23:03.999Z</time></trkpt><trkpt lat="45.329974139698614" lon="9.244918833090843"><ele>90.0</ele><time>2026-04-18T08:23:04.999Z</time></trkpt><trkpt lat="45.330007930684225" lon="9.24501048021347"><ele>90.0</ele><time>2026-04-18T08:23:05.999Z</time></trkpt><trkpt lat="45.330037356250614" lon="9.245101055226257"><ele>90.0</ele><time>2026-04-18T08:23:06.999Z</time></trkpt><trkpt lat="45.33005376985411" lon="9.245193936967446"><ele>90.0</ele><time>2026-04-18T08:23:07.999Z</time></trkpt><trkpt lat="45.33005865727737" lon="9.245305224380685"><ele>90.0</ele><time>2026-04-18T08:23:08.999Z</time></trkpt><trkpt lat="45.330047764687095" lon="9.24542348129611"><ele>90.0</ele><time>2026-04-18T08:23:09.999Z</time></trkpt><trkpt lat="45.330019625723914" lon="9.245533756748957"><ele>90.0</ele><time>2026-04-18T08:23:10.999Z</time></trkpt><trkpt lat="45.329971686997254" lon="9.245629388231078"><ele>90.0</ele><time>2026-04-18T08:23:11.999Z</time></trkpt><trkpt lat="45.32989845798686" lon="9.245706971655855"><ele>90.0</ele><time>2026-04-18T08:23:13Z</time></trkpt><trkpt lat="45.329806841888484" lon="9.245782697120418"><ele>90.0</ele><time>2026-04-18T08:23:14Z</time></trkpt><trkpt lat="45.32969903887451" lon="9.245860999205723"><ele>90.0</ele><time>2026-04-18T08:23:15Z</time></trkpt><trkpt lat="45.32958577525947" lon="9.245951975302434"><ele>90.0</ele><time>2026-04-18T08:23:16Z</time></trkpt><trkpt lat="45.32946779326322" lon="9.246050051577873"><ele>90.0</ele><time>2026-04-18T08:23:17Z</time></trkpt><trkpt lat="45.32934645762675" lon="9.246146357997482"><ele>90.0</ele><time>2026-04-18T08:23:18Z</time></trkpt><trkpt lat="45.3292317570327" lon="9.246238941493342"><ele>90.0</ele><time>2026-04-18T08:23:19Z</time></trkpt><trkpt lat="45.329114277250014" lon="9.246337300127633"><ele>90.0</ele><time>2026-04-18T08:23:20Z</time></trkpt><trkpt lat="45.32899112359564" lon="9.2464422037048"><ele>90.0</ele><time>2026-04-18T08:23:21Z</time></trkpt><trkpt lat="45.3288690181873" lon="9.246540567262704"><ele>90.0</ele><time>2026-04-18T08:23:22Z</time></trkpt><trkpt lat="45.32875856935156" lon="9.246637809008625"><ele>90.0</ele><time>2026-04-18T08:23:23Z</time></trkpt><trkpt lat="45.328651438892976" lon="9.246732555370963"><ele>89.66666666666667</ele><time>2026-04-18T08:23:24Z</time></trkpt><trkpt lat="45.32852600645639" lon="9.24683967399539"><ele>89.33333333333334</ele><time>2026-04-18T08:23:25Z</time></trkpt><trkpt lat="45.32839374231717" lon="9.246955156748605"><ele>89.0</ele><time>2026-04-18T08:23:26Z</time></trkpt><trkpt lat="45.3282585692656" lon="9.247081078864975"><ele>89.0</ele><time>2026-04-18T08:23:27Z</time></trkpt><trkpt lat="45.328110982946605" lon="9.247204056389924"><ele>89.0</ele><time>2026-04-18T08:23:28Z</time></trkpt><trkpt lat="45.32797215678438" lon="9.247324186554936"><ele>89.0</ele><time>2026-04-18T08:23:29Z</time></trkpt><trkpt lat="45.32783529456898" lon="9.247446237388576"><ele>88.66666666666667</ele><time>2026-04-18T08:23:30.001Z</time></trkpt><trkpt lat="45.327694083641745" lon="9.247567960156182"><ele>88.33333333333333</ele><time>2026-04-18T08:23:31.001Z</time></trkpt><trkpt lat="45.32754323238914" lon="9.247700292413827"><ele>88.0</ele><time>2026-04-18T08:23:32.001Z</time></trkpt><trkpt lat="45.327390106340296" lon="9.24783514578181"><ele>88.0</ele><time>2026-04-18T08:23:33.001Z</time></trkpt><trkpt lat="45.32723452761267" lon="9.247972215501083"><ele>88.0</ele><time>2026-04-18T08:23:34.001Z</time></trkpt><trkpt lat="45.3270731905722" lon="9.248114498101499"><ele>88.0</ele><time>2026-04-18T08:23:35.001Z</time></trkpt><trkpt lat="45.32690980110809" lon="9.248257816353052"><ele>88.33333333333333</ele><time>2026-04-18T08:23:36.001Z</time></trkpt><trkpt lat="45.32674030362038" lon="9.24840157788771"><ele>88.66666666666667</ele><time>2026-04-18T08:23:37.001Z</time></trkpt><trkpt lat="45.326574017257265" lon="9.248541279572212"><ele>89.0</ele><time>2026-04-18T08:23:38.001Z</time></trkpt><trkpt lat="45.32640597052613" lon="9.248679360174988"><ele>88.66666666666667</ele><time>2026-04-18T08:23:39.001Z</time></trkpt><trkpt lat="45.32624435688627" lon="9.248812306252653"><ele>88.33333333333333</ele><time>2026-04-18T08:23:40.001Z</time></trkpt><trkpt lat="45.32607845134441" lon="9.24894646973168"><ele>88.0</ele><time>2026-04-18T08:23:41.001Z</time></trkpt><trkpt lat="45.325911506902756" lon="9.249081221710117"><ele>88.0</ele><time>2026-04-18T08:23:42.001Z</time></trkpt><trkpt lat="45.325741559932055" lon="9.249219564566985"><ele>88.0</ele><time>2026-04-18T08:23:43.001Z</time></trkpt><trkpt lat="45.32557169434228" lon="9.249357349364917"><ele>88.0</ele><time>2026-04-18T08:23:44.001Z</time></trkpt><trkpt lat="45.32540241053827" lon="9.249496151994704"><ele>88.0</ele><time>2026-04-18T08:23:45.001Z</time></trkpt><trkpt lat="45.325234404887205" lon="9.24963418403595"><ele>88.0</ele><time>2026-04-18T08:23:46.001Z</time></trkpt><trkpt lat="45.325064239466826" lon="9.249775077959391"><ele>88.0</ele><time>2026-04-18T08:23:47.001Z</time></trkpt><trkpt lat="45.32489603143351" lon="9.249915274204923"><ele>88.0</ele><time>2026-04-18T08:23:48.001Z</time></trkpt><trkpt lat="45.32472571449915" lon="9.250060085577793"><ele>88.0</ele><time>2026-04-18T08:23:49.001Z</time></trkpt><trkpt lat="45.32455692886185" lon="9.250204216522741"><ele>88.0</ele><time>2026-04-18T08:23:50.001Z</time></trkpt><trkpt lat="45.32438687533556" lon="9.25034897861801"><ele>88.0</ele><time>2026-04-18T08:23:51.001Z</time></trkpt><trkpt lat="45.32421783291223" lon="9.250494299218873"><ele>88.0</ele><time>2026-04-18T08:23:52.001Z</time></trkpt><trkpt lat="45.32403651088336" lon="9.250621205804586"><ele>88.0</ele><time>2026-04-18T08:23:53.001Z</time></trkpt><trkpt lat="45.323852374395194" lon="9.25077793088989"><ele>88.5</ele><time>2026-04-18T08:23:54.001Z</time></trkpt><trkpt lat="45.32365896244363" lon="9.250943310225589"><ele>89.0</ele><time>2026-04-18T08:23:55.001Z</time></trkpt><trkpt lat="45.32345814420633" lon="9.251115231091651"><ele>89.0</ele><time>2026-04-18T08:23:56.001Z</time></trkpt><trkpt lat="45.32325473839009" lon="9.251289722259424"><ele>89.0</ele><time>2026-04-18T08:23:57.001Z</time></trkpt><trkpt lat="45.32304866507487" lon="9.251466502914809"><ele>88.0</ele><time>2026-04-18T08:23:58.002Z</time></trkpt><trkpt lat="45.32285583154991" lon="9.25163123278991"><ele>87.0</ele><time>2026-04-18T08:23:59.002Z</time></trkpt><trkpt lat="45.32266987090294" lon="9.251814937533892"><ele>87.0</ele><time>2026-04-18T08:24:00.002Z</time></trkpt><trkpt lat="45.32247167576237" lon="9.25198088366758"><ele>87.0</ele><time>2026-04-18T08:24:01.002Z</time></trkpt><trkpt lat="45.32227285542895" lon="9.252150141556887"><ele>88.0</ele><time>2026-04-18T08:24:02.002Z</time></trkpt><trkpt lat="45.32207465224578" lon="9.25231670671652"><ele>89.0</ele><time>2026-04-18T08:24:03.002Z</time></trkpt><trkpt lat="45.32187316843028" lon="9.252481934420992"><ele>89.0</ele><time>2026-04-18T08:24:04.002Z</time></trkpt><trkpt lat="45.32167577371193" lon="9.252642569530614"><ele>89.0</ele><time>2026-04-18T08:24:05.002Z</time></trkpt><trkpt lat="45.321479845354226" lon="9.252802430361243"><ele>89.0</ele><time>2026-04-18T08:24:06.002Z</time></trkpt><trkpt lat="45.32128801678441" lon="9.252961473895505"><ele>89.0</ele><time>2026-04-18T08:24:07.002Z</time></trkpt><trkpt lat="45.32108823219735" lon="9.25310211349836"><ele>89.0</ele><time>2026-04-18T08:24:08.002Z</time></trkpt><trkpt lat="45.32089624364376" lon="9.253263160869116"><ele>89.0</ele><time>2026-04-18T08:24:09.002Z</time></trkpt><trkpt lat="45.32070604157166" lon="9.253425237534286"><ele>89.0</ele><time>2026-04-18T08:24:10.002Z</time></trkpt><trkpt lat="45.32051767465955" lon="9.253587471645718"><ele>89.0</ele><time>2026-04-18T08:24:11.002Z</time></trkpt><trkpt lat="45.32033728203602" lon="9.253763951894825"><ele>88.66666666666667</ele><time>2026-04-18T08:24:12.002Z</time></trkpt><trkpt lat="45.3201506682665" lon="9.253922363979374"><ele>88.33333333333333</ele><time>2026-04-18T08:24:13.002Z</time></trkpt><trkpt lat="45.31996377215722" lon="9.254080300481082"><ele>88.0</ele><time>2026-04-18T08:24:14.002Z</time></trkpt><trkpt lat="45.31977787558308" lon="9.254238178909405"><ele>87.33333333333333</ele><time>2026-04-18T08:24:15.002Z</time></trkpt><trkpt lat="45.31959314037638" lon="9.254397260130627"><ele>86.66666666666667</ele><time>2026-04-18T08:24:16.002Z</time></trkpt><trkpt lat="45.31941635172722" lon="9.254549268414552"><ele>86.0</ele><time>2026-04-18T08:24:17.002Z</time></trkpt><trkpt lat="45.3192483069408" lon="9.254694247372711"><ele>87.0</ele><time>2026-04-18T08:24:18.002Z</time></trkpt><trkpt lat="45.31908970046506" lon="9.254831607467148"><ele>88.0</ele><time>2026-04-18T08:24:19.002Z</time></trkpt><trkpt lat="45.31893890154267" lon="9.254961707113623"><ele>89.0</ele><time>2026-04-18T08:24:20.002Z</time></trkpt><trkpt lat="45.31879698552284" lon="9.255082457077297"><ele>89.0</ele><time>2026-04-18T08:24:21.002Z</time></trkpt><trkpt lat="45.31865922091969" lon="9.25519915990436"><ele>89.0</ele><time>2026-04-18T08:24:22.002Z</time></trkpt><trkpt lat="45.31852575240288" lon="9.2553134803824"><ele>89.0</ele><time>2026-04-18T08:24:23.002Z</time></trkpt><trkpt lat="45.31839231122735" lon="9.255426484367636"><ele>89.0</ele><time>2026-04-18T08:24:24.002Z</time></trkpt><trkpt lat="45.3182571846314" lon="9.25554323411581"><ele>89.0</ele><time>2026-04-18T08:24:25.002Z</time></trkpt><trkpt lat="45.31811676925665" lon="9.255664837096425"><ele>89.0</ele><time>2026-04-18T08:24:26.002Z</time></trkpt><trkpt lat="45.317969848513414" lon="9.255793411110005"><ele>89.33333333333334</ele><time>2026-04-18T08:24:27.002Z</time></trkpt><trkpt lat="45.31781398738171" lon="9.25593079230934"><ele>89.66666666666667</ele><time>2026-04-18T08:24:28.002Z</time></trkpt><trkpt lat="45.317654833367065" lon="9.256068797070263"><ele>90.0</ele><time>2026-04-18T08:24:29.002Z</time></trkpt><trkpt lat="45.317497459995835" lon="9.256205236593424"><ele>90.0</ele><time>2026-04-18T08:24:30.003Z</time></trkpt><trkpt lat="45.31733881993201" lon="9.256339250876383"><ele>90.0</ele><time>2026-04-18T08:24:31.003Z</time></trkpt><trkpt lat="45.31718512222478" lon="9.256462686190885"><ele>90.0</ele><time>2026-04-18T08:24:32.003Z</time></trkpt><trkpt lat="45.31703563280996" lon="9.256592064153256"><ele>89.66666666666667</ele><time>2026-04-18T08:24:33.003Z</time></trkpt><trkpt lat="45.316893602801315" lon="9.256718880144327"><ele>89.33333333333334</ele><time>2026-04-18T08:24:34.003Z</time></trkpt><trkpt lat="45.316750235150316" lon="9.25684119268207"><ele>89.0</ele><time>2026-04-18T08:24:35.003Z</time></trkpt><trkpt lat="45.316608166744956" lon="9.256965749522827"><ele>89.0</ele><time>2026-04-18T08:24:36.003Z</time></trkpt><trkpt lat="45.316464289940804" lon="9.25709007835868"><ele>89.0</ele><time>2026-04-18T08:24:37.003Z</time></trkpt><trkpt lat="45.31632079862744" lon="9.257218863098348"><ele>89.0</ele><time>2026-04-18T08:24:38.003Z</time></trkpt><trkpt lat="45.316179354062434" lon="9.25734521202435"><ele>88.75</ele><time>2026-04-18T08:24:39.003Z</time></trkpt><trkpt lat="45.316050231588605" lon="9.257463935014288"><ele>88.5</ele><time>2026-04-18T08:24:40.003Z</time></trkpt><trkpt lat="45.31592541437154" lon="9.257574904217845"><ele>88.25</ele><time>2026-04-18T08:24:41.003Z</time></trkpt><trkpt lat="45.3158059515157" lon="9.257681956451798"><ele>88.0</ele><time>2026-04-18T08:24:42.003Z</time></trkpt><trkpt lat="45.315687350258706" lon="9.257789042667"><ele>88.25</ele><time>2026-04-18T08:24:43.003Z</time></trkpt><trkpt lat="45.31556852033835" lon="9.257898805466665"><ele>88.5</ele><time>2026-04-18T08:24:44.003Z</time></trkpt><trkpt lat="45.3154508185115" lon="9.25801179850886"><ele>88.75</ele><time>2026-04-18T08:24:45.003Z</time></trkpt><trkpt lat="45.31533018021539" lon="9.258123973344938"><ele>89.0</ele><time>2026-04-18T08:24:46.003Z</time></trkpt><trkpt lat="45.31520833998255" lon="9.258236840780768"><ele>89.0</ele><time>2026-04-18T08:24:47.003Z</time></trkpt><trkpt lat="45.31508424036228" lon="9.258349963793505"><ele>89.0</ele><time>2026-04-18T08:24:48.003Z</time></trkpt><trkpt lat="45.31496277757598" lon="9.258457626807967"><ele>89.0</ele><time>2026-04-18T08:24:49.003Z</time></trkpt><trkpt lat="45.3148439637075" lon="9.25856538621935"><ele>89.0</ele><time>2026-04-18T08:24:50.003Z</time></trkpt><trkpt lat="45.31473132736412" lon="9.258671607202562"><ele>88.75</ele><time>2026-04-18T08:24:51.003Z</time></trkpt><trkpt lat="45.314624056936765" lon="9.258773414752273"><ele>88.5</ele><time>2026-04-18T08:24:52.003Z</time></trkpt><trkpt lat="45.31452320754617" lon="9.258867372521989"><ele>88.25</ele><time>2026-04-18T08:24:53.003Z</time></trkpt><trkpt lat="45.314430771650976" lon="9.258967162565325"><ele>88.0</ele><time>2026-04-18T08:24:54.003Z</time></trkpt><trkpt lat="45.31432980397431" lon="9.259063627265302"><ele>88.0</ele><time>2026-04-18T08:24:55.003Z</time></trkpt><trkpt lat="45.31422820953578" lon="9.259160521569337"><ele>88.0</ele><time>2026-04-18T08:24:56.003Z</time></trkpt><trkpt lat="45.31411818423491" lon="9.259259858869937"><ele>88.0</ele><time>2026-04-18T08:24:57.003Z</time></trkpt><trkpt lat="45.31402312607034" lon="9.259348647286785"><ele>88.0</ele><time>2026-04-18T08:24:57.998Z</time></trkpt><trkpt lat="45.31394543223243" lon="9.259422688029456"><ele>88.0</ele><time>2026-04-18T08:24:58.998Z</time></trkpt><trkpt lat="45.313877778744164" lon="9.259487946230584"><ele>88.0</ele><time>2026-04-18T08:24:59.998Z</time></trkpt><trkpt lat="45.313808374041685" lon="9.259552992255585"><ele>88.0</ele><time>2026-04-18T08:25:00.998Z</time></trkpt><trkpt lat="45.313725090738366" lon="9.259634630539997"><ele>88.0</ele><time>2026-04-18T08:25:01.998Z</time></trkpt><trkpt lat="45.313630744345836" lon="9.259728323216665"><ele>88.0</ele><time>2026-04-18T08:25:02.999Z</time></trkpt><trkpt lat="45.31353329291575" lon="9.25982227525183"><ele>87.80000000000001</ele><time>2026-04-18T08:25:03.999Z</time></trkpt><trkpt lat="45.31343819826134" lon="9.259911989633602"><ele>87.6</ele><time>2026-04-18T08:25:04.999Z</time></trkpt><trkpt lat="45.31335038045693" lon="9.259995049075664"><ele>87.4</ele><time>2026-04-18T08:25:05.999Z</time></trkpt><trkpt lat="45.31327691021964" lon="9.260063342539036"><ele>87.19999999999999</ele><time>2026-04-18T08:25:06.999Z</time></trkpt><trkpt lat="45.313203178807555" lon="9.260133319588126"><ele>87.0</ele><time>2026-04-18T08:25:07.999Z</time></trkpt><trkpt lat="45.31313382149026" lon="9.260204857555852"><ele>87.0</ele><time>2026-04-18T08:25:08.999Z</time></trkpt><trkpt lat="45.31307297061681" lon="9.260268512883954"><ele>87.0</ele><time>2026-04-18T08:25:09.999Z</time></trkpt><trkpt lat="45.31299949290702" lon="9.260313684357628"><ele>87.0</ele><time>2026-04-18T08:25:10.999Z</time></trkpt><trkpt lat="45.312924391538694" lon="9.26038577170584"><ele>87.0</ele><time>2026-04-18T08:25:11.999Z</time></trkpt><trkpt lat="45.312853917371434" lon="9.260483475212895"><ele>87.0</ele><time>2026-04-18T08:25:12.999Z</time></trkpt><trkpt lat="45.312765987633426" lon="9.260555649043365"><ele>87.0</ele><time>2026-04-18T08:25:13.999Z</time></trkpt><trkpt lat="45.3126818725379" lon="9.260633196708644"><ele>87.19999999999999</ele><time>2026-04-18T08:25:14.999Z</time></trkpt><trkpt lat="45.31258713482305" lon="9.260720713956726"><ele>87.4</ele><time>2026-04-18T08:25:15.999Z</time></trkpt><trkpt lat="45.31249433854173" lon="9.26081096715539"><ele>87.6</ele><time>2026-04-18T08:25:17Z</time></trkpt><trkpt lat="45.31240709994379" lon="9.260902197641597"><ele>87.80000000000001</ele><time>2026-04-18T08:25:18Z</time></trkpt><trkpt lat="45.31231610490115" lon="9.260989138953077"><ele>88.0</ele><time>2026-04-18T08:25:19Z</time></trkpt><trkpt lat="45.312222137794414" lon="9.261079459727238"><ele>88.0</ele><time>2026-04-18T08:25:20Z</time></trkpt><trkpt lat="45.312140801195284" lon="9.261164166321027"><ele>88.0</ele><time>2026-04-18T08:25:21Z</time></trkpt><trkpt lat="45.31206162098015" lon="9.261242044057493"><ele>88.0</ele><time>2026-04-18T08:25:22Z</time></trkpt><trkpt lat="45.31198958057202" lon="9.261316079486953"><ele>88.0</ele><time>2026-04-18T08:25:23Z</time></trkpt><trkpt lat="45.31191813414442" lon="9.261383243218502"><ele>88.0</ele><time>2026-04-18T08:25:24Z</time></trkpt><trkpt lat="45.311844064410145" lon="9.2614527343216"><ele>88.16666666666666</ele><time>2026-04-18T08:25:25Z</time></trkpt><trkpt lat="45.31176679173432" lon="9.2615176803258"><ele>88.33333333333333</ele><time>2026-04-18T08:25:26Z</time></trkpt><trkpt lat="45.311692405461464" lon="9.261583301872037"><ele>88.5</ele><time>2026-04-18T08:25:27Z</time></trkpt><trkpt lat="45.311613250758214" lon="9.261649415140797"><ele>88.66666666666667</ele><time>2026-04-18T08:25:28Z</time></trkpt><trkpt lat="45.311536509744315" lon="9.261712180044455"><ele>88.83333333333334</ele><time>2026-04-18T08:25:29Z</time></trkpt><trkpt lat="45.311464665051844" lon="9.26177511790907"><ele>89.0</ele><time>2026-04-18T08:25:30Z</time></trkpt><trkpt lat="45.31139743490674" lon="9.261834660534623"><ele>89.0</ele><time>2026-04-18T08:25:31Z</time></trkpt><trkpt lat="45.311329941836966" lon="9.26189277124068"><ele>89.0</ele><time>2026-04-18T08:25:32Z</time></trkpt><trkpt lat="45.311264013283754" lon="9.261949417128506"><ele>89.0</ele><time>2026-04-18T08:25:33Z</time></trkpt><trkpt lat="45.311196442618034" lon="9.262007821925428"><ele>89.0</ele><time>2026-04-18T08:25:34Z</time></trkpt><trkpt lat="45.31113022505265" lon="9.262060788328526"><ele>89.0</ele><time>2026-04-18T08:25:35Z</time></trkpt><trkpt lat="45.311065833996025" lon="9.262112788094813"><ele>89.0</ele><time>2026-04-18T08:25:36.001Z</time></trkpt><trkpt lat="45.31100365539598" lon="9.262166203714798"><ele>89.0</ele><time>2026-04-18T08:25:37.001Z</time></trkpt><trkpt lat="45.31094630979173" lon="9.262210872857876"><ele>89.0</ele><time>2026-04-18T08:25:38.001Z</time></trkpt><trkpt lat="45.310846266535115" lon="9.262303837740127"><ele>89.0</ele><time>2026-04-18T08:25:40.001Z</time></trkpt><trkpt lat="45.310743590280055" lon="9.262404403034175"><ele>89.0</ele><time>2026-04-18T08:25:42.001Z</time></trkpt><trkpt lat="45.31069072440391" lon="9.26245439568683"><ele>89.0</ele><time>2026-04-18T08:25:43.001Z</time></trkpt><trkpt lat="45.31058941632732" lon="9.262545591740855"><ele>88.66666666666667</ele><time>2026-04-18T08:25:45.001Z</time></trkpt><trkpt lat="45.3105362368222" lon="9.262595414483593"><ele>88.33333333333334</ele><time>2026-04-18T08:25:46.001Z</time></trkpt><trkpt lat="45.31043541083739" lon="9.262690432082938"><ele>88.0</ele><time>2026-04-18T08:25:48.001Z</time></trkpt><trkpt lat="45.31038325162105" lon="9.262743004582788"><ele>87.66666666666667</ele><time>2026-04-18T08:25:49.001Z</time></trkpt><trkpt lat="45.31032134658386" lon="9.262787784815018"><ele>87.33333333333333</ele><time>2026-04-18T08:25:50.001Z</time></trkpt><trkpt lat="45.31029983613043" lon="9.262929783988097"><ele>87.0</ele><time>2026-04-18T08:25:51.001Z</time></trkpt><trkpt lat="45.310290524784406" lon="9.263058615687132"><ele>87.25</ele><time>2026-04-18T08:25:52.001Z</time></trkpt><trkpt lat="45.31028322063025" lon="9.263207082667154"><ele>87.5</ele><time>2026-04-18T08:25:53.001Z</time></trkpt><trkpt lat="45.3102717849254" lon="9.26337028389452"><ele>87.75</ele><time>2026-04-18T08:25:54.001Z</time></trkpt><trkpt lat="45.3102604482641" lon="9.263546811389034"><ele>88.0</ele><time>2026-04-18T08:25:55.001Z</time></trkpt><trkpt lat="45.310231655219205" lon="9.263721972063792"><ele>88.0</ele><time>2026-04-18T08:25:56.001Z</time></trkpt><trkpt lat="45.31018944753858" lon="9.263902676703923"><ele>88.0</ele><time>2026-04-18T08:25:57.001Z</time></trkpt><trkpt lat="45.31015065062938" lon="9.26408540948556"><ele>88.0</ele><time>2026-04-18T08:25:58.001Z</time></trkpt><trkpt lat="45.31011484220893" lon="9.264263561253932"><ele>88.0</ele><time>2026-04-18T08:25:59.001Z</time></trkpt><trkpt lat="45.3100545732129" lon="9.264422327305885"><ele>88.0</ele><time>2026-04-18T08:26:00.001Z</time></trkpt><trkpt lat="45.31001080322545" lon="9.264585487287551"><ele>88.0</ele><time>2026-04-18T08:26:01.001Z</time></trkpt><trkpt lat="45.30993177283328" lon="9.264723521071959"><ele>88.0</ele><time>2026-04-18T08:26:02.001Z</time></trkpt><trkpt lat="45.30985040039272" lon="9.264857552932252"><ele>88.0</ele><time>2026-04-18T08:26:03.001Z</time></trkpt><trkpt lat="45.309756219820095" lon="9.264975532533779"><ele>88.0</ele><time>2026-04-18T08:26:04.001Z</time></trkpt><trkpt lat="45.309641923015704" lon="9.265095080292367"><ele>88.0</ele><time>2026-04-18T08:26:05.002Z</time></trkpt><trkpt lat="45.309521320742725" lon="9.26521414229909"><ele>88.0</ele><time>2026-04-18T08:26:06.002Z</time></trkpt><trkpt lat="45.309389831186" lon="9.265339248753767"><ele>88.0</ele><time>2026-04-18T08:26:07.002Z</time></trkpt><trkpt lat="45.309277412244064" lon="9.265448967056935"><ele>88.0</ele><time>2026-04-18T08:26:08.002Z</time></trkpt><trkpt lat="45.30915856599612" lon="9.265567348729208"><ele>88.0</ele><time>2026-04-18T08:26:09.002Z</time></trkpt><trkpt lat="45.30905767602351" lon="9.265671408462085"><ele>88.0</ele><time>2026-04-18T08:26:10.002Z</time></trkpt><trkpt lat="45.30896012099874" lon="9.265771429365888"><ele>88.0</ele><time>2026-04-18T08:26:11.002Z</time></trkpt><trkpt lat="45.30888073388927" lon="9.265860668576577"><ele>88.0</ele><time>2026-04-18T08:26:12.002Z</time></trkpt><trkpt lat="45.30879882310709" lon="9.265958212925115"><ele>88.0</ele><time>2026-04-18T08:26:13.002Z</time></trkpt><trkpt lat="45.3087123200166" lon="9.266074851800795"><ele>88.0</ele><time>2026-04-18T08:26:14.002Z</time></trkpt><trkpt lat="45.30862821107318" lon="9.266195528860473"><ele>88.0</ele><time>2026-04-18T08:26:15.002Z</time></trkpt><trkpt lat="45.30854504279405" lon="9.266327389692195"><ele>87.75</ele><time>2026-04-18T08:26:16.002Z</time></trkpt><trkpt lat="45.30846382167922" lon="9.266457842818294"><ele>87.5</ele><time>2026-04-18T08:26:17.002Z</time></trkpt><trkpt lat="45.308389132806525" lon="9.26658805240024"><ele>87.25</ele><time>2026-04-18T08:26:18.002Z</time></trkpt><trkpt lat="45.30832201950594" lon="9.266717489194138"><ele>87.0</ele><time>2026-04-18T08:26:19.002Z</time></trkpt><trkpt lat="45.30826302479234" lon="9.266850175458563"><ele>87.0</ele><time>2026-04-18T08:26:20.002Z</time></trkpt><trkpt lat="45.30821597723435" lon="9.266980897459456"><ele>87.0</ele><time>2026-04-18T08:26:21.002Z</time></trkpt><trkpt lat="45.30817850589444" lon="9.267108590696989"><ele>87.0</ele><time>2026-04-18T08:26:22.002Z</time></trkpt><trkpt lat="45.30813921959625" lon="9.267226140383295"><ele>87.0</ele><time>2026-04-18T08:26:23.002Z</time></trkpt><trkpt lat="45.30810070601491" lon="9.26735228708585"><ele>87.0</ele><time>2026-04-18T08:26:24.002Z</time></trkpt><trkpt lat="45.308043053821415" lon="9.267476689430984"><ele>87.0</ele><time>2026-04-18T08:26:25.002Z</time></trkpt><trkpt lat="45.30800809866018" lon="9.26762305385822"><ele>87.0</ele><time>2026-04-18T08:26:26.002Z</time></trkpt><trkpt lat="45.307951379106456" lon="9.267755384738859"><ele>87.0</ele><time>2026-04-18T08:26:27.002Z</time></trkpt><trkpt lat="45.307896496591965" lon="9.267873443222134"><ele>87.0</ele><time>2026-04-18T08:26:28.002Z</time></trkpt><trkpt lat="45.3078482691481" lon="9.26798222710706"><ele>87.0</ele><time>2026-04-18T08:26:29.002Z</time></trkpt><trkpt lat="45.30780173450362" lon="9.268072771086734"><ele>86.8</ele><time>2026-04-18T08:26:30.002Z</time></trkpt><trkpt lat="45.307763065499486" lon="9.268168671411498"><ele>86.6</ele><time>2026-04-18T08:26:32.002Z</time></trkpt><trkpt lat="45.307664566833395" lon="9.268203952056934"><ele>86.39999999999999</ele><time>2026-04-18T08:26:38.003Z</time></trkpt><trkpt lat="45.3075746979734" lon="9.268275798461012"><ele>86.19999999999999</ele><time>2026-04-18T08:26:40.003Z</time></trkpt><trkpt lat="45.30749902681315" lon="9.268411042720471"><ele>86.0</ele><time>2026-04-18T08:26:42.003Z</time></trkpt><trkpt lat="45.30749512490022" lon="9.26851680382544"><ele>86.0</ele><time>2026-04-18T08:26:43.003Z</time></trkpt><trkpt lat="45.307509826059935" lon="9.268610057390186"><ele>86.0</ele><time>2026-04-18T08:26:44.003Z</time></trkpt><trkpt lat="45.30761038404172" lon="9.268751131761372"><ele>86.0</ele><time>2026-04-18T08:26:46.003Z</time></trkpt><trkpt lat="45.30773412491507" lon="9.268803641169058"><ele>86.0</ele><time>2026-04-18T08:26:48.003Z</time></trkpt><trkpt lat="45.30782975040887" lon="9.268821149152737"><ele>86.0</ele><time>2026-04-18T08:26:50.003Z</time></trkpt><trkpt lat="45.30789425838978" lon="9.268629302135025"><ele>86.0</ele><time>2026-04-18T08:26:52.003Z</time></trkpt><trkpt lat="45.30788185791232" lon="9.268485476436632"><ele>86.0</ele><time>2026-04-18T08:26:54.003Z</time></trkpt><trkpt lat="45.30780696182715" lon="9.268354993548797"><ele>86.0</ele><time>2026-04-18T08:26:56.003Z</time></trkpt><trkpt lat="45.30770631218442" lon="9.268267555755758"><ele>86.0</ele><time>2026-04-18T08:26:58.003Z</time></trkpt><trkpt lat="45.30764555956549" lon="9.26823639461883"><ele>86.0</ele><time>2026-04-18T08:26:59.003Z</time></trkpt><trkpt lat="45.307521271790925" lon="9.26818170384407"><ele>86.0</ele><time>2026-04-18T08:27:01.003Z</time></trkpt><trkpt lat="45.30746375573374" lon="9.268142768113242"><ele>86.0</ele><time>2026-04-18T08:27:02.003Z</time></trkpt><trkpt lat="45.30736563989869" lon="9.268018710535772"><ele>86.0</ele><time>2026-04-18T08:27:03.999Z</time></trkpt><trkpt lat="45.30731917038988" lon="9.267943523547851"><ele>86.0</ele><time>2026-04-18T08:27:04.999Z</time></trkpt><trkpt lat="45.307277054447546" lon="9.267869950890006"><ele>86.0</ele><time>2026-04-18T08:27:05.999Z</time></trkpt><trkpt lat="45.307234621249414" lon="9.267794254037517"><ele>86.0</ele><time>2026-04-18T08:27:06.999Z</time></trkpt><trkpt lat="45.30719203620342" lon="9.267722189886417"><ele>86.0</ele><time>2026-04-18T08:27:07.999Z</time></trkpt><trkpt lat="45.30712185083437" lon="9.267590927857086"><ele>86.0</ele><time>2026-04-18T08:27:09.999Z</time></trkpt><trkpt lat="45.30706700197671" lon="9.26749859132371"><ele>86.0</ele><time>2026-04-18T08:27:11.999Z</time></trkpt><trkpt lat="45.307023976548976" lon="9.26743068386083"><ele>86.0</ele><time>2026-04-18T08:27:22Z</time></trkpt><trkpt lat="45.30705572976732" lon="9.267518990904666"><ele>86.0</ele><time>2026-04-18T08:27:27Z</time></trkpt><trkpt lat="45.307098035511" lon="9.267590639242433"><ele>86.0</ele><time>2026-04-18T08:27:28Z</time></trkpt><trkpt lat="45.30715076390605" lon="9.267679938629742"><ele>86.0</ele><time>2026-04-18T08:27:29Z</time></trkpt><trkpt lat="45.30723965608393" lon="9.267832140139737"><ele>86.0</ele><time>2026-04-18T08:27:30Z</time></trkpt><trkpt lat="45.307291936261606" lon="9.267998339794838"><ele>86.0</ele><time>2026-04-18T08:27:31Z</time></trkpt><trkpt lat="45.30734184727848" lon="9.26809867679454"><ele>86.0</ele><time>2026-04-18T08:27:32Z</time></trkpt><trkpt lat="45.30738929866798" lon="9.268173497918049"><ele>86.0</ele><time>2026-04-18T08:27:33Z</time></trkpt><trkpt lat="45.307422099539046" lon="9.268258675882405"><ele>86.0</ele><time>2026-04-18T08:27:34Z</time></trkpt><trkpt lat="45.307466607365384" lon="9.268391382293052"><ele>86.0</ele><time>2026-04-18T08:27:35Z</time></trkpt><trkpt lat="45.30750308834617" lon="9.268534649702199"><ele>86.0</ele><time>2026-04-18T08:27:36Z</time></trkpt><trkpt lat="45.30754064696069" lon="9.268647995340187"><ele>86.0</ele><time>2026-04-18T08:27:37Z</time></trkpt><trkpt lat="45.307598659889365" lon="9.268750378354314"><ele>86.0</ele><time>2026-04-18T08:27:38.001Z</time></trkpt><trkpt lat="45.30768703761043" lon="9.268833596750737"><ele>86.0</ele><time>2026-04-18T08:27:39.001Z</time></trkpt><trkpt lat="45.30778897234609" lon="9.268920542671939"><ele>86.0</ele><time>2026-04-18T08:27:40.001Z</time></trkpt><trkpt lat="45.30789075708345" lon="9.269031788529908"><ele>86.0</ele><time>2026-04-18T08:27:41.001Z</time></trkpt><trkpt lat="45.30799046764496" lon="9.269166864349963"><ele>86.0</ele><time>2026-04-18T08:27:42.001Z</time></trkpt><trkpt lat="45.30808411247307" lon="9.269316393488316"><ele>86.25</ele><time>2026-04-18T08:27:43.001Z</time></trkpt><trkpt lat="45.308169247572515" lon="9.269470738173764"><ele>86.5</ele><time>2026-04-18T08:27:44.001Z</time></trkpt><trkpt lat="45.30824910510904" lon="9.269620275906357"><ele>86.75</ele><time>2026-04-18T08:27:45.001Z</time></trkpt><trkpt lat="45.30833881092361" lon="9.269777234136846"><ele>87.0</ele><time>2026-04-18T08:27:46.001Z</time></trkpt><trkpt lat="45.30843119842267" lon="9.269935884075414"><ele>87.0</ele><time>2026-04-18T08:27:47.001Z</time></trkpt><trkpt lat="45.308523209515194" lon="9.270100620175317"><ele>87.0</ele><time>2026-04-18T08:27:48.001Z</time></trkpt><trkpt lat="45.308611025493825" lon="9.270258197272804"><ele>87.0</ele><time>2026-04-18T08:27:49.001Z</time></trkpt><trkpt lat="45.308697761159124" lon="9.27041055931918"><ele>87.0</ele><time>2026-04-18T08:27:50.001Z</time></trkpt><trkpt lat="45.30877817866802" lon="9.270550343486866"><ele>87.0</ele><time>2026-04-18T08:27:51.001Z</time></trkpt><trkpt lat="45.308849343803395" lon="9.270677272360103"><ele>87.0</ele><time>2026-04-18T08:27:52.001Z</time></trkpt><trkpt lat="45.308916893241815" lon="9.270792112919022"><ele>87.0</ele><time>2026-04-18T08:27:53.001Z</time></trkpt><trkpt lat="45.308977354000426" lon="9.27089927876845"><ele>87.0</ele><time>2026-04-18T08:27:54.001Z</time></trkpt><trkpt lat="45.30902934713208" lon="9.270994301757355"><ele>87.0</ele><time>2026-04-18T08:27:55.001Z</time></trkpt><trkpt lat="45.30907388369132" lon="9.271091326009113"><ele>86.85714285714286</ele><time>2026-04-18T08:27:56.001Z</time></trkpt><trkpt lat="45.30910749153909" lon="9.271190081350412"><ele>86.71428571428572</ele><time>2026-04-18T08:27:57.001Z</time></trkpt><trkpt lat="45.309119158963604" lon="9.271286138559741"><ele>86.57142857142858</ele><time>2026-04-18T08:27:58.001Z</time></trkpt><trkpt lat="45.309123064570116" lon="9.271378651125913"><ele>86.42857142857143</ele><time>2026-04-18T08:27:59.001Z</time></trkpt><trkpt lat="45.309117970247556" lon="9.2714791771619"><ele>86.28571428571429</ele><time>2026-04-18T08:28:00.001Z</time></trkpt><trkpt lat="45.30911153579669" lon="9.2715899399542"><ele>86.14285714285715</ele><time>2026-04-18T08:28:01.001Z</time></trkpt><trkpt lat="45.30911308038656" lon="9.27170538468946"><ele>86.0</ele><time>2026-04-18T08:28:02.001Z</time></trkpt><trkpt lat="45.30913364166811" lon="9.271808910775064"><ele>86.33333333333334</ele><time>2026-04-18T08:28:03.001Z</time></trkpt><trkpt lat="45.30917181073226" lon="9.271901033618116"><ele>86.66666666666667</ele><time>2026-04-18T08:28:04.001Z</time></trkpt><trkpt lat="45.30921901466042" lon="9.27198771431554"><ele>87.0</ele><time>2026-04-18T08:28:05.001Z</time></trkpt><trkpt lat="45.309312485678376" lon="9.272010443573553"><ele>87.33333333333333</ele><time>2026-04-18T08:28:06.001Z</time></trkpt><trkpt lat="45.309389160007164" lon="9.272046516426206"><ele>87.66666666666666</ele><time>2026-04-18T08:28:07.001Z</time></trkpt><trkpt lat="45.30946520402242" lon="9.272039824603546"><ele>88.0</ele><time>2026-04-18T08:28:08.002Z</time></trkpt><trkpt lat="45.309531822472124" lon="9.272007201663003"><ele>88.0</ele><time>2026-04-18T08:28:09.002Z</time></trkpt><trkpt lat="45.3095919003761" lon="9.27195646898436"><ele>88.0</ele><time>2026-04-18T08:28:10.002Z</time></trkpt><trkpt lat="45.30964310719685" lon="9.271886053196882"><ele>88.0</ele><time>2026-04-18T08:28:11.002Z</time></trkpt><trkpt lat="45.3096802850473" lon="9.271804384727277"><ele>88.0</ele><time>2026-04-18T08:28:12.002Z</time></trkpt><trkpt lat="45.30973328129133" lon="9.271754562283249"><ele>88.0</ele><time>2026-04-18T08:28:13.002Z</time></trkpt><trkpt lat="45.30971762647918" lon="9.271618865578239"><ele>88.0</ele><time>2026-04-18T08:28:14.002Z</time></trkpt><trkpt lat="45.30971829714319" lon="9.27152665747736"><ele>88.0</ele><time>2026-04-18T08:28:15.002Z</time></trkpt><trkpt lat="45.3096760743512" lon="9.271410641760523"><ele>87.66666666666666</ele><time>2026-04-18T08:28:17.002Z</time></trkpt><trkpt lat="45.30962206837859" lon="9.271328663302635"><ele>87.33333333333333</ele><time>2026-04-18T08:29:25.001Z</time></trkpt><trkpt lat="45.30956400286451" lon="9.271250629257807"><ele>87.0</ele><time>2026-04-18T08:29:28.001Z</time></trkpt><trkpt lat="45.30949976541951" lon="9.271230068065613"><ele>86.66666666666667</ele><time>2026-04-18T08:29:29.001Z</time></trkpt><trkpt lat="45.30942865618852" lon="9.271198157614174"><ele>86.33333333333334</ele><time>2026-04-18T08:29:30.001Z</time></trkpt><trkpt lat="45.30935363192463" lon="9.271166030334152"><ele>86.0</ele><time>2026-04-18T08:29:31.001Z</time></trkpt><trkpt lat="45.309265417029444" lon="9.271123155316056"><ele>86.0</ele><time>2026-04-18T08:29:32.001Z</time></trkpt><trkpt lat="45.309176776809345" lon="9.27105765545133"><ele>86.0</ele><time>2026-04-18T08:29:33.001Z</time></trkpt><trkpt lat="45.30909252884343" lon="9.27100799385872"><ele>86.0</ele><time>2026-04-18T08:29:34.001Z</time></trkpt><trkpt lat="45.30902172094265" lon="9.27095424849633"><ele>86.0</ele><time>2026-04-18T08:29:35.001Z</time></trkpt><trkpt lat="45.308983097183045" lon="9.270813256311158"><ele>86.0</ele><time>2026-04-18T08:29:36.001Z</time></trkpt><trkpt lat="45.30892654453349" lon="9.270719498999371"><ele>86.19999999999999</ele><time>2026-04-18T08:29:37.001Z</time></trkpt><trkpt lat="45.308867430204465" lon="9.270620993588391"><ele>86.39999999999999</ele><time>2026-04-18T08:29:38.001Z</time></trkpt><trkpt lat="45.30880138311643" lon="9.270505159570222"><ele>86.6</ele><time>2026-04-18T08:29:39.001Z</time></trkpt><trkpt lat="45.30873005427714" lon="9.270379057865298"><ele>86.8</ele><time>2026-04-18T08:29:40.001Z</time></trkpt><trkpt lat="45.308659200959674" lon="9.270246555373477"><ele>87.0</ele><time>2026-04-18T08:29:41.001Z</time></trkpt><trkpt lat="45.308578688493135" lon="9.27010081033533"><ele>87.0</ele><time>2026-04-18T08:29:42.001Z</time></trkpt><trkpt lat="45.3084904037126" lon="9.269947048467229"><ele>87.0</ele><time>2026-04-18T08:29:43.001Z</time></trkpt><trkpt lat="45.30839542479839" lon="9.269783273240689"><ele>87.0</ele><time>2026-04-18T08:29:44.001Z</time></trkpt><trkpt lat="45.30830067810261" lon="9.26961778262425"><ele>87.0</ele><time>2026-04-18T08:29:45.001Z</time></trkpt><trkpt lat="45.308214939855496" lon="9.269463307799533"><ele>87.0</ele><time>2026-04-18T08:29:46.001Z</time></trkpt><trkpt lat="45.30812984996391" lon="9.269314298582511"><ele>87.0</ele><time>2026-04-18T08:29:47.001Z</time></trkpt><trkpt lat="45.30804668341583" lon="9.269170600596313"><ele>87.0</ele><time>2026-04-18T08:29:48.001Z</time></trkpt><trkpt lat="45.30797763685966" lon="9.2690409037973"><ele>87.0</ele><time>2026-04-18T08:29:49.001Z</time></trkpt><trkpt lat="45.30792738633808" lon="9.268917098547712"><ele>86.83333333333333</ele><time>2026-04-18T08:29:50.001Z</time></trkpt><trkpt lat="45.30790417887091" lon="9.268794143389918"><ele>86.66666666666667</ele><time>2026-04-18T08:29:51.001Z</time></trkpt><trkpt lat="45.30790172446597" lon="9.268669943828348"><ele>86.5</ele><time>2026-04-18T08:29:52.001Z</time></trkpt><trkpt lat="45.30789980270928" lon="9.268553959251635"><ele>86.33333333333334</ele><time>2026-04-18T08:29:53.001Z</time></trkpt><trkpt lat="45.307877150280035" lon="9.268447714075917"><ele>86.16666666666667</ele><time>2026-04-18T08:29:54.001Z</time></trkpt><trkpt lat="45.30782790703099" lon="9.2683528590053"><ele>86.0</ele><time>2026-04-18T08:29:55.001Z</time></trkpt><trkpt lat="45.30775230418144" lon="9.268309713736645"><ele>86.0</ele><time>2026-04-18T08:29:56.001Z</time></trkpt><trkpt lat="45.30765510131049" lon="9.26824362687586"><ele>86.0</ele><time>2026-04-18T08:29:57.001Z</time></trkpt><trkpt lat="45.3075476544982" lon="9.268206867279968"><ele>86.0</ele><time>2026-04-18T08:29:58.001Z</time></trkpt><trkpt lat="45.30744289020299" lon="9.268149377787884"><ele>86.0</ele><time>2026-04-18T08:29:59.001Z</time></trkpt><trkpt lat="45.30733876078751" lon="9.26807626774001"><ele>86.0</ele><time>2026-04-18T08:30:00.001Z</time></trkpt><trkpt lat="45.307263466700455" lon="9.267907836536134"><ele>86.0</ele><time>2026-04-18T08:30:01.001Z</time></trkpt><trkpt lat="45.30718224840901" lon="9.267755081569074"><ele>86.0</ele><time>2026-04-18T08:30:02.001Z</time></trkpt><trkpt lat="45.30709424336098" lon="9.267592545705222"><ele>86.0</ele><time>2026-04-18T08:30:03.001Z</time></trkpt><trkpt lat="45.30699915179377" lon="9.267427637970783"><ele>86.0</ele><time>2026-04-18T08:30:04.001Z</time></trkpt><trkpt lat="45.30690020238567" lon="9.26726166764084"><ele>86.33333333333334</ele><time>2026-04-18T08:30:05.001Z</time></trkpt><trkpt lat="45.30679683959019" lon="9.26709266016132"><ele>86.66666666666667</ele><time>2026-04-18T08:30:06.001Z</time></trkpt><trkpt lat="45.306696457159916" lon="9.266924600341824"><ele>87.0</ele><time>2026-04-18T08:30:07.001Z</time></trkpt><trkpt lat="45.306595901929" lon="9.266750831149219"><ele>87.0</ele><time>2026-04-18T08:30:08.001Z</time></trkpt><trkpt lat="45.30650646704135" lon="9.266599196763705"><ele>87.0</ele><time>2026-04-18T08:30:09.001Z</time></trkpt><trkpt lat="45.30641436351928" lon="9.266448126631344"><ele>87.0</ele><time>2026-04-18T08:30:10.001Z</time></trkpt><trkpt lat="45.30632776152663" lon="9.26630088640321"><ele>87.0</ele><time>2026-04-18T08:30:11.001Z</time></trkpt><trkpt lat="45.306242628535465" lon="9.266154170707523"><ele>86.5</ele><time>2026-04-18T08:30:12.001Z</time></trkpt><trkpt lat="45.30615645865617" lon="9.266007686288342"><ele>86.0</ele><time>2026-04-18T08:30:13.001Z</time></trkpt><trkpt lat="45.30606750540448" lon="9.265852998113477"><ele>85.5</ele><time>2026-04-18T08:30:14.001Z</time></trkpt><trkpt lat="45.305982543621326" lon="9.265705564004394"><ele>85.0</ele><time>2026-04-18T08:30:15.001Z</time></trkpt><trkpt lat="45.30590453237216" lon="9.265571279189682"><ele>85.0</ele><time>2026-04-18T08:30:16.001Z</time></trkpt><trkpt lat="45.305829955381114" lon="9.265446934618542"><ele>85.0</ele><time>2026-04-18T08:30:17.001Z</time></trkpt><trkpt lat="45.30575553496896" lon="9.265328836871253"><ele>85.0</ele><time>2026-04-18T08:30:18.001Z</time></trkpt><trkpt lat="45.305688348015536" lon="9.26521516230371"><ele>85.0</ele><time>2026-04-18T08:30:19.001Z</time></trkpt><trkpt lat="45.30562440244157" lon="9.265106310380432"><ele>85.0</ele><time>2026-04-18T08:30:20.002Z</time></trkpt><trkpt lat="45.305560549986076" lon="9.26500188953865"><ele>84.8</ele><time>2026-04-18T08:30:21.002Z</time></trkpt><trkpt lat="45.30549048434148" lon="9.264878684752366"><ele>84.6</ele><time>2026-04-18T08:30:22.002Z</time></trkpt><trkpt lat="45.3054248642096" lon="9.264751886334624"><ele>84.4</ele><time>2026-04-18T08:30:23.002Z</time></trkpt><trkpt lat="45.30536743353712" lon="9.264653935987964"><ele>84.2</ele><time>2026-04-18T08:30:24.002Z</time></trkpt><trkpt lat="45.30532803281753" lon="9.264575331034496"><ele>84.0</ele><time>2026-04-18T08:30:25.002Z</time></trkpt><trkpt lat="45.30529278701027" lon="9.264481225115077"><ele>84.0</ele><time>2026-04-18T08:30:27.002Z</time></trkpt><trkpt lat="45.305336879971655" lon="9.264598531629106"><ele>84.0</ele><time>2026-04-18T08:30:57.002Z</time></trkpt><trkpt lat="45.30537832495882" lon="9.264669226856748"><ele>84.0</ele><time>2026-04-18T08:30:58.002Z</time></trkpt><trkpt lat="45.30529420273283" lon="9.265063972683699"><ele>84.0</ele><time>2026-04-18T08:31:00.002Z</time></trkpt><trkpt lat="45.305282314136136" lon="9.265195400030825"><ele>84.0</ele><time>2026-04-18T08:31:01.002Z</time></trkpt><trkpt lat="45.30524781690929" lon="9.265314212304606"><ele>84.0</ele><time>2026-04-18T08:31:02.003Z</time></trkpt><trkpt lat="45.30519944961951" lon="9.26541681683799"><ele>84.0</ele><time>2026-04-18T08:31:03.003Z</time></trkpt><trkpt lat="45.305135273171175" lon="9.265512784710625"><ele>84.0</ele><time>2026-04-18T08:31:04.003Z</time></trkpt><trkpt lat="45.305052428202025" lon="9.26559856186251"><ele>84.0</ele><time>2026-04-18T08:31:05.003Z</time></trkpt><trkpt lat="45.30496023549868" lon="9.265663446295129"><ele>84.0</ele><time>2026-04-18T08:31:06.003Z</time></trkpt><trkpt lat="45.30487237012105" lon="9.265709950402924"><ele>84.0</ele><time>2026-04-18T08:31:07.003Z</time></trkpt><trkpt lat="45.30476917830558" lon="9.265757655251628"><ele>84.0</ele><time>2026-04-18T08:31:08.003Z</time></trkpt><trkpt lat="45.30466641739253" lon="9.26581246893916"><ele>84.0</ele><time>2026-04-18T08:31:09.003Z</time></trkpt><trkpt lat="45.30455280612124" lon="9.26584625068816"><ele>84.0</ele><time>2026-04-18T08:31:10.003Z</time></trkpt><trkpt lat="45.30444723504441" lon="9.265910466300454"><ele>84.2</ele><time>2026-04-18T08:31:11.003Z</time></trkpt><trkpt lat="45.304336428312084" lon="9.265961204252344"><ele>84.4</ele><time>2026-04-18T08:31:12.003Z</time></trkpt><trkpt lat="45.30422714039116" lon="9.26600752953992"><ele>84.6</ele><time>2026-04-18T08:31:13.003Z</time></trkpt><trkpt lat="45.30413290407124" lon="9.266047541287618"><ele>84.8</ele><time>2026-04-18T08:31:14.003Z</time></trkpt><trkpt lat="45.304024498340105" lon="9.266086860301705"><ele>85.0</ele><time>2026-04-18T08:31:15.003Z</time></trkpt><trkpt lat="45.3039237296014" lon="9.266132234559556"><ele>84.8</ele><time>2026-04-18T08:31:16.001Z</time></trkpt><trkpt lat="45.303836710512144" lon="9.266167336060839"><ele>84.6</ele><time>2026-04-18T08:31:17.001Z</time></trkpt><trkpt lat="45.303748085268296" lon="9.266192413412966"><ele>84.4</ele><time>2026-04-18T08:31:18.001Z</time></trkpt><trkpt lat="45.303648083014" lon="9.266228130537968"><ele>84.2</ele><time>2026-04-18T08:31:19.001Z</time></trkpt><trkpt lat="45.30352515927991" lon="9.26627986147594"><ele>84.0</ele><time>2026-04-18T08:31:20.001Z</time></trkpt><trkpt lat="45.30337928886234" lon="9.266335615409991"><ele>84.0</ele><time>2026-04-18T08:31:21.001Z</time></trkpt><trkpt lat="45.30324458248065" lon="9.266385112154522"><ele>84.0</ele><time>2026-04-18T08:31:22.001Z</time></trkpt><trkpt lat="45.30311168396684" lon="9.266440303721991"><ele>84.0</ele><time>2026-04-18T08:31:23.001Z</time></trkpt><trkpt lat="45.302973832579134" lon="9.26649265332791"><ele>84.0</ele><time>2026-04-18T08:31:24.001Z</time></trkpt><trkpt lat="45.30283658629904" lon="9.26653972538065"><ele>84.33333333333333</ele><time>2026-04-18T08:31:25Z</time></trkpt><trkpt lat="45.30269772150985" lon="9.266606079884214"><ele>84.66666666666666</ele><time>2026-04-18T08:31:26Z</time></trkpt><trkpt lat="45.30255291477299" lon="9.26668928901902"><ele>85.0</ele><time>2026-04-18T08:31:27Z</time></trkpt><trkpt lat="45.30241382692046" lon="9.26676754626489"><ele>85.0</ele><time>2026-04-18T08:31:28Z</time></trkpt><trkpt lat="45.30227468491135" lon="9.266833161502854"><ele>85.0</ele><time>2026-04-18T08:31:29Z</time></trkpt><trkpt lat="45.302127557623514" lon="9.266903021169373"><ele>85.0</ele><time>2026-04-18T08:31:30Z</time></trkpt><trkpt lat="45.3019884190464" lon="9.266966258422153"><ele>85.0</ele><time>2026-04-18T08:31:31Z</time></trkpt><trkpt lat="45.30185012227394" lon="9.267027737136239"><ele>84.66666666666666</ele><time>2026-04-18T08:31:32Z</time></trkpt><trkpt lat="45.30170674954651" lon="9.267086751002267"><ele>84.33333333333333</ele><time>2026-04-18T08:31:33Z</time></trkpt><trkpt lat="45.30156191615536" lon="9.267136388485891"><ele>84.0</ele><time>2026-04-18T08:31:34Z</time></trkpt><trkpt lat="45.30141412700567" lon="9.2671847231882"><ele>84.0</ele><time>2026-04-18T08:31:35Z</time></trkpt><trkpt lat="45.30126634033192" lon="9.267234026608405"><ele>84.0</ele><time>2026-04-18T08:31:36Z</time></trkpt><trkpt lat="45.30111999481138" lon="9.267282394117718"><ele>84.0</ele><time>2026-04-18T08:31:37Z</time></trkpt><trkpt lat="45.30097446866665" lon="9.267325151273123"><ele>84.25</ele><time>2026-04-18T08:31:38Z</time></trkpt><trkpt lat="45.30083611150157" lon="9.267363229085673"><ele>84.5</ele><time>2026-04-18T08:31:39Z</time></trkpt><trkpt lat="45.300704273381214" lon="9.267400494517393"><ele>84.75</ele><time>2026-04-18T08:31:40.001Z</time></trkpt><trkpt lat="45.30057800061144" lon="9.2674346278363"><ele>85.0</ele><time>2026-04-18T08:31:41.001Z</time></trkpt><trkpt lat="45.30046412699826" lon="9.267469449652525"><ele>84.6</ele><time>2026-04-18T08:31:42.001Z</time></trkpt><trkpt lat="45.30035813270904" lon="9.267501442086704"><ele>84.2</ele><time>2026-04-18T08:31:43.001Z</time></trkpt><trkpt lat="45.30025141124189" lon="9.26753692666056"><ele>83.80000000000001</ele><time>2026-04-18T08:31:44.001Z</time></trkpt><trkpt lat="45.300147015514135" lon="9.267577141527296"><ele>83.4</ele><time>2026-04-18T08:31:45.001Z</time></trkpt><trkpt lat="45.30003775910979" lon="9.267622987519797"><ele>83.0</ele><time>2026-04-18T08:31:46.001Z</time></trkpt><trkpt lat="45.299928280766096" lon="9.26764447380839"><ele>83.0</ele><time>2026-04-18T08:31:47.001Z</time></trkpt><trkpt lat="45.29981935923071" lon="9.267675263142987"><ele>83.0</ele><time>2026-04-18T08:31:48.001Z</time></trkpt><trkpt lat="45.299712809027056" lon="9.267702644040659"><ele>83.0</ele><time>2026-04-18T08:31:49.001Z</time></trkpt><trkpt lat="45.29960881906525" lon="9.267727287659557"><ele>83.0</ele><time>2026-04-18T08:31:50.001Z</time></trkpt><trkpt lat="45.2995042901561" lon="9.267751560929234"><ele>83.0</ele><time>2026-04-18T08:31:51.001Z</time></trkpt><trkpt lat="45.299401094700016" lon="9.267775531964498"><ele>83.2</ele><time>2026-04-18T08:31:52.001Z</time></trkpt><trkpt lat="45.29929488731882" lon="9.267800202646036"><ele>83.4</ele><time>2026-04-18T08:31:53.001Z</time></trkpt><trkpt lat="45.29919528834313" lon="9.267823338266822"><ele>83.60000000000001</ele><time>2026-04-18T08:31:54.001Z</time></trkpt><trkpt lat="45.2990887672768" lon="9.26784815124352"><ele>83.80000000000001</ele><time>2026-04-18T08:31:55.001Z</time></trkpt><trkpt lat="45.298965460604244" lon="9.267876885687972"><ele>84.0</ele><time>2026-04-18T08:31:56.001Z</time></trkpt><trkpt lat="45.2988251585647" lon="9.267909537038745"><ele>84.0</ele><time>2026-04-18T08:31:57.001Z</time></trkpt><trkpt lat="45.298670130252326" lon="9.26794554689046"><ele>84.0</ele><time>2026-04-18T08:31:58.001Z</time></trkpt><trkpt lat="45.29851414478355" lon="9.267981779072992"><ele>84.0</ele><time>2026-04-18T08:31:59.001Z</time></trkpt><trkpt lat="45.298352420593275" lon="9.268019921475963"><ele>84.0</ele><time>2026-04-18T08:32:00.001Z</time></trkpt><trkpt lat="45.29819663081254" lon="9.268057031953443"><ele>84.0</ele><time>2026-04-18T08:32:01.001Z</time></trkpt><trkpt lat="45.29803876700415" lon="9.268094973922889"><ele>84.0</ele><time>2026-04-18T08:32:02.001Z</time></trkpt><trkpt lat="45.2978812290082" lon="9.268134088799718"><ele>84.0</ele><time>2026-04-18T08:32:03.001Z</time></trkpt><trkpt lat="45.29772142960585" lon="9.268173648475388"><ele>84.0</ele><time>2026-04-18T08:32:04.001Z</time></trkpt><trkpt lat="45.29756217292972" lon="9.268233362308004"><ele>84.0</ele><time>2026-04-18T08:32:05.001Z</time></trkpt><trkpt lat="45.29739941908137" lon="9.268244998289358"><ele>84.0</ele><time>2026-04-18T08:32:06.001Z</time></trkpt><trkpt lat="45.29724062703813" lon="9.268278331963877"><ele>84.0</ele><time>2026-04-18T08:32:07.001Z</time></trkpt><trkpt lat="45.29708248151658" lon="9.268314394789108"><ele>84.0</ele><time>2026-04-18T08:32:08.001Z</time></trkpt><trkpt lat="45.29693215448899" lon="9.26837204900507"><ele>84.0</ele><time>2026-04-18T08:32:09.001Z</time></trkpt><trkpt lat="45.29677708938119" lon="9.268407867347102"><ele>84.0</ele><time>2026-04-18T08:32:10.001Z</time></trkpt><trkpt lat="45.29661826729534" lon="9.268443965270817"><ele>84.0</ele><time>2026-04-18T08:32:11.001Z</time></trkpt><trkpt lat="45.29646073056136" lon="9.26847251700252"><ele>84.0</ele><time>2026-04-18T08:32:12.001Z</time></trkpt><trkpt lat="45.296299977710234" lon="9.268473790090086"><ele>84.0</ele><time>2026-04-18T08:32:13.001Z</time></trkpt><trkpt lat="45.296145006882355" lon="9.268494099565498"><ele>84.0</ele><time>2026-04-18T08:32:14.001Z</time></trkpt><trkpt lat="45.29598895501472" lon="9.26851455070582"><ele>84.0</ele><time>2026-04-18T08:32:15.001Z</time></trkpt><trkpt lat="45.295830941215634" lon="9.268535843232392"><ele>84.0</ele><time>2026-04-18T08:32:16.001Z</time></trkpt><trkpt lat="45.2956723180853" lon="9.268559943194944"><ele>84.0</ele><time>2026-04-18T08:32:17.001Z</time></trkpt><trkpt lat="45.29551720141792" lon="9.268611776762512"><ele>84.0</ele><time>2026-04-18T08:32:18.001Z</time></trkpt><trkpt lat="45.295363265438034" lon="9.26863883163474"><ele>84.0</ele><time>2026-04-18T08:32:19.001Z</time></trkpt><trkpt lat="45.29521474255373" lon="9.268661189579316"><ele>84.0</ele><time>2026-04-18T08:32:20.001Z</time></trkpt><trkpt lat="45.29507934500018" lon="9.268680348825258"><ele>84.0</ele><time>2026-04-18T08:32:21.001Z</time></trkpt><trkpt lat="45.29495133368276" lon="9.26869364895104"><ele>84.0</ele><time>2026-04-18T08:32:22.001Z</time></trkpt><trkpt lat="45.29482568875589" lon="9.268692596959596"><ele>84.0</ele><time>2026-04-18T08:32:23.001Z</time></trkpt><trkpt lat="45.29471144406254" lon="9.268647449713514"><ele>84.0</ele><time>2026-04-18T08:32:24.001Z</time></trkpt><trkpt lat="45.29459674973546" lon="9.26861706537074"><ele>84.0</ele><time>2026-04-18T08:32:25.001Z</time></trkpt><trkpt lat="45.29448830714924" lon="9.268588018640761"><ele>84.0</ele><time>2026-04-18T08:32:26.001Z</time></trkpt><trkpt lat="45.2943937815548" lon="9.268554691037277"><ele>84.0</ele><time>2026-04-18T08:32:27.001Z</time></trkpt><trkpt lat="45.2943105928629" lon="9.2685121499033"><ele>84.0</ele><time>2026-04-18T08:32:28.001Z</time></trkpt><trkpt lat="45.29424024839871" lon="9.26845044371068"><ele>84.0</ele><time>2026-04-18T08:32:29.001Z</time></trkpt><trkpt lat="45.294186946899465" lon="9.268364896083515"><ele>84.0</ele><time>2026-04-18T08:32:30.001Z</time></trkpt><trkpt lat="45.29417599227141" lon="9.268246540144439"><ele>84.0</ele><time>2026-04-18T08:32:31.001Z</time></trkpt><trkpt lat="45.29414277442231" lon="9.268120480816684"><ele>83.75</ele><time>2026-04-18T08:32:32.001Z</time></trkpt><trkpt lat="45.294108468791165" lon="9.267977350956007"><ele>83.5</ele><time>2026-04-18T08:32:33.002Z</time></trkpt><trkpt lat="45.29407094196316" lon="9.26781388502359"><ele>83.25</ele><time>2026-04-18T08:32:34.002Z</time></trkpt><trkpt lat="45.29402901216784" lon="9.267631239781185"><ele>83.0</ele><time>2026-04-18T08:32:35.002Z</time></trkpt><trkpt lat="45.293971773655066" lon="9.26744915913317"><ele>83.25</ele><time>2026-04-18T08:32:36.002Z</time></trkpt><trkpt lat="45.293935369441414" lon="9.26726387770375"><ele>83.5</ele><time>2026-04-18T08:32:37.002Z</time></trkpt><trkpt lat="45.293902734719644" lon="9.267100475210025"><ele>83.75</ele><time>2026-04-18T08:32:38.002Z</time></trkpt><trkpt lat="45.2938722505545" lon="9.266956855703604"><ele>84.0</ele><time>2026-04-18T08:32:39.002Z</time></trkpt><trkpt lat="45.293840066243845" lon="9.266829360298052"><ele>84.0</ele><time>2026-04-18T08:32:40.002Z</time></trkpt><trkpt lat="45.293805642026626" lon="9.266723388782587"><ele>84.0</ele><time>2026-04-18T08:32:41.002Z</time></trkpt><trkpt lat="45.29376527084368" lon="9.266645470337824"><ele>84.0</ele><time>2026-04-18T08:32:42.002Z</time></trkpt><trkpt lat="45.29365343684441" lon="9.266586375348314"><ele>84.0</ele><time>2026-04-18T08:32:44.002Z</time></trkpt><trkpt lat="45.293580925229136" lon="9.266577330993881"><ele>84.0</ele><time>2026-04-18T08:32:45.002Z</time></trkpt><trkpt lat="45.293500661472116" lon="9.266590502853255"><ele>84.0</ele><time>2026-04-18T08:32:46.002Z</time></trkpt><trkpt lat="45.29341298994656" lon="9.266624233842087"><ele>84.0</ele><time>2026-04-18T08:32:47.002Z</time></trkpt><trkpt lat="45.293319127292705" lon="9.266668110842387"><ele>84.0</ele><time>2026-04-18T08:32:48.002Z</time></trkpt><trkpt lat="45.2932162656115" lon="9.266707098902067"><ele>84.0</ele><time>2026-04-18T08:32:49.002Z</time></trkpt><trkpt lat="45.29312037211963" lon="9.266752693556514"><ele>84.0</ele><time>2026-04-18T08:32:50.002Z</time></trkpt><trkpt lat="45.293030890546234" lon="9.26678997704023"><ele>84.0</ele><time>2026-04-18T08:32:51.002Z</time></trkpt><trkpt lat="45.29294137641917" lon="9.266828549435758"><ele>84.16666666666667</ele><time>2026-04-18T08:32:52.002Z</time></trkpt><trkpt lat="45.29285199194424" lon="9.26683979275157"><ele>84.33333333333333</ele><time>2026-04-18T08:32:53.002Z</time></trkpt><trkpt lat="45.29277066030947" lon="9.266871454110776"><ele>84.5</ele><time>2026-04-18T08:32:54.002Z</time></trkpt><trkpt lat="45.292703203331264" lon="9.266918245909602"><ele>84.66666666666666</ele><time>2026-04-18T08:32:55.002Z</time></trkpt><trkpt lat="45.29262818188195" lon="9.266944120637149"><ele>84.83333333333333</ele><time>2026-04-18T08:32:56.002Z</time></trkpt><trkpt lat="45.292536535531845" lon="9.266977959224524"><ele>85.0</ele><time>2026-04-18T08:32:57.002Z</time></trkpt><trkpt lat="45.292437794386224" lon="9.267004482657873"><ele>85.0</ele><time>2026-04-18T08:32:58.002Z</time></trkpt><trkpt lat="45.29234106552424" lon="9.267033082440435"><ele>85.0</ele><time>2026-04-18T08:32:59.002Z</time></trkpt><trkpt lat="45.29224739407515" lon="9.26699809425517"><ele>85.0</ele><time>2026-04-18T08:33:00.002Z</time></trkpt><trkpt lat="45.29214595374618" lon="9.26702524655976"><ele>85.0</ele><time>2026-04-18T08:33:01.002Z</time></trkpt><trkpt lat="45.29205392267929" lon="9.267120253092271"><ele>85.0</ele><time>2026-04-18T08:33:02.002Z</time></trkpt><trkpt lat="45.2919439510987" lon="9.267171337155299"><ele>84.5</ele><time>2026-04-18T08:33:03.002Z</time></trkpt><trkpt lat="45.291821562791476" lon="9.267241153459254"><ele>84.0</ele><time>2026-04-18T08:33:04.002Z</time></trkpt><trkpt lat="45.29168606325225" lon="9.267318280507904"><ele>83.5</ele><time>2026-04-18T08:33:05.002Z</time></trkpt><trkpt lat="45.29155517658992" lon="9.26739238528669"><ele>83.0</ele><time>2026-04-18T08:33:06.002Z</time></trkpt><trkpt lat="45.29142038719864" lon="9.267459162032885"><ele>83.0</ele><time>2026-04-18T08:33:07.002Z</time></trkpt><trkpt lat="45.291292028792675" lon="9.267524471317081"><ele>83.0</ele><time>2026-04-18T08:33:08.002Z</time></trkpt><trkpt lat="45.29115918542862" lon="9.267603214082243"><ele>83.0</ele><time>2026-04-18T08:33:09.002Z</time></trkpt><trkpt lat="45.291027789430444" lon="9.267670225639906"><ele>83.0</ele><time>2026-04-18T08:33:10.002Z</time></trkpt><trkpt lat="45.29089469797518" lon="9.267741034397321"><ele>83.0</ele><time>2026-04-18T08:33:11.002Z</time></trkpt><trkpt lat="45.29076905532793" lon="9.267831755456394"><ele>83.0</ele><time>2026-04-18T08:33:12.002Z</time></trkpt><trkpt lat="45.29064161964045" lon="9.267919541471752"><ele>83.0</ele><time>2026-04-18T08:33:13.002Z</time></trkpt><trkpt lat="45.290520948852965" lon="9.268015082615499"><ele>83.0</ele><time>2026-04-18T08:33:14.002Z</time></trkpt><trkpt lat="45.2903936124201" lon="9.26811583832735"><ele>82.75</ele><time>2026-04-18T08:33:15.002Z</time></trkpt><trkpt lat="45.290267557379735" lon="9.268204216933091"><ele>82.5</ele><time>2026-04-18T08:33:16.002Z</time></trkpt><trkpt lat="45.2901465636668" lon="9.268291095884049"><ele>82.25</ele><time>2026-04-18T08:33:17.002Z</time></trkpt><trkpt lat="45.29003268794701" lon="9.26838082866268"><ele>82.0</ele><time>2026-04-18T08:33:18.002Z</time></trkpt><trkpt lat="45.28992083598718" lon="9.268465141004748"><ele>82.0</ele><time>2026-04-18T08:33:19.002Z</time></trkpt><trkpt lat="45.28980481616462" lon="9.26855046426636"><ele>82.0</ele><time>2026-04-18T08:33:20.003Z</time></trkpt><trkpt lat="45.289708706126326" lon="9.268669574333112"><ele>82.0</ele><time>2026-04-18T08:33:21.003Z</time></trkpt><trkpt lat="45.289597845630944" lon="9.268768146250077"><ele>82.0</ele><time>2026-04-18T08:33:22Z</time></trkpt><trkpt lat="45.2894886684462" lon="9.26889465749435"><ele>82.0</ele><time>2026-04-18T08:33:23Z</time></trkpt><trkpt lat="45.28938270693483" lon="9.26903368674817"><ele>82.0</ele><time>2026-04-18T08:33:24Z</time></trkpt><trkpt lat="45.28927049776311" lon="9.269160675610634"><ele>82.0</ele><time>2026-04-18T08:33:25Z</time></trkpt><trkpt lat="45.289164534809764" lon="9.269301180117475"><ele>82.0</ele><time>2026-04-18T08:33:26Z</time></trkpt><trkpt lat="45.289050343868205" lon="9.269434150861443"><ele>82.0</ele><time>2026-04-18T08:33:27Z</time></trkpt><trkpt lat="45.28893650898675" lon="9.269574500130323"><ele>82.0</ele><time>2026-04-18T08:33:28Z</time></trkpt><trkpt lat="45.28882229543366" lon="9.269714504715903"><ele>82.0</ele><time>2026-04-18T08:33:29Z</time></trkpt><trkpt lat="45.28869621772721" lon="9.269838520637837"><ele>81.66666666666666</ele><time>2026-04-18T08:33:30Z</time></trkpt><trkpt lat="45.28858186728675" lon="9.26997526468051"><ele>81.33333333333333</ele><time>2026-04-18T08:33:31Z</time></trkpt><trkpt lat="45.28846608389079" lon="9.270114985632137"><ele>81.0</ele><time>2026-04-18T08:33:32Z</time></trkpt><trkpt lat="45.28834536138833" lon="9.270263590698706"><ele>81.0</ele><time>2026-04-18T08:33:33Z</time></trkpt><trkpt lat="45.288231427161016" lon="9.270407232399524"><ele>81.0</ele><time>2026-04-18T08:33:34Z</time></trkpt><trkpt lat="45.28812042377855" lon="9.270549372238877"><ele>81.0</ele><time>2026-04-18T08:33:35Z</time></trkpt><trkpt lat="45.28803286787248" lon="9.270691767076025"><ele>81.0</ele><time>2026-04-18T08:33:36Z</time></trkpt><trkpt lat="45.287940374007114" lon="9.270813425220396"><ele>81.0</ele><time>2026-04-18T08:33:37Z</time></trkpt><trkpt lat="45.28784740164929" lon="9.270939248661207"><ele>81.0</ele><time>2026-04-18T08:33:38Z</time></trkpt><trkpt lat="45.28774518433894" lon="9.271046779982678"><ele>81.0</ele><time>2026-04-18T08:33:39Z</time></trkpt><trkpt lat="45.28765674545892" lon="9.27117999495302"><ele>81.0</ele><time>2026-04-18T08:33:40Z</time></trkpt><trkpt lat="45.28759328428805" lon="9.271336860196154"><ele>81.0</ele><time>2026-04-18T08:33:41Z</time></trkpt><trkpt lat="45.287523583013474" lon="9.271489343781607"><ele>81.0</ele><time>2026-04-18T08:33:42Z</time></trkpt><trkpt lat="45.28745748021849" lon="9.27165458896083"><ele>81.0</ele><time>2026-04-18T08:33:43Z</time></trkpt><trkpt lat="45.28738636973214" lon="9.271825694238435"><ele>81.0</ele><time>2026-04-18T08:33:44Z</time></trkpt><trkpt lat="45.28731082534508" lon="9.271996875169869"><ele>80.75</ele><time>2026-04-18T08:33:45Z</time></trkpt><trkpt lat="45.28723813536158" lon="9.272164316156683"><ele>80.5</ele><time>2026-04-18T08:33:46Z</time></trkpt><trkpt lat="45.28717338213868" lon="9.272321472254676"><ele>80.25</ele><time>2026-04-18T08:33:47Z</time></trkpt><trkpt lat="45.28710876700308" lon="9.272465840923354"><ele>80.0</ele><time>2026-04-18T08:33:48Z</time></trkpt><trkpt lat="45.28705876276585" lon="9.27260509518776"><ele>80.0</ele><time>2026-04-18T08:33:49Z</time></trkpt><trkpt lat="45.28700308168362" lon="9.272739522064509"><ele>80.0</ele><time>2026-04-18T08:33:50Z</time></trkpt><trkpt lat="45.28694515521252" lon="9.272853971180613"><ele>80.0</ele><time>2026-04-18T08:33:51Z</time></trkpt><trkpt lat="45.28688546141389" lon="9.272948749666732"><ele>80.0</ele><time>2026-04-18T08:33:52Z</time></trkpt><trkpt lat="45.2867991165203" lon="9.272990057053722"><ele>80.0</ele><time>2026-04-18T08:33:53Z</time></trkpt><trkpt lat="45.286710126865785" lon="9.273024947394086"><ele>80.0</ele><time>2026-04-18T08:33:54Z</time></trkpt><trkpt lat="45.286605388752655" lon="9.273054503402824"><ele>80.0</ele><time>2026-04-18T08:33:55Z</time></trkpt><trkpt lat="45.28647614892762" lon="9.273084002887508"><ele>80.0</ele><time>2026-04-18T08:33:56Z</time></trkpt><trkpt lat="45.28635505359764" lon="9.27315231538265"><ele>80.0</ele><time>2026-04-18T08:33:57Z</time></trkpt><trkpt lat="45.2862283818996" lon="9.273197812000673"><ele>79.5</ele><time>2026-04-18T08:33:58Z</time></trkpt><trkpt lat="45.286097586479215" lon="9.273255032850765"><ele>79.0</ele><time>2026-04-18T08:33:59.001Z</time></trkpt><trkpt lat="45.285979522068864" lon="9.273320609647662"><ele>78.5</ele><time>2026-04-18T08:34:00.001Z</time></trkpt><trkpt lat="45.285877817994105" lon="9.273378499695836"><ele>78.0</ele><time>2026-04-18T08:34:01.001Z</time></trkpt><trkpt lat="45.28578887610004" lon="9.273439785227591"><ele>78.0</ele><time>2026-04-18T08:34:02.001Z</time></trkpt><trkpt lat="45.2857089750179" lon="9.273509577815902"><ele>78.0</ele><time>2026-04-18T08:34:03.001Z</time></trkpt><trkpt lat="45.2856229315122" lon="9.273565864590585"><ele>78.0</ele><time>2026-04-18T08:34:04.001Z</time></trkpt><trkpt lat="45.28555842599795" lon="9.273667008077357"><ele>78.0</ele><time>2026-04-18T08:34:05.001Z</time></trkpt><trkpt lat="45.28552922689115" lon="9.273779736754529"><ele>78.0</ele><time>2026-04-18T08:34:06.001Z</time></trkpt><trkpt lat="45.285496151602935" lon="9.273887312295827"><ele>78.0</ele><time>2026-04-18T08:34:07.001Z</time></trkpt><trkpt lat="45.28547753440099" lon="9.273998273053213"><ele>78.0</ele><time>2026-04-18T08:34:08.001Z</time></trkpt><trkpt lat="45.28546955628641" lon="9.2741275225469"><ele>78.0</ele><time>2026-04-18T08:34:09.001Z</time></trkpt><trkpt lat="45.285473519643084" lon="9.274274611308334"><ele>78.0</ele><time>2026-04-18T08:34:10.001Z</time></trkpt><trkpt lat="45.285479790120746" lon="9.274450938430723"><ele>78.0</ele><time>2026-04-18T08:34:11.001Z</time></trkpt><trkpt lat="45.285480892262804" lon="9.274636298430558"><ele>78.2</ele><time>2026-04-18T08:34:12.001Z</time></trkpt><trkpt lat="45.28547274099388" lon="9.274801317376614"><ele>78.4</ele><time>2026-04-18T08:34:13.001Z</time></trkpt><trkpt lat="45.28545464192905" lon="9.27493814121181"><ele>78.60000000000001</ele><time>2026-04-18T08:34:14.001Z</time></trkpt><trkpt lat="45.285418632948655" lon="9.275052923676173"><ele>78.8</ele><time>2026-04-18T08:34:15.001Z</time></trkpt><trkpt lat="45.28536614420971" lon="9.2751510199397"><ele>79.0</ele><time>2026-04-18T08:34:16.001Z</time></trkpt><trkpt lat="45.28527510417407" lon="9.27521394064119"><ele>79.0</ele><time>2026-04-18T08:34:17.001Z</time></trkpt><trkpt lat="45.285190175075584" lon="9.275308080273788"><ele>79.0</ele><time>2026-04-18T08:34:18.001Z</time></trkpt><trkpt lat="45.28509171029246" lon="9.27541562471851"><ele>79.0</ele><time>2026-04-18T08:34:19.001Z</time></trkpt><trkpt lat="45.28499767131357" lon="9.275541592412244"><ele>79.0</ele><time>2026-04-18T08:34:20.001Z</time></trkpt><trkpt lat="45.28488619096358" lon="9.275658966164148"><ele>79.0</ele><time>2026-04-18T08:34:21.001Z</time></trkpt><trkpt lat="45.28477983705932" lon="9.27577624151853"><ele>79.0</ele><time>2026-04-18T08:34:22.001Z</time></trkpt><trkpt lat="45.28467328841429" lon="9.275888559472557"><ele>79.0</ele><time>2026-04-18T08:34:23.001Z</time></trkpt><trkpt lat="45.284568124798724" lon="9.276002520071156"><ele>79.0</ele><time>2026-04-18T08:34:24.001Z</time></trkpt><trkpt lat="45.284471190677486" lon="9.276110103391455"><ele>78.5</ele><time>2026-04-18T08:34:25.001Z</time></trkpt><trkpt lat="45.284375107761534" lon="9.27622195027355"><ele>78.0</ele><time>2026-04-18T08:34:26.001Z</time></trkpt><trkpt lat="45.28427341322626" lon="9.27634316176916"><ele>77.5</ele><time>2026-04-18T08:34:27.001Z</time></trkpt><trkpt lat="45.28416231110076" lon="9.276460952763184"><ele>77.0</ele><time>2026-04-18T08:34:28.001Z</time></trkpt><trkpt lat="45.28404922128837" lon="9.276562391200274"><ele>77.0</ele><time>2026-04-18T08:34:29.001Z</time></trkpt><trkpt lat="45.28394157988934" lon="9.276671952271096"><ele>77.0</ele><time>2026-04-18T08:34:30.001Z</time></trkpt><trkpt lat="45.28383407281747" lon="9.276773278478192"><ele>77.0</ele><time>2026-04-18T08:34:31.001Z</time></trkpt><trkpt lat="45.28374289815437" lon="9.276874969126467"><ele>77.0</ele><time>2026-04-18T08:34:32.001Z</time></trkpt><trkpt lat="45.28363013980763" lon="9.276916410845683"><ele>76.5</ele><time>2026-04-18T08:34:33.001Z</time></trkpt><trkpt lat="45.28351700204676" lon="9.276962891973593"><ele>76.0</ele><time>2026-04-18T08:34:34.001Z</time></trkpt><trkpt lat="45.283402173137674" lon="9.27702171914767"><ele>75.5</ele><time>2026-04-18T08:34:35.001Z</time></trkpt><trkpt lat="45.28329921356444" lon="9.277119517670863"><ele>75.0</ele><time>2026-04-18T08:34:36.001Z</time></trkpt><trkpt lat="45.28318889122486" lon="9.277206516439245"><ele>75.6</ele><time>2026-04-18T08:34:37.001Z</time></trkpt><trkpt lat="45.283083498843475" lon="9.277295979956726"><ele>76.2</ele><time>2026-04-18T08:34:38.001Z</time></trkpt><trkpt lat="45.28297959701619" lon="9.277355278945416"><ele>76.8</ele><time>2026-04-18T08:34:39.001Z</time></trkpt><trkpt lat="45.28289732154644" lon="9.277439201290356"><ele>77.4</ele><time>2026-04-18T08:34:40.001Z</time></trkpt><trkpt lat="45.28281103944989" lon="9.277470935755504"><ele>78.0</ele><time>2026-04-18T08:34:41.001Z</time></trkpt><trkpt lat="45.28273643296135" lon="9.277529271681654"><ele>78.0</ele><time>2026-04-18T08:34:42.001Z</time></trkpt><trkpt lat="45.28265779558019" lon="9.277550611835444"><ele>78.0</ele><time>2026-04-18T08:34:43.002Z</time></trkpt><trkpt lat="45.282587584919796" lon="9.277528820673284"><ele>78.0</ele><time>2026-04-18T08:34:44.002Z</time></trkpt><trkpt lat="45.28248213167463" lon="9.27752297811952"><ele>78.0</ele><time>2026-04-18T08:34:46.002Z</time></trkpt><trkpt lat="45.282419297082676" lon="9.27749168719846"><ele>78.0</ele><time>2026-04-18T08:34:48.002Z</time></trkpt><trkpt lat="45.282358083505" lon="9.27734025943424"><ele>78.0</ele><time>2026-04-18T08:34:51.002Z</time></trkpt><trkpt lat="45.28230542598673" lon="9.277246593292931"><ele>78.16666666666667</ele><time>2026-04-18T08:34:52.002Z</time></trkpt><trkpt lat="45.282270934392166" lon="9.277154491479797"><ele>78.33333333333333</ele><time>2026-04-18T08:34:53.002Z</time></trkpt><trkpt lat="45.28223520226612" lon="9.27706809340599"><ele>78.5</ele><time>2026-04-18T08:34:54.002Z</time></trkpt><trkpt lat="45.28219199105918" lon="9.276963388891726"><ele>78.66666666666666</ele><time>2026-04-18T08:34:55.002Z</time></trkpt><trkpt lat="45.28214666229683" lon="9.276851971394542"><ele>78.83333333333333</ele><time>2026-04-18T08:34:56.002Z</time></trkpt><trkpt lat="45.28210029130157" lon="9.276732408029671"><ele>79.0</ele><time>2026-04-18T08:34:57.002Z</time></trkpt><trkpt lat="45.28204449774991" lon="9.276627383876432"><ele>79.75</ele><time>2026-04-18T08:34:58.002Z</time></trkpt><trkpt lat="45.28196445506239" lon="9.27652315352182"><ele>80.5</ele><time>2026-04-18T08:34:59.002Z</time></trkpt><trkpt lat="45.281869114060314" lon="9.27642633230965"><ele>81.25</ele><time>2026-04-18T08:35:00.002Z</time></trkpt><trkpt lat="45.28176411063208" lon="9.276328010503036"><ele>82.0</ele><time>2026-04-18T08:35:01.002Z</time></trkpt><trkpt lat="45.28166008167174" lon="9.27622819689883"><ele>82.19999999999999</ele><time>2026-04-18T08:35:02.002Z</time></trkpt><trkpt lat="45.2815682202963" lon="9.276128718583548"><ele>82.4</ele><time>2026-04-18T08:35:03.002Z</time></trkpt><trkpt lat="45.281486595579594" lon="9.276034714940252"><ele>82.6</ele><time>2026-04-18T08:35:04.002Z</time></trkpt><trkpt lat="45.28140572844801" lon="9.275954630857782"><ele>82.80000000000001</ele><time>2026-04-18T08:35:05.002Z</time></trkpt><trkpt lat="45.28133154525431" lon="9.275901853959311"><ele>83.0</ele><time>2026-04-18T08:35:06.002Z</time></trkpt><trkpt lat="45.281265236925755" lon="9.27588877310079"><ele>83.2</ele><time>2026-04-18T08:35:07.002Z</time></trkpt><trkpt lat="45.281194452182305" lon="9.275907994963362"><ele>83.4</ele><time>2026-04-18T08:35:08.002Z</time></trkpt><trkpt lat="45.281116973762394" lon="9.275964811041778"><ele>83.60000000000001</ele><time>2026-04-18T08:35:09.002Z</time></trkpt><trkpt lat="45.28102934259577" lon="9.276029422132282"><ele>83.80000000000001</ele><time>2026-04-18T08:35:10.002Z</time></trkpt><trkpt lat="45.280933256840605" lon="9.276086941931004"><ele>84.0</ele><time>2026-04-18T08:35:11.002Z</time></trkpt><trkpt lat="45.28084803024288" lon="9.276134655736772"><ele>84.0</ele><time>2026-04-18T08:35:12.002Z</time></trkpt><trkpt lat="45.280769012607614" lon="9.276172082987404"><ele>84.0</ele><time>2026-04-18T08:35:13.002Z</time></trkpt><trkpt lat="45.280661464126275" lon="9.276158065198285"><ele>84.0</ele><time>2026-04-18T08:35:15.002Z</time></trkpt><trkpt lat="45.28059219235401" lon="9.276034998639025"><ele>84.0</ele><time>2026-04-18T08:35:17.002Z</time></trkpt><trkpt lat="45.28057118540226" lon="9.275905342125721"><ele>84.0</ele><time>2026-04-18T08:35:18.002Z</time></trkpt><trkpt lat="45.280534522574705" lon="9.275779861421059"><ele>83.75</ele><time>2026-04-18T08:35:19.002Z</time></trkpt><trkpt lat="45.280493216853245" lon="9.275640739354621"><ele>83.5</ele><time>2026-04-18T08:35:20.002Z</time></trkpt><trkpt lat="45.280448055254155" lon="9.275484335591251"><ele>83.25</ele><time>2026-04-18T08:35:21.002Z</time></trkpt><trkpt lat="45.28039697571015" lon="9.27531381647456"><ele>83.0</ele><time>2026-04-18T08:35:22.002Z</time></trkpt><trkpt lat="45.28033791338387" lon="9.27514961916764"><ele>83.0</ele><time>2026-04-18T08:35:23.002Z</time></trkpt><trkpt lat="45.28028061246449" lon="9.274997002564504"><ele>83.0</ele><time>2026-04-18T08:35:24.002Z</time></trkpt><trkpt lat="45.280210433311" lon="9.274854776903478"><ele>83.0</ele><time>2026-04-18T08:35:25.002Z</time></trkpt><trkpt lat="45.28012476772296" lon="9.274725372905321"><ele>83.0</ele><time>2026-04-18T08:35:26.002Z</time></trkpt><trkpt lat="45.280031030402085" lon="9.27459785268212"><ele>83.0</ele><time>2026-04-18T08:35:27.002Z</time></trkpt><trkpt lat="45.2799524909559" lon="9.274446916835124"><ele>83.0</ele><time>2026-04-18T08:35:28Z</time></trkpt><trkpt lat="45.279891852845694" lon="9.274279207792743"><ele>83.0</ele><time>2026-04-18T08:35:29Z</time></trkpt><trkpt lat="45.27984920358612" lon="9.274113557751486"><ele>83.0</ele><time>2026-04-18T08:35:30Z</time></trkpt><trkpt lat="45.27978477206205" lon="9.273975891354524"><ele>83.0</ele><time>2026-04-18T08:35:31Z</time></trkpt><trkpt lat="45.27969869977887" lon="9.273854330373865"><ele>83.0</ele><time>2026-04-18T08:35:32Z</time></trkpt><trkpt lat="45.279587069968024" lon="9.273751199665629"><ele>83.0</ele><time>2026-04-18T08:35:33Z</time></trkpt><trkpt lat="45.27950078787619" lon="9.273613841839051"><ele>83.0</ele><time>2026-04-18T08:35:34Z</time></trkpt><trkpt lat="45.27940922886865" lon="9.273483953679488"><ele>83.0</ele><time>2026-04-18T08:35:35Z</time></trkpt><trkpt lat="45.27932360047953" lon="9.273358789659246"><ele>83.0</ele><time>2026-04-18T08:35:36Z</time></trkpt><trkpt lat="45.27922628162673" lon="9.273235390220217"><ele>83.0</ele><time>2026-04-18T08:35:37Z</time></trkpt><trkpt lat="45.2791122810659" lon="9.273153135792892"><ele>83.0</ele><time>2026-04-18T08:35:38Z</time></trkpt><trkpt lat="45.27900597367443" lon="9.273063099234635"><ele>83.2</ele><time>2026-04-18T08:35:39Z</time></trkpt><trkpt lat="45.27890366621931" lon="9.27299466578562"><ele>83.4</ele><time>2026-04-18T08:35:40Z</time></trkpt><trkpt lat="45.27880525042715" lon="9.272946406190465"><ele>83.60000000000001</ele><time>2026-04-18T08:35:41Z</time></trkpt><trkpt lat="45.27869598518061" lon="9.27291496423016"><ele>83.80000000000001</ele><time>2026-04-18T08:35:42Z</time></trkpt><trkpt lat="45.278577126369825" lon="9.272906018811327"><ele>84.0</ele><time>2026-04-18T08:35:43Z</time></trkpt><trkpt lat="45.278449215518066" lon="9.27289422854292"><ele>84.0</ele><time>2026-04-18T08:35:44Z</time></trkpt><trkpt lat="45.27831813217352" lon="9.272877675097149"><ele>84.0</ele><time>2026-04-18T08:35:45Z</time></trkpt><trkpt lat="45.278186673678285" lon="9.27286486179988"><ele>84.0</ele><time>2026-04-18T08:35:46Z</time></trkpt><trkpt lat="45.27804975410297" lon="9.272857567611746"><ele>84.0</ele><time>2026-04-18T08:35:47Z</time></trkpt><trkpt lat="45.2779091840447" lon="9.272843585435128"><ele>83.75</ele><time>2026-04-18T08:35:48Z</time></trkpt><trkpt lat="45.27777476153918" lon="9.272810604835758"><ele>83.5</ele><time>2026-04-18T08:35:49Z</time></trkpt><trkpt lat="45.27766046061507" lon="9.272764028773496"><ele>83.25</ele><time>2026-04-18T08:35:50Z</time></trkpt><trkpt lat="45.27756034060627" lon="9.272699176594035"><ele>83.0</ele><time>2026-04-18T08:35:51Z</time></trkpt><trkpt lat="45.277456289556" lon="9.272613952148342"><ele>83.0</ele><time>2026-04-18T08:35:52Z</time></trkpt><trkpt lat="45.27734002284754" lon="9.272554127505874"><ele>83.0</ele><time>2026-04-18T08:35:53Z</time></trkpt><trkpt lat="45.27721369213322" lon="9.272540941379635"><ele>83.0</ele><time>2026-04-18T08:35:54Z</time></trkpt><trkpt lat="45.27708942276776" lon="9.27255917330359"><ele>83.0</ele><time>2026-04-18T08:35:55Z</time></trkpt><trkpt lat="45.2769404823505" lon="9.272553808582403"><ele>83.25</ele><time>2026-04-18T08:35:56Z</time></trkpt><trkpt lat="45.27679038028249" lon="9.272564616775652"><ele>83.5</ele><time>2026-04-18T08:35:57Z</time></trkpt><trkpt lat="45.27663529946601" lon="9.272570244205745"><ele>83.75</ele><time>2026-04-18T08:35:58Z</time></trkpt><trkpt lat="45.27649608747804" lon="9.272557260045447"><ele>84.0</ele><time>2026-04-18T08:35:59Z</time></trkpt><trkpt lat="45.276371895688506" lon="9.27253858465242"><ele>83.4</ele><time>2026-04-18T08:36:00Z</time></trkpt><trkpt lat="45.27625903978809" lon="9.272538776422667"><ele>82.80000000000001</ele><time>2026-04-18T08:36:01Z</time></trkpt><trkpt lat="45.27617035287794" lon="9.272500022774837"><ele>82.19999999999999</ele><time>2026-04-18T08:36:02Z</time></trkpt><trkpt lat="45.276105186978164" lon="9.27245671241769"><ele>81.6</ele><time>2026-04-18T08:36:03Z</time></trkpt><trkpt lat="45.27604471874449" lon="9.272391180930281"><ele>81.0</ele><time>2026-04-18T08:36:04.001Z</time></trkpt><trkpt lat="45.27597991488016" lon="9.272287297843944"><ele>81.25</ele><time>2026-04-18T08:36:05.001Z</time></trkpt><trkpt lat="45.27591397728017" lon="9.272143934258107"><ele>81.5</ele><time>2026-04-18T08:36:06.001Z</time></trkpt><trkpt lat="45.27584409655563" lon="9.271972033849128"><ele>81.75</ele><time>2026-04-18T08:36:07.001Z</time></trkpt><trkpt lat="45.27576591481624" lon="9.271786725216806"><ele>82.0</ele><time>2026-04-18T08:36:08.001Z</time></trkpt><trkpt lat="45.27567622588168" lon="9.271596419575124"><ele>81.66666666666666</ele><time>2026-04-18T08:36:09.001Z</time></trkpt><trkpt lat="45.27559337896707" lon="9.271411887711272"><ele>81.33333333333333</ele><time>2026-04-18T08:36:10.001Z</time></trkpt><trkpt lat="45.27551638505234" lon="9.27122471960217"><ele>81.0</ele><time>2026-04-18T08:36:11.001Z</time></trkpt><trkpt lat="45.275442073088406" lon="9.271025852379681"><ele>81.0</ele><time>2026-04-18T08:36:12.001Z</time></trkpt><trkpt lat="45.27537391288766" lon="9.27083124030853"><ele>81.0</ele><time>2026-04-18T08:36:13.001Z</time></trkpt><trkpt lat="45.2753144746888" lon="9.270644738072022"><ele>81.0</ele><time>2026-04-18T08:36:14.001Z</time></trkpt><trkpt lat="45.27526181952959" lon="9.270471370226275"><ele>81.0</ele><time>2026-04-18T08:36:15.001Z</time></trkpt><trkpt lat="45.27520028091871" lon="9.270319121331822"><ele>81.0</ele><time>2026-04-18T08:36:16.001Z</time></trkpt><trkpt lat="45.2751191568623" lon="9.270187129614065"><ele>81.0</ele><time>2026-04-18T08:36:17.001Z</time></trkpt><trkpt lat="45.27501112454576" lon="9.270068983972273"><ele>81.0</ele><time>2026-04-18T08:36:18.001Z</time></trkpt><trkpt lat="45.27488630392139" lon="9.269963301868737"><ele>81.0</ele><time>2026-04-18T08:36:19.001Z</time></trkpt><trkpt lat="45.27475054075682" lon="9.269864413755995"><ele>81.0</ele><time>2026-04-18T08:36:20.001Z</time></trkpt><trkpt lat="45.274611364165416" lon="9.269761060724223"><ele>81.0</ele><time>2026-04-18T08:36:21.001Z</time></trkpt><trkpt lat="45.27447894495321" lon="9.269654067705941"><ele>81.0</ele><time>2026-04-18T08:36:22.001Z</time></trkpt><trkpt lat="45.27436140134612" lon="9.269556438150873"><ele>81.0</ele><time>2026-04-18T08:36:23.001Z</time></trkpt><trkpt lat="45.27425828671093" lon="9.269457612283409"><ele>81.0</ele><time>2026-04-18T08:36:24.001Z</time></trkpt><trkpt lat="45.27417511704852" lon="9.269347430072315"><ele>81.0</ele><time>2026-04-18T08:36:25.001Z</time></trkpt><trkpt lat="45.2741190321961" lon="9.269193490952603"><ele>81.0</ele><time>2026-04-18T08:36:26.001Z</time></trkpt><trkpt lat="45.274046131690675" lon="9.269040192704475"><ele>81.0</ele><time>2026-04-18T08:36:27.001Z</time></trkpt><trkpt lat="45.2739895615803" lon="9.26885783300447"><ele>81.25</ele><time>2026-04-18T08:36:28.001Z</time></trkpt><trkpt lat="45.273933231875745" lon="9.268668206726446"><ele>81.5</ele><time>2026-04-18T08:36:29.001Z</time></trkpt><trkpt lat="45.27387363578384" lon="9.268481171699412"><ele>81.75</ele><time>2026-04-18T08:36:30.001Z</time></trkpt><trkpt lat="45.273822399414215" lon="9.268300327074108"><ele>82.0</ele><time>2026-04-18T08:36:31.001Z</time></trkpt><trkpt lat="45.273778140257406" lon="9.268127787949558"><ele>82.0</ele><time>2026-04-18T08:36:32.001Z</time></trkpt><trkpt lat="45.27374216857531" lon="9.26796658574171"><ele>82.0</ele><time>2026-04-18T08:36:33.001Z</time></trkpt><trkpt lat="45.27370465400877" lon="9.267820715664763"><ele>82.0</ele><time>2026-04-18T08:36:34.001Z</time></trkpt><trkpt lat="45.273665640234526" lon="9.267701758830833"><ele>82.0</ele><time>2026-04-18T08:36:35.001Z</time></trkpt><trkpt lat="45.27364006245862" lon="9.26760472965934"><ele>82.0</ele><time>2026-04-18T08:36:36.001Z</time></trkpt><trkpt lat="45.27359221588231" lon="9.267525440159075"><ele>82.0</ele><time>2026-04-18T08:36:37.001Z</time></trkpt><trkpt lat="45.2735003549259" lon="9.267488553596152"><ele>82.0</ele><time>2026-04-18T08:36:38.001Z</time></trkpt><trkpt lat="45.273396821411055" lon="9.267532839526286"><ele>82.0</ele><time>2026-04-18T08:36:39.001Z</time></trkpt><trkpt lat="45.273310123912985" lon="9.267611989790199"><ele>82.0</ele><time>2026-04-18T08:36:40.001Z</time></trkpt><trkpt lat="45.27320640653436" lon="9.267671788560952"><ele>82.0</ele><time>2026-04-18T08:36:41.001Z</time></trkpt><trkpt lat="45.27309413237732" lon="9.26771043502584"><ele>81.5</ele><time>2026-04-18T08:36:42.001Z</time></trkpt><trkpt lat="45.27298440661567" lon="9.26779114510072"><ele>81.0</ele><time>2026-04-18T08:36:43.001Z</time></trkpt><trkpt lat="45.27286072591004" lon="9.267847286849582"><ele>80.5</ele><time>2026-04-18T08:36:44.001Z</time></trkpt><trkpt lat="45.272736796630596" lon="9.26791374328071"><ele>80.0</ele><time>2026-04-18T08:36:45.001Z</time></trkpt><trkpt lat="45.27261528003567" lon="9.267986109890371"><ele>80.0</ele><time>2026-04-18T08:36:46.001Z</time></trkpt><trkpt lat="45.272493571069" lon="9.268052632864947"><ele>80.0</ele><time>2026-04-18T08:36:47.001Z</time></trkpt><trkpt lat="45.27236999977605" lon="9.26814306348445"><ele>80.0</ele><time>2026-04-18T08:36:48.001Z</time></trkpt><trkpt lat="45.27226881168493" lon="9.268222202728081"><ele>80.0</ele><time>2026-04-18T08:36:49.002Z</time></trkpt><trkpt lat="45.272164469293315" lon="9.268307379897506"><ele>79.75</ele><time>2026-04-18T08:36:50.002Z</time></trkpt><trkpt lat="45.272051246294545" lon="9.26839200663762"><ele>79.5</ele><time>2026-04-18T08:36:51.002Z</time></trkpt><trkpt lat="45.271930829187994" lon="9.268474562097191"><ele>79.25</ele><time>2026-04-18T08:36:52.002Z</time></trkpt><trkpt lat="45.27180418809225" lon="9.268557579831187"><ele>79.0</ele><time>2026-04-18T08:36:53.002Z</time></trkpt><trkpt lat="45.271665084395664" lon="9.268651556309477"><ele>79.0</ele><time>2026-04-18T08:36:54.002Z</time></trkpt><trkpt lat="45.271513471788076" lon="9.268758692912531"><ele>79.0</ele><time>2026-04-18T08:36:55.002Z</time></trkpt><trkpt lat="45.27135382870161" lon="9.268870528828623"><ele>79.0</ele><time>2026-04-18T08:36:56.002Z</time></trkpt><trkpt lat="45.271185723636265" lon="9.26898957889337"><ele>79.66666666666666</ele><time>2026-04-18T08:36:57.002Z</time></trkpt><trkpt lat="45.27103274663849" lon="9.269097906290755"><ele>80.33333333333333</ele><time>2026-04-18T08:36:58.002Z</time></trkpt><trkpt lat="45.27088833775997" lon="9.269202872284902"><ele>81.0</ele><time>2026-04-18T08:36:59.002Z</time></trkpt><trkpt lat="45.27075295822227" lon="9.269301511009266"><ele>81.0</ele><time>2026-04-18T08:37:00.002Z</time></trkpt><trkpt lat="45.270621890770464" lon="9.269377397049889"><ele>81.0</ele><time>2026-04-18T08:37:01.002Z</time></trkpt><trkpt lat="45.27050629303064" lon="9.269493001306781"><ele>81.0</ele><time>2026-04-18T08:37:02.002Z</time></trkpt><trkpt lat="45.27040364251757" lon="9.269649456102375"><ele>81.0</ele><time>2026-04-18T08:37:03.002Z</time></trkpt><trkpt lat="45.27031491515306" lon="9.269833075003918"><ele>80.66666666666667</ele><time>2026-04-18T08:37:04.002Z</time></trkpt><trkpt lat="45.27019693846524" lon="9.270001254044942"><ele>80.33333333333334</ele><time>2026-04-18T08:37:05.002Z</time></trkpt><trkpt lat="45.270089229391374" lon="9.270188558384731"><ele>80.0</ele><time>2026-04-18T08:37:06.002Z</time></trkpt><trkpt lat="45.26998321624983" lon="9.27038404796662"><ele>80.0</ele><time>2026-04-18T08:37:07.002Z</time></trkpt><trkpt lat="45.269895773910896" lon="9.27057063534909"><ele>80.0</ele><time>2026-04-18T08:37:08.002Z</time></trkpt><trkpt lat="45.269824814203076" lon="9.270746207784933"><ele>80.0</ele><time>2026-04-18T08:37:09.002Z</time></trkpt><trkpt lat="45.26974559423538" lon="9.270883194678959"><ele>80.0</ele><time>2026-04-18T08:37:10.002Z</time></trkpt><trkpt lat="45.269678377831106" lon="9.271013390496627"><ele>80.25</ele><time>2026-04-18T08:37:11.002Z</time></trkpt><trkpt lat="45.269621545363336" lon="9.271128995524249"><ele>80.5</ele><time>2026-04-18T08:37:12.002Z</time></trkpt><trkpt lat="45.269634616832356" lon="9.27129253876639"><ele>80.75</ele><time>2026-04-18T08:37:13.002Z</time></trkpt><trkpt lat="45.26965091094965" lon="9.27146544943312"><ele>81.0</ele><time>2026-04-18T08:37:14.002Z</time></trkpt><trkpt lat="45.26966783269287" lon="9.271661860533058"><ele>81.0</ele><time>2026-04-18T08:37:15.002Z</time></trkpt><trkpt lat="45.26967602295176" lon="9.27187622520266"><ele>81.0</ele><time>2026-04-18T08:37:16.002Z</time></trkpt><trkpt lat="45.26967804323209" lon="9.272078637983217"><ele>81.0</ele><time>2026-04-18T08:37:17.002Z</time></trkpt><trkpt lat="45.26967953076114" lon="9.272250684836424"><ele>81.0</ele><time>2026-04-18T08:37:18.002Z</time></trkpt><trkpt lat="45.269670498853166" lon="9.272392544826005"><ele>81.0</ele><time>2026-04-18T08:37:19.002Z</time></trkpt><trkpt lat="45.26963876428682" lon="9.272505708215613"><ele>81.0</ele><time>2026-04-18T08:37:20.002Z</time></trkpt><trkpt lat="45.26958703744674" lon="9.272594560682101"><ele>81.0</ele><time>2026-04-18T08:37:21.002Z</time></trkpt><trkpt lat="45.2694971993862" lon="9.272629799442846"><ele>81.0</ele><time>2026-04-18T08:37:22.002Z</time></trkpt><trkpt lat="45.26939539603962" lon="9.27269330296495"><ele>81.0</ele><time>2026-04-18T08:37:23.002Z</time></trkpt><trkpt lat="45.26927430000144" lon="9.272769123370093"><ele>81.0</ele><time>2026-04-18T08:37:24.002Z</time></trkpt><trkpt lat="45.26914607892351" lon="9.272863687730279"><ele>81.0</ele><time>2026-04-18T08:37:25.002Z</time></trkpt><trkpt lat="45.269012583413215" lon="9.272969483915253"><ele>81.0</ele><time>2026-04-18T08:37:26.002Z</time></trkpt><trkpt lat="45.26888176405657" lon="9.273101882844346"><ele>81.25</ele><time>2026-04-18T08:37:27.002Z</time></trkpt><trkpt lat="45.26874645369159" lon="9.273216012161287"><ele>81.5</ele><time>2026-04-18T08:37:28.002Z</time></trkpt><trkpt lat="45.26862348366831" lon="9.273319003218537"><ele>81.75</ele><time>2026-04-18T08:37:29.002Z</time></trkpt><trkpt lat="45.268512700431714" lon="9.273418508197558"><ele>82.0</ele><time>2026-04-18T08:37:30.002Z</time></trkpt><trkpt lat="45.26841577255681" lon="9.27350840709736"><ele>82.0</ele><time>2026-04-18T08:37:31.002Z</time></trkpt><trkpt lat="45.268330763232655" lon="9.273581547166486"><ele>82.0</ele><time>2026-04-18T08:37:32.002Z</time></trkpt><trkpt lat="45.26825573520063" lon="9.27361387736242"><ele>82.0</ele><time>2026-04-18T08:37:33.002Z</time></trkpt><trkpt lat="45.26818391823216" lon="9.273614740160793"><ele>82.0</ele><time>2026-04-18T08:37:33.999Z</time></trkpt><trkpt lat="45.26809944700916" lon="9.27357326360641"><ele>82.0</ele><time>2026-04-18T08:37:34.999Z</time></trkpt><trkpt lat="45.268022408151246" lon="9.273683479946573"><ele>82.0</ele><time>2026-04-18T08:37:35.999Z</time></trkpt><trkpt lat="45.267940809281754" lon="9.273786856890354"><ele>82.25</ele><time>2026-04-18T08:37:36.999Z</time></trkpt><trkpt lat="45.2678478120867" lon="9.273902028287718"><ele>82.5</ele><time>2026-04-18T08:37:37.999Z</time></trkpt><trkpt lat="45.26773743305579" lon="9.27400230052185"><ele>82.75</ele><time>2026-04-18T08:37:38.999Z</time></trkpt><trkpt lat="45.26761999257676" lon="9.274090631613257"><ele>83.0</ele><time>2026-04-18T08:37:39.999Z</time></trkpt><trkpt lat="45.26750357263901" lon="9.2741827303586"><ele>83.0</ele><time>2026-04-18T08:37:40.999Z</time></trkpt><trkpt lat="45.26738246822918" lon="9.27424207294397"><ele>83.0</ele><time>2026-04-18T08:37:41.999Z</time></trkpt><trkpt lat="45.2672712207271" lon="9.274324090051115"><ele>83.0</ele><time>2026-04-18T08:37:42.999Z</time></trkpt><trkpt lat="45.26713826653145" lon="9.274374798021642"><ele>83.0</ele><time>2026-04-18T08:37:43.999Z</time></trkpt><trkpt lat="45.267006749373884" lon="9.274421257252634"><ele>83.0</ele><time>2026-04-18T08:37:44.999Z</time></trkpt><trkpt lat="45.26687953452055" lon="9.274472928968414"><ele>83.0</ele><time>2026-04-18T08:37:45.999Z</time></trkpt><trkpt lat="45.26674968272332" lon="9.27453504717771"><ele>83.0</ele><time>2026-04-18T08:37:46.999Z</time></trkpt><trkpt lat="45.26661709588613" lon="9.274609154623981"><ele>83.0</ele><time>2026-04-18T08:37:47.999Z</time></trkpt><trkpt lat="45.26649367708845" lon="9.274693003497475"><ele>83.25</ele><time>2026-04-18T08:37:48.999Z</time></trkpt><trkpt lat="45.26637557643198" lon="9.274785302931788"><ele>83.5</ele><time>2026-04-18T08:37:49.999Z</time></trkpt><trkpt lat="45.26627254995916" lon="9.274878059738494"><ele>83.75</ele><time>2026-04-18T08:37:50.999Z</time></trkpt><trkpt lat="45.26617630052164" lon="9.274982737705924"><ele>84.0</ele><time>2026-04-18T08:37:51.999Z</time></trkpt><trkpt lat="45.26608394254247" lon="9.275091243177554"><ele>84.0</ele><time>2026-04-18T08:37:52.999Z</time></trkpt><trkpt lat="45.26598752732929" lon="9.275161461238506"><ele>84.0</ele><time>2026-04-18T08:37:53.999Z</time></trkpt><trkpt lat="45.26589384410893" lon="9.275230009116298"><ele>84.0</ele><time>2026-04-18T08:37:54.999Z</time></trkpt><trkpt lat="45.2658219002903" lon="9.275266423915266"><ele>84.0</ele><time>2026-04-18T08:37:55.999Z</time></trkpt><trkpt lat="45.26570357804697" lon="9.275210420124898"><ele>84.0</ele><time>2026-04-18T08:37:58Z</time></trkpt><trkpt lat="45.26563317617707" lon="9.275131544542273"><ele>84.0</ele><time>2026-04-18T08:37:59Z</time></trkpt><trkpt lat="45.26555357786551" lon="9.275041848158475"><ele>84.0</ele><time>2026-04-18T08:38:00Z</time></trkpt><trkpt lat="45.2654555844392" lon="9.274950859603244"><ele>84.0</ele><time>2026-04-18T08:38:01Z</time></trkpt><trkpt lat="45.26535207955599" lon="9.274858520178384"><ele>84.0</ele><time>2026-04-18T08:38:02Z</time></trkpt><trkpt lat="45.265254352834006" lon="9.27476933525526"><ele>84.0</ele><time>2026-04-18T08:38:03Z</time></trkpt><trkpt lat="45.2651694182086" lon="9.274679845016113"><ele>84.0</ele><time>2026-04-18T08:38:04Z</time></trkpt><trkpt lat="45.2650890112373" lon="9.274614157776767"><ele>84.0</ele><time>2026-04-18T08:38:05Z</time></trkpt><trkpt lat="45.26498716288522" lon="9.274607366636387"><ele>84.0</ele><time>2026-04-18T08:38:07Z</time></trkpt><trkpt lat="45.26489864254237" lon="9.274628441600935"><ele>84.0</ele><time>2026-04-18T08:38:09Z</time></trkpt><trkpt lat="45.264833359604076" lon="9.274647095157588"><ele>83.80000000000001</ele><time>2026-04-18T08:38:10Z</time></trkpt><trkpt lat="45.264755340094915" lon="9.274721933255554"><ele>83.60000000000001</ele><time>2026-04-18T08:38:11Z</time></trkpt><trkpt lat="45.26465564957755" lon="9.274733811533043"><ele>83.4</ele><time>2026-04-18T08:38:12Z</time></trkpt><trkpt lat="45.26454705626973" lon="9.274757326967233"><ele>83.2</ele><time>2026-04-18T08:38:13Z</time></trkpt><trkpt lat="45.26444258532447" lon="9.274797317796587"><ele>83.0</ele><time>2026-04-18T08:38:14Z</time></trkpt><trkpt lat="45.264330216608194" lon="9.274846904238462"><ele>83.0</ele><time>2026-04-18T08:38:15Z</time></trkpt><trkpt lat="45.264214945842006" lon="9.27489038721326"><ele>83.0</ele><time>2026-04-18T08:38:16Z</time></trkpt><trkpt lat="45.264091020185816" lon="9.27493753419623"><ele>83.0</ele><time>2026-04-18T08:38:17Z</time></trkpt><trkpt lat="45.26397400239246" lon="9.274996059041252"><ele>83.0</ele><time>2026-04-18T08:38:18Z</time></trkpt><trkpt lat="45.263864906487235" lon="9.275083691261027"><ele>83.0</ele><time>2026-04-18T08:38:19Z</time></trkpt><trkpt lat="45.26375713413182" lon="9.275197919951797"><ele>83.0</ele><time>2026-04-18T08:38:20Z</time></trkpt><trkpt lat="45.26363777335504" lon="9.275303745295641"><ele>83.0</ele><time>2026-04-18T08:38:21Z</time></trkpt><trkpt lat="45.263526225631175" lon="9.275432662313056"><ele>83.0</ele><time>2026-04-18T08:38:22Z</time></trkpt><trkpt lat="45.26341137638371" lon="9.275567575649854"><ele>83.0</ele><time>2026-04-18T08:38:23Z</time></trkpt><trkpt lat="45.26328841960636" lon="9.275712329257146"><ele>83.0</ele><time>2026-04-18T08:38:24Z</time></trkpt><trkpt lat="45.2631758389105" lon="9.275873394198067"><ele>83.0</ele><time>2026-04-18T08:38:25Z</time></trkpt><trkpt lat="45.263057990679854" lon="9.276007303068905"><ele>82.5</ele><time>2026-04-18T08:38:26Z</time></trkpt><trkpt lat="45.26294386353543" lon="9.27611204485"><ele>82.0</ele><time>2026-04-18T08:38:27Z</time></trkpt><trkpt lat="45.26284213911232" lon="9.276223975131877"><ele>81.5</ele><time>2026-04-18T08:38:28.001Z</time></trkpt><trkpt lat="45.262755669082026" lon="9.276344982343913"><ele>81.0</ele><time>2026-04-18T08:38:29.001Z</time></trkpt><trkpt lat="45.26266563215959" lon="9.276433883570936"><ele>81.0</ele><time>2026-04-18T08:38:30.001Z</time></trkpt><trkpt lat="45.26259351460607" lon="9.276505038510342"><ele>81.0</ele><time>2026-04-18T08:38:31.001Z</time></trkpt><trkpt lat="45.26253472242171" lon="9.276542136447425"><ele>81.0</ele><time>2026-04-18T08:38:32.001Z</time></trkpt><trkpt lat="45.26247243118942" lon="9.276557423346759"><ele>81.0</ele><time>2026-04-18T08:38:36.001Z</time></trkpt><trkpt lat="45.26239254323369" lon="9.276426465916396"><ele>81.0</ele><time>2026-04-18T08:38:45.001Z</time></trkpt><trkpt lat="45.262337699278" lon="9.276373985256646"><ele>81.0</ele><time>2026-04-18T08:38:46.001Z</time></trkpt><trkpt lat="45.262268997885144" lon="9.276300501857285"><ele>81.0</ele><time>2026-04-18T08:38:47.001Z</time></trkpt><trkpt lat="45.262187609722844" lon="9.276210847370413"><ele>81.0</ele><time>2026-04-18T08:38:48.001Z</time></trkpt><trkpt lat="45.2620973383061" lon="9.27611265928657"><ele>81.0</ele><time>2026-04-18T08:38:49.001Z</time></trkpt><trkpt lat="45.26201595436286" lon="9.276027745354932"><ele>81.0</ele><time>2026-04-18T08:38:50.001Z</time></trkpt><trkpt lat="45.26193145522563" lon="9.275943800545615"><ele>81.0</ele><time>2026-04-18T08:38:51.001Z</time></trkpt><trkpt lat="45.2618419353575" lon="9.275860599635507"><ele>81.0</ele><time>2026-04-18T08:38:52.001Z</time></trkpt><trkpt lat="45.2617522202659" lon="9.27578247212642"><ele>81.0</ele><time>2026-04-18T08:38:53.001Z</time></trkpt><trkpt lat="45.26164822874111" lon="9.275721705391243"><ele>81.0</ele><time>2026-04-18T08:38:54.001Z</time></trkpt><trkpt lat="45.26155712164132" lon="9.275616461222599"><ele>81.0</ele><time>2026-04-18T08:38:55.001Z</time></trkpt><trkpt lat="45.2614607039614" lon="9.275532432655906"><ele>81.0</ele><time>2026-04-18T08:38:56.001Z</time></trkpt><trkpt lat="45.26135648122904" lon="9.275467062010373"><ele>81.19999999999999</ele><time>2026-04-18T08:38:57.001Z</time></trkpt><trkpt lat="45.26125868381454" lon="9.275380727751717"><ele>81.39999999999999</ele><time>2026-04-18T08:38:58.001Z</time></trkpt><trkpt lat="45.26115998036658" lon="9.275290593926858"><ele>81.6</ele><time>2026-04-18T08:38:59.001Z</time></trkpt><trkpt lat="45.26107050113529" lon="9.27521213150155"><ele>81.8</ele><time>2026-04-18T08:39:00.001Z</time></trkpt><trkpt lat="45.260988322357" lon="9.275141160718889"><ele>82.0</ele><time>2026-04-18T08:39:01.001Z</time></trkpt><trkpt lat="45.260914668463194" lon="9.275077996925402"><ele>82.0</ele><time>2026-04-18T08:39:02.001Z</time></trkpt><trkpt lat="45.26084655387251" lon="9.275020369704134"><ele>82.0</ele><time>2026-04-18T08:39:03.001Z</time></trkpt><trkpt lat="45.26076940121513" lon="9.27495797222137"><ele>82.0</ele><time>2026-04-18T08:39:04.001Z</time></trkpt><trkpt lat="45.260690191497986" lon="9.274895039783072"><ele>82.0</ele><time>2026-04-18T08:39:05.002Z</time></trkpt><trkpt lat="45.26061091232859" lon="9.274825837096131"><ele>82.0</ele><time>2026-04-18T08:39:06.002Z</time></trkpt><trkpt lat="45.26052842815551" lon="9.274758385314412"><ele>82.0</ele><time>2026-04-18T08:39:07.002Z</time></trkpt><trkpt lat="45.260447155069265" lon="9.274690278999543"><ele>82.19999999999999</ele><time>2026-04-18T08:39:08.002Z</time></trkpt><trkpt lat="45.260363968736286" lon="9.274624106344667"><ele>82.4</ele><time>2026-04-18T08:39:09.002Z</time></trkpt><trkpt lat="45.2602802095903" lon="9.274557391700712"><ele>82.6</ele><time>2026-04-18T08:39:10.002Z</time></trkpt><trkpt lat="45.260198815743955" lon="9.274479154551745"><ele>82.80000000000001</ele><time>2026-04-18T08:39:11.002Z</time></trkpt><trkpt lat="45.260119308833794" lon="9.274407390015398"><ele>83.0</ele><time>2026-04-18T08:39:12.002Z</time></trkpt><trkpt lat="45.26003915162319" lon="9.274338018519705"><ele>83.0</ele><time>2026-04-18T08:39:13.002Z</time></trkpt><trkpt lat="45.259951167809774" lon="9.274255507621447"><ele>83.0</ele><time>2026-04-18T08:39:14.002Z</time></trkpt><trkpt lat="45.25985962632019" lon="9.274178128758498"><ele>83.0</ele><time>2026-04-18T08:39:15.002Z</time></trkpt><trkpt lat="45.25975992450007" lon="9.274099742956258"><ele>83.0</ele><time>2026-04-18T08:39:16.002Z</time></trkpt><trkpt lat="45.25964629110326" lon="9.274008119621096"><ele>82.5</ele><time>2026-04-18T08:39:17.002Z</time></trkpt><trkpt lat="45.25953304920604" lon="9.273915523881328"><ele>82.0</ele><time>2026-04-18T08:39:18.002Z</time></trkpt><trkpt lat="45.259424208002024" lon="9.27382159416631"><ele>81.5</ele><time>2026-04-18T08:39:19.002Z</time></trkpt><trkpt lat="45.25931627163252" lon="9.273718284310398"><ele>81.0</ele><time>2026-04-18T08:39:20.002Z</time></trkpt><trkpt lat="45.259208331482796" lon="9.273614135806344"><ele>81.0</ele><time>2026-04-18T08:39:21.002Z</time></trkpt><trkpt lat="45.25909929524422" lon="9.273516079868468"><ele>81.0</ele><time>2026-04-18T08:39:22.002Z</time></trkpt><trkpt lat="45.25899044758971" lon="9.27341776388049"><ele>81.0</ele><time>2026-04-18T08:39:23.002Z</time></trkpt><trkpt lat="45.25887988323618" lon="9.273328393828296"><ele>81.0</ele><time>2026-04-18T08:39:24.002Z</time></trkpt><trkpt lat="45.258779905523866" lon="9.27324781526254"><ele>81.4</ele><time>2026-04-18T08:39:25.002Z</time></trkpt><trkpt lat="45.25868060393748" lon="9.27317822851547"><ele>81.8</ele><time>2026-04-18T08:39:26.002Z</time></trkpt><trkpt lat="45.2585801980572" lon="9.273115863146332"><ele>82.2</ele><time>2026-04-18T08:39:27.002Z</time></trkpt><trkpt lat="45.25847810763774" lon="9.273056203536603"><ele>82.60000000000001</ele><time>2026-04-18T08:39:28.002Z</time></trkpt><trkpt lat="45.258378300710305" lon="9.272987730241962"><ele>83.0</ele><time>2026-04-18T08:39:29.002Z</time></trkpt><trkpt lat="45.25829030002304" lon="9.27288979121705"><ele>83.2</ele><time>2026-04-18T08:39:30.002Z</time></trkpt><trkpt lat="45.258202060854245" lon="9.272798781498492"><ele>83.4</ele><time>2026-04-18T08:39:31.002Z</time></trkpt><trkpt lat="45.25811299571523" lon="9.272703674338587"><ele>83.60000000000001</ele><time>2026-04-18T08:39:32.002Z</time></trkpt><trkpt lat="45.258026380095224" lon="9.272609090728858"><ele>83.80000000000001</ele><time>2026-04-18T08:39:33.002Z</time></trkpt><trkpt lat="45.257934271006555" lon="9.272516671709761"><ele>84.0</ele><time>2026-04-18T08:39:34.002Z</time></trkpt><trkpt lat="45.25782712312591" lon="9.272447813268203"><ele>83.5</ele><time>2026-04-18T08:39:35.002Z</time></trkpt><trkpt lat="45.25773779570158" lon="9.272352958410119"><ele>83.0</ele><time>2026-04-18T08:39:36.002Z</time></trkpt><trkpt lat="45.25763897489346" lon="9.27226670432278"><ele>82.5</ele><time>2026-04-18T08:39:37.002Z</time></trkpt><trkpt lat="45.25753208841178" lon="9.272172143534892"><ele>82.0</ele><time>2026-04-18T08:39:38.002Z</time></trkpt><trkpt lat="45.257426658200544" lon="9.272076274786096"><ele>81.75</ele><time>2026-04-18T08:39:39.002Z</time></trkpt><trkpt lat="45.25732128696217" lon="9.27197766979479"><ele>81.5</ele><time>2026-04-18T08:39:39.999Z</time></trkpt><trkpt lat="45.25721933649786" lon="9.271881813149271"><ele>81.25</ele><time>2026-04-18T08:39:40.999Z</time></trkpt><trkpt lat="45.257117109177216" lon="9.271790062477395"><ele>81.0</ele><time>2026-04-18T08:39:41.999Z</time></trkpt><trkpt lat="45.257015663314085" lon="9.27170341175159"><ele>80.75</ele><time>2026-04-18T08:39:42.999Z</time></trkpt><trkpt lat="45.256917092404564" lon="9.271618066957881"><ele>80.5</ele><time>2026-04-18T08:39:43.999Z</time></trkpt><trkpt lat="45.25681602046006" lon="9.271528506669489"><ele>80.25</ele><time>2026-04-18T08:39:44.999Z</time></trkpt><trkpt lat="45.256716677598824" lon="9.271437063809424"><ele>80.0</ele><time>2026-04-18T08:39:45.999Z</time></trkpt><trkpt lat="45.25661472841217" lon="9.271354601929433"><ele>79.8</ele><time>2026-04-18T08:39:46.999Z</time></trkpt><trkpt lat="45.25651478778111" lon="9.271270023008725"><ele>79.6</ele><time>2026-04-18T08:39:47.999Z</time></trkpt><trkpt lat="45.25642152806418" lon="9.271190027547313"><ele>79.4</ele><time>2026-04-18T08:39:48.999Z</time></trkpt><trkpt lat="45.25634001266762" lon="9.271106546465818"><ele>79.2</ele><time>2026-04-18T08:39:49.999Z</time></trkpt><trkpt lat="45.256257242175764" lon="9.271037966803396"><ele>79.0</ele><time>2026-04-18T08:39:50.999Z</time></trkpt><trkpt lat="45.256172772867345" lon="9.270978223294023"><ele>79.2</ele><time>2026-04-18T08:39:51.999Z</time></trkpt><trkpt lat="45.256085180700374" lon="9.270908862081493"><ele>79.4</ele><time>2026-04-18T08:39:52.999Z</time></trkpt><trkpt lat="45.25599569238601" lon="9.270828639447776"><ele>79.6</ele><time>2026-04-18T08:39:53.999Z</time></trkpt><trkpt lat="45.255910267627314" lon="9.270719504100107"><ele>79.8</ele><time>2026-04-18T08:39:55Z</time></trkpt><trkpt lat="45.25580873902146" lon="9.270625374651091"><ele>80.0</ele><time>2026-04-18T08:39:56Z</time></trkpt><trkpt lat="45.255686051970784" lon="9.270537949544666"><ele>80.25</ele><time>2026-04-18T08:39:57Z</time></trkpt><trkpt lat="45.255566944293314" lon="9.270427042929148"><ele>80.5</ele><time>2026-04-18T08:39:58Z</time></trkpt><trkpt lat="45.25544005707653" lon="9.270316425526042"><ele>80.75</ele><time>2026-04-18T08:39:59Z</time></trkpt><trkpt lat="45.255315004233765" lon="9.270207743543061"><ele>81.0</ele><time>2026-04-18T08:40:00Z</time></trkpt><trkpt lat="45.25519489682956" lon="9.270104059042712"><ele>81.0</ele><time>2026-04-18T08:40:01Z</time></trkpt><trkpt lat="45.255083611009766" lon="9.270003827391958"><ele>81.0</ele><time>2026-04-18T08:40:02Z</time></trkpt><trkpt lat="45.25498063793447" lon="9.269911694198154"><ele>81.0</ele><time>2026-04-18T08:40:03Z</time></trkpt><trkpt lat="45.25487392006219" lon="9.269819150414978"><ele>81.0</ele><time>2026-04-18T08:40:04Z</time></trkpt><trkpt lat="45.25477033156738" lon="9.26973250586997"><ele>81.5</ele><time>2026-04-18T08:40:05Z</time></trkpt><trkpt lat="45.25466086020443" lon="9.269643001439528"><ele>82.0</ele><time>2026-04-18T08:40:06Z</time></trkpt><trkpt lat="45.254549006478854" lon="9.269547297256615"><ele>82.5</ele><time>2026-04-18T08:40:07Z</time></trkpt><trkpt lat="45.25443713265636" lon="9.269454841758671"><ele>83.0</ele><time>2026-04-18T08:40:08Z</time></trkpt><trkpt lat="45.25432176834637" lon="9.269357439922683"><ele>83.0</ele><time>2026-04-18T08:40:09Z</time></trkpt><trkpt lat="45.2542111718846" lon="9.269254345258933"><ele>83.0</ele><time>2026-04-18T08:40:10Z</time></trkpt><trkpt lat="45.25409775751332" lon="9.269163079700933"><ele>83.0</ele><time>2026-04-18T08:40:11Z</time></trkpt><trkpt lat="45.25398707892532" lon="9.269064202160076"><ele>83.0</ele><time>2026-04-18T08:40:12Z</time></trkpt><trkpt lat="45.253878163812544" lon="9.268970716382201"><ele>82.5</ele><time>2026-04-18T08:40:13Z</time></trkpt><trkpt lat="45.253765138359775" lon="9.26887378714543"><ele>82.0</ele><time>2026-04-18T08:40:14Z</time></trkpt><trkpt lat="45.25365511095851" lon="9.268780110913765"><ele>81.5</ele><time>2026-04-18T08:40:15Z</time></trkpt><trkpt lat="45.253547340441685" lon="9.268691266805591"><ele>81.0</ele><time>2026-04-18T08:40:16Z</time></trkpt><trkpt lat="45.25344021804459" lon="9.268603973907597"><ele>81.0</ele><time>2026-04-18T08:40:17Z</time></trkpt><trkpt lat="45.25333587118117" lon="9.268508436162854"><ele>81.0</ele><time>2026-04-18T08:40:18Z</time></trkpt><trkpt lat="45.25322371725964" lon="9.268404244246575"><ele>81.0</ele><time>2026-04-18T08:40:19Z</time></trkpt><trkpt lat="45.25311251203047" lon="9.268302572687727"><ele>81.0</ele><time>2026-04-18T08:40:20Z</time></trkpt><trkpt lat="45.25299800235091" lon="9.268207353551304"><ele>80.75</ele><time>2026-04-18T08:40:21Z</time></trkpt><trkpt lat="45.25288426495157" lon="9.268111507315822"><ele>80.5</ele><time>2026-04-18T08:40:22.001Z</time></trkpt><trkpt lat="45.2527626041451" lon="9.268012006420902"><ele>80.25</ele><time>2026-04-18T08:40:23.001Z</time></trkpt><trkpt lat="45.252642314245385" lon="9.267912768846617"><ele>80.0</ele><time>2026-04-18T08:40:24.001Z</time></trkpt><trkpt lat="45.252521493520376" lon="9.267811123876882"><ele>80.0</ele><time>2026-04-18T08:40:25.001Z</time></trkpt><trkpt lat="45.25240239528526" lon="9.267709563374936"><ele>80.0</ele><time>2026-04-18T08:40:26.001Z</time></trkpt><trkpt lat="45.25229338287398" lon="9.267614253897872"><ele>80.0</ele><time>2026-04-18T08:40:27.001Z</time></trkpt><trkpt lat="45.252203161878334" lon="9.267533089351085"><ele>80.0</ele><time>2026-04-18T08:40:28.001Z</time></trkpt><trkpt lat="45.25212941168968" lon="9.267463750312084"><ele>80.16666666666667</ele><time>2026-04-18T08:40:29.001Z</time></trkpt><trkpt lat="45.25206809839396" lon="9.267409420540172"><ele>80.33333333333334</ele><time>2026-04-18T08:40:30.001Z</time></trkpt><trkpt lat="45.2520033230317" lon="9.267353219345177"><ele>80.5</ele><time>2026-04-18T08:40:31.001Z</time></trkpt><trkpt lat="45.25194280923946" lon="9.267300002457182"><ele>80.66666666666667</ele><time>2026-04-18T08:40:32.001Z</time></trkpt><trkpt lat="45.25187204233247" lon="9.267233889500258"><ele>80.83333333333333</ele><time>2026-04-18T08:40:33.001Z</time></trkpt><trkpt lat="45.251787768435065" lon="9.267162169731574"><ele>81.0</ele><time>2026-04-18T08:40:34.001Z</time></trkpt><trkpt lat="45.251709044823066" lon="9.267071589555812"><ele>81.25</ele><time>2026-04-18T08:40:35.001Z</time></trkpt><trkpt lat="45.251623611090295" lon="9.266995611667669"><ele>81.5</ele><time>2026-04-18T08:40:36.001Z</time></trkpt><trkpt lat="45.25152271169518" lon="9.266905704033965"><ele>81.75</ele><time>2026-04-18T08:40:37.001Z</time></trkpt><trkpt lat="45.25142286466224" lon="9.266816734091632"><ele>82.0</ele><time>2026-04-18T08:40:38.001Z</time></trkpt><trkpt lat="45.25132041816818" lon="9.266727479275662"><ele>82.0</ele><time>2026-04-18T08:40:39.001Z</time></trkpt><trkpt lat="45.25121817677562" lon="9.266638872574987"><ele>82.0</ele><time>2026-04-18T08:40:40.001Z</time></trkpt><trkpt lat="45.25111330615519" lon="9.266547723339741"><ele>82.0</ele><time>2026-04-18T08:40:41.001Z</time></trkpt><trkpt lat="45.25100934960578" lon="9.266458418455532"><ele>82.0</ele><time>2026-04-18T08:40:42.001Z</time></trkpt><trkpt lat="45.25090929671223" lon="9.266374969293565"><ele>82.0</ele><time>2026-04-18T08:40:43.001Z</time></trkpt><trkpt lat="45.25080834029286" lon="9.266298413570189"><ele>82.0</ele><time>2026-04-18T08:40:44.001Z</time></trkpt><trkpt lat="45.250699329507675" lon="9.266253931845414"><ele>82.0</ele><time>2026-04-18T08:40:45.001Z</time></trkpt><trkpt lat="45.25059529200657" lon="9.26619632011334"><ele>82.0</ele><time>2026-04-18T08:40:46.001Z</time></trkpt><trkpt lat="45.25050122028617" lon="9.266112030343178"><ele>81.6</ele><time>2026-04-18T08:40:47.001Z</time></trkpt><trkpt lat="45.250410182738754" lon="9.266033356015523"><ele>81.19999999999999</ele><time>2026-04-18T08:40:48.001Z</time></trkpt><trkpt lat="45.25032561114153" lon="9.26594433985184"><ele>80.8</ele><time>2026-04-18T08:40:49.001Z</time></trkpt><trkpt lat="45.25022256226355" lon="9.265867509277799"><ele>80.4</ele><time>2026-04-18T08:40:50.001Z</time></trkpt><trkpt lat="45.25013192958894" lon="9.265756732936294"><ele>80.0</ele><time>2026-04-18T08:40:51.001Z</time></trkpt><trkpt lat="45.25003785973307" lon="9.26564389219386"><ele>80.25</ele><time>2026-04-18T08:40:52.001Z</time></trkpt><trkpt lat="45.24993179050314" lon="9.265544896388166"><ele>80.5</ele><time>2026-04-18T08:40:53.001Z</time></trkpt><trkpt lat="45.249824383142474" lon="9.265441490429138"><ele>80.75</ele><time>2026-04-18T08:40:54.001Z</time></trkpt><trkpt lat="45.24971424471441" lon="9.26535201000151"><ele>81.0</ele><time>2026-04-18T08:40:55.001Z</time></trkpt><trkpt lat="45.24959330192739" lon="9.265255941717399"><ele>81.0</ele><time>2026-04-18T08:40:56.002Z</time></trkpt><trkpt lat="45.24948029620546" lon="9.265162714284825"><ele>81.0</ele><time>2026-04-18T08:40:57.002Z</time></trkpt><trkpt lat="45.24937604480873" lon="9.265071596045019"><ele>81.0</ele><time>2026-04-18T08:40:58.002Z</time></trkpt><trkpt lat="45.24928871739665" lon="9.26499000872996"><ele>81.0</ele><time>2026-04-18T08:40:59.002Z</time></trkpt><trkpt lat="45.24921763896941" lon="9.264926905723216"><ele>81.0</ele><time>2026-04-18T08:41:00.002Z</time></trkpt><trkpt lat="45.24916883422659" lon="9.264868377532608"><ele>81.0</ele><time>2026-04-18T08:41:01.002Z</time></trkpt><trkpt lat="45.2490302557162" lon="9.26488949959031"><ele>81.0</ele><time>2026-04-18T08:41:03.002Z</time></trkpt><trkpt lat="45.24895864663499" lon="9.26492244860453"><ele>81.0</ele><time>2026-04-18T08:41:04.002Z</time></trkpt><trkpt lat="45.248876829024695" lon="9.264975263572266"><ele>81.0</ele><time>2026-04-18T08:41:05.002Z</time></trkpt><trkpt lat="45.248777704333705" lon="9.265025844812635"><ele>81.0</ele><time>2026-04-18T08:41:06.002Z</time></trkpt><trkpt lat="45.248675989962805" lon="9.265024408766642"><ele>81.19999999999999</ele><time>2026-04-18T08:41:07.002Z</time></trkpt><trkpt lat="45.248580247582915" lon="9.264976994696408"><ele>81.39999999999999</ele><time>2026-04-18T08:41:08.002Z</time></trkpt><trkpt lat="45.248475703159855" lon="9.264946424461323"><ele>81.6</ele><time>2026-04-18T08:41:09.002Z</time></trkpt><trkpt lat="45.2483866549682" lon="9.264933607444023"><ele>81.8</ele><time>2026-04-18T08:41:10.002Z</time></trkpt><trkpt lat="45.248296610387634" lon="9.264948327138375"><ele>82.0</ele><time>2026-04-18T08:41:11.002Z</time></trkpt><trkpt lat="45.2482059333915" lon="9.26500013939681"><ele>81.5</ele><time>2026-04-18T08:41:12.002Z</time></trkpt><trkpt lat="45.2481197060418" lon="9.265069054378358"><ele>81.0</ele><time>2026-04-18T08:41:13.002Z</time></trkpt><trkpt lat="45.248041132358296" lon="9.265186873626046"><ele>80.5</ele><time>2026-04-18T08:41:14.002Z</time></trkpt><trkpt lat="45.24793799642351" lon="9.265294437351152"><ele>80.0</ele><time>2026-04-18T08:41:15.002Z</time></trkpt><trkpt lat="45.247820949074004" lon="9.265365699963505"><ele>80.0</ele><time>2026-04-18T08:41:16.002Z</time></trkpt><trkpt lat="45.247694976173435" lon="9.265434144248593"><ele>80.0</ele><time>2026-04-18T08:41:17.002Z</time></trkpt><trkpt lat="45.24755213743634" lon="9.265500165754018"><ele>80.0</ele><time>2026-04-18T08:41:18.002Z</time></trkpt><trkpt lat="45.24739138780957" lon="9.265574581686673"><ele>79.66666666666667</ele><time>2026-04-18T08:41:19.002Z</time></trkpt><trkpt lat="45.247223564159796" lon="9.265654242139206"><ele>79.33333333333333</ele><time>2026-04-18T08:41:20.002Z</time></trkpt><trkpt lat="45.247049596126516" lon="9.265738437992477"><ele>79.0</ele><time>2026-04-18T08:41:21.002Z</time></trkpt><trkpt lat="45.24689412846728" lon="9.265813752084195"><ele>79.0</ele><time>2026-04-18T08:41:22.002Z</time></trkpt><trkpt lat="45.246741944493714" lon="9.26588846502036"><ele>79.0</ele><time>2026-04-18T08:41:23.002Z</time></trkpt><trkpt lat="45.24660201537057" lon="9.265989223020924"><ele>79.0</ele><time>2026-04-18T08:41:24.002Z</time></trkpt><trkpt lat="45.2464695253974" lon="9.266027837742476"><ele>79.0</ele><time>2026-04-18T08:41:25.002Z</time></trkpt><trkpt lat="45.24634221113553" lon="9.26608048646848"><ele>79.0</ele><time>2026-04-18T08:41:26.002Z</time></trkpt><trkpt lat="45.246205281406716" lon="9.26614040205453"><ele>79.0</ele><time>2026-04-18T08:41:27.002Z</time></trkpt><trkpt lat="45.24607851645663" lon="9.266225294565421"><ele>79.0</ele><time>2026-04-18T08:41:28.002Z</time></trkpt><trkpt lat="45.24595589924784" lon="9.266291002840111"><ele>79.0</ele><time>2026-04-18T08:41:29.002Z</time></trkpt><trkpt lat="45.245831625711745" lon="9.26636470175309"><ele>79.0</ele><time>2026-04-18T08:41:30.002Z</time></trkpt><trkpt lat="45.24569647600717" lon="9.266414168699786"><ele>79.0</ele><time>2026-04-18T08:41:31.002Z</time></trkpt><trkpt lat="45.245567415921336" lon="9.266481377029988"><ele>79.0</ele><time>2026-04-18T08:41:32.003Z</time></trkpt><trkpt lat="45.24544482994396" lon="9.266539308256515"><ele>79.33333333333333</ele><time>2026-04-18T08:41:33.003Z</time></trkpt><trkpt lat="45.24531175522262" lon="9.266608951857249"><ele>79.66666666666667</ele><time>2026-04-18T08:41:34.003Z</time></trkpt><trkpt lat="45.24516288097545" lon="9.266699468659416"><ele>80.0</ele><time>2026-04-18T08:41:35.003Z</time></trkpt><trkpt lat="45.245003542665295" lon="9.266789818753514"><ele>80.0</ele><time>2026-04-18T08:41:36.003Z</time></trkpt><trkpt lat="45.244844576792104" lon="9.2668747991259"><ele>80.0</ele><time>2026-04-18T08:41:37.003Z</time></trkpt><trkpt lat="45.24468548675579" lon="9.266959846064864"><ele>80.0</ele><time>2026-04-18T08:41:38.003Z</time></trkpt><trkpt lat="45.244527684924805" lon="9.267044204349594"><ele>80.0</ele><time>2026-04-18T08:41:39.003Z</time></trkpt><trkpt lat="45.24436521107695" lon="9.26713161099579"><ele>80.0</ele><time>2026-04-18T08:41:40.003Z</time></trkpt><trkpt lat="45.244205915951575" lon="9.267219533402246"><ele>80.0</ele><time>2026-04-18T08:41:41.003Z</time></trkpt><trkpt lat="45.244047730963054" lon="9.267306843068926"><ele>80.0</ele><time>2026-04-18T08:41:42.003Z</time></trkpt><trkpt lat="45.243890220873794" lon="9.267391884501908"><ele>80.0</ele><time>2026-04-18T08:41:43.003Z</time></trkpt><trkpt lat="45.24373364435439" lon="9.267474068861073"><ele>80.0</ele><time>2026-04-18T08:41:44.003Z</time></trkpt><trkpt lat="45.24357851939499" lon="9.2675563731931"><ele>80.0</ele><time>2026-04-18T08:41:45.003Z</time></trkpt><trkpt lat="45.24341639847705" lon="9.26764289810507"><ele>80.0</ele><time>2026-04-18T08:41:46Z</time></trkpt><trkpt lat="45.24325495209653" lon="9.267729850019801"><ele>80.0</ele><time>2026-04-18T08:41:47Z</time></trkpt><trkpt lat="45.24309617662398" lon="9.267815751833362"><ele>80.0</ele><time>2026-04-18T08:41:48Z</time></trkpt><trkpt lat="45.242943475972766" lon="9.267898389825273"><ele>80.0</ele><time>2026-04-18T08:41:49Z</time></trkpt><trkpt lat="45.24280466024549" lon="9.267975644445102"><ele>80.0</ele><time>2026-04-18T08:41:50Z</time></trkpt><trkpt lat="45.24267777590759" lon="9.268049027221425"><ele>80.0</ele><time>2026-04-18T08:41:51Z</time></trkpt><trkpt lat="45.242559593144925" lon="9.268117201761632"><ele>80.0</ele><time>2026-04-18T08:41:52Z</time></trkpt><trkpt lat="45.24245980906492" lon="9.26817263734051"><ele>80.0</ele><time>2026-04-18T08:41:53Z</time></trkpt><trkpt lat="45.24237931084232" lon="9.268209870268182"><ele>80.0</ele><time>2026-04-18T08:41:54Z</time></trkpt><trkpt lat="45.24231600654363" lon="9.268220715619659"><ele>80.0</ele><time>2026-04-18T08:41:56Z</time></trkpt><trkpt lat="45.24229074381424" lon="9.268458501891585"><ele>80.0</ele><time>2026-04-18T08:42:01Z</time></trkpt><trkpt lat="45.242194184635586" lon="9.268533860669354"><ele>80.2</ele><time>2026-04-18T08:42:03Z</time></trkpt><trkpt lat="45.24213485872106" lon="9.268597878620112"><ele>80.4</ele><time>2026-04-18T08:42:04Z</time></trkpt><trkpt lat="45.24207922228923" lon="9.268668367783778"><ele>80.6</ele><time>2026-04-18T08:42:05Z</time></trkpt><trkpt lat="45.242036426545965" lon="9.268825309350396"><ele>80.8</ele><time>2026-04-18T08:42:07Z</time></trkpt><trkpt lat="45.24197755522956" lon="9.268963890743002"><ele>81.0</ele><time>2026-04-18T08:42:09Z</time></trkpt><trkpt lat="45.241951097434274" lon="9.26911542980835"><ele>81.0</ele><time>2026-04-18T08:42:11Z</time></trkpt><trkpt lat="45.241664144613" lon="9.269147372875814"><ele>81.0</ele><time>2026-04-18T08:42:13Z</time></trkpt><trkpt lat="45.24154773628092" lon="9.269197468358215"><ele>81.0</ele><time>2026-04-18T08:42:14Z</time></trkpt><trkpt lat="45.24143757045045" lon="9.269249418078298"><ele>80.75</ele><time>2026-04-18T08:42:15Z</time></trkpt><trkpt lat="45.241322513144354" lon="9.269307098707442"><ele>80.5</ele><time>2026-04-18T08:42:16Z</time></trkpt><trkpt lat="45.24120700306709" lon="9.269368760779972"><ele>80.25</ele><time>2026-04-18T08:42:17Z</time></trkpt><trkpt lat="45.24109308049185" lon="9.269433644026465"><ele>80.0</ele><time>2026-04-18T08:42:18Z</time></trkpt><trkpt lat="45.24097560031813" lon="9.26950505907375"><ele>80.0</ele><time>2026-04-18T08:42:19.001Z</time></trkpt><trkpt lat="45.24085413038303" lon="9.26957528844935"><ele>80.0</ele><time>2026-04-18T08:42:20.001Z</time></trkpt><trkpt lat="45.24072610227656" lon="9.26963829632078"><ele>80.0</ele><time>2026-04-18T08:42:21.001Z</time></trkpt><trkpt lat="45.24059986022856" lon="9.26969916902446"><ele>80.0</ele><time>2026-04-18T08:42:22.001Z</time></trkpt><trkpt lat="45.240473127281405" lon="9.26976373544302"><ele>79.75</ele><time>2026-04-18T08:42:23.001Z</time></trkpt><trkpt lat="45.24035084316063" lon="9.26982875651548"><ele>79.5</ele><time>2026-04-18T08:42:24.001Z</time></trkpt><trkpt lat="45.240235934877816" lon="9.2698892383458"><ele>79.25</ele><time>2026-04-18T08:42:25.001Z</time></trkpt><trkpt lat="45.240132980232005" lon="9.269941812933691"><ele>79.0</ele><time>2026-04-18T08:42:26.001Z</time></trkpt><trkpt lat="45.24003992309303" lon="9.269984046199957"><ele>79.0</ele><time>2026-04-18T08:42:27.001Z</time></trkpt><trkpt lat="45.23994697596706" lon="9.270018225556477"><ele>79.0</ele><time>2026-04-18T08:42:28.001Z</time></trkpt><trkpt lat="45.23985393867607" lon="9.270038525133247"><ele>79.0</ele><time>2026-04-18T08:42:29.001Z</time></trkpt><trkpt lat="45.239753956594136" lon="9.270061771123494"><ele>79.0</ele><time>2026-04-18T08:42:30.001Z</time></trkpt><trkpt lat="45.23965268211527" lon="9.27009157045618"><ele>79.0</ele><time>2026-04-18T08:42:31.001Z</time></trkpt><trkpt lat="45.23954544421565" lon="9.270119260680179"><ele>78.8</ele><time>2026-04-18T08:42:32.001Z</time></trkpt><trkpt lat="45.239443891961166" lon="9.2701368236051"><ele>78.60000000000001</ele><time>2026-04-18T08:42:33.001Z</time></trkpt><trkpt lat="45.23934512283848" lon="9.270147780166095"><ele>78.4</ele><time>2026-04-18T08:42:34.001Z</time></trkpt><trkpt lat="45.23925543805518" lon="9.270155349961941"><ele>78.2</ele><time>2026-04-18T08:42:35.001Z</time></trkpt><trkpt lat="45.23917269757497" lon="9.270164653757062"><ele>78.0</ele><time>2026-04-18T08:42:36.001Z</time></trkpt><trkpt lat="45.23909676296867" lon="9.270181819578989"><ele>78.0</ele><time>2026-04-18T08:42:37.001Z</time></trkpt><trkpt lat="45.239028773441696" lon="9.270207573990872"><ele>78.0</ele><time>2026-04-18T08:42:38.001Z</time></trkpt><trkpt lat="45.23893098805894" lon="9.270254589033279"><ele>78.0</ele><time>2026-04-18T08:42:40.001Z</time></trkpt><trkpt lat="45.23884951442316" lon="9.270300913288033"><ele>78.0</ele><time>2026-04-18T08:42:52.001Z</time></trkpt><trkpt lat="45.23891456252066" lon="9.27061952456714"><ele>78.2</ele><time>2026-04-18T08:42:54.002Z</time></trkpt><trkpt lat="45.23894155058306" lon="9.270744681266788"><ele>78.4</ele><time>2026-04-18T08:42:55.002Z</time></trkpt><trkpt lat="45.23897028032006" lon="9.270885335371457"><ele>78.60000000000001</ele><time>2026-04-18T08:42:56.002Z</time></trkpt><trkpt lat="45.23900008337479" lon="9.27104701674399"><ele>78.8</ele><time>2026-04-18T08:42:57.002Z</time></trkpt><trkpt lat="45.23902735857516" lon="9.271205829963252"><ele>79.0</ele><time>2026-04-18T08:42:58.002Z</time></trkpt><trkpt lat="45.2390552681898" lon="9.271369016830649"><ele>78.75</ele><time>2026-04-18T08:42:59.002Z</time></trkpt><trkpt lat="45.2390875725856" lon="9.271552848917546"><ele>78.5</ele><time>2026-04-18T08:43:00.002Z</time></trkpt><trkpt lat="45.23912331550881" lon="9.271749875133024"><ele>78.25</ele><time>2026-04-18T08:43:01.002Z</time></trkpt><trkpt lat="45.23915910017414" lon="9.271952052987082"><ele>78.0</ele><time>2026-04-18T08:43:02.002Z</time></trkpt><trkpt lat="45.239193272334774" lon="9.272149105123123"><ele>77.75</ele><time>2026-04-18T08:43:03.002Z</time></trkpt><trkpt lat="45.23922885667036" lon="9.272334664290563"><ele>77.5</ele><time>2026-04-18T08:43:04.002Z</time></trkpt><trkpt lat="45.23926492254564" lon="9.27252263246806"><ele>77.25</ele><time>2026-04-18T08:43:05.002Z</time></trkpt><trkpt lat="45.23930722307329" lon="9.272713650266509"><ele>77.0</ele><time>2026-04-18T08:43:06.002Z</time></trkpt><trkpt lat="45.239361847848215" lon="9.272902362286404"><ele>77.0</ele><time>2026-04-18T08:43:07.002Z</time></trkpt><trkpt lat="45.23943467149216" lon="9.273088055536281"><ele>77.0</ele><time>2026-04-18T08:43:08.002Z</time></trkpt><trkpt lat="45.239518459957345" lon="9.27327045259145"><ele>77.0</ele><time>2026-04-18T08:43:09.002Z</time></trkpt><trkpt lat="45.23960590834073" lon="9.273453928718933"><ele>77.33333333333334</ele><time>2026-04-18T08:43:10.002Z</time></trkpt><trkpt lat="45.23969430615886" lon="9.27363618037511"><ele>77.66666666666667</ele><time>2026-04-18T08:43:11.002Z</time></trkpt><trkpt lat="45.23977679809915" lon="9.273812299223883"><ele>78.0</ele><time>2026-04-18T08:43:12.002Z</time></trkpt><trkpt lat="45.23985992749465" lon="9.27399775488941"><ele>78.0</ele><time>2026-04-18T08:43:13.002Z</time></trkpt><trkpt lat="45.23993264570013" lon="9.274187082218843"><ele>78.0</ele><time>2026-04-18T08:43:14.002Z</time></trkpt><trkpt lat="45.23999540704034" lon="9.27439383740572"><ele>78.0</ele><time>2026-04-18T08:43:15.002Z</time></trkpt><trkpt lat="45.24004896290794" lon="9.274612300193759"><ele>78.0</ele><time>2026-04-18T08:43:16.002Z</time></trkpt><trkpt lat="45.24009753845808" lon="9.274846982662007"><ele>78.0</ele><time>2026-04-18T08:43:17.002Z</time></trkpt><trkpt lat="45.2401433882365" lon="9.275098303977119"><ele>78.0</ele><time>2026-04-18T08:43:18.002Z</time></trkpt><trkpt lat="45.24018478602017" lon="9.275346217046573"><ele>78.0</ele><time>2026-04-18T08:43:19.002Z</time></trkpt><trkpt lat="45.24022530680566" lon="9.27559517653326"><ele>78.0</ele><time>2026-04-18T08:43:20.002Z</time></trkpt><trkpt lat="45.240264993075044" lon="9.275844492079349"><ele>78.0</ele><time>2026-04-18T08:43:21.002Z</time></trkpt><trkpt lat="45.2403025207416" lon="9.276098920355569"><ele>78.0</ele><time>2026-04-18T08:43:22.002Z</time></trkpt><trkpt lat="45.24033357068039" lon="9.276348113593826"><ele>78.0</ele><time>2026-04-18T08:43:23.002Z</time></trkpt><trkpt lat="45.24035956342741" lon="9.276592223241837"><ele>78.0</ele><time>2026-04-18T08:43:24.002Z</time></trkpt><trkpt lat="45.24038157294622" lon="9.276838954762876"><ele>78.0</ele><time>2026-04-18T08:43:25.002Z</time></trkpt><trkpt lat="45.24040370873024" lon="9.277088363985301"><ele>78.0</ele><time>2026-04-18T08:43:26.002Z</time></trkpt><trkpt lat="45.24042625728529" lon="9.277337373076792"><ele>78.0</ele><time>2026-04-18T08:43:27.002Z</time></trkpt><trkpt lat="45.240447032846355" lon="9.277583357464984"><ele>78.0</ele><time>2026-04-18T08:43:28.002Z</time></trkpt><trkpt lat="45.24046310253479" lon="9.277832938813745"><ele>78.0</ele><time>2026-04-18T08:43:29.003Z</time></trkpt><trkpt lat="45.24047885175916" lon="9.278085772717485"><ele>78.0</ele><time>2026-04-18T08:43:30.003Z</time></trkpt><trkpt lat="45.240498583766325" lon="9.278336163782125"><ele>78.0</ele><time>2026-04-18T08:43:31.003Z</time></trkpt><trkpt lat="45.24051750626985" lon="9.278587550307702"><ele>78.0</ele><time>2026-04-18T08:43:32.003Z</time></trkpt><trkpt lat="45.240535588469456" lon="9.278839640581689"><ele>78.0</ele><time>2026-04-18T08:43:33.003Z</time></trkpt><trkpt lat="45.24055458758164" lon="9.279078821183234"><ele>78.33333333333333</ele><time>2026-04-18T08:43:34.003Z</time></trkpt><trkpt lat="45.24057387453121" lon="9.279299497535478"><ele>78.66666666666666</ele><time>2026-04-18T08:43:35.003Z</time></trkpt><trkpt lat="45.24059832816259" lon="9.279508890288861"><ele>79.0</ele><time>2026-04-18T08:43:36.003Z</time></trkpt><trkpt lat="45.24063594644985" lon="9.279723443211726"><ele>78.66666666666666</ele><time>2026-04-18T08:43:37.003Z</time></trkpt><trkpt lat="45.24068363836545" lon="9.279945585691227"><ele>78.33333333333333</ele><time>2026-04-18T08:43:38.003Z</time></trkpt><trkpt lat="45.24073961658382" lon="9.28018315037611"><ele>78.0</ele><time>2026-04-18T08:43:39.003Z</time></trkpt><trkpt lat="45.240799287672964" lon="9.280431600148564"><ele>78.0</ele><time>2026-04-18T08:43:40.003Z</time></trkpt><trkpt lat="45.24085119391703" lon="9.28066807395332"><ele>78.0</ele><time>2026-04-18T08:43:41.003Z</time></trkpt><trkpt lat="45.2409141661432" lon="9.280900112613143"><ele>78.0</ele><time>2026-04-18T08:43:42.003Z</time></trkpt><trkpt lat="45.24098075632419" lon="9.28111128036392"><ele>78.0</ele><time>2026-04-18T08:43:43.003Z</time></trkpt><trkpt lat="45.24105565689343" lon="9.281302763952452"><ele>78.0</ele><time>2026-04-18T08:43:44.003Z</time></trkpt><trkpt lat="45.24111441796852" lon="9.28145427683748"><ele>78.0</ele><time>2026-04-18T08:43:45.003Z</time></trkpt><trkpt lat="45.24118375202973" lon="9.281622523022193"><ele>78.0</ele><time>2026-04-18T08:43:46.003Z</time></trkpt><trkpt lat="45.2412517153675" lon="9.28178981168723"><ele>78.2</ele><time>2026-04-18T08:43:47.003Z</time></trkpt><trkpt lat="45.24131770105597" lon="9.281948424235365"><ele>78.4</ele><time>2026-04-18T08:43:48.003Z</time></trkpt><trkpt lat="45.24137181213127" lon="9.282086297301232"><ele>78.60000000000001</ele><time>2026-04-18T08:43:49.003Z</time></trkpt><trkpt lat="45.241406316290416" lon="9.282187366476975"><ele>78.8</ele><time>2026-04-18T08:43:50.003Z</time></trkpt><trkpt lat="45.241428824288285" lon="9.282278124312047"><ele>79.0</ele><time>2026-04-18T08:43:53Z</time></trkpt><trkpt lat="45.241292084065066" lon="9.282478256042202"><ele>79.0</ele><time>2026-04-18T08:43:57Z</time></trkpt><trkpt lat="45.24121370170536" lon="9.282566654812555"><ele>79.0</ele><time>2026-04-18T08:43:58Z</time></trkpt><trkpt lat="45.24113173517866" lon="9.282668703062592"><ele>79.0</ele><time>2026-04-18T08:43:59Z</time></trkpt><trkpt lat="45.241056990461566" lon="9.282761431717779"><ele>79.0</ele><time>2026-04-18T08:44:00Z</time></trkpt><trkpt lat="45.240977083192746" lon="9.282873263891837"><ele>79.0</ele><time>2026-04-18T08:44:01Z</time></trkpt><trkpt lat="45.240895761237" lon="9.282983383281225"><ele>79.0</ele><time>2026-04-18T08:44:02Z</time></trkpt><trkpt lat="45.24081350301137" lon="9.283090678807206"><ele>79.0</ele><time>2026-04-18T08:44:03Z</time></trkpt><trkpt lat="45.2407244814757" lon="9.283197567643079"><ele>79.0</ele><time>2026-04-18T08:44:04Z</time></trkpt><trkpt lat="45.240628922450405" lon="9.283323032095533"><ele>79.0</ele><time>2026-04-18T08:44:05Z</time></trkpt><trkpt lat="45.240525160831666" lon="9.283459883584"><ele>78.66666666666666</ele><time>2026-04-18T08:44:06Z</time></trkpt><trkpt lat="45.24041345439115" lon="9.283608820310803"><ele>78.33333333333333</ele><time>2026-04-18T08:44:07Z</time></trkpt><trkpt lat="45.24030031694976" lon="9.283753565437996"><ele>78.0</ele><time>2026-04-18T08:44:08Z</time></trkpt><trkpt lat="45.24019051079766" lon="9.283903852259908"><ele>78.0</ele><time>2026-04-18T08:44:09Z</time></trkpt><trkpt lat="45.240091512414956" lon="9.284033341242788"><ele>78.0</ele><time>2026-04-18T08:44:10Z</time></trkpt><trkpt lat="45.239998365333136" lon="9.284152273532898"><ele>78.0</ele><time>2026-04-18T08:44:11Z</time></trkpt><trkpt lat="45.23991633898893" lon="9.284255467281676"><ele>78.0</ele><time>2026-04-18T08:44:12Z</time></trkpt><trkpt lat="45.23983973110189" lon="9.284349983312358"><ele>78.2</ele><time>2026-04-18T08:44:13Z</time></trkpt><trkpt lat="45.239767221757496" lon="9.284439784597641"><ele>78.4</ele><time>2026-04-18T08:44:14Z</time></trkpt><trkpt lat="45.23970159169535" lon="9.284523232065148"><ele>78.60000000000001</ele><time>2026-04-18T08:44:15Z</time></trkpt><trkpt lat="45.23963750783328" lon="9.284616522717094"><ele>78.8</ele><time>2026-04-18T08:44:16Z</time></trkpt><trkpt lat="45.239586965296105" lon="9.284731883030576"><ele>79.0</ele><time>2026-04-18T08:44:17.001Z</time></trkpt><trkpt lat="45.239548014724534" lon="9.284872973223608"><ele>79.25</ele><time>2026-04-18T08:44:18.001Z</time></trkpt><trkpt lat="45.23950337875021" lon="9.285034405888267"><ele>79.5</ele><time>2026-04-18T08:44:19.001Z</time></trkpt><trkpt lat="45.23944276142099" lon="9.285196947163145"><ele>79.75</ele><time>2026-04-18T08:44:20.001Z</time></trkpt><trkpt lat="45.23938315591845" lon="9.285362635803835"><ele>80.0</ele><time>2026-04-18T08:44:21.001Z</time></trkpt><trkpt lat="45.23932709243815" lon="9.285520841701205"><ele>79.66666666666667</ele><time>2026-04-18T08:44:22.001Z</time></trkpt><trkpt lat="45.23927506635208" lon="9.285656217714358"><ele>79.33333333333334</ele><time>2026-04-18T08:44:23.001Z</time></trkpt><trkpt lat="45.239227628341425" lon="9.285781105311207"><ele>79.0</ele><time>2026-04-18T08:44:24.001Z</time></trkpt><trkpt lat="45.23918532867857" lon="9.28589286780606"><ele>78.66666666666667</ele><time>2026-04-18T08:44:25.001Z</time></trkpt><trkpt lat="45.23914124644131" lon="9.285977002806856"><ele>78.33333333333333</ele><time>2026-04-18T08:44:26.001Z</time></trkpt><trkpt lat="45.23908263042995" lon="9.28604521575627"><ele>78.0</ele><time>2026-04-18T08:44:27.001Z</time></trkpt><trkpt lat="45.23900652491279" lon="9.28611063445492"><ele>78.0</ele><time>2026-04-18T08:44:28.001Z</time></trkpt><trkpt lat="45.23892530047983" lon="9.286179084504242"><ele>78.0</ele><time>2026-04-18T08:44:29.001Z</time></trkpt><trkpt lat="45.23885435185043" lon="9.286254427474367"><ele>78.0</ele><time>2026-04-18T08:44:30.001Z</time></trkpt><trkpt lat="45.238797096634684" lon="9.286340465793108"><ele>78.0</ele><time>2026-04-18T08:44:31.001Z</time></trkpt><trkpt lat="45.238752281638355" lon="9.2864462506246"><ele>78.0</ele><time>2026-04-18T08:44:32.001Z</time></trkpt><trkpt lat="45.23870503285119" lon="9.286572327246317"><ele>78.0</ele><time>2026-04-18T08:44:33.001Z</time></trkpt><trkpt lat="45.23864450498966" lon="9.286701438914424"><ele>78.0</ele><time>2026-04-18T08:44:34.001Z</time></trkpt><trkpt lat="45.2385747042763" lon="9.286828471263494"><ele>78.0</ele><time>2026-04-18T08:44:35.001Z</time></trkpt><trkpt lat="45.23850614015108" lon="9.286949662690406"><ele>78.0</ele><time>2026-04-18T08:44:36.001Z</time></trkpt><trkpt lat="45.23844666877209" lon="9.28706050349583"><ele>78.0</ele><time>2026-04-18T08:44:37.001Z</time></trkpt><trkpt lat="45.23840136195186" lon="9.287161398245404"><ele>78.16666666666667</ele><time>2026-04-18T08:44:38.001Z</time></trkpt><trkpt lat="45.23837007621258" lon="9.287268753273079"><ele>78.33333333333333</ele><time>2026-04-18T08:44:39.001Z</time></trkpt><trkpt lat="45.23835215989286" lon="9.287381499350797"><ele>78.5</ele><time>2026-04-18T08:44:40.001Z</time></trkpt><trkpt lat="45.2383414122855" lon="9.287492438415454"><ele>78.66666666666666</ele><time>2026-04-18T08:44:41.001Z</time></trkpt><trkpt lat="45.238319546190475" lon="9.28761753110941"><ele>78.83333333333333</ele><time>2026-04-18T08:44:42.001Z</time></trkpt><trkpt lat="45.2382912778093" lon="9.287741509060954"><ele>79.0</ele><time>2026-04-18T08:44:43.001Z</time></trkpt><trkpt lat="45.23826018676768" lon="9.28788120572658"><ele>79.0</ele><time>2026-04-18T08:44:44.001Z</time></trkpt><trkpt lat="45.23822595003367" lon="9.288025245296781"><ele>79.0</ele><time>2026-04-18T08:44:45.001Z</time></trkpt><trkpt lat="45.238194434972904" lon="9.288169908134826"><ele>79.0</ele><time>2026-04-18T08:44:46.001Z</time></trkpt><trkpt lat="45.238155996589185" lon="9.288318911562671"><ele>79.0</ele><time>2026-04-18T08:44:47.001Z</time></trkpt><trkpt lat="45.23812819729837" lon="9.288452540876154"><ele>79.0</ele><time>2026-04-18T08:44:48.001Z</time></trkpt><trkpt lat="45.23809923382596" lon="9.288593303196278"><ele>78.5</ele><time>2026-04-18T08:44:49.001Z</time></trkpt><trkpt lat="45.238068418938994" lon="9.28873668800274"><ele>78.0</ele><time>2026-04-18T08:44:50.001Z</time></trkpt><trkpt lat="45.23803383110395" lon="9.288892497633906"><ele>77.5</ele><time>2026-04-18T08:44:51.001Z</time></trkpt><trkpt lat="45.237999286982784" lon="9.289055643878644"><ele>77.0</ele><time>2026-04-18T08:44:52.001Z</time></trkpt><trkpt lat="45.23796599396017" lon="9.289219060273096"><ele>77.0</ele><time>2026-04-18T08:44:53.001Z</time></trkpt><trkpt lat="45.23792991479512" lon="9.289379145646098"><ele>77.0</ele><time>2026-04-18T08:44:54.002Z</time></trkpt><trkpt lat="45.2378986204057" lon="9.289534310728953"><ele>77.0</ele><time>2026-04-18T08:44:55.002Z</time></trkpt><trkpt lat="45.23786458871744" lon="9.289691312388966"><ele>77.0</ele><time>2026-04-18T08:44:56.002Z</time></trkpt><trkpt lat="45.237829263626246" lon="9.289842484699632"><ele>77.0</ele><time>2026-04-18T08:44:57.002Z</time></trkpt><trkpt lat="45.23779477096619" lon="9.289996085939567"><ele>77.0</ele><time>2026-04-18T08:44:58.002Z</time></trkpt><trkpt lat="45.23775628638724" lon="9.290150674795907"><ele>77.0</ele><time>2026-04-18T08:44:59.002Z</time></trkpt><trkpt lat="45.23771223088739" lon="9.290308428674145"><ele>77.0</ele><time>2026-04-18T08:45:00.002Z</time></trkpt><trkpt lat="45.23766849185389" lon="9.29046782069339"><ele>77.0</ele><time>2026-04-18T08:45:01.002Z</time></trkpt><trkpt lat="45.23762903145009" lon="9.290617814954011"><ele>77.0</ele><time>2026-04-18T08:45:02.002Z</time></trkpt><trkpt lat="45.23759081812971" lon="9.29076605182103"><ele>77.0</ele><time>2026-04-18T08:45:03.002Z</time></trkpt><trkpt lat="45.23755762670643" lon="9.29090356800134"><ele>77.0</ele><time>2026-04-18T08:45:04.002Z</time></trkpt><trkpt lat="45.2375251335636" lon="9.291028519869085"><ele>77.0</ele><time>2026-04-18T08:45:05.002Z</time></trkpt><trkpt lat="45.2375040151134" lon="9.291146491186215"><ele>77.0</ele><time>2026-04-18T08:45:06.002Z</time></trkpt><trkpt lat="45.23747300980946" lon="9.291248582284009"><ele>77.0</ele><time>2026-04-18T08:45:07.002Z</time></trkpt><trkpt lat="45.237422468900704" lon="9.291357644811567"><ele>77.0</ele><time>2026-04-18T08:45:08.002Z</time></trkpt><trkpt lat="45.23736021864092" lon="9.291454105708297"><ele>77.0</ele><time>2026-04-18T08:45:09.002Z</time></trkpt><trkpt lat="45.23728726702756" lon="9.29155381825571"><ele>77.0</ele><time>2026-04-18T08:45:10.002Z</time></trkpt><trkpt lat="45.2372061853268" lon="9.29166032379297"><ele>77.0</ele><time>2026-04-18T08:45:11.002Z</time></trkpt><trkpt lat="45.237127791861425" lon="9.291770020014052"><ele>77.0</ele><time>2026-04-18T08:45:12.002Z</time></trkpt><trkpt lat="45.237047119244636" lon="9.291884111120863"><ele>77.0</ele><time>2026-04-18T08:45:13.002Z</time></trkpt><trkpt lat="45.236971470582056" lon="9.29199678311951"><ele>77.0</ele><time>2026-04-18T08:45:14.002Z</time></trkpt><trkpt lat="45.23689447980724" lon="9.292111540992714"><ele>77.0</ele><time>2026-04-18T08:45:15.002Z</time></trkpt><trkpt lat="45.23681743981368" lon="9.29222487051631"><ele>77.0</ele><time>2026-04-18T08:45:16.002Z</time></trkpt><trkpt lat="45.23671258489395" lon="9.292304804301317"><ele>77.0</ele><time>2026-04-18T08:45:17.002Z</time></trkpt><trkpt lat="45.23664097558819" lon="9.292417657846762"><ele>77.0</ele><time>2026-04-18T08:45:18.002Z</time></trkpt><trkpt lat="45.236568657608444" lon="9.292547277616483"><ele>77.0</ele><time>2026-04-18T08:45:19.002Z</time></trkpt><trkpt lat="45.236480197423916" lon="9.292650354311634"><ele>77.0</ele><time>2026-04-18T08:45:20.002Z</time></trkpt><trkpt lat="45.2364133949139" lon="9.292781391601714"><ele>77.0</ele><time>2026-04-18T08:45:21.002Z</time></trkpt><trkpt lat="45.23632689338339" lon="9.292876745113231"><ele>77.0</ele><time>2026-04-18T08:45:22.002Z</time></trkpt><trkpt lat="45.23627197359904" lon="9.292993440939828"><ele>77.0</ele><time>2026-04-18T08:45:23.002Z</time></trkpt><trkpt lat="45.23621093681898" lon="9.293085181283582"><ele>77.0</ele><time>2026-04-18T08:45:24.002Z</time></trkpt><trkpt lat="45.236159739169715" lon="9.293150114529288"><ele>76.8</ele><time>2026-04-18T08:45:25.002Z</time></trkpt><trkpt lat="45.23610249421727" lon="9.2932271777749"><ele>76.6</ele><time>2026-04-18T08:45:27.002Z</time></trkpt><trkpt lat="45.23616431628454" lon="9.29344110327691"><ele>76.39999999999999</ele><time>2026-04-18T08:45:30.003Z</time></trkpt><trkpt lat="45.23621675235321" lon="9.293547076921152"><ele>76.2</ele><time>2026-04-18T08:45:31.003Z</time></trkpt><trkpt lat="45.23627072712913" lon="9.293669022944059"><ele>76.0</ele><time>2026-04-18T08:45:32.003Z</time></trkpt><trkpt lat="45.23631950099199" lon="9.293795085035585"><ele>76.0</ele><time>2026-04-18T08:45:33.003Z</time></trkpt><trkpt lat="45.236354036780504" lon="9.293885704324511"><ele>76.0</ele><time>2026-04-18T08:45:34.003Z</time></trkpt><trkpt lat="45.23638418595407" lon="9.293986444958424"><ele>76.0</ele><time>2026-04-18T08:45:36.003Z</time></trkpt><trkpt lat="45.236341428826506" lon="9.29415952969256"><ele>76.0</ele><time>2026-04-18T08:45:39.003Z</time></trkpt><trkpt lat="45.23626973121321" lon="9.294317133018529"><ele>76.0</ele><time>2026-04-18T08:45:41.003Z</time></trkpt><trkpt lat="45.23624811120582" lon="9.294434211360786"><ele>75.83333333333333</ele><time>2026-04-18T08:45:42.003Z</time></trkpt><trkpt lat="45.23618320552803" lon="9.294510392337536"><ele>75.66666666666666</ele><time>2026-04-18T08:45:43.003Z</time></trkpt><trkpt lat="45.23613100795996" lon="9.294591300811579"><ele>75.5</ele><time>2026-04-18T08:45:44.003Z</time></trkpt><trkpt lat="45.23606912152448" lon="9.294685201571212"><ele>75.33333333333333</ele><time>2026-04-18T08:45:45.003Z</time></trkpt><trkpt lat="45.23599931389504" lon="9.294788883058713"><ele>75.16666666666667</ele><time>2026-04-18T08:45:46.003Z</time></trkpt><trkpt lat="45.23593450397492" lon="9.294882590885171"><ele>75.0</ele><time>2026-04-18T08:45:47.003Z</time></trkpt><trkpt lat="45.23586152730158" lon="9.29500082644961"><ele>75.2</ele><time>2026-04-18T08:45:48.003Z</time></trkpt><trkpt lat="45.23578879370965" lon="9.295119739986824"><ele>75.4</ele><time>2026-04-18T08:45:49.003Z</time></trkpt><trkpt lat="45.23572196213808" lon="9.29522240809502"><ele>75.6</ele><time>2026-04-18T08:45:50.003Z</time></trkpt><trkpt lat="45.235657588708236" lon="9.295320339675712"><ele>75.8</ele><time>2026-04-18T08:45:51.003Z</time></trkpt><trkpt lat="45.2356018580987" lon="9.29540295796478"><ele>76.0</ele><time>2026-04-18T08:45:52.003Z</time></trkpt><trkpt lat="45.23555111699266" lon="9.295485349504284"><ele>76.0</ele><time>2026-04-18T08:45:53.003Z</time></trkpt><trkpt lat="45.23549670214809" lon="9.295572914010643"><ele>76.0</ele><time>2026-04-18T08:45:54.003Z</time></trkpt><trkpt lat="45.235444392131264" lon="9.295658205624388"><ele>76.0</ele><time>2026-04-18T08:45:55.003Z</time></trkpt><trkpt lat="45.2353865435422" lon="9.295743578154303"><ele>76.0</ele><time>2026-04-18T08:45:56.003Z</time></trkpt><trkpt lat="45.235333274061176" lon="9.295830680329228"><ele>76.0</ele><time>2026-04-18T08:45:57.003Z</time></trkpt><trkpt lat="45.23527840498208" lon="9.295915386292148"><ele>76.0</ele><time>2026-04-18T08:45:57.999Z</time></trkpt><trkpt lat="45.235228175453706" lon="9.296017199479747"><ele>76.2</ele><time>2026-04-18T08:45:58.999Z</time></trkpt><trkpt lat="45.23516943635971" lon="9.296125857001995"><ele>76.39999999999999</ele><time>2026-04-18T08:45:59.999Z</time></trkpt><trkpt lat="45.235108829760634" lon="9.296238036577614"><ele>76.6</ele><time>2026-04-18T08:46:00.999Z</time></trkpt><trkpt lat="45.23504909125506" lon="9.296346638136873"><ele>76.8</ele><time>2026-04-18T08:46:01.999Z</time></trkpt><trkpt lat="45.23499516645687" lon="9.296451371652244"><ele>77.0</ele><time>2026-04-18T08:46:03Z</time></trkpt><trkpt lat="45.23494248493405" lon="9.296551769697203"><ele>76.8</ele><time>2026-04-18T08:46:03.999Z</time></trkpt><trkpt lat="45.23488739434229" lon="9.29664975957098"><ele>76.6</ele><time>2026-04-18T08:46:04.999Z</time></trkpt><trkpt lat="45.234827961281056" lon="9.296753264745501"><ele>76.39999999999999</ele><time>2026-04-18T08:46:06Z</time></trkpt><trkpt lat="45.23476856995578" lon="9.296868999682443"><ele>76.2</ele><time>2026-04-18T08:46:07Z</time></trkpt><trkpt lat="45.23471709082101" lon="9.296967672160571"><ele>76.0</ele><time>2026-04-18T08:46:08Z</time></trkpt><trkpt lat="45.23466943335894" lon="9.297059907546668"><ele>76.0</ele><time>2026-04-18T08:46:09Z</time></trkpt><trkpt lat="45.23463001858523" lon="9.297158554445309"><ele>76.0</ele><time>2026-04-18T08:46:10Z</time></trkpt><trkpt lat="45.23457563318584" lon="9.297224835191633"><ele>76.0</ele><time>2026-04-18T08:46:11Z</time></trkpt><trkpt lat="45.234524264674555" lon="9.297283884597123"><ele>76.0</ele><time>2026-04-18T08:46:12Z</time></trkpt><trkpt lat="45.23446840971787" lon="9.297334175963092"><ele>76.0</ele><time>2026-04-18T08:46:13Z</time></trkpt><trkpt lat="45.23440152898358" lon="9.297407850546128"><ele>76.0</ele><time>2026-04-18T08:46:14Z</time></trkpt><trkpt lat="45.23431376862141" lon="9.297472899636727"><ele>76.0</ele><time>2026-04-18T08:46:15Z</time></trkpt><trkpt lat="45.23421185253572" lon="9.297510507675124"><ele>76.0</ele><time>2026-04-18T08:46:16Z</time></trkpt><trkpt lat="45.23411411488167" lon="9.297563798659068"><ele>76.0</ele><time>2026-04-18T08:46:17Z</time></trkpt><trkpt lat="45.23401276185364" lon="9.297613778170646"><ele>76.0</ele><time>2026-04-18T08:46:18Z</time></trkpt><trkpt lat="45.23391176487695" lon="9.297652240231903"><ele>76.0</ele><time>2026-04-18T08:46:19Z</time></trkpt><trkpt lat="45.23381191194594" lon="9.297682068547932"><ele>76.0</ele><time>2026-04-18T08:46:20Z</time></trkpt><trkpt lat="45.233712139029066" lon="9.297709183480148"><ele>76.0</ele><time>2026-04-18T08:46:21Z</time></trkpt><trkpt lat="45.23361103050582" lon="9.2977338588589"><ele>76.0</ele><time>2026-04-18T08:46:22Z</time></trkpt><trkpt lat="45.23351191474072" lon="9.29775660394036"><ele>76.0</ele><time>2026-04-18T08:46:23Z</time></trkpt><trkpt lat="45.23341292933372" lon="9.29777925249943"><ele>76.0</ele><time>2026-04-18T08:46:24Z</time></trkpt><trkpt lat="45.23332265761106" lon="9.297798926622187"><ele>76.0</ele><time>2026-04-18T08:46:25Z</time></trkpt><trkpt lat="45.23323911165644" lon="9.29781566925822"><ele>76.0</ele><time>2026-04-18T08:46:26Z</time></trkpt><trkpt lat="45.23316205549519" lon="9.297831405359554"><ele>76.0</ele><time>2026-04-18T08:46:27Z</time></trkpt><trkpt lat="45.233081648793586" lon="9.29786898839197"><ele>76.0</ele><time>2026-04-18T08:46:28Z</time></trkpt><trkpt lat="45.23300418718809" lon="9.297878020854057"><ele>76.0</ele><time>2026-04-18T08:46:29Z</time></trkpt><trkpt lat="45.232924280568874" lon="9.297879962629995"><ele>76.0</ele><time>2026-04-18T08:46:30Z</time></trkpt><trkpt lat="45.23284230120862" lon="9.297896436353543"><ele>75.6</ele><time>2026-04-18T08:46:31Z</time></trkpt><trkpt lat="45.23275324120273" lon="9.297914235039958"><ele>75.19999999999999</ele><time>2026-04-18T08:46:32Z</time></trkpt><trkpt lat="45.232658832634755" lon="9.2979331027049"><ele>74.80000000000001</ele><time>2026-04-18T08:46:33Z</time></trkpt><trkpt lat="45.2325638422055" lon="9.297972910662955"><ele>74.4</ele><time>2026-04-18T08:46:34Z</time></trkpt><trkpt lat="45.23246277375002" lon="9.297986125297712"><ele>74.0</ele><time>2026-04-18T08:46:35Z</time></trkpt><trkpt lat="45.23236253091268" lon="9.298006237148828"><ele>74.4</ele><time>2026-04-18T08:46:36Z</time></trkpt><trkpt lat="45.23226263985613" lon="9.298025349338234"><ele>74.80000000000001</ele><time>2026-04-18T08:46:37Z</time></trkpt><trkpt lat="45.232167560005536" lon="9.298016657936493"><ele>75.19999999999999</ele><time>2026-04-18T08:46:38.001Z</time></trkpt><trkpt lat="45.23207720170887" lon="9.298023992676553"><ele>75.6</ele><time>2026-04-18T08:46:39.001Z</time></trkpt><trkpt lat="45.231985844493806" lon="9.298027742906191"><ele>76.0</ele><time>2026-04-18T08:46:40.001Z</time></trkpt><trkpt lat="45.23189230400621" lon="9.298030142911811"><ele>76.0</ele><time>2026-04-18T08:46:41.001Z</time></trkpt><trkpt lat="45.23179873010701" lon="9.298034100319706"><ele>76.0</ele><time>2026-04-18T08:46:42.001Z</time></trkpt><trkpt lat="45.23171257156097" lon="9.298042813266349"><ele>76.0</ele><time>2026-04-18T08:46:43.001Z</time></trkpt><trkpt lat="45.23161959202265" lon="9.29807721955495"><ele>76.0</ele><time>2026-04-18T08:46:44.001Z</time></trkpt><trkpt lat="45.2315200838679" lon="9.29806997672095"><ele>76.0</ele><time>2026-04-18T08:46:45.001Z</time></trkpt><trkpt lat="45.23142561032689" lon="9.298077369259712"><ele>76.0</ele><time>2026-04-18T08:46:46.001Z</time></trkpt><trkpt lat="45.23133873581303" lon="9.29807213567241"><ele>76.0</ele><time>2026-04-18T08:46:47.001Z</time></trkpt><trkpt lat="45.23125102884878" lon="9.298032857096855"><ele>76.0</ele><time>2026-04-18T08:46:48.001Z</time></trkpt><trkpt lat="45.23116259002574" lon="9.29802647092455"><ele>76.0</ele><time>2026-04-18T08:46:49.001Z</time></trkpt><trkpt lat="45.23107635244068" lon="9.297986479501095"><ele>76.0</ele><time>2026-04-18T08:46:50.001Z</time></trkpt><trkpt lat="45.23098232733941" lon="9.297946064198586"><ele>76.0</ele><time>2026-04-18T08:46:51.001Z</time></trkpt><trkpt lat="45.23088291176846" lon="9.297908047375593"><ele>76.0</ele><time>2026-04-18T08:46:52.001Z</time></trkpt><trkpt lat="45.230777609813664" lon="9.297889577022875"><ele>76.0</ele><time>2026-04-18T08:46:53.001Z</time></trkpt><trkpt lat="45.230671675772165" lon="9.29789191340237"><ele>76.0</ele><time>2026-04-18T08:46:54.001Z</time></trkpt><trkpt lat="45.2305570859951" lon="9.297909997660957"><ele>76.0</ele><time>2026-04-18T08:46:55.001Z</time></trkpt><trkpt lat="45.23044121701121" lon="9.297929813877024"><ele>75.75</ele><time>2026-04-18T08:46:56.001Z</time></trkpt><trkpt lat="45.23032463582161" lon="9.297951048654767"><ele>75.5</ele><time>2026-04-18T08:46:57.001Z</time></trkpt><trkpt lat="45.23020893787528" lon="9.297971374997163"><ele>75.25</ele><time>2026-04-18T08:46:58.001Z</time></trkpt><trkpt lat="45.23009532904404" lon="9.297984512120149"><ele>75.0</ele><time>2026-04-18T08:46:59.001Z</time></trkpt><trkpt lat="45.22998459393739" lon="9.297989993002748"><ele>75.0</ele><time>2026-04-18T08:47:00.001Z</time></trkpt><trkpt lat="45.22987248700115" lon="9.298006659310621"><ele>75.0</ele><time>2026-04-18T08:47:01.001Z</time></trkpt><trkpt lat="45.2297659237896" lon="9.298021513521277"><ele>75.0</ele><time>2026-04-18T08:47:02.001Z</time></trkpt><trkpt lat="45.22966387579282" lon="9.298044522233512"><ele>75.0</ele><time>2026-04-18T08:47:03.001Z</time></trkpt><trkpt lat="45.22956871178622" lon="9.29807346071255"><ele>75.0</ele><time>2026-04-18T08:47:04.001Z</time></trkpt><trkpt lat="45.229484722253105" lon="9.298098697331751"><ele>75.16666666666667</ele><time>2026-04-18T08:47:05.001Z</time></trkpt><trkpt lat="45.22941196395621" lon="9.298129939033673"><ele>75.33333333333333</ele><time>2026-04-18T08:47:06.001Z</time></trkpt><trkpt lat="45.2293398028627" lon="9.298156389325937"><ele>75.5</ele><time>2026-04-18T08:47:07.001Z</time></trkpt><trkpt lat="45.22928302530612" lon="9.298243471257269"><ele>75.66666666666666</ele><time>2026-04-18T08:47:08.001Z</time></trkpt><trkpt lat="45.22921961108107" lon="9.29832026561253"><ele>75.83333333333333</ele><time>2026-04-18T08:47:09.001Z</time></trkpt><trkpt lat="45.22915338277219" lon="9.29840502821133"><ele>76.0</ele><time>2026-04-18T08:47:10.001Z</time></trkpt><trkpt lat="45.22908785433" lon="9.298491754920423"><ele>76.0</ele><time>2026-04-18T08:47:11.002Z</time></trkpt><trkpt lat="45.22902135984728" lon="9.298574640516756"><ele>76.0</ele><time>2026-04-18T08:47:12.002Z</time></trkpt><trkpt lat="45.22895990234053" lon="9.298608940337783"><ele>76.0</ele><time>2026-04-18T08:47:13.002Z</time></trkpt><trkpt lat="45.22888661732836" lon="9.298631952381415"><ele>76.0</ele><time>2026-04-18T08:47:15.002Z</time></trkpt><trkpt lat="45.22882494992347" lon="9.298510243761841"><ele>76.0</ele><time>2026-04-18T08:47:17.002Z</time></trkpt><trkpt lat="45.22877978242929" lon="9.29842981042851"><ele>76.0</ele><time>2026-04-18T08:47:18.002Z</time></trkpt><trkpt lat="45.228727197513564" lon="9.298338728806362"><ele>76.0</ele><time>2026-04-18T08:47:19.002Z</time></trkpt><trkpt lat="45.22865789471279" lon="9.298212951910493"><ele>76.0</ele><time>2026-04-18T08:47:20.002Z</time></trkpt><trkpt lat="45.228577945907105" lon="9.298067791091727"><ele>76.0</ele><time>2026-04-18T08:47:21.002Z</time></trkpt><trkpt lat="45.22848853421838" lon="9.297902293271623"><ele>76.0</ele><time>2026-04-18T08:47:22.002Z</time></trkpt><trkpt lat="45.228398870804654" lon="9.297737800224729"><ele>76.0</ele><time>2026-04-18T08:47:23.002Z</time></trkpt><trkpt lat="45.228323537990526" lon="9.297599076389861"><ele>76.0</ele><time>2026-04-18T08:47:24.002Z</time></trkpt><trkpt lat="45.22824932890466" lon="9.297486151133725"><ele>76.0</ele><time>2026-04-18T08:47:25.002Z</time></trkpt><trkpt lat="45.22818364218541" lon="9.297369425309661"><ele>76.0</ele><time>2026-04-18T08:47:26.002Z</time></trkpt><trkpt lat="45.228144800007264" lon="9.297245187555015"><ele>76.0</ele><time>2026-04-18T08:47:27.002Z</time></trkpt><trkpt lat="45.2281032982786" lon="9.297147013395668"><ele>75.6</ele><time>2026-04-18T08:47:28.002Z</time></trkpt><trkpt lat="45.228045593198786" lon="9.297073035546534"><ele>75.19999999999999</ele><time>2026-04-18T08:47:29.002Z</time></trkpt><trkpt lat="45.22798365615535" lon="9.296954063633805"><ele>74.80000000000001</ele><time>2026-04-18T08:47:31.002Z</time></trkpt><trkpt lat="45.227859785709036" lon="9.296967446941713"><ele>74.4</ele><time>2026-04-18T08:47:33.002Z</time></trkpt><trkpt lat="45.227798898926345" lon="9.297043251981421"><ele>74.0</ele><time>2026-04-18T08:47:34.002Z</time></trkpt><trkpt lat="45.22771804597266" lon="9.297083985210453"><ele>74.0</ele><time>2026-04-18T08:47:35.002Z</time></trkpt><trkpt lat="45.227626294393524" lon="9.29715198506532"><ele>74.0</ele><time>2026-04-18T08:47:36.002Z</time></trkpt><trkpt lat="45.22750719773715" lon="9.297240249156628"><ele>74.0</ele><time>2026-04-18T08:47:37.002Z</time></trkpt><trkpt lat="45.22737390744848" lon="9.297340463642113"><ele>74.0</ele><time>2026-04-18T08:47:38.002Z</time></trkpt><trkpt lat="45.2272468302258" lon="9.2974374720723"><ele>74.0</ele><time>2026-04-18T08:47:39.002Z</time></trkpt><trkpt lat="45.22712547916054" lon="9.297532595847457"><ele>74.0</ele><time>2026-04-18T08:47:40.002Z</time></trkpt><trkpt lat="45.227017430987125" lon="9.297647361582335"><ele>74.0</ele><time>2026-04-18T08:47:41.002Z</time></trkpt><trkpt lat="45.226902524982556" lon="9.29773494596524"><ele>74.0</ele><time>2026-04-18T08:47:42.002Z</time></trkpt><trkpt lat="45.22679453338868" lon="9.297818803986004"><ele>74.0</ele><time>2026-04-18T08:47:43.002Z</time></trkpt><trkpt lat="45.22669249484024" lon="9.297889686832258"><ele>74.0</ele><time>2026-04-18T08:47:44.002Z</time></trkpt><trkpt lat="45.22656927854645" lon="9.29793649694531"><ele>74.0</ele><time>2026-04-18T08:47:45.003Z</time></trkpt><trkpt lat="45.22645691244523" lon="9.298016032866654"><ele>74.0</ele><time>2026-04-18T08:47:46.003Z</time></trkpt><trkpt lat="45.22635676530759" lon="9.298133756126838"><ele>74.5</ele><time>2026-04-18T08:47:47.003Z</time></trkpt><trkpt lat="45.226244507158604" lon="9.298238659188588"><ele>75.0</ele><time>2026-04-18T08:47:48.003Z</time></trkpt><trkpt lat="45.22612816456534" lon="9.298338411733988"><ele>75.5</ele><time>2026-04-18T08:47:49.003Z</time></trkpt><trkpt lat="45.2260094029658" lon="9.298446614325906"><ele>76.0</ele><time>2026-04-18T08:47:50.003Z</time></trkpt><trkpt lat="45.22588256574544" lon="9.298557840637512"><ele>76.0</ele><time>2026-04-18T08:47:51.003Z</time></trkpt><trkpt lat="45.225752889896654" lon="9.298670096977983"><ele>76.0</ele><time>2026-04-18T08:47:52.003Z</time></trkpt><trkpt lat="45.22561865449249" lon="9.298783777384807"><ele>76.0</ele><time>2026-04-18T08:47:53.003Z</time></trkpt><trkpt lat="45.22548719621335" lon="9.29889693388463"><ele>76.0</ele><time>2026-04-18T08:47:54.003Z</time></trkpt><trkpt lat="45.225358135698386" lon="9.299010127891016"><ele>76.0</ele><time>2026-04-18T08:47:55.003Z</time></trkpt><trkpt lat="45.22522569794174" lon="9.29909652978695"><ele>76.0</ele><time>2026-04-18T08:47:56.003Z</time></trkpt><trkpt lat="45.22510918336704" lon="9.299195154631478"><ele>76.0</ele><time>2026-04-18T08:47:57.003Z</time></trkpt><trkpt lat="45.22501037909196" lon="9.299278788416121"><ele>76.0</ele><time>2026-04-18T08:47:58.003Z</time></trkpt><trkpt lat="45.224916971969286" lon="9.299357853788056"><ele>76.0</ele><time>2026-04-18T08:47:59.003Z</time></trkpt><trkpt lat="45.22483355694859" lon="9.299430211730712"><ele>76.0</ele><time>2026-04-18T08:48:00.003Z</time></trkpt><trkpt lat="45.22475572323488" lon="9.299497780534857"><ele>76.0</ele><time>2026-04-18T08:48:01.003Z</time></trkpt><trkpt lat="45.22468452774714" lon="9.299562549441422"><ele>76.0</ele><time>2026-04-18T08:48:02.003Z</time></trkpt><trkpt lat="45.22462303170774" lon="9.299618768708012"><ele>75.85714285714285</ele><time>2026-04-18T08:48:03.003Z</time></trkpt><trkpt lat="45.22456416562857" lon="9.299662933463404"><ele>75.71428571428572</ele><time>2026-04-18T08:48:04Z</time></trkpt><trkpt lat="45.22451182548383" lon="9.29971402679835"><ele>75.57142857142857</ele><time>2026-04-18T08:48:05Z</time></trkpt><trkpt lat="45.22444572582637" lon="9.299709410918318"><ele>75.42857142857142</ele><time>2026-04-18T08:48:06Z</time></trkpt><trkpt lat="45.22438935100915" lon="9.299618051317678"><ele>75.28571428571428</ele><time>2026-04-18T08:48:07Z</time></trkpt><trkpt lat="45.2243244089889" lon="9.299559329738143"><ele>75.14285714285714</ele><time>2026-04-18T08:48:08Z</time></trkpt><trkpt lat="45.22425189214092" lon="9.29950242440838"><ele>75.0</ele><time>2026-04-18T08:48:09Z</time></trkpt><trkpt lat="45.224180995501705" lon="9.299474796980503"><ele>75.0</ele><time>2026-04-18T08:48:10Z</time></trkpt><trkpt lat="45.22409541354683" lon="9.299532786819904"><ele>75.0</ele><time>2026-04-18T08:48:11Z</time></trkpt><trkpt lat="45.224020558809315" lon="9.29960947585492"><ele>75.0</ele><time>2026-04-18T08:48:12Z</time></trkpt><trkpt lat="45.22394266322605" lon="9.299672859949702"><ele>75.0</ele><time>2026-04-18T08:48:13Z</time></trkpt><trkpt lat="45.22383422285447" lon="9.29972995761556"><ele>75.0</ele><time>2026-04-18T08:48:14Z</time></trkpt><trkpt lat="45.223714662797704" lon="9.299824720114243"><ele>74.33333333333333</ele><time>2026-04-18T08:48:15Z</time></trkpt><trkpt lat="45.22358303542873" lon="9.299927818185296"><ele>73.66666666666666</ele><time>2026-04-18T08:48:16Z</time></trkpt><trkpt lat="45.22344341098748" lon="9.300035337424797"><ele>73.0</ele><time>2026-04-18T08:48:17Z</time></trkpt><trkpt lat="45.22330842797781" lon="9.300139275117095"><ele>73.0</ele><time>2026-04-18T08:48:18Z</time></trkpt><trkpt lat="45.223184349632476" lon="9.300233368218379"><ele>73.0</ele><time>2026-04-18T08:48:19Z</time></trkpt><trkpt lat="45.223058127775225" lon="9.300328396392466"><ele>73.0</ele><time>2026-04-18T08:48:20Z</time></trkpt><trkpt lat="45.222928269845674" lon="9.300424657867232"><ele>73.0</ele><time>2026-04-18T08:48:21Z</time></trkpt><trkpt lat="45.22279994673968" lon="9.300517547940526"><ele>73.5</ele><time>2026-04-18T08:48:22Z</time></trkpt><trkpt lat="45.22267403417391" lon="9.300598305587702"><ele>74.0</ele><time>2026-04-18T08:48:23Z</time></trkpt><trkpt lat="45.222547142235115" lon="9.300663485047972"><ele>74.5</ele><time>2026-04-18T08:48:24Z</time></trkpt><trkpt lat="45.222420027352705" lon="9.300704637132759"><ele>75.0</ele><time>2026-04-18T08:48:25Z</time></trkpt><trkpt lat="45.222286434332055" lon="9.300740583769825"><ele>75.0</ele><time>2026-04-18T08:48:26Z</time></trkpt><trkpt lat="45.22215750135077" lon="9.300775216282194"><ele>75.0</ele><time>2026-04-18T08:48:27Z</time></trkpt><trkpt lat="45.222034790271216" lon="9.300805512245686"><ele>75.0</ele><time>2026-04-18T08:48:28Z</time></trkpt><trkpt lat="45.221913196472066" lon="9.300845021549183"><ele>75.0</ele><time>2026-04-18T08:48:29Z</time></trkpt><trkpt lat="45.221789170017935" lon="9.300908523036336"><ele>75.0</ele><time>2026-04-18T08:48:30Z</time></trkpt><trkpt lat="45.22167195864799" lon="9.301010096675437"><ele>75.0</ele><time>2026-04-18T08:48:31Z</time></trkpt><trkpt lat="45.221546703385656" lon="9.301100333620921"><ele>75.0</ele><time>2026-04-18T08:48:32Z</time></trkpt><trkpt lat="45.22141729943059" lon="9.301202257466699"><ele>75.0</ele><time>2026-04-18T08:48:33Z</time></trkpt><trkpt lat="45.22128669173097" lon="9.301309457848367"><ele>75.0</ele><time>2026-04-18T08:48:34.001Z</time></trkpt><trkpt lat="45.22114680388862" lon="9.30140023944096"><ele>75.0</ele><time>2026-04-18T08:48:35.001Z</time></trkpt><trkpt lat="45.221015527916585" lon="9.30150976699006"><ele>75.0</ele><time>2026-04-18T08:48:36.001Z</time></trkpt><trkpt lat="45.22088727436764" lon="9.301616173111633"><ele>74.66666666666667</ele><time>2026-04-18T08:48:37.001Z</time></trkpt><trkpt lat="45.220758138707765" lon="9.301725810820017"><ele>74.33333333333334</ele><time>2026-04-18T08:48:38.001Z</time></trkpt><trkpt lat="45.22062836547791" lon="9.301836041786995"><ele>74.0</ele><time>2026-04-18T08:48:39.001Z</time></trkpt><trkpt lat="45.22049323998307" lon="9.301946225871669"><ele>74.0</ele><time>2026-04-18T08:48:40.001Z</time></trkpt><trkpt lat="45.22035711000459" lon="9.30205212627656"><ele>74.0</ele><time>2026-04-18T08:48:41.001Z</time></trkpt><trkpt lat="45.22022941743757" lon="9.302148437137387"><ele>74.0</ele><time>2026-04-18T08:48:42.001Z</time></trkpt><trkpt lat="45.22010060166563" lon="9.302244014054164"><ele>74.0</ele><time>2026-04-18T08:48:43.001Z</time></trkpt><trkpt lat="45.219985655214614" lon="9.302326047783923"><ele>74.0</ele><time>2026-04-18T08:48:44.001Z</time></trkpt><trkpt lat="45.219879605596134" lon="9.302390965611462"><ele>74.0</ele><time>2026-04-18T08:48:45.001Z</time></trkpt><trkpt lat="45.21978801820718" lon="9.302451664789844"><ele>74.0</ele><time>2026-04-18T08:48:46.001Z</time></trkpt><trkpt lat="45.2197214841524" lon="9.302501083605087"><ele>74.0</ele><time>2026-04-18T08:48:47.001Z</time></trkpt><trkpt lat="45.21963532810791" lon="9.302587062948314"><ele>74.0</ele><time>2026-04-18T08:48:49.001Z</time></trkpt><trkpt lat="45.21959169792796" lon="9.30249972586978"><ele>74.0</ele><time>2026-04-18T08:48:51.001Z</time></trkpt><trkpt lat="45.21952311386756" lon="9.30234500959021"><ele>74.0</ele><time>2026-04-18T08:48:53.001Z</time></trkpt><trkpt lat="45.219469658918406" lon="9.302233417497822"><ele>74.0</ele><time>2026-04-18T08:48:54.001Z</time></trkpt><trkpt lat="45.219388765768514" lon="9.302092675602514"><ele>74.0</ele><time>2026-04-18T08:48:55.001Z</time></trkpt><trkpt lat="45.21930574174849" lon="9.301976248477821"><ele>74.0</ele><time>2026-04-18T08:48:56.001Z</time></trkpt><trkpt lat="45.219257839587485" lon="9.30182702867565"><ele>74.0</ele><time>2026-04-18T08:48:57.001Z</time></trkpt><trkpt lat="45.219184048592574" lon="9.301703413288594"><ele>74.0</ele><time>2026-04-18T08:48:58.001Z</time></trkpt><trkpt lat="45.219110877227116" lon="9.301605449180158"><ele>74.0</ele><time>2026-04-18T08:48:59.001Z</time></trkpt><trkpt lat="45.21904330490204" lon="9.301520935022172"><ele>74.0</ele><time>2026-04-18T08:49:00.001Z</time></trkpt><trkpt lat="45.218981972615786" lon="9.301448473391764"><ele>74.16666666666667</ele><time>2026-04-18T08:49:01.001Z</time></trkpt><trkpt lat="45.218926067413655" lon="9.301382423652452"><ele>74.33333333333334</ele><time>2026-04-18T08:49:02.001Z</time></trkpt><trkpt lat="45.218865966805176" lon="9.301309485696127"><ele>74.5</ele><time>2026-04-18T08:49:03.001Z</time></trkpt><trkpt lat="45.21879895543395" lon="9.301227766610266"><ele>74.66666666666667</ele><time>2026-04-18T08:49:04.001Z</time></trkpt><trkpt lat="45.218723704066456" lon="9.301139950467494"><ele>74.83333333333333</ele><time>2026-04-18T08:49:05.001Z</time></trkpt><trkpt lat="45.218648964364924" lon="9.301054939046352"><ele>75.0</ele><time>2026-04-18T08:49:06.001Z</time></trkpt><trkpt lat="45.21857019035745" lon="9.300981148145812"><ele>75.0</ele><time>2026-04-18T08:49:07.001Z</time></trkpt><trkpt lat="45.21849958872041" lon="9.300925812836565"><ele>75.0</ele><time>2026-04-18T08:49:08.002Z</time></trkpt><trkpt lat="45.21842347478726" lon="9.300908692036522"><ele>75.0</ele><time>2026-04-18T08:49:09.002Z</time></trkpt><trkpt lat="45.21836215443987" lon="9.300883397262924"><ele>75.0</ele><time>2026-04-18T08:49:10.002Z</time></trkpt><trkpt lat="45.218306984304725" lon="9.30083558489404"><ele>75.0</ele><time>2026-04-18T08:49:11.002Z</time></trkpt><trkpt lat="45.218201196161935" lon="9.300786944816803"><ele>75.0</ele><time>2026-04-18T08:49:13.002Z</time></trkpt><trkpt lat="45.218138345981345" lon="9.300702653239497"><ele>75.16666666666667</ele><time>2026-04-18T08:49:15.002Z</time></trkpt><trkpt lat="45.218116527944844" lon="9.300601713600967"><ele>75.33333333333333</ele><time>2026-04-18T08:49:17.002Z</time></trkpt><trkpt lat="45.218085695478074" lon="9.300497153478668"><ele>75.5</ele><time>2026-04-18T08:49:19.002Z</time></trkpt><trkpt lat="45.218056417338715" lon="9.300391902254315"><ele>75.66666666666666</ele><time>2026-04-18T08:49:21.002Z</time></trkpt><trkpt lat="45.21802579994383" lon="9.300291675316613"><ele>75.83333333333333</ele><time>2026-04-18T08:49:23.002Z</time></trkpt><trkpt lat="45.217993152090834" lon="9.300191095459786"><ele>76.0</ele><time>2026-04-18T08:49:25.002Z</time></trkpt><trkpt lat="45.21794574699204" lon="9.300047470488645"><ele>76.0</ele><time>2026-04-18T08:49:27.002Z</time></trkpt><trkpt lat="45.217910525035435" lon="9.299945605479294"><ele>76.0</ele><time>2026-04-18T08:49:28.002Z</time></trkpt><trkpt lat="45.2178547100407" lon="9.299805024923327"><ele>76.0</ele><time>2026-04-18T08:49:30.002Z</time></trkpt><trkpt lat="45.217807445519874" lon="9.299713390726453"><ele>76.0</ele><time>2026-04-18T08:49:32.002Z</time></trkpt><trkpt lat="45.21765981378674" lon="9.299762730997216"><ele>76.0</ele><time>2026-04-18T08:49:34.002Z</time></trkpt><trkpt lat="45.21757924150755" lon="9.299775408909987"><ele>76.0</ele><time>2026-04-18T08:49:35.002Z</time></trkpt><trkpt lat="45.217493519410525" lon="9.29981170198557"><ele>76.0</ele><time>2026-04-18T08:49:36.002Z</time></trkpt><trkpt lat="45.217392469838224" lon="9.29986478507632"><ele>76.0</ele><time>2026-04-18T08:49:37.002Z</time></trkpt><trkpt lat="45.217282801029405" lon="9.299917725409369"><ele>76.0</ele><time>2026-04-18T08:49:38.002Z</time></trkpt><trkpt lat="45.2171841491746" lon="9.299954887485352"><ele>76.0</ele><time>2026-04-18T08:49:39.002Z</time></trkpt><trkpt lat="45.21708849976555" lon="9.29999267265348"><ele>76.0</ele><time>2026-04-18T08:49:40.002Z</time></trkpt><trkpt lat="45.21698453753498" lon="9.300042880804638"><ele>76.0</ele><time>2026-04-18T08:49:41.002Z</time></trkpt><trkpt lat="45.21688270874681" lon="9.30011392508988"><ele>76.0</ele><time>2026-04-18T08:49:42.003Z</time></trkpt><trkpt lat="45.21678182785023" lon="9.30018472590754"><ele>76.0</ele><time>2026-04-18T08:49:43.003Z</time></trkpt><trkpt lat="45.21668440918144" lon="9.300250053720037"><ele>76.0</ele><time>2026-04-18T08:49:44.003Z</time></trkpt><trkpt lat="45.21659158935955" lon="9.300312297537252"><ele>76.0</ele><time>2026-04-18T08:49:45.003Z</time></trkpt><trkpt lat="45.216500013470004" lon="9.30038422306741"><ele>76.0</ele><time>2026-04-18T08:49:46.003Z</time></trkpt><trkpt lat="45.216407071189415" lon="9.300460144066431"><ele>76.0</ele><time>2026-04-18T08:49:47.003Z</time></trkpt><trkpt lat="45.216319223099106" lon="9.300552220426354"><ele>76.0</ele><time>2026-04-18T08:49:48.003Z</time></trkpt><trkpt lat="45.216222648117636" lon="9.300613963087153"><ele>76.0</ele><time>2026-04-18T08:49:49.003Z</time></trkpt><trkpt lat="45.21611424396291" lon="9.300622735042447"><ele>75.6</ele><time>2026-04-18T08:49:50.003Z</time></trkpt><trkpt lat="45.21600922097566" lon="9.300646812951996"><ele>75.19999999999999</ele><time>2026-04-18T08:49:51.003Z</time></trkpt><trkpt lat="45.215909158639484" lon="9.300686332181824"><ele>74.80000000000001</ele><time>2026-04-18T08:49:52.003Z</time></trkpt><trkpt lat="45.21581347261566" lon="9.300745615498446"><ele>74.4</ele><time>2026-04-18T08:49:53.003Z</time></trkpt><trkpt lat="45.21572639423336" lon="9.300837493525124"><ele>74.0</ele><time>2026-04-18T08:49:54.003Z</time></trkpt><trkpt lat="45.21564449070205" lon="9.300942917968408"><ele>73.75</ele><time>2026-04-18T08:49:55.003Z</time></trkpt><trkpt lat="45.2155523593305" lon="9.301064731085384"><ele>73.5</ele><time>2026-04-18T08:49:56.003Z</time></trkpt><trkpt lat="45.21545801351859" lon="9.301192773432273"><ele>73.25</ele><time>2026-04-18T08:49:57.003Z</time></trkpt><trkpt lat="45.215367221065286" lon="9.301348803824819"><ele>73.0</ele><time>2026-04-18T08:49:58.003Z</time></trkpt><trkpt lat="45.21526387051932" lon="9.301478254460632"><ele>73.0</ele><time>2026-04-18T08:49:59.003Z</time></trkpt><trkpt lat="45.215160555669925" lon="9.301614246363677"><ele>73.0</ele><time>2026-04-18T08:50:00.003Z</time></trkpt><trkpt lat="45.21505591914258" lon="9.301748860052042"><ele>73.0</ele><time>2026-04-18T08:50:01.003Z</time></trkpt><trkpt lat="45.21495093577408" lon="9.301884569628928"><ele>73.0</ele><time>2026-04-18T08:50:02.003Z</time></trkpt><trkpt lat="45.21483492897431" lon="9.302000325114196"><ele>73.0</ele><time>2026-04-18T08:50:03.003Z</time></trkpt><trkpt lat="45.214728913589376" lon="9.302134846444153"><ele>73.0</ele><time>2026-04-18T08:50:04.003Z</time></trkpt><trkpt lat="45.214626048355335" lon="9.302265339336067"><ele>73.0</ele><time>2026-04-18T08:50:05.003Z</time></trkpt><trkpt lat="45.21453527657255" lon="9.302408968765947"><ele>73.0</ele><time>2026-04-18T08:50:06.003Z</time></trkpt><trkpt lat="45.214431670755836" lon="9.30253568524768"><ele>73.0</ele><time>2026-04-18T08:50:07.003Z</time></trkpt><trkpt lat="45.21432855154142" lon="9.3026711083593"><ele>73.0</ele><time>2026-04-18T08:50:08.003Z</time></trkpt><trkpt lat="45.21423233303667" lon="9.302822943262955"><ele>73.0</ele><time>2026-04-18T08:50:09.003Z</time></trkpt><trkpt lat="45.214138394323655" lon="9.302982577347032"><ele>73.0</ele><time>2026-04-18T08:50:10Z</time></trkpt><trkpt lat="45.21403981998436" lon="9.30314809059963"><ele>73.0</ele><time>2026-04-18T08:50:11Z</time></trkpt><trkpt lat="45.21393891616627" lon="9.303305793434374"><ele>73.0</ele><time>2026-04-18T08:50:12Z</time></trkpt><trkpt lat="45.213830543560064" lon="9.303463035371568"><ele>73.0</ele><time>2026-04-18T08:50:13Z</time></trkpt><trkpt lat="45.21371915452433" lon="9.303621084856081"><ele>73.0</ele><time>2026-04-18T08:50:14Z</time></trkpt><trkpt lat="45.21361461749808" lon="9.303764582889999"><ele>73.0</ele><time>2026-04-18T08:50:15Z</time></trkpt><trkpt lat="45.21351038958633" lon="9.3039056849453"><ele>73.0</ele><time>2026-04-18T08:50:16Z</time></trkpt><trkpt lat="45.21340720134412" lon="9.304039136483757"><ele>73.0</ele><time>2026-04-18T08:50:17Z</time></trkpt><trkpt lat="45.21330443751909" lon="9.3041740257276"><ele>73.5</ele><time>2026-04-18T08:50:18Z</time></trkpt><trkpt lat="45.21320455846084" lon="9.304309083497833"><ele>74.0</ele><time>2026-04-18T08:50:19Z</time></trkpt><trkpt lat="45.21310710775156" lon="9.304445045792578"><ele>74.5</ele><time>2026-04-18T08:50:20Z</time></trkpt><trkpt lat="45.21301067112879" lon="9.304584756727703"><ele>75.0</ele><time>2026-04-18T08:50:21Z</time></trkpt><trkpt lat="45.21291824715896" lon="9.304725731940477"><ele>75.0</ele><time>2026-04-18T08:50:22Z</time></trkpt><trkpt lat="45.21282775980209" lon="9.30487167269905"><ele>75.0</ele><time>2026-04-18T08:50:23Z</time></trkpt><trkpt lat="45.212737296907" lon="9.305024362263786"><ele>75.0</ele><time>2026-04-18T08:50:24Z</time></trkpt><trkpt lat="45.21264955421082" lon="9.30517972551512"><ele>75.0</ele><time>2026-04-18T08:50:25Z</time></trkpt><trkpt lat="45.21256068799968" lon="9.305336850236568"><ele>75.0</ele><time>2026-04-18T08:50:26Z</time></trkpt><trkpt lat="45.21247485029363" lon="9.305492649370699"><ele>75.0</ele><time>2026-04-18T08:50:27Z</time></trkpt><trkpt lat="45.21239174941395" lon="9.305639112891038"><ele>75.0</ele><time>2026-04-18T08:50:28Z</time></trkpt><trkpt lat="45.212317200776134" lon="9.305773313666549"><ele>75.0</ele><time>2026-04-18T08:50:29Z</time></trkpt><trkpt lat="45.21224949381484" lon="9.30589554314547"><ele>75.0</ele><time>2026-04-18T08:50:30Z</time></trkpt><trkpt lat="45.21217572389982" lon="9.306016099766724"><ele>75.0</ele><time>2026-04-18T08:50:31Z</time></trkpt><trkpt lat="45.21209738566775" lon="9.306139058427421"><ele>75.0</ele><time>2026-04-18T08:50:32Z</time></trkpt><trkpt lat="45.21202139877073" lon="9.306274296263648"><ele>75.0</ele><time>2026-04-18T08:50:33Z</time></trkpt><trkpt lat="45.21194849389371" lon="9.306415727434212"><ele>75.0</ele><time>2026-04-18T08:50:34Z</time></trkpt><trkpt lat="45.21187530480568" lon="9.306552456492705"><ele>75.0</ele><time>2026-04-18T08:50:35Z</time></trkpt><trkpt lat="45.21179948438748" lon="9.306687632368309"><ele>75.0</ele><time>2026-04-18T08:50:36Z</time></trkpt><trkpt lat="45.211722207887426" lon="9.30681274981641"><ele>75.0</ele><time>2026-04-18T08:50:37Z</time></trkpt><trkpt lat="45.21163874066539" lon="9.306925163998448"><ele>75.0</ele><time>2026-04-18T08:50:38.001Z</time></trkpt><trkpt lat="45.21154882013651" lon="9.307029076441259"><ele>75.0</ele><time>2026-04-18T08:50:39.001Z</time></trkpt><trkpt lat="45.21145984101913" lon="9.30712152718349"><ele>75.0</ele><time>2026-04-18T08:50:40.001Z</time></trkpt><trkpt lat="45.21136973436769" lon="9.307200756081677"><ele>75.0</ele><time>2026-04-18T08:50:41.001Z</time></trkpt><trkpt lat="45.21128119321862" lon="9.307270154756159"><ele>75.0</ele><time>2026-04-18T08:50:42.001Z</time></trkpt><trkpt lat="45.21118219978426" lon="9.307303471138296"><ele>74.8</ele><time>2026-04-18T08:50:43.001Z</time></trkpt><trkpt lat="45.21109327980747" lon="9.30735243930533"><ele>74.6</ele><time>2026-04-18T08:50:44.001Z</time></trkpt><trkpt lat="45.211006787334625" lon="9.307390715253264"><ele>74.4</ele><time>2026-04-18T08:50:45.001Z</time></trkpt><trkpt lat="45.210923525370276" lon="9.307446549436914"><ele>74.2</ele><time>2026-04-18T08:50:46.001Z</time></trkpt><trkpt lat="45.21083582793668" lon="9.307443731196646"><ele>74.0</ele><time>2026-04-18T08:50:47.001Z</time></trkpt><trkpt lat="45.210749923021034" lon="9.307459214364902"><ele>74.0</ele><time>2026-04-18T08:50:48.001Z</time></trkpt><trkpt lat="45.21066155638535" lon="9.307459249768637"><ele>74.0</ele><time>2026-04-18T08:50:49.001Z</time></trkpt><trkpt lat="45.21057148640715" lon="9.307452744730917"><ele>74.0</ele><time>2026-04-18T08:50:50.001Z</time></trkpt><trkpt lat="45.210480079657636" lon="9.307444199439061"><ele>74.0</ele><time>2026-04-18T08:50:51.001Z</time></trkpt><trkpt lat="45.21039400159339" lon="9.307435925761247"><ele>74.0</ele><time>2026-04-18T08:50:52.001Z</time></trkpt><trkpt lat="45.21030703270915" lon="9.307427566460381"><ele>74.0</ele><time>2026-04-18T08:50:53.001Z</time></trkpt><trkpt lat="45.21021564167367" lon="9.307418782109053"><ele>73.83333333333334</ele><time>2026-04-18T08:50:54.001Z</time></trkpt><trkpt lat="45.21012660991351" lon="9.30741022452734"><ele>73.66666666666667</ele><time>2026-04-18T08:50:55.001Z</time></trkpt><trkpt lat="45.21004872674264" lon="9.307421171967437"><ele>73.5</ele><time>2026-04-18T08:50:56.001Z</time></trkpt><trkpt lat="45.209972596571475" lon="9.307405990155198"><ele>73.33333333333333</ele><time>2026-04-18T08:50:57.001Z</time></trkpt><trkpt lat="45.20990320096579" lon="9.307390828507359"><ele>73.16666666666666</ele><time>2026-04-18T08:50:58.001Z</time></trkpt><trkpt lat="45.20983324416768" lon="9.307382318237057"><ele>73.0</ele><time>2026-04-18T08:50:59.001Z</time></trkpt><trkpt lat="45.20974908151322" lon="9.307361443595255"><ele>72.83333333333333</ele><time>2026-04-18T08:51:01.001Z</time></trkpt><trkpt lat="45.20968640293726" lon="9.307345955801196"><ele>72.66666666666666</ele><time>2026-04-18T08:51:04.001Z</time></trkpt><trkpt lat="45.209621221616686" lon="9.30731333062658"><ele>72.5</ele><time>2026-04-18T08:51:07.001Z</time></trkpt><trkpt lat="45.209558794063554" lon="9.307437202759248"><ele>72.33333333333333</ele><time>2026-04-18T08:51:08.001Z</time></trkpt><trkpt lat="45.20949697888584" lon="9.30757106513396"><ele>72.16666666666667</ele><time>2026-04-18T08:51:10.001Z</time></trkpt><trkpt lat="45.20946316677468" lon="9.307649107815937"><ele>72.0</ele><time>2026-04-18T08:51:11.001Z</time></trkpt><trkpt lat="45.209425009390706" lon="9.30773073621878"><ele>72.00000000000001</ele><time>2026-04-18T08:51:12.001Z</time></trkpt><trkpt lat="45.20938073376929" lon="9.307806694102327"><ele>72.0</ele><time>2026-04-18T08:51:13.001Z</time></trkpt><trkpt lat="45.20932828526754" lon="9.307872789711892"><ele>72.0</ele><time>2026-04-18T08:51:14.001Z</time></trkpt><trkpt lat="45.20927056365833" lon="9.307937718932807"><ele>72.0</ele><time>2026-04-18T08:51:15.002Z</time></trkpt><trkpt lat="45.209215330313064" lon="9.307992029054663"><ele>72.0</ele><time>2026-04-18T08:51:16.002Z</time></trkpt><trkpt lat="45.20916053870692" lon="9.308038781262209"><ele>72.00000000000001</ele><time>2026-04-18T08:51:17.002Z</time></trkpt><trkpt lat="45.20909827204634" lon="9.30807977290607"><ele>72.0</ele><time>2026-04-18T08:51:18.002Z</time></trkpt><trkpt lat="45.2090364330821" lon="9.308111105740382"><ele>72.2</ele><time>2026-04-18T08:51:19.002Z</time></trkpt><trkpt lat="45.20897426356193" lon="9.308130385019389"><ele>72.4</ele><time>2026-04-18T08:51:20.002Z</time></trkpt><trkpt lat="45.20886171981147" lon="9.308160445421416"><ele>72.6</ele><time>2026-04-18T08:51:22.002Z</time></trkpt><trkpt lat="45.20875799120125" lon="9.308147694721189"><ele>72.8</ele><time>2026-04-18T08:51:24.002Z</time></trkpt><trkpt lat="45.208654037577006" lon="9.308161558038126"><ele>73.0</ele><time>2026-04-18T08:51:26.002Z</time></trkpt><trkpt lat="45.20861329816417" lon="9.30826977119106"><ele>73.0</ele><time>2026-04-18T08:51:27.002Z</time></trkpt><trkpt lat="45.20852544954908" lon="9.308392350393367"><ele>73.0</ele><time>2026-04-18T08:51:29.002Z</time></trkpt><trkpt lat="45.20848200995873" lon="9.30845991652807"><ele>73.0</ele><time>2026-04-18T08:51:30.002Z</time></trkpt><trkpt lat="45.20840933867133" lon="9.308496936053402"><ele>73.0</ele><time>2026-04-18T08:51:31.002Z</time></trkpt><trkpt lat="45.208358082127596" lon="9.308573771466072"><ele>73.0</ele><time>2026-04-18T08:51:32.002Z</time></trkpt><trkpt lat="45.208309303918625" lon="9.308659501514263"><ele>73.0</ele><time>2026-04-18T08:51:33.002Z</time></trkpt><trkpt lat="45.208259900382096" lon="9.308739040507458"><ele>73.0</ele><time>2026-04-18T08:51:34.002Z</time></trkpt><trkpt lat="45.208207549158956" lon="9.30881329664745"><ele>73.0</ele><time>2026-04-18T08:51:35.002Z</time></trkpt><trkpt lat="45.20816243321326" lon="9.30889133145042"><ele>73.0</ele><time>2026-04-18T08:51:36.002Z</time></trkpt><trkpt lat="45.208081356412" lon="9.309027601748024"><ele>73.0</ele><time>2026-04-18T08:51:38.002Z</time></trkpt><trkpt lat="45.2080657403306" lon="9.30913056515082"><ele>73.0</ele><time>2026-04-18T08:51:39.002Z</time></trkpt><trkpt lat="45.20805457522405" lon="9.309247026787022"><ele>73.0</ele><time>2026-04-18T08:51:40.002Z</time></trkpt><trkpt lat="45.20803943325255" lon="9.30937283423678"><ele>73.0</ele><time>2026-04-18T08:51:41.002Z</time></trkpt><trkpt lat="45.20801452196789" lon="9.309514415202862"><ele>73.0</ele><time>2026-04-18T08:51:42.002Z</time></trkpt><trkpt lat="45.20799574697493" lon="9.309639982740256"><ele>73.0</ele><time>2026-04-18T08:51:43.002Z</time></trkpt><trkpt lat="45.20798203866994" lon="9.30976735582968"><ele>73.0</ele><time>2026-04-18T08:51:44.002Z</time></trkpt><trkpt lat="45.20799213925295" lon="9.309901744921513"><ele>73.0</ele><time>2026-04-18T08:51:45.002Z</time></trkpt><trkpt lat="45.208013816071734" lon="9.310034571404557"><ele>73.0</ele><time>2026-04-18T08:51:46.002Z</time></trkpt><trkpt lat="45.20805074052072" lon="9.310166157600973"><ele>73.0</ele><time>2026-04-18T08:51:47.002Z</time></trkpt><trkpt lat="45.208082379616116" lon="9.310268640831618"><ele>73.0</ele><time>2026-04-18T08:51:48.002Z</time></trkpt><trkpt lat="45.20810942416324" lon="9.310353670971823"><ele>73.0</ele><time>2026-04-18T08:51:49.002Z</time></trkpt><trkpt lat="45.2081221774127" lon="9.310480802977466"><ele>73.0</ele><time>2026-04-18T08:51:51.003Z</time></trkpt><trkpt lat="45.2081350836398" lon="9.310570772008798"><ele>73.0</ele><time>2026-04-18T08:51:54.003Z</time></trkpt><trkpt lat="45.20811423884422" lon="9.310435536247018"><ele>73.0</ele><time>2026-04-18T08:52:13.003Z</time></trkpt><trkpt lat="45.2080904812352" lon="9.310315416169827"><ele>73.0</ele><time>2026-04-18T08:52:14.003Z</time></trkpt><trkpt lat="45.208072096998634" lon="9.310224470804037"><ele>73.0</ele><time>2026-04-18T08:52:15.003Z</time></trkpt><trkpt lat="45.20804340313263" lon="9.310052605331304"><ele>73.0</ele><time>2026-04-18T08:52:17Z</time></trkpt><trkpt lat="45.208009877141905" lon="9.309882849998287"><ele>73.0</ele><time>2026-04-18T08:52:19Z</time></trkpt><trkpt lat="45.208017376215096" lon="9.309679319202823"><ele>73.16666666666666</ele><time>2026-04-18T08:52:21Z</time></trkpt><trkpt lat="45.208033735364424" lon="9.309565682989328"><ele>73.33333333333333</ele><time>2026-04-18T08:52:22Z</time></trkpt><trkpt lat="45.20805234071501" lon="9.309443835774761"><ele>73.5</ele><time>2026-04-18T08:52:23Z</time></trkpt><trkpt lat="45.20806784309885" lon="9.30932513317155"><ele>73.66666666666667</ele><time>2026-04-18T08:52:24Z</time></trkpt><trkpt lat="45.20807788242889" lon="9.309234660559923"><ele>73.83333333333334</ele><time>2026-04-18T08:52:25Z</time></trkpt><trkpt lat="45.208087523401375" lon="9.30914416426319"><ele>74.0</ele><time>2026-04-18T08:52:26Z</time></trkpt><trkpt lat="45.208092934411155" lon="9.309029163631578"><ele>74.0</ele><time>2026-04-18T08:52:29Z</time></trkpt><trkpt lat="45.20799583277655" lon="9.308982806568862"><ele>74.0</ele><time>2026-04-18T08:52:32Z</time></trkpt><trkpt lat="45.207933021276865" lon="9.309022949674215"><ele>74.0</ele><time>2026-04-18T08:52:33Z</time></trkpt><trkpt lat="45.20786741714826" lon="9.309044576747583"><ele>74.0</ele><time>2026-04-18T08:52:34Z</time></trkpt><trkpt lat="45.20776605834197" lon="9.309039224033752"><ele>74.0</ele><time>2026-04-18T08:52:36Z</time></trkpt><trkpt lat="45.20766246210064" lon="9.30902194551432"><ele>74.0</ele><time>2026-04-18T08:52:38Z</time></trkpt><trkpt lat="45.20758474867874" lon="9.309004086806173"><ele>74.0</ele><time>2026-04-18T08:52:40Z</time></trkpt><trkpt lat="45.20750837831019" lon="9.308966658904879"><ele>74.0</ele><time>2026-04-18T08:52:43.001Z</time></trkpt><trkpt lat="45.20744550677238" lon="9.308900110396033"><ele>74.0</ele><time>2026-04-18T08:52:46.001Z</time></trkpt><trkpt lat="45.20745326829112" lon="9.308806578505465"><ele>74.0</ele><time>2026-04-18T08:52:48.001Z</time></trkpt><trkpt lat="45.20752210597827" lon="9.308719390693021"><ele>74.0</ele><time>2026-04-18T08:52:50.001Z</time></trkpt><trkpt lat="45.20758806567576" lon="9.308587258860225"><ele>74.0</ele><time>2026-04-18T08:52:52.001Z</time></trkpt><trkpt lat="45.20760827831141" lon="9.308500259534505"><ele>73.8</ele><time>2026-04-18T08:52:53.001Z</time></trkpt><trkpt lat="45.20765485292399" lon="9.308362712986744"><ele>73.60000000000001</ele><time>2026-04-18T08:52:55.001Z</time></trkpt><trkpt lat="45.207672188770445" lon="9.308265509765768"><ele>73.4</ele><time>2026-04-18T08:53:01.001Z</time></trkpt><trkpt lat="45.20756965162928" lon="9.308185909851316"><ele>73.2</ele><time>2026-04-18T08:53:02.001Z</time></trkpt><trkpt lat="45.20750289571108" lon="9.308147365981654"><ele>73.0</ele><time>2026-04-18T08:53:03.001Z</time></trkpt><trkpt lat="45.20739041736362" lon="9.308055442347431"><ele>72.0</ele><time>2026-04-18T08:53:05.001Z</time></trkpt><trkpt lat="45.20732433105055" lon="9.307986558092685"><ele>71.0</ele><time>2026-04-18T08:53:06.001Z</time></trkpt><trkpt lat="45.20723128199699" lon="9.30794193401819"><ele>70.0</ele><time>2026-04-18T08:53:07.001Z</time></trkpt><trkpt lat="45.207142862257285" lon="9.307879638173828"><ele>69.0</ele><time>2026-04-18T08:53:08.001Z</time></trkpt><trkpt lat="45.20706875337598" lon="9.30781678581178"><ele>68.0</ele><time>2026-04-18T08:53:09.001Z</time></trkpt><trkpt lat="45.20699692677712" lon="9.307739944236891"><ele>68.0</ele><time>2026-04-18T08:53:10.001Z</time></trkpt><trkpt lat="45.20692262290175" lon="9.307641792095195"><ele>68.0</ele><time>2026-04-18T08:53:11.001Z</time></trkpt><trkpt lat="45.20684812617409" lon="9.307533190727847"><ele>68.0</ele><time>2026-04-18T08:53:12.001Z</time></trkpt><trkpt lat="45.20677574393599" lon="9.307420564133285"><ele>68.0</ele><time>2026-04-18T08:53:13.001Z</time></trkpt><trkpt lat="45.20670933194974" lon="9.307296035173891"><ele>68.0</ele><time>2026-04-18T08:53:14.001Z</time></trkpt><trkpt lat="45.206653103215025" lon="9.307171658930798"><ele>67.83333333333334</ele><time>2026-04-18T08:53:15.001Z</time></trkpt><trkpt lat="45.206593329013415" lon="9.307062032230931"><ele>67.66666666666667</ele><time>2026-04-18T08:53:16.001Z</time></trkpt><trkpt lat="45.20653201268303" lon="9.306968861051446"><ele>67.5</ele><time>2026-04-18T08:53:17.001Z</time></trkpt><trkpt lat="45.206480584676115" lon="9.306879780227613"><ele>67.33333333333333</ele><time>2026-04-18T08:53:18.002Z</time></trkpt><trkpt lat="45.20641005015652" lon="9.306830947558437"><ele>67.16666666666666</ele><time>2026-04-18T08:53:19.002Z</time></trkpt><trkpt lat="45.2063282053973" lon="9.306816190718921"><ele>67.0</ele><time>2026-04-18T08:53:20.002Z</time></trkpt><trkpt lat="45.206244590226156" lon="9.306825903838009"><ele>66.83333333333333</ele><time>2026-04-18T08:53:21.002Z</time></trkpt><trkpt lat="45.206163318900956" lon="9.30684254000711"><ele>66.66666666666666</ele><time>2026-04-18T08:53:22.002Z</time></trkpt><trkpt lat="45.20608576351686" lon="9.306851816362817"><ele>66.5</ele><time>2026-04-18T08:53:23.002Z</time></trkpt><trkpt lat="45.20600999839183" lon="9.306879544996375"><ele>66.33333333333333</ele><time>2026-04-18T08:53:24.002Z</time></trkpt><trkpt lat="45.205937799904724" lon="9.306864284379929"><ele>66.16666666666667</ele><time>2026-04-18T08:53:25.002Z</time></trkpt><trkpt lat="45.20587519502273" lon="9.306799472304675"><ele>66.0</ele><time>2026-04-18T08:53:26.002Z</time></trkpt><trkpt lat="45.20580811398679" lon="9.306748703500583"><ele>66.0</ele><time>2026-04-18T08:53:27.002Z</time></trkpt><trkpt lat="45.20573954113581" lon="9.306695850127108"><ele>66.0</ele><time>2026-04-18T08:53:28.002Z</time></trkpt><trkpt lat="45.20566292148249" lon="9.306637179808744"><ele>66.0</ele><time>2026-04-18T08:53:29.002Z</time></trkpt><trkpt lat="45.20558776777386" lon="9.306580608808963"><ele>66.0</ele><time>2026-04-18T08:53:30.002Z</time></trkpt><trkpt lat="45.20550996918" lon="9.306522046909375"><ele>66.0</ele><time>2026-04-18T08:53:31.002Z</time></trkpt><trkpt lat="45.20543496336394" lon="9.30646718234369"><ele>66.0</ele><time>2026-04-18T08:53:32.002Z</time></trkpt><trkpt lat="45.20536422281786" lon="9.306417715222276"><ele>65.83333333333333</ele><time>2026-04-18T08:53:33.002Z</time></trkpt><trkpt lat="45.205292918206716" lon="9.306389458648937"><ele>65.66666666666667</ele><time>2026-04-18T08:53:34.002Z</time></trkpt><trkpt lat="45.20524697868163" lon="9.306305368387795"><ele>65.5</ele><time>2026-04-18T08:53:35.002Z</time></trkpt><trkpt lat="45.205191562775056" lon="9.306257886354187"><ele>65.33333333333334</ele><time>2026-04-18T08:53:36.002Z</time></trkpt><trkpt lat="45.205131342047416" lon="9.30621249299214"><ele>65.16666666666667</ele><time>2026-04-18T08:53:37.002Z</time></trkpt><trkpt lat="45.20506458197171" lon="9.306185745564916"><ele>65.0</ele><time>2026-04-18T08:53:38.002Z</time></trkpt><trkpt lat="45.20494580371839" lon="9.306179752180617"><ele>65.0</ele><time>2026-04-18T08:53:40.002Z</time></trkpt><trkpt lat="45.20484520287188" lon="9.306118638023891"><ele>65.0</ele><time>2026-04-18T08:53:42.002Z</time></trkpt><trkpt lat="45.204819713547046" lon="9.30599622389347"><ele>65.0</ele><time>2026-04-18T08:53:43.002Z</time></trkpt><trkpt lat="45.20476582456344" lon="9.30587725643637"><ele>65.0</ele><time>2026-04-18T08:53:44.002Z</time></trkpt><trkpt lat="45.204698129444644" lon="9.305731151842545"><ele>65.0</ele><time>2026-04-18T08:53:45.002Z</time></trkpt><trkpt lat="45.20462280119118" lon="9.305578964080434"><ele>65.25</ele><time>2026-04-18T08:53:46.002Z</time></trkpt><trkpt lat="45.20454436575526" lon="9.305422600055069"><ele>65.5</ele><time>2026-04-18T08:53:47.002Z</time></trkpt><trkpt lat="45.20446494406628" lon="9.30526365977001"><ele>65.75</ele><time>2026-04-18T08:53:48.002Z</time></trkpt><trkpt lat="45.20439449495032" lon="9.305122613464606"><ele>66.0</ele><time>2026-04-18T08:53:49.002Z</time></trkpt><trkpt lat="45.20432026831018" lon="9.304974004109983"><ele>66.0</ele><time>2026-04-18T08:53:50.002Z</time></trkpt><trkpt lat="45.204246313545596" lon="9.304825755305677"><ele>66.0</ele><time>2026-04-18T08:53:51.002Z</time></trkpt><trkpt lat="45.20417256454609" lon="9.304675108069905"><ele>66.0</ele><time>2026-04-18T08:53:52.002Z</time></trkpt><trkpt lat="45.204101629654474" lon="9.30453020920075"><ele>66.0</ele><time>2026-04-18T08:53:53.003Z</time></trkpt><trkpt lat="45.20402916107243" lon="9.304386696696803"><ele>66.2</ele><time>2026-04-18T08:53:54.003Z</time></trkpt><trkpt lat="45.20396070568563" lon="9.304255357056995"><ele>66.39999999999999</ele><time>2026-04-18T08:53:55.003Z</time></trkpt><trkpt lat="45.203896381013934" lon="9.304132754506341"><ele>66.6</ele><time>2026-04-18T08:53:56.003Z</time></trkpt><trkpt lat="45.2038402548447" lon="9.304022787760754"><ele>66.8</ele><time>2026-04-18T08:53:57.003Z</time></trkpt><trkpt lat="45.20378932317316" lon="9.303924802203195"><ele>67.0</ele><time>2026-04-18T08:53:58.003Z</time></trkpt><trkpt lat="45.203727294447056" lon="9.303836097195118"><ele>67.0</ele><time>2026-04-18T08:53:59.003Z</time></trkpt><trkpt lat="45.20363744086463" lon="9.30378854212117"><ele>67.0</ele><time>2026-04-18T08:54:00.003Z</time></trkpt><trkpt lat="45.203560484855856" lon="9.303746041070339"><ele>67.0</ele><time>2026-04-18T08:54:01.003Z</time></trkpt><trkpt lat="45.2034673234249" lon="9.303687889434254"><ele>67.0</ele><time>2026-04-18T08:54:02.003Z</time></trkpt><trkpt lat="45.20336898034508" lon="9.30360514273937"><ele>67.0</ele><time>2026-04-18T08:54:03.003Z</time></trkpt><trkpt lat="45.203264852489305" lon="9.303541269558343"><ele>68.0</ele><time>2026-04-18T08:54:04.003Z</time></trkpt><trkpt lat="45.2031588890512" lon="9.303474352650278"><ele>69.0</ele><time>2026-04-18T08:54:05.003Z</time></trkpt><trkpt lat="45.20305870020161" lon="9.303406731277596"><ele>70.0</ele><time>2026-04-18T08:54:06.003Z</time></trkpt><trkpt lat="45.20297437157755" lon="9.303349294231934"><ele>71.0</ele><time>2026-04-18T08:54:07.003Z</time></trkpt><trkpt lat="45.20289763922547" lon="9.303297031207904"><ele>72.0</ele><time>2026-04-18T08:54:08.003Z</time></trkpt><trkpt lat="45.20283635136648" lon="9.303255287563879"><ele>72.0</ele><time>2026-04-18T08:54:09.003Z</time></trkpt><trkpt lat="45.202745144232885" lon="9.303235141260119"><ele>72.0</ele><time>2026-04-18T08:54:11.003Z</time></trkpt><trkpt lat="45.20267919476635" lon="9.303297574131674"><ele>72.0</ele><time>2026-04-18T08:54:13.003Z</time></trkpt><trkpt lat="45.20266735869574" lon="9.303481593603042"><ele>72.0</ele><time>2026-04-18T08:54:15.003Z</time></trkpt><trkpt lat="45.202657166894774" lon="9.303621303077298"><ele>72.0</ele><time>2026-04-18T08:54:16.003Z</time></trkpt><trkpt lat="45.20262223253543" lon="9.303759942197079"><ele>72.0</ele><time>2026-04-18T08:54:17.003Z</time></trkpt><trkpt lat="45.20259247535897" lon="9.303877480000516"><ele>72.0</ele><time>2026-04-18T08:54:18.003Z</time></trkpt><trkpt lat="45.20256688918223" lon="9.303984099192169"><ele>72.0</ele><time>2026-04-18T08:54:19.003Z</time></trkpt><trkpt lat="45.20255829308633" lon="9.304087769902754"><ele>72.0</ele><time>2026-04-18T08:54:20.003Z</time></trkpt><trkpt lat="45.20248336268352" lon="9.304256111474547"><ele>72.0</ele><time>2026-04-18T08:54:22Z</time></trkpt><trkpt lat="45.202456316569034" lon="9.304376747451206"><ele>71.8</ele><time>2026-04-18T08:54:23Z</time></trkpt><trkpt lat="45.20243345671282" lon="9.304502548156455"><ele>71.6</ele><time>2026-04-18T08:54:24Z</time></trkpt><trkpt lat="45.2024118268307" lon="9.30464925273502"><ele>71.39999999999999</ele><time>2026-04-18T08:54:25Z</time></trkpt><trkpt lat="45.20237465379012" lon="9.304789789816148"><ele>71.2</ele><time>2026-04-18T08:54:26Z</time></trkpt><trkpt lat="45.202350780329716" lon="9.3049429567539"><ele>71.0</ele><time>2026-04-18T08:54:27Z</time></trkpt><trkpt lat="45.20232705360907" lon="9.305112672719106"><ele>71.0</ele><time>2026-04-18T08:54:28Z</time></trkpt><trkpt lat="45.20231688525116" lon="9.305286997685947"><ele>71.0</ele><time>2026-04-18T08:54:29Z</time></trkpt><trkpt lat="45.2022865402927" lon="9.30543500401111"><ele>71.0</ele><time>2026-04-18T08:54:30Z</time></trkpt><trkpt lat="45.20227470711594" lon="9.305557387680354"><ele>71.0</ele><time>2026-04-18T08:54:31Z</time></trkpt><trkpt lat="45.20225933878261" lon="9.305676310938777"><ele>71.0</ele><time>2026-04-18T08:54:32Z</time></trkpt><trkpt lat="45.20224104841462" lon="9.305820049155017"><ele>71.0</ele><time>2026-04-18T08:54:33Z</time></trkpt><trkpt lat="45.20222562222731" lon="9.305981446662406"><ele>71.0</ele><time>2026-04-18T08:54:34Z</time></trkpt><trkpt lat="45.20221189250807" lon="9.306127462603753"><ele>71.0</ele><time>2026-04-18T08:54:35Z</time></trkpt><trkpt lat="45.20220257376277" lon="9.306256935547879"><ele>71.0</ele><time>2026-04-18T08:54:36Z</time></trkpt><trkpt lat="45.20218591243359" lon="9.306375864416001"><ele>71.0</ele><time>2026-04-18T08:54:37Z</time></trkpt><trkpt lat="45.202169021514486" lon="9.306474964495699"><ele>71.16666666666667</ele><time>2026-04-18T08:54:38Z</time></trkpt><trkpt lat="45.202134569889765" lon="9.306560475102014"><ele>71.33333333333334</ele><time>2026-04-18T08:54:39Z</time></trkpt><trkpt lat="45.202096204273886" lon="9.306642212661771"><ele>71.5</ele><time>2026-04-18T08:54:40Z</time></trkpt><trkpt lat="45.2019935594144" lon="9.306740827027548"><ele>71.66666666666667</ele><time>2026-04-18T08:54:42Z</time></trkpt><trkpt lat="45.201926098429574" lon="9.30677337045496"><ele>71.83333333333333</ele><time>2026-04-18T08:54:43Z</time></trkpt><trkpt lat="45.20184088650218" lon="9.306799987469587"><ele>72.0</ele><time>2026-04-18T08:54:44Z</time></trkpt><trkpt lat="45.201749298264424" lon="9.306837666241167"><ele>72.0</ele><time>2026-04-18T08:54:45Z</time></trkpt><trkpt lat="45.20165712820456" lon="9.306865514107882"><ele>72.0</ele><time>2026-04-18T08:54:46Z</time></trkpt><trkpt lat="45.20158158782426" lon="9.306903819696513"><ele>72.0</ele><time>2026-04-18T08:54:47Z</time></trkpt><trkpt lat="45.20150702447051" lon="9.30693321114347"><ele>72.0</ele><time>2026-04-18T08:54:48Z</time></trkpt><trkpt lat="45.20143795962219" lon="9.306961563972864"><ele>72.0</ele><time>2026-04-18T08:54:49Z</time></trkpt><trkpt lat="45.2013763353842" lon="9.306991194775994"><ele>72.0</ele><time>2026-04-18T08:54:50Z</time></trkpt><trkpt lat="45.20130654311381" lon="9.307013294420289"><ele>71.8</ele><time>2026-04-18T08:54:51.001Z</time></trkpt><trkpt lat="45.201227909227214" lon="9.306972368279718"><ele>71.6</ele><time>2026-04-18T08:54:52.001Z</time></trkpt><trkpt lat="45.2011310424708" lon="9.306986576085787"><ele>71.39999999999999</ele><time>2026-04-18T08:54:53.001Z</time></trkpt><trkpt lat="45.201025542978364" lon="9.307031096757552"><ele>71.2</ele><time>2026-04-18T08:54:54.001Z</time></trkpt><trkpt lat="45.20091057476421" lon="9.30705980909151"><ele>71.0</ele><time>2026-04-18T08:54:55.001Z</time></trkpt><trkpt lat="45.2007944184362" lon="9.307080683045395"><ele>71.0</ele><time>2026-04-18T08:54:56.001Z</time></trkpt><trkpt lat="45.20069662999115" lon="9.307116460739282"><ele>71.0</ele><time>2026-04-18T08:54:57.001Z</time></trkpt><trkpt lat="45.20060099270369" lon="9.307158942586772"><ele>71.0</ele><time>2026-04-18T08:54:58.001Z</time></trkpt><trkpt lat="45.20050198649685" lon="9.307199261578395"><ele>71.0</ele><time>2026-04-18T08:54:59.001Z</time></trkpt><trkpt lat="45.20040032414483" lon="9.307239115676866"><ele>71.0</ele><time>2026-04-18T08:55:00.001Z</time></trkpt><trkpt lat="45.20030510440345" lon="9.307272136823537"><ele>71.0</ele><time>2026-04-18T08:55:01.001Z</time></trkpt><trkpt lat="45.2001993949204" lon="9.307312684605089"><ele>71.0</ele><time>2026-04-18T08:55:02.001Z</time></trkpt><trkpt lat="45.20008869285835" lon="9.30735726665034"><ele>71.0</ele><time>2026-04-18T08:55:03.001Z</time></trkpt><trkpt lat="45.19998552490168" lon="9.307406606610819"><ele>71.0</ele><time>2026-04-18T08:55:04.001Z</time></trkpt><trkpt lat="45.19988109505626" lon="9.307456193517467"><ele>71.0</ele><time>2026-04-18T08:55:05.001Z</time></trkpt><trkpt lat="45.19978017280562" lon="9.307501064974588"><ele>70.8</ele><time>2026-04-18T08:55:06.001Z</time></trkpt><trkpt lat="45.19968788594801" lon="9.307534940657913"><ele>70.6</ele><time>2026-04-18T08:55:07.001Z</time></trkpt><trkpt lat="45.19959194262957" lon="9.30757062248935"><ele>70.4</ele><time>2026-04-18T08:55:08.001Z</time></trkpt><trkpt lat="45.19948198823617" lon="9.307617235469948"><ele>70.2</ele><time>2026-04-18T08:55:09.001Z</time></trkpt><trkpt lat="45.19934989152878" lon="9.307639105134216"><ele>70.0</ele><time>2026-04-18T08:55:10.001Z</time></trkpt><trkpt lat="45.199217843806586" lon="9.307694420646236"><ele>70.0</ele><time>2026-04-18T08:55:11.001Z</time></trkpt><trkpt lat="45.19909352867986" lon="9.307727142348234"><ele>70.0</ele><time>2026-04-18T08:55:12.001Z</time></trkpt><trkpt lat="45.19898564242852" lon="9.307741447427489"><ele>70.0</ele><time>2026-04-18T08:55:13.001Z</time></trkpt><trkpt lat="45.19888272422256" lon="9.307769550016072"><ele>70.0</ele><time>2026-04-18T08:55:14.001Z</time></trkpt><trkpt lat="45.198777942814445" lon="9.307794274196654"><ele>70.0</ele><time>2026-04-18T08:55:15.001Z</time></trkpt><trkpt lat="45.19867418114379" lon="9.307795580471371"><ele>70.0</ele><time>2026-04-18T08:55:16.001Z</time></trkpt><trkpt lat="45.1985626542518" lon="9.30782037282075"><ele>70.0</ele><time>2026-04-18T08:55:17.001Z</time></trkpt><trkpt lat="45.19845705645445" lon="9.307843845244092"><ele>70.0</ele><time>2026-04-18T08:55:18.001Z</time></trkpt><trkpt lat="45.198350204021295" lon="9.307867596581664"><ele>70.0</ele><time>2026-04-18T08:55:19.001Z</time></trkpt><trkpt lat="45.198244090041754" lon="9.307889421244965"><ele>70.0</ele><time>2026-04-18T08:55:20.001Z</time></trkpt><trkpt lat="45.19813249478786" lon="9.307928325242711"><ele>70.0</ele><time>2026-04-18T08:55:21.001Z</time></trkpt><trkpt lat="45.198015738847516" lon="9.307940841898251"><ele>70.0</ele><time>2026-04-18T08:55:22.001Z</time></trkpt><trkpt lat="45.19789952684936" lon="9.307965390413315"><ele>70.0</ele><time>2026-04-18T08:55:23.001Z</time></trkpt><trkpt lat="45.19778318974637" lon="9.30799009999834"><ele>70.0</ele><time>2026-04-18T08:55:24.001Z</time></trkpt><trkpt lat="45.19764984417741" lon="9.308025373523963"><ele>70.0</ele><time>2026-04-18T08:55:25.001Z</time></trkpt><trkpt lat="45.19750271157222" lon="9.308059403589546"><ele>70.0</ele><time>2026-04-18T08:55:26.001Z</time></trkpt><trkpt lat="45.197366913910344" lon="9.308091959773337"><ele>70.0</ele><time>2026-04-18T08:55:27.002Z</time></trkpt><trkpt lat="45.19725492441115" lon="9.30812117999722"><ele>70.0</ele><time>2026-04-18T08:55:28.002Z</time></trkpt><trkpt lat="45.197152471707284" lon="9.308137521954718"><ele>70.16666666666666</ele><time>2026-04-18T08:55:29.002Z</time></trkpt><trkpt lat="45.19706100435559" lon="9.308163530679183"><ele>70.33333333333333</ele><time>2026-04-18T08:55:30.002Z</time></trkpt><trkpt lat="45.19697793759204" lon="9.308182778482307"><ele>70.5</ele><time>2026-04-18T08:55:31.002Z</time></trkpt><trkpt lat="45.19690305204019" lon="9.308201241277583"><ele>70.66666666666667</ele><time>2026-04-18T08:55:32.002Z</time></trkpt><trkpt lat="45.19682896143987" lon="9.308219081077604"><ele>70.83333333333334</ele><time>2026-04-18T08:55:33.002Z</time></trkpt><trkpt lat="45.19676376292746" lon="9.308236032209201"><ele>71.0</ele><time>2026-04-18T08:55:34.002Z</time></trkpt><trkpt lat="45.19667150331478" lon="9.308231865539662"><ele>71.0</ele><time>2026-04-18T08:55:36.002Z</time></trkpt><trkpt lat="45.19659851192677" lon="9.308244835722283"><ele>71.0</ele><time>2026-04-18T08:55:39.002Z</time></trkpt><trkpt lat="45.19660230144957" lon="9.308436477081361"><ele>71.0</ele><time>2026-04-18T08:55:40.002Z</time></trkpt><trkpt lat="45.19661326366064" lon="9.308551292394478"><ele>71.0</ele><time>2026-04-18T08:55:41.002Z</time></trkpt><trkpt lat="45.19663550317213" lon="9.30870480054925"><ele>71.0</ele><time>2026-04-18T08:55:42.002Z</time></trkpt><trkpt lat="45.19665720950479" lon="9.308875235178757"><ele>71.0</ele><time>2026-04-18T08:55:43.002Z</time></trkpt><trkpt lat="45.19667467159175" lon="9.309044492058874"><ele>71.0</ele><time>2026-04-18T08:55:44.002Z</time></trkpt><trkpt lat="45.19669269394918" lon="9.309249135054133"><ele>71.0</ele><time>2026-04-18T08:55:45.002Z</time></trkpt><trkpt lat="45.196715222928006" lon="9.30946645385158"><ele>71.0</ele><time>2026-04-18T08:55:46.002Z</time></trkpt><trkpt lat="45.19673349180285" lon="9.30967244839762"><ele>70.66666666666667</ele><time>2026-04-18T08:55:47.002Z</time></trkpt><trkpt lat="45.19675400713158" lon="9.309881848644402"><ele>70.33333333333333</ele><time>2026-04-18T08:55:48.002Z</time></trkpt><trkpt lat="45.19677459781504" lon="9.310099924132505"><ele>70.0</ele><time>2026-04-18T08:55:49.002Z</time></trkpt><trkpt lat="45.19679732520883" lon="9.310332280328549"><ele>70.0</ele><time>2026-04-18T08:55:50.002Z</time></trkpt><trkpt lat="45.19682221245206" lon="9.310568071403686"><ele>70.0</ele><time>2026-04-18T08:55:51.002Z</time></trkpt><trkpt lat="45.19684596958698" lon="9.31080662284129"><ele>70.0</ele><time>2026-04-18T08:55:52.002Z</time></trkpt><trkpt lat="45.196868972161106" lon="9.311036801259034"><ele>69.66666666666666</ele><time>2026-04-18T08:55:53.002Z</time></trkpt><trkpt lat="45.196893550342196" lon="9.31127001159606"><ele>69.33333333333333</ele><time>2026-04-18T08:55:54.002Z</time></trkpt><trkpt lat="45.196917659788426" lon="9.311501781183757"><ele>69.0</ele><time>2026-04-18T08:55:55.002Z</time></trkpt><trkpt lat="45.19694140524299" lon="9.31173034358646"><ele>69.0</ele><time>2026-04-18T08:55:56.002Z</time></trkpt><trkpt lat="45.196962707315954" lon="9.311943894248689"><ele>69.0</ele><time>2026-04-18T08:55:57.002Z</time></trkpt><trkpt lat="45.1969786033476" lon="9.31213961254436"><ele>69.0</ele><time>2026-04-18T08:55:58.002Z</time></trkpt><trkpt lat="45.196983753021755" lon="9.31232700251199"><ele>69.0</ele><time>2026-04-18T08:55:59.002Z</time></trkpt><trkpt lat="45.19698039037168" lon="9.312507803686929"><ele>69.0</ele><time>2026-04-18T08:56:00.002Z</time></trkpt><trkpt lat="45.1969571179056" lon="9.312686846606091"><ele>69.0</ele><time>2026-04-18T08:56:01.002Z</time></trkpt><trkpt lat="45.19692227432206" lon="9.312865860437125"><ele>69.0</ele><time>2026-04-18T08:56:02.003Z</time></trkpt><trkpt lat="45.196876994750866" lon="9.31304687360953"><ele>69.0</ele><time>2026-04-18T08:56:03.003Z</time></trkpt><trkpt lat="45.19682509298202" lon="9.313232477286954"><ele>69.33333333333333</ele><time>2026-04-18T08:56:04.003Z</time></trkpt><trkpt lat="45.19677123744275" lon="9.313435064353378"><ele>69.66666666666666</ele><time>2026-04-18T08:56:05.003Z</time></trkpt><trkpt lat="45.19671314187937" lon="9.313641620598322"><ele>70.0</ele><time>2026-04-18T08:56:06.003Z</time></trkpt><trkpt lat="45.19665199268348" lon="9.313856640460326"><ele>69.66666666666666</ele><time>2026-04-18T08:56:07.003Z</time></trkpt><trkpt lat="45.196586349121006" lon="9.314081875951624"><ele>69.33333333333333</ele><time>2026-04-18T08:56:08.003Z</time></trkpt><trkpt lat="45.19652178056154" lon="9.314311355496995"><ele>69.0</ele><time>2026-04-18T08:56:09.003Z</time></trkpt><trkpt lat="45.196461539472" lon="9.314536412206053"><ele>68.25</ele><time>2026-04-18T08:56:10.003Z</time></trkpt><trkpt lat="45.19640814652906" lon="9.31474282408097"><ele>67.5</ele><time>2026-04-18T08:56:11.003Z</time></trkpt><trkpt lat="45.196359451368046" lon="9.314941782080565"><ele>66.75</ele><time>2026-04-18T08:56:12.003Z</time></trkpt><trkpt lat="45.19632424712091" lon="9.31512841153094"><ele>66.0</ele><time>2026-04-18T08:56:13.003Z</time></trkpt><trkpt lat="45.196312359729525" lon="9.315298502286424"><ele>66.0</ele><time>2026-04-18T08:56:14.003Z</time></trkpt><trkpt lat="45.196316249050604" lon="9.315460715718721"><ele>66.0</ele><time>2026-04-18T08:56:15.003Z</time></trkpt><trkpt lat="45.19634618063115" lon="9.315611869558252"><ele>66.0</ele><time>2026-04-18T08:56:16.003Z</time></trkpt><trkpt lat="45.19640178346316" lon="9.315776426093214"><ele>66.0</ele><time>2026-04-18T08:56:17.003Z</time></trkpt><trkpt lat="45.19647560143191" lon="9.315956198497215"><ele>65.75</ele><time>2026-04-18T08:56:18.003Z</time></trkpt><trkpt lat="45.196555075462356" lon="9.316128895343002"><ele>65.5</ele><time>2026-04-18T08:56:19.003Z</time></trkpt><trkpt lat="45.19660602270501" lon="9.316256481783437"><ele>65.25</ele><time>2026-04-18T08:56:20.003Z</time></trkpt><trkpt lat="45.19663972657514" lon="9.316403824816673"><ele>65.0</ele><time>2026-04-18T08:56:22.003Z</time></trkpt><trkpt lat="45.196626016458204" lon="9.316564466972347"><ele>65.0</ele><time>2026-04-18T08:56:24.003Z</time></trkpt><trkpt lat="45.196629165775036" lon="9.316674495839305"><ele>65.0</ele><time>2026-04-18T08:56:25.003Z</time></trkpt><trkpt lat="45.19663550435418" lon="9.316812231107964"><ele>65.0</ele><time>2026-04-18T08:56:26.003Z</time></trkpt><trkpt lat="45.19664388594829" lon="9.316980054904736"><ele>65.0</ele><time>2026-04-18T08:56:27.003Z</time></trkpt><trkpt lat="45.19665232708013" lon="9.317159403172711"><ele>65.0</ele><time>2026-04-18T08:56:27.999Z</time></trkpt><trkpt lat="45.196663157839765" lon="9.31734352163579"><ele>65.0</ele><time>2026-04-18T08:56:28.999Z</time></trkpt><trkpt lat="45.19667016517908" lon="9.317519902770597"><ele>65.0</ele><time>2026-04-18T08:56:29.999Z</time></trkpt><trkpt lat="45.19667281738188" lon="9.317681679810683"><ele>65.0</ele><time>2026-04-18T08:56:30.999Z</time></trkpt><trkpt lat="45.1966774241064" lon="9.317850776180334"><ele>65.0</ele><time>2026-04-18T08:56:31.999Z</time></trkpt><trkpt lat="45.196683742708174" lon="9.31802803405093"><ele>65.0</ele><time>2026-04-18T08:56:32.999Z</time></trkpt><trkpt lat="45.196687713148854" lon="9.318221658013499"><ele>65.0</ele><time>2026-04-18T08:56:33.999Z</time></trkpt><trkpt lat="45.19669001609194" lon="9.318418836150427"><ele>65.0</ele><time>2026-04-18T08:56:34.999Z</time></trkpt><trkpt lat="45.19669771864091" lon="9.318614081579122"><ele>65.0</ele><time>2026-04-18T08:56:35.999Z</time></trkpt><trkpt lat="45.196703894128994" lon="9.318808054834836"><ele>65.0</ele><time>2026-04-18T08:56:36.999Z</time></trkpt><trkpt lat="45.1967115163081" lon="9.318990085968647"><ele>65.0</ele><time>2026-04-18T08:56:37.999Z</time></trkpt><trkpt lat="45.196719305131104" lon="9.31918288762896"><ele>65.0</ele><time>2026-04-18T08:56:38.999Z</time></trkpt><trkpt lat="45.19672217021777" lon="9.319368194586657"><ele>65.0</ele><time>2026-04-18T08:56:39.999Z</time></trkpt><trkpt lat="45.19672830630416" lon="9.31954891265932"><ele>65.0</ele><time>2026-04-18T08:56:40.999Z</time></trkpt><trkpt lat="45.19673596468303" lon="9.319729926554944"><ele>65.0</ele><time>2026-04-18T08:56:41.999Z</time></trkpt><trkpt lat="45.19674691417055" lon="9.319901049882167"><ele>65.0</ele><time>2026-04-18T08:56:42.999Z</time></trkpt><trkpt lat="45.19675618721327" lon="9.320071451663813"><ele>65.0</ele><time>2026-04-18T08:56:43.999Z</time></trkpt><trkpt lat="45.19676349894882" lon="9.320235313572034"><ele>65.0</ele><time>2026-04-18T08:56:45Z</time></trkpt><trkpt lat="45.19677403360091" lon="9.320394277550953"><ele>65.0</ele><time>2026-04-18T08:56:46Z</time></trkpt><trkpt lat="45.19677979900662" lon="9.320522223619122"><ele>65.0</ele><time>2026-04-18T08:56:47Z</time></trkpt><trkpt lat="45.196783968122155" lon="9.320658625359236"><ele>65.0</ele><time>2026-04-18T08:56:48Z</time></trkpt><trkpt lat="45.19677562230338" lon="9.320815572068788"><ele>65.0</ele><time>2026-04-18T08:56:49Z</time></trkpt><trkpt lat="45.19679528959673" lon="9.320976672974048"><ele>65.4</ele><time>2026-04-18T08:56:50Z</time></trkpt><trkpt lat="45.196799944845125" lon="9.321144506457543"><ele>65.8</ele><time>2026-04-18T08:56:51Z</time></trkpt><trkpt lat="45.196806847211576" lon="9.321302822172596"><ele>66.2</ele><time>2026-04-18T08:56:52Z</time></trkpt><trkpt lat="45.19680260606931" lon="9.321453846661205"><ele>66.6</ele><time>2026-04-18T08:56:53Z</time></trkpt><trkpt lat="45.196808402298046" lon="9.32159093983076"><ele>67.0</ele><time>2026-04-18T08:56:54Z</time></trkpt><trkpt lat="45.19680963372716" lon="9.32171927839843"><ele>67.6</ele><time>2026-04-18T08:56:55Z</time></trkpt><trkpt lat="45.19679622551608" lon="9.321855808032856"><ele>68.2</ele><time>2026-04-18T08:56:56Z</time></trkpt><trkpt lat="45.19677637519355" lon="9.321995360394329"><ele>68.8</ele><time>2026-04-18T08:56:57Z</time></trkpt><trkpt lat="45.19674868211404" lon="9.322138921460084"><ele>69.4</ele><time>2026-04-18T08:56:58Z</time></trkpt><trkpt lat="45.196717568628095" lon="9.322292564520408"><ele>70.0</ele><time>2026-04-18T08:56:59Z</time></trkpt><trkpt lat="45.19668799707236" lon="9.322448320535791"><ele>70.4</ele><time>2026-04-18T08:57:00Z</time></trkpt><trkpt lat="45.19665901857793" lon="9.322604316154111"><ele>70.8</ele><time>2026-04-18T08:57:01Z</time></trkpt><trkpt lat="45.19661802007113" lon="9.322750350287855"><ele>71.2</ele><time>2026-04-18T08:57:02Z</time></trkpt><trkpt lat="45.196572994088875" lon="9.32289120139868"><ele>71.6</ele><time>2026-04-18T08:57:03Z</time></trkpt><trkpt lat="45.19653126262546" lon="9.323033009657221"><ele>72.0</ele><time>2026-04-18T08:57:04Z</time></trkpt><trkpt lat="45.19648348607" lon="9.323153044858467"><ele>72.0</ele><time>2026-04-18T08:57:05Z</time></trkpt><trkpt lat="45.19644797087796" lon="9.323274547969392"><ele>72.0</ele><time>2026-04-18T08:57:06Z</time></trkpt><trkpt lat="45.19641922941819" lon="9.323386766088055"><ele>72.0</ele><time>2026-04-18T08:57:07Z</time></trkpt><trkpt lat="45.19640224201292" lon="9.323507099866712"><ele>72.0</ele><time>2026-04-18T08:57:08Z</time></trkpt><trkpt lat="45.196407828855776" lon="9.323622356100216"><ele>72.0</ele><time>2026-04-18T08:57:09Z</time></trkpt><trkpt lat="45.19642836480339" lon="9.323730267001835"><ele>72.0</ele><time>2026-04-18T08:57:10Z</time></trkpt><trkpt lat="45.19645597494009" lon="9.323837394221517"><ele>72.0</ele><time>2026-04-18T08:57:11Z</time></trkpt><trkpt lat="45.19648325750505" lon="9.3239382235585"><ele>72.0</ele><time>2026-04-18T08:57:12.001Z</time></trkpt><trkpt lat="45.196504658627916" lon="9.324044148268685"><ele>72.0</ele><time>2026-04-18T08:57:13.001Z</time></trkpt><trkpt lat="45.19651197315548" lon="9.32416252118308"><ele>72.0</ele><time>2026-04-18T08:57:14.001Z</time></trkpt><trkpt lat="45.19651354651036" lon="9.32428246928238"><ele>72.0</ele><time>2026-04-18T08:57:15.001Z</time></trkpt><trkpt lat="45.19650715614632" lon="9.324407288951642"><ele>72.0</ele><time>2026-04-18T08:57:16.001Z</time></trkpt><trkpt lat="45.1964909101606" lon="9.324535574355648"><ele>72.0</ele><time>2026-04-18T08:57:17.001Z</time></trkpt><trkpt lat="45.19647542523583" lon="9.324662258303665"><ele>72.0</ele><time>2026-04-18T08:57:18.001Z</time></trkpt><trkpt lat="45.196454118575964" lon="9.324792591820591"><ele>72.0</ele><time>2026-04-18T08:57:19.001Z</time></trkpt><trkpt lat="45.19643228018983" lon="9.324918973088606"><ele>72.0</ele><time>2026-04-18T08:57:20.001Z</time></trkpt><trkpt lat="45.196408338246044" lon="9.325051431703091"><ele>72.0</ele><time>2026-04-18T08:57:21.001Z</time></trkpt><trkpt lat="45.196384890213736" lon="9.325181131210718"><ele>72.0</ele><time>2026-04-18T08:57:22.001Z</time></trkpt><trkpt lat="45.19635459258859" lon="9.325309381413785"><ele>72.0</ele><time>2026-04-18T08:57:23.001Z</time></trkpt><trkpt lat="45.196320107269436" lon="9.325438053394256"><ele>72.0</ele><time>2026-04-18T08:57:24.001Z</time></trkpt><trkpt lat="45.19628907933132" lon="9.32556662472199"><ele>72.0</ele><time>2026-04-18T08:57:25.001Z</time></trkpt><trkpt lat="45.19626306757611" lon="9.325697293150926"><ele>72.0</ele><time>2026-04-18T08:57:26.001Z</time></trkpt><trkpt lat="45.196239574570484" lon="9.325829226933681"><ele>72.0</ele><time>2026-04-18T08:57:27.001Z</time></trkpt><trkpt lat="45.19622297541362" lon="9.325946147565729"><ele>72.0</ele><time>2026-04-18T08:57:28.001Z</time></trkpt><trkpt lat="45.19620839755071" lon="9.326056741359235"><ele>72.0</ele><time>2026-04-18T08:57:29.001Z</time></trkpt><trkpt lat="45.19619808331241" lon="9.326170838402863"><ele>72.0</ele><time>2026-04-18T08:57:30.001Z</time></trkpt><trkpt lat="45.19618357157004" lon="9.326278469368475"><ele>72.0</ele><time>2026-04-18T08:57:31.001Z</time></trkpt><trkpt lat="45.19617848401311" lon="9.326377627021571"><ele>72.0</ele><time>2026-04-18T08:57:32.001Z</time></trkpt><trkpt lat="45.19617263909342" lon="9.326476191148917"><ele>72.0</ele><time>2026-04-18T08:57:33.001Z</time></trkpt><trkpt lat="45.19617209400136" lon="9.326584163025199"><ele>72.0</ele><time>2026-04-18T08:57:34.001Z</time></trkpt><trkpt lat="45.196172773597844" lon="9.326699870440823"><ele>72.0</ele><time>2026-04-18T08:57:35.001Z</time></trkpt><trkpt lat="45.19617823498087" lon="9.326823278489716"><ele>72.0</ele><time>2026-04-18T08:57:36.001Z</time></trkpt><trkpt lat="45.19618715741049" lon="9.326955274028052"><ele>72.0</ele><time>2026-04-18T08:57:37.001Z</time></trkpt><trkpt lat="45.19619867271348" lon="9.32708453835684"><ele>72.0</ele><time>2026-04-18T08:57:38.001Z</time></trkpt><trkpt lat="45.19621292013495" lon="9.327203650949217"><ele>72.0</ele><time>2026-04-18T08:57:39.001Z</time></trkpt><trkpt lat="45.19623214711196" lon="9.327311937966359"><ele>72.0</ele><time>2026-04-18T08:57:40.001Z</time></trkpt><trkpt lat="45.19624955887863" lon="9.327402034511973"><ele>72.0</ele><time>2026-04-18T08:57:41.001Z</time></trkpt><trkpt lat="45.19624715366252" lon="9.32751555616951"><ele>72.0</ele><time>2026-04-18T08:57:43.001Z</time></trkpt><trkpt lat="45.19607082799635" lon="9.32758447866642"><ele>72.0</ele><time>2026-04-18T08:57:47.002Z</time></trkpt><trkpt lat="45.19619332934703" lon="9.327848584258655"><ele>72.0</ele><time>2026-04-18T08:57:48.002Z</time></trkpt><trkpt lat="45.196158136907314" lon="9.327929973949598"><ele>72.0</ele><time>2026-04-18T08:57:50.002Z</time></trkpt><trkpt lat="45.196132799254634" lon="9.328092316257074"><ele>72.0</ele><time>2026-04-18T08:57:52.002Z</time></trkpt><trkpt lat="45.19612695466412" lon="9.328183104544859"><ele>72.0</ele><time>2026-04-18T08:57:53.002Z</time></trkpt><trkpt lat="45.19612339298318" lon="9.328274935734175"><ele>72.0</ele><time>2026-04-18T08:57:54.002Z</time></trkpt><trkpt lat="45.19612010380896" lon="9.328382309893673"><ele>72.0</ele><time>2026-04-18T08:57:55.002Z</time></trkpt><trkpt lat="45.1961170970307" lon="9.328480465294176"><ele>72.0</ele><time>2026-04-18T08:57:56.002Z</time></trkpt><trkpt lat="45.19611431594763" lon="9.328604155701614"><ele>72.0</ele><time>2026-04-18T08:57:57.002Z</time></trkpt><trkpt lat="45.19611180617381" lon="9.328728473176039"><ele>72.0</ele><time>2026-04-18T08:57:58.002Z</time></trkpt><trkpt lat="45.196109688992486" lon="9.328833344235736"><ele>72.0</ele><time>2026-04-18T08:57:59.002Z</time></trkpt><trkpt lat="45.196106887812356" lon="9.328957515979758"><ele>72.0</ele><time>2026-04-18T08:58:00.002Z</time></trkpt><trkpt lat="45.196102470782215" lon="9.329141942477847"><ele>72.16666666666667</ele><time>2026-04-18T08:58:02.002Z</time></trkpt><trkpt lat="45.19610010516739" lon="9.329240715220253"><ele>72.33333333333333</ele><time>2026-04-18T08:58:03.002Z</time></trkpt><trkpt lat="45.1960976732927" lon="9.329342254612902"><ele>72.5</ele><time>2026-04-18T08:58:04.002Z</time></trkpt><trkpt lat="45.19609406389396" lon="9.32950750337643"><ele>72.66666666666666</ele><time>2026-04-18T08:58:06.002Z</time></trkpt><trkpt lat="45.19609269482736" lon="9.329604844704193"><ele>72.83333333333333</ele><time>2026-04-18T08:58:07.002Z</time></trkpt><trkpt lat="45.19609116269216" lon="9.32971378087996"><ele>73.0</ele><time>2026-04-18T08:58:08.002Z</time></trkpt><trkpt lat="45.19608984381755" lon="9.329807554004232"><ele>72.66666666666666</ele><time>2026-04-18T08:58:09.002Z</time></trkpt><trkpt lat="45.19608843004509" lon="9.329908074291517"><ele>72.33333333333333</ele><time>2026-04-18T08:58:10.002Z</time></trkpt><trkpt lat="45.196009516271694" lon="9.330017250426163"><ele>72.0</ele><time>2026-04-18T08:58:11.002Z</time></trkpt><trkpt lat="45.196008009878234" lon="9.3301237191733"><ele>71.66666666666667</ele><time>2026-04-18T08:58:12.002Z</time></trkpt><trkpt lat="45.19600639753591" lon="9.330217736185825"><ele>71.33333333333334</ele><time>2026-04-18T08:58:13.002Z</time></trkpt><trkpt lat="45.19600745022449" lon="9.330324661200883"><ele>71.0</ele><time>2026-04-18T08:58:14.002Z</time></trkpt><trkpt lat="45.196015075150356" lon="9.330433121657988"><ele>71.0</ele><time>2026-04-18T08:58:15.002Z</time></trkpt><trkpt lat="45.19602621925676" lon="9.330535278812846"><ele>71.0</ele><time>2026-04-18T08:58:16.002Z</time></trkpt><trkpt lat="45.196039085321594" lon="9.330636774979688"><ele>71.0</ele><time>2026-04-18T08:58:17.003Z</time></trkpt><trkpt lat="45.19605591952464" lon="9.330826990952337"><ele>71.0</ele><time>2026-04-18T08:58:19.003Z</time></trkpt><trkpt lat="45.19606336291375" lon="9.330923559567507"><ele>71.0</ele><time>2026-04-18T08:58:20.003Z</time></trkpt><trkpt lat="45.19607236958109" lon="9.331031485960539"><ele>71.0</ele><time>2026-04-18T08:58:21.003Z</time></trkpt><trkpt lat="45.19608202107658" lon="9.331137180454041"><ele>71.0</ele><time>2026-04-18T08:58:22.003Z</time></trkpt><trkpt lat="45.196088317773814" lon="9.331243899330186"><ele>71.0</ele><time>2026-04-18T08:58:23.003Z</time></trkpt><trkpt lat="45.19609521834807" lon="9.331351244135842"><ele>71.0</ele><time>2026-04-18T08:58:24.003Z</time></trkpt><trkpt lat="45.19610226289063" lon="9.331457523931448"><ele>71.0</ele><time>2026-04-18T08:58:25.003Z</time></trkpt><trkpt lat="45.19610390543488" lon="9.331576896477381"><ele>71.0</ele><time>2026-04-18T08:58:26.003Z</time></trkpt><trkpt lat="45.196101239533576" lon="9.331679824187864"><ele>71.0</ele><time>2026-04-18T08:58:27.003Z</time></trkpt><trkpt lat="45.196091700198295" lon="9.331786497483387"><ele>71.0</ele><time>2026-04-18T08:58:28.003Z</time></trkpt><trkpt lat="45.196079531590016" lon="9.33188123843445"><ele>71.0</ele><time>2026-04-18T08:58:29.003Z</time></trkpt><trkpt lat="45.19604239598626" lon="9.332051732803203"><ele>71.0</ele><time>2026-04-18T08:58:31.003Z</time></trkpt><trkpt lat="45.196021490903966" lon="9.332141774031378"><ele>71.0</ele><time>2026-04-18T08:58:32.003Z</time></trkpt><trkpt lat="45.19598424678709" lon="9.33226593822553"><ele>71.0</ele><time>2026-04-18T08:58:34Z</time></trkpt><trkpt lat="45.19597914554189" lon="9.33235759285404"><ele>71.0</ele><time>2026-04-18T08:58:39Z</time></trkpt><trkpt lat="45.19604232012128" lon="9.332424327196598"><ele>71.0</ele><time>2026-04-18T08:58:47Z</time></trkpt><trkpt lat="45.19602908060504" lon="9.332574541422733"><ele>71.0</ele><time>2026-04-18T08:58:50Z</time></trkpt><trkpt lat="45.19598214126105" lon="9.332678824985779"><ele>71.0</ele><time>2026-04-18T08:58:51Z</time></trkpt><trkpt lat="45.19595219343296" lon="9.332798946080223"><ele>71.0</ele><time>2026-04-18T08:58:52Z</time></trkpt><trkpt lat="45.195913096001746" lon="9.332955142432207"><ele>71.0</ele><time>2026-04-18T08:58:53Z</time></trkpt><trkpt lat="45.19587078897357" lon="9.333127361175103"><ele>71.0</ele><time>2026-04-18T08:58:54Z</time></trkpt><trkpt lat="45.195834085081444" lon="9.33327541820906"><ele>71.0</ele><time>2026-04-18T08:58:55Z</time></trkpt><trkpt lat="45.19579771091607" lon="9.333416437791122"><ele>71.0</ele><time>2026-04-18T08:58:56Z</time></trkpt><trkpt lat="45.19576347647754" lon="9.333539576714927"><ele>71.0</ele><time>2026-04-18T08:58:57Z</time></trkpt><trkpt lat="45.195730459482085" lon="9.333656352321356"><ele>71.0</ele><time>2026-04-18T08:58:58Z</time></trkpt><trkpt lat="45.195684154355185" lon="9.333779168998985"><ele>71.0</ele><time>2026-04-18T08:58:59Z</time></trkpt><trkpt lat="45.19562640327714" lon="9.333907319515191"><ele>71.0</ele><time>2026-04-18T08:59:00Z</time></trkpt><trkpt lat="45.195558450482736" lon="9.334038037953048"><ele>71.0</ele><time>2026-04-18T08:59:01Z</time></trkpt><trkpt lat="45.19548754935774" lon="9.334175131763004"><ele>71.0</ele><time>2026-04-18T08:59:02Z</time></trkpt><trkpt lat="45.195412863400755" lon="9.334317552459456"><ele>71.0</ele><time>2026-04-18T08:59:03Z</time></trkpt><trkpt lat="45.19533793544413" lon="9.334461962712192"><ele>71.0</ele><time>2026-04-18T08:59:04Z</time></trkpt><trkpt lat="45.19527454828582" lon="9.334592336707674"><ele>71.0</ele><time>2026-04-18T08:59:05.001Z</time></trkpt><trkpt lat="45.195206887847256" lon="9.334724155373735"><ele>71.0</ele><time>2026-04-18T08:59:06.001Z</time></trkpt><trkpt lat="45.195123158163476" lon="9.334874808910353"><ele>71.0</ele><time>2026-04-18T08:59:07.001Z</time></trkpt><trkpt lat="45.19504808156587" lon="9.335023227830376"><ele>71.0</ele><time>2026-04-18T08:59:08.001Z</time></trkpt><trkpt lat="45.19497837532322" lon="9.335175208526211"><ele>71.0</ele><time>2026-04-18T08:59:09.001Z</time></trkpt><trkpt lat="45.19491279152015" lon="9.335327263472548"><ele>71.0</ele><time>2026-04-18T08:59:10.001Z</time></trkpt><trkpt lat="45.19485154379726" lon="9.335479865902636"><ele>71.0</ele><time>2026-04-18T08:59:11.001Z</time></trkpt><trkpt lat="45.19479798400807" lon="9.335628630028982"><ele>71.0</ele><time>2026-04-18T08:59:12.001Z</time></trkpt><trkpt lat="45.19475446850832" lon="9.335789339840444"><ele>71.0</ele><time>2026-04-18T08:59:13.001Z</time></trkpt><trkpt lat="45.19472083429072" lon="9.335953490578353"><ele>71.0</ele><time>2026-04-18T08:59:14.001Z</time></trkpt><trkpt lat="45.19469273334496" lon="9.336117540387495"><ele>71.0</ele><time>2026-04-18T08:59:15.001Z</time></trkpt><trkpt lat="45.1946657514698" lon="9.336284592025772"><ele>71.0</ele><time>2026-04-18T08:59:16.001Z</time></trkpt><trkpt lat="45.19463961631882" lon="9.336449463230007"><ele>71.0</ele><time>2026-04-18T08:59:17.001Z</time></trkpt><trkpt lat="45.19461667776775" lon="9.336614895673312"><ele>71.0</ele><time>2026-04-18T08:59:18.001Z</time></trkpt><trkpt lat="45.194595999070515" lon="9.33678103173035"><ele>71.0</ele><time>2026-04-18T08:59:19.001Z</time></trkpt><trkpt lat="45.194571388074536" lon="9.3369520529713"><ele>71.0</ele><time>2026-04-18T08:59:20.001Z</time></trkpt><trkpt lat="45.19454446962154" lon="9.337138098708111"><ele>71.0</ele><time>2026-04-18T08:59:21.001Z</time></trkpt><trkpt lat="45.194519017365" lon="9.337338127282312"><ele>71.0</ele><time>2026-04-18T08:59:22.001Z</time></trkpt><trkpt lat="45.19449300521143" lon="9.337539846742908"><ele>71.0</ele><time>2026-04-18T08:59:23.001Z</time></trkpt><trkpt lat="45.19446906120587" lon="9.337748627624814"><ele>71.0</ele><time>2026-04-18T08:59:24.001Z</time></trkpt><trkpt lat="45.19444304480505" lon="9.337952621829574"><ele>71.0</ele><time>2026-04-18T08:59:25.001Z</time></trkpt><trkpt lat="45.194412446407334" lon="9.338164478995234"><ele>71.0</ele><time>2026-04-18T08:59:26.001Z</time></trkpt><trkpt lat="45.19438343585198" lon="9.338372658209646"><ele>70.75</ele><time>2026-04-18T08:59:27.001Z</time></trkpt><trkpt lat="45.194351705144285" lon="9.338568892801293"><ele>70.5</ele><time>2026-04-18T08:59:28.001Z</time></trkpt><trkpt lat="45.19431585347512" lon="9.338747251389302"><ele>70.25</ele><time>2026-04-18T08:59:29.001Z</time></trkpt><trkpt lat="45.194280154913415" lon="9.338928167703846"><ele>70.0</ele><time>2026-04-18T08:59:30.001Z</time></trkpt><trkpt lat="45.19425449311343" lon="9.33910441179561"><ele>70.0</ele><time>2026-04-18T08:59:31.001Z</time></trkpt><trkpt lat="45.19422806305383" lon="9.339281502644143"><ele>70.0</ele><time>2026-04-18T08:59:32.001Z</time></trkpt><trkpt lat="45.194198788147155" lon="9.339432191966393"><ele>70.0</ele><time>2026-04-18T08:59:33.001Z</time></trkpt><trkpt lat="45.19417030865209" lon="9.339579313776952"><ele>70.0</ele><time>2026-04-18T08:59:34.001Z</time></trkpt><trkpt lat="45.19413712174572" lon="9.339737435507125"><ele>70.0</ele><time>2026-04-18T08:59:35.001Z</time></trkpt><trkpt lat="45.19410083282105" lon="9.339898654593213"><ele>70.0</ele><time>2026-04-18T08:59:36.002Z</time></trkpt><trkpt lat="45.19406019911376" lon="9.34006794044572"><ele>70.0</ele><time>2026-04-18T08:59:37.002Z</time></trkpt><trkpt lat="45.19401816495699" lon="9.340242339682137"><ele>70.0</ele><time>2026-04-18T08:59:38.002Z</time></trkpt><trkpt lat="45.193975085774426" lon="9.340416761375822"><ele>70.25</ele><time>2026-04-18T08:59:39.002Z</time></trkpt><trkpt lat="45.19393292528181" lon="9.340594881904956"><ele>70.5</ele><time>2026-04-18T08:59:40.002Z</time></trkpt><trkpt lat="45.19388950599869" lon="9.34077469345707"><ele>70.75</ele><time>2026-04-18T08:59:41.002Z</time></trkpt><trkpt lat="45.193846222768336" lon="9.34095396861198"><ele>71.0</ele><time>2026-04-18T08:59:42.002Z</time></trkpt><trkpt lat="45.19380219623638" lon="9.341138085477498"><ele>71.0</ele><time>2026-04-18T08:59:43.002Z</time></trkpt><trkpt lat="45.19375964162204" lon="9.341322806354942"><ele>71.0</ele><time>2026-04-18T08:59:44.002Z</time></trkpt><trkpt lat="45.19371799880494" lon="9.341501542701007"><ele>71.0</ele><time>2026-04-18T08:59:45.002Z</time></trkpt><trkpt lat="45.19367502466784" lon="9.34168341258297"><ele>71.0</ele><time>2026-04-18T08:59:46.002Z</time></trkpt><trkpt lat="45.193632147946666" lon="9.341856023728237"><ele>70.75</ele><time>2026-04-18T08:59:47.002Z</time></trkpt><trkpt lat="45.19359015206415" lon="9.342036855848525"><ele>70.5</ele><time>2026-04-18T08:59:48.002Z</time></trkpt><trkpt lat="45.193551571368566" lon="9.34220916284032"><ele>70.25</ele><time>2026-04-18T08:59:49.002Z</time></trkpt><trkpt lat="45.193512781976594" lon="9.342383360812082"><ele>70.0</ele><time>2026-04-18T08:59:50.002Z</time></trkpt><trkpt lat="45.19347489106204" lon="9.342559577583863"><ele>70.0</ele><time>2026-04-18T08:59:51.002Z</time></trkpt><trkpt lat="45.19343521964251" lon="9.342736851402275"><ele>70.0</ele><time>2026-04-18T08:59:52.002Z</time></trkpt><trkpt lat="45.19339180565799" lon="9.342902158448442"><ele>70.0</ele><time>2026-04-18T08:59:53.002Z</time></trkpt><trkpt lat="45.193354780956305" lon="9.343050598468706"><ele>70.0</ele><time>2026-04-18T08:59:54.002Z</time></trkpt><trkpt lat="45.19332121465052" lon="9.343187364216776"><ele>70.0</ele><time>2026-04-18T08:59:55.002Z</time></trkpt><trkpt lat="45.193294534200035" lon="9.34330830204796"><ele>70.0</ele><time>2026-04-18T08:59:56.002Z</time></trkpt><trkpt lat="45.19326880331768" lon="9.343423263890386"><ele>70.0</ele><time>2026-04-18T08:59:57.002Z</time></trkpt><trkpt lat="45.19324406775115" lon="9.343550695664268"><ele>70.0</ele><time>2026-04-18T08:59:58.002Z</time></trkpt><trkpt lat="45.193215879096336" lon="9.343669127642372"><ele>70.0</ele><time>2026-04-18T08:59:59.002Z</time></trkpt><trkpt lat="45.1931765356423" lon="9.343795631842037"><ele>70.0</ele><time>2026-04-18T09:00:00.002Z</time></trkpt><trkpt lat="45.19312944992407" lon="9.343923329795196"><ele>70.0</ele><time>2026-04-18T09:00:01.002Z</time></trkpt><trkpt lat="45.19307843867676" lon="9.344067037533426"><ele>70.0</ele><time>2026-04-18T09:00:02.002Z</time></trkpt><trkpt lat="45.193023360989805" lon="9.344212257121852"><ele>70.0</ele><time>2026-04-18T09:00:03.002Z</time></trkpt><trkpt lat="45.19296473029644" lon="9.344359901945076"><ele>70.0</ele><time>2026-04-18T09:00:04.002Z</time></trkpt><trkpt lat="45.19290239232491" lon="9.344518908805652"><ele>70.0</ele><time>2026-04-18T09:00:05.002Z</time></trkpt><trkpt lat="45.192836624281135" lon="9.344683444445515"><ele>70.0</ele><time>2026-04-18T09:00:06.002Z</time></trkpt><trkpt lat="45.192772610375535" lon="9.344848345389345"><ele>70.0</ele><time>2026-04-18T09:00:07.002Z</time></trkpt><trkpt lat="45.192712307953656" lon="9.345013718393771"><ele>70.0</ele><time>2026-04-18T09:00:08.002Z</time></trkpt><trkpt lat="45.19265046315439" lon="9.345176440214791"><ele>70.0</ele><time>2026-04-18T09:00:09.003Z</time></trkpt><trkpt lat="45.19258982259357" lon="9.345338787956454"><ele>70.0</ele><time>2026-04-18T09:00:10.003Z</time></trkpt><trkpt lat="45.19253366002756" lon="9.34548775103515"><ele>70.0</ele><time>2026-04-18T09:00:11.003Z</time></trkpt><trkpt lat="45.19247979895454" lon="9.345636829926034"><ele>70.0</ele><time>2026-04-18T09:00:12.003Z</time></trkpt><trkpt lat="45.1924274761771" lon="9.3457835708925"><ele>70.0</ele><time>2026-04-18T09:00:13.003Z</time></trkpt><trkpt lat="45.19237871472917" lon="9.345909877549147"><ele>70.0</ele><time>2026-04-18T09:00:14.003Z</time></trkpt><trkpt lat="45.192335509690906" lon="9.346024399699944"><ele>70.0</ele><time>2026-04-18T09:00:15.003Z</time></trkpt><trkpt lat="45.19229514463643" lon="9.34613079747626"><ele>70.0</ele><time>2026-04-18T09:00:16.003Z</time></trkpt><trkpt lat="45.19225005849344" lon="9.346236036456135"><ele>70.0</ele><time>2026-04-18T09:00:17.003Z</time></trkpt><trkpt lat="45.19220957705851" lon="9.346331436741327"><ele>70.0</ele><time>2026-04-18T09:00:18.003Z</time></trkpt><trkpt lat="45.192154839709666" lon="9.346454152636884"><ele>70.0</ele><time>2026-04-18T09:00:19.003Z</time></trkpt><trkpt lat="45.192104822796345" lon="9.346571839742563"><ele>70.0</ele><time>2026-04-18T09:00:20.003Z</time></trkpt><trkpt lat="45.19204813149546" lon="9.346698287663171"><ele>70.0</ele><time>2026-04-18T09:00:21.003Z</time></trkpt><trkpt lat="45.19198934203439" lon="9.346827542185759"><ele>70.0</ele><time>2026-04-18T09:00:22.003Z</time></trkpt><trkpt lat="45.19193484351449" lon="9.346955109201286"><ele>70.0</ele><time>2026-04-18T09:00:23.003Z</time></trkpt><trkpt lat="45.1918830929856" lon="9.347079038774751"><ele>70.0</ele><time>2026-04-18T09:00:24.003Z</time></trkpt><trkpt lat="45.19183456478585" lon="9.347201495516565"><ele>70.0</ele><time>2026-04-18T09:00:25.003Z</time></trkpt><trkpt lat="45.19179417343846" lon="9.347306212720728"><ele>70.0</ele><time>2026-04-18T09:00:26.003Z</time></trkpt><trkpt lat="45.191758072969805" lon="9.347406295100836"><ele>70.0</ele><time>2026-04-18T09:00:27.003Z</time></trkpt><trkpt lat="45.19172561250575" lon="9.347501641920129"><ele>70.0</ele><time>2026-04-18T09:00:28.003Z</time></trkpt><trkpt lat="45.19169664098184" lon="9.347609955479479"><ele>70.0</ele><time>2026-04-18T09:00:29.003Z</time></trkpt><trkpt lat="45.1916792890456" lon="9.347713809881723"><ele>70.0</ele><time>2026-04-18T09:00:30.003Z</time></trkpt><trkpt lat="45.19167043259992" lon="9.347808696977863"><ele>70.0</ele><time>2026-04-18T09:00:31.003Z</time></trkpt><trkpt lat="45.19167049991922" lon="9.347898713923406"><ele>70.0</ele><time>2026-04-18T09:00:32.003Z</time></trkpt><trkpt lat="45.1917039999263" lon="9.348076505731528"><ele>70.0</ele><time>2026-04-18T09:00:34.003Z</time></trkpt><trkpt lat="45.191733613596305" lon="9.348194536794738"><ele>70.0</ele><time>2026-04-18T09:00:35.003Z</time></trkpt><trkpt lat="45.19175913636253" lon="9.34834122744671"><ele>70.0</ele><time>2026-04-18T09:00:36.003Z</time></trkpt><trkpt lat="45.19178504184628" lon="9.348502912671389"><ele>70.0</ele><time>2026-04-18T09:00:37.003Z</time></trkpt><trkpt lat="45.19181146977961" lon="9.348669772760195"><ele>70.0</ele><time>2026-04-18T09:00:38.003Z</time></trkpt><trkpt lat="45.19183906403065" lon="9.348837158107536"><ele>69.8</ele><time>2026-04-18T09:00:39.003Z</time></trkpt><trkpt lat="45.19186539516401" lon="9.348993033575395"><ele>69.6</ele><time>2026-04-18T09:00:40.001Z</time></trkpt><trkpt lat="45.19188797473119" lon="9.349131830377516"><ele>69.4</ele><time>2026-04-18T09:00:41Z</time></trkpt><trkpt lat="45.191904548051156" lon="9.349255553727291"><ele>69.2</ele><time>2026-04-18T09:00:42Z</time></trkpt><trkpt lat="45.19190667366639" lon="9.349366166180276"><ele>69.0</ele><time>2026-04-18T09:00:43Z</time></trkpt><trkpt lat="45.19189115807838" lon="9.349481462414987"><ele>69.0</ele><time>2026-04-18T09:00:44Z</time></trkpt><trkpt lat="45.19185249854605" lon="9.349603370229493"><ele>69.0</ele><time>2026-04-18T09:00:45Z</time></trkpt><trkpt lat="45.19179607822582" lon="9.349725450590476"><ele>69.0</ele><time>2026-04-18T09:00:46Z</time></trkpt><trkpt lat="45.19173065794068" lon="9.349858903732528"><ele>69.0</ele><time>2026-04-18T09:00:47Z</time></trkpt><trkpt lat="45.19168348746284" lon="9.34998979020483"><ele>69.0</ele><time>2026-04-18T09:00:48Z</time></trkpt><trkpt lat="45.19164735959717" lon="9.350104501671934"><ele>69.2</ele><time>2026-04-18T09:00:49Z</time></trkpt><trkpt lat="45.191611974938716" lon="9.3502044072632"><ele>69.4</ele><time>2026-04-18T09:00:50Z</time></trkpt><trkpt lat="45.191571427989516" lon="9.350317908514581"><ele>69.6</ele><time>2026-04-18T09:00:51Z</time></trkpt><trkpt lat="45.191534081809586" lon="9.350439391583382"><ele>69.8</ele><time>2026-04-18T09:00:52Z</time></trkpt><trkpt lat="45.191492646462706" lon="9.350568422685953"><ele>70.0</ele><time>2026-04-18T09:00:53Z</time></trkpt><trkpt lat="45.191451379530875" lon="9.350696921687659"><ele>70.0</ele><time>2026-04-18T09:00:54Z</time></trkpt><trkpt lat="45.191403334729756" lon="9.350838953690197"><ele>70.0</ele><time>2026-04-18T09:00:55Z</time></trkpt><trkpt lat="45.19135374524711" lon="9.35098398844383"><ele>70.0</ele><time>2026-04-18T09:00:56Z</time></trkpt><trkpt lat="45.19130233035188" lon="9.351136110045994"><ele>70.0</ele><time>2026-04-18T09:00:57Z</time></trkpt><trkpt lat="45.19125620028231" lon="9.351292897476858"><ele>69.8</ele><time>2026-04-18T09:00:58Z</time></trkpt><trkpt lat="45.19121658096989" lon="9.3514504639635"><ele>69.6</ele><time>2026-04-18T09:00:59Z</time></trkpt><trkpt lat="45.19117898568947" lon="9.351606310282033"><ele>69.4</ele><time>2026-04-18T09:01:00Z</time></trkpt><trkpt lat="45.191147983686086" lon="9.35174330091131"><ele>69.2</ele><time>2026-04-18T09:01:01Z</time></trkpt><trkpt lat="45.191113692747024" lon="9.351879206410088"><ele>69.0</ele><time>2026-04-18T09:01:02Z</time></trkpt><trkpt lat="45.191068372170484" lon="9.352018481248045"><ele>69.0</ele><time>2026-04-18T09:01:03Z</time></trkpt><trkpt lat="45.19100654001497" lon="9.352139054466218"><ele>69.0</ele><time>2026-04-18T09:01:04Z</time></trkpt><trkpt lat="45.19093328298002" lon="9.352250652277828"><ele>69.0</ele><time>2026-04-18T09:01:05Z</time></trkpt><trkpt lat="45.190866395565415" lon="9.352357691030681"><ele>69.0</ele><time>2026-04-18T09:01:06Z</time></trkpt><trkpt lat="45.190804463170544" lon="9.35247629423165"><ele>69.0</ele><time>2026-04-18T09:01:07Z</time></trkpt><trkpt lat="45.19073615576743" lon="9.352612801387421"><ele>69.0</ele><time>2026-04-18T09:01:08Z</time></trkpt><trkpt lat="45.19066570861736" lon="9.352756049023903"><ele>69.0</ele><time>2026-04-18T09:01:09.001Z</time></trkpt><trkpt lat="45.19059016811692" lon="9.352894092370517"><ele>69.0</ele><time>2026-04-18T09:01:10.001Z</time></trkpt><trkpt lat="45.190512507669844" lon="9.353021132521285"><ele>69.0</ele><time>2026-04-18T09:01:11.001Z</time></trkpt><trkpt lat="45.19044049381589" lon="9.353133352564612"><ele>69.16666666666667</ele><time>2026-04-18T09:01:12.001Z</time></trkpt><trkpt lat="45.19037884351259" lon="9.35323524436715"><ele>69.33333333333333</ele><time>2026-04-18T09:01:13.001Z</time></trkpt><trkpt lat="45.190323040671984" lon="9.353346308483486"><ele>69.5</ele><time>2026-04-18T09:01:14.001Z</time></trkpt><trkpt lat="45.19028014978071" lon="9.353450613811798"><ele>69.66666666666666</ele><time>2026-04-18T09:01:15.001Z</time></trkpt><trkpt lat="45.190242288950394" lon="9.353552942362498"><ele>69.83333333333333</ele><time>2026-04-18T09:01:16.001Z</time></trkpt><trkpt lat="45.19021524056826" lon="9.353644411895813"><ele>70.0</ele><time>2026-04-18T09:01:17.001Z</time></trkpt><trkpt lat="45.190184056048174" lon="9.353742076799865"><ele>70.0</ele><time>2026-04-18T09:01:19.001Z</time></trkpt><trkpt lat="45.190095315054606" lon="9.35372333495976"><ele>70.0</ele><time>2026-04-18T09:01:22.001Z</time></trkpt><trkpt lat="45.18998428161242" lon="9.353603344325688"><ele>70.0</ele><time>2026-04-18T09:01:24.001Z</time></trkpt><trkpt lat="45.18991026774174" lon="9.353540150576077"><ele>70.0</ele><time>2026-04-18T09:01:25.001Z</time></trkpt><trkpt lat="45.18982974901265" lon="9.35349272961984"><ele>70.0</ele><time>2026-04-18T09:01:26.001Z</time></trkpt><trkpt lat="45.18973966312041" lon="9.353407160714383"><ele>70.0</ele><time>2026-04-18T09:01:27.001Z</time></trkpt><trkpt lat="45.18962343574418" lon="9.353372855642977"><ele>70.0</ele><time>2026-04-18T09:01:28.001Z</time></trkpt><trkpt lat="45.189496839582965" lon="9.35334782317306"><ele>70.0</ele><time>2026-04-18T09:01:29.001Z</time></trkpt><trkpt lat="45.18938424006146" lon="9.353328540775415"><ele>70.0</ele><time>2026-04-18T09:01:30.001Z</time></trkpt><trkpt lat="45.189263584822314" lon="9.353310208958806"><ele>70.0</ele><time>2026-04-18T09:01:31.001Z</time></trkpt><trkpt lat="45.18912469734392" lon="9.353292969613776"><ele>70.0</ele><time>2026-04-18T09:01:32.001Z</time></trkpt><trkpt lat="45.18895692753286" lon="9.353274111731762"><ele>70.0</ele><time>2026-04-18T09:01:33.001Z</time></trkpt><trkpt lat="45.18876994903126" lon="9.353254230664042"><ele>69.66666666666666</ele><time>2026-04-18T09:01:34.001Z</time></trkpt><trkpt lat="45.18859855538299" lon="9.353232370615462"><ele>69.33333333333333</ele><time>2026-04-18T09:01:35.001Z</time></trkpt><trkpt lat="45.18842142747205" lon="9.353198322364731"><ele>69.0</ele><time>2026-04-18T09:01:36.001Z</time></trkpt><trkpt lat="45.18824436119823" lon="9.353161015351297"><ele>69.0</ele><time>2026-04-18T09:01:37.001Z</time></trkpt><trkpt lat="45.18806526382085" lon="9.353123076866742"><ele>69.0</ele><time>2026-04-18T09:01:38.001Z</time></trkpt><trkpt lat="45.18788961778675" lon="9.35308570756503"><ele>69.0</ele><time>2026-04-18T09:01:39.001Z</time></trkpt><trkpt lat="45.18771254197314" lon="9.353046342280066"><ele>69.0</ele><time>2026-04-18T09:01:40.001Z</time></trkpt><trkpt lat="45.18753639648939" lon="9.353006501006824"><ele>69.0</ele><time>2026-04-18T09:01:41.001Z</time></trkpt><trkpt lat="45.18736726305041" lon="9.352970848394062"><ele>69.0</ele><time>2026-04-18T09:01:42.001Z</time></trkpt><trkpt lat="45.18719650935411" lon="9.352935821443609"><ele>69.0</ele><time>2026-04-18T09:01:43.001Z</time></trkpt><trkpt lat="45.187029796102536" lon="9.352901623309759"><ele>69.0</ele><time>2026-04-18T09:01:44.001Z</time></trkpt><trkpt lat="45.186856643768685" lon="9.352866104323097"><ele>69.0</ele><time>2026-04-18T09:01:45.001Z</time></trkpt><trkpt lat="45.186678268888954" lon="9.352829514023915"><ele>69.0</ele><time>2026-04-18T09:01:46.001Z</time></trkpt><trkpt lat="45.18651464140621" lon="9.35279491899145"><ele>69.0</ele><time>2026-04-18T09:01:47.001Z</time></trkpt><trkpt lat="45.18637190574251" lon="9.352764504207471"><ele>69.0</ele><time>2026-04-18T09:01:48.001Z</time></trkpt><trkpt lat="45.186244667884196" lon="9.352738384075826"><ele>69.0</ele><time>2026-04-18T09:01:49.001Z</time></trkpt><trkpt lat="45.18613412771213" lon="9.352716346087968"><ele>69.0</ele><time>2026-04-18T09:01:50.002Z</time></trkpt><trkpt lat="45.18604304484817" lon="9.352698187228091"><ele>69.0</ele><time>2026-04-18T09:01:51.002Z</time></trkpt><trkpt lat="45.18595168767966" lon="9.352679973688515"><ele>69.0</ele><time>2026-04-18T09:01:52.002Z</time></trkpt><trkpt lat="45.18587130063144" lon="9.352661567960855"><ele>69.0</ele><time>2026-04-18T09:01:53.002Z</time></trkpt><trkpt lat="45.18580528139279" lon="9.352640095746754"><ele>69.0</ele><time>2026-04-18T09:01:54.002Z</time></trkpt><trkpt lat="45.185722515501894" lon="9.352569821714317"><ele>69.0</ele><time>2026-04-18T09:01:56.002Z</time></trkpt><trkpt lat="45.18569390326507" lon="9.352477936559765"><ele>69.0</ele><time>2026-04-18T09:01:58.002Z</time></trkpt><trkpt lat="45.185705307803026" lon="9.352311246887842"><ele>69.0</ele><time>2026-04-18T09:02:00.002Z</time></trkpt><trkpt lat="45.18571026335676" lon="9.352161461132287"><ele>69.0</ele><time>2026-04-18T09:02:01.002Z</time></trkpt><trkpt lat="45.18571453742738" lon="9.351988259488653"><ele>69.0</ele><time>2026-04-18T09:02:02.002Z</time></trkpt><trkpt lat="45.18571916993754" lon="9.35180053256679"><ele>69.25</ele><time>2026-04-18T09:02:03.002Z</time></trkpt><trkpt lat="45.18572410680271" lon="9.35160047195997"><ele>69.5</ele><time>2026-04-18T09:02:04.002Z</time></trkpt><trkpt lat="45.185712368263985" lon="9.35141120079835"><ele>69.75</ele><time>2026-04-18T09:02:05.002Z</time></trkpt><trkpt lat="45.185721609136884" lon="9.35123555134381"><ele>70.0</ele><time>2026-04-18T09:02:06.002Z</time></trkpt><trkpt lat="45.18571654095532" lon="9.351091754929186"><ele>70.0</ele><time>2026-04-18T09:02:07.002Z</time></trkpt><trkpt lat="45.185727871036825" lon="9.350976393782002"><ele>70.0</ele><time>2026-04-18T09:02:08.002Z</time></trkpt><trkpt lat="45.185707540451965" lon="9.350870038449974"><ele>70.0</ele><time>2026-04-18T09:02:09.002Z</time></trkpt><trkpt lat="45.1856606251792" lon="9.350781741715881"><ele>70.0</ele><time>2026-04-18T09:02:10.002Z</time></trkpt><trkpt lat="45.18558401072892" lon="9.35071922650028"><ele>70.0</ele><time>2026-04-18T09:02:11.002Z</time></trkpt><trkpt lat="45.18548771207584" lon="9.350660792080426"><ele>70.0</ele><time>2026-04-18T09:02:12.002Z</time></trkpt><trkpt lat="45.18537666941324" lon="9.350597211193607"><ele>70.5</ele><time>2026-04-18T09:02:13.002Z</time></trkpt><trkpt lat="45.18525621980225" lon="9.35052729720667"><ele>71.0</ele><time>2026-04-18T09:02:14.002Z</time></trkpt><trkpt lat="45.185131989883764" lon="9.350452931299278"><ele>71.5</ele><time>2026-04-18T09:02:15.002Z</time></trkpt><trkpt lat="45.18502000657579" lon="9.35038161826952"><ele>72.0</ele><time>2026-04-18T09:02:16.002Z</time></trkpt><trkpt lat="45.18492135518416" lon="9.350315071064886"><ele>71.4</ele><time>2026-04-18T09:02:17.002Z</time></trkpt><trkpt lat="45.18483452558871" lon="9.35025579468848"><ele>70.80000000000001</ele><time>2026-04-18T09:02:18.002Z</time></trkpt><trkpt lat="45.184758206509116" lon="9.350203693496882"><ele>70.2</ele><time>2026-04-18T09:02:19.002Z</time></trkpt><trkpt lat="45.18467581391651" lon="9.350147446066105"><ele>69.60000000000001</ele><time>2026-04-18T09:02:20.002Z</time></trkpt><trkpt lat="45.18457309174262" lon="9.350075498563672"><ele>69.0</ele><time>2026-04-18T09:02:21.002Z</time></trkpt><trkpt lat="45.1844582627892" lon="9.349993596597201"><ele>69.0</ele><time>2026-04-18T09:02:22.002Z</time></trkpt><trkpt lat="45.184337011143576" lon="9.349907113707827"><ele>69.0</ele><time>2026-04-18T09:02:23.002Z</time></trkpt><trkpt lat="45.18422448014349" lon="9.349827191672029"><ele>69.0</ele><time>2026-04-18T09:02:24.002Z</time></trkpt><trkpt lat="45.184105344315526" lon="9.349742666096182"><ele>69.0</ele><time>2026-04-18T09:02:25.002Z</time></trkpt><trkpt lat="45.183982123793015" lon="9.349655242458978"><ele>69.0</ele><time>2026-04-18T09:02:26.002Z</time></trkpt><trkpt lat="45.18385061774503" lon="9.349561940330318"><ele>69.0</ele><time>2026-04-18T09:02:27.002Z</time></trkpt><trkpt lat="45.18372497282707" lon="9.349472796583822"><ele>69.0</ele><time>2026-04-18T09:02:28.002Z</time></trkpt><trkpt lat="45.18360001521679" lon="9.349384140524322"><ele>69.0</ele><time>2026-04-18T09:02:29.003Z</time></trkpt><trkpt lat="45.18347467274304" lon="9.349296496955194"><ele>69.0</ele><time>2026-04-18T09:02:30.003Z</time></trkpt><trkpt lat="45.18334925991266" lon="9.349209857450276"><ele>69.0</ele><time>2026-04-18T09:02:31.003Z</time></trkpt><trkpt lat="45.18322379482675" lon="9.349125579689012"><ele>69.0</ele><time>2026-04-18T09:02:32.003Z</time></trkpt><trkpt lat="45.1830973881806" lon="9.349065903433353"><ele>69.0</ele><time>2026-04-18T09:02:33.003Z</time></trkpt><trkpt lat="45.18298226058459" lon="9.348982387519593"><ele>68.75</ele><time>2026-04-18T09:02:34.003Z</time></trkpt><trkpt lat="45.18286509419812" lon="9.348905446211536"><ele>68.5</ele><time>2026-04-18T09:02:35.003Z</time></trkpt><trkpt lat="45.18274918950844" lon="9.348820727093878"><ele>68.25</ele><time>2026-04-18T09:02:36.003Z</time></trkpt><trkpt lat="45.182642103466506" lon="9.348738814125332"><ele>68.0</ele><time>2026-04-18T09:02:37.003Z</time></trkpt><trkpt lat="45.18254573206399" lon="9.348658801918614"><ele>67.8</ele><time>2026-04-18T09:02:38.003Z</time></trkpt><trkpt lat="45.182459407060534" lon="9.348577055795225"><ele>67.6</ele><time>2026-04-18T09:02:39.003Z</time></trkpt><trkpt lat="45.18237565750888" lon="9.348508016650364"><ele>67.4</ele><time>2026-04-18T09:02:40.003Z</time></trkpt><trkpt lat="45.18230906184311" lon="9.348408340593762"><ele>67.2</ele><time>2026-04-18T09:02:41.003Z</time></trkpt><trkpt lat="45.182234877706875" lon="9.348352018660245"><ele>67.0</ele><time>2026-04-18T09:02:42.003Z</time></trkpt><trkpt lat="45.18216225965212" lon="9.348286769381131"><ele>67.2</ele><time>2026-04-18T09:02:43.003Z</time></trkpt><trkpt lat="45.18208897106575" lon="9.3482344199628"><ele>67.4</ele><time>2026-04-18T09:02:44.003Z</time></trkpt><trkpt lat="45.18200092895329" lon="9.348180424107811"><ele>67.6</ele><time>2026-04-18T09:02:45.003Z</time></trkpt><trkpt lat="45.18190102380887" lon="9.348140763390052"><ele>67.8</ele><time>2026-04-18T09:02:46Z</time></trkpt><trkpt lat="45.18179070584611" lon="9.348084524539628"><ele>68.0</ele><time>2026-04-18T09:02:47Z</time></trkpt><trkpt lat="45.181669653953406" lon="9.348043170800434"><ele>68.0</ele><time>2026-04-18T09:02:48Z</time></trkpt><trkpt lat="45.18154932293437" lon="9.34801055153097"><ele>68.0</ele><time>2026-04-18T09:02:49Z</time></trkpt><trkpt lat="45.18145085235703" lon="9.34800867297735"><ele>68.0</ele><time>2026-04-18T09:02:50Z</time></trkpt><trkpt lat="45.18135624044617" lon="9.34797963014448"><ele>68.0</ele><time>2026-04-18T09:02:51Z</time></trkpt><trkpt lat="45.181268001287734" lon="9.347952718406209"><ele>68.0</ele><time>2026-04-18T09:02:52Z</time></trkpt><trkpt lat="45.18118124380516" lon="9.347932928359128"><ele>68.4</ele><time>2026-04-18T09:02:53Z</time></trkpt><trkpt lat="45.181082020775996" lon="9.347905019618757"><ele>68.8</ele><time>2026-04-18T09:02:54Z</time></trkpt><trkpt lat="45.18097758098294" lon="9.34787553239486"><ele>69.2</ele><time>2026-04-18T09:02:55Z</time></trkpt><trkpt lat="45.18087225918149" lon="9.347834032711665"><ele>69.6</ele><time>2026-04-18T09:02:56Z</time></trkpt><trkpt lat="45.18078392655779" lon="9.347805312397027"><ele>70.0</ele><time>2026-04-18T09:02:57Z</time></trkpt><trkpt lat="45.18069417190701" lon="9.347791145063304"><ele>70.2</ele><time>2026-04-18T09:02:58Z</time></trkpt><trkpt lat="45.180593849722506" lon="9.347768632431725"><ele>70.4</ele><time>2026-04-18T09:03:00Z</time></trkpt><trkpt lat="45.18047683573849" lon="9.347776894156894"><ele>70.6</ele><time>2026-04-18T09:03:04Z</time></trkpt><trkpt lat="45.18040636418462" lon="9.347777476518289"><ele>70.8</ele><time>2026-04-18T09:03:05Z</time></trkpt><trkpt lat="45.18032665420794" lon="9.347799945260784"><ele>71.0</ele><time>2026-04-18T09:03:06Z</time></trkpt><trkpt lat="45.180242876190476" lon="9.347838818513331"><ele>71.0</ele><time>2026-04-18T09:03:07Z</time></trkpt><trkpt lat="45.180137519880546" lon="9.347858750597759"><ele>71.0</ele><time>2026-04-18T09:03:08Z</time></trkpt><trkpt lat="45.180035592132214" lon="9.3478814792475"><ele>71.0</ele><time>2026-04-18T09:03:09Z</time></trkpt><trkpt lat="45.179964376926655" lon="9.347917413139157"><ele>71.0</ele><time>2026-04-18T09:03:10Z</time></trkpt><trkpt lat="45.17987552324824" lon="9.347952107334612"><ele>71.0</ele><time>2026-04-18T09:03:11Z</time></trkpt><trkpt lat="45.17977852560427" lon="9.347978150622891"><ele>71.0</ele><time>2026-04-18T09:03:12Z</time></trkpt><trkpt lat="45.17968039646992" lon="9.347970600549056"><ele>71.0</ele><time>2026-04-18T09:03:13Z</time></trkpt><trkpt lat="45.17961018132264" lon="9.347995137010452"><ele>71.0</ele><time>2026-04-18T09:03:15Z</time></trkpt><trkpt lat="45.17957218054415" lon="9.347797274922705"><ele>71.0</ele><time>2026-04-18T09:03:18Z</time></trkpt><trkpt lat="45.179593189882475" lon="9.347684463698116"><ele>71.0</ele><time>2026-04-18T09:03:19Z</time></trkpt><trkpt lat="45.17960144262708" lon="9.347578181867433"><ele>71.0</ele><time>2026-04-18T09:03:20Z</time></trkpt><trkpt lat="45.17961758985759" lon="9.347488474461082"><ele>71.0</ele><time>2026-04-18T09:03:21Z</time></trkpt><trkpt lat="45.17965106905398" lon="9.347353992011694"><ele>71.0</ele><time>2026-04-18T09:03:23.001Z</time></trkpt><trkpt lat="45.17965812597621" lon="9.347242113316314"><ele>71.0</ele><time>2026-04-18T09:03:25.001Z</time></trkpt><trkpt lat="45.17963154245894" lon="9.34714217772352"><ele>71.0</ele><time>2026-04-18T09:03:26.001Z</time></trkpt><trkpt lat="45.17958430118171" lon="9.347030588596263"><ele>71.0</ele><time>2026-04-18T09:03:27.001Z</time></trkpt><trkpt lat="45.179544990589434" lon="9.34689436237674"><ele>70.0</ele><time>2026-04-18T09:03:28.001Z</time></trkpt><trkpt lat="45.179512387202266" lon="9.346750972281217"><ele>69.0</ele><time>2026-04-18T09:03:29.001Z</time></trkpt><trkpt lat="45.179484189078046" lon="9.346615840142404"><ele>68.0</ele><time>2026-04-18T09:03:30.001Z</time></trkpt><trkpt lat="45.179454993316995" lon="9.346479906607872"><ele>67.0</ele><time>2026-04-18T09:03:31.001Z</time></trkpt><trkpt lat="45.179425917688654" lon="9.346353375014766"><ele>66.0</ele><time>2026-04-18T09:03:32.001Z</time></trkpt><trkpt lat="45.17940019272383" lon="9.346237428762592"><ele>65.33333333333333</ele><time>2026-04-18T09:03:33.001Z</time></trkpt><trkpt lat="45.179373933050584" lon="9.34613280973652"><ele>64.66666666666667</ele><time>2026-04-18T09:03:34.001Z</time></trkpt><trkpt lat="45.179345729634555" lon="9.346039207506337"><ele>64.0</ele><time>2026-04-18T09:03:35.001Z</time></trkpt><trkpt lat="45.179313238789526" lon="9.345959736039672"><ele>63.333333333333336</ele><time>2026-04-18T09:03:36.001Z</time></trkpt><trkpt lat="45.1792633987184" lon="9.345895758423646"><ele>62.66666666666667</ele><time>2026-04-18T09:03:37.001Z</time></trkpt><trkpt lat="45.179223194830165" lon="9.345819353897177"><ele>62.0</ele><time>2026-04-18T09:03:38.001Z</time></trkpt><trkpt lat="45.17910816590442" lon="9.345824522400184"><ele>61.5</ele><time>2026-04-18T09:03:39.001Z</time></trkpt><trkpt lat="45.17900607770632" lon="9.345805013174203"><ele>61.0</ele><time>2026-04-18T09:03:40.001Z</time></trkpt><trkpt lat="45.17888544851383" lon="9.345779549399994"><ele>60.5</ele><time>2026-04-18T09:03:41.001Z</time></trkpt><trkpt lat="45.17875666774653" lon="9.345766427529929"><ele>60.0</ele><time>2026-04-18T09:03:42.001Z</time></trkpt><trkpt lat="45.17862526905254" lon="9.345773465914231"><ele>60.0</ele><time>2026-04-18T09:03:43.001Z</time></trkpt><trkpt lat="45.17849279677587" lon="9.345787127507327"><ele>60.0</ele><time>2026-04-18T09:03:44.001Z</time></trkpt><trkpt lat="45.17837445654612" lon="9.345812502717585"><ele>60.0</ele><time>2026-04-18T09:03:45.001Z</time></trkpt><trkpt lat="45.17826549284197" lon="9.345831027692801"><ele>60.0</ele><time>2026-04-18T09:03:46.001Z</time></trkpt><trkpt lat="45.17817074062091" lon="9.345832687147736"><ele>60.166666666666664</ele><time>2026-04-18T09:03:47.001Z</time></trkpt><trkpt lat="45.178100419978925" lon="9.34580285119861"><ele>60.33333333333333</ele><time>2026-04-18T09:03:48.001Z</time></trkpt><trkpt lat="45.17804485788127" lon="9.345752469752398"><ele>60.5</ele><time>2026-04-18T09:03:49.001Z</time></trkpt><trkpt lat="45.178013571512835" lon="9.34566439410486"><ele>60.666666666666664</ele><time>2026-04-18T09:03:50.001Z</time></trkpt><trkpt lat="45.17800570249062" lon="9.345543905922238"><ele>60.83333333333333</ele><time>2026-04-18T09:03:51.001Z</time></trkpt><trkpt lat="45.17801388561893" lon="9.345406704549823"><ele>61.0</ele><time>2026-04-18T09:03:52.001Z</time></trkpt><trkpt lat="45.17800545369988" lon="9.345243952926745"><ele>61.0</ele><time>2026-04-18T09:03:53.001Z</time></trkpt><trkpt lat="45.17799813800423" lon="9.345065194763393"><ele>61.0</ele><time>2026-04-18T09:03:54.001Z</time></trkpt><trkpt lat="45.177990122188746" lon="9.34487878195745"><ele>61.0</ele><time>2026-04-18T09:03:55.001Z</time></trkpt><trkpt lat="45.17798576120418" lon="9.344700572366973"><ele>61.0</ele><time>2026-04-18T09:03:56.001Z</time></trkpt><trkpt lat="45.17798434390599" lon="9.3445420692624"><ele>60.8</ele><time>2026-04-18T09:03:57.001Z</time></trkpt><trkpt lat="45.177987697143976" lon="9.344400461997347"><ele>60.599999999999994</ele><time>2026-04-18T09:03:58.001Z</time></trkpt><trkpt lat="45.177992800057915" lon="9.344271798889231"><ele>60.4</ele><time>2026-04-18T09:03:59.002Z</time></trkpt><trkpt lat="45.17798225051241" lon="9.344152573477318"><ele>60.2</ele><time>2026-04-18T09:04:00.002Z</time></trkpt><trkpt lat="45.17795180897839" lon="9.344013435502198"><ele>60.0</ele><time>2026-04-18T09:04:01.002Z</time></trkpt><trkpt lat="45.17791785573876" lon="9.34386219409769"><ele>60.0</ele><time>2026-04-18T09:04:02.002Z</time></trkpt><trkpt lat="45.17790199051182" lon="9.343680725312417"><ele>60.0</ele><time>2026-04-18T09:04:03.002Z</time></trkpt><trkpt lat="45.17786305570468" lon="9.343499646098962"><ele>60.0</ele><time>2026-04-18T09:04:04.002Z</time></trkpt><trkpt lat="45.177841427819494" lon="9.343334717837312"><ele>60.0</ele><time>2026-04-18T09:04:05.002Z</time></trkpt><trkpt lat="45.17782086568792" lon="9.343203604218928"><ele>60.0</ele><time>2026-04-18T09:04:06.002Z</time></trkpt><trkpt lat="45.177808753112124" lon="9.343102151291948"><ele>60.0</ele><time>2026-04-18T09:04:07.002Z</time></trkpt><trkpt lat="45.17776068673727" lon="9.343031893605147"><ele>60.0</ele><time>2026-04-18T09:04:08.002Z</time></trkpt><trkpt lat="45.17768203580726" lon="9.342995241919523"><ele>60.0</ele><time>2026-04-18T09:04:09.002Z</time></trkpt><trkpt lat="45.177590509465375" lon="9.34300590582171"><ele>60.0</ele><time>2026-04-18T09:04:10.002Z</time></trkpt><trkpt lat="45.17748379688581" lon="9.342961464069086"><ele>60.0</ele><time>2026-04-18T09:04:11.002Z</time></trkpt><trkpt lat="45.177367065563686" lon="9.342938269479653"><ele>61.2</ele><time>2026-04-18T09:04:12.002Z</time></trkpt><trkpt lat="45.17725076253349" lon="9.342942701236609"><ele>62.4</ele><time>2026-04-18T09:04:13.002Z</time></trkpt><trkpt lat="45.177148134843385" lon="9.3429386437274"><ele>63.599999999999994</ele><time>2026-04-18T09:04:14.002Z</time></trkpt><trkpt lat="45.17706183163844" lon="9.342919251444066"><ele>64.8</ele><time>2026-04-18T09:04:15.002Z</time></trkpt><trkpt lat="45.1769606616686" lon="9.342917917335516"><ele>66.0</ele><time>2026-04-18T09:04:17.002Z</time></trkpt><trkpt lat="45.17693811653558" lon="9.34281526348242"><ele>66.0</ele><time>2026-04-18T09:04:19.002Z</time></trkpt><trkpt lat="45.176943157955954" lon="9.342716358883242"><ele>66.0</ele><time>2026-04-18T09:04:20.002Z</time></trkpt><trkpt lat="45.17695293285794" lon="9.34261111889548"><ele>66.0</ele><time>2026-04-18T09:04:21.002Z</time></trkpt><trkpt lat="45.17695802777183" lon="9.342501851398554"><ele>66.0</ele><time>2026-04-18T09:04:22.002Z</time></trkpt><trkpt lat="45.17698970775138" lon="9.342391234336326"><ele>66.0</ele><time>2026-04-18T09:04:23.002Z</time></trkpt><trkpt lat="45.177046568813715" lon="9.342267084264611"><ele>66.0</ele><time>2026-04-18T09:04:24.002Z</time></trkpt><trkpt lat="45.177118831833006" lon="9.342132113115927"><ele>66.39999999999999</ele><time>2026-04-18T09:04:25.002Z</time></trkpt><trkpt lat="45.17719443680429" lon="9.342007181789995"><ele>66.8</ele><time>2026-04-18T09:04:26.002Z</time></trkpt><trkpt lat="45.17727300376187" lon="9.34189722720575"><ele>67.19999999999999</ele><time>2026-04-18T09:04:27.002Z</time></trkpt><trkpt lat="45.17734526864868" lon="9.341786938740007"><ele>67.6</ele><time>2026-04-18T09:04:28.002Z</time></trkpt><trkpt lat="45.177413346155596" lon="9.341666792533953"><ele>68.0</ele><time>2026-04-18T09:04:29.002Z</time></trkpt><trkpt lat="45.17746874829452" lon="9.341528267467902"><ele>68.0</ele><time>2026-04-18T09:04:30.002Z</time></trkpt><trkpt lat="45.17751905406468" lon="9.341376697579154"><ele>68.0</ele><time>2026-04-18T09:04:31.002Z</time></trkpt><trkpt lat="45.177559779629476" lon="9.341234586161951"><ele>68.0</ele><time>2026-04-18T09:04:32.002Z</time></trkpt><trkpt lat="45.17758643586118" lon="9.341074259483419"><ele>68.0</ele><time>2026-04-18T09:04:33.002Z</time></trkpt><trkpt lat="45.177616224606965" lon="9.34088992901993"><ele>68.0</ele><time>2026-04-18T09:04:34.002Z</time></trkpt><trkpt lat="45.17764822871197" lon="9.340702024094933"><ele>68.0</ele><time>2026-04-18T09:04:35.002Z</time></trkpt><trkpt lat="45.17767899552312" lon="9.340534396567353"><ele>68.0</ele><time>2026-04-18T09:04:36.002Z</time></trkpt><trkpt lat="45.17770919411344" lon="9.340370408958991"><ele>68.0</ele><time>2026-04-18T09:04:37.003Z</time></trkpt><trkpt lat="45.17772546496787" lon="9.340211281879908"><ele>68.0</ele><time>2026-04-18T09:04:38.003Z</time></trkpt><trkpt lat="45.177739959175334" lon="9.340009364834085"><ele>68.0</ele><time>2026-04-18T09:04:39.003Z</time></trkpt><trkpt lat="45.17774096332005" lon="9.339811457413033"><ele>68.0</ele><time>2026-04-18T09:04:40.003Z</time></trkpt><trkpt lat="45.177741469892716" lon="9.339606283880908"><ele>68.0</ele><time>2026-04-18T09:04:41.003Z</time></trkpt><trkpt lat="45.17775081386711" lon="9.339398410941984"><ele>68.25</ele><time>2026-04-18T09:04:42.003Z</time></trkpt><trkpt lat="45.17775665235887" lon="9.339181035005048"><ele>68.5</ele><time>2026-04-18T09:04:43.003Z</time></trkpt><trkpt lat="45.177768469561634" lon="9.338980521163236"><ele>68.75</ele><time>2026-04-18T09:04:44.003Z</time></trkpt><trkpt lat="45.17776421847348" lon="9.33880093515624"><ele>69.0</ele><time>2026-04-18T09:04:45.003Z</time></trkpt><trkpt lat="45.177774605096296" lon="9.338668960740142"><ele>69.16666666666667</ele><time>2026-04-18T09:04:46.003Z</time></trkpt><trkpt lat="45.1777916019493" lon="9.338561788374543"><ele>69.33333333333333</ele><time>2026-04-18T09:04:47.003Z</time></trkpt><trkpt lat="45.17782775529953" lon="9.338482864666767"><ele>69.5</ele><time>2026-04-18T09:04:48.003Z</time></trkpt><trkpt lat="45.1779216821559" lon="9.338388669545564"><ele>69.66666666666666</ele><time>2026-04-18T09:04:50.003Z</time></trkpt><trkpt lat="45.17799928661397" lon="9.33834432022545"><ele>69.83333333333333</ele><time>2026-04-18T09:04:51.003Z</time></trkpt><trkpt lat="45.1780961836426" lon="9.338298079370917"><ele>70.0</ele><time>2026-04-18T09:04:52Z</time></trkpt><trkpt lat="45.17821232253626" lon="9.33824320212809"><ele>70.0</ele><time>2026-04-18T09:04:53Z</time></trkpt><trkpt lat="45.17833531353243" lon="9.33818305866019"><ele>70.0</ele><time>2026-04-18T09:04:54Z</time></trkpt><trkpt lat="45.17846195403988" lon="9.338123057839722"><ele>70.0</ele><time>2026-04-18T09:04:55Z</time></trkpt><trkpt lat="45.17857541132573" lon="9.338072611626112"><ele>70.0</ele><time>2026-04-18T09:04:56Z</time></trkpt><trkpt lat="45.178674331821014" lon="9.338030895457514"><ele>70.0</ele><time>2026-04-18T09:04:57Z</time></trkpt><trkpt lat="45.17874756628052" lon="9.337995518550297"><ele>70.0</ele><time>2026-04-18T09:04:58Z</time></trkpt><trkpt lat="45.17883017915312" lon="9.337916413552108"><ele>70.0</ele><time>2026-04-18T09:05:00Z</time></trkpt><trkpt lat="45.17885904736282" lon="9.337822534243667"><ele>70.0</ele><time>2026-04-18T09:05:03Z</time></trkpt><trkpt lat="45.17888334725973" lon="9.33769237854735"><ele>70.0</ele><time>2026-04-18T09:05:05Z</time></trkpt><trkpt lat="45.178883821399154" lon="9.337595461509743"><ele>70.0</ele><time>2026-04-18T09:05:06Z</time></trkpt><trkpt lat="45.17888421183906" lon="9.337497539016267"><ele>70.0</ele><time>2026-04-18T09:05:07Z</time></trkpt><trkpt lat="45.17888416910291" lon="9.337404716578952"><ele>70.0</ele><time>2026-04-18T09:05:08Z</time></trkpt><trkpt lat="45.17888324140628" lon="9.337291391178479"><ele>70.0</ele><time>2026-04-18T09:05:09Z</time></trkpt><trkpt lat="45.17888201020162" lon="9.337171158174542"><ele>70.0</ele><time>2026-04-18T09:05:10Z</time></trkpt><trkpt lat="45.178880054673925" lon="9.337042772620064"><ele>70.0</ele><time>2026-04-18T09:05:11Z</time></trkpt><trkpt lat="45.17887806827966" lon="9.336912360661417"><ele>70.0</ele><time>2026-04-18T09:05:12Z</time></trkpt><trkpt lat="45.178875955949415" lon="9.336773680560045"><ele>70.0</ele><time>2026-04-18T09:05:13Z</time></trkpt><trkpt lat="45.178857847162604" lon="9.336637955221077"><ele>70.0</ele><time>2026-04-18T09:05:14Z</time></trkpt><trkpt lat="45.17885566554583" lon="9.336483077317535"><ele>70.0</ele><time>2026-04-18T09:05:15Z</time></trkpt><trkpt lat="45.17887098745897" lon="9.336321203066024"><ele>70.0</ele><time>2026-04-18T09:05:16Z</time></trkpt><trkpt lat="45.1788696530162" lon="9.336151658625282"><ele>70.0</ele><time>2026-04-18T09:05:17Z</time></trkpt><trkpt lat="45.17886828587331" lon="9.335977959314311"><ele>70.0</ele><time>2026-04-18T09:05:18Z</time></trkpt><trkpt lat="45.17886700699786" lon="9.335797371592523"><ele>70.0</ele><time>2026-04-18T09:05:19Z</time></trkpt><trkpt lat="45.1788494663963" lon="9.335610947198683"><ele>70.0</ele><time>2026-04-18T09:05:20Z</time></trkpt><trkpt lat="45.1788488093353" lon="9.335429177595932"><ele>70.0</ele><time>2026-04-18T09:05:21Z</time></trkpt><trkpt lat="45.17885155597752" lon="9.335254304048368"><ele>70.0</ele><time>2026-04-18T09:05:22Z</time></trkpt><trkpt lat="45.178851621961485" lon="9.335078202853934"><ele>70.0</ele><time>2026-04-18T09:05:23Z</time></trkpt><trkpt lat="45.1788464819607" lon="9.334901149270175"><ele>70.0</ele><time>2026-04-18T09:05:24Z</time></trkpt><trkpt lat="45.17884364876156" lon="9.334725335178291"><ele>70.0</ele><time>2026-04-18T09:05:25Z</time></trkpt><trkpt lat="45.17884355762435" lon="9.334556530235158"><ele>70.5</ele><time>2026-04-18T09:05:26Z</time></trkpt><trkpt lat="45.17884010374154" lon="9.334397179863725"><ele>71.0</ele><time>2026-04-18T09:05:27.001Z</time></trkpt><trkpt lat="45.1788378835612" lon="9.334239319804166"><ele>71.5</ele><time>2026-04-18T09:05:28.001Z</time></trkpt><trkpt lat="45.17883556035287" lon="9.334070798114725"><ele>72.0</ele><time>2026-04-18T09:05:29.001Z</time></trkpt><trkpt lat="45.178844283912866" lon="9.333891934892458"><ele>71.5</ele><time>2026-04-18T09:05:30.001Z</time></trkpt><trkpt lat="45.17884863533382" lon="9.33369637086519"><ele>71.0</ele><time>2026-04-18T09:05:31.001Z</time></trkpt><trkpt lat="45.17887558067392" lon="9.33349216386968"><ele>70.5</ele><time>2026-04-18T09:05:32.001Z</time></trkpt><trkpt lat="45.17888597323944" lon="9.333298493043234"><ele>70.0</ele><time>2026-04-18T09:05:33.001Z</time></trkpt><trkpt lat="45.17889433624291" lon="9.333161182843234"><ele>70.0</ele><time>2026-04-18T09:05:34.001Z</time></trkpt><trkpt lat="45.17890282068002" lon="9.333039214568222"><ele>70.0</ele><time>2026-04-18T09:05:35.001Z</time></trkpt><trkpt lat="45.178912750918904" lon="9.3328964621431"><ele>70.0</ele><time>2026-04-18T09:05:36.001Z</time></trkpt><trkpt lat="45.178924282201486" lon="9.332743998314093"><ele>70.0</ele><time>2026-04-18T09:05:37.001Z</time></trkpt><trkpt lat="45.17893792965951" lon="9.332564900345746"><ele>70.0</ele><time>2026-04-18T09:05:38.001Z</time></trkpt><trkpt lat="45.178952399896566" lon="9.33237500482047"><ele>70.25</ele><time>2026-04-18T09:05:39.001Z</time></trkpt><trkpt lat="45.17896761635536" lon="9.332175316665376"><ele>70.5</ele><time>2026-04-18T09:05:40.001Z</time></trkpt><trkpt lat="45.17898306867526" lon="9.331972533193323"><ele>70.75</ele><time>2026-04-18T09:05:41.001Z</time></trkpt><trkpt lat="45.178998986350855" lon="9.331763642764958"><ele>71.0</ele><time>2026-04-18T09:05:42.001Z</time></trkpt><trkpt lat="45.179014723315575" lon="9.331557123896763"><ele>70.66666666666667</ele><time>2026-04-18T09:05:43.001Z</time></trkpt><trkpt lat="45.17903082707466" lon="9.331345791448724"><ele>70.33333333333333</ele><time>2026-04-18T09:05:44.001Z</time></trkpt><trkpt lat="45.179047143262494" lon="9.331131671278179"><ele>70.0</ele><time>2026-04-18T09:05:45.001Z</time></trkpt><trkpt lat="45.17906395757163" lon="9.330918994252917"><ele>70.0</ele><time>2026-04-18T09:05:46.001Z</time></trkpt><trkpt lat="45.179082436323625" lon="9.330698780246227"><ele>70.0</ele><time>2026-04-18T09:05:47.001Z</time></trkpt><trkpt lat="45.179101142490374" lon="9.33048632732071"><ele>70.0</ele><time>2026-04-18T09:05:48.001Z</time></trkpt><trkpt lat="45.17910618495574" lon="9.330272762308011"><ele>70.25</ele><time>2026-04-18T09:05:49.001Z</time></trkpt><trkpt lat="45.179133008598846" lon="9.330068108738082"><ele>70.5</ele><time>2026-04-18T09:05:50.001Z</time></trkpt><trkpt lat="45.17916184913477" lon="9.329878712249887"><ele>70.75</ele><time>2026-04-18T09:05:51.001Z</time></trkpt><trkpt lat="45.17920190853048" lon="9.329692127496427"><ele>71.0</ele><time>2026-04-18T09:05:52.001Z</time></trkpt><trkpt lat="45.17923251551467" lon="9.329504158829772"><ele>70.5</ele><time>2026-04-18T09:05:53.001Z</time></trkpt><trkpt lat="45.17926455008362" lon="9.329309154604513"><ele>70.0</ele><time>2026-04-18T09:05:54.001Z</time></trkpt><trkpt lat="45.1792970906008" lon="9.329108587082075"><ele>69.5</ele><time>2026-04-18T09:05:55.001Z</time></trkpt><trkpt lat="45.17932819086415" lon="9.328916539076193"><ele>69.0</ele><time>2026-04-18T09:05:56.001Z</time></trkpt><trkpt lat="45.179358790847104" lon="9.328716670562073"><ele>69.0</ele><time>2026-04-18T09:05:57.001Z</time></trkpt><trkpt lat="45.179388279914726" lon="9.328513645399473"><ele>69.0</ele><time>2026-04-18T09:05:58.001Z</time></trkpt><trkpt lat="45.179418116393755" lon="9.32831005954066"><ele>69.0</ele><time>2026-04-18T09:05:59.001Z</time></trkpt><trkpt lat="45.17944698899928" lon="9.328103980809486"><ele>69.0</ele><time>2026-04-18T09:06:00.001Z</time></trkpt><trkpt lat="45.17947795077239" lon="9.327896920241846"><ele>69.0</ele><time>2026-04-18T09:06:01.002Z</time></trkpt><trkpt lat="45.17951036241573" lon="9.327693332703339"><ele>69.0</ele><time>2026-04-18T09:06:02.002Z</time></trkpt><trkpt lat="45.17953954621524" lon="9.327492793559056"><ele>69.0</ele><time>2026-04-18T09:06:03.002Z</time></trkpt><trkpt lat="45.17956834121455" lon="9.32730603509079"><ele>69.0</ele><time>2026-04-18T09:06:04.002Z</time></trkpt><trkpt lat="45.17959775384213" lon="9.327121731240348"><ele>69.0</ele><time>2026-04-18T09:06:05.002Z</time></trkpt><trkpt lat="45.17962513046015" lon="9.326945357451718"><ele>69.0</ele><time>2026-04-18T09:06:06.002Z</time></trkpt><trkpt lat="45.17965071081446" lon="9.326787497474966"><ele>69.0</ele><time>2026-04-18T09:06:07.002Z</time></trkpt><trkpt lat="45.17968571955594" lon="9.326649653386475"><ele>69.0</ele><time>2026-04-18T09:06:08.002Z</time></trkpt><trkpt lat="45.17973767975714" lon="9.326527938668773"><ele>69.0</ele><time>2026-04-18T09:06:09.002Z</time></trkpt><trkpt lat="45.17980468096375" lon="9.326428211156292"><ele>68.8</ele><time>2026-04-18T09:06:10.002Z</time></trkpt><trkpt lat="45.179892369058486" lon="9.326346280061722"><ele>68.60000000000001</ele><time>2026-04-18T09:06:11.002Z</time></trkpt><trkpt lat="45.1799867495218" lon="9.326267428821016"><ele>68.4</ele><time>2026-04-18T09:06:12.002Z</time></trkpt><trkpt lat="45.18007799309718" lon="9.326188211863625"><ele>68.2</ele><time>2026-04-18T09:06:13.002Z</time></trkpt><trkpt lat="45.18017017513604" lon="9.326105868077324"><ele>68.0</ele><time>2026-04-18T09:06:14.002Z</time></trkpt><trkpt lat="45.18025917432431" lon="9.32602436705201"><ele>68.0</ele><time>2026-04-18T09:06:15.002Z</time></trkpt><trkpt lat="45.18034105620627" lon="9.325951211616392"><ele>68.0</ele><time>2026-04-18T09:06:16.002Z</time></trkpt><trkpt lat="45.18042162656026" lon="9.32588116012999"><ele>68.0</ele><time>2026-04-18T09:06:17.002Z</time></trkpt><trkpt lat="45.18049659029213" lon="9.325813232574202"><ele>68.0</ele><time>2026-04-18T09:06:18.002Z</time></trkpt><trkpt lat="45.180562494331895" lon="9.325744921070863"><ele>68.0</ele><time>2026-04-18T09:06:19.002Z</time></trkpt><trkpt lat="45.18061635518365" lon="9.325667442827308"><ele>68.0</ele><time>2026-04-18T09:06:20.002Z</time></trkpt><trkpt lat="45.18065765867636" lon="9.325581237064082"><ele>68.2</ele><time>2026-04-18T09:06:21.002Z</time></trkpt><trkpt lat="45.180681518285056" lon="9.325487665824273"><ele>68.4</ele><time>2026-04-18T09:06:22.002Z</time></trkpt><trkpt lat="45.18069328543794" lon="9.325372123175928"><ele>68.60000000000001</ele><time>2026-04-18T09:06:23.002Z</time></trkpt><trkpt lat="45.180699308832445" lon="9.325239842662546"><ele>68.8</ele><time>2026-04-18T09:06:24.002Z</time></trkpt><trkpt lat="45.18070696675854" lon="9.325094761909412"><ele>69.0</ele><time>2026-04-18T09:06:25.002Z</time></trkpt><trkpt lat="45.18071852049206" lon="9.324927628707227"><ele>68.5</ele><time>2026-04-18T09:06:26.002Z</time></trkpt><trkpt lat="45.180729586211626" lon="9.324758536789632"><ele>68.0</ele><time>2026-04-18T09:06:27.002Z</time></trkpt><trkpt lat="45.180743543159046" lon="9.324583459655143"><ele>67.5</ele><time>2026-04-18T09:06:28.002Z</time></trkpt><trkpt lat="45.18075810548074" lon="9.324407079845146"><ele>67.0</ele><time>2026-04-18T09:06:29.002Z</time></trkpt><trkpt lat="45.180772736545585" lon="9.324228309425441"><ele>67.0</ele><time>2026-04-18T09:06:30.002Z</time></trkpt><trkpt lat="45.1807862398011" lon="9.324047760369389"><ele>67.0</ele><time>2026-04-18T09:06:31.002Z</time></trkpt><trkpt lat="45.18080166962365" lon="9.32387378058881"><ele>67.0</ele><time>2026-04-18T09:06:32.002Z</time></trkpt><trkpt lat="45.18081539942177" lon="9.32370222380711"><ele>67.0</ele><time>2026-04-18T09:06:33.002Z</time></trkpt><trkpt lat="45.180829373040915" lon="9.323540271983035"><ele>67.6</ele><time>2026-04-18T09:06:34.002Z</time></trkpt><trkpt lat="45.18083878674277" lon="9.323383884364507"><ele>68.2</ele><time>2026-04-18T09:06:35.002Z</time></trkpt><trkpt lat="45.18085082625683" lon="9.323241979759711"><ele>68.8</ele><time>2026-04-18T09:06:36.002Z</time></trkpt><trkpt lat="45.18085620713006" lon="9.323100684076582"><ele>69.4</ele><time>2026-04-18T09:06:37.003Z</time></trkpt><trkpt lat="45.18086380838406" lon="9.322961725593416"><ele>70.0</ele><time>2026-04-18T09:06:38.003Z</time></trkpt><trkpt lat="45.1808773871835" lon="9.32281453124868"><ele>70.0</ele><time>2026-04-18T09:06:39.003Z</time></trkpt><trkpt lat="45.1809171480284" lon="9.322673766644202"><ele>70.0</ele><time>2026-04-18T09:06:40.003Z</time></trkpt><trkpt lat="45.1809748057237" lon="9.322537501914004"><ele>70.0</ele><time>2026-04-18T09:06:41.003Z</time></trkpt><trkpt lat="45.18103073893758" lon="9.322408448498273"><ele>70.0</ele><time>2026-04-18T09:06:42.003Z</time></trkpt><trkpt lat="45.18108190613866" lon="9.322293536176817"><ele>70.0</ele><time>2026-04-18T09:06:43.003Z</time></trkpt><trkpt lat="45.18113197161381" lon="9.322184001106981"><ele>70.0</ele><time>2026-04-18T09:06:44.003Z</time></trkpt><trkpt lat="45.18117874852238" lon="9.32207764125954"><ele>70.0</ele><time>2026-04-18T09:06:45.003Z</time></trkpt><trkpt lat="45.18122313692134" lon="9.321971850911138"><ele>70.0</ele><time>2026-04-18T09:06:46.003Z</time></trkpt><trkpt lat="45.18126148504956" lon="9.32186059801614"><ele>70.0</ele><time>2026-04-18T09:06:47.003Z</time></trkpt><trkpt lat="45.1812807131762" lon="9.321736565640869"><ele>70.0</ele><time>2026-04-18T09:06:48.003Z</time></trkpt><trkpt lat="45.18127527439372" lon="9.32160342659134"><ele>70.0</ele><time>2026-04-18T09:06:49.003Z</time></trkpt><trkpt lat="45.1812407961444" lon="9.321471859856375"><ele>70.2</ele><time>2026-04-18T09:06:50.003Z</time></trkpt><trkpt lat="45.18120412277947" lon="9.321333034589266"><ele>70.4</ele><time>2026-04-18T09:06:51.003Z</time></trkpt><trkpt lat="45.181148307635546" lon="9.321201370954505"><ele>70.6</ele><time>2026-04-18T09:06:52.003Z</time></trkpt><trkpt lat="45.18109186180328" lon="9.321068942272891"><ele>70.8</ele><time>2026-04-18T09:06:53.003Z</time></trkpt><trkpt lat="45.18101919703302" lon="9.32094889578791"><ele>71.0</ele><time>2026-04-18T09:06:54.003Z</time></trkpt><trkpt lat="45.18096081688135" lon="9.320815510283635"><ele>71.0</ele><time>2026-04-18T09:06:55.003Z</time></trkpt><trkpt lat="45.18089655972391" lon="9.320685647812097"><ele>71.0</ele><time>2026-04-18T09:06:56.003Z</time></trkpt><trkpt lat="45.18082513195624" lon="9.32055780704177"><ele>71.0</ele><time>2026-04-18T09:06:57.003Z</time></trkpt><trkpt lat="45.18076658799429" lon="9.320420578017751"><ele>71.0</ele><time>2026-04-18T09:06:57.999Z</time></trkpt><trkpt lat="45.18069681325004" lon="9.32030225501517"><ele>71.0</ele><time>2026-04-18T09:06:58.999Z</time></trkpt><trkpt lat="45.180620452825714" lon="9.320203114337806"><ele>70.8</ele><time>2026-04-18T09:06:59.999Z</time></trkpt><trkpt lat="45.18055816881506" lon="9.320092533000693"><ele>70.6</ele><time>2026-04-18T09:07:00.999Z</time></trkpt><trkpt lat="45.18048896749391" lon="9.319990659886152"><ele>70.4</ele><time>2026-04-18T09:07:01.999Z</time></trkpt><trkpt lat="45.18040887418287" lon="9.31989797406112"><ele>70.2</ele><time>2026-04-18T09:07:02.999Z</time></trkpt><trkpt lat="45.180320530902186" lon="9.31981486364428"><ele>70.0</ele><time>2026-04-18T09:07:03.999Z</time></trkpt><trkpt lat="45.180225668566806" lon="9.319738268636943"><ele>70.25</ele><time>2026-04-18T09:07:04.999Z</time></trkpt><trkpt lat="45.18012763746159" lon="9.319658323596725"><ele>70.5</ele><time>2026-04-18T09:07:05.999Z</time></trkpt><trkpt lat="45.180028458144875" lon="9.3195771038535"><ele>70.75</ele><time>2026-04-18T09:07:06.999Z</time></trkpt><trkpt lat="45.17993307539279" lon="9.31948890154336"><ele>71.0</ele><time>2026-04-18T09:07:07.999Z</time></trkpt><trkpt lat="45.17983838549836" lon="9.319392557898107"><ele>71.0</ele><time>2026-04-18T09:07:08.999Z</time></trkpt><trkpt lat="45.179743416676104" lon="9.3192925324898"><ele>71.0</ele><time>2026-04-18T09:07:09.999Z</time></trkpt><trkpt lat="45.17964632909694" lon="9.319191161638557"><ele>71.0</ele><time>2026-04-18T09:07:10.999Z</time></trkpt><trkpt lat="45.17954818712349" lon="9.319093431725612"><ele>71.0</ele><time>2026-04-18T09:07:11.999Z</time></trkpt><trkpt lat="45.179449286291124" lon="9.31899850927147"><ele>71.0</ele><time>2026-04-18T09:07:12.999Z</time></trkpt><trkpt lat="45.17935512766243" lon="9.318899280369568"><ele>71.0</ele><time>2026-04-18T09:07:13.999Z</time></trkpt><trkpt lat="45.17926993606195" lon="9.318798094270221"><ele>71.0</ele><time>2026-04-18T09:07:14.999Z</time></trkpt><trkpt lat="45.17918927344344" lon="9.318691604720131"><ele>71.0</ele><time>2026-04-18T09:07:15.999Z</time></trkpt><trkpt lat="45.17910776693927" lon="9.318583763563108"><ele>71.0</ele><time>2026-04-18T09:07:16.999Z</time></trkpt><trkpt lat="45.17902401962268" lon="9.318475903381076"><ele>71.0</ele><time>2026-04-18T09:07:17.999Z</time></trkpt><trkpt lat="45.17893604572349" lon="9.318369450055046"><ele>71.0</ele><time>2026-04-18T09:07:18.999Z</time></trkpt><trkpt lat="45.17884446240219" lon="9.318266918810782"><ele>71.0</ele><time>2026-04-18T09:07:19.999Z</time></trkpt><trkpt lat="45.17875290250323" lon="9.318168866295482"><ele>71.2</ele><time>2026-04-18T09:07:21Z</time></trkpt><trkpt lat="45.17866030757255" lon="9.318073602002928"><ele>71.39999999999999</ele><time>2026-04-18T09:07:22Z</time></trkpt><trkpt lat="45.178568983275134" lon="9.317982365642905"><ele>71.6</ele><time>2026-04-18T09:07:23Z</time></trkpt><trkpt lat="45.178483443753684" lon="9.317902442679399"><ele>71.8</ele><time>2026-04-18T09:07:24Z</time></trkpt><trkpt lat="45.178402648329765" lon="9.317832384497835"><ele>72.0</ele><time>2026-04-18T09:07:25Z</time></trkpt><trkpt lat="45.17831973999493" lon="9.317780923150554"><ele>72.0</ele><time>2026-04-18T09:07:26Z</time></trkpt><trkpt lat="45.17822988643855" lon="9.317739634945239"><ele>72.0</ele><time>2026-04-18T09:07:27Z</time></trkpt><trkpt lat="45.17814375580964" lon="9.31770580596708"><ele>72.0</ele><time>2026-04-18T09:07:28Z</time></trkpt><trkpt lat="45.178066046760996" lon="9.317674807899907"><ele>72.0</ele><time>2026-04-18T09:07:29Z</time></trkpt><trkpt lat="45.17800232600112" lon="9.317627231775834"><ele>72.0</ele><time>2026-04-18T09:07:30Z</time></trkpt><trkpt lat="45.17793557380098" lon="9.317596853520948"><ele>72.0</ele><time>2026-04-18T09:07:31Z</time></trkpt><trkpt lat="45.17786961420255" lon="9.31756683595677"><ele>72.2</ele><time>2026-04-18T09:07:32Z</time></trkpt><trkpt lat="45.177792799080066" lon="9.31753351144542"><ele>72.4</ele><time>2026-04-18T09:07:33Z</time></trkpt><trkpt lat="45.17770413239186" lon="9.317515709462903"><ele>72.6</ele><time>2026-04-18T09:07:34Z</time></trkpt><trkpt lat="45.17760482688019" lon="9.317459577577624"><ele>72.8</ele><time>2026-04-18T09:07:35Z</time></trkpt><trkpt lat="45.17750686529511" lon="9.317432101329674"><ele>73.0</ele><time>2026-04-18T09:07:36Z</time></trkpt><trkpt lat="45.177394806770316" lon="9.317401012905595"><ele>73.2</ele><time>2026-04-18T09:07:37Z</time></trkpt><trkpt lat="45.1773056858291" lon="9.317337355775068"><ele>73.4</ele><time>2026-04-18T09:07:38Z</time></trkpt><trkpt lat="45.17721048162991" lon="9.317293891653597"><ele>73.60000000000001</ele><time>2026-04-18T09:07:39Z</time></trkpt><trkpt lat="45.177118617280115" lon="9.317253035535149"><ele>73.8</ele><time>2026-04-18T09:07:40Z</time></trkpt><trkpt lat="45.17703026738293" lon="9.317237471861974"><ele>74.0</ele><time>2026-04-18T09:07:41Z</time></trkpt><trkpt lat="45.17694116300605" lon="9.317200094148674"><ele>74.0</ele><time>2026-04-18T09:07:42Z</time></trkpt><trkpt lat="45.17685275760176" lon="9.317167068219726"><ele>74.0</ele><time>2026-04-18T09:07:43Z</time></trkpt><trkpt lat="45.176781004653314" lon="9.317114104710516"><ele>74.0</ele><time>2026-04-18T09:07:44Z</time></trkpt><trkpt lat="45.17670570290076" lon="9.31708365701414"><ele>74.0</ele><time>2026-04-18T09:07:45Z</time></trkpt><trkpt lat="45.17663147493267" lon="9.317053643506213"><ele>74.0</ele><time>2026-04-18T09:07:46Z</time></trkpt><trkpt lat="45.17656329095545" lon="9.317027200920352"><ele>74.0</ele><time>2026-04-18T09:07:47Z</time></trkpt><trkpt lat="45.176498253846894" lon="9.317025589426299"><ele>74.0</ele><time>2026-04-18T09:07:48Z</time></trkpt><trkpt lat="45.176406391054265" lon="9.316980476513054"><ele>74.0</ele><time>2026-04-18T09:07:50.001Z</time></trkpt><trkpt lat="45.176321625135095" lon="9.316951091035302"><ele>74.0</ele><time>2026-04-18T09:07:55.001Z</time></trkpt><trkpt lat="45.17626161564439" lon="9.316913143564962"><ele>74.0</ele><time>2026-04-18T09:07:57.001Z</time></trkpt><trkpt lat="45.17620347023001" lon="9.316831049551825"><ele>74.0</ele><time>2026-04-18T09:07:59.001Z</time></trkpt><trkpt lat="45.17610667841392" lon="9.316868204108465"><ele>74.0</ele><time>2026-04-18T09:08:00.001Z</time></trkpt><trkpt lat="45.17603964460892" lon="9.316876419003277"><ele>74.0</ele><time>2026-04-18T09:08:01.001Z</time></trkpt><trkpt lat="45.17597184005655" lon="9.316892160688463"><ele>74.0</ele><time>2026-04-18T09:08:02.001Z</time></trkpt><trkpt lat="45.17590356742556" lon="9.316872264886369"><ele>74.0</ele><time>2026-04-18T09:08:03.001Z</time></trkpt><trkpt lat="45.175815264365426" lon="9.316867517003084"><ele>74.0</ele><time>2026-04-18T09:08:04.001Z</time></trkpt><trkpt lat="45.17570690351282" lon="9.316879102090208"><ele>74.0</ele><time>2026-04-18T09:08:05.001Z</time></trkpt><trkpt lat="45.17560968180572" lon="9.316863203688786"><ele>74.0</ele><time>2026-04-18T09:08:06.001Z</time></trkpt><trkpt lat="45.17552459123039" lon="9.316851965015054"><ele>73.8</ele><time>2026-04-18T09:08:07.001Z</time></trkpt><trkpt lat="45.1754476996585" lon="9.31683786121504"><ele>73.60000000000001</ele><time>2026-04-18T09:08:08.001Z</time></trkpt><trkpt lat="45.175360470180244" lon="9.316818660433828"><ele>73.4</ele><time>2026-04-18T09:08:09.001Z</time></trkpt><trkpt lat="45.17527482288304" lon="9.31680161796794"><ele>73.2</ele><time>2026-04-18T09:08:10.001Z</time></trkpt><trkpt lat="45.175174816974895" lon="9.31678975565585"><ele>73.0</ele><time>2026-04-18T09:08:11.001Z</time></trkpt><trkpt lat="45.175068689369084" lon="9.316777158689895"><ele>73.0</ele><time>2026-04-18T09:08:12.001Z</time></trkpt><trkpt lat="45.17495951551134" lon="9.31675707039391"><ele>73.0</ele><time>2026-04-18T09:08:13.001Z</time></trkpt><trkpt lat="45.17484613037645" lon="9.316727204646122"><ele>73.0</ele><time>2026-04-18T09:08:14.001Z</time></trkpt><trkpt lat="45.17473525019398" lon="9.31671094393221"><ele>73.0</ele><time>2026-04-18T09:08:15.001Z</time></trkpt><trkpt lat="45.17465833768052" lon="9.316706817526907"><ele>73.0</ele><time>2026-04-18T09:08:16.001Z</time></trkpt><trkpt lat="45.174583555279135" lon="9.31667505281677"><ele>73.0</ele><time>2026-04-18T09:08:18.001Z</time></trkpt><trkpt lat="45.174551927925684" lon="9.316929533377378"><ele>73.0</ele><time>2026-04-18T09:08:21.002Z</time></trkpt><trkpt lat="45.1745370619143" lon="9.317036653546705"><ele>73.0</ele><time>2026-04-18T09:08:22.002Z</time></trkpt><trkpt lat="45.17450801575893" lon="9.317153757923338"><ele>73.0</ele><time>2026-04-18T09:08:23.002Z</time></trkpt><trkpt lat="45.17448143267789" lon="9.317254676907988"><ele>73.0</ele><time>2026-04-18T09:08:24.002Z</time></trkpt><trkpt lat="45.17446427504214" lon="9.31735810256207"><ele>73.0</ele><time>2026-04-18T09:08:25.002Z</time></trkpt><trkpt lat="45.17443716143157" lon="9.31747955747036"><ele>73.0</ele><time>2026-04-18T09:08:26.002Z</time></trkpt><trkpt lat="45.17441355076183" lon="9.317601252240562"><ele>73.0</ele><time>2026-04-18T09:08:27.002Z</time></trkpt><trkpt lat="45.174394309534236" lon="9.317710845813226"><ele>73.0</ele><time>2026-04-18T09:08:28.002Z</time></trkpt><trkpt lat="45.17437823282045" lon="9.31780182718753"><ele>73.0</ele><time>2026-04-18T09:08:29.002Z</time></trkpt><trkpt lat="45.174356892681416" lon="9.317913379167566"><ele>73.0</ele><time>2026-04-18T09:08:30.002Z</time></trkpt><trkpt lat="45.174334252477614" lon="9.318019799783844"><ele>72.8</ele><time>2026-04-18T09:08:31.002Z</time></trkpt><trkpt lat="45.17430794556503" lon="9.318143131497148"><ele>72.6</ele><time>2026-04-18T09:08:32.002Z</time></trkpt><trkpt lat="45.17428089127309" lon="9.318275917074605"><ele>72.4</ele><time>2026-04-18T09:08:33.002Z</time></trkpt><trkpt lat="45.1742595247983" lon="9.318426885463824"><ele>72.2</ele><time>2026-04-18T09:08:34.002Z</time></trkpt><trkpt lat="45.174227404628795" lon="9.318600792260414"><ele>72.0</ele><time>2026-04-18T09:08:35.002Z</time></trkpt><trkpt lat="45.174190529939246" lon="9.31881076922303"><ele>71.5</ele><time>2026-04-18T09:08:36.002Z</time></trkpt><trkpt lat="45.17413682169374" lon="9.319010115737761"><ele>71.0</ele><time>2026-04-18T09:08:37.002Z</time></trkpt><trkpt lat="45.174114450487195" lon="9.319217716313851"><ele>70.5</ele><time>2026-04-18T09:08:38.002Z</time></trkpt><trkpt lat="45.17405947825027" lon="9.319415787192058"><ele>70.0</ele><time>2026-04-18T09:08:39.002Z</time></trkpt><trkpt lat="45.1740385543994" lon="9.319615785057188"><ele>70.33333333333333</ele><time>2026-04-18T09:08:40.002Z</time></trkpt><trkpt lat="45.17399831527124" lon="9.319826853847193"><ele>70.66666666666667</ele><time>2026-04-18T09:08:41.002Z</time></trkpt><trkpt lat="45.17395492412958" lon="9.320058345096557"><ele>71.0</ele><time>2026-04-18T09:08:42.002Z</time></trkpt><trkpt lat="45.17391094853033" lon="9.320297787470732"><ele>71.0</ele><time>2026-04-18T09:08:43.002Z</time></trkpt><trkpt lat="45.173866254048875" lon="9.320546365421128"><ele>71.0</ele><time>2026-04-18T09:08:44.002Z</time></trkpt><trkpt lat="45.17382325081812" lon="9.320794942825383"><ele>71.0</ele><time>2026-04-18T09:08:45.002Z</time></trkpt><trkpt lat="45.1737813606197" lon="9.321022355100125"><ele>71.0</ele><time>2026-04-18T09:08:46.002Z</time></trkpt><trkpt lat="45.17372377988749" lon="9.321246304588625"><ele>71.0</ele><time>2026-04-18T09:08:47.002Z</time></trkpt><trkpt lat="45.17368078254756" lon="9.32147344639949"><ele>71.0</ele><time>2026-04-18T09:08:48.002Z</time></trkpt><trkpt lat="45.17365740837044" lon="9.321686841835719"><ele>71.0</ele><time>2026-04-18T09:08:49.002Z</time></trkpt><trkpt lat="45.17362262385394" lon="9.321880180717061"><ele>71.0</ele><time>2026-04-18T09:08:50.002Z</time></trkpt><trkpt lat="45.173589438900514" lon="9.32206734476406"><ele>71.0</ele><time>2026-04-18T09:08:51.002Z</time></trkpt><trkpt lat="45.17355723400522" lon="9.322250769941908"><ele>71.0</ele><time>2026-04-18T09:08:52.002Z</time></trkpt><trkpt lat="45.17352296682848" lon="9.322435537859374"><ele>71.0</ele><time>2026-04-18T09:08:53.002Z</time></trkpt><trkpt lat="45.173489653013675" lon="9.322618075388434"><ele>71.0</ele><time>2026-04-18T09:08:54.002Z</time></trkpt><trkpt lat="45.173432697560116" lon="9.322801985474257"><ele>71.0</ele><time>2026-04-18T09:08:55.003Z</time></trkpt><trkpt lat="45.17338620218495" lon="9.322985680302201"><ele>71.0</ele><time>2026-04-18T09:08:56.003Z</time></trkpt><trkpt lat="45.17333403814475" lon="9.323156033774927"><ele>71.0</ele><time>2026-04-18T09:08:57.003Z</time></trkpt><trkpt lat="45.173276810919766" lon="9.323333707755822"><ele>71.0</ele><time>2026-04-18T09:08:58.003Z</time></trkpt><trkpt lat="45.17322766840112" lon="9.32352593110332"><ele>71.0</ele><time>2026-04-18T09:08:59.003Z</time></trkpt><trkpt lat="45.17317050226477" lon="9.323705625565278"><ele>71.0</ele><time>2026-04-18T09:09:00.003Z</time></trkpt><trkpt lat="45.1731152847297" lon="9.323876525505781"><ele>71.0</ele><time>2026-04-18T09:09:01.003Z</time></trkpt><trkpt lat="45.17306270441438" lon="9.324046976964624"><ele>71.0</ele><time>2026-04-18T09:09:02.003Z</time></trkpt><trkpt lat="45.17301158039963" lon="9.324225407877273"><ele>71.0</ele><time>2026-04-18T09:09:03.003Z</time></trkpt><trkpt lat="45.17295442924861" lon="9.324402017244186"><ele>71.0</ele><time>2026-04-18T09:09:03.998Z</time></trkpt><trkpt lat="45.172900900916844" lon="9.32457029952102"><ele>71.0</ele><time>2026-04-18T09:09:04.998Z</time></trkpt><trkpt lat="45.17285249711611" lon="9.324722856424872"><ele>71.0</ele><time>2026-04-18T09:09:05.998Z</time></trkpt><trkpt lat="45.17280591526201" lon="9.32487791514532"><ele>71.0</ele><time>2026-04-18T09:09:06.998Z</time></trkpt><trkpt lat="45.172753126080686" lon="9.32504429689412"><ele>71.0</ele><time>2026-04-18T09:09:07.998Z</time></trkpt><trkpt lat="45.17270119327667" lon="9.325218563118765"><ele>71.0</ele><time>2026-04-18T09:09:08.998Z</time></trkpt><trkpt lat="45.172648568581785" lon="9.325400910704058"><ele>71.0</ele><time>2026-04-18T09:09:09.998Z</time></trkpt><trkpt lat="45.17259865419204" lon="9.325592875463833"><ele>71.0</ele><time>2026-04-18T09:09:10.999Z</time></trkpt><trkpt lat="45.17254548039382" lon="9.325797427491246"><ele>71.0</ele><time>2026-04-18T09:09:11.999Z</time></trkpt><trkpt lat="45.17248714897727" lon="9.326006471477324"><ele>71.0</ele><time>2026-04-18T09:09:12.999Z</time></trkpt><trkpt lat="45.172434223539085" lon="9.326221928982125"><ele>71.0</ele><time>2026-04-18T09:09:13.999Z</time></trkpt><trkpt lat="45.17238939945271" lon="9.326437595314403"><ele>71.0</ele><time>2026-04-18T09:09:14.999Z</time></trkpt><trkpt lat="45.17234350038901" lon="9.326652430408686"><ele>70.75</ele><time>2026-04-18T09:09:15.999Z</time></trkpt><trkpt lat="45.17229288676965" lon="9.326851914486292"><ele>70.5</ele><time>2026-04-18T09:09:16.999Z</time></trkpt><trkpt lat="45.1722433386939" lon="9.327047360039234"><ele>70.25</ele><time>2026-04-18T09:09:17.999Z</time></trkpt><trkpt lat="45.17219178174346" lon="9.327247779210389"><ele>70.0</ele><time>2026-04-18T09:09:18.999Z</time></trkpt><trkpt lat="45.17214309549853" lon="9.327449210515903"><ele>70.0</ele><time>2026-04-18T09:09:19.999Z</time></trkpt><trkpt lat="45.172099154372944" lon="9.32763883560299"><ele>70.0</ele><time>2026-04-18T09:09:20.999Z</time></trkpt><trkpt lat="45.17205231139465" lon="9.327841241093157"><ele>70.0</ele><time>2026-04-18T09:09:21.999Z</time></trkpt><trkpt lat="45.171991049059216" lon="9.328031530187113"><ele>70.0</ele><time>2026-04-18T09:09:22.999Z</time></trkpt><trkpt lat="45.17193895943028" lon="9.32823150339715"><ele>70.0</ele><time>2026-04-18T09:09:23.999Z</time></trkpt><trkpt lat="45.17189963357235" lon="9.328423125238022"><ele>70.0</ele><time>2026-04-18T09:09:25Z</time></trkpt><trkpt lat="45.171831658951575" lon="9.328595257431061"><ele>70.0</ele><time>2026-04-18T09:09:26Z</time></trkpt><trkpt lat="45.17175055707253" lon="9.328760527125716"><ele>70.0</ele><time>2026-04-18T09:09:27Z</time></trkpt><trkpt lat="45.17163774625891" lon="9.328917000762324"><ele>70.0</ele><time>2026-04-18T09:09:28Z</time></trkpt><trkpt lat="45.171529036476805" lon="9.329101160984456"><ele>70.0</ele><time>2026-04-18T09:09:29Z</time></trkpt><trkpt lat="45.171415663190906" lon="9.329293221321377"><ele>70.0</ele><time>2026-04-18T09:09:30Z</time></trkpt><trkpt lat="45.17131008432954" lon="9.32947240364825"><ele>70.0</ele><time>2026-04-18T09:09:31Z</time></trkpt><trkpt lat="45.17120736391092" lon="9.32964779935478"><ele>70.0</ele><time>2026-04-18T09:09:32Z</time></trkpt><trkpt lat="45.171106490173514" lon="9.329820042061346"><ele>70.0</ele><time>2026-04-18T09:09:33Z</time></trkpt><trkpt lat="45.171004822927635" lon="9.329993640008624"><ele>70.0</ele><time>2026-04-18T09:09:34Z</time></trkpt><trkpt lat="45.1709042699912" lon="9.33016533514245"><ele>70.0</ele><time>2026-04-18T09:09:35Z</time></trkpt><trkpt lat="45.17080568358021" lon="9.330333672358899"><ele>70.0</ele><time>2026-04-18T09:09:36Z</time></trkpt><trkpt lat="45.1707095307343" lon="9.330497854211105"><ele>69.75</ele><time>2026-04-18T09:09:37Z</time></trkpt><trkpt lat="45.17061704027522" lon="9.330655782469368"><ele>69.5</ele><time>2026-04-18T09:09:38Z</time></trkpt><trkpt lat="45.170521945676136" lon="9.330818157364973"><ele>69.25</ele><time>2026-04-18T09:09:39Z</time></trkpt><trkpt lat="45.17042579648612" lon="9.330982770995018"><ele>69.0</ele><time>2026-04-18T09:09:40Z</time></trkpt><trkpt lat="45.170330588924166" lon="9.331150423013629"><ele>69.0</ele><time>2026-04-18T09:09:41Z</time></trkpt><trkpt lat="45.17023839984847" lon="9.33131276063695"><ele>69.0</ele><time>2026-04-18T09:09:42Z</time></trkpt><trkpt lat="45.17014496933026" lon="9.331477283400549"><ele>69.0</ele><time>2026-04-18T09:09:43Z</time></trkpt><trkpt lat="45.170054320641185" lon="9.33163729597625"><ele>69.0</ele><time>2026-04-18T09:09:44Z</time></trkpt><trkpt lat="45.169967896716756" lon="9.331789890992532"><ele>69.0</ele><time>2026-04-18T09:09:45Z</time></trkpt><trkpt lat="45.16989144517133" lon="9.331924878047117"><ele>69.0</ele><time>2026-04-18T09:09:46.001Z</time></trkpt><trkpt lat="45.1698185631903" lon="9.33205293384374"><ele>69.0</ele><time>2026-04-18T09:09:47.001Z</time></trkpt><trkpt lat="45.169748092090074" lon="9.332175209897226"><ele>69.0</ele><time>2026-04-18T09:09:48.001Z</time></trkpt><trkpt lat="45.169687495803444" lon="9.332280351964847"><ele>69.0</ele><time>2026-04-18T09:09:49.001Z</time></trkpt><trkpt lat="45.16963367532972" lon="9.332373737155093"><ele>69.60000000000001</ele><time>2026-04-18T09:09:50.001Z</time></trkpt><trkpt lat="45.16958493239016" lon="9.332458312316335"><ele>70.2</ele><time>2026-04-18T09:09:51.001Z</time></trkpt><trkpt lat="45.16952994467044" lon="9.33256567580691"><ele>70.80000000000001</ele><time>2026-04-18T09:09:53.001Z</time></trkpt><trkpt lat="45.16943556165452" lon="9.332461730269172"><ele>71.4</ele><time>2026-04-18T09:09:56.001Z</time></trkpt><trkpt lat="45.169397188311365" lon="9.332380632269336"><ele>72.0</ele><time>2026-04-18T09:09:57.001Z</time></trkpt><trkpt lat="45.16933903298334" lon="9.332259147546333"><ele>71.5</ele><time>2026-04-18T09:09:58.001Z</time></trkpt><trkpt lat="45.169266559609106" lon="9.332114808596314"><ele>71.0</ele><time>2026-04-18T09:09:59.001Z</time></trkpt><trkpt lat="45.169188402959655" lon="9.331960762860382"><ele>70.5</ele><time>2026-04-18T09:10:00.001Z</time></trkpt><trkpt lat="45.169117810552265" lon="9.331826367241733"><ele>70.0</ele><time>2026-04-18T09:10:01.001Z</time></trkpt><trkpt lat="45.169037661147335" lon="9.331670150580862"><ele>70.0</ele><time>2026-04-18T09:10:02.001Z</time></trkpt><trkpt lat="45.168954523009816" lon="9.33150819784019"><ele>70.0</ele><time>2026-04-18T09:10:03.001Z</time></trkpt><trkpt lat="45.16887460817818" lon="9.331357896692024"><ele>70.0</ele><time>2026-04-18T09:10:04.001Z</time></trkpt><trkpt lat="45.16880112649932" lon="9.331223969922775"><ele>70.0</ele><time>2026-04-18T09:10:05.001Z</time></trkpt><trkpt lat="45.16872825504357" lon="9.33108842485225"><ele>70.0</ele><time>2026-04-18T09:10:06.001Z</time></trkpt><trkpt lat="45.16865463488831" lon="9.330947005790865"><ele>70.0</ele><time>2026-04-18T09:10:07.001Z</time></trkpt><trkpt lat="45.16858539769972" lon="9.330814887726882"><ele>70.0</ele><time>2026-04-18T09:10:08.001Z</time></trkpt><trkpt lat="45.168517429232374" lon="9.330691547812908"><ele>70.0</ele><time>2026-04-18T09:10:09.001Z</time></trkpt><trkpt lat="45.16845140609626" lon="9.330568553996418"><ele>70.0</ele><time>2026-04-18T09:10:10.001Z</time></trkpt><trkpt lat="45.16838473740708" lon="9.330443904582221"><ele>70.0</ele><time>2026-04-18T09:10:11.001Z</time></trkpt><trkpt lat="45.16831890137071" lon="9.33032188443369"><ele>70.0</ele><time>2026-04-18T09:10:12.001Z</time></trkpt><trkpt lat="45.16824537310661" lon="9.3301932922286"><ele>70.0</ele><time>2026-04-18T09:10:13.001Z</time></trkpt><trkpt lat="45.16817770197969" lon="9.330070690260772"><ele>70.0</ele><time>2026-04-18T09:10:14.001Z</time></trkpt><trkpt lat="45.16810974373895" lon="9.329944776961698"><ele>70.0</ele><time>2026-04-18T09:10:15.002Z</time></trkpt><trkpt lat="45.168047539037026" lon="9.329827033453563"><ele>70.0</ele><time>2026-04-18T09:10:16.002Z</time></trkpt><trkpt lat="45.16799169802985" lon="9.32970610455271"><ele>70.0</ele><time>2026-04-18T09:10:17.002Z</time></trkpt><trkpt lat="45.167933246690716" lon="9.329583913896617"><ele>70.0</ele><time>2026-04-18T09:10:18.002Z</time></trkpt><trkpt lat="45.16786913420309" lon="9.329462507527596"><ele>70.0</ele><time>2026-04-18T09:10:19.002Z</time></trkpt><trkpt lat="45.16779973080177" lon="9.329333762486584"><ele>70.0</ele><time>2026-04-18T09:10:20.002Z</time></trkpt><trkpt lat="45.16773090809512" lon="9.329208126630796"><ele>70.0</ele><time>2026-04-18T09:10:21.002Z</time></trkpt><trkpt lat="45.16766966781566" lon="9.329090748977764"><ele>70.0</ele><time>2026-04-18T09:10:22.002Z</time></trkpt><trkpt lat="45.16761285227586" lon="9.328983549555389"><ele>70.0</ele><time>2026-04-18T09:10:23.002Z</time></trkpt><trkpt lat="45.167559960070804" lon="9.328884616696776"><ele>70.0</ele><time>2026-04-18T09:10:24.002Z</time></trkpt><trkpt lat="45.16751404236237" lon="9.328797088180014"><ele>70.0</ele><time>2026-04-18T09:10:25.002Z</time></trkpt><trkpt lat="45.1674685671172" lon="9.328709833833496"><ele>70.0</ele><time>2026-04-18T09:10:26.002Z</time></trkpt><trkpt lat="45.16742353158763" lon="9.328630473662365"><ele>70.0</ele><time>2026-04-18T09:10:27.002Z</time></trkpt><trkpt lat="45.16743889486904" lon="9.32849908014417"><ele>70.0</ele><time>2026-04-18T09:10:28.002Z</time></trkpt><trkpt lat="45.16738847748368" lon="9.328414546894379"><ele>70.0</ele><time>2026-04-18T09:10:29.002Z</time></trkpt><trkpt lat="45.16732633979788" lon="9.32830740201945"><ele>70.0</ele><time>2026-04-18T09:10:30.002Z</time></trkpt><trkpt lat="45.1672526739263" lon="9.328185851769167"><ele>69.25</ele><time>2026-04-18T09:10:31.002Z</time></trkpt><trkpt lat="45.16717220629904" lon="9.328047491090258"><ele>68.5</ele><time>2026-04-18T09:10:32.002Z</time></trkpt><trkpt lat="45.1670951065797" lon="9.3278996029727"><ele>67.75</ele><time>2026-04-18T09:10:33.002Z</time></trkpt><trkpt lat="45.16701180516998" lon="9.327739563963668"><ele>67.0</ele><time>2026-04-18T09:10:34.002Z</time></trkpt><trkpt lat="45.166924890748646" lon="9.327575032480821"><ele>67.0</ele><time>2026-04-18T09:10:35.002Z</time></trkpt><trkpt lat="45.16683754268376" lon="9.32740880612193"><ele>67.0</ele><time>2026-04-18T09:10:36.002Z</time></trkpt><trkpt lat="45.16674703010271" lon="9.327236480116792"><ele>67.0</ele><time>2026-04-18T09:10:37.002Z</time></trkpt><trkpt lat="45.16666668220069" lon="9.327053197476864"><ele>67.25</ele><time>2026-04-18T09:10:38.002Z</time></trkpt><trkpt lat="45.16656638813667" lon="9.326898698098557"><ele>67.5</ele><time>2026-04-18T09:10:39.002Z</time></trkpt><trkpt lat="45.16648276701514" lon="9.326737767675706"><ele>67.75</ele><time>2026-04-18T09:10:40.002Z</time></trkpt><trkpt lat="45.16640180595061" lon="9.326580158684113"><ele>68.0</ele><time>2026-04-18T09:10:41.002Z</time></trkpt><trkpt lat="45.166335067884816" lon="9.326410079729191"><ele>69.0</ele><time>2026-04-18T09:10:42.002Z</time></trkpt><trkpt lat="45.16625777372364" lon="9.326259364849362"><ele>70.0</ele><time>2026-04-18T09:10:43.002Z</time></trkpt><trkpt lat="45.16617170953895" lon="9.326130085804804"><ele>71.0</ele><time>2026-04-18T09:10:44.002Z</time></trkpt><trkpt lat="45.16609775501551" lon="9.325981355129521"><ele>72.0</ele><time>2026-04-18T09:10:45.002Z</time></trkpt><trkpt lat="45.166022836430585" lon="9.325836052779584"><ele>72.0</ele><time>2026-04-18T09:10:46.002Z</time></trkpt><trkpt lat="45.16594299322632" lon="9.325682092988634"><ele>72.0</ele><time>2026-04-18T09:10:47.002Z</time></trkpt><trkpt lat="45.165861049735774" lon="9.325529790458836"><ele>72.0</ele><time>2026-04-18T09:10:48.003Z</time></trkpt><trkpt lat="45.16579619941726" lon="9.325365880623508"><ele>72.0</ele><time>2026-04-18T09:10:49.003Z</time></trkpt><trkpt lat="45.16571617490369" lon="9.32523593505845"><ele>72.0</ele><time>2026-04-18T09:10:50.003Z</time></trkpt><trkpt lat="45.16563671594321" lon="9.325088129161779"><ele>72.0</ele><time>2026-04-18T09:10:51.003Z</time></trkpt><trkpt lat="45.16557046377657" lon="9.324932841126575"><ele>72.0</ele><time>2026-04-18T09:10:52.003Z</time></trkpt><trkpt lat="45.16549989315351" lon="9.324799095613258"><ele>72.0</ele><time>2026-04-18T09:10:53.003Z</time></trkpt><trkpt lat="45.165428925408015" lon="9.324664597804123"><ele>72.5</ele><time>2026-04-18T09:10:54.003Z</time></trkpt><trkpt lat="45.165343630199644" lon="9.324541269953617"><ele>73.0</ele><time>2026-04-18T09:10:55.003Z</time></trkpt><trkpt lat="45.16528099953004" lon="9.324384249302309"><ele>73.5</ele><time>2026-04-18T09:10:56.003Z</time></trkpt><trkpt lat="45.16520441404056" lon="9.324239104811285"><ele>74.0</ele><time>2026-04-18T09:10:57.003Z</time></trkpt><trkpt lat="45.16511572611933" lon="9.32410767040673"><ele>74.0</ele><time>2026-04-18T09:10:58.003Z</time></trkpt><trkpt lat="45.16503321505894" lon="9.323956889100703"><ele>74.0</ele><time>2026-04-18T09:10:59.003Z</time></trkpt><trkpt lat="45.164951501018166" lon="9.32380219515401"><ele>74.0</ele><time>2026-04-18T09:11:00.003Z</time></trkpt><trkpt lat="45.16486611872666" lon="9.323649645668114"><ele>74.0</ele><time>2026-04-18T09:11:01.003Z</time></trkpt><trkpt lat="45.16477875198839" lon="9.323501297970596"><ele>73.5</ele><time>2026-04-18T09:11:02.003Z</time></trkpt><trkpt lat="45.16469539249844" lon="9.323366086269013"><ele>73.0</ele><time>2026-04-18T09:11:03.003Z</time></trkpt><trkpt lat="45.164611570968354" lon="9.323227082294615"><ele>72.5</ele><time>2026-04-18T09:11:04.003Z</time></trkpt><trkpt lat="45.16452400261895" lon="9.323074529650109"><ele>72.0</ele><time>2026-04-18T09:11:05.003Z</time></trkpt><trkpt lat="45.16444163226231" lon="9.32292330296008"><ele>72.0</ele><time>2026-04-18T09:11:06.003Z</time></trkpt><trkpt lat="45.164360043503905" lon="9.322782692000755"><ele>72.0</ele><time>2026-04-18T09:11:07.003Z</time></trkpt><trkpt lat="45.16430446749997" lon="9.322630319442496"><ele>72.0</ele><time>2026-04-18T09:11:08.003Z</time></trkpt><trkpt lat="45.1642606985342" lon="9.322483658980156"><ele>72.0</ele><time>2026-04-18T09:11:09.003Z</time></trkpt><trkpt lat="45.16424176088231" lon="9.322324135906005"><ele>71.66666666666667</ele><time>2026-04-18T09:11:09.999Z</time></trkpt><trkpt lat="45.16421470169146" lon="9.322167265186025"><ele>71.33333333333333</ele><time>2026-04-18T09:11:10.999Z</time></trkpt><trkpt lat="45.16418817637288" lon="9.322025890398704"><ele>71.0</ele><time>2026-04-18T09:11:11.999Z</time></trkpt><trkpt lat="45.164149735580175" lon="9.321913461107117"><ele>70.66666666666666</ele><time>2026-04-18T09:11:12.999Z</time></trkpt><trkpt lat="45.164129450863065" lon="9.321823939293562"><ele>70.33333333333333</ele><time>2026-04-18T09:11:13.999Z</time></trkpt><trkpt lat="45.164118833801595" lon="9.32172774078152"><ele>70.0</ele><time>2026-04-18T09:11:15.999Z</time></trkpt><trkpt lat="45.16402740282381" lon="9.321661609121914"><ele>70.0</ele><time>2026-04-18T09:11:17.999Z</time></trkpt><trkpt lat="45.16396580715275" lon="9.321640053729196"><ele>70.0</ele><time>2026-04-18T09:11:18.999Z</time></trkpt><trkpt lat="45.163907105077016" lon="9.321591419765662"><ele>70.0</ele><time>2026-04-18T09:11:19.999Z</time></trkpt><trkpt lat="45.163840682272635" lon="9.321542571958044"><ele>70.0</ele><time>2026-04-18T09:11:20.999Z</time></trkpt><trkpt lat="45.163776222139546" lon="9.321494372861814"><ele>70.0</ele><time>2026-04-18T09:11:21.999Z</time></trkpt><trkpt lat="45.16372328145644" lon="9.32144398098495"><ele>70.0</ele><time>2026-04-18T09:11:22.999Z</time></trkpt><trkpt lat="45.16366869985073" lon="9.321389229255777"><ele>70.0</ele><time>2026-04-18T09:11:23.999Z</time></trkpt><trkpt lat="45.16362738464768" lon="9.321317168907655"><ele>70.33333333333333</ele><time>2026-04-18T09:11:24.999Z</time></trkpt><trkpt lat="45.16356580257886" lon="9.321227498912426"><ele>70.66666666666666</ele><time>2026-04-18T09:11:27Z</time></trkpt><trkpt lat="45.16346933879533" lon="9.32129559182632"><ele>71.0</ele><time>2026-04-18T09:11:28Z</time></trkpt><trkpt lat="45.16339025377169" lon="9.321311636010496"><ele>71.33333333333333</ele><time>2026-04-18T09:11:29Z</time></trkpt><trkpt lat="45.1633095600059" lon="9.321293167105036"><ele>71.66666666666667</ele><time>2026-04-18T09:11:30Z</time></trkpt><trkpt lat="45.163236583460396" lon="9.321269888834944"><ele>72.0</ele><time>2026-04-18T09:11:31Z</time></trkpt><trkpt lat="45.16311926540996" lon="9.321232952573018"><ele>72.0</ele><time>2026-04-18T09:11:33Z</time></trkpt><trkpt lat="45.162990520885835" lon="9.321200377683175"><ele>72.0</ele><time>2026-04-18T09:11:35Z</time></trkpt><trkpt lat="45.162908200550966" lon="9.32117876276779"><ele>72.0</ele><time>2026-04-18T09:11:36Z</time></trkpt><trkpt lat="45.16280879558264" lon="9.321172368095459"><ele>72.0</ele><time>2026-04-18T09:11:37Z</time></trkpt><trkpt lat="45.16269271126801" lon="9.321129452878308"><ele>72.0</ele><time>2026-04-18T09:11:38Z</time></trkpt><trkpt lat="45.16256644929056" lon="9.321096413492908"><ele>72.0</ele><time>2026-04-18T09:11:39Z</time></trkpt><trkpt lat="45.16244638856568" lon="9.321062802656826"><ele>72.0</ele><time>2026-04-18T09:11:40Z</time></trkpt><trkpt lat="45.16231627754499" lon="9.321032489178235"><ele>72.0</ele><time>2026-04-18T09:11:41Z</time></trkpt><trkpt lat="45.16217935244831" lon="9.320996060325662"><ele>72.0</ele><time>2026-04-18T09:11:42Z</time></trkpt><trkpt lat="45.16203359110234" lon="9.320954434744177"><ele>72.0</ele><time>2026-04-18T09:11:43Z</time></trkpt><trkpt lat="45.16188904145284" lon="9.3209123156726"><ele>72.0</ele><time>2026-04-18T09:11:44Z</time></trkpt><trkpt lat="45.16175361060533" lon="9.320870759910841"><ele>72.0</ele><time>2026-04-18T09:11:45Z</time></trkpt><trkpt lat="45.161633078630736" lon="9.320833696692903"><ele>72.0</ele><time>2026-04-18T09:11:46.001Z</time></trkpt><trkpt lat="45.16151796852903" lon="9.320801710019634"><ele>72.2</ele><time>2026-04-18T09:11:47.001Z</time></trkpt><trkpt lat="45.16140954154378" lon="9.320776991618391"><ele>72.4</ele><time>2026-04-18T09:11:48.001Z</time></trkpt><trkpt lat="45.1613106421658" lon="9.32076451266252"><ele>72.6</ele><time>2026-04-18T09:11:49.001Z</time></trkpt><trkpt lat="45.1612166152205" lon="9.320734637847435"><ele>72.8</ele><time>2026-04-18T09:11:50.001Z</time></trkpt><trkpt lat="45.16112601740669" lon="9.320765023653337"><ele>73.0</ele><time>2026-04-18T09:11:51.001Z</time></trkpt><trkpt lat="45.16105136061823" lon="9.320744755218625"><ele>73.0</ele><time>2026-04-18T09:11:52.001Z</time></trkpt><trkpt lat="45.16097075099939" lon="9.320734469323948"><ele>73.0</ele><time>2026-04-18T09:11:53.001Z</time></trkpt><trkpt lat="45.160873781604714" lon="9.320712693847454"><ele>73.0</ele><time>2026-04-18T09:11:54.001Z</time></trkpt><trkpt lat="45.16076489005212" lon="9.320685054697384"><ele>73.0</ele><time>2026-04-18T09:11:55.001Z</time></trkpt><trkpt lat="45.16064618085711" lon="9.320654397793994"><ele>73.0</ele><time>2026-04-18T09:11:56.001Z</time></trkpt><trkpt lat="45.160519112960166" lon="9.320621696802933"><ele>73.25</ele><time>2026-04-18T09:11:57.001Z</time></trkpt><trkpt lat="45.16039325205293" lon="9.320590132622435"><ele>73.5</ele><time>2026-04-18T09:11:58.001Z</time></trkpt><trkpt lat="45.160265963820244" lon="9.320558210457044"><ele>73.75</ele><time>2026-04-18T09:11:59.001Z</time></trkpt><trkpt lat="45.16015573748382" lon="9.320530567167179"><ele>74.0</ele><time>2026-04-18T09:12:00.001Z</time></trkpt><trkpt lat="45.1600522838284" lon="9.320528487564097"><ele>74.0</ele><time>2026-04-18T09:12:01.001Z</time></trkpt><trkpt lat="45.159952535501084" lon="9.320498304620992"><ele>74.0</ele><time>2026-04-18T09:12:02.001Z</time></trkpt><trkpt lat="45.15985753804635" lon="9.32047327734082"><ele>74.0</ele><time>2026-04-18T09:12:03.001Z</time></trkpt><trkpt lat="45.15977319147909" lon="9.320451262494602"><ele>74.0</ele><time>2026-04-18T09:12:04.001Z</time></trkpt><trkpt lat="45.15967998297056" lon="9.320414128154027"><ele>74.0</ele><time>2026-04-18T09:12:06.001Z</time></trkpt><trkpt lat="45.15960297854464" lon="9.320411842534547"><ele>74.0</ele><time>2026-04-18T09:12:10.001Z</time></trkpt><trkpt lat="45.15956644054712" lon="9.320539742342046"><ele>74.0</ele><time>2026-04-18T09:12:12.001Z</time></trkpt><trkpt lat="45.159560600469796" lon="9.320657777278411"><ele>74.0</ele><time>2026-04-18T09:12:14.002Z</time></trkpt><trkpt lat="45.15954558443932" lon="9.320756558421376"><ele>74.0</ele><time>2026-04-18T09:12:17.002Z</time></trkpt><trkpt lat="45.1595110053453" lon="9.320895534134184"><ele>74.0</ele><time>2026-04-18T09:12:22.002Z</time></trkpt><trkpt lat="45.1593405038053" lon="9.320876328014606"><ele>74.16666666666667</ele><time>2026-04-18T09:12:25.002Z</time></trkpt><trkpt lat="45.15926016276579" lon="9.320841767374624"><ele>74.33333333333334</ele><time>2026-04-18T09:12:26.002Z</time></trkpt><trkpt lat="45.159186876901465" lon="9.320817345754328"><ele>74.5</ele><time>2026-04-18T09:12:27.002Z</time></trkpt><trkpt lat="45.15911381835863" lon="9.320795252582414"><ele>74.66666666666667</ele><time>2026-04-18T09:12:28.002Z</time></trkpt><trkpt lat="45.159046498354456" lon="9.320781599286486"><ele>74.83333333333333</ele><time>2026-04-18T09:12:29.002Z</time></trkpt><trkpt lat="45.15894136910608" lon="9.320741558212642"><ele>75.0</ele><time>2026-04-18T09:12:31.002Z</time></trkpt><trkpt lat="45.15885305263315" lon="9.320705636103025"><ele>74.6</ele><time>2026-04-18T09:12:47.003Z</time></trkpt><trkpt lat="45.158755551404845" lon="9.320673232350186"><ele>74.2</ele><time>2026-04-18T09:12:49.003Z</time></trkpt><trkpt lat="45.158656417687155" lon="9.320821312737618"><ele>73.8</ele><time>2026-04-18T09:12:51.003Z</time></trkpt><trkpt lat="45.158628825570574" lon="9.320913211081802"><ele>73.4</ele><time>2026-04-18T09:12:52.003Z</time></trkpt><trkpt lat="45.15861818499656" lon="9.32104036019373"><ele>73.0</ele><time>2026-04-18T09:12:53.003Z</time></trkpt><trkpt lat="45.1586009166282" lon="9.321195024127277"><ele>73.0</ele><time>2026-04-18T09:12:54.003Z</time></trkpt><trkpt lat="45.15857373231223" lon="9.321354732410816"><ele>73.0</ele><time>2026-04-18T09:12:55.003Z</time></trkpt><trkpt lat="45.15854728579235" lon="9.321511762670328"><ele>73.0</ele><time>2026-04-18T09:12:56.003Z</time></trkpt><trkpt lat="45.158519871039985" lon="9.321691656488758"><ele>73.0</ele><time>2026-04-18T09:12:57.003Z</time></trkpt><trkpt lat="45.1584924257943" lon="9.321887033420428"><ele>73.25</ele><time>2026-04-18T09:12:58.003Z</time></trkpt><trkpt lat="45.15846255871827" lon="9.322097612909609"><ele>73.5</ele><time>2026-04-18T09:12:59.003Z</time></trkpt><trkpt lat="45.15843171965496" lon="9.322312012393427"><ele>73.75</ele><time>2026-04-18T09:13:00.003Z</time></trkpt><trkpt lat="45.15840398133322" lon="9.322508041322115"><ele>74.0</ele><time>2026-04-18T09:13:01.003Z</time></trkpt><trkpt lat="45.15837509317051" lon="9.322711377794068"><ele>74.0</ele><time>2026-04-18T09:13:02.003Z</time></trkpt><trkpt lat="45.15834389344285" lon="9.322922105019398"><ele>74.0</ele><time>2026-04-18T09:13:03.003Z</time></trkpt><trkpt lat="45.158310378903714" lon="9.32314844124764"><ele>74.0</ele><time>2026-04-18T09:13:04.003Z</time></trkpt><trkpt lat="45.15827832463739" lon="9.323373431413323"><ele>73.33333333333334</ele><time>2026-04-18T09:13:05.003Z</time></trkpt><trkpt lat="45.158242910971204" lon="9.32360159865103"><ele>72.66666666666667</ele><time>2026-04-18T09:13:06.003Z</time></trkpt><trkpt lat="45.15820923608628" lon="9.323826951737574"><ele>72.0</ele><time>2026-04-18T09:13:07.003Z</time></trkpt><trkpt lat="45.158176090334045" lon="9.324051159140682"><ele>72.0</ele><time>2026-04-18T09:13:08.003Z</time></trkpt><trkpt lat="45.15814215668851" lon="9.324274332870052"><ele>72.0</ele><time>2026-04-18T09:13:09.003Z</time></trkpt><trkpt lat="45.158118589207625" lon="9.324497329747754"><ele>72.0</ele><time>2026-04-18T09:13:10.003Z</time></trkpt><trkpt lat="45.1581128846544" lon="9.324727060829142"><ele>71.66666666666667</ele><time>2026-04-18T09:13:11.003Z</time></trkpt><trkpt lat="45.158128770044186" lon="9.324976332686012"><ele>71.33333333333334</ele><time>2026-04-18T09:13:12.003Z</time></trkpt><trkpt lat="45.158163247185456" lon="9.325238976441877"><ele>71.0</ele><time>2026-04-18T09:13:13.003Z</time></trkpt><trkpt lat="45.158205543673496" lon="9.325511209244118"><ele>71.0</ele><time>2026-04-18T09:13:14.003Z</time></trkpt><trkpt lat="45.15824396095176" lon="9.32576408817252"><ele>71.0</ele><time>2026-04-18T09:13:15.003Z</time></trkpt><trkpt lat="45.158282852035185" lon="9.326005586860068"><ele>71.0</ele><time>2026-04-18T09:13:15.999Z</time></trkpt><trkpt lat="45.158321103449374" lon="9.326252140222746"><ele>71.0</ele><time>2026-04-18T09:13:16.999Z</time></trkpt><trkpt lat="45.15835949559914" lon="9.326500269082834"><ele>71.0</ele><time>2026-04-18T09:13:17.999Z</time></trkpt><trkpt lat="45.15839958435198" lon="9.326747836269014"><ele>71.0</ele><time>2026-04-18T09:13:19Z</time></trkpt><trkpt lat="45.15844080364174" lon="9.326995863314535"><ele>71.0</ele><time>2026-04-18T09:13:20Z</time></trkpt><trkpt lat="45.1584831225294" lon="9.327245722526753"><ele>71.0</ele><time>2026-04-18T09:13:21Z</time></trkpt><trkpt lat="45.158523168535886" lon="9.327493930241896"><ele>71.0</ele><time>2026-04-18T09:13:22Z</time></trkpt><trkpt lat="45.15856130564119" lon="9.327740134740834"><ele>71.0</ele><time>2026-04-18T09:13:23Z</time></trkpt><trkpt lat="45.15859271268351" lon="9.327989598099082"><ele>71.0</ele><time>2026-04-18T09:13:24Z</time></trkpt><trkpt lat="45.158618318916695" lon="9.328244687271853"><ele>71.0</ele><time>2026-04-18T09:13:25Z</time></trkpt><trkpt lat="45.15863590683983" lon="9.328504244707421"><ele>70.66666666666667</ele><time>2026-04-18T09:13:26Z</time></trkpt><trkpt lat="45.15864284992998" lon="9.328766428530818"><ele>70.33333333333333</ele><time>2026-04-18T09:13:27Z</time></trkpt><trkpt lat="45.15863768201101" lon="9.329033839487145"><ele>70.0</ele><time>2026-04-18T09:13:28Z</time></trkpt><trkpt lat="45.15862034593004" lon="9.329307064482743"><ele>70.0</ele><time>2026-04-18T09:13:29Z</time></trkpt><trkpt lat="45.1586012626449" lon="9.329586748240292"><ele>70.0</ele><time>2026-04-18T09:13:30Z</time></trkpt><trkpt lat="45.158579174462375" lon="9.329866821198406"><ele>70.0</ele><time>2026-04-18T09:13:31Z</time></trkpt><trkpt lat="45.15855596458" lon="9.330133401070482"><ele>70.0</ele><time>2026-04-18T09:13:32Z</time></trkpt><trkpt lat="45.15853495984346" lon="9.330403070167504"><ele>70.0</ele><time>2026-04-18T09:13:33Z</time></trkpt><trkpt lat="45.158513880005145" lon="9.330672518284905"><ele>70.0</ele><time>2026-04-18T09:13:34Z</time></trkpt><trkpt lat="45.15849017274816" lon="9.330943860684998"><ele>70.0</ele><time>2026-04-18T09:13:35Z</time></trkpt><trkpt lat="45.158465666439845" lon="9.331213966764578"><ele>70.0</ele><time>2026-04-18T09:13:36Z</time></trkpt><trkpt lat="45.15844415724091" lon="9.33148809725311"><ele>70.0</ele><time>2026-04-18T09:13:37Z</time></trkpt><trkpt lat="45.158420738964615" lon="9.331761714077611"><ele>70.0</ele><time>2026-04-18T09:13:38Z</time></trkpt><trkpt lat="45.158397111664655" lon="9.33203598681357"><ele>70.0</ele><time>2026-04-18T09:13:39Z</time></trkpt><trkpt lat="45.1583718120168" lon="9.332309827820183"><ele>70.0</ele><time>2026-04-18T09:13:40Z</time></trkpt><trkpt lat="45.158346475680375" lon="9.3325864662168"><ele>70.0</ele><time>2026-04-18T09:13:41Z</time></trkpt><trkpt lat="45.15832154796443" lon="9.332865116603479"><ele>70.0</ele><time>2026-04-18T09:13:42Z</time></trkpt><trkpt lat="45.15829706807721" lon="9.333146219838637"><ele>70.0</ele><time>2026-04-18T09:13:43Z</time></trkpt><trkpt lat="45.15827128623427" lon="9.333428578997726"><ele>70.0</ele><time>2026-04-18T09:13:44Z</time></trkpt><trkpt lat="45.15824518911868" lon="9.333718613290126"><ele>70.0</ele><time>2026-04-18T09:13:45Z</time></trkpt><trkpt lat="45.15821734124329" lon="9.334011279247301"><ele>70.0</ele><time>2026-04-18T09:13:46Z</time></trkpt><trkpt lat="45.15819148216778" lon="9.334308466251095"><ele>70.33333333333333</ele><time>2026-04-18T09:13:47Z</time></trkpt><trkpt lat="45.15816681065113" lon="9.33460973438683"><ele>70.66666666666667</ele><time>2026-04-18T09:13:48Z</time></trkpt><trkpt lat="45.158141354053214" lon="9.334912819340667"><ele>71.0</ele><time>2026-04-18T09:13:49Z</time></trkpt><trkpt lat="45.15811406197154" lon="9.33522081170708"><ele>71.0</ele><time>2026-04-18T09:13:50.001Z</time></trkpt><trkpt lat="45.158087360606395" lon="9.335528311765762"><ele>71.0</ele><time>2026-04-18T09:13:51.001Z</time></trkpt><trkpt lat="45.158060515138274" lon="9.335841797183217"><ele>71.0</ele><time>2026-04-18T09:13:52.001Z</time></trkpt><trkpt lat="45.158032092749686" lon="9.3361527748038"><ele>70.5</ele><time>2026-04-18T09:13:53.001Z</time></trkpt><trkpt lat="45.15800323806972" lon="9.336469041636926"><ele>70.0</ele><time>2026-04-18T09:13:54.001Z</time></trkpt><trkpt lat="45.15797313601276" lon="9.336785252202105"><ele>70.0</ele><time>2026-04-18T09:13:55.001Z</time></trkpt><trkpt lat="45.15794327434806" lon="9.337097538148184"><ele>70.0</ele><time>2026-04-18T09:13:56.001Z</time></trkpt><trkpt lat="45.157911775749284" lon="9.33741089273399"><ele>70.0</ele><time>2026-04-18T09:13:57.001Z</time></trkpt><trkpt lat="45.15788152783162" lon="9.337728912577832"><ele>71.0</ele><time>2026-04-18T09:13:58.001Z</time></trkpt><trkpt lat="45.15785395250749" lon="9.33804684219268"><ele>72.0</ele><time>2026-04-18T09:13:59.001Z</time></trkpt><trkpt lat="45.157824855535296" lon="9.338362897650777"><ele>70.5</ele><time>2026-04-18T09:14:00.001Z</time></trkpt><trkpt lat="45.15779507581814" lon="9.338680844210048"><ele>69.0</ele><time>2026-04-18T09:14:01.001Z</time></trkpt><trkpt lat="45.15776675404985" lon="9.339000236358459"><ele>69.0</ele><time>2026-04-18T09:14:02.001Z</time></trkpt><trkpt lat="45.15773703468729" lon="9.339316232142732"><ele>69.0</ele><time>2026-04-18T09:14:03.001Z</time></trkpt><trkpt lat="45.15770850898053" lon="9.339630328090275"><ele>69.0</ele><time>2026-04-18T09:14:04.001Z</time></trkpt><trkpt lat="45.157680787101604" lon="9.339945134230664"><ele>69.33333333333333</ele><time>2026-04-18T09:14:05.001Z</time></trkpt><trkpt lat="45.15765368555314" lon="9.340258977959271"><ele>69.66666666666666</ele><time>2026-04-18T09:14:06.001Z</time></trkpt><trkpt lat="45.15762634266962" lon="9.340570303503188"><ele>70.0</ele><time>2026-04-18T09:14:07.001Z</time></trkpt><trkpt lat="45.15759919765188" lon="9.340879993145874"><ele>70.33333333333333</ele><time>2026-04-18T09:14:08.001Z</time></trkpt><trkpt lat="45.157572301374735" lon="9.341189556496479"><ele>70.66666666666667</ele><time>2026-04-18T09:14:09.001Z</time></trkpt><trkpt lat="45.1575448336625" lon="9.341496017247653"><ele>71.0</ele><time>2026-04-18T09:14:10.001Z</time></trkpt><trkpt lat="45.15751686377142" lon="9.341799445131837"><ele>71.0</ele><time>2026-04-18T09:14:11.001Z</time></trkpt><trkpt lat="45.157489210222195" lon="9.342099497385453"><ele>71.0</ele><time>2026-04-18T09:14:12.001Z</time></trkpt><trkpt lat="45.15746275786007" lon="9.3423915263283"><ele>71.0</ele><time>2026-04-18T09:14:13.001Z</time></trkpt><trkpt lat="45.15743687996962" lon="9.342677051686064"><ele>71.0</ele><time>2026-04-18T09:14:14.001Z</time></trkpt><trkpt lat="45.15740713023536" lon="9.342960370793547"><ele>71.0</ele><time>2026-04-18T09:14:15.001Z</time></trkpt><trkpt lat="45.15737546639324" lon="9.343246822239832"><ele>71.0</ele><time>2026-04-18T09:14:16.001Z</time></trkpt><trkpt lat="45.1573437731548" lon="9.343534559032177"><ele>70.66666666666667</ele><time>2026-04-18T09:14:17.001Z</time></trkpt><trkpt lat="45.157315867678975" lon="9.34382209981113"><ele>70.33333333333333</ele><time>2026-04-18T09:14:18.001Z</time></trkpt><trkpt lat="45.15728780428673" lon="9.344104433235481"><ele>70.0</ele><time>2026-04-18T09:14:19.001Z</time></trkpt><trkpt lat="45.15725816529177" lon="9.344370363505234"><ele>70.0</ele><time>2026-04-18T09:14:20.001Z</time></trkpt><trkpt lat="45.157233518779364" lon="9.344624073251953"><ele>70.0</ele><time>2026-04-18T09:14:21.002Z</time></trkpt><trkpt lat="45.15721031812705" lon="9.34485951914083"><ele>70.0</ele><time>2026-04-18T09:14:22.002Z</time></trkpt><trkpt lat="45.15719078531018" lon="9.345077130604546"><ele>70.0</ele><time>2026-04-18T09:14:23.002Z</time></trkpt><trkpt lat="45.15716697714154" lon="9.34529571460398"><ele>70.0</ele><time>2026-04-18T09:14:24.002Z</time></trkpt><trkpt lat="45.15714419896688" lon="9.34552291212938"><ele>70.0</ele><time>2026-04-18T09:14:25.002Z</time></trkpt><trkpt lat="45.15712281225396" lon="9.345751951284683"><ele>70.0</ele><time>2026-04-18T09:14:26.002Z</time></trkpt><trkpt lat="45.15710133472917" lon="9.345973940091982"><ele>70.0</ele><time>2026-04-18T09:14:27.002Z</time></trkpt><trkpt lat="45.15707667203981" lon="9.346183887633188"><ele>70.0</ele><time>2026-04-18T09:14:28.002Z</time></trkpt><trkpt lat="45.157043711813145" lon="9.346378588471023"><ele>70.0</ele><time>2026-04-18T09:14:29.002Z</time></trkpt><trkpt lat="45.1570004679599" lon="9.346551633680342"><ele>70.2</ele><time>2026-04-18T09:14:30.002Z</time></trkpt><trkpt lat="45.15693816442912" lon="9.346699742181768"><ele>70.4</ele><time>2026-04-18T09:14:31.002Z</time></trkpt><trkpt lat="45.15686602831743" lon="9.346823105864907"><ele>70.6</ele><time>2026-04-18T09:14:32.002Z</time></trkpt><trkpt lat="45.15678871154789" lon="9.346931027314549"><ele>70.8</ele><time>2026-04-18T09:14:33.002Z</time></trkpt><trkpt lat="45.15672557827277" lon="9.34702440018955"><ele>71.0</ele><time>2026-04-18T09:14:34.002Z</time></trkpt><trkpt lat="45.15668923423937" lon="9.347115828588922"><ele>70.8</ele><time>2026-04-18T09:14:35.002Z</time></trkpt><trkpt lat="45.15668956811233" lon="9.347299264862373"><ele>70.6</ele><time>2026-04-18T09:14:37.002Z</time></trkpt><trkpt lat="45.15672649806914" lon="9.347402786835"><ele>70.4</ele><time>2026-04-18T09:14:38.002Z</time></trkpt><trkpt lat="45.156774960984954" lon="9.347516584243607"><ele>70.2</ele><time>2026-04-18T09:14:39.002Z</time></trkpt><trkpt lat="45.15681746014279" lon="9.347647683318366"><ele>70.0</ele><time>2026-04-18T09:14:40.002Z</time></trkpt><trkpt lat="45.156859123974314" lon="9.347785320535392"><ele>70.0</ele><time>2026-04-18T09:14:41.002Z</time></trkpt><trkpt lat="45.15683401123782" lon="9.347954200720055"><ele>70.0</ele><time>2026-04-18T09:14:42.002Z</time></trkpt><trkpt lat="45.156817300573444" lon="9.348121504075952"><ele>70.0</ele><time>2026-04-18T09:14:43.002Z</time></trkpt><trkpt lat="45.15680291651703" lon="9.348304892085874"><ele>70.0</ele><time>2026-04-18T09:14:44.002Z</time></trkpt><trkpt lat="45.15678871748769" lon="9.348512413625746"><ele>70.0</ele><time>2026-04-18T09:14:45.002Z</time></trkpt><trkpt lat="45.15678048695739" lon="9.348750159647636"><ele>70.0</ele><time>2026-04-18T09:14:46.002Z</time></trkpt><trkpt lat="45.15674756775562" lon="9.349014715728815"><ele>70.0</ele><time>2026-04-18T09:14:47.002Z</time></trkpt><trkpt lat="45.156752597128445" lon="9.349289087029979"><ele>70.0</ele><time>2026-04-18T09:14:48.002Z</time></trkpt><trkpt lat="45.156737682741955" lon="9.349548466920009"><ele>70.0</ele><time>2026-04-18T09:14:49.002Z</time></trkpt><trkpt lat="45.156738454938456" lon="9.34982452155734"><ele>70.0</ele><time>2026-04-18T09:14:50.002Z</time></trkpt><trkpt lat="45.156730553526316" lon="9.350106882021322"><ele>70.66666666666666</ele><time>2026-04-18T09:14:51.002Z</time></trkpt><trkpt lat="45.1567299582691" lon="9.350401240934248"><ele>71.33333333333333</ele><time>2026-04-18T09:14:52.002Z</time></trkpt><trkpt lat="45.1567325265825" lon="9.350703475661591"><ele>72.0</ele><time>2026-04-18T09:14:53.002Z</time></trkpt><trkpt lat="45.15673444973327" lon="9.350999209296"><ele>72.33333333333333</ele><time>2026-04-18T09:14:54.002Z</time></trkpt><trkpt lat="45.156734913426654" lon="9.351269776106573"><ele>72.66666666666666</ele><time>2026-04-18T09:14:55.003Z</time></trkpt><trkpt lat="45.15672852179622" lon="9.35154971065852"><ele>73.0</ele><time>2026-04-18T09:14:56.003Z</time></trkpt><trkpt lat="45.156726150575" lon="9.351806805661115"><ele>73.0</ele><time>2026-04-18T09:14:57.003Z</time></trkpt><trkpt lat="45.1567228169116" lon="9.352026317318183"><ele>73.0</ele><time>2026-04-18T09:14:58.003Z</time></trkpt><trkpt lat="45.156707985238285" lon="9.35218186369914"><ele>73.0</ele><time>2026-04-18T09:14:59.003Z</time></trkpt><trkpt lat="45.15669707886992" lon="9.352299068633851"><ele>73.0</ele><time>2026-04-18T09:15:00.003Z</time></trkpt><trkpt lat="45.15666774768028" lon="9.352403525010903"><ele>73.0</ele><time>2026-04-18T09:15:02.003Z</time></trkpt><trkpt lat="45.15656764237141" lon="9.352416897247522"><ele>72.4</ele><time>2026-04-18T09:15:05.003Z</time></trkpt><trkpt lat="45.15648388735145" lon="9.352414095768323"><ele>71.8</ele><time>2026-04-18T09:15:07.003Z</time></trkpt><trkpt lat="45.15641675125305" lon="9.35254560192229"><ele>71.2</ele><time>2026-04-18T09:15:09.003Z</time></trkpt><trkpt lat="45.1563748869267" lon="9.35266210817678"><ele>70.6</ele><time>2026-04-18T09:15:10.003Z</time></trkpt><trkpt lat="45.15632463024532" lon="9.352801923641449"><ele>70.0</ele><time>2026-04-18T09:15:11.003Z</time></trkpt><trkpt lat="45.1562629639729" lon="9.352960885205452"><ele>70.5</ele><time>2026-04-18T09:15:12.003Z</time></trkpt><trkpt lat="45.15619397962302" lon="9.353136224408278"><ele>71.0</ele><time>2026-04-18T09:15:13.003Z</time></trkpt><trkpt lat="45.156128340310204" lon="9.353304968478737"><ele>71.5</ele><time>2026-04-18T09:15:14.003Z</time></trkpt><trkpt lat="45.1560609990412" lon="9.353491263069294"><ele>72.0</ele><time>2026-04-18T09:15:15.003Z</time></trkpt><trkpt lat="45.155988494681345" lon="9.353685743589324"><ele>71.5</ele><time>2026-04-18T09:15:16.003Z</time></trkpt><trkpt lat="45.15591507076821" lon="9.353881614785626"><ele>71.0</ele><time>2026-04-18T09:15:17.003Z</time></trkpt><trkpt lat="45.15584115982948" lon="9.354061367264455"><ele>70.5</ele><time>2026-04-18T09:15:18.003Z</time></trkpt><trkpt lat="45.15576957734845" lon="9.354222086678108"><ele>70.0</ele><time>2026-04-18T09:15:19.003Z</time></trkpt><trkpt lat="45.15569555983555" lon="9.354375153843712"><ele>70.0</ele><time>2026-04-18T09:15:20.003Z</time></trkpt><trkpt lat="45.155615418277954" lon="9.354516130252298"><ele>70.0</ele><time>2026-04-18T09:15:21.003Z</time></trkpt><trkpt lat="45.15553418019947" lon="9.354641507381277"><ele>70.0</ele><time>2026-04-18T09:15:21.998Z</time></trkpt><trkpt lat="45.15544246300164" lon="9.35475377218553"><ele>70.0</ele><time>2026-04-18T09:15:22.998Z</time></trkpt><trkpt lat="45.15533562158486" lon="9.354853132267904"><ele>70.25</ele><time>2026-04-18T09:15:23.998Z</time></trkpt><trkpt lat="45.155220279969875" lon="9.354938278397105"><ele>70.5</ele><time>2026-04-18T09:15:24.998Z</time></trkpt><trkpt lat="45.155099451990445" lon="9.355009955458227"><ele>70.75</ele><time>2026-04-18T09:15:25.998Z</time></trkpt><trkpt lat="45.154979266274985" lon="9.355063790328066"><ele>71.0</ele><time>2026-04-18T09:15:26.998Z</time></trkpt><trkpt lat="45.15484958578816" lon="9.355106054116073"><ele>71.25</ele><time>2026-04-18T09:15:27.998Z</time></trkpt><trkpt lat="45.154712748038364" lon="9.355133109858365"><ele>71.5</ele><time>2026-04-18T09:15:28.998Z</time></trkpt><trkpt lat="45.154590028123145" lon="9.355160848066507"><ele>71.75</ele><time>2026-04-18T09:15:29.999Z</time></trkpt><trkpt lat="45.15448007180463" lon="9.355182297498233"><ele>72.0</ele><time>2026-04-18T09:15:30.999Z</time></trkpt><trkpt lat="45.15437616096142" lon="9.355196171895498"><ele>72.0</ele><time>2026-04-18T09:15:31.999Z</time></trkpt><trkpt lat="45.15426789782149" lon="9.355184548600253"><ele>72.0</ele><time>2026-04-18T09:15:32.999Z</time></trkpt><trkpt lat="45.15416504607044" lon="9.35518121901614"><ele>72.0</ele><time>2026-04-18T09:15:33.999Z</time></trkpt><trkpt lat="45.154075368945364" lon="9.355165098029627"><ele>72.0</ele><time>2026-04-18T09:15:34.999Z</time></trkpt><trkpt lat="45.15397317321407" lon="9.35512917273251"><ele>72.0</ele><time>2026-04-18T09:15:36.999Z</time></trkpt><trkpt lat="45.153897244810864" lon="9.355111980476421"><ele>72.0</ele><time>2026-04-18T09:15:39.999Z</time></trkpt><trkpt lat="45.15379003937453" lon="9.35548128581083"><ele>72.0</ele><time>2026-04-18T09:15:42.999Z</time></trkpt><trkpt lat="45.153748481181886" lon="9.355611971846733"><ele>72.0</ele><time>2026-04-18T09:15:44Z</time></trkpt><trkpt lat="45.1537023874684" lon="9.355751945461307"><ele>72.0</ele><time>2026-04-18T09:15:45Z</time></trkpt><trkpt lat="45.15365964424609" lon="9.355875371394243"><ele>72.0</ele><time>2026-04-18T09:15:46Z</time></trkpt><trkpt lat="45.15361494024147" lon="9.35600877131037"><ele>72.0</ele><time>2026-04-18T09:15:47Z</time></trkpt><trkpt lat="45.15357015600898" lon="9.356143827207996"><ele>72.0</ele><time>2026-04-18T09:15:48Z</time></trkpt><trkpt lat="45.15352604116986" lon="9.356269497789567"><ele>72.0</ele><time>2026-04-18T09:15:49Z</time></trkpt><trkpt lat="45.15348577743623" lon="9.35638767326461"><ele>71.6</ele><time>2026-04-18T09:15:50Z</time></trkpt><trkpt lat="45.15344677846881" lon="9.356502572581913"><ele>71.2</ele><time>2026-04-18T09:15:51Z</time></trkpt><trkpt lat="45.153405508885875" lon="9.356634053519896"><ele>70.8</ele><time>2026-04-18T09:15:52Z</time></trkpt><trkpt lat="45.15336055974409" lon="9.35676630825885"><ele>70.4</ele><time>2026-04-18T09:15:53Z</time></trkpt><trkpt lat="45.153314937948984" lon="9.356900368095806"><ele>70.0</ele><time>2026-04-18T09:15:54Z</time></trkpt><trkpt lat="45.153270890744004" lon="9.357038179454621"><ele>70.0</ele><time>2026-04-18T09:15:55Z</time></trkpt><trkpt lat="45.15322726213199" lon="9.357162598539151"><ele>70.0</ele><time>2026-04-18T09:15:56Z</time></trkpt><trkpt lat="45.15318110713613" lon="9.357279717565948"><ele>70.0</ele><time>2026-04-18T09:15:57Z</time></trkpt><trkpt lat="45.15313535562656" lon="9.357400974531428"><ele>70.0</ele><time>2026-04-18T09:15:58Z</time></trkpt><trkpt lat="45.15310110115675" lon="9.357524324227766"><ele>70.0</ele><time>2026-04-18T09:15:59Z</time></trkpt><trkpt lat="45.15306093012177" lon="9.357666210565833"><ele>70.2</ele><time>2026-04-18T09:16:00Z</time></trkpt><trkpt lat="45.15301362329063" lon="9.35779981738781"><ele>70.4</ele><time>2026-04-18T09:16:01Z</time></trkpt><trkpt lat="45.152964522201586" lon="9.357934378309219"><ele>70.6</ele><time>2026-04-18T09:16:02Z</time></trkpt><trkpt lat="45.15291753382991" lon="9.35806219565237"><ele>70.8</ele><time>2026-04-18T09:16:03.001Z</time></trkpt><trkpt lat="45.152868395890515" lon="9.3581864447876"><ele>71.0</ele><time>2026-04-18T09:16:04.001Z</time></trkpt><trkpt lat="45.15282102252936" lon="9.35830506095308"><ele>71.0</ele><time>2026-04-18T09:16:05.001Z</time></trkpt><trkpt lat="45.15277953674091" lon="9.358426063531535"><ele>71.0</ele><time>2026-04-18T09:16:06.001Z</time></trkpt><trkpt lat="45.15274744755242" lon="9.358540804200292"><ele>71.0</ele><time>2026-04-18T09:16:07.001Z</time></trkpt><trkpt lat="45.15272426257895" lon="9.358644160785191"><ele>71.0</ele><time>2026-04-18T09:16:08.001Z</time></trkpt><trkpt lat="45.15269541212599" lon="9.358737958157505"><ele>71.0</ele><time>2026-04-18T09:16:09.001Z</time></trkpt><trkpt lat="45.1526421496029" lon="9.358881759353734"><ele>71.0</ele><time>2026-04-18T09:16:11.001Z</time></trkpt><trkpt lat="45.152588485219745" lon="9.358973446463626"><ele>71.0</ele><time>2026-04-18T09:16:13.001Z</time></trkpt><trkpt lat="45.152528366000396" lon="9.359021672122514"><ele>71.0</ele><time>2026-04-18T09:16:15.001Z</time></trkpt><trkpt lat="45.152413848854266" lon="9.35905417914526"><ele>71.0</ele><time>2026-04-18T09:16:18.001Z</time></trkpt><trkpt lat="45.15234503319722" lon="9.35903855997012"><ele>71.0</ele><time>2026-04-18T09:16:19.001Z</time></trkpt><trkpt lat="45.15227774062262" lon="9.359012438629824"><ele>71.0</ele><time>2026-04-18T09:16:20.001Z</time></trkpt><trkpt lat="45.15220406838266" lon="9.358977028180204"><ele>71.0</ele><time>2026-04-18T09:16:21.001Z</time></trkpt><trkpt lat="45.1521169434453" lon="9.358940603138588"><ele>71.0</ele><time>2026-04-18T09:16:22.001Z</time></trkpt><trkpt lat="45.15203491959125" lon="9.358908641128627"><ele>71.0</ele><time>2026-04-18T09:16:23.001Z</time></trkpt><trkpt lat="45.151964269478306" lon="9.358882723545944"><ele>71.0</ele><time>2026-04-18T09:16:24.001Z</time></trkpt><trkpt lat="45.15190396311263" lon="9.358853558399373"><ele>71.0</ele><time>2026-04-18T09:16:25.001Z</time></trkpt><trkpt lat="45.15181386634072" lon="9.358805001462246"><ele>71.0</ele><time>2026-04-18T09:16:27.001Z</time></trkpt><trkpt lat="45.15173513396279" lon="9.358843923034774"><ele>71.0</ele><time>2026-04-18T09:16:29.001Z</time></trkpt><trkpt lat="45.1517029644481" lon="9.358939547366449"><ele>70.8</ele><time>2026-04-18T09:16:31.002Z</time></trkpt><trkpt lat="45.15167829756134" lon="9.359120666394524"><ele>70.6</ele><time>2026-04-18T09:16:33.002Z</time></trkpt><trkpt lat="45.15164562164353" lon="9.359231682863351"><ele>70.4</ele><time>2026-04-18T09:16:34.002Z</time></trkpt><trkpt lat="45.151606197218314" lon="9.359352214737637"><ele>70.2</ele><time>2026-04-18T09:16:35.002Z</time></trkpt><trkpt lat="45.15157057102836" lon="9.359463894149279"><ele>70.0</ele><time>2026-04-18T09:16:36.002Z</time></trkpt><trkpt lat="45.15153547648823" lon="9.359570283093507"><ele>70.0</ele><time>2026-04-18T09:16:37.002Z</time></trkpt><trkpt lat="45.15149940549602" lon="9.359667117008183"><ele>70.0</ele><time>2026-04-18T09:16:38.002Z</time></trkpt><trkpt lat="45.151463543221155" lon="9.359743120259763"><ele>70.0</ele><time>2026-04-18T09:16:39.002Z</time></trkpt><trkpt lat="45.151383441647795" lon="9.359868913827802"><ele>70.0</ele><time>2026-04-18T09:16:41.002Z</time></trkpt><trkpt lat="45.1513439590449" lon="9.360026384072539"><ele>70.0</ele><time>2026-04-18T09:16:43.002Z</time></trkpt><trkpt lat="45.1513329102181" lon="9.360137973590726"><ele>70.0</ele><time>2026-04-18T09:16:44.002Z</time></trkpt><trkpt lat="45.151305507127795" lon="9.360258380346181"><ele>70.0</ele><time>2026-04-18T09:16:45.002Z</time></trkpt><trkpt lat="45.1512727258796" lon="9.360363795459918"><ele>70.0</ele><time>2026-04-18T09:16:46.002Z</time></trkpt><trkpt lat="45.151236998859986" lon="9.360463136415515"><ele>70.0</ele><time>2026-04-18T09:16:47.002Z</time></trkpt><trkpt lat="45.15119479543559" lon="9.36055935334997"><ele>70.0</ele><time>2026-04-18T09:16:48.002Z</time></trkpt><trkpt lat="45.15114474426184" lon="9.360665485834575"><ele>70.0</ele><time>2026-04-18T09:16:49.002Z</time></trkpt><trkpt lat="45.151102506960925" lon="9.360766702402413"><ele>69.8</ele><time>2026-04-18T09:16:50.002Z</time></trkpt><trkpt lat="45.151078296683785" lon="9.360857720841096"><ele>69.6</ele><time>2026-04-18T09:16:51.002Z</time></trkpt><trkpt lat="45.15106709627175" lon="9.360988833008994"><ele>69.4</ele><time>2026-04-18T09:16:53.002Z</time></trkpt><trkpt lat="45.15116947970854" lon="9.36110582669233"><ele>69.2</ele><time>2026-04-18T09:16:58.002Z</time></trkpt><trkpt lat="45.15125932524579" lon="9.361135965927847"><ele>69.0</ele><time>2026-04-18T09:16:59.002Z</time></trkpt><trkpt lat="45.15136574682428" lon="9.361198034935379"><ele>69.0</ele><time>2026-04-18T09:17:00.002Z</time></trkpt><trkpt lat="45.15147880993802" lon="9.361269527395702"><ele>69.0</ele><time>2026-04-18T09:17:01.002Z</time></trkpt><trkpt lat="45.15158805936935" lon="9.36133932560968"><ele>69.0</ele><time>2026-04-18T09:17:02.002Z</time></trkpt><trkpt lat="45.15171446275044" lon="9.361419145344462"><ele>69.0</ele><time>2026-04-18T09:17:03.002Z</time></trkpt><trkpt lat="45.151844403593046" lon="9.361498669747323"><ele>69.33333333333333</ele><time>2026-04-18T09:17:04.003Z</time></trkpt><trkpt lat="45.15194784986149" lon="9.361568123821993"><ele>69.66666666666667</ele><time>2026-04-18T09:17:05.003Z</time></trkpt><trkpt lat="45.1520339226442" lon="9.361622195131597"><ele>70.0</ele><time>2026-04-18T09:17:06.003Z</time></trkpt><trkpt lat="45.15210839347016" lon="9.36166902746498"><ele>70.33333333333334</ele><time>2026-04-18T09:17:07.003Z</time></trkpt><trkpt lat="45.15217753590849" lon="9.361713246538043"><ele>70.66666666666667</ele><time>2026-04-18T09:17:08.003Z</time></trkpt><trkpt lat="45.15223749209142" lon="9.361752010778531"><ele>71.0</ele><time>2026-04-18T09:17:09.003Z</time></trkpt><trkpt lat="45.15229552515025" lon="9.361787114120181"><ele>71.6</ele><time>2026-04-18T09:17:10.003Z</time></trkpt><trkpt lat="45.15239869294182" lon="9.361818915680892"><ele>72.19999999999999</ele><time>2026-04-18T09:17:12.003Z</time></trkpt><trkpt lat="45.15247136504182" lon="9.361749307112431"><ele>72.80000000000001</ele><time>2026-04-18T09:17:14.003Z</time></trkpt><trkpt lat="45.15252198866556" lon="9.361591294606841"><ele>73.4</ele><time>2026-04-18T09:17:16.003Z</time></trkpt><trkpt lat="45.15254538827517" lon="9.361495274517747"><ele>74.0</ele><time>2026-04-18T09:17:17.003Z</time></trkpt><trkpt lat="45.15257377381334" lon="9.361362114187097"><ele>74.0</ele><time>2026-04-18T09:17:19.003Z</time></trkpt><trkpt lat="45.15260634362006" lon="9.361271120297614"><ele>74.0</ele><time>2026-04-18T09:17:21.003Z</time></trkpt><trkpt lat="45.15264006791792" lon="9.361178937176309"><ele>74.0</ele><time>2026-04-18T09:17:23.003Z</time></trkpt><trkpt lat="45.152677421306414" lon="9.361058695519876"><ele>74.0</ele><time>2026-04-18T09:17:25.003Z</time></trkpt><trkpt lat="45.15271766654626" lon="9.360944444374082"><ele>74.0</ele><time>2026-04-18T09:17:27.003Z</time></trkpt><trkpt lat="45.152723700186215" lon="9.360818174880594"><ele>74.0</ele><time>2026-04-18T09:17:28.999Z</time></trkpt><trkpt lat="45.15277860255076" lon="9.360713952341083"><ele>74.0</ele><time>2026-04-18T09:17:30.999Z</time></trkpt><trkpt lat="45.152808652812" lon="9.360608320618972"><ele>74.0</ele><time>2026-04-18T09:17:32.999Z</time></trkpt><trkpt lat="45.15288864721957" lon="9.360481087506605"><ele>74.0</ele><time>2026-04-18T09:17:35.999Z</time></trkpt><trkpt lat="45.15290931173077" lon="9.360358495764615"><ele>74.0</ele><time>2026-04-18T09:17:37.999Z</time></trkpt><trkpt lat="45.15292597310345" lon="9.360259394088025"><ele>74.0</ele><time>2026-04-18T09:17:38.999Z</time></trkpt><trkpt lat="45.15296892698287" lon="9.360103942911904"><ele>73.66666666666667</ele><time>2026-04-18T09:17:40.999Z</time></trkpt><trkpt lat="45.15301220486511" lon="9.359983381575418"><ele>73.33333333333334</ele><time>2026-04-18T09:17:43Z</time></trkpt><trkpt lat="45.15305741529149" lon="9.359878635175816"><ele>73.0</ele><time>2026-04-18T09:17:45Z</time></trkpt><trkpt lat="45.153110838895934" lon="9.359777543935873"><ele>72.66666666666667</ele><time>2026-04-18T09:17:47Z</time></trkpt><trkpt lat="45.153151583255145" lon="9.35967358358424"><ele>72.33333333333333</ele><time>2026-04-18T09:17:49Z</time></trkpt><trkpt lat="45.153209709670726" lon="9.359593551078602"><ele>72.0</ele><time>2026-04-18T09:17:51Z</time></trkpt><trkpt lat="45.153262852981825" lon="9.35951940703721"><ele>72.0</ele><time>2026-04-18T09:17:53Z</time></trkpt><trkpt lat="45.1533159987249" lon="9.359442511856445"><ele>72.0</ele><time>2026-04-18T09:17:55Z</time></trkpt><trkpt lat="45.153361562718025" lon="9.359353043147596"><ele>72.0</ele><time>2026-04-18T09:17:57Z</time></trkpt><trkpt lat="45.15341477535434" lon="9.359265770775357"><ele>72.0</ele><time>2026-04-18T09:17:59Z</time></trkpt><trkpt lat="45.153468452901656" lon="9.359184773952189"><ele>72.0</ele><time>2026-04-18T09:18:01.001Z</time></trkpt><trkpt lat="45.15352030528284" lon="9.35909653989499"><ele>72.0</ele><time>2026-04-18T09:18:03.001Z</time></trkpt><trkpt lat="45.1535655108949" lon="9.359008944482477"><ele>72.0</ele><time>2026-04-18T09:18:05.001Z</time></trkpt><trkpt lat="45.15352465225335" lon="9.35909883158205"><ele>72.0</ele><time>2026-04-18T09:18:33.002Z</time></trkpt><trkpt lat="45.15343943980055" lon="9.359246723945304"><ele>72.0</ele><time>2026-04-18T09:18:35.002Z</time></trkpt><trkpt lat="45.15339265142554" lon="9.35932440477102"><ele>72.0</ele><time>2026-04-18T09:18:36.002Z</time></trkpt><trkpt lat="45.15327255612773" lon="9.359447072499364"><ele>72.0</ele><time>2026-04-18T09:18:37.002Z</time></trkpt><trkpt lat="45.153210602868455" lon="9.359553129025354"><ele>72.00000000000001</ele><time>2026-04-18T09:18:38.002Z</time></trkpt><trkpt lat="45.15315891847513" lon="9.359631971669502"><ele>72.0</ele><time>2026-04-18T09:18:39.002Z</time></trkpt><trkpt lat="45.15311329751317" lon="9.35970304880968"><ele>72.0</ele><time>2026-04-18T09:18:40.002Z</time></trkpt><trkpt lat="45.15306183561822" lon="9.359775939290707"><ele>72.0</ele><time>2026-04-18T09:18:41.002Z</time></trkpt><trkpt lat="45.153016321946986" lon="9.359854221290004"><ele>72.0</ele><time>2026-04-18T09:18:42.002Z</time></trkpt><trkpt lat="45.15297986841094" lon="9.359934183403618"><ele>72.00000000000001</ele><time>2026-04-18T09:18:43.002Z</time></trkpt><trkpt lat="45.15294761394187" lon="9.360028404039458"><ele>72.0</ele><time>2026-04-18T09:18:44.002Z</time></trkpt><trkpt lat="45.152917260040866" lon="9.36013298767606"><ele>72.0</ele><time>2026-04-18T09:18:45.002Z</time></trkpt><trkpt lat="45.152881301684886" lon="9.360253284176322"><ele>72.0</ele><time>2026-04-18T09:18:46.002Z</time></trkpt><trkpt lat="45.15284463047694" lon="9.360383970466112"><ele>72.0</ele><time>2026-04-18T09:18:47.002Z</time></trkpt><trkpt lat="45.15281019746188" lon="9.360510696287204"><ele>72.0</ele><time>2026-04-18T09:18:48.002Z</time></trkpt><trkpt lat="45.152780977470876" lon="9.360623072678923"><ele>72.0</ele><time>2026-04-18T09:18:49.002Z</time></trkpt><trkpt lat="45.152754248646794" lon="9.360721479328308"><ele>72.0</ele><time>2026-04-18T09:18:50.002Z</time></trkpt><trkpt lat="45.15273166721484" lon="9.360806383315362"><ele>72.5</ele><time>2026-04-18T09:18:51.002Z</time></trkpt><trkpt lat="45.15268860123399" lon="9.360948886027558"><ele>73.0</ele><time>2026-04-18T09:18:53.002Z</time></trkpt><trkpt lat="45.152643960673345" lon="9.36109104228989"><ele>73.5</ele><time>2026-04-18T09:18:55.002Z</time></trkpt><trkpt lat="45.152598918778885" lon="9.361251930645766"><ele>74.0</ele><time>2026-04-18T09:18:57.002Z</time></trkpt><trkpt lat="45.15255440820593" lon="9.3614169883457"><ele>74.0</ele><time>2026-04-18T09:18:59.002Z</time></trkpt><trkpt lat="45.152510716446386" lon="9.36158271382188"><ele>74.0</ele><time>2026-04-18T09:19:01.002Z</time></trkpt><trkpt lat="45.15246608281232" lon="9.36171561305868"><ele>74.0</ele><time>2026-04-18T09:19:03.003Z</time></trkpt><trkpt lat="45.152407856881474" lon="9.361790712126421"><ele>74.0</ele><time>2026-04-18T09:19:05.003Z</time></trkpt><trkpt lat="45.15234288625992" lon="9.36180246367849"><ele>74.0</ele><time>2026-04-18T09:19:07.003Z</time></trkpt><trkpt lat="45.152254576415494" lon="9.361760211070575"><ele>73.4</ele><time>2026-04-18T09:19:09.003Z</time></trkpt><trkpt lat="45.15215300179493" lon="9.361687376438478"><ele>72.80000000000001</ele><time>2026-04-18T09:19:11.003Z</time></trkpt><trkpt lat="45.15203739931462" lon="9.361612218061639"><ele>72.19999999999999</ele><time>2026-04-18T09:19:13.003Z</time></trkpt><trkpt lat="45.15196758918997" lon="9.361569760574572"><ele>71.6</ele><time>2026-04-18T09:19:14.003Z</time></trkpt><trkpt lat="45.1518928013553" lon="9.361522431416534"><ele>71.0</ele><time>2026-04-18T09:19:15.003Z</time></trkpt><trkpt lat="45.15181443513807" lon="9.361471884111669"><ele>71.0</ele><time>2026-04-18T09:19:16.003Z</time></trkpt><trkpt lat="45.15173298087605" lon="9.361422240969622"><ele>71.0</ele><time>2026-04-18T09:19:17.003Z</time></trkpt><trkpt lat="45.15164761426859" lon="9.361367947243705"><ele>71.0</ele><time>2026-04-18T09:19:18.003Z</time></trkpt><trkpt lat="45.15156828357057" lon="9.361319813565425"><ele>71.0</ele><time>2026-04-18T09:19:19.003Z</time></trkpt><trkpt lat="45.15149093199161" lon="9.361273023139304"><ele>71.0</ele><time>2026-04-18T09:19:20.003Z</time></trkpt><trkpt lat="45.15141361431933" lon="9.36122231011975"><ele>71.0</ele><time>2026-04-18T09:19:21.003Z</time></trkpt><trkpt lat="45.15132926459508" lon="9.361165998664427"><ele>70.71428571428571</ele><time>2026-04-18T09:19:22.003Z</time></trkpt><trkpt lat="45.15124918868084" lon="9.361112442560914"><ele>70.42857142857142</ele><time>2026-04-18T09:19:23.003Z</time></trkpt><trkpt lat="45.15117468846971" lon="9.361062541070014"><ele>70.14285714285714</ele><time>2026-04-18T09:19:24.003Z</time></trkpt><trkpt lat="45.1511138358844" lon="9.36102196810815"><ele>69.85714285714286</ele><time>2026-04-18T09:19:25.003Z</time></trkpt><trkpt lat="45.151051911528405" lon="9.36098172346308"><ele>69.57142857142858</ele><time>2026-04-18T09:19:28.003Z</time></trkpt><trkpt lat="45.15099347780373" lon="9.36094722652821"><ele>69.28571428571429</ele><time>2026-04-18T09:19:30.003Z</time></trkpt><trkpt lat="45.15093854337153" lon="9.360903173025305"><ele>69.0</ele><time>2026-04-18T09:19:32.003Z</time></trkpt><trkpt lat="45.15087869045086" lon="9.360860168074622"><ele>69.0</ele><time>2026-04-18T09:19:34Z</time></trkpt><trkpt lat="45.15078715148255" lon="9.360802617072272"><ele>69.0</ele><time>2026-04-18T09:19:36Z</time></trkpt><trkpt lat="45.15071865947288" lon="9.360756903848038"><ele>69.0</ele><time>2026-04-18T09:19:37Z</time></trkpt><trkpt lat="45.1506352648013" lon="9.360705337388222"><ele>69.0</ele><time>2026-04-18T09:19:38Z</time></trkpt><trkpt lat="45.15057050032487" lon="9.360666016599183"><ele>69.0</ele><time>2026-04-18T09:19:39Z</time></trkpt><trkpt lat="45.150504029763425" lon="9.36062318369893"><ele>69.0</ele><time>2026-04-18T09:19:40Z</time></trkpt><trkpt lat="45.150436663644754" lon="9.360578662815024"><ele>69.0</ele><time>2026-04-18T09:19:41Z</time></trkpt><trkpt lat="45.15035401185278" lon="9.360524072664742"><ele>69.0</ele><time>2026-04-18T09:19:43Z</time></trkpt><trkpt lat="45.15025701401845" lon="9.3604614837103"><ele>69.0</ele><time>2026-04-18T09:20:43.002Z</time></trkpt><trkpt lat="45.150147330648544" lon="9.360388284891814"><ele>69.0</ele><time>2026-04-18T09:20:45.002Z</time></trkpt><trkpt lat="45.1500430084334" lon="9.360319751802715"><ele>69.0</ele><time>2026-04-18T09:20:47.002Z</time></trkpt><trkpt lat="45.14993096020902" lon="9.36024608588044"><ele>68.83333333333333</ele><time>2026-04-18T09:20:49.002Z</time></trkpt><trkpt lat="45.14987211987984" lon="9.36021125019174"><ele>68.66666666666667</ele><time>2026-04-18T09:20:50.002Z</time></trkpt><trkpt lat="45.149776806664605" lon="9.360153220774636"><ele>68.5</ele><time>2026-04-18T09:20:52.002Z</time></trkpt><trkpt lat="45.14971532150498" lon="9.360110096630494"><ele>68.33333333333334</ele><time>2026-04-18T09:20:55.002Z</time></trkpt><trkpt lat="45.1496146022285" lon="9.360045286971152"><ele>68.16666666666667</ele><time>2026-04-18T09:21:05.002Z</time></trkpt><trkpt lat="45.14954692289477" lon="9.36000351805819"><ele>68.0</ele><time>2026-04-18T09:21:06.002Z</time></trkpt><trkpt lat="45.14948351235164" lon="9.359967102115968"><ele>67.99999999999999</ele><time>2026-04-18T09:21:07.002Z</time></trkpt><trkpt lat="45.14942314851045" lon="9.359929199807066"><ele>68.0</ele><time>2026-04-18T09:21:08.002Z</time></trkpt><trkpt lat="45.14936216416057" lon="9.359888821141363"><ele>68.0</ele><time>2026-04-18T09:21:09.002Z</time></trkpt><trkpt lat="45.14930123032415" lon="9.359847624234803"><ele>68.0</ele><time>2026-04-18T09:21:10.003Z</time></trkpt><trkpt lat="45.14924073205506" lon="9.359807533336232"><ele>68.0</ele><time>2026-04-18T09:21:11.003Z</time></trkpt><trkpt lat="45.1491725997699" lon="9.359763539334692"><ele>67.99999999999999</ele><time>2026-04-18T09:21:12.003Z</time></trkpt><trkpt lat="45.14909606842234" lon="9.359716623411432"><ele>68.0</ele><time>2026-04-18T09:21:13.003Z</time></trkpt><trkpt lat="45.14901053506469" lon="9.359665832010856"><ele>68.2</ele><time>2026-04-18T09:21:14.003Z</time></trkpt><trkpt lat="45.148916424680756" lon="9.359608360144877"><ele>68.4</ele><time>2026-04-18T09:21:15.003Z</time></trkpt><trkpt lat="45.14881512227713" lon="9.35954193896409"><ele>68.60000000000001</ele><time>2026-04-18T09:21:16.003Z</time></trkpt><trkpt lat="45.14872075546411" lon="9.359479354063607"><ele>68.8</ele><time>2026-04-18T09:21:17.003Z</time></trkpt><trkpt lat="45.14863991913926" lon="9.359429341906111"><ele>69.0</ele><time>2026-04-18T09:21:18.003Z</time></trkpt><trkpt lat="45.148568765375764" lon="9.359393168473051"><ele>69.0</ele><time>2026-04-18T09:21:19.003Z</time></trkpt><trkpt lat="45.14847115157922" lon="9.359345413886604"><ele>69.0</ele><time>2026-04-18T09:21:21.003Z</time></trkpt><trkpt lat="45.148436592267906" lon="9.359265794699224"><ele>69.0</ele><time>2026-04-18T09:21:24.003Z</time></trkpt><trkpt lat="45.1484795765166" lon="9.359077996784787"><ele>69.0</ele><time>2026-04-18T09:21:27.003Z</time></trkpt><trkpt lat="45.148507160456845" lon="9.358959721784535"><ele>69.0</ele><time>2026-04-18T09:21:28.003Z</time></trkpt><trkpt lat="45.14852789327948" lon="9.358864172717269"><ele>68.83333333333333</ele><time>2026-04-18T09:21:29.003Z</time></trkpt><trkpt lat="45.148549324078516" lon="9.35875659122461"><ele>68.66666666666667</ele><time>2026-04-18T09:21:30.003Z</time></trkpt><trkpt lat="45.148576352626" lon="9.358628417028928"><ele>68.5</ele><time>2026-04-18T09:21:31.003Z</time></trkpt><trkpt lat="45.148603989092614" lon="9.358501223288613"><ele>68.33333333333334</ele><time>2026-04-18T09:21:32.003Z</time></trkpt><trkpt lat="45.14862858148667" lon="9.358380359722844"><ele>68.16666666666667</ele><time>2026-04-18T09:21:33.003Z</time></trkpt><trkpt lat="45.1486531630979" lon="9.358253645712983"><ele>68.0</ele><time>2026-04-18T09:21:34.003Z</time></trkpt><trkpt lat="45.14867817966468" lon="9.3581351919102"><ele>68.0</ele><time>2026-04-18T09:21:35.003Z</time></trkpt><trkpt lat="45.14870173105903" lon="9.358019529138414"><ele>68.0</ele><time>2026-04-18T09:21:36.003Z</time></trkpt><trkpt lat="45.148722952270944" lon="9.357916108145956"><ele>68.0</ele><time>2026-04-18T09:21:37.003Z</time></trkpt><trkpt lat="45.14875157965839" lon="9.357759834214168"><ele>68.0</ele><time>2026-04-18T09:21:39.003Z</time></trkpt><trkpt lat="45.14876606172415" lon="9.35766644093867"><ele>68.0</ele><time>2026-04-18T09:21:41Z</time></trkpt><trkpt lat="45.14871615487725" lon="9.35758745795894"><ele>68.0</ele><time>2026-04-18T09:21:47Z</time></trkpt><trkpt lat="45.148643939969894" lon="9.357548207662022"><ele>68.0</ele><time>2026-04-18T09:21:48Z</time></trkpt><trkpt lat="45.1485475439484" lon="9.357542698518529"><ele>68.0</ele><time>2026-04-18T09:21:49Z</time></trkpt><trkpt lat="45.14846573190438" lon="9.357518530140341"><ele>68.0</ele><time>2026-04-18T09:21:50Z</time></trkpt><trkpt lat="45.1483706911434" lon="9.357479630077776"><ele>68.0</ele><time>2026-04-18T09:21:51Z</time></trkpt><trkpt lat="45.14827397745777" lon="9.35743871061278"><ele>68.0</ele><time>2026-04-18T09:21:52Z</time></trkpt><trkpt lat="45.1481845858583" lon="9.357402089712917"><ele>68.2</ele><time>2026-04-18T09:21:53Z</time></trkpt><trkpt lat="45.14808445229533" lon="9.357363226041928"><ele>68.4</ele><time>2026-04-18T09:21:54Z</time></trkpt><trkpt lat="45.147972424736594" lon="9.357323365295155"><ele>68.60000000000001</ele><time>2026-04-18T09:21:55Z</time></trkpt><trkpt lat="45.147860924424315" lon="9.35727716231857"><ele>68.8</ele><time>2026-04-18T09:21:56Z</time></trkpt><trkpt lat="45.147755337024584" lon="9.357236026795778"><ele>69.0</ele><time>2026-04-18T09:21:57Z</time></trkpt><trkpt lat="45.14765432501376" lon="9.357199437153215"><ele>69.0</ele><time>2026-04-18T09:21:58Z</time></trkpt><trkpt lat="45.14755635111092" lon="9.357164858084024"><ele>69.0</ele><time>2026-04-18T09:21:59Z</time></trkpt><trkpt lat="45.147463655271025" lon="9.35713121052397"><ele>69.0</ele><time>2026-04-18T09:22:00Z</time></trkpt><trkpt lat="45.14737811442435" lon="9.357104469433402"><ele>69.0</ele><time>2026-04-18T09:22:01Z</time></trkpt><trkpt lat="45.14730477691308" lon="9.357085229704403"><ele>69.0</ele><time>2026-04-18T09:22:02Z</time></trkpt><trkpt lat="45.14723874148572" lon="9.357067384054027"><ele>69.0</ele><time>2026-04-18T09:22:03Z</time></trkpt><trkpt lat="45.147169489453916" lon="9.357042047445002"><ele>68.83333333333333</ele><time>2026-04-18T09:22:04Z</time></trkpt><trkpt lat="45.147092976095905" lon="9.357012570167434"><ele>68.66666666666667</ele><time>2026-04-18T09:22:05Z</time></trkpt><trkpt lat="45.147015733653625" lon="9.356989311693804"><ele>68.5</ele><time>2026-04-18T09:22:06Z</time></trkpt><trkpt lat="45.14693834883446" lon="9.356964135455904"><ele>68.33333333333334</ele><time>2026-04-18T09:22:07Z</time></trkpt><trkpt lat="45.146851676008154" lon="9.356930348478741"><ele>68.16666666666667</ele><time>2026-04-18T09:22:08Z</time></trkpt><trkpt lat="45.1467553195148" lon="9.356898016799153"><ele>68.0</ele><time>2026-04-18T09:22:09Z</time></trkpt><trkpt lat="45.1466624617984" lon="9.356866192831681"><ele>68.0</ele><time>2026-04-18T09:22:10Z</time></trkpt><trkpt lat="45.14656761897205" lon="9.356836719074613"><ele>68.0</ele><time>2026-04-18T09:22:11Z</time></trkpt><trkpt lat="45.14648361708808" lon="9.356807979898651"><ele>68.0</ele><time>2026-04-18T09:22:12Z</time></trkpt><trkpt lat="45.14640891253696" lon="9.356782435614749"><ele>68.0</ele><time>2026-04-18T09:22:13.001Z</time></trkpt><trkpt lat="45.14634163203745" lon="9.356763542956415"><ele>68.0</ele><time>2026-04-18T09:22:14.001Z</time></trkpt><trkpt lat="45.14622891919754" lon="9.356724916508446"><ele>68.0</ele><time>2026-04-18T09:22:16.001Z</time></trkpt><trkpt lat="45.14615780034567" lon="9.356708923312784"><ele>68.16666666666667</ele><time>2026-04-18T09:22:18.001Z</time></trkpt><trkpt lat="45.14612094670263" lon="9.356629300668617"><ele>68.33333333333334</ele><time>2026-04-18T09:22:31.001Z</time></trkpt><trkpt lat="45.14614214836044" lon="9.35648950363059"><ele>68.5</ele><time>2026-04-18T09:22:33.001Z</time></trkpt><trkpt lat="45.14619016357843" lon="9.356379457368798"><ele>68.66666666666667</ele><time>2026-04-18T09:22:34.001Z</time></trkpt><trkpt lat="45.14620199281565" lon="9.356261573773423"><ele>68.83333333333333</ele><time>2026-04-18T09:22:35.001Z</time></trkpt><trkpt lat="45.146202480384474" lon="9.35611105080653"><ele>69.0</ele><time>2026-04-18T09:22:36.001Z</time></trkpt><trkpt lat="45.1462378855172" lon="9.355917536106446"><ele>69.0</ele><time>2026-04-18T09:22:37.001Z</time></trkpt><trkpt lat="45.146262425472656" lon="9.355691472196579"><ele>69.0</ele><time>2026-04-18T09:22:38.001Z</time></trkpt><trkpt lat="45.1462705682467" lon="9.355462433354111"><ele>69.0</ele><time>2026-04-18T09:22:39.001Z</time></trkpt><trkpt lat="45.14631357982748" lon="9.355220234408264"><ele>69.0</ele><time>2026-04-18T09:22:40.001Z</time></trkpt><trkpt lat="45.14633760662148" lon="9.354998897776682"><ele>69.0</ele><time>2026-04-18T09:22:41.001Z</time></trkpt><trkpt lat="45.14634531191602" lon="9.354801531525947"><ele>69.0</ele><time>2026-04-18T09:22:42.001Z</time></trkpt><trkpt lat="45.146375809790314" lon="9.354643379731511"><ele>69.0</ele><time>2026-04-18T09:22:43.001Z</time></trkpt><trkpt lat="45.1463748483052" lon="9.354498829047198"><ele>69.0</ele><time>2026-04-18T09:22:44.001Z</time></trkpt><trkpt lat="45.146390368042645" lon="9.354375463430056"><ele>69.0</ele><time>2026-04-18T09:22:45.002Z</time></trkpt><trkpt lat="45.146401876210355" lon="9.35425677637819"><ele>69.0</ele><time>2026-04-18T09:22:46.002Z</time></trkpt><trkpt lat="45.14641166793546" lon="9.354152707574263"><ele>69.0</ele><time>2026-04-18T09:22:47.002Z</time></trkpt><trkpt lat="45.146421114187135" lon="9.354061484908362"><ele>69.0</ele><time>2026-04-18T09:22:48.002Z</time></trkpt><trkpt lat="45.14645223934599" lon="9.353906567644893"><ele>69.0</ele><time>2026-04-18T09:22:50.002Z</time></trkpt><trkpt lat="45.14644699712919" lon="9.35378883490046"><ele>69.0</ele><time>2026-04-18T09:22:52.002Z</time></trkpt><trkpt lat="45.146459600647475" lon="9.353683218277212"><ele>69.0</ele><time>2026-04-18T09:22:58.002Z</time></trkpt><trkpt lat="45.14632347702502" lon="9.35364740607526"><ele>69.0</ele><time>2026-04-18T09:22:59.002Z</time></trkpt><trkpt lat="45.14623250869829" lon="9.353631888199814"><ele>69.0</ele><time>2026-04-18T09:23:00.002Z</time></trkpt><trkpt lat="45.14613825682947" lon="9.353619014869986"><ele>69.0</ele><time>2026-04-18T09:23:01.002Z</time></trkpt><trkpt lat="45.146020004914554" lon="9.353606888759584"><ele>69.0</ele><time>2026-04-18T09:23:02.002Z</time></trkpt><trkpt lat="45.14589260681515" lon="9.353585082415727"><ele>69.0</ele><time>2026-04-18T09:23:03.002Z</time></trkpt><trkpt lat="45.14576577878292" lon="9.353559536112918"><ele>69.0</ele><time>2026-04-18T09:23:04.002Z</time></trkpt><trkpt lat="45.14562465100148" lon="9.353521265426965"><ele>69.0</ele><time>2026-04-18T09:23:05.002Z</time></trkpt><trkpt lat="45.14547205033879" lon="9.353475651956344"><ele>69.0</ele><time>2026-04-18T09:23:06.002Z</time></trkpt><trkpt lat="45.1453133792327" lon="9.35341834074639"><ele>69.0</ele><time>2026-04-18T09:23:07.002Z</time></trkpt><trkpt lat="45.14515856621556" lon="9.353352696627443"><ele>69.0</ele><time>2026-04-18T09:23:08.002Z</time></trkpt><trkpt lat="45.14499575277558" lon="9.35326942580522"><ele>69.0</ele><time>2026-04-18T09:23:09.002Z</time></trkpt><trkpt lat="45.144828075730636" lon="9.3531800314"><ele>69.0</ele><time>2026-04-18T09:23:10.002Z</time></trkpt><trkpt lat="45.144670847819526" lon="9.353098971902856"><ele>69.0</ele><time>2026-04-18T09:23:11.002Z</time></trkpt><trkpt lat="45.14452412301609" lon="9.35301956782624"><ele>69.25</ele><time>2026-04-18T09:23:12.002Z</time></trkpt><trkpt lat="45.144383682086364" lon="9.35293928073925"><ele>69.5</ele><time>2026-04-18T09:23:13.002Z</time></trkpt><trkpt lat="45.144244974444035" lon="9.35286142817876"><ele>69.75</ele><time>2026-04-18T09:23:14.002Z</time></trkpt><trkpt lat="45.14411295045453" lon="9.352787172716667"><ele>70.0</ele><time>2026-04-18T09:23:15.002Z</time></trkpt><trkpt lat="45.143987089331915" lon="9.352716279892205"><ele>70.25</ele><time>2026-04-18T09:23:16.002Z</time></trkpt><trkpt lat="45.143868193164" lon="9.352648915795509"><ele>70.5</ele><time>2026-04-18T09:23:17.002Z</time></trkpt><trkpt lat="45.1437479497508" lon="9.352579841404902"><ele>70.75</ele><time>2026-04-18T09:23:18.003Z</time></trkpt><trkpt lat="45.14363366895655" lon="9.352515680935566"><ele>71.0</ele><time>2026-04-18T09:23:19.003Z</time></trkpt><trkpt lat="45.14353923163316" lon="9.3524632534844"><ele>71.0</ele><time>2026-04-18T09:23:20.003Z</time></trkpt><trkpt lat="45.143460346845536" lon="9.352417473049455"><ele>71.0</ele><time>2026-04-18T09:23:21.003Z</time></trkpt><trkpt lat="45.143393573230355" lon="9.352378606517394"><ele>71.0</ele><time>2026-04-18T09:23:22.003Z</time></trkpt><trkpt lat="45.142973794015916" lon="9.352168159511894"><ele>70.0</ele><time>2026-04-18T09:23:24.003Z</time></trkpt><trkpt lat="45.142816201229316" lon="9.35208902774268"><ele>69.0</ele><time>2026-04-18T09:23:25.003Z</time></trkpt><trkpt lat="45.1426327538601" lon="9.352000044362908"><ele>68.0</ele><time>2026-04-18T09:23:26.003Z</time></trkpt><trkpt lat="45.14244940596357" lon="9.351909777065659"><ele>67.33333333333334</ele><time>2026-04-18T09:23:27.003Z</time></trkpt><trkpt lat="45.142267410882695" lon="9.351821860509054"><ele>66.66666666666667</ele><time>2026-04-18T09:23:28.003Z</time></trkpt><trkpt lat="45.14207632614173" lon="9.35172990658909"><ele>66.0</ele><time>2026-04-18T09:23:29.003Z</time></trkpt><trkpt lat="45.14189002759331" lon="9.351609283119659"><ele>66.0</ele><time>2026-04-18T09:23:30.003Z</time></trkpt><trkpt lat="45.14169622124029" lon="9.351509092113016"><ele>66.0</ele><time>2026-04-18T09:23:31.003Z</time></trkpt><trkpt lat="45.1415080510833" lon="9.351413566887148"><ele>66.0</ele><time>2026-04-18T09:23:32.003Z</time></trkpt><trkpt lat="45.14133989598055" lon="9.35132875373438"><ele>66.33333333333333</ele><time>2026-04-18T09:23:33.003Z</time></trkpt><trkpt lat="45.141181608002" lon="9.35124928128001"><ele>66.66666666666666</ele><time>2026-04-18T09:23:34.003Z</time></trkpt><trkpt lat="45.14103325017811" lon="9.351175719575174"><ele>67.0</ele><time>2026-04-18T09:23:35.003Z</time></trkpt><trkpt lat="45.14090259984238" lon="9.35111093794191"><ele>67.0</ele><time>2026-04-18T09:23:36.003Z</time></trkpt><trkpt lat="45.140793287174795" lon="9.351054555991803"><ele>67.0</ele><time>2026-04-18T09:23:37.003Z</time></trkpt><trkpt lat="45.14069741889609" lon="9.351005058444883"><ele>67.0</ele><time>2026-04-18T09:23:38.003Z</time></trkpt><trkpt lat="45.14061933414592" lon="9.350964742671106"><ele>67.0</ele><time>2026-04-18T09:23:39.003Z</time></trkpt><trkpt lat="45.14055942982471" lon="9.35093381362005"><ele>67.0</ele><time>2026-04-18T09:23:40.003Z</time></trkpt><trkpt lat="45.14049817095751" lon="9.350902185230039"><ele>67.0</ele><time>2026-04-18T09:23:42.003Z</time></trkpt><trkpt lat="45.14048001047169" lon="9.351211674135465"><ele>67.0</ele><time>2026-04-18T09:23:44.003Z</time></trkpt><trkpt lat="45.14045304891826" lon="9.351301506564276"><ele>67.0</ele><time>2026-04-18T09:23:45.003Z</time></trkpt><trkpt lat="45.14041029035605" lon="9.35142969986384"><ele>67.0</ele><time>2026-04-18T09:23:45.998Z</time></trkpt><trkpt lat="45.14037764847828" lon="9.351625941853262"><ele>67.0</ele><time>2026-04-18T09:23:46.998Z</time></trkpt><trkpt lat="45.140320501655495" lon="9.3518231853535"><ele>66.66666666666666</ele><time>2026-04-18T09:23:47.999Z</time></trkpt><trkpt lat="45.1402593379528" lon="9.352038785225185"><ele>66.33333333333333</ele><time>2026-04-18T09:23:48.999Z</time></trkpt><trkpt lat="45.140202543159496" lon="9.35225314412494"><ele>66.0</ele><time>2026-04-18T09:23:49.999Z</time></trkpt><trkpt lat="45.140140116132336" lon="9.35248473181925"><ele>66.0</ele><time>2026-04-18T09:23:50.999Z</time></trkpt><trkpt lat="45.14008402997816" lon="9.352715793524357"><ele>66.0</ele><time>2026-04-18T09:23:51.999Z</time></trkpt><trkpt lat="45.14002973762731" lon="9.352918369515402"><ele>66.0</ele><time>2026-04-18T09:23:52.999Z</time></trkpt><trkpt lat="45.13998128551038" lon="9.353097803214485"><ele>66.0</ele><time>2026-04-18T09:23:53.999Z</time></trkpt><trkpt lat="45.139935574773354" lon="9.353265272472504"><ele>66.0</ele><time>2026-04-18T09:23:54.999Z</time></trkpt><trkpt lat="45.13989628315656" lon="9.353410014307492"><ele>66.0</ele><time>2026-04-18T09:23:55.999Z</time></trkpt><trkpt lat="45.139858254879144" lon="9.353530962990238"><ele>66.0</ele><time>2026-04-18T09:23:56.999Z</time></trkpt><trkpt lat="45.13981797985536" lon="9.353627405535166"><ele>66.0</ele><time>2026-04-18T09:23:57.999Z</time></trkpt><trkpt lat="45.13974547846118" lon="9.353733983188896"><ele>66.25</ele><time>2026-04-18T09:23:59.999Z</time></trkpt><trkpt lat="45.139871286496266" lon="9.353898028699858"><ele>66.5</ele><time>2026-04-18T09:24:06Z</time></trkpt><trkpt lat="45.13997070838164" lon="9.353822839777308"><ele>66.75</ele><time>2026-04-18T09:24:08Z</time></trkpt><trkpt lat="45.140052002477816" lon="9.353754094300346"><ele>67.0</ele><time>2026-04-18T09:24:09Z</time></trkpt><trkpt lat="45.140138675345526" lon="9.353681629295913"><ele>67.5</ele><time>2026-04-18T09:24:10Z</time></trkpt><trkpt lat="45.14023630395338" lon="9.353601887724023"><ele>68.0</ele><time>2026-04-18T09:24:11Z</time></trkpt><trkpt lat="45.140345075704126" lon="9.353511648331285"><ele>68.5</ele><time>2026-04-18T09:24:12Z</time></trkpt><trkpt lat="45.140458244537385" lon="9.353421724805486"><ele>69.0</ele><time>2026-04-18T09:24:13Z</time></trkpt><trkpt lat="45.14055779822594" lon="9.35334339669507"><ele>69.0</ele><time>2026-04-18T09:24:14Z</time></trkpt><trkpt lat="45.14064270806621" lon="9.353276323823435"><ele>69.0</ele><time>2026-04-18T09:24:15Z</time></trkpt><trkpt lat="45.1407208646404" lon="9.353216992711037"><ele>69.0</ele><time>2026-04-18T09:24:16Z</time></trkpt><trkpt lat="45.140807555371154" lon="9.35314936802347"><ele>69.0</ele><time>2026-04-18T09:24:17Z</time></trkpt><trkpt lat="45.14089826399677" lon="9.353076230192148"><ele>69.0</ele><time>2026-04-18T09:24:18Z</time></trkpt><trkpt lat="45.14099078284267" lon="9.353009054668942"><ele>68.4</ele><time>2026-04-18T09:24:19Z</time></trkpt><trkpt lat="45.14107941524245" lon="9.352957848758505"><ele>67.80000000000001</ele><time>2026-04-18T09:24:20Z</time></trkpt><trkpt lat="45.14116731955383" lon="9.352928164580817"><ele>67.19999999999999</ele><time>2026-04-18T09:24:21Z</time></trkpt><trkpt lat="45.14126586843106" lon="9.352916668045337"><ele>66.6</ele><time>2026-04-18T09:24:22Z</time></trkpt><trkpt lat="45.14136383427881" lon="9.352921747305784"><ele>66.0</ele><time>2026-04-18T09:24:23Z</time></trkpt><trkpt lat="45.141461943036575" lon="9.3529274182044"><ele>66.33333333333333</ele><time>2026-04-18T09:24:24.001Z</time></trkpt><trkpt lat="45.14156296248967" lon="9.352932397749607"><ele>66.66666666666667</ele><time>2026-04-18T09:24:25.001Z</time></trkpt><trkpt lat="45.141659270447015" lon="9.352948157791127"><ele>67.0</ele><time>2026-04-18T09:24:26.001Z</time></trkpt><trkpt lat="45.14174574227728" lon="9.352978342984576"><ele>67.33333333333334</ele><time>2026-04-18T09:24:27.001Z</time></trkpt><trkpt lat="45.14182045303529" lon="9.35301002481276"><ele>67.66666666666667</ele><time>2026-04-18T09:24:28.001Z</time></trkpt><trkpt lat="45.14187896809848" lon="9.353050375789474"><ele>68.0</ele><time>2026-04-18T09:24:29.001Z</time></trkpt><trkpt lat="45.14193203096533" lon="9.353112049752704"><ele>68.0</ele><time>2026-04-18T09:24:30.001Z</time></trkpt><trkpt lat="45.14198028820644" lon="9.3532035690638"><ele>68.0</ele><time>2026-04-18T09:24:31.001Z</time></trkpt><trkpt lat="45.142020242796356" lon="9.353318753213264"><ele>68.0</ele><time>2026-04-18T09:24:32.001Z</time></trkpt><trkpt lat="45.14206049312105" lon="9.353449227963283"><ele>68.0</ele><time>2026-04-18T09:24:33.001Z</time></trkpt><trkpt lat="45.142113051979386" lon="9.353569775361011"><ele>68.0</ele><time>2026-04-18T09:24:34.001Z</time></trkpt><trkpt lat="45.14216945370832" lon="9.353687897271588"><ele>68.0</ele><time>2026-04-18T09:24:35.001Z</time></trkpt><trkpt lat="45.14221599144566" lon="9.353797858881462"><ele>68.0</ele><time>2026-04-18T09:24:36.001Z</time></trkpt><trkpt lat="45.142251659014526" lon="9.35390885699201"><ele>68.0</ele><time>2026-04-18T09:24:37.001Z</time></trkpt><trkpt lat="45.14227512787221" lon="9.354016893378033"><ele>68.0</ele><time>2026-04-18T09:24:38.001Z</time></trkpt><trkpt lat="45.1422890794393" lon="9.354144427384503"><ele>68.0</ele><time>2026-04-18T09:24:39.001Z</time></trkpt><trkpt lat="45.14228568789385" lon="9.35427717624165"><ele>68.0</ele><time>2026-04-18T09:24:40.001Z</time></trkpt><trkpt lat="45.142284425072106" lon="9.354427060175594"><ele>68.0</ele><time>2026-04-18T09:24:41.001Z</time></trkpt><trkpt lat="45.14228541552696" lon="9.354585770048653"><ele>68.0</ele><time>2026-04-18T09:24:42.001Z</time></trkpt><trkpt lat="45.14228614235307" lon="9.354748323821564"><ele>68.0</ele><time>2026-04-18T09:24:43.001Z</time></trkpt><trkpt lat="45.14229048125812" lon="9.354908548671037"><ele>68.0</ele><time>2026-04-18T09:24:44.001Z</time></trkpt><trkpt lat="45.14229519461097" lon="9.355064441908848"><ele>68.0</ele><time>2026-04-18T09:24:45.001Z</time></trkpt><trkpt lat="45.142296046423446" lon="9.355226200536283"><ele>68.0</ele><time>2026-04-18T09:24:46.001Z</time></trkpt><trkpt lat="45.14230050278724" lon="9.355395612702976"><ele>68.0</ele><time>2026-04-18T09:24:47.001Z</time></trkpt><trkpt lat="45.142303537791534" lon="9.355561508363776"><ele>68.0</ele><time>2026-04-18T09:24:48.001Z</time></trkpt><trkpt lat="45.1423094864347" lon="9.35571635751888"><ele>68.2</ele><time>2026-04-18T09:24:49.001Z</time></trkpt><trkpt lat="45.14231439387639" lon="9.35586983122998"><ele>68.4</ele><time>2026-04-18T09:24:50.001Z</time></trkpt><trkpt lat="45.14231592000902" lon="9.356015435159605"><ele>68.60000000000001</ele><time>2026-04-18T09:24:51.001Z</time></trkpt><trkpt lat="45.14231712224983" lon="9.356163401829923"><ele>68.8</ele><time>2026-04-18T09:24:52.001Z</time></trkpt><trkpt lat="45.14231881509902" lon="9.356314824009178"><ele>69.0</ele><time>2026-04-18T09:24:53.002Z</time></trkpt><trkpt lat="45.14231456610066" lon="9.356447163731291"><ele>69.2</ele><time>2026-04-18T09:24:54.002Z</time></trkpt><trkpt lat="45.14230395815665" lon="9.356580561046425"><ele>69.4</ele><time>2026-04-18T09:24:55.002Z</time></trkpt><trkpt lat="45.14228508742367" lon="9.356714371352806"><ele>69.6</ele><time>2026-04-18T09:24:56.002Z</time></trkpt><trkpt lat="45.14226106830218" lon="9.35685164780527"><ele>69.8</ele><time>2026-04-18T09:24:57.002Z</time></trkpt><trkpt lat="45.14223461359147" lon="9.356994429480878"><ele>70.0</ele><time>2026-04-18T09:24:58.002Z</time></trkpt><trkpt lat="45.14220978369485" lon="9.357148294786745"><ele>69.5</ele><time>2026-04-18T09:24:59.002Z</time></trkpt><trkpt lat="45.1421887560873" lon="9.357315435135556"><ele>69.0</ele><time>2026-04-18T09:25:00.002Z</time></trkpt><trkpt lat="45.1421655072381" lon="9.357493019492225"><ele>68.5</ele><time>2026-04-18T09:25:01.002Z</time></trkpt><trkpt lat="45.14213989064933" lon="9.357675051661639"><ele>68.0</ele><time>2026-04-18T09:25:02.002Z</time></trkpt><trkpt lat="45.14211526372714" lon="9.35785048370009"><ele>68.0</ele><time>2026-04-18T09:25:03.002Z</time></trkpt><trkpt lat="45.14208772850834" lon="9.358022128423883"><ele>68.0</ele><time>2026-04-18T09:25:04.002Z</time></trkpt><trkpt lat="45.1420560492852" lon="9.358189847486756"><ele>68.0</ele><time>2026-04-18T09:25:05.002Z</time></trkpt><trkpt lat="45.142022551138346" lon="9.358356660266683"><ele>68.0</ele><time>2026-04-18T09:25:06.002Z</time></trkpt><trkpt lat="45.141987541828165" lon="9.358517275682425"><ele>68.0</ele><time>2026-04-18T09:25:07.002Z</time></trkpt><trkpt lat="45.14195242853378" lon="9.358683864195246"><ele>68.0</ele><time>2026-04-18T09:25:08.002Z</time></trkpt><trkpt lat="45.1419180852021" lon="9.358845743526079"><ele>68.0</ele><time>2026-04-18T09:25:09.002Z</time></trkpt><trkpt lat="45.14188446890891" lon="9.359003722379299"><ele>68.0</ele><time>2026-04-18T09:25:10.002Z</time></trkpt><trkpt lat="45.1418506988199" lon="9.359163270150065"><ele>68.0</ele><time>2026-04-18T09:25:11.002Z</time></trkpt><trkpt lat="45.141813575730396" lon="9.359322412616368"><ele>68.0</ele><time>2026-04-18T09:25:12.002Z</time></trkpt><trkpt lat="45.14178474274099" lon="9.359462284568279"><ele>68.0</ele><time>2026-04-18T09:25:13.002Z</time></trkpt><trkpt lat="45.14175657604794" lon="9.359598920251166"><ele>68.0</ele><time>2026-04-18T09:25:14.002Z</time></trkpt><trkpt lat="45.14173569783233" lon="9.359719189709029"><ele>68.0</ele><time>2026-04-18T09:25:15.002Z</time></trkpt><trkpt lat="45.141717770841545" lon="9.359825856822535"><ele>68.0</ele><time>2026-04-18T09:25:16.002Z</time></trkpt><trkpt lat="45.141702432982726" lon="9.359923437506962"><ele>68.0</ele><time>2026-04-18T09:25:17.002Z</time></trkpt><trkpt lat="45.141683686020734" lon="9.360010448584342"><ele>68.0</ele><time>2026-04-18T09:25:18.002Z</time></trkpt><trkpt lat="45.14161633824332" lon="9.360068022448262"><ele>68.0</ele><time>2026-04-18T09:25:20.002Z</time></trkpt><trkpt lat="45.141497967433736" lon="9.360047555142463"><ele>68.0</ele><time>2026-04-18T09:25:22.002Z</time></trkpt><trkpt lat="45.14143249930369" lon="9.36002466593872"><ele>68.0</ele><time>2026-04-18T09:25:23.002Z</time></trkpt><trkpt lat="45.14134368958594" lon="9.359959481986994"><ele>68.0</ele><time>2026-04-18T09:25:24.002Z</time></trkpt><trkpt lat="45.141279113734186" lon="9.35991458444646"><ele>68.0</ele><time>2026-04-18T09:25:25.002Z</time></trkpt><trkpt lat="45.14121319032633" lon="9.359885285886932"><ele>68.0</ele><time>2026-04-18T09:25:26.003Z</time></trkpt><trkpt lat="45.141148273502814" lon="9.359861127032477"><ele>68.0</ele><time>2026-04-18T09:25:27.003Z</time></trkpt><trkpt lat="45.141065929022886" lon="9.35990046695347"><ele>68.0</ele><time>2026-04-18T09:25:29.003Z</time></trkpt><trkpt lat="45.141025530830966" lon="9.360060477460697"><ele>68.0</ele><time>2026-04-18T09:25:31.003Z</time></trkpt><trkpt lat="45.141005436565216" lon="9.36019452938119"><ele>68.0</ele><time>2026-04-18T09:25:32.003Z</time></trkpt><trkpt lat="45.14098223984872" lon="9.360354169887223"><ele>68.0</ele><time>2026-04-18T09:25:33.003Z</time></trkpt><trkpt lat="45.14095765066403" lon="9.360506800936804"><ele>68.0</ele><time>2026-04-18T09:25:34.003Z</time></trkpt><trkpt lat="45.140920924680955" lon="9.360667290518375"><ele>68.0</ele><time>2026-04-18T09:25:35.003Z</time></trkpt><trkpt lat="45.140885454812185" lon="9.360811325199032"><ele>68.0</ele><time>2026-04-18T09:25:36.003Z</time></trkpt><trkpt lat="45.14086137611402" lon="9.360932737984792"><ele>68.0</ele><time>2026-04-18T09:25:37.003Z</time></trkpt><trkpt lat="45.140841080187236" lon="9.361040486872994"><ele>68.0</ele><time>2026-04-18T09:25:38.003Z</time></trkpt><trkpt lat="45.14081991142062" lon="9.361133589654829"><ele>68.0</ele><time>2026-04-18T09:25:39.003Z</time></trkpt><trkpt lat="45.14074440232044" lon="9.36120680359895"><ele>68.0</ele><time>2026-04-18T09:25:41.003Z</time></trkpt><trkpt lat="45.14067798925072" lon="9.36120624426843"><ele>68.0</ele><time>2026-04-18T09:25:42.003Z</time></trkpt><trkpt lat="45.140612238437086" lon="9.361181548187256"><ele>67.8</ele><time>2026-04-18T09:25:43.003Z</time></trkpt><trkpt lat="45.14053349248362" lon="9.36114694954981"><ele>67.6</ele><time>2026-04-18T09:25:44.003Z</time></trkpt><trkpt lat="45.14043591331734" lon="9.361099979947099"><ele>67.4</ele><time>2026-04-18T09:25:45.003Z</time></trkpt><trkpt lat="45.140328486237294" lon="9.36105325881315"><ele>67.2</ele><time>2026-04-18T09:25:46.003Z</time></trkpt><trkpt lat="45.1402171850359" lon="9.361014153974681"><ele>67.0</ele><time>2026-04-18T09:25:47.003Z</time></trkpt><trkpt lat="45.14010876216163" lon="9.360975951104006"><ele>67.0</ele><time>2026-04-18T09:25:48.003Z</time></trkpt><trkpt lat="45.14001642060489" lon="9.360934030716756"><ele>67.0</ele><time>2026-04-18T09:25:49.003Z</time></trkpt><trkpt lat="45.13993284842148" lon="9.360883467897619"><ele>67.0</ele><time>2026-04-18T09:25:50.003Z</time></trkpt><trkpt lat="45.139868183295945" lon="9.360827114625193"><ele>67.0</ele><time>2026-04-18T09:25:51.003Z</time></trkpt><trkpt lat="45.13979822604473" lon="9.360774587787963"><ele>67.0</ele><time>2026-04-18T09:25:51.998Z</time></trkpt><trkpt lat="45.1397096465491" lon="9.360741623050513"><ele>67.0</ele><time>2026-04-18T09:25:52.998Z</time></trkpt><trkpt lat="45.13960681337847" lon="9.36070923058328"><ele>67.2</ele><time>2026-04-18T09:25:53.998Z</time></trkpt><trkpt lat="45.13950226662264" lon="9.360672861629372"><ele>67.4</ele><time>2026-04-18T09:25:54.998Z</time></trkpt><trkpt lat="45.13941554055502" lon="9.360635716707765"><ele>67.6</ele><time>2026-04-18T09:25:55.998Z</time></trkpt><trkpt lat="45.13934729086281" lon="9.360609989250449"><ele>67.8</ele><time>2026-04-18T09:25:56.999Z</time></trkpt><trkpt lat="45.13928091007423" lon="9.360590591575914"><ele>68.0</ele><time>2026-04-18T09:25:57.999Z</time></trkpt><trkpt lat="45.13916426697168" lon="9.360631245580269"><ele>68.0</ele><time>2026-04-18T09:25:59.999Z</time></trkpt><trkpt lat="45.13907547367508" lon="9.360760423879002"><ele>68.0</ele><time>2026-04-18T09:26:01.999Z</time></trkpt><trkpt lat="45.13904487328101" lon="9.360852261303883"><ele>68.0</ele><time>2026-04-18T09:26:02.999Z</time></trkpt><trkpt lat="45.13901815537686" lon="9.360953308159026"><ele>68.0</ele><time>2026-04-18T09:26:03.999Z</time></trkpt><trkpt lat="45.13900027427868" lon="9.361063905142135"><ele>68.0</ele><time>2026-04-18T09:26:04.999Z</time></trkpt><trkpt lat="45.13897696379616" lon="9.361194850252712"><ele>67.8</ele><time>2026-04-18T09:26:05.999Z</time></trkpt><trkpt lat="45.13894685262774" lon="9.361339536563476"><ele>67.6</ele><time>2026-04-18T09:26:06.999Z</time></trkpt><trkpt lat="45.138917830934844" lon="9.361488497869805"><ele>67.4</ele><time>2026-04-18T09:26:07.999Z</time></trkpt><trkpt lat="45.138890330409694" lon="9.36163351900056"><ele>67.2</ele><time>2026-04-18T09:26:08.999Z</time></trkpt><trkpt lat="45.138858763156314" lon="9.361793408535153"><ele>67.0</ele><time>2026-04-18T09:26:09.999Z</time></trkpt><trkpt lat="45.138826859067215" lon="9.361962575465148"><ele>67.0</ele><time>2026-04-18T09:26:10.999Z</time></trkpt><trkpt lat="45.13879927831945" lon="9.362119383368475"><ele>67.0</ele><time>2026-04-18T09:26:11.999Z</time></trkpt><trkpt lat="45.13877142552082" lon="9.362255324965203"><ele>67.0</ele><time>2026-04-18T09:26:13Z</time></trkpt><trkpt lat="45.13874808826998" lon="9.362365919973838"><ele>67.0</ele><time>2026-04-18T09:26:14Z</time></trkpt><trkpt lat="45.138715078165134" lon="9.36249307903602"><ele>67.0</ele><time>2026-04-18T09:26:15Z</time></trkpt><trkpt lat="45.13867298394593" lon="9.362594914879693"><ele>67.33333333333333</ele><time>2026-04-18T09:26:16Z</time></trkpt><trkpt lat="45.13862019943604" lon="9.36268966300302"><ele>67.66666666666666</ele><time>2026-04-18T09:26:17Z</time></trkpt><trkpt lat="45.13856235959667" lon="9.362755272738505"><ele>68.0</ele><time>2026-04-18T09:26:18Z</time></trkpt><trkpt lat="45.1384901687316" lon="9.362805939980829"><ele>68.33333333333333</ele><time>2026-04-18T09:26:19Z</time></trkpt><trkpt lat="45.138412941134746" lon="9.362826926823434"><ele>68.66666666666667</ele><time>2026-04-18T09:26:20Z</time></trkpt><trkpt lat="45.13833191088063" lon="9.362830570792081"><ele>69.0</ele><time>2026-04-18T09:26:21Z</time></trkpt><trkpt lat="45.13824145272817" lon="9.362821825773652"><ele>68.8</ele><time>2026-04-18T09:26:22Z</time></trkpt><trkpt lat="45.138142489490235" lon="9.362809086321048"><ele>68.60000000000001</ele><time>2026-04-18T09:26:23Z</time></trkpt><trkpt lat="45.13804466646428" lon="9.36279860454073"><ele>68.4</ele><time>2026-04-18T09:26:24Z</time></trkpt><trkpt lat="45.13795944477224" lon="9.362793260422476"><ele>68.2</ele><time>2026-04-18T09:26:25Z</time></trkpt><trkpt lat="45.13787852117207" lon="9.362787712817797"><ele>68.0</ele><time>2026-04-18T09:26:26Z</time></trkpt><trkpt lat="45.13776302804415" lon="9.362813255872846"><ele>68.0</ele><time>2026-04-18T09:26:28Z</time></trkpt><trkpt lat="45.137690497927096" lon="9.362929574697988"><ele>68.0</ele><time>2026-04-18T09:26:30Z</time></trkpt><trkpt lat="45.13766157224729" lon="9.36301906735928"><ele>68.0</ele><time>2026-04-18T09:26:31Z</time></trkpt><trkpt lat="45.1376291759193" lon="9.363122537569073"><ele>68.0</ele><time>2026-04-18T09:26:32Z</time></trkpt><trkpt lat="45.137596610955406" lon="9.36323306385204"><ele>68.0</ele><time>2026-04-18T09:26:33Z</time></trkpt><trkpt lat="45.13755951067998" lon="9.36332914873473"><ele>68.0</ele><time>2026-04-18T09:26:34Z</time></trkpt><trkpt lat="45.13752636527677" lon="9.363406804607653"><ele>68.2</ele><time>2026-04-18T09:26:35Z</time></trkpt><trkpt lat="45.137489662760494" lon="9.363559330646058"><ele>68.4</ele><time>2026-04-18T09:26:37Z</time></trkpt><trkpt lat="45.13752059682455" lon="9.363692201747575"><ele>68.60000000000001</ele><time>2026-04-18T09:26:39.001Z</time></trkpt><trkpt lat="45.13762091918062" lon="9.363763699415617"><ele>68.8</ele><time>2026-04-18T09:26:41.001Z</time></trkpt><trkpt lat="45.137692075718626" lon="9.363774498900487"><ele>69.0</ele><time>2026-04-18T09:26:42.001Z</time></trkpt><trkpt lat="45.13777519253308" lon="9.36377766810181"><ele>69.0</ele><time>2026-04-18T09:26:43.001Z</time></trkpt><trkpt lat="45.13787556770736" lon="9.363788267224361"><ele>69.0</ele><time>2026-04-18T09:26:44.001Z</time></trkpt><trkpt lat="45.13798266224731" lon="9.3638008391786"><ele>69.0</ele><time>2026-04-18T09:26:45.001Z</time></trkpt><trkpt lat="45.138077466516116" lon="9.363818834331356"><ele>69.0</ele><time>2026-04-18T09:26:46.001Z</time></trkpt><trkpt lat="45.13816578027756" lon="9.363844498782184"><ele>69.0</ele><time>2026-04-18T09:26:47.001Z</time></trkpt><trkpt lat="45.13826092189967" lon="9.363855818457456"><ele>68.75</ele><time>2026-04-18T09:26:48.001Z</time></trkpt><trkpt lat="45.13837008990431" lon="9.363863938810747"><ele>68.5</ele><time>2026-04-18T09:26:49.001Z</time></trkpt><trkpt lat="45.13848347468128" lon="9.363878656708367"><ele>68.25</ele><time>2026-04-18T09:26:50.001Z</time></trkpt><trkpt lat="45.13860382587907" lon="9.363903234531932"><ele>68.0</ele><time>2026-04-18T09:26:51.001Z</time></trkpt><trkpt lat="45.1387130563383" lon="9.363925053589526"><ele>68.0</ele><time>2026-04-18T09:26:52.001Z</time></trkpt><trkpt lat="45.1388129347582" lon="9.363941249625084"><ele>68.0</ele><time>2026-04-18T09:26:53.001Z</time></trkpt><trkpt lat="45.13891518187462" lon="9.363957122414673"><ele>68.0</ele><time>2026-04-18T09:26:54.001Z</time></trkpt><trkpt lat="45.13900887112987" lon="9.363971113703444"><ele>68.0</ele><time>2026-04-18T09:26:55.001Z</time></trkpt><trkpt lat="45.13909799643771" lon="9.3639808395099"><ele>68.0</ele><time>2026-04-18T09:26:56.001Z</time></trkpt><trkpt lat="45.139192819269816" lon="9.363994686086972"><ele>68.0</ele><time>2026-04-18T09:26:57.001Z</time></trkpt><trkpt lat="45.13928706628858" lon="9.364004006931799"><ele>68.0</ele><time>2026-04-18T09:26:58.001Z</time></trkpt><trkpt lat="45.139383373964804" lon="9.364000530942576"><ele>68.0</ele><time>2026-04-18T09:26:59.001Z</time></trkpt><trkpt lat="45.139479253393525" lon="9.363987097185568"><ele>68.0</ele><time>2026-04-18T09:27:00.001Z</time></trkpt><trkpt lat="45.1395749562102" lon="9.363982670911968"><ele>68.0</ele><time>2026-04-18T09:27:01.001Z</time></trkpt><trkpt lat="45.13967075104512" lon="9.363987893592707"><ele>68.0</ele><time>2026-04-18T09:27:02.001Z</time></trkpt><trkpt lat="45.13977567424062" lon="9.363994922074326"><ele>68.0</ele><time>2026-04-18T09:27:03.001Z</time></trkpt><trkpt lat="45.13988844084879" lon="9.364010162164327"><ele>68.0</ele><time>2026-04-18T09:27:04.001Z</time></trkpt><trkpt lat="45.13999358089417" lon="9.36402697716423"><ele>68.0</ele><time>2026-04-18T09:27:05.001Z</time></trkpt><trkpt lat="45.14009127913154" lon="9.364040867213776"><ele>68.0</ele><time>2026-04-18T09:27:06.001Z</time></trkpt><trkpt lat="45.140187354583205" lon="9.364054089052733"><ele>68.16666666666667</ele><time>2026-04-18T09:27:07.001Z</time></trkpt><trkpt lat="45.140278300682986" lon="9.36406534120996"><ele>68.33333333333334</ele><time>2026-04-18T09:27:08.001Z</time></trkpt><trkpt lat="45.140360641768225" lon="9.36406871512602"><ele>68.5</ele><time>2026-04-18T09:27:09.002Z</time></trkpt><trkpt lat="45.14044246399265" lon="9.364068855537656"><ele>68.66666666666667</ele><time>2026-04-18T09:27:10.002Z</time></trkpt><trkpt lat="45.140510366138564" lon="9.364082157024821"><ele>68.83333333333333</ele><time>2026-04-18T09:27:11.002Z</time></trkpt><trkpt lat="45.1405786400414" lon="9.364114526778703"><ele>69.0</ele><time>2026-04-18T09:27:12.002Z</time></trkpt><trkpt lat="45.14064542074776" lon="9.364236545680685"><ele>69.0</ele><time>2026-04-18T09:27:14.002Z</time></trkpt><trkpt lat="45.1406599824908" lon="9.36432958400554"><ele>69.0</ele><time>2026-04-18T09:27:15.002Z</time></trkpt><trkpt lat="45.14066297317004" lon="9.364442571261609"><ele>69.0</ele><time>2026-04-18T09:27:16.002Z</time></trkpt><trkpt lat="45.14066322540355" lon="9.364567927837145"><ele>69.0</ele><time>2026-04-18T09:27:17.002Z</time></trkpt><trkpt lat="45.140665284295075" lon="9.364699126263533"><ele>69.0</ele><time>2026-04-18T09:27:18.002Z</time></trkpt><trkpt lat="45.14065914683133" lon="9.364826141865311"><ele>69.0</ele><time>2026-04-18T09:27:19.002Z</time></trkpt><trkpt lat="45.14064780270515" lon="9.36492672201206"><ele>68.85714285714286</ele><time>2026-04-18T09:27:20.002Z</time></trkpt><trkpt lat="45.14064009216499" lon="9.365018570011047"><ele>68.71428571428572</ele><time>2026-04-18T09:27:21.002Z</time></trkpt><trkpt lat="45.140635736125645" lon="9.365113087982547"><ele>68.57142857142857</ele><time>2026-04-18T09:27:22.002Z</time></trkpt><trkpt lat="45.14063187885036" lon="9.365213144577222"><ele>68.42857142857143</ele><time>2026-04-18T09:27:23.002Z</time></trkpt><trkpt lat="45.140619968389196" lon="9.365317652585587"><ele>68.28571428571428</ele><time>2026-04-18T09:27:24.002Z</time></trkpt><trkpt lat="45.14058662528854" lon="9.36542111059047"><ele>68.14285714285714</ele><time>2026-04-18T09:27:25.002Z</time></trkpt><trkpt lat="45.140552050908994" lon="9.365533475481822"><ele>68.0</ele><time>2026-04-18T09:27:26.002Z</time></trkpt><trkpt lat="45.14052620024897" lon="9.365659162097318"><ele>67.4</ele><time>2026-04-18T09:27:27.002Z</time></trkpt><trkpt lat="45.14051744806526" lon="9.365797166563443"><ele>66.8</ele><time>2026-04-18T09:27:28.002Z</time></trkpt><trkpt lat="45.1405156243433" lon="9.365949829269683"><ele>66.2</ele><time>2026-04-18T09:27:29.002Z</time></trkpt><trkpt lat="45.14051024891126" lon="9.366104665190043"><ele>65.6</ele><time>2026-04-18T09:27:30.002Z</time></trkpt><trkpt lat="45.14050099332281" lon="9.366264916771208"><ele>65.0</ele><time>2026-04-18T09:27:31.002Z</time></trkpt><trkpt lat="45.14049208542784" lon="9.36641764856253"><ele>64.0</ele><time>2026-04-18T09:27:32.002Z</time></trkpt><trkpt lat="45.14048592535887" lon="9.366575921700694"><ele>63.0</ele><time>2026-04-18T09:27:33.002Z</time></trkpt><trkpt lat="45.14047653727635" lon="9.366710862535967"><ele>62.0</ele><time>2026-04-18T09:27:34.002Z</time></trkpt><trkpt lat="45.14047183476996" lon="9.36684340650896"><ele>61.0</ele><time>2026-04-18T09:27:35.002Z</time></trkpt><trkpt lat="45.14046451975318" lon="9.366979417445464"><ele>60.0</ele><time>2026-04-18T09:27:36.002Z</time></trkpt><trkpt lat="45.14046614574997" lon="9.367114684703383"><ele>59.8</ele><time>2026-04-18T09:27:37.002Z</time></trkpt><trkpt lat="45.140471580465885" lon="9.367244870552646"><ele>59.6</ele><time>2026-04-18T09:27:38.002Z</time></trkpt><trkpt lat="45.14046251797818" lon="9.36737323746504"><ele>59.400000000000006</ele><time>2026-04-18T09:27:39.002Z</time></trkpt><trkpt lat="45.14044842499962" lon="9.367482747048141"><ele>59.2</ele><time>2026-04-18T09:27:40.002Z</time></trkpt><trkpt lat="45.1404178810667" lon="9.367618827416852"><ele>59.0</ele><time>2026-04-18T09:27:41.002Z</time></trkpt><trkpt lat="45.14039377864542" lon="9.367754428661287"><ele>59.0</ele><time>2026-04-18T09:27:42.003Z</time></trkpt><trkpt lat="45.140359444775314" lon="9.367912021857043"><ele>59.00000000000001</ele><time>2026-04-18T09:27:43.003Z</time></trkpt><trkpt lat="45.14032584917475" lon="9.368064251393267"><ele>59.00000000000001</ele><time>2026-04-18T09:27:44.003Z</time></trkpt><trkpt lat="45.14030465304778" lon="9.368196812448433"><ele>59.0</ele><time>2026-04-18T09:27:45.003Z</time></trkpt><trkpt lat="45.14028987521446" lon="9.368307806544541"><ele>59.0</ele><time>2026-04-18T09:27:46.003Z</time></trkpt><trkpt lat="45.140264656072674" lon="9.368409412350315"><ele>58.50000000000001</ele><time>2026-04-18T09:27:47.003Z</time></trkpt><trkpt lat="45.14025105703869" lon="9.36851580034298"><ele>58.0</ele><time>2026-04-18T09:27:48.003Z</time></trkpt><trkpt lat="45.14023562401702" lon="9.368636536243368"><ele>57.5</ele><time>2026-04-18T09:27:49.003Z</time></trkpt><trkpt lat="45.1402192721952" lon="9.36876446013386"><ele>57.0</ele><time>2026-04-18T09:27:50.003Z</time></trkpt><trkpt lat="45.140201602592974" lon="9.36889636457986"><ele>56.50000000000001</ele><time>2026-04-18T09:27:51.003Z</time></trkpt><trkpt lat="45.14019728746882" lon="9.36901265061685"><ele>56.0</ele><time>2026-04-18T09:27:52.003Z</time></trkpt><trkpt lat="45.14018430504859" lon="9.36912725927567"><ele>56.0</ele><time>2026-04-18T09:27:53.003Z</time></trkpt><trkpt lat="45.14015166422905" lon="9.369294140119756"><ele>55.99999999999999</ele><time>2026-04-18T09:27:55.003Z</time></trkpt><trkpt lat="45.14017233020012" lon="9.369379015005629"><ele>55.99999999999999</ele><time>2026-04-18T09:27:56.003Z</time></trkpt><trkpt lat="45.14019670560188" lon="9.369526530283904"><ele>56.0</ele><time>2026-04-18T09:27:57.998Z</time></trkpt><trkpt lat="45.14019963568862" lon="9.369689810402305"><ele>56.0</ele><time>2026-04-18T09:27:59.999Z</time></trkpt><trkpt lat="45.140177597221296" lon="9.36978555196978"><ele>56.4</ele><time>2026-04-18T09:28:00.999Z</time></trkpt><trkpt lat="45.14012761629433" lon="9.369896317370985"><ele>56.8</ele><time>2026-04-18T09:28:01.999Z</time></trkpt><trkpt lat="45.140095904746964" lon="9.370037357881536"><ele>57.199999999999996</ele><time>2026-04-18T09:28:02.999Z</time></trkpt><trkpt lat="45.14008739495836" lon="9.370188949376262"><ele>57.599999999999994</ele><time>2026-04-18T09:28:03.999Z</time></trkpt><trkpt lat="45.14006092089868" lon="9.37034627162487"><ele>58.0</ele><time>2026-04-18T09:28:04.999Z</time></trkpt><trkpt lat="45.140054760435426" lon="9.370495438993613"><ele>57.4</ele><time>2026-04-18T09:28:05.999Z</time></trkpt><trkpt lat="45.14004439012667" lon="9.370641656767697"><ele>56.8</ele><time>2026-04-18T09:28:06.999Z</time></trkpt><trkpt lat="45.14002175482636" lon="9.370775952862173"><ele>56.2</ele><time>2026-04-18T09:28:07.999Z</time></trkpt><trkpt lat="45.13999982991087" lon="9.370913970210848"><ele>55.6</ele><time>2026-04-18T09:28:08.999Z</time></trkpt><trkpt lat="45.139946207253146" lon="9.371002444135355"><ele>55.0</ele><time>2026-04-18T09:28:09.999Z</time></trkpt><trkpt lat="45.13989189674143" lon="9.371082979186081"><ele>55.166666666666664</ele><time>2026-04-18T09:28:10.999Z</time></trkpt><trkpt lat="45.1398354832559" lon="9.371168404977704"><ele>55.33333333333333</ele><time>2026-04-18T09:28:11.999Z</time></trkpt><trkpt lat="45.13978047914454" lon="9.371248879196369"><ele>55.5</ele><time>2026-04-18T09:28:12.999Z</time></trkpt><trkpt lat="45.13973193850329" lon="9.371324229993116"><ele>55.66666666666667</ele><time>2026-04-18T09:28:13.999Z</time></trkpt><trkpt lat="45.13967700000181" lon="9.371418723496298"><ele>55.833333333333336</ele><time>2026-04-18T09:28:14.999Z</time></trkpt><trkpt lat="45.13964285542932" lon="9.371541290135559"><ele>56.0</ele><time>2026-04-18T09:28:16Z</time></trkpt><trkpt lat="45.139608887852845" lon="9.371661649820314"><ele>56.199999999999996</ele><time>2026-04-18T09:28:17Z</time></trkpt><trkpt lat="45.139584534952796" lon="9.37179586528296"><ele>56.39999999999999</ele><time>2026-04-18T09:28:18Z</time></trkpt><trkpt lat="45.13956273923105" lon="9.371938286918436"><ele>56.6</ele><time>2026-04-18T09:28:19Z</time></trkpt><trkpt lat="45.13953510842715" lon="9.372076812112255"><ele>56.8</ele><time>2026-04-18T09:28:20Z</time></trkpt><trkpt lat="45.13949250343249" lon="9.372208936351713"><ele>57.0</ele><time>2026-04-18T09:28:21Z</time></trkpt><trkpt lat="45.139435679009935" lon="9.372331912087137"><ele>57.0</ele><time>2026-04-18T09:28:22Z</time></trkpt><trkpt lat="45.13937092576685" lon="9.372452016217254"><ele>57.0</ele><time>2026-04-18T09:28:23Z</time></trkpt><trkpt lat="45.139305330538065" lon="9.372583699952395"><ele>57.0</ele><time>2026-04-18T09:28:24Z</time></trkpt><trkpt lat="45.13923641035143" lon="9.37270937700054"><ele>57.0</ele><time>2026-04-18T09:28:25Z</time></trkpt><trkpt lat="45.13916155484493" lon="9.37282538613688"><ele>57.0</ele><time>2026-04-18T09:28:26Z</time></trkpt><trkpt lat="45.1390762144232" lon="9.372947894872787"><ele>56.75</ele><time>2026-04-18T09:28:27Z</time></trkpt><trkpt lat="45.13898584784687" lon="9.373075322863404"><ele>56.5</ele><time>2026-04-18T09:28:28Z</time></trkpt><trkpt lat="45.13889637194203" lon="9.373197826237945"><ele>56.25</ele><time>2026-04-18T09:28:29Z</time></trkpt><trkpt lat="45.138813407832025" lon="9.373301886028948"><ele>56.0</ele><time>2026-04-18T09:28:30Z</time></trkpt><trkpt lat="45.13872308806246" lon="9.373421495819587"><ele>56.0</ele><time>2026-04-18T09:28:31Z</time></trkpt><trkpt lat="45.13863192900696" lon="9.373535152474421"><ele>56.0</ele><time>2026-04-18T09:28:32Z</time></trkpt><trkpt lat="45.138540946507625" lon="9.373638228382951"><ele>56.0</ele><time>2026-04-18T09:28:33Z</time></trkpt><trkpt lat="45.13845973218219" lon="9.37375443467226"><ele>56.0</ele><time>2026-04-18T09:28:34Z</time></trkpt><trkpt lat="45.13837802456905" lon="9.373865496932599"><ele>55.599999999999994</ele><time>2026-04-18T09:28:35.001Z</time></trkpt><trkpt lat="45.13829657789336" lon="9.373975590027579"><ele>55.199999999999996</ele><time>2026-04-18T09:28:36.001Z</time></trkpt><trkpt lat="45.13821898610776" lon="9.374081237004203"><ele>54.800000000000004</ele><time>2026-04-18T09:28:37.001Z</time></trkpt><trkpt lat="45.13814909371751" lon="9.374179648836966"><ele>54.400000000000006</ele><time>2026-04-18T09:28:38.001Z</time></trkpt><trkpt lat="45.13807933014976" lon="9.374273881753519"><ele>54.0</ele><time>2026-04-18T09:28:39.001Z</time></trkpt><trkpt lat="45.13800378036736" lon="9.374369957610288"><ele>54.0</ele><time>2026-04-18T09:28:40.001Z</time></trkpt><trkpt lat="45.13791989489335" lon="9.374420504867183"><ele>54.00000000000001</ele><time>2026-04-18T09:28:41.001Z</time></trkpt><trkpt lat="45.137834804357055" lon="9.374477393214924"><ele>54.00000000000001</ele><time>2026-04-18T09:28:42.001Z</time></trkpt><trkpt lat="45.13774118285922" lon="9.374507480380291"><ele>54.0</ele><time>2026-04-18T09:28:43.001Z</time></trkpt><trkpt lat="45.13764388017619" lon="9.374520111255903"><ele>54.0</ele><time>2026-04-18T09:28:44.001Z</time></trkpt><trkpt lat="45.13753711114633" lon="9.374525983470745"><ele>54.0</ele><time>2026-04-18T09:28:45.001Z</time></trkpt><trkpt lat="45.13742961986148" lon="9.374528079105591"><ele>54.00000000000001</ele><time>2026-04-18T09:28:46.001Z</time></trkpt><trkpt lat="45.13732755528267" lon="9.374529889111336"><ele>54.00000000000001</ele><time>2026-04-18T09:28:47.001Z</time></trkpt><trkpt lat="45.13722970585711" lon="9.374544021651506"><ele>54.0</ele><time>2026-04-18T09:28:48.001Z</time></trkpt><trkpt lat="45.13712978053155" lon="9.374577938235147"><ele>54.0</ele><time>2026-04-18T09:28:49.001Z</time></trkpt><trkpt lat="45.137029245372176" lon="9.374647711384286"><ele>54.75</ele><time>2026-04-18T09:28:50.001Z</time></trkpt><trkpt lat="45.136930030654185" lon="9.374745204686258"><ele>55.5</ele><time>2026-04-18T09:28:51.001Z</time></trkpt><trkpt lat="45.13679963624907" lon="9.374810998968293"><ele>56.25</ele><time>2026-04-18T09:28:52.001Z</time></trkpt><trkpt lat="45.13665382510773" lon="9.374900637503373"><ele>57.0</ele><time>2026-04-18T09:28:53.001Z</time></trkpt><trkpt lat="45.13650383261139" lon="9.374975728974484"><ele>57.0</ele><time>2026-04-18T09:28:54.001Z</time></trkpt><trkpt lat="45.13635658963302" lon="9.375039443985022"><ele>57.0</ele><time>2026-04-18T09:28:55.001Z</time></trkpt><trkpt lat="45.13621453496448" lon="9.375099489338513"><ele>57.0</ele><time>2026-04-18T09:28:56.001Z</time></trkpt><trkpt lat="45.13607567363604" lon="9.375155450903419"><ele>57.0</ele><time>2026-04-18T09:28:57.001Z</time></trkpt><trkpt lat="45.1359387473717" lon="9.375205545958194"><ele>57.0</ele><time>2026-04-18T09:28:58.001Z</time></trkpt><trkpt lat="45.135787799839804" lon="9.37526043958515"><ele>57.0</ele><time>2026-04-18T09:28:59.001Z</time></trkpt><trkpt lat="45.13563798938645" lon="9.375320286212878"><ele>57.0</ele><time>2026-04-18T09:29:00.001Z</time></trkpt><trkpt lat="45.13548573331827" lon="9.375377505340783"><ele>57.0</ele><time>2026-04-18T09:29:01.001Z</time></trkpt><trkpt lat="45.135335979802825" lon="9.3754325448502"><ele>57.0</ele><time>2026-04-18T09:29:02.001Z</time></trkpt><trkpt lat="45.13519558983742" lon="9.375489388419105"><ele>57.0</ele><time>2026-04-18T09:29:03.002Z</time></trkpt><trkpt lat="45.13506325912227" lon="9.375542993141407"><ele>57.0</ele><time>2026-04-18T09:29:04.002Z</time></trkpt><trkpt lat="45.13493235047007" lon="9.37559602181518"><ele>57.0</ele><time>2026-04-18T09:29:05.002Z</time></trkpt><trkpt lat="45.13480795981688" lon="9.375649229344706"><ele>57.0</ele><time>2026-04-18T09:29:06.002Z</time></trkpt><trkpt lat="45.13470121001188" lon="9.37569061087508"><ele>57.0</ele><time>2026-04-18T09:29:07.002Z</time></trkpt><trkpt lat="45.13460014795453" lon="9.375705388572479"><ele>57.0</ele><time>2026-04-18T09:29:08.002Z</time></trkpt><trkpt lat="45.13449591006706" lon="9.375704808320597"><ele>57.0</ele><time>2026-04-18T09:29:09.002Z</time></trkpt><trkpt lat="45.1343810128343" lon="9.375701565948408"><ele>57.0</ele><time>2026-04-18T09:29:10.002Z</time></trkpt><trkpt lat="45.13425781492808" lon="9.375696002857572"><ele>57.0</ele><time>2026-04-18T09:29:11.002Z</time></trkpt><trkpt lat="45.13413824234933" lon="9.375693959529372"><ele>57.0</ele><time>2026-04-18T09:29:12.002Z</time></trkpt><trkpt lat="45.13402959868042" lon="9.375686822065074"><ele>57.0</ele><time>2026-04-18T09:29:13.002Z</time></trkpt><trkpt lat="45.13394318333515" lon="9.375673209826251"><ele>57.0</ele><time>2026-04-18T09:29:14.002Z</time></trkpt><trkpt lat="45.13387588329756" lon="9.375664050762447"><ele>57.0</ele><time>2026-04-18T09:29:15.002Z</time></trkpt><trkpt lat="45.133785376995625" lon="9.37568686235542"><ele>57.0</ele><time>2026-04-18T09:29:17.002Z</time></trkpt><trkpt lat="45.13377580765019" lon="9.375836201665798"><ele>57.0</ele><time>2026-04-18T09:29:19.002Z</time></trkpt><trkpt lat="45.133776079197986" lon="9.375999197967266"><ele>57.0</ele><time>2026-04-18T09:29:21.002Z</time></trkpt><trkpt lat="45.13376048482093" lon="9.376122162674084"><ele>57.0</ele><time>2026-04-18T09:29:22.002Z</time></trkpt><trkpt lat="45.1337460890055" lon="9.376238167761823"><ele>58.2</ele><time>2026-04-18T09:29:23.002Z</time></trkpt><trkpt lat="45.13373213691841" lon="9.376360298918094"><ele>59.400000000000006</ele><time>2026-04-18T09:29:24.002Z</time></trkpt><trkpt lat="45.13368903662198" lon="9.376495992226097"><ele>60.599999999999994</ele><time>2026-04-18T09:29:25.002Z</time></trkpt><trkpt lat="45.133677727457695" lon="9.376636089021785"><ele>61.8</ele><time>2026-04-18T09:29:26.002Z</time></trkpt><trkpt lat="45.13364476066489" lon="9.376764396790627"><ele>63.0</ele><time>2026-04-18T09:29:27.002Z</time></trkpt><trkpt lat="45.13361289524863" lon="9.376892614509021"><ele>63.0</ele><time>2026-04-18T09:29:28.002Z</time></trkpt><trkpt lat="45.133585377629146" lon="9.377010619652202"><ele>63.0</ele><time>2026-04-18T09:29:29.002Z</time></trkpt><trkpt lat="45.13356256353194" lon="9.377101003797673"><ele>63.0</ele><time>2026-04-18T09:29:30.002Z</time></trkpt><trkpt lat="45.133561412930796" lon="9.37724043078048"><ele>63.0</ele><time>2026-04-18T09:29:32.002Z</time></trkpt><trkpt lat="45.133500109849216" lon="9.377332581896734"><ele>63.0</ele><time>2026-04-18T09:29:33.002Z</time></trkpt><trkpt lat="45.133472239500286" lon="9.377465503860359"><ele>63.0</ele><time>2026-04-18T09:29:34.002Z</time></trkpt><trkpt lat="45.13345798733566" lon="9.377622564035947"><ele>63.599999999999994</ele><time>2026-04-18T09:29:35.002Z</time></trkpt><trkpt lat="45.133431915360724" lon="9.377756841979584"><ele>64.19999999999999</ele><time>2026-04-18T09:29:36.003Z</time></trkpt><trkpt lat="45.133404541364314" lon="9.37789803252934"><ele>64.8</ele><time>2026-04-18T09:29:37.003Z</time></trkpt><trkpt lat="45.13336321871181" lon="9.37805359991794"><ele>65.39999999999999</ele><time>2026-04-18T09:29:38.003Z</time></trkpt><trkpt lat="45.13334143968247" lon="9.378199444632154"><ele>66.0</ele><time>2026-04-18T09:29:39.003Z</time></trkpt><trkpt lat="45.13331804832132" lon="9.378330742859902"><ele>66.0</ele><time>2026-04-18T09:29:40.003Z</time></trkpt><trkpt lat="45.1332969324408" lon="9.378441151098917"><ele>66.0</ele><time>2026-04-18T09:29:41.003Z</time></trkpt><trkpt lat="45.133273280906394" lon="9.37854883917815"><ele>66.0</ele><time>2026-04-18T09:29:42.003Z</time></trkpt><trkpt lat="45.13324248433061" lon="9.378654519280637"><ele>66.0</ele><time>2026-04-18T09:29:43.003Z</time></trkpt><trkpt lat="45.13320327188224" lon="9.37875437013466"><ele>66.0</ele><time>2026-04-18T09:29:44.003Z</time></trkpt><trkpt lat="45.13318404980185" lon="9.378902356762305"><ele>66.0</ele><time>2026-04-18T09:29:46.003Z</time></trkpt><trkpt lat="45.133016964178346" lon="9.378944760392688"><ele>65.66666666666667</ele><time>2026-04-18T09:29:48.003Z</time></trkpt><trkpt lat="45.13293688747194" lon="9.378963773659477"><ele>65.33333333333333</ele><time>2026-04-18T09:29:49.003Z</time></trkpt><trkpt lat="45.13284978039194" lon="9.378971975034547"><ele>65.0</ele><time>2026-04-18T09:29:50.003Z</time></trkpt><trkpt lat="45.13277925575969" lon="9.37898058110191"><ele>64.66666666666666</ele><time>2026-04-18T09:29:51.003Z</time></trkpt><trkpt lat="45.13269932899623" lon="9.378990463079795"><ele>64.33333333333333</ele><time>2026-04-18T09:29:52.003Z</time></trkpt><trkpt lat="45.13262927337314" lon="9.379008677727624"><ele>64.0</ele><time>2026-04-18T09:29:53.003Z</time></trkpt><trkpt lat="45.13255965531951" lon="9.379029166884575"><ele>63.99999999999999</ele><time>2026-04-18T09:29:54.003Z</time></trkpt><trkpt lat="45.1324800518285" lon="9.379061762988602"><ele>64.0</ele><time>2026-04-18T09:29:55.003Z</time></trkpt><trkpt lat="45.132392286964674" lon="9.379095744884845"><ele>64.0</ele><time>2026-04-18T09:29:56.003Z</time></trkpt><trkpt lat="45.13230484749485" lon="9.379127046598471"><ele>64.0</ele><time>2026-04-18T09:29:57.003Z</time></trkpt><trkpt lat="45.13221963874702" lon="9.379130180199338"><ele>63.99999999999999</ele><time>2026-04-18T09:29:58.003Z</time></trkpt><trkpt lat="45.13213483981707" lon="9.379177759402918"><ele>64.0</ele><time>2026-04-18T09:29:59.003Z</time></trkpt><trkpt lat="45.132042296856206" lon="9.379200709416423"><ele>64.4</ele><time>2026-04-18T09:30:00.003Z</time></trkpt><trkpt lat="45.131952458470806" lon="9.379224744014634"><ele>64.80000000000001</ele><time>2026-04-18T09:30:01.003Z</time></trkpt><trkpt lat="45.13185864279873" lon="9.37922489758452"><ele>65.19999999999999</ele><time>2026-04-18T09:30:02.003Z</time></trkpt><trkpt lat="45.13176878051254" lon="9.379247173613404"><ele>65.6</ele><time>2026-04-18T09:30:03.003Z</time></trkpt><trkpt lat="45.13168401880286" lon="9.37928813272515"><ele>66.0</ele><time>2026-04-18T09:30:03.999Z</time></trkpt><trkpt lat="45.13159336336387" lon="9.379309061648268"><ele>65.66666666666667</ele><time>2026-04-18T09:30:04.999Z</time></trkpt><trkpt lat="45.13149780632709" lon="9.379326543463137"><ele>65.33333333333333</ele><time>2026-04-18T09:30:05.999Z</time></trkpt><trkpt lat="45.1314089231536" lon="9.379344874920136"><ele>65.0</ele><time>2026-04-18T09:30:06.999Z</time></trkpt><trkpt lat="45.13132910797172" lon="9.379354930630452"><ele>64.66666666666666</ele><time>2026-04-18T09:30:07.999Z</time></trkpt><trkpt lat="45.13124694412279" lon="9.379319464149734"><ele>64.33333333333333</ele><time>2026-04-18T09:30:08.999Z</time></trkpt><trkpt lat="45.131171211715305" lon="9.379301002803219"><ele>64.0</ele><time>2026-04-18T09:30:09.999Z</time></trkpt><trkpt lat="45.13109128456795" lon="9.379306256457967"><ele>63.99999999999999</ele><time>2026-04-18T09:30:10.999Z</time></trkpt><trkpt lat="45.13101942523264" lon="9.379280455946844"><ele>64.0</ele><time>2026-04-18T09:30:11.999Z</time></trkpt><trkpt lat="45.13096258306233" lon="9.379239193726777"><ele>64.0</ele><time>2026-04-18T09:30:12.999Z</time></trkpt><trkpt lat="45.130908173269276" lon="9.379188173273473"><ele>64.0</ele><time>2026-04-18T09:30:13.999Z</time></trkpt><trkpt lat="45.13084147533939" lon="9.379044252617826"><ele>63.99999999999999</ele><time>2026-04-18T09:30:15.999Z</time></trkpt><trkpt lat="45.130830838049505" lon="9.37891920705236"><ele>64.0</ele><time>2026-04-18T09:30:16.999Z</time></trkpt><trkpt lat="45.13082151352531" lon="9.37878923108047"><ele>64.4</ele><time>2026-04-18T09:30:17.999Z</time></trkpt><trkpt lat="45.13081442053073" lon="9.378646557080742"><ele>64.80000000000001</ele><time>2026-04-18T09:30:18.999Z</time></trkpt><trkpt lat="45.130817805014225" lon="9.378500194138955"><ele>65.19999999999999</ele><time>2026-04-18T09:30:20Z</time></trkpt><trkpt lat="45.13081828154905" lon="9.37834438446921"><ele>65.6</ele><time>2026-04-18T09:30:21Z</time></trkpt><trkpt lat="45.13081304483928" lon="9.378199525711544"><ele>66.0</ele><time>2026-04-18T09:30:22Z</time></trkpt><trkpt lat="45.13080860174736" lon="9.378073546614635"><ele>65.83333333333333</ele><time>2026-04-18T09:30:23Z</time></trkpt><trkpt lat="45.13080839766356" lon="9.377958883599362"><ele>65.66666666666667</ele><time>2026-04-18T09:30:24Z</time></trkpt><trkpt lat="45.13080265619066" lon="9.37784518428207"><ele>65.5</ele><time>2026-04-18T09:30:25Z</time></trkpt><trkpt lat="45.130797430255605" lon="9.377730124379788"><ele>65.33333333333334</ele><time>2026-04-18T09:30:26Z</time></trkpt><trkpt lat="45.130786105451875" lon="9.37761544895781"><ele>65.16666666666667</ele><time>2026-04-18T09:30:27Z</time></trkpt><trkpt lat="45.13076222226579" lon="9.377513126508076"><ele>65.0</ele><time>2026-04-18T09:30:28Z</time></trkpt><trkpt lat="45.13071911486704" lon="9.377425041832131"><ele>64.33333333333334</ele><time>2026-04-18T09:30:29Z</time></trkpt><trkpt lat="45.130671217465704" lon="9.37736498521973"><ele>63.66666666666667</ele><time>2026-04-18T09:30:30Z</time></trkpt><trkpt lat="45.13054051692595" lon="9.377354857039444"><ele>63.0</ele><time>2026-04-18T09:30:32Z</time></trkpt><trkpt lat="45.13045434260376" lon="9.377375987559677"><ele>62.33333333333333</ele><time>2026-04-18T09:30:33Z</time></trkpt><trkpt lat="45.130379482350556" lon="9.377385591393422"><ele>61.666666666666664</ele><time>2026-04-18T09:30:34Z</time></trkpt><trkpt lat="45.1303052008087" lon="9.377366173735991"><ele>61.0</ele><time>2026-04-18T09:30:35Z</time></trkpt><trkpt lat="45.13023488916486" lon="9.377314566437658"><ele>61.0</ele><time>2026-04-18T09:30:36Z</time></trkpt><trkpt lat="45.13016691304942" lon="9.377233027195413"><ele>60.99999999999999</ele><time>2026-04-18T09:30:37Z</time></trkpt><trkpt lat="45.13009651974962" lon="9.377128845410466"><ele>60.99999999999999</ele><time>2026-04-18T09:30:38Z</time></trkpt><trkpt lat="45.13004364607343" lon="9.376986101575225"><ele>61.0</ele><time>2026-04-18T09:30:39Z</time></trkpt><trkpt lat="45.129994678442486" lon="9.376812236378695"><ele>61.0</ele><time>2026-04-18T09:30:40Z</time></trkpt><trkpt lat="45.129940691215744" lon="9.376653025174802"><ele>60.0</ele><time>2026-04-18T09:30:41.001Z</time></trkpt><trkpt lat="45.12987649387224" lon="9.37652367031529"><ele>58.99999999999999</ele><time>2026-04-18T09:30:42.001Z</time></trkpt><trkpt lat="45.12980950362423" lon="9.376425421410419"><ele>57.99999999999999</ele><time>2026-04-18T09:30:43.001Z</time></trkpt><trkpt lat="45.12974215442139" lon="9.376341586575546"><ele>57.0</ele><time>2026-04-18T09:30:44.001Z</time></trkpt><trkpt lat="45.12968666159125" lon="9.37626480449521"><ele>56.0</ele><time>2026-04-18T09:30:45.001Z</time></trkpt><trkpt lat="45.12960913086771" lon="9.376161227863292"><ele>55.833333333333336</ele><time>2026-04-18T09:30:47.001Z</time></trkpt><trkpt lat="45.12954021305898" lon="9.376098810225496"><ele>55.66666666666667</ele><time>2026-04-18T09:30:50.001Z</time></trkpt><trkpt lat="45.12945443922078" lon="9.37603932628085"><ele>55.5</ele><time>2026-04-18T09:30:52.001Z</time></trkpt><trkpt lat="45.12938406731405" lon="9.37598864656481"><ele>55.33333333333333</ele><time>2026-04-18T09:30:53.001Z</time></trkpt><trkpt lat="45.12930553080548" lon="9.375924527561653"><ele>55.166666666666664</ele><time>2026-04-18T09:30:54.001Z</time></trkpt><trkpt lat="45.12922381621833" lon="9.37586080764075"><ele>55.0</ele><time>2026-04-18T09:30:55.001Z</time></trkpt><trkpt lat="45.12913695224998" lon="9.375800072519455"><ele>55.0</ele><time>2026-04-18T09:30:56.001Z</time></trkpt><trkpt lat="45.12903025759348" lon="9.375724605245361"><ele>55.0</ele><time>2026-04-18T09:30:57.001Z</time></trkpt><trkpt lat="45.128914442161296" lon="9.375646844248466"><ele>55.0</ele><time>2026-04-18T09:30:58.001Z</time></trkpt><trkpt lat="45.128787884289416" lon="9.3755678549243"><ele>55.0</ele><time>2026-04-18T09:30:59.001Z</time></trkpt><trkpt lat="45.128652067548934" lon="9.375500341312886"><ele>55.0</ele><time>2026-04-18T09:31:00.001Z</time></trkpt><trkpt lat="45.128520598619566" lon="9.375451242279505"><ele>55.0</ele><time>2026-04-18T09:31:01.001Z</time></trkpt><trkpt lat="45.12838392268106" lon="9.375411330724253"><ele>55.0</ele><time>2026-04-18T09:31:02.001Z</time></trkpt><trkpt lat="45.12823280861799" lon="9.375370256693316"><ele>55.0</ele><time>2026-04-18T09:31:03.001Z</time></trkpt><trkpt lat="45.128073968525364" lon="9.375326351167518"><ele>55.0</ele><time>2026-04-18T09:31:04.001Z</time></trkpt><trkpt lat="45.12791001136384" lon="9.375280687318932"><ele>55.0</ele><time>2026-04-18T09:31:05.001Z</time></trkpt><trkpt lat="45.1277393743012" lon="9.375234535011804"><ele>55.0</ele><time>2026-04-18T09:31:06.001Z</time></trkpt><trkpt lat="45.127561065558936" lon="9.375183302493776"><ele>55.0</ele><time>2026-04-18T09:31:07.001Z</time></trkpt><trkpt lat="45.12738002190409" lon="9.375127087139592"><ele>55.0</ele><time>2026-04-18T09:31:08.001Z</time></trkpt><trkpt lat="45.1271951737832" lon="9.375065306084982"><ele>55.0</ele><time>2026-04-18T09:31:09.001Z</time></trkpt><trkpt lat="45.12702277625884" lon="9.375008809372822"><ele>55.0</ele><time>2026-04-18T09:31:10.002Z</time></trkpt><trkpt lat="45.12684250557689" lon="9.37495093452268"><ele>55.0</ele><time>2026-04-18T09:31:11.002Z</time></trkpt><trkpt lat="45.12666360277076" lon="9.374897347897095"><ele>55.0</ele><time>2026-04-18T09:31:12.002Z</time></trkpt><trkpt lat="45.12648230189519" lon="9.374845543823016"><ele>55.0</ele><time>2026-04-18T09:31:13.002Z</time></trkpt><trkpt lat="45.12630008022962" lon="9.374792718603885"><ele>55.0</ele><time>2026-04-18T09:31:14.002Z</time></trkpt><trkpt lat="45.12612643695627" lon="9.374741487904684"><ele>55.0</ele><time>2026-04-18T09:31:15.002Z</time></trkpt><trkpt lat="45.12596199787624" lon="9.37469263346387"><ele>55.25</ele><time>2026-04-18T09:31:16.002Z</time></trkpt><trkpt lat="45.12580953274662" lon="9.374648317305132"><ele>55.5</ele><time>2026-04-18T09:31:17.002Z</time></trkpt><trkpt lat="45.12567173677668" lon="9.374602121751625"><ele>55.75</ele><time>2026-04-18T09:31:18.002Z</time></trkpt><trkpt lat="45.12554806880686" lon="9.37456261199047"><ele>56.0</ele><time>2026-04-18T09:31:19.002Z</time></trkpt><trkpt lat="45.125434032515436" lon="9.374528541596943"><ele>56.199999999999996</ele><time>2026-04-18T09:31:20.002Z</time></trkpt><trkpt lat="45.1253288400576" lon="9.374491223352384"><ele>56.39999999999999</ele><time>2026-04-18T09:31:21.002Z</time></trkpt><trkpt lat="45.12523462523926" lon="9.374448573588428"><ele>56.6</ele><time>2026-04-18T09:31:22.002Z</time></trkpt><trkpt lat="45.125147864500036" lon="9.37440514288674"><ele>56.8</ele><time>2026-04-18T09:31:23.002Z</time></trkpt><trkpt lat="45.1250565817403" lon="9.374381331642146"><ele>57.0</ele><time>2026-04-18T09:31:24.002Z</time></trkpt><trkpt lat="45.1249632730151" lon="9.374354873921655"><ele>56.8</ele><time>2026-04-18T09:31:25.002Z</time></trkpt><trkpt lat="45.12489432989552" lon="9.374229764034267"><ele>56.6</ele><time>2026-04-18T09:31:26.002Z</time></trkpt><trkpt lat="45.12481415182476" lon="9.37421153615825"><ele>56.39999999999999</ele><time>2026-04-18T09:31:27.002Z</time></trkpt><trkpt lat="45.12475153001245" lon="9.374173873723432"><ele>56.199999999999996</ele><time>2026-04-18T09:31:28.002Z</time></trkpt><trkpt lat="45.1246325125923" lon="9.374121672626888"><ele>56.0</ele><time>2026-04-18T09:31:30.002Z</time></trkpt><trkpt lat="45.1245535107754" lon="9.37409649834848"><ele>56.0</ele><time>2026-04-18T09:31:31.002Z</time></trkpt><trkpt lat="45.12445390548425" lon="9.374066538779472"><ele>56.0</ele><time>2026-04-18T09:31:32.002Z</time></trkpt><trkpt lat="45.12433197717449" lon="9.374031863116514"><ele>56.0</ele><time>2026-04-18T09:31:33.002Z</time></trkpt><trkpt lat="45.124194350573475" lon="9.373992441207315"><ele>56.0</ele><time>2026-04-18T09:31:34.002Z</time></trkpt><trkpt lat="45.12404678015592" lon="9.373949010945937"><ele>55.75</ele><time>2026-04-18T09:31:35.002Z</time></trkpt><trkpt lat="45.1239134961038" lon="9.37390837678021"><ele>55.5</ele><time>2026-04-18T09:31:36.002Z</time></trkpt><trkpt lat="45.12378067743209" lon="9.37386999954721"><ele>55.25</ele><time>2026-04-18T09:31:37.002Z</time></trkpt><trkpt lat="45.12364333625819" lon="9.373833025772205"><ele>55.0</ele><time>2026-04-18T09:31:38.002Z</time></trkpt><trkpt lat="45.12350210594195" lon="9.373795109695147"><ele>55.0</ele><time>2026-04-18T09:31:39.002Z</time></trkpt><trkpt lat="45.12337138223318" lon="9.37376358081895"><ele>55.0</ele><time>2026-04-18T09:31:40.002Z</time></trkpt><trkpt lat="45.1232352147941" lon="9.373736231028516"><ele>55.0</ele><time>2026-04-18T09:31:41.002Z</time></trkpt><trkpt lat="45.12309745521103" lon="9.373715756815049"><ele>55.0</ele><time>2026-04-18T09:31:42.002Z</time></trkpt><trkpt lat="45.122959259542846" lon="9.373700117828056"><ele>55.0</ele><time>2026-04-18T09:31:43.003Z</time></trkpt><trkpt lat="45.12281777301864" lon="9.373692413042058"><ele>55.0</ele><time>2026-04-18T09:31:44.003Z</time></trkpt><trkpt lat="45.122674537474715" lon="9.373695191808604"><ele>55.0</ele><time>2026-04-18T09:31:45.003Z</time></trkpt><trkpt lat="45.12253263023062" lon="9.373711123572637"><ele>55.0</ele><time>2026-04-18T09:31:46.003Z</time></trkpt><trkpt lat="45.12238621705879" lon="9.373737748658636"><ele>54.666666666666664</ele><time>2026-04-18T09:31:47.003Z</time></trkpt><trkpt lat="45.12223737685315" lon="9.373767465474076"><ele>54.33333333333333</ele><time>2026-04-18T09:31:48.003Z</time></trkpt><trkpt lat="45.1220864758491" lon="9.373794948960446"><ele>54.0</ele><time>2026-04-18T09:31:49.003Z</time></trkpt><trkpt lat="45.121931410171534" lon="9.373829254042095"><ele>54.0</ele><time>2026-04-18T09:31:50.003Z</time></trkpt><trkpt lat="45.12177488082227" lon="9.37386614769435"><ele>54.0</ele><time>2026-04-18T09:31:51.003Z</time></trkpt><trkpt lat="45.12161677871315" lon="9.37390117967651"><ele>54.0</ele><time>2026-04-18T09:31:52.003Z</time></trkpt><trkpt lat="45.1214578099231" lon="9.373934684052132"><ele>54.0</ele><time>2026-04-18T09:31:53.003Z</time></trkpt><trkpt lat="45.12129660483369" lon="9.373971712566634"><ele>54.0</ele><time>2026-04-18T09:31:54.003Z</time></trkpt><trkpt lat="45.1211329333916" lon="9.374003917808507"><ele>54.0</ele><time>2026-04-18T09:31:55.003Z</time></trkpt><trkpt lat="45.12097400021817" lon="9.374038615252552"><ele>54.0</ele><time>2026-04-18T09:31:56.003Z</time></trkpt><trkpt lat="45.120810067409664" lon="9.374072021258284"><ele>54.0</ele><time>2026-04-18T09:31:57.003Z</time></trkpt><trkpt lat="45.12064729781564" lon="9.374106271836725"><ele>54.0</ele><time>2026-04-18T09:31:58.003Z</time></trkpt><trkpt lat="45.120485147715435" lon="9.374140701177891"><ele>54.33333333333333</ele><time>2026-04-18T09:31:59.003Z</time></trkpt><trkpt lat="45.12032126622406" lon="9.374175937826303"><ele>54.666666666666664</ele><time>2026-04-18T09:32:00.003Z</time></trkpt><trkpt lat="45.12015620973334" lon="9.374213351357747"><ele>55.0</ele><time>2026-04-18T09:32:01.003Z</time></trkpt><trkpt lat="45.11999106576347" lon="9.374251144493387"><ele>55.0</ele><time>2026-04-18T09:32:02.003Z</time></trkpt><trkpt lat="45.11982528213026" lon="9.374285898701181"><ele>55.0</ele><time>2026-04-18T09:32:03.003Z</time></trkpt><trkpt lat="45.119653647027164" lon="9.374323642717274"><ele>55.0</ele><time>2026-04-18T09:32:04.003Z</time></trkpt><trkpt lat="45.11948805537938" lon="9.374365013239075"><ele>55.0</ele><time>2026-04-18T09:32:05.003Z</time></trkpt><trkpt lat="45.11931874274455" lon="9.374404822973155"><ele>55.0</ele><time>2026-04-18T09:32:06.003Z</time></trkpt><trkpt lat="45.119152247521846" lon="9.374442405696092"><ele>55.0</ele><time>2026-04-18T09:32:07.003Z</time></trkpt><trkpt lat="45.11899335939645" lon="9.374479734900522"><ele>54.666666666666664</ele><time>2026-04-18T09:32:08.003Z</time></trkpt><trkpt lat="45.118841694028376" lon="9.374517157093917"><ele>54.33333333333333</ele><time>2026-04-18T09:32:09.003Z</time></trkpt><trkpt lat="45.11868648129364" lon="9.374552923777026"><ele>54.0</ele><time>2026-04-18T09:32:09.999Z</time></trkpt><trkpt lat="45.118529638727146" lon="9.37458648147654"><ele>54.0</ele><time>2026-04-18T09:32:10.999Z</time></trkpt><trkpt lat="45.11837111088238" lon="9.374621986517809"><ele>54.0</ele><time>2026-04-18T09:32:11.999Z</time></trkpt><trkpt lat="45.118216409347355" lon="9.374658964997936"><ele>54.0</ele><time>2026-04-18T09:32:12.999Z</time></trkpt><trkpt lat="45.11805737880842" lon="9.374696761266366"><ele>54.33333333333333</ele><time>2026-04-18T09:32:13.999Z</time></trkpt><trkpt lat="45.11790106741444" lon="9.374730679714538"><ele>54.666666666666664</ele><time>2026-04-18T09:32:14.999Z</time></trkpt><trkpt lat="45.11774060846146" lon="9.374765100839157"><ele>55.0</ele><time>2026-04-18T09:32:15.999Z</time></trkpt><trkpt lat="45.11758141621346" lon="9.374802277615052"><ele>55.0</ele><time>2026-04-18T09:32:16.999Z</time></trkpt><trkpt lat="45.11741951103342" lon="9.374838231963595"><ele>55.0</ele><time>2026-04-18T09:32:17.999Z</time></trkpt><trkpt lat="45.117265471066396" lon="9.374868409520523"><ele>55.0</ele><time>2026-04-18T09:32:18.999Z</time></trkpt><trkpt lat="45.117124917531626" lon="9.374891911492037"><ele>55.25</ele><time>2026-04-18T09:32:19.999Z</time></trkpt><trkpt lat="45.11699843473952" lon="9.37490723975589"><ele>55.5</ele><time>2026-04-18T09:32:20.999Z</time></trkpt><trkpt lat="45.116864800186505" lon="9.37492073118249"><ele>55.75</ele><time>2026-04-18T09:32:21.999Z</time></trkpt><trkpt lat="45.1167279838652" lon="9.374920498081394"><ele>56.0</ele><time>2026-04-18T09:32:22.999Z</time></trkpt><trkpt lat="45.11658359151163" lon="9.37490482686146"><ele>56.0</ele><time>2026-04-18T09:32:23.999Z</time></trkpt><trkpt lat="45.11644025793567" lon="9.374873746484637"><ele>56.0</ele><time>2026-04-18T09:32:24.999Z</time></trkpt><trkpt lat="45.11629764829173" lon="9.374826950475422"><ele>56.0</ele><time>2026-04-18T09:32:26Z</time></trkpt><trkpt lat="45.116155489119606" lon="9.374772020370086"><ele>56.0</ele><time>2026-04-18T09:32:27Z</time></trkpt><trkpt lat="45.11600962240362" lon="9.374710051026065"><ele>55.66666666666667</ele><time>2026-04-18T09:32:28Z</time></trkpt><trkpt lat="45.11586190097928" lon="9.374646161536164"><ele>55.33333333333333</ele><time>2026-04-18T09:32:29Z</time></trkpt><trkpt lat="45.11571315596647" lon="9.374586252552367"><ele>55.0</ele><time>2026-04-18T09:32:30Z</time></trkpt><trkpt lat="45.11556869141024" lon="9.374529282669632"><ele>55.0</ele><time>2026-04-18T09:32:31Z</time></trkpt><trkpt lat="45.115441430699214" lon="9.37447543784231"><ele>55.0</ele><time>2026-04-18T09:32:32Z</time></trkpt><trkpt lat="45.1152995024014" lon="9.374413824081195"><ele>55.0</ele><time>2026-04-18T09:32:33Z</time></trkpt><trkpt lat="45.11515776291463" lon="9.37435383220978"><ele>55.0</ele><time>2026-04-18T09:32:34Z</time></trkpt><trkpt lat="45.11501510808633" lon="9.374291419831726"><ele>55.0</ele><time>2026-04-18T09:32:35Z</time></trkpt><trkpt lat="45.1148695785454" lon="9.374233108960079"><ele>55.0</ele><time>2026-04-18T09:32:36Z</time></trkpt><trkpt lat="45.114722275068665" lon="9.37417768879634"><ele>55.0</ele><time>2026-04-18T09:32:37Z</time></trkpt><trkpt lat="45.11456877349374" lon="9.374119516920466"><ele>55.0</ele><time>2026-04-18T09:32:38Z</time></trkpt><trkpt lat="45.114415114270344" lon="9.374058111771667"><ele>55.0</ele><time>2026-04-18T09:32:39Z</time></trkpt><trkpt lat="45.11425733390237" lon="9.373995997507938"><ele>55.0</ele><time>2026-04-18T09:32:40Z</time></trkpt><trkpt lat="45.114105656552844" lon="9.373932386213168"><ele>55.0</ele><time>2026-04-18T09:32:41Z</time></trkpt><trkpt lat="45.1139547604844" lon="9.373871644384115"><ele>55.0</ele><time>2026-04-18T09:32:42Z</time></trkpt><trkpt lat="45.11380102664072" lon="9.373809931186464"><ele>55.0</ele><time>2026-04-18T09:32:43Z</time></trkpt><trkpt lat="45.11364870015756" lon="9.37374830064409"><ele>55.0</ele><time>2026-04-18T09:32:44Z</time></trkpt><trkpt lat="45.11349565291084" lon="9.37368645747195"><ele>55.0</ele><time>2026-04-18T09:32:45Z</time></trkpt><trkpt lat="45.113346761556286" lon="9.373625649285884"><ele>55.0</ele><time>2026-04-18T09:32:46.001Z</time></trkpt><trkpt lat="45.11320167286059" lon="9.373564554048851"><ele>55.0</ele><time>2026-04-18T09:32:47.001Z</time></trkpt><trkpt lat="45.11305742028379" lon="9.373495339272477"><ele>55.0</ele><time>2026-04-18T09:32:48.001Z</time></trkpt><trkpt lat="45.112924586073106" lon="9.373423251453051"><ele>55.0</ele><time>2026-04-18T09:32:49.001Z</time></trkpt><trkpt lat="45.11279347617015" lon="9.373351552155786"><ele>55.0</ele><time>2026-04-18T09:32:50.001Z</time></trkpt><trkpt lat="45.11266977342898" lon="9.373274622757235"><ele>55.0</ele><time>2026-04-18T09:32:51.001Z</time></trkpt><trkpt lat="45.11255201899905" lon="9.373196717132334"><ele>55.0</ele><time>2026-04-18T09:32:52.001Z</time></trkpt><trkpt lat="45.11243455253874" lon="9.373121007813804"><ele>55.0</ele><time>2026-04-18T09:32:53.001Z</time></trkpt><trkpt lat="45.11232741501303" lon="9.373050637639867"><ele>55.0</ele><time>2026-04-18T09:32:54.001Z</time></trkpt><trkpt lat="45.11222843329116" lon="9.372988797984458"><ele>54.8</ele><time>2026-04-18T09:32:55.001Z</time></trkpt><trkpt lat="45.112131167354754" lon="9.372931381494137"><ele>54.6</ele><time>2026-04-18T09:32:56.001Z</time></trkpt><trkpt lat="45.11203553498718" lon="9.37288035683629"><ele>54.400000000000006</ele><time>2026-04-18T09:32:57.001Z</time></trkpt><trkpt lat="45.1119415321055" lon="9.372833249250474"><ele>54.2</ele><time>2026-04-18T09:32:58.001Z</time></trkpt><trkpt lat="45.11185439976369" lon="9.372785885618452"><ele>54.0</ele><time>2026-04-18T09:32:59.001Z</time></trkpt><trkpt lat="45.11176193719946" lon="9.37271741187856"><ele>54.0</ele><time>2026-04-18T09:33:00.001Z</time></trkpt><trkpt lat="45.111655565651205" lon="9.372646780305502"><ele>54.0</ele><time>2026-04-18T09:33:01.001Z</time></trkpt><trkpt lat="45.11153539770926" lon="9.372588249653102"><ele>54.0</ele><time>2026-04-18T09:33:02.001Z</time></trkpt><trkpt lat="45.11141737214853" lon="9.372558762217283"><ele>54.0</ele><time>2026-04-18T09:33:03.001Z</time></trkpt><trkpt lat="45.11129960623693" lon="9.372556573202168"><ele>54.0</ele><time>2026-04-18T09:33:04.001Z</time></trkpt><trkpt lat="45.11118106790884" lon="9.372580746745525"><ele>54.0</ele><time>2026-04-18T09:33:05.001Z</time></trkpt><trkpt lat="45.11107366529848" lon="9.372632736026503"><ele>54.0</ele><time>2026-04-18T09:33:06.001Z</time></trkpt><trkpt lat="45.11095697327321" lon="9.372695705390125"><ele>54.0</ele><time>2026-04-18T09:33:07.001Z</time></trkpt><trkpt lat="45.11085288552811" lon="9.372805526349488"><ele>54.0</ele><time>2026-04-18T09:33:08.001Z</time></trkpt><trkpt lat="45.1107441486592" lon="9.372894101942437"><ele>54.0</ele><time>2026-04-18T09:33:09.001Z</time></trkpt><trkpt lat="45.110630076008015" lon="9.372987773829419"><ele>54.0</ele><time>2026-04-18T09:33:10.001Z</time></trkpt><trkpt lat="45.11051824673031" lon="9.373084348511748"><ele>54.0</ele><time>2026-04-18T09:33:11.001Z</time></trkpt><trkpt lat="45.11040508553541" lon="9.37318580154397"><ele>54.0</ele><time>2026-04-18T09:33:12.001Z</time></trkpt><trkpt lat="45.1102982678536" lon="9.373277462027103"><ele>54.0</ele><time>2026-04-18T09:33:13.001Z</time></trkpt><trkpt lat="45.1101944148117" lon="9.37336522582159"><ele>54.0</ele><time>2026-04-18T09:33:14.001Z</time></trkpt><trkpt lat="45.110098864393315" lon="9.373448524233941"><ele>54.0</ele><time>2026-04-18T09:33:15.002Z</time></trkpt><trkpt lat="45.11001277235495" lon="9.373532729199937"><ele>54.0</ele><time>2026-04-18T09:33:16.002Z</time></trkpt><trkpt lat="45.10994389890697" lon="9.3736113579393"><ele>54.0</ele><time>2026-04-18T09:33:17.002Z</time></trkpt><trkpt lat="45.109888136504644" lon="9.373677595458705"><ele>54.0</ele><time>2026-04-18T09:33:18.002Z</time></trkpt><trkpt lat="45.10980837048555" lon="9.373770506540499"><ele>54.0</ele><time>2026-04-18T09:33:20.002Z</time></trkpt><trkpt lat="45.10974520744286" lon="9.373784963656343"><ele>54.0</ele><time>2026-04-18T09:33:22.002Z</time></trkpt><trkpt lat="45.10979608584453" lon="9.373690678446705"><ele>54.0</ele><time>2026-04-18T09:33:25.002Z</time></trkpt><trkpt lat="45.10963788921749" lon="9.373470828687475"><ele>54.0</ele><time>2026-04-18T09:33:26.002Z</time></trkpt><trkpt lat="45.10961139811335" lon="9.373348509343476"><ele>54.00000000000001</ele><time>2026-04-18T09:33:27.002Z</time></trkpt><trkpt lat="45.109579219548955" lon="9.37320546333323"><ele>54.00000000000001</ele><time>2026-04-18T09:33:28.002Z</time></trkpt><trkpt lat="45.109544352278334" lon="9.373054681497017"><ele>54.0</ele><time>2026-04-18T09:33:29.002Z</time></trkpt><trkpt lat="45.1095108997527" lon="9.372899617955696"><ele>54.0</ele><time>2026-04-18T09:33:30.002Z</time></trkpt><trkpt lat="45.109479002262084" lon="9.372757294933722"><ele>54.2</ele><time>2026-04-18T09:33:31.002Z</time></trkpt><trkpt lat="45.10944635295316" lon="9.372622412652342"><ele>54.400000000000006</ele><time>2026-04-18T09:33:32.002Z</time></trkpt><trkpt lat="45.10941208249396" lon="9.37249806348008"><ele>54.6</ele><time>2026-04-18T09:33:33.002Z</time></trkpt><trkpt lat="45.10937286866424" lon="9.372378838559305"><ele>54.8</ele><time>2026-04-18T09:33:34.002Z</time></trkpt><trkpt lat="45.10933591575745" lon="9.372266983205595"><ele>55.0</ele><time>2026-04-18T09:33:35.002Z</time></trkpt><trkpt lat="45.109299445759284" lon="9.372167835285426"><ele>55.0</ele><time>2026-04-18T09:33:36.002Z</time></trkpt><trkpt lat="45.109269726953315" lon="9.372085738673906"><ele>55.0</ele><time>2026-04-18T09:33:37.002Z</time></trkpt><trkpt lat="45.1092021383642" lon="9.371979915320269"><ele>55.0</ele><time>2026-04-18T09:33:39.002Z</time></trkpt><trkpt lat="45.10911416410701" lon="9.371958995338987"><ele>55.0</ele><time>2026-04-18T09:33:41.002Z</time></trkpt><trkpt lat="45.10899983798107" lon="9.372036310408982"><ele>55.0</ele><time>2026-04-18T09:33:43.002Z</time></trkpt><trkpt lat="45.1089329373844" lon="9.372097189690937"><ele>55.0</ele><time>2026-04-18T09:33:44.002Z</time></trkpt><trkpt lat="45.10885273840867" lon="9.372159421780133"><ele>55.0</ele><time>2026-04-18T09:33:45.002Z</time></trkpt><trkpt lat="45.10876612852201" lon="9.372217370670878"><ele>55.0</ele><time>2026-04-18T09:33:46.002Z</time></trkpt><trkpt lat="45.108657888373884" lon="9.372276036183564"><ele>55.0</ele><time>2026-04-18T09:33:47.003Z</time></trkpt><trkpt lat="45.10855004257755" lon="9.372343014823393"><ele>55.0</ele><time>2026-04-18T09:33:48.003Z</time></trkpt><trkpt lat="45.108446179186785" lon="9.372406453136383"><ele>54.5</ele><time>2026-04-18T09:33:49.003Z</time></trkpt><trkpt lat="45.10833890473774" lon="9.372473019092125"><ele>54.0</ele><time>2026-04-18T09:33:50.003Z</time></trkpt><trkpt lat="45.108227865265256" lon="9.37253349453031"><ele>53.5</ele><time>2026-04-18T09:33:51.003Z</time></trkpt><trkpt lat="45.108107490525775" lon="9.37258785934977"><ele>53.0</ele><time>2026-04-18T09:33:52.003Z</time></trkpt><trkpt lat="45.1079840845277" lon="9.372641538217891"><ele>52.75</ele><time>2026-04-18T09:33:53.003Z</time></trkpt><trkpt lat="45.10786049482791" lon="9.372695077342787"><ele>52.5</ele><time>2026-04-18T09:33:54.003Z</time></trkpt><trkpt lat="45.10773835235292" lon="9.372745638171807"><ele>52.25</ele><time>2026-04-18T09:33:55.003Z</time></trkpt><trkpt lat="45.10761248421718" lon="9.37279770255975"><ele>52.0</ele><time>2026-04-18T09:33:56.003Z</time></trkpt><trkpt lat="45.107487707548295" lon="9.37284405818439"><ele>51.8</ele><time>2026-04-18T09:33:57.003Z</time></trkpt><trkpt lat="45.10736693747398" lon="9.372884085406639"><ele>51.6</ele><time>2026-04-18T09:33:58.003Z</time></trkpt><trkpt lat="45.10725591770718" lon="9.372921367384969"><ele>51.4</ele><time>2026-04-18T09:33:59.003Z</time></trkpt><trkpt lat="45.10715012599071" lon="9.37295317237252"><ele>51.199999999999996</ele><time>2026-04-18T09:34:00.003Z</time></trkpt><trkpt lat="45.10706099849824" lon="9.37297670566602"><ele>51.0</ele><time>2026-04-18T09:34:01.003Z</time></trkpt><trkpt lat="45.10697842971128" lon="9.372998764941531"><ele>51.599999999999994</ele><time>2026-04-18T09:34:02.003Z</time></trkpt><trkpt lat="45.10690427463126" lon="9.37302413563422"><ele>52.2</ele><time>2026-04-18T09:34:03.003Z</time></trkpt><trkpt lat="45.10679283841779" lon="9.37309088839188"><ele>52.800000000000004</ele><time>2026-04-18T09:34:05.003Z</time></trkpt><trkpt lat="45.10671211553521" lon="9.373194361248782"><ele>53.400000000000006</ele><time>2026-04-18T09:34:07.003Z</time></trkpt><trkpt lat="45.106668609465544" lon="9.373351926679069"><ele>54.0</ele><time>2026-04-18T09:34:09.003Z</time></trkpt><trkpt lat="45.10666983368935" lon="9.37345127573711"><ele>54.0</ele><time>2026-04-18T09:34:10.003Z</time></trkpt><trkpt lat="45.106664534053905" lon="9.373569832739102"><ele>54.00000000000001</ele><time>2026-04-18T09:34:11.003Z</time></trkpt><trkpt lat="45.10664655804878" lon="9.37370285436475"><ele>54.00000000000001</ele><time>2026-04-18T09:34:12.003Z</time></trkpt><trkpt lat="45.10662531936536" lon="9.373850396853893"><ele>54.0</ele><time>2026-04-18T09:34:13.003Z</time></trkpt><trkpt lat="45.10660229806369" lon="9.374015070717022"><ele>54.0</ele><time>2026-04-18T09:34:14.003Z</time></trkpt><trkpt lat="45.10659012404972" lon="9.374155481528508"><ele>54.400000000000006</ele><time>2026-04-18T09:34:15.003Z</time></trkpt><trkpt lat="45.1065790786259" lon="9.374300862028319"><ele>54.800000000000004</ele><time>2026-04-18T09:34:15.999Z</time></trkpt><trkpt lat="45.106571018541096" lon="9.374445595797807"><ele>55.199999999999996</ele><time>2026-04-18T09:34:16.999Z</time></trkpt><trkpt lat="45.106563439524905" lon="9.374592102057345"><ele>55.599999999999994</ele><time>2026-04-18T09:34:17.999Z</time></trkpt><trkpt lat="45.106555603017156" lon="9.374724521451041"><ele>56.0</ele><time>2026-04-18T09:34:18.999Z</time></trkpt><trkpt lat="45.10654840082702" lon="9.374837678142423"><ele>56.50000000000001</ele><time>2026-04-18T09:34:19.999Z</time></trkpt><trkpt lat="45.106533048588894" lon="9.374945492863276"><ele>57.0</ele><time>2026-04-18T09:34:20.999Z</time></trkpt><trkpt lat="45.10652661782869" lon="9.375060972506647"><ele>57.5</ele><time>2026-04-18T09:34:21.999Z</time></trkpt><trkpt lat="45.10652188328439" lon="9.375197711863576"><ele>58.0</ele><time>2026-04-18T09:34:22.999Z</time></trkpt><trkpt lat="45.10650618199475" lon="9.375333415369171"><ele>58.50000000000001</ele><time>2026-04-18T09:34:23.999Z</time></trkpt><trkpt lat="45.10649186904737" lon="9.375468305901316"><ele>59.0</ele><time>2026-04-18T09:34:24.999Z</time></trkpt><trkpt lat="45.10647861378456" lon="9.375611209896896"><ele>59.2</ele><time>2026-04-18T09:34:25.999Z</time></trkpt><trkpt lat="45.10646080046428" lon="9.375746498215346"><ele>59.400000000000006</ele><time>2026-04-18T09:34:26.999Z</time></trkpt><trkpt lat="45.10643287918109" lon="9.375872411801506"><ele>59.6</ele><time>2026-04-18T09:34:27.999Z</time></trkpt><trkpt lat="45.106408251069084" lon="9.37599851572811"><ele>59.8</ele><time>2026-04-18T09:34:28.999Z</time></trkpt><trkpt lat="45.10638284307044" lon="9.3761286579176"><ele>60.0</ele><time>2026-04-18T09:34:29.999Z</time></trkpt><trkpt lat="45.10635464291842" lon="9.37626103006589"><ele>59.2</ele><time>2026-04-18T09:34:30.999Z</time></trkpt><trkpt lat="45.10632082063172" lon="9.376393216033003"><ele>58.4</ele><time>2026-04-18T09:34:31.999Z</time></trkpt><trkpt lat="45.10629238780753" lon="9.376531709386333"><ele>57.599999999999994</ele><time>2026-04-18T09:34:33Z</time></trkpt><trkpt lat="45.1062631667095" lon="9.376667093837112"><ele>56.8</ele><time>2026-04-18T09:34:34Z</time></trkpt><trkpt lat="45.10623430494789" lon="9.376794762416333"><ele>56.0</ele><time>2026-04-18T09:34:35Z</time></trkpt><trkpt lat="45.10620446159916" lon="9.376925464050762"><ele>56.0</ele><time>2026-04-18T09:34:36Z</time></trkpt><trkpt lat="45.1061720373033" lon="9.377068480151994"><ele>55.99999999999999</ele><time>2026-04-18T09:34:37Z</time></trkpt><trkpt lat="45.10613951295241" lon="9.377202971553407"><ele>55.99999999999999</ele><time>2026-04-18T09:34:38Z</time></trkpt><trkpt lat="45.106105035175275" lon="9.377327606797627"><ele>56.0</ele><time>2026-04-18T09:34:39Z</time></trkpt><trkpt lat="45.10607081272801" lon="9.377458309820454"><ele>56.0</ele><time>2026-04-18T09:34:40Z</time></trkpt><trkpt lat="45.10603772355599" lon="9.377581648581106"><ele>55.66666666666667</ele><time>2026-04-18T09:34:41Z</time></trkpt><trkpt lat="45.10601019335172" lon="9.377690314964344"><ele>55.333333333333336</ele><time>2026-04-18T09:34:42Z</time></trkpt><trkpt lat="45.105979292550415" lon="9.37779904707907"><ele>55.0</ele><time>2026-04-18T09:34:43Z</time></trkpt><trkpt lat="45.105952138003175" lon="9.377890485387086"><ele>54.66666666666667</ele><time>2026-04-18T09:34:44Z</time></trkpt><trkpt lat="45.105929806404205" lon="9.377976940835454"><ele>54.333333333333336</ele><time>2026-04-18T09:34:45Z</time></trkpt><trkpt lat="45.105904288638726" lon="9.378075082429984"><ele>54.0</ele><time>2026-04-18T09:34:46Z</time></trkpt><trkpt lat="45.10587534247836" lon="9.378189965192195"><ele>54.0</ele><time>2026-04-18T09:34:47Z</time></trkpt><trkpt lat="45.10584737327168" lon="9.378304781979857"><ele>54.00000000000001</ele><time>2026-04-18T09:34:48Z</time></trkpt><trkpt lat="45.105817502694535" lon="9.378434605343054"><ele>54.00000000000001</ele><time>2026-04-18T09:34:49Z</time></trkpt><trkpt lat="45.105784954448715" lon="9.378565554801064"><ele>54.0</ele><time>2026-04-18T09:34:50Z</time></trkpt><trkpt lat="45.1057510424987" lon="9.378680350064515"><ele>54.0</ele><time>2026-04-18T09:34:51Z</time></trkpt><trkpt lat="45.10571685270418" lon="9.37879828556022"><ele>54.0</ele><time>2026-04-18T09:34:52Z</time></trkpt><trkpt lat="45.10568574294712" lon="9.378901053009793"><ele>54.0</ele><time>2026-04-18T09:34:53.001Z</time></trkpt><trkpt lat="45.10565998122806" lon="9.379005724908222"><ele>54.0</ele><time>2026-04-18T09:34:54.001Z</time></trkpt><trkpt lat="45.10563216698334" lon="9.379121136850099"><ele>54.0</ele><time>2026-04-18T09:34:55.001Z</time></trkpt><trkpt lat="45.105602399697354" lon="9.379245686350014"><ele>54.0</ele><time>2026-04-18T09:34:56.001Z</time></trkpt><trkpt lat="45.105582160159855" lon="9.379340791476297"><ele>54.0</ele><time>2026-04-18T09:34:57.001Z</time></trkpt><trkpt lat="45.10555331924103" lon="9.379443899091807"><ele>54.0</ele><time>2026-04-18T09:34:58.001Z</time></trkpt><trkpt lat="45.10553489114606" lon="9.37953215455362"><ele>54.0</ele><time>2026-04-18T09:34:59.001Z</time></trkpt><trkpt lat="45.105507512073935" lon="9.379615132188542"><ele>54.0</ele><time>2026-04-18T09:35:00.001Z</time></trkpt><trkpt lat="45.10546066377654" lon="9.379790985683094"><ele>54.0</ele><time>2026-04-18T09:35:02.001Z</time></trkpt><trkpt lat="45.105427342507404" lon="9.379891314688402"><ele>54.0</ele><time>2026-04-18T09:35:03.001Z</time></trkpt><trkpt lat="45.10539180797551" lon="9.379984910956168"><ele>54.0</ele><time>2026-04-18T09:35:04.001Z</time></trkpt><trkpt lat="45.105356548244146" lon="9.380074308854498"><ele>53.800000000000004</ele><time>2026-04-18T09:35:05.001Z</time></trkpt><trkpt lat="45.10532899637111" lon="9.380157026778177"><ele>53.60000000000001</ele><time>2026-04-18T09:35:06.001Z</time></trkpt><trkpt lat="45.10529680722132" lon="9.38025370891027"><ele>53.4</ele><time>2026-04-18T09:35:07.001Z</time></trkpt><trkpt lat="45.10526267018608" lon="9.380351065596955"><ele>53.2</ele><time>2026-04-18T09:35:08.001Z</time></trkpt><trkpt lat="45.10521335859857" lon="9.380506009431612"><ele>53.0</ele><time>2026-04-18T09:35:10.001Z</time></trkpt><trkpt lat="45.10514380735175" lon="9.380662056891568"><ele>53.0</ele><time>2026-04-18T09:35:12.001Z</time></trkpt><trkpt lat="45.10509704646029" lon="9.38074306609713"><ele>53.0</ele><time>2026-04-18T09:35:13.001Z</time></trkpt><trkpt lat="45.10504769315681" lon="9.380811821169459"><ele>53.0</ele><time>2026-04-18T09:35:14.001Z</time></trkpt><trkpt lat="45.10499952655581" lon="9.380870626391147"><ele>53.0</ele><time>2026-04-18T09:35:15.001Z</time></trkpt><trkpt lat="45.1049531279134" lon="9.380933963804623"><ele>53.0</ele><time>2026-04-18T09:35:16.001Z</time></trkpt><trkpt lat="45.104907397943485" lon="9.381003577649553"><ele>53.0</ele><time>2026-04-18T09:35:17.001Z</time></trkpt><trkpt lat="45.10486351224153" lon="9.381068105747028"><ele>53.0</ele><time>2026-04-18T09:35:18.001Z</time></trkpt><trkpt lat="45.10479619589271" lon="9.381199296977751"><ele>52.833333333333336</ele><time>2026-04-18T09:35:20.001Z</time></trkpt><trkpt lat="45.10475022995556" lon="9.381358493393"><ele>52.66666666666667</ele><time>2026-04-18T09:35:22.002Z</time></trkpt><trkpt lat="45.1047259454804" lon="9.381512363755792"><ele>52.5</ele><time>2026-04-18T09:35:24.002Z</time></trkpt><trkpt lat="45.10474052459222" lon="9.381613543790117"><ele>52.33333333333333</ele><time>2026-04-18T09:35:26.002Z</time></trkpt><trkpt lat="45.104711208053146" lon="9.381694480487258"><ele>52.166666666666664</ele><time>2026-04-18T09:35:27.002Z</time></trkpt><trkpt lat="45.10469396658757" lon="9.38178866994104"><ele>52.0</ele><time>2026-04-18T09:35:29.002Z</time></trkpt><trkpt lat="45.10466068153817" lon="9.381923677390164"><ele>52.0</ele><time>2026-04-18T09:35:31.002Z</time></trkpt><trkpt lat="45.104641101926255" lon="9.382035106735751"><ele>52.0</ele><time>2026-04-18T09:35:34.002Z</time></trkpt><trkpt lat="45.10460655123382" lon="9.38219284386415"><ele>52.0</ele><time>2026-04-18T09:35:36.002Z</time></trkpt><trkpt lat="45.10457814531658" lon="9.38233961726105"><ele>52.0</ele><time>2026-04-18T09:35:38.002Z</time></trkpt><trkpt lat="45.10456000917555" lon="9.382450061502945"><ele>52.0</ele><time>2026-04-18T09:35:40.002Z</time></trkpt><trkpt lat="45.10452925042368" lon="9.38259583156723"><ele>51.99999999999999</ele><time>2026-04-18T09:35:42.002Z</time></trkpt><trkpt lat="45.10450882404109" lon="9.382737084149012"><ele>52.0</ele><time>2026-04-18T09:35:44.002Z</time></trkpt><trkpt lat="45.10448222646384" lon="9.382832328207185"><ele>52.0</ele><time>2026-04-18T09:35:46.002Z</time></trkpt><trkpt lat="45.104455465462955" lon="9.382939391650615"><ele>52.0</ele><time>2026-04-18T09:35:48.002Z</time></trkpt><trkpt lat="45.104442302052284" lon="9.38304027811768"><ele>51.99999999999999</ele><time>2026-04-18T09:35:50.002Z</time></trkpt><trkpt lat="45.104393452348" lon="9.383182827912345"><ele>52.0</ele><time>2026-04-18T09:35:52.002Z</time></trkpt><trkpt lat="45.1043764125889" lon="9.383277454421458"><ele>51.99999999999999</ele><time>2026-04-18T09:35:54.002Z</time></trkpt><trkpt lat="45.1043588626051" lon="9.383384712744183"><ele>52.0</ele><time>2026-04-18T09:35:57.003Z</time></trkpt><trkpt lat="45.10431494994845" lon="9.38351345087109"><ele>52.0</ele><time>2026-04-18T09:35:59.003Z</time></trkpt><trkpt lat="45.10427067636935" lon="9.383625692457349"><ele>52.0</ele><time>2026-04-18T09:36:01.003Z</time></trkpt><trkpt lat="45.10423323186157" lon="9.383738776619152"><ele>51.99999999999999</ele><time>2026-04-18T09:36:03.003Z</time></trkpt><trkpt lat="45.10419460239022" lon="9.38385140727419"><ele>52.0</ele><time>2026-04-18T09:36:05.003Z</time></trkpt><trkpt lat="45.104164705751785" lon="9.383948456772798"><ele>52.8</ele><time>2026-04-18T09:36:07.003Z</time></trkpt><trkpt lat="45.104126097982075" lon="9.38406098964207"><ele>53.6</ele><time>2026-04-18T09:36:09.003Z</time></trkpt><trkpt lat="45.104087153067006" lon="9.384177140924207"><ele>54.39999999999999</ele><time>2026-04-18T09:36:11.003Z</time></trkpt><trkpt lat="45.10405014003126" lon="9.384303229382295"><ele>55.199999999999996</ele><time>2026-04-18T09:36:13.003Z</time></trkpt><trkpt lat="45.10401495640274" lon="9.384441669831538"><ele>56.0</ele><time>2026-04-18T09:36:15.003Z</time></trkpt><trkpt lat="45.10396778292486" lon="9.384580491512317"><ele>55.833333333333336</ele><time>2026-04-18T09:36:17.003Z</time></trkpt><trkpt lat="45.103940084425595" lon="9.384731882984006"><ele>55.66666666666667</ele><time>2026-04-18T09:36:20.003Z</time></trkpt><trkpt lat="45.10391010102244" lon="9.384836040069171"><ele>55.5</ele><time>2026-04-18T09:36:21.999Z</time></trkpt><trkpt lat="45.10389513424452" lon="9.384934726086103"><ele>55.33333333333333</ele><time>2026-04-18T09:36:23.999Z</time></trkpt><trkpt lat="45.10386650984486" lon="9.385040176212977"><ele>55.166666666666664</ele><time>2026-04-18T09:36:25.999Z</time></trkpt><trkpt lat="45.10383503303776" lon="9.385134199561318"><ele>55.0</ele><time>2026-04-18T09:36:27.999Z</time></trkpt><trkpt lat="45.10381388208545" lon="9.385232791005139"><ele>55.0</ele><time>2026-04-18T09:36:29.999Z</time></trkpt><trkpt lat="45.103771282876" lon="9.38536510622634"><ele>55.0</ele><time>2026-04-18T09:36:31.999Z</time></trkpt><trkpt lat="45.10372706380391" lon="9.385487378980391"><ele>55.0</ele><time>2026-04-18T09:36:33.999Z</time></trkpt><trkpt lat="45.10365870573136" lon="9.38561562501969"><ele>55.0</ele><time>2026-04-18T09:36:36Z</time></trkpt><trkpt lat="45.10357361013626" lon="9.38572995999029"><ele>55.0</ele><time>2026-04-18T09:36:38Z</time></trkpt><trkpt lat="45.103523093572036" lon="9.385794110707788"><ele>54.666666666666664</ele><time>2026-04-18T09:36:39Z</time></trkpt><trkpt lat="45.10346798657884" lon="9.385858839004493"><ele>54.33333333333333</ele><time>2026-04-18T09:36:40Z</time></trkpt><trkpt lat="45.10341072778321" lon="9.385925172154051"><ele>54.0</ele><time>2026-04-18T09:36:41Z</time></trkpt><trkpt lat="45.10332801806454" lon="9.386025949410467"><ele>53.66666666666667</ele><time>2026-04-18T09:36:43Z</time></trkpt><trkpt lat="45.10324399495351" lon="9.386139957994864"><ele>53.333333333333336</ele><time>2026-04-18T09:36:45Z</time></trkpt><trkpt lat="45.10319318518779" lon="9.386204982301264"><ele>53.0</ele><time>2026-04-18T09:36:46Z</time></trkpt><trkpt lat="45.1031392528974" lon="9.386270432840302"><ele>52.833333333333336</ele><time>2026-04-18T09:36:47Z</time></trkpt><trkpt lat="45.103090842585594" lon="9.386349624433857"><ele>52.66666666666667</ele><time>2026-04-18T09:36:48Z</time></trkpt><trkpt lat="45.10304476490648" lon="9.386446130696124"><ele>52.5</ele><time>2026-04-18T09:36:49Z</time></trkpt><trkpt lat="45.103005760101546" lon="9.386541624442323"><ele>52.33333333333333</ele><time>2026-04-18T09:36:50Z</time></trkpt><trkpt lat="45.102964471729" lon="9.386643873879445"><ele>52.166666666666664</ele><time>2026-04-18T09:36:51Z</time></trkpt><trkpt lat="45.10292178939721" lon="9.38674130308859"><ele>52.0</ele><time>2026-04-18T09:36:52Z</time></trkpt><trkpt lat="45.10288239489039" lon="9.38684125113397"><ele>52.0</ele><time>2026-04-18T09:36:53Z</time></trkpt><trkpt lat="45.10284734756591" lon="9.38693489154537"><ele>52.0</ele><time>2026-04-18T09:36:54Z</time></trkpt><trkpt lat="45.102817924187804" lon="9.387027196164077"><ele>52.0</ele><time>2026-04-18T09:36:55Z</time></trkpt><trkpt lat="45.10278482273674" lon="9.38712698136193"><ele>52.0</ele><time>2026-04-18T09:36:56Z</time></trkpt><trkpt lat="45.10275302873567" lon="9.387218545223337"><ele>52.0</ele><time>2026-04-18T09:36:57.001Z</time></trkpt><trkpt lat="45.10271747126581" lon="9.387313045860203"><ele>52.0</ele><time>2026-04-18T09:36:58.001Z</time></trkpt><trkpt lat="45.1026803535391" lon="9.387403028128956"><ele>52.0</ele><time>2026-04-18T09:36:59.001Z</time></trkpt><trkpt lat="45.10264385161277" lon="9.38748398867801"><ele>52.0</ele><time>2026-04-18T09:37:00.001Z</time></trkpt><trkpt lat="45.1025715252551" lon="9.387617050482607"><ele>52.0</ele><time>2026-04-18T09:37:02.001Z</time></trkpt><trkpt lat="45.10249045736614" lon="9.387722262025022"><ele>52.0</ele><time>2026-04-18T09:37:04.001Z</time></trkpt><trkpt lat="45.10242546979813" lon="9.387808123144556"><ele>52.0</ele><time>2026-04-18T09:37:06.001Z</time></trkpt><trkpt lat="45.102351708616155" lon="9.387887260606762"><ele>52.0</ele><time>2026-04-18T09:37:08.001Z</time></trkpt><trkpt lat="45.102263546878" lon="9.38799129700209"><ele>52.0</ele><time>2026-04-18T09:37:10.001Z</time></trkpt><trkpt lat="45.102184782736316" lon="9.388094703347829"><ele>52.0</ele><time>2026-04-18T09:37:12.001Z</time></trkpt><trkpt lat="45.1021108784178" lon="9.388212842771184"><ele>52.0</ele><time>2026-04-18T09:37:14.001Z</time></trkpt><trkpt lat="45.102038305600736" lon="9.388309173396669"><ele>52.0</ele><time>2026-04-18T09:37:16.001Z</time></trkpt><trkpt lat="45.10194686915617" lon="9.38841675300403"><ele>52.0</ele><time>2026-04-18T09:37:18.001Z</time></trkpt><trkpt lat="45.10189873782095" lon="9.388480174148091"><ele>52.0</ele><time>2026-04-18T09:37:19.001Z</time></trkpt><trkpt lat="45.10184790224142" lon="9.388544078009149"><ele>52.0</ele><time>2026-04-18T09:37:20.001Z</time></trkpt><trkpt lat="45.1017994420338" lon="9.38860755749568"><ele>52.0</ele><time>2026-04-18T09:37:21.001Z</time></trkpt><trkpt lat="45.10174598839109" lon="9.388672524701775"><ele>52.0</ele><time>2026-04-18T09:37:22.001Z</time></trkpt><trkpt lat="45.10169238924077" lon="9.388736190314088"><ele>52.0</ele><time>2026-04-18T09:37:23.001Z</time></trkpt><trkpt lat="45.101639920388195" lon="9.388798319045039"><ele>52.0</ele><time>2026-04-18T09:37:24.001Z</time></trkpt><trkpt lat="45.10159014632592" lon="9.388862087915003"><ele>52.0</ele><time>2026-04-18T09:37:25.001Z</time></trkpt><trkpt lat="45.10151492512137" lon="9.388970814621098"><ele>52.83333333333333</ele><time>2026-04-18T09:37:27.002Z</time></trkpt><trkpt lat="45.10145902165762" lon="9.389034774740283"><ele>53.666666666666664</ele><time>2026-04-18T09:37:29.002Z</time></trkpt><trkpt lat="45.10140968158465" lon="9.389109328759059"><ele>54.5</ele><time>2026-04-18T09:37:32.002Z</time></trkpt><trkpt lat="45.1013700396644" lon="9.389195167830122"><ele>55.33333333333333</ele><time>2026-04-18T09:37:34.002Z</time></trkpt><trkpt lat="45.10131500257479" lon="9.389323975628216"><ele>56.166666666666664</ele><time>2026-04-18T09:37:36.002Z</time></trkpt><trkpt lat="45.101258617791785" lon="9.38946451602534"><ele>57.0</ele><time>2026-04-18T09:37:38.002Z</time></trkpt><trkpt lat="45.10123488089877" lon="9.389551610199147"><ele>57.0</ele><time>2026-04-18T09:37:39.002Z</time></trkpt><trkpt lat="45.1012020711177" lon="9.389707220991998"><ele>57.0</ele><time>2026-04-18T09:37:41.002Z</time></trkpt><trkpt lat="45.10114997959643" lon="9.38982536807624"><ele>57.0</ele><time>2026-04-18T09:37:43.002Z</time></trkpt><trkpt lat="45.10107129433351" lon="9.389959145367513"><ele>57.0</ele><time>2026-04-18T09:37:45.002Z</time></trkpt><trkpt lat="45.10102443302238" lon="9.39003509635507"><ele>57.0</ele><time>2026-04-18T09:37:46.002Z</time></trkpt><trkpt lat="45.100973485314526" lon="9.39011045237949"><ele>57.0</ele><time>2026-04-18T09:37:47.002Z</time></trkpt><trkpt lat="45.10092201119864" lon="9.390185567522472"><ele>56.99999999999999</ele><time>2026-04-18T09:37:48.002Z</time></trkpt><trkpt lat="45.10087450320129" lon="9.390247551108786"><ele>57.0</ele><time>2026-04-18T09:37:49.002Z</time></trkpt><trkpt lat="45.10081982175656" lon="9.390312281604928"><ele>57.0</ele><time>2026-04-18T09:37:50.002Z</time></trkpt><trkpt lat="45.10076083117332" lon="9.390380011841128"><ele>56.99999999999999</ele><time>2026-04-18T09:37:51.002Z</time></trkpt><trkpt lat="45.10070440567507" lon="9.39044709712669"><ele>57.0</ele><time>2026-04-18T09:37:52.002Z</time></trkpt><trkpt lat="45.100652865653615" lon="9.39050810857814"><ele>57.0</ele><time>2026-04-18T09:37:53.002Z</time></trkpt><trkpt lat="45.10060411236634" lon="9.39057701627646"><ele>56.666666666666664</ele><time>2026-04-18T09:37:54.002Z</time></trkpt><trkpt lat="45.10055738798225" lon="9.390656964186007"><ele>56.33333333333333</ele><time>2026-04-18T09:37:55.002Z</time></trkpt><trkpt lat="45.10051471497962" lon="9.390731453150238"><ele>56.0</ele><time>2026-04-18T09:37:56.002Z</time></trkpt><trkpt lat="45.10047126506837" lon="9.390802152644824"><ele>55.666666666666664</ele><time>2026-04-18T09:37:57.002Z</time></trkpt><trkpt lat="45.100427221387214" lon="9.390875894256991"><ele>55.33333333333333</ele><time>2026-04-18T09:37:58.002Z</time></trkpt><trkpt lat="45.10034988777185" lon="9.391004173743816"><ele>55.0</ele><time>2026-04-18T09:38:00.003Z</time></trkpt><trkpt lat="45.10026506789816" lon="9.391129627687375"><ele>54.99999999999999</ele><time>2026-04-18T09:38:02.003Z</time></trkpt><trkpt lat="45.10019088337284" lon="9.391259280777259"><ele>55.0</ele><time>2026-04-18T09:38:04.003Z</time></trkpt><trkpt lat="45.1001542624897" lon="9.391333469609217"><ele>55.0</ele><time>2026-04-18T09:38:05.003Z</time></trkpt><trkpt lat="45.10011444518833" lon="9.39141173180976"><ele>55.0</ele><time>2026-04-18T09:38:06.003Z</time></trkpt><trkpt lat="45.100075157782484" lon="9.391492031795366"><ele>54.99999999999999</ele><time>2026-04-18T09:38:07.003Z</time></trkpt><trkpt lat="45.10004255201773" lon="9.39158027364741"><ele>55.0</ele><time>2026-04-18T09:38:08.003Z</time></trkpt><trkpt lat="45.10001471208522" lon="9.391666248159883"><ele>54.99999999999999</ele><time>2026-04-18T09:38:09.003Z</time></trkpt><trkpt lat="45.09996318674025" lon="9.391813536788243"><ele>55.0</ele><time>2026-04-18T09:38:11.003Z</time></trkpt><trkpt lat="45.099939144242654" lon="9.391906965797189"><ele>55.0</ele><time>2026-04-18T09:38:12.003Z</time></trkpt><trkpt lat="45.09991841170112" lon="9.392001168896641"><ele>55.0</ele><time>2026-04-18T09:38:13.003Z</time></trkpt><trkpt lat="45.09989105795615" lon="9.392101953953357"><ele>54.99999999999999</ele><time>2026-04-18T09:38:14.003Z</time></trkpt><trkpt lat="45.099868572028065" lon="9.392196160713983"><ele>55.0</ele><time>2026-04-18T09:38:15.003Z</time></trkpt><trkpt lat="45.09984181900859" lon="9.392294165440289"><ele>54.8</ele><time>2026-04-18T09:38:16.003Z</time></trkpt><trkpt lat="45.09981619326401" lon="9.39239533159746"><ele>54.6</ele><time>2026-04-18T09:38:17.003Z</time></trkpt><trkpt lat="45.09979347204253" lon="9.392483367529755"><ele>54.400000000000006</ele><time>2026-04-18T09:38:18.003Z</time></trkpt><trkpt lat="45.09976873627345" lon="9.392628358658525"><ele>54.2</ele><time>2026-04-18T09:38:20.003Z</time></trkpt><trkpt lat="45.09978518929251" lon="9.392779179408757"><ele>54.0</ele><time>2026-04-18T09:38:22.003Z</time></trkpt><trkpt lat="45.0998282495936" lon="9.392935694759638"><ele>53.666666666666664</ele><time>2026-04-18T09:38:24.003Z</time></trkpt><trkpt lat="45.099871771126686" lon="9.39309428564271"><ele>53.33333333333333</ele><time>2026-04-18T09:38:26.003Z</time></trkpt><trkpt lat="45.099906946809284" lon="9.393220476449978"><ele>53.0</ele><time>2026-04-18T09:38:28Z</time></trkpt><trkpt lat="45.09994110578553" lon="9.39332470624888"><ele>52.666666666666664</ele><time>2026-04-18T09:38:30Z</time></trkpt><trkpt lat="45.099991941520756" lon="9.39338670595824"><ele>52.33333333333333</ele><time>2026-04-18T09:38:32Z</time></trkpt><trkpt lat="45.10006761760222" lon="9.39340187106491"><ele>52.0</ele><time>2026-04-18T09:38:35Z</time></trkpt><trkpt lat="45.100010624450306" lon="9.393468617137888"><ele>52.0</ele><time>2026-04-18T09:38:53Z</time></trkpt><trkpt lat="45.09991750517101" lon="9.393465565647285"><ele>52.0</ele><time>2026-04-18T09:38:55Z</time></trkpt><trkpt lat="45.09980959273482" lon="9.393445326570244"><ele>52.0</ele><time>2026-04-18T09:38:57Z</time></trkpt><trkpt lat="45.099723081736116" lon="9.393428764039237"><ele>52.0</ele><time>2026-04-18T09:38:59Z</time></trkpt><trkpt lat="45.09963466387272" lon="9.393419467787409"><ele>52.0</ele><time>2026-04-18T09:39:01.001Z</time></trkpt><trkpt lat="45.099533734476886" lon="9.393405844000242"><ele>52.0</ele><time>2026-04-18T09:39:03.001Z</time></trkpt><trkpt lat="45.099400852348786" lon="9.393383935429002"><ele>52.0</ele><time>2026-04-18T09:39:05.001Z</time></trkpt><trkpt lat="45.09931645943153" lon="9.393367061749752"><ele>52.0</ele><time>2026-04-18T09:39:07.001Z</time></trkpt><trkpt lat="45.09924127323892" lon="9.393353375621755"><ele>52.0</ele><time>2026-04-18T09:39:10.001Z</time></trkpt><trkpt lat="45.099126161392704" lon="9.393344063267634"><ele>52.0</ele><time>2026-04-18T09:39:13.001Z</time></trkpt><trkpt lat="45.099061477577834" lon="9.393341165262484"><ele>51.83333333333333</ele><time>2026-04-18T09:39:14.001Z</time></trkpt><trkpt lat="45.09896618103445" lon="9.39332490920486"><ele>51.666666666666664</ele><time>2026-04-18T09:39:16.001Z</time></trkpt><trkpt lat="45.09890426238748" lon="9.393341217744812"><ele>51.5</ele><time>2026-04-18T09:39:25.001Z</time></trkpt><trkpt lat="45.0988813466814" lon="9.393436412584636"><ele>51.33333333333333</ele><time>2026-04-18T09:39:30.001Z</time></trkpt><trkpt lat="45.09884805243017" lon="9.393553147446658"><ele>51.166666666666664</ele><time>2026-04-18T09:39:33.002Z</time></trkpt><trkpt lat="45.09877092138506" lon="9.393632335711876"><ele>51.0</ele><time>2026-04-18T09:39:35.002Z</time></trkpt><trkpt lat="45.09870529708504" lon="9.393738954015943"><ele>51.333333333333336</ele><time>2026-04-18T09:39:37.002Z</time></trkpt><trkpt lat="45.09865397357315" lon="9.393846631490861"><ele>51.66666666666667</ele><time>2026-04-18T09:39:39.002Z</time></trkpt><trkpt lat="45.098585012867844" lon="9.393957353244089"><ele>52.0</ele><time>2026-04-18T09:39:41.002Z</time></trkpt><trkpt lat="45.09854393700423" lon="9.394029938236173"><ele>52.333333333333336</ele><time>2026-04-18T09:39:42.002Z</time></trkpt><trkpt lat="45.09847249189276" lon="9.394166792097504"><ele>52.66666666666667</ele><time>2026-04-18T09:39:44.002Z</time></trkpt><trkpt lat="45.09843547998109" lon="9.394243033280793"><ele>53.0</ele><time>2026-04-18T09:39:45.002Z</time></trkpt><trkpt lat="45.09838211498021" lon="9.394398623964888"><ele>53.0</ele><time>2026-04-18T09:39:47.002Z</time></trkpt><trkpt lat="45.09835128771404" lon="9.394554881942492"><ele>53.0</ele><time>2026-04-18T09:39:49.002Z</time></trkpt><trkpt lat="45.09833510435574" lon="9.394645097466988"><ele>53.0</ele><time>2026-04-18T09:39:50.002Z</time></trkpt><trkpt lat="45.09832242599566" lon="9.394744124619548"><ele>53.0</ele><time>2026-04-18T09:39:51.002Z</time></trkpt><trkpt lat="45.098318861292974" lon="9.394893331000302"><ele>53.0</ele><time>2026-04-18T09:39:53.002Z</time></trkpt><trkpt lat="45.0983100201779" lon="9.395051031023145"><ele>53.0</ele><time>2026-04-18T09:39:55.002Z</time></trkpt><trkpt lat="45.0983076287374" lon="9.395208365829603"><ele>53.0</ele><time>2026-04-18T09:39:57.002Z</time></trkpt><trkpt lat="45.09829758537392" lon="9.395368361858313"><ele>53.0</ele><time>2026-04-18T09:39:59.002Z</time></trkpt><trkpt lat="45.09828261482221" lon="9.395526390163003"><ele>53.0</ele><time>2026-04-18T09:40:01.002Z</time></trkpt><trkpt lat="45.09826205109479" lon="9.395691844550617"><ele>53.0</ele><time>2026-04-18T09:40:03.002Z</time></trkpt><trkpt lat="45.09824986470559" lon="9.395780489664476"><ele>53.0</ele><time>2026-04-18T09:40:04.002Z</time></trkpt><trkpt lat="45.09822745834084" lon="9.395930102066803"><ele>53.0</ele><time>2026-04-18T09:40:06.003Z</time></trkpt><trkpt lat="45.09819945664961" lon="9.396075862768651"><ele>53.0</ele><time>2026-04-18T09:40:08.003Z</time></trkpt><trkpt lat="45.09818263578553" lon="9.396257506161346"><ele>53.0</ele><time>2026-04-18T09:40:10.003Z</time></trkpt><trkpt lat="45.09818438853649" lon="9.396355556940808"><ele>53.0</ele><time>2026-04-18T09:40:11.003Z</time></trkpt><trkpt lat="45.09818582779386" lon="9.396446998882261"><ele>53.0</ele><time>2026-04-18T09:40:12.003Z</time></trkpt><trkpt lat="45.09816680362287" lon="9.39659807219571"><ele>53.0</ele><time>2026-04-18T09:40:14.003Z</time></trkpt><trkpt lat="45.09816363480007" lon="9.396735929271282"><ele>53.0</ele><time>2026-04-18T09:40:16.003Z</time></trkpt><trkpt lat="45.09815140215829" lon="9.396900367083575"><ele>53.0</ele><time>2026-04-18T09:40:18.003Z</time></trkpt><trkpt lat="45.098143715653244" lon="9.396993508867645"><ele>53.00000000000001</ele><time>2026-04-18T09:40:19.003Z</time></trkpt><trkpt lat="45.09813177263278" lon="9.397096365314496"><ele>53.0</ele><time>2026-04-18T09:40:20.003Z</time></trkpt><trkpt lat="45.09811909582295" lon="9.397204780481045"><ele>53.0</ele><time>2026-04-18T09:40:21.003Z</time></trkpt><trkpt lat="45.098107767404706" lon="9.397324356926871"><ele>53.0</ele><time>2026-04-18T09:40:22.003Z</time></trkpt><trkpt lat="45.098098602291195" lon="9.397440787074377"><ele>53.00000000000001</ele><time>2026-04-18T09:40:23.003Z</time></trkpt><trkpt lat="45.09808890994756" lon="9.397543821137749"><ele>53.0</ele><time>2026-04-18T09:40:24.003Z</time></trkpt><trkpt lat="45.09807791564737" lon="9.397640831074483"><ele>53.142857142857146</ele><time>2026-04-18T09:40:25.003Z</time></trkpt><trkpt lat="45.09806764851679" lon="9.397742219873834"><ele>53.285714285714285</ele><time>2026-04-18T09:40:26.003Z</time></trkpt><trkpt lat="45.09805489329487" lon="9.397846044149953"><ele>53.42857142857143</ele><time>2026-04-18T09:40:27.003Z</time></trkpt><trkpt lat="45.09804182198931" lon="9.397950569635599"><ele>53.57142857142857</ele><time>2026-04-18T09:40:28.003Z</time></trkpt><trkpt lat="45.09803038348341" lon="9.398057153620366"><ele>53.71428571428571</ele><time>2026-04-18T09:40:29.003Z</time></trkpt><trkpt lat="45.0980225455655" lon="9.398161698167062"><ele>53.857142857142854</ele><time>2026-04-18T09:40:30.003Z</time></trkpt><trkpt lat="45.098009221198716" lon="9.398258471767965"><ele>54.0</ele><time>2026-04-18T09:40:31.003Z</time></trkpt><trkpt lat="45.09798337438126" lon="9.398444749747311"><ele>53.666666666666664</ele><time>2026-04-18T09:40:33.003Z</time></trkpt><trkpt lat="45.09797341856509" lon="9.398573265741469"><ele>53.33333333333333</ele><time>2026-04-18T09:40:34Z</time></trkpt><trkpt lat="45.097962687427994" lon="9.398670365752785"><ele>53.0</ele><time>2026-04-18T09:40:35Z</time></trkpt><trkpt lat="45.09794851437348" lon="9.398771060643215"><ele>52.666666666666664</ele><time>2026-04-18T09:40:36Z</time></trkpt><trkpt lat="45.09793685514101" lon="9.398894811753268"><ele>52.33333333333333</ele><time>2026-04-18T09:40:37Z</time></trkpt><trkpt lat="45.09792867085572" lon="9.39900866306111"><ele>52.0</ele><time>2026-04-18T09:40:38Z</time></trkpt><trkpt lat="45.09790928176427" lon="9.399127540935245"><ele>51.99999999999999</ele><time>2026-04-18T09:40:39Z</time></trkpt><trkpt lat="45.097896018399304" lon="9.39923709912114"><ele>52.0</ele><time>2026-04-18T09:40:40Z</time></trkpt><trkpt lat="45.097884130017114" lon="9.399339285710433"><ele>52.0</ele><time>2026-04-18T09:40:41Z</time></trkpt><trkpt lat="45.097873280944306" lon="9.399427973288942"><ele>52.0</ele><time>2026-04-18T09:40:42Z</time></trkpt><trkpt lat="45.09785824659222" lon="9.399590922312004"><ele>51.99999999999999</ele><time>2026-04-18T09:40:44Z</time></trkpt><trkpt lat="45.09785295451123" lon="9.399693416372227"><ele>52.0</ele><time>2026-04-18T09:40:46Z</time></trkpt><trkpt lat="45.09780592500392" lon="9.399790199593713"><ele>52.166666666666664</ele><time>2026-04-18T09:40:49Z</time></trkpt><trkpt lat="45.09778950150994" lon="9.399906622227908"><ele>52.33333333333333</ele><time>2026-04-18T09:40:51Z</time></trkpt><trkpt lat="45.097788213453" lon="9.400013808434556"><ele>52.5</ele><time>2026-04-18T09:40:53Z</time></trkpt><trkpt lat="45.097769278084876" lon="9.400120957814257"><ele>52.66666666666667</ele><time>2026-04-18T09:40:55Z</time></trkpt><trkpt lat="45.097761448854975" lon="9.400227049956287"><ele>52.833333333333336</ele><time>2026-04-18T09:40:58Z</time></trkpt><trkpt lat="45.097755201879174" lon="9.400369804094058"><ele>53.0</ele><time>2026-04-18T09:41:00Z</time></trkpt><trkpt lat="45.09774064548106" lon="9.400525967735314"><ele>53.16666666666667</ele><time>2026-04-18T09:41:02Z</time></trkpt><trkpt lat="45.09773093047698" lon="9.400616058441235"><ele>53.333333333333336</ele><time>2026-04-18T09:41:03Z</time></trkpt><trkpt lat="45.09772108201121" lon="9.400707317773373"><ele>53.5</ele><time>2026-04-18T09:41:04Z</time></trkpt><trkpt lat="45.09770267457442" lon="9.400877394870522"><ele>53.66666666666667</ele><time>2026-04-18T09:41:06.001Z</time></trkpt><trkpt lat="45.0976958860219" lon="9.400975329503298"><ele>53.833333333333336</ele><time>2026-04-18T09:41:07.001Z</time></trkpt><trkpt lat="45.097681407466006" lon="9.401087718338042"><ele>54.0</ele><time>2026-04-18T09:41:08.001Z</time></trkpt><trkpt lat="45.09766049784632" lon="9.401192401236344"><ele>54.0</ele><time>2026-04-18T09:41:09.001Z</time></trkpt><trkpt lat="45.097632375816666" lon="9.401305765643881"><ele>54.0</ele><time>2026-04-18T09:41:10.001Z</time></trkpt><trkpt lat="45.09760459875241" lon="9.401415561870282"><ele>54.0</ele><time>2026-04-18T09:41:11.001Z</time></trkpt><trkpt lat="45.09757750174723" lon="9.401511547288044"><ele>54.0</ele><time>2026-04-18T09:41:12.001Z</time></trkpt><trkpt lat="45.09754817756897" lon="9.401613634443493"><ele>54.0</ele><time>2026-04-18T09:41:13.001Z</time></trkpt><trkpt lat="45.09751453209272" lon="9.401728623094687"><ele>54.0</ele><time>2026-04-18T09:41:14.001Z</time></trkpt><trkpt lat="45.09748848612744" lon="9.401826442020537"><ele>54.0</ele><time>2026-04-18T09:41:15.001Z</time></trkpt><trkpt lat="45.09745948643377" lon="9.401948798816601"><ele>54.0</ele><time>2026-04-18T09:41:16.001Z</time></trkpt><trkpt lat="45.09743326280265" lon="9.402070188670873"><ele>54.0</ele><time>2026-04-18T09:41:17.001Z</time></trkpt><trkpt lat="45.09740502718244" lon="9.402197916650598"><ele>54.0</ele><time>2026-04-18T09:41:18.001Z</time></trkpt><trkpt lat="45.09738099652708" lon="9.402301392202055"><ele>54.0</ele><time>2026-04-18T09:41:19.001Z</time></trkpt><trkpt lat="45.09735849854181" lon="9.40239264404771"><ele>54.0</ele><time>2026-04-18T09:41:20.001Z</time></trkpt><trkpt lat="45.09730695647553" lon="9.402550919044558"><ele>53.833333333333336</ele><time>2026-04-18T09:41:22.001Z</time></trkpt><trkpt lat="45.09728769123262" lon="9.40264418378141"><ele>53.66666666666667</ele><time>2026-04-18T09:41:23.001Z</time></trkpt><trkpt lat="45.09726845497471" lon="9.402740632647347"><ele>53.5</ele><time>2026-04-18T09:41:24.001Z</time></trkpt><trkpt lat="45.097246349974945" lon="9.402830756022778"><ele>53.333333333333336</ele><time>2026-04-18T09:41:25.001Z</time></trkpt><trkpt lat="45.09722356573884" lon="9.402918654994616"><ele>53.16666666666667</ele><time>2026-04-18T09:41:26.001Z</time></trkpt><trkpt lat="45.097170983645675" lon="9.403093556969774"><ele>53.0</ele><time>2026-04-18T09:41:28.001Z</time></trkpt><trkpt lat="45.09714111097276" lon="9.403186677367666"><ele>53.0</ele><time>2026-04-18T09:41:29.001Z</time></trkpt><trkpt lat="45.09711630642893" lon="9.40327023843134"><ele>53.0</ele><time>2026-04-18T09:41:30.001Z</time></trkpt><trkpt lat="45.09709257203709" lon="9.403355171050364"><ele>53.0</ele><time>2026-04-18T09:41:31.001Z</time></trkpt><trkpt lat="45.09706492075162" lon="9.403442208830526"><ele>53.0</ele><time>2026-04-18T09:41:32.001Z</time></trkpt><trkpt lat="45.097032764729356" lon="9.40354384866784"><ele>53.0</ele><time>2026-04-18T09:41:33.001Z</time></trkpt><trkpt lat="45.09700275140281" lon="9.403644525114165"><ele>53.0</ele><time>2026-04-18T09:41:34.001Z</time></trkpt><trkpt lat="45.09697335269151" lon="9.403744481571858"><ele>53.0</ele><time>2026-04-18T09:41:35.001Z</time></trkpt><trkpt lat="45.09694396808266" lon="9.403840825073186"><ele>53.142857142857146</ele><time>2026-04-18T09:41:36.001Z</time></trkpt><trkpt lat="45.096916642046764" lon="9.403936654301388"><ele>53.285714285714285</ele><time>2026-04-18T09:41:37.002Z</time></trkpt><trkpt lat="45.09689102065591" lon="9.404044316747555"><ele>53.42857142857143</ele><time>2026-04-18T09:41:38.002Z</time></trkpt><trkpt lat="45.09687694488984" lon="9.404154023305193"><ele>53.57142857142857</ele><time>2026-04-18T09:41:39.002Z</time></trkpt><trkpt lat="45.09686937024024" lon="9.40424746913531"><ele>53.71428571428571</ele><time>2026-04-18T09:41:40.002Z</time></trkpt><trkpt lat="45.09685542898827" lon="9.404347820671896"><ele>53.857142857142854</ele><time>2026-04-18T09:41:41.002Z</time></trkpt><trkpt lat="45.09683913590766" lon="9.404447142098528"><ele>54.0</ele><time>2026-04-18T09:41:42.002Z</time></trkpt><trkpt lat="45.09682606655017" lon="9.404552414766366"><ele>54.0</ele><time>2026-04-18T09:41:43.002Z</time></trkpt><trkpt lat="45.09680943444106" lon="9.404651194073162"><ele>54.0</ele><time>2026-04-18T09:41:44.002Z</time></trkpt><trkpt lat="45.096793365784755" lon="9.404752839052298"><ele>54.0</ele><time>2026-04-18T09:41:45.002Z</time></trkpt><trkpt lat="45.096775512826866" lon="9.404862055801784"><ele>54.0</ele><time>2026-04-18T09:41:46.002Z</time></trkpt><trkpt lat="45.096760072417915" lon="9.404963792334788"><ele>54.0</ele><time>2026-04-18T09:41:47.002Z</time></trkpt><trkpt lat="45.09674282550138" lon="9.40506535192448"><ele>54.0</ele><time>2026-04-18T09:41:48.002Z</time></trkpt><trkpt lat="45.096721521462335" lon="9.405167651665677"><ele>54.0</ele><time>2026-04-18T09:41:49.002Z</time></trkpt><trkpt lat="45.096700116472036" lon="9.405281382203464"><ele>53.833333333333336</ele><time>2026-04-18T09:41:50.002Z</time></trkpt><trkpt lat="45.096678770359894" lon="9.405388915686586"><ele>53.66666666666667</ele><time>2026-04-18T09:41:51.002Z</time></trkpt><trkpt lat="45.09666037824542" lon="9.405489647394132"><ele>53.5</ele><time>2026-04-18T09:41:52.002Z</time></trkpt><trkpt lat="45.09664181077473" lon="9.405594187305953"><ele>53.333333333333336</ele><time>2026-04-18T09:41:53.002Z</time></trkpt><trkpt lat="45.096627241776375" lon="9.405702167830341"><ele>53.16666666666667</ele><time>2026-04-18T09:41:54.002Z</time></trkpt><trkpt lat="45.096616371285755" lon="9.405808057291614"><ele>53.0</ele><time>2026-04-18T09:41:55.002Z</time></trkpt><trkpt lat="45.096608778439176" lon="9.405915640690333"><ele>53.00000000000001</ele><time>2026-04-18T09:41:56.002Z</time></trkpt><trkpt lat="45.096595230565896" lon="9.406024269610104"><ele>53.0</ele><time>2026-04-18T09:41:57.002Z</time></trkpt><trkpt lat="45.09658282860525" lon="9.406130144659008"><ele>53.0</ele><time>2026-04-18T09:41:58.002Z</time></trkpt><trkpt lat="45.09655450548381" lon="9.406220180995835"><ele>53.0</ele><time>2026-04-18T09:41:59.002Z</time></trkpt><trkpt lat="45.096516295635176" lon="9.40640046151913"><ele>53.00000000000001</ele><time>2026-04-18T09:42:01.002Z</time></trkpt><trkpt lat="45.096513152162714" lon="9.406493493576203"><ele>53.0</ele><time>2026-04-18T09:42:02.002Z</time></trkpt><trkpt lat="45.09650823497359" lon="9.406584890528256"><ele>52.57142857142858</ele><time>2026-04-18T09:42:03.002Z</time></trkpt><trkpt lat="45.09650688271038" lon="9.406675166936717"><ele>52.14285714285714</ele><time>2026-04-18T09:42:04.002Z</time></trkpt><trkpt lat="45.09648891583488" lon="9.406771524248732"><ele>51.714285714285715</ele><time>2026-04-18T09:42:05.002Z</time></trkpt><trkpt lat="45.09647065807286" lon="9.4068664011509"><ele>51.28571428571429</ele><time>2026-04-18T09:42:06.002Z</time></trkpt><trkpt lat="45.096456867234636" lon="9.40696657165043"><ele>50.85714285714286</ele><time>2026-04-18T09:42:07.002Z</time></trkpt><trkpt lat="45.096447896777505" lon="9.407061364875036"><ele>50.42857142857143</ele><time>2026-04-18T09:42:08.002Z</time></trkpt><trkpt lat="45.09643824920355" lon="9.407172451831487"><ele>50.0</ele><time>2026-04-18T09:42:09.002Z</time></trkpt><trkpt lat="45.09642580672276" lon="9.407286199628178"><ele>50.00000000000001</ele><time>2026-04-18T09:42:10.002Z</time></trkpt><trkpt lat="45.09641778595376" lon="9.407394549437862"><ele>50.0</ele><time>2026-04-18T09:42:11.003Z</time></trkpt><trkpt lat="45.09641383531262" lon="9.407513105584156"><ele>50.0</ele><time>2026-04-18T09:42:12.003Z</time></trkpt><trkpt lat="45.0964076144243" lon="9.407625845760997"><ele>50.0</ele><time>2026-04-18T09:42:13.003Z</time></trkpt><trkpt lat="45.09639975369417" lon="9.407731027824745"><ele>50.00000000000001</ele><time>2026-04-18T09:42:14.003Z</time></trkpt><trkpt lat="45.09639403936132" lon="9.407845296966109"><ele>50.0</ele><time>2026-04-18T09:42:15.003Z</time></trkpt><trkpt lat="45.09638925243043" lon="9.407964092131646"><ele>50.16666666666667</ele><time>2026-04-18T09:42:16.003Z</time></trkpt><trkpt lat="45.09638750199983" lon="9.408088328121083"><ele>50.333333333333336</ele><time>2026-04-18T09:42:17.003Z</time></trkpt><trkpt lat="45.09639063231948" lon="9.408201237187933"><ele>50.5</ele><time>2026-04-18T09:42:18.003Z</time></trkpt><trkpt lat="45.09639171137369" lon="9.408335195788931"><ele>50.66666666666667</ele><time>2026-04-18T09:42:19.003Z</time></trkpt><trkpt lat="45.096390423300036" lon="9.40846616823551"><ele>50.833333333333336</ele><time>2026-04-18T09:42:20.003Z</time></trkpt><trkpt lat="45.09639383981112" lon="9.408584953305697"><ele>51.0</ele><time>2026-04-18T09:42:21.003Z</time></trkpt><trkpt lat="45.09639363715145" lon="9.408703505471507"><ele>51.0</ele><time>2026-04-18T09:42:22.003Z</time></trkpt><trkpt lat="45.0964005449225" lon="9.408795264181759"><ele>51.0</ele><time>2026-04-18T09:42:23.003Z</time></trkpt><trkpt lat="45.096408861359286" lon="9.408890607482414"><ele>51.0</ele><time>2026-04-18T09:42:24.003Z</time></trkpt><trkpt lat="45.09642478201737" lon="9.409052991465886"><ele>51.0</ele><time>2026-04-18T09:42:26.003Z</time></trkpt><trkpt lat="45.09642924133955" lon="9.409215560937065"><ele>51.0</ele><time>2026-04-18T09:42:28.003Z</time></trkpt><trkpt lat="45.09641213745115" lon="9.409347688415563"><ele>51.42857142857143</ele><time>2026-04-18T09:42:30.003Z</time></trkpt><trkpt lat="45.09637444056001" lon="9.409426627684242"><ele>51.85714285714286</ele><time>2026-04-18T09:42:44Z</time></trkpt><trkpt lat="45.09629261020188" lon="9.409462173011299"><ele>52.285714285714285</ele><time>2026-04-18T09:42:48Z</time></trkpt><trkpt lat="45.096208177992054" lon="9.409464947707914"><ele>52.714285714285715</ele><time>2026-04-18T09:42:50Z</time></trkpt><trkpt lat="45.096142545096555" lon="9.409486622130109"><ele>53.14285714285714</ele><time>2026-04-18T09:42:51Z</time></trkpt><trkpt lat="45.09608197348563" lon="9.409514585287884"><ele>53.57142857142857</ele><time>2026-04-18T09:42:52Z</time></trkpt><trkpt lat="45.09600224301122" lon="9.40950449364614"><ele>54.0</ele><time>2026-04-18T09:42:54Z</time></trkpt><trkpt lat="45.09593802468268" lon="9.409501755398194"><ele>54.0</ele><time>2026-04-18T09:42:56Z</time></trkpt><trkpt lat="45.09588927438572" lon="9.40955829855767"><ele>54.0</ele><time>2026-04-18T09:42:58Z</time></trkpt><trkpt lat="45.09586924168007" lon="9.409654910385763"><ele>54.0</ele><time>2026-04-18T09:43:00Z</time></trkpt><trkpt lat="45.095854868053685" lon="9.409768988983936"><ele>54.0</ele><time>2026-04-18T09:43:02Z</time></trkpt><trkpt lat="45.095810214839304" lon="9.40987182171053"><ele>54.0</ele><time>2026-04-18T09:43:04Z</time></trkpt><trkpt lat="45.0957583116889" lon="9.40995592846145"><ele>54.0</ele><time>2026-04-18T09:43:06Z</time></trkpt><trkpt lat="45.095728397314986" lon="9.410062787501808"><ele>53.833333333333336</ele><time>2026-04-18T09:43:08Z</time></trkpt><trkpt lat="45.09569098973718" lon="9.410161880865376"><ele>53.66666666666667</ele><time>2026-04-18T09:43:10Z</time></trkpt><trkpt lat="45.095656471314335" lon="9.410254898771615"><ele>53.5</ele><time>2026-04-18T09:43:12.001Z</time></trkpt><trkpt lat="45.09563116619789" lon="9.410371688374434"><ele>53.333333333333336</ele><time>2026-04-18T09:43:14.001Z</time></trkpt><trkpt lat="45.09562209261706" lon="9.410475763889087"><ele>53.16666666666667</ele><time>2026-04-18T09:43:15.001Z</time></trkpt><trkpt lat="45.09562009899234" lon="9.410638853497392"><ele>53.0</ele><time>2026-04-18T09:43:17.001Z</time></trkpt><trkpt lat="45.09560884597305" lon="9.410810261422858"><ele>53.00000000000001</ele><time>2026-04-18T09:43:19.001Z</time></trkpt><trkpt lat="45.095603271853136" lon="9.410920422862286"><ele>53.0</ele><time>2026-04-18T09:43:20.001Z</time></trkpt><trkpt lat="45.09559810775399" lon="9.411032782080527"><ele>53.0</ele><time>2026-04-18T09:43:21.001Z</time></trkpt><trkpt lat="45.095594949800734" lon="9.411139973775134"><ele>53.0</ele><time>2026-04-18T09:43:22.001Z</time></trkpt><trkpt lat="45.09559091935433" lon="9.411245933961595"><ele>53.00000000000001</ele><time>2026-04-18T09:43:23.001Z</time></trkpt><trkpt lat="45.09558344258701" lon="9.411416271436766"><ele>53.0</ele><time>2026-04-18T09:43:25.001Z</time></trkpt><trkpt lat="45.09557735715242" lon="9.411505369991813"><ele>52.2</ele><time>2026-04-18T09:43:26.001Z</time></trkpt><trkpt lat="45.095567713630075" lon="9.411629875427773"><ele>51.4</ele><time>2026-04-18T09:43:28.001Z</time></trkpt><trkpt lat="45.095553103272174" lon="9.411766679889633"><ele>50.6</ele><time>2026-04-18T09:43:30.001Z</time></trkpt><trkpt lat="45.09553216950557" lon="9.411911129877328"><ele>49.800000000000004</ele><time>2026-04-18T09:43:32.001Z</time></trkpt><trkpt lat="45.09550826178695" lon="9.412097297924324"><ele>49.0</ele><time>2026-04-18T09:43:34.001Z</time></trkpt><trkpt lat="45.095505042067686" lon="9.412205077213544"><ele>48.49999999999999</ele><time>2026-04-18T09:43:35.001Z</time></trkpt><trkpt lat="45.095510483596854" lon="9.412307845212332"><ele>48.0</ele><time>2026-04-18T09:43:36.001Z</time></trkpt><trkpt lat="45.09551250852281" lon="9.412426017576946"><ele>47.5</ele><time>2026-04-18T09:43:37.001Z</time></trkpt><trkpt lat="45.09551553669579" lon="9.412540880041089"><ele>47.0</ele><time>2026-04-18T09:43:38.001Z</time></trkpt><trkpt lat="45.09551908671072" lon="9.412668478458741"><ele>46.5</ele><time>2026-04-18T09:43:39.001Z</time></trkpt><trkpt lat="45.09552252144458" lon="9.412785306137309"><ele>46.0</ele><time>2026-04-18T09:43:40.001Z</time></trkpt><trkpt lat="45.095524681313876" lon="9.412908112409951"><ele>46.16666666666667</ele><time>2026-04-18T09:43:41.001Z</time></trkpt><trkpt lat="45.095522734994546" lon="9.413022570569893"><ele>46.333333333333336</ele><time>2026-04-18T09:43:42.001Z</time></trkpt><trkpt lat="45.095521046721046" lon="9.413132712744297"><ele>46.5</ele><time>2026-04-18T09:43:43.002Z</time></trkpt><trkpt lat="45.09552004437021" lon="9.41325275297694"><ele>46.666666666666664</ele><time>2026-04-18T09:43:44.002Z</time></trkpt><trkpt lat="45.095525278820425" lon="9.413370531273744"><ele>46.83333333333333</ele><time>2026-04-18T09:43:45.002Z</time></trkpt><trkpt lat="45.09553232399161" lon="9.413475168765736"><ele>47.0</ele><time>2026-04-18T09:43:46.002Z</time></trkpt><trkpt lat="45.095538146269" lon="9.413579654705247"><ele>47.0</ele><time>2026-04-18T09:43:47.002Z</time></trkpt><trkpt lat="45.09553790340434" lon="9.413684978230737"><ele>47.0</ele><time>2026-04-18T09:43:48.002Z</time></trkpt><trkpt lat="45.09553562346387" lon="9.413791971318883"><ele>47.0</ele><time>2026-04-18T09:43:49.002Z</time></trkpt><trkpt lat="45.095527915797575" lon="9.413898589841194"><ele>47.0</ele><time>2026-04-18T09:43:50.002Z</time></trkpt><trkpt lat="45.095524758942204" lon="9.41400182323454"><ele>47.0</ele><time>2026-04-18T09:43:51.002Z</time></trkpt><trkpt lat="45.09552086529736" lon="9.414108622758148"><ele>47.0</ele><time>2026-04-18T09:43:52.002Z</time></trkpt><trkpt lat="45.095517641471595" lon="9.414217048174711"><ele>47.0</ele><time>2026-04-18T09:43:53.002Z</time></trkpt><trkpt lat="45.09551103807036" lon="9.41431438149092"><ele>47.0</ele><time>2026-04-18T09:43:54.002Z</time></trkpt><trkpt lat="45.095504921707146" lon="9.414428943099386"><ele>47.0</ele><time>2026-04-18T09:43:55.002Z</time></trkpt><trkpt lat="45.09550186895176" lon="9.414536296717708"><ele>47.0</ele><time>2026-04-18T09:43:56.002Z</time></trkpt><trkpt lat="45.09549800846411" lon="9.41465310302868"><ele>47.0</ele><time>2026-04-18T09:43:57.002Z</time></trkpt><trkpt lat="45.095499450760144" lon="9.414763288011109"><ele>47.0</ele><time>2026-04-18T09:43:58.002Z</time></trkpt><trkpt lat="45.09549617552297" lon="9.414875992136913"><ele>47.0</ele><time>2026-04-18T09:43:59.002Z</time></trkpt><trkpt lat="45.09549683054005" lon="9.414995538949908"><ele>47.0</ele><time>2026-04-18T09:44:00.002Z</time></trkpt><trkpt lat="45.09549622952362" lon="9.41510594921168"><ele>47.0</ele><time>2026-04-18T09:44:01.002Z</time></trkpt><trkpt lat="45.09549912234893" lon="9.41522773379652"><ele>47.0</ele><time>2026-04-18T09:44:02.002Z</time></trkpt><trkpt lat="45.0954998933049" lon="9.41534651528387"><ele>47.0</ele><time>2026-04-18T09:44:03.002Z</time></trkpt><trkpt lat="45.095501677180124" lon="9.415459378129661"><ele>47.0</ele><time>2026-04-18T09:44:04.002Z</time></trkpt><trkpt lat="45.095501777277" lon="9.415567315478413"><ele>47.166666666666664</ele><time>2026-04-18T09:44:05.002Z</time></trkpt><trkpt lat="45.095509863044974" lon="9.415691908385925"><ele>47.33333333333333</ele><time>2026-04-18T09:44:06.002Z</time></trkpt><trkpt lat="45.09551901116231" lon="9.41579852106583"><ele>47.5</ele><time>2026-04-18T09:44:07.002Z</time></trkpt><trkpt lat="45.09552511634328" lon="9.41590517548336"><ele>47.666666666666664</ele><time>2026-04-18T09:44:08.002Z</time></trkpt><trkpt lat="45.09552957385994" lon="9.416016482745839"><ele>47.833333333333336</ele><time>2026-04-18T09:44:09.002Z</time></trkpt><trkpt lat="45.0955382082929" lon="9.416120141643077"><ele>48.0</ele><time>2026-04-18T09:44:10.002Z</time></trkpt><trkpt lat="45.09554365073218" lon="9.416221988486866"><ele>47.99999999999999</ele><time>2026-04-18T09:44:11.002Z</time></trkpt><trkpt lat="45.09554524051994" lon="9.416318071652537"><ele>48.0</ele><time>2026-04-18T09:44:12.002Z</time></trkpt><trkpt lat="45.09554584389618" lon="9.416431213817328"><ele>48.0</ele><time>2026-04-18T09:44:13.002Z</time></trkpt><trkpt lat="45.09554518607623" lon="9.416537052768822"><ele>48.0</ele><time>2026-04-18T09:44:14.002Z</time></trkpt><trkpt lat="45.095539692130444" lon="9.416641472397488"><ele>48.0</ele><time>2026-04-18T09:44:15.002Z</time></trkpt><trkpt lat="45.095531395674676" lon="9.416742059577278"><ele>47.99999999999999</ele><time>2026-04-18T09:44:16.003Z</time></trkpt><trkpt lat="45.095525757137146" lon="9.416842795125785"><ele>48.0</ele><time>2026-04-18T09:44:17.003Z</time></trkpt><trkpt lat="45.09551562735126" lon="9.416936525673727"><ele>48.0</ele><time>2026-04-18T09:44:18.003Z</time></trkpt><trkpt lat="45.09548887288277" lon="9.417084618505326"><ele>48.0</ele><time>2026-04-18T09:44:20.003Z</time></trkpt><trkpt lat="45.09543564512964" lon="9.417209873207106"><ele>48.0</ele><time>2026-04-18T09:44:22.003Z</time></trkpt><trkpt lat="45.095370665877034" lon="9.417318619789198"><ele>48.0</ele><time>2026-04-18T09:44:24.003Z</time></trkpt><trkpt lat="45.09531042697374" lon="9.417410304476352"><ele>48.0</ele><time>2026-04-18T09:44:26.003Z</time></trkpt><trkpt lat="45.09527350280262" lon="9.417495403009731"><ele>48.0</ele><time>2026-04-18T09:44:29.003Z</time></trkpt><trkpt lat="45.09521227974648" lon="9.41743236624307"><ele>48.0</ele><time>2026-04-18T09:44:39.003Z</time></trkpt><trkpt lat="45.09518334300715" lon="9.417321338264923"><ele>48.0</ele><time>2026-04-18T09:44:42.003Z</time></trkpt><trkpt lat="45.095190549552825" lon="9.417228874337328"><ele>48.0</ele><time>2026-04-18T09:44:44.003Z</time></trkpt><trkpt lat="45.09518933035793" lon="9.417125322350016"><ele>48.0</ele><time>2026-04-18T09:44:47Z</time></trkpt><trkpt lat="45.09510551577662" lon="9.417113502311294"><ele>48.0</ele><time>2026-04-18T09:44:51Z</time></trkpt><trkpt lat="45.09510837559895" lon="9.417217558730572"><ele>48.0</ele><time>2026-04-18T09:47:05.999Z</time></trkpt><trkpt lat="45.09513456725564" lon="9.417312638409973"><ele>48.0</ele><time>2026-04-18T09:47:08.999Z</time></trkpt><trkpt lat="45.09511711117622" lon="9.417429373861095"><ele>48.0</ele><time>2026-04-18T09:47:15Z</time></trkpt><trkpt lat="45.095111892024605" lon="9.41754769004066"><ele>48.0</ele><time>2026-04-18T09:47:17Z</time></trkpt><trkpt lat="45.095128576879645" lon="9.417654407849406"><ele>48.0</ele><time>2026-04-18T09:47:19Z</time></trkpt><trkpt lat="45.09516041579651" lon="9.417735700216252"><ele>48.0</ele><time>2026-04-18T09:47:21Z</time></trkpt><trkpt lat="45.0951785352329" lon="9.4178278779156"><ele>48.0</ele><time>2026-04-18T09:47:23Z</time></trkpt><trkpt lat="45.09517822442813" lon="9.417947172151962"><ele>48.0</ele><time>2026-04-18T09:47:25Z</time></trkpt><trkpt lat="45.095192631858886" lon="9.418068796603812"><ele>48.0</ele><time>2026-04-18T09:47:27Z</time></trkpt><trkpt lat="45.095180482967486" lon="9.418209001916987"><ele>48.0</ele><time>2026-04-18T09:47:29.001Z</time></trkpt><trkpt lat="45.09517174060948" lon="9.418344070351186"><ele>48.0</ele><time>2026-04-18T09:47:31.001Z</time></trkpt><trkpt lat="45.09516565060814" lon="9.418493066325372"><ele>48.0</ele><time>2026-04-18T09:47:33.001Z</time></trkpt><trkpt lat="45.09514406186732" lon="9.418635894743437"><ele>48.0</ele><time>2026-04-18T09:47:35.001Z</time></trkpt><trkpt lat="45.09511863976558" lon="9.418781006585851"><ele>48.0</ele><time>2026-04-18T09:47:37.001Z</time></trkpt><trkpt lat="45.09509023546825" lon="9.418884493066953"><ele>48.0</ele><time>2026-04-18T09:47:39.001Z</time></trkpt><trkpt lat="45.095046551156095" lon="9.418965468998"><ele>48.0</ele><time>2026-04-18T09:47:41.001Z</time></trkpt><trkpt lat="45.09498751745652" lon="9.419016606595715"><ele>48.0</ele><time>2026-04-18T09:47:43.001Z</time></trkpt><trkpt lat="45.094939427662524" lon="9.419095224183753"><ele>48.0</ele><time>2026-04-18T09:47:45.001Z</time></trkpt><trkpt lat="45.09489866513441" lon="9.419179388344194"><ele>48.0</ele><time>2026-04-18T09:47:47.001Z</time></trkpt><trkpt lat="45.09486204085316" lon="9.419293421284756"><ele>48.0</ele><time>2026-04-18T09:47:49.001Z</time></trkpt><trkpt lat="45.0948228865171" lon="9.419416875949343"><ele>48.0</ele><time>2026-04-18T09:47:51.001Z</time></trkpt><trkpt lat="45.09479867433946" lon="9.419536843314495"><ele>48.0</ele><time>2026-04-18T09:47:53.001Z</time></trkpt><trkpt lat="45.094794198348666" lon="9.419645293447497"><ele>48.0</ele><time>2026-04-18T09:47:55.002Z</time></trkpt><trkpt lat="45.09477768161354" lon="9.419748371211222"><ele>48.0</ele><time>2026-04-18T09:47:57.002Z</time></trkpt><trkpt lat="45.09475600784634" lon="9.41987635278239"><ele>48.0</ele><time>2026-04-18T09:47:59.002Z</time></trkpt><trkpt lat="45.09474135540376" lon="9.420017147352446"><ele>48.0</ele><time>2026-04-18T09:48:01.002Z</time></trkpt><trkpt lat="45.094750471083714" lon="9.420149600455959"><ele>48.0</ele><time>2026-04-18T09:48:03.002Z</time></trkpt><trkpt lat="45.09475533891461" lon="9.420261444869588"><ele>48.0</ele><time>2026-04-18T09:48:05.002Z</time></trkpt><trkpt lat="45.09475552908782" lon="9.420352857884371"><ele>48.0</ele><time>2026-04-18T09:48:07.002Z</time></trkpt><trkpt lat="45.094766311851004" lon="9.420445245008564"><ele>47.833333333333336</ele><time>2026-04-18T09:48:09.002Z</time></trkpt><trkpt lat="45.09477956152805" lon="9.4205583421969"><ele>47.666666666666664</ele><time>2026-04-18T09:48:11.002Z</time></trkpt><trkpt lat="45.094767962315686" lon="9.420674895334331"><ele>47.5</ele><time>2026-04-18T09:48:13.002Z</time></trkpt><trkpt lat="45.09476229659316" lon="9.420801358133279"><ele>47.33333333333333</ele><time>2026-04-18T09:48:15.002Z</time></trkpt><trkpt lat="45.09474798457561" lon="9.420924182744924"><ele>47.166666666666664</ele><time>2026-04-18T09:48:17.002Z</time></trkpt><trkpt lat="45.094738935451126" lon="9.421061092604807"><ele>47.0</ele><time>2026-04-18T09:48:19.002Z</time></trkpt><trkpt lat="45.09472431218308" lon="9.421204404641339"><ele>47.0</ele><time>2026-04-18T09:48:21.002Z</time></trkpt><trkpt lat="45.094720965707864" lon="9.421350736814823"><ele>47.0</ele><time>2026-04-18T09:48:23.002Z</time></trkpt><trkpt lat="45.094720337419226" lon="9.42146106096598"><ele>47.0</ele><time>2026-04-18T09:48:25.002Z</time></trkpt><trkpt lat="45.09475625437114" lon="9.421560341131253"><ele>47.0</ele><time>2026-04-18T09:48:28.003Z</time></trkpt><trkpt lat="45.094827335324965" lon="9.421659518458819"><ele>47.0</ele><time>2026-04-18T09:48:31.003Z</time></trkpt><trkpt lat="45.09488961195653" lon="9.421735541395583"><ele>47.0</ele><time>2026-04-18T09:48:33.003Z</time></trkpt><trkpt lat="45.09496432460265" lon="9.421759815264679"><ele>47.166666666666664</ele><time>2026-04-18T09:48:35.003Z</time></trkpt><trkpt lat="45.09504424426589" lon="9.421744616354717"><ele>47.33333333333333</ele><time>2026-04-18T09:48:37.003Z</time></trkpt><trkpt lat="45.095107297602276" lon="9.421728390520824"><ele>47.5</ele><time>2026-04-18T09:48:39.003Z</time></trkpt><trkpt lat="45.09518554090192" lon="9.421711456142244"><ele>47.666666666666664</ele><time>2026-04-18T09:48:41.003Z</time></trkpt><trkpt lat="45.095276659232155" lon="9.4216920015601"><ele>47.833333333333336</ele><time>2026-04-18T09:48:43.003Z</time></trkpt><trkpt lat="45.0953707740179" lon="9.421690286609584"><ele>48.0</ele><time>2026-04-18T09:48:46.003Z</time></trkpt><trkpt lat="45.095432678932056" lon="9.42166556130764"><ele>48.0</ele><time>2026-04-18T09:48:53.003Z</time></trkpt><trkpt lat="45.09548759320727" lon="9.42160775057546"><ele>48.0</ele><time>2026-04-18T09:52:14.002Z</time></trkpt><trkpt lat="45.095547775538186" lon="9.421527576038004"><ele>48.0</ele><time>2026-04-18T09:52:17.002Z</time></trkpt><trkpt lat="45.095608184711104" lon="9.42144972868487"><ele>48.0</ele><time>2026-04-18T09:52:20.002Z</time></trkpt><trkpt lat="45.09566704132713" lon="9.421387448178457"><ele>48.0</ele><time>2026-04-18T09:52:22.002Z</time></trkpt><trkpt lat="45.09574234304511" lon="9.421379627273092"><ele>48.0</ele><time>2026-04-18T09:52:24.002Z</time></trkpt><trkpt lat="45.09584982916165" lon="9.421377198066756"><ele>48.14285714285714</ele><time>2026-04-18T09:52:26.002Z</time></trkpt><trkpt lat="45.095914162414125" lon="9.421381086509658"><ele>48.285714285714285</ele><time>2026-04-18T09:52:27.002Z</time></trkpt><trkpt lat="45.09598043089819" lon="9.421391339358038"><ele>48.42857142857143</ele><time>2026-04-18T09:52:28.002Z</time></trkpt><trkpt lat="45.09604808703707" lon="9.42140885138015"><ele>48.57142857142857</ele><time>2026-04-18T09:52:29.002Z</time></trkpt><trkpt lat="45.096113341465966" lon="9.421425480728196"><ele>48.714285714285715</ele><time>2026-04-18T09:52:30.002Z</time></trkpt><trkpt lat="45.09617885058069" lon="9.421443921189384"><ele>48.857142857142854</ele><time>2026-04-18T09:52:31.002Z</time></trkpt><trkpt lat="45.09627429783199" lon="9.42147585181079"><ele>49.0</ele><time>2026-04-18T09:52:33.002Z</time></trkpt><trkpt lat="45.096362456576855" lon="9.421498218324436"><ele>49.0</ele><time>2026-04-18T09:52:46.002Z</time></trkpt><trkpt lat="45.09649117648877" lon="9.421517690675701"><ele>49.0</ele><time>2026-04-18T09:52:48.002Z</time></trkpt><trkpt lat="45.09656735679451" lon="9.421533908124227"><ele>49.0</ele><time>2026-04-18T09:52:49.002Z</time></trkpt><trkpt lat="45.09664010887685" lon="9.421547689261308"><ele>49.0</ele><time>2026-04-18T09:52:50.002Z</time></trkpt><trkpt lat="45.09672017199078" lon="9.421562157995577"><ele>49.0</ele><time>2026-04-18T09:52:51.002Z</time></trkpt><trkpt lat="45.096814320507725" lon="9.421580884560871"><ele>49.6</ele><time>2026-04-18T09:52:52.002Z</time></trkpt><trkpt lat="45.09690600120764" lon="9.421596228498377"><ele>50.2</ele><time>2026-04-18T09:52:53.003Z</time></trkpt><trkpt lat="45.0969905609522" lon="9.421611729530296"><ele>50.800000000000004</ele><time>2026-04-18T09:52:54.003Z</time></trkpt><trkpt lat="45.097093022538274" lon="9.421627842879909"><ele>51.400000000000006</ele><time>2026-04-18T09:52:55.003Z</time></trkpt><trkpt lat="45.09719732941326" lon="9.421640942063627"><ele>52.0</ele><time>2026-04-18T09:52:56.003Z</time></trkpt><trkpt lat="45.09728744249591" lon="9.42164434187953"><ele>52.0</ele><time>2026-04-18T09:52:57.003Z</time></trkpt><trkpt lat="45.097386127008804" lon="9.421656590717074"><ele>52.0</ele><time>2026-04-18T09:52:58.003Z</time></trkpt><trkpt lat="45.09748825840579" lon="9.421669388301494"><ele>52.0</ele><time>2026-04-18T09:52:59.003Z</time></trkpt><trkpt lat="45.097592477641655" lon="9.421688391133408"><ele>52.0</ele><time>2026-04-18T09:53:00.003Z</time></trkpt><trkpt lat="45.097688500640835" lon="9.421706242885627"><ele>52.0</ele><time>2026-04-18T09:53:01.003Z</time></trkpt><trkpt lat="45.09779925416682" lon="9.421722039633337"><ele>52.2</ele><time>2026-04-18T09:53:02.003Z</time></trkpt><trkpt lat="45.09790686528813" lon="9.421741304590666"><ele>52.400000000000006</ele><time>2026-04-18T09:53:03.003Z</time></trkpt><trkpt lat="45.09800709540747" lon="9.421757982438193"><ele>52.599999999999994</ele><time>2026-04-18T09:53:04.003Z</time></trkpt><trkpt lat="45.098116423792" lon="9.421774571032913"><ele>52.8</ele><time>2026-04-18T09:53:05.003Z</time></trkpt><trkpt lat="45.09820367331657" lon="9.42180669350249"><ele>53.0</ele><time>2026-04-18T09:53:06.003Z</time></trkpt><trkpt lat="45.09830341099189" lon="9.421835028493776"><ele>53.4</ele><time>2026-04-18T09:53:07.003Z</time></trkpt><trkpt lat="45.098403249239" lon="9.42185935271442"><ele>53.8</ele><time>2026-04-18T09:53:08.003Z</time></trkpt><trkpt lat="45.098495828293714" lon="9.421872797103903"><ele>54.2</ele><time>2026-04-18T09:53:09.003Z</time></trkpt><trkpt lat="45.09859228423949" lon="9.42188701315002"><ele>54.6</ele><time>2026-04-18T09:53:10Z</time></trkpt><trkpt lat="45.098699808653066" lon="9.42190904136685"><ele>55.0</ele><time>2026-04-18T09:53:11Z</time></trkpt><trkpt lat="45.09879541162312" lon="9.421946666783741"><ele>55.0</ele><time>2026-04-18T09:53:12Z</time></trkpt><trkpt lat="45.09889729488583" lon="9.421978537896685"><ele>55.0</ele><time>2026-04-18T09:53:13Z</time></trkpt><trkpt lat="45.09899481368398" lon="9.42199269927232"><ele>55.0</ele><time>2026-04-18T09:53:14Z</time></trkpt><trkpt lat="45.09907872854761" lon="9.42201687219239"><ele>55.0</ele><time>2026-04-18T09:53:15Z</time></trkpt><trkpt lat="45.09916515011826" lon="9.422042959372105"><ele>55.0</ele><time>2026-04-18T09:53:16Z</time></trkpt><trkpt lat="45.09924565104235" lon="9.422079251469752"><ele>54.83333333333333</ele><time>2026-04-18T09:53:17Z</time></trkpt><trkpt lat="45.099320676804766" lon="9.42213355704544"><ele>54.666666666666664</ele><time>2026-04-18T09:53:18Z</time></trkpt><trkpt lat="45.09939276648563" lon="9.422203456199664"><ele>54.5</ele><time>2026-04-18T09:53:19Z</time></trkpt><trkpt lat="45.09945819747922" lon="9.422251576620132"><ele>54.33333333333333</ele><time>2026-04-18T09:53:20Z</time></trkpt><trkpt lat="45.099539434468525" lon="9.422305404066611"><ele>54.166666666666664</ele><time>2026-04-18T09:53:21Z</time></trkpt><trkpt lat="45.09962087165822" lon="9.422366078190787"><ele>54.0</ele><time>2026-04-18T09:53:22Z</time></trkpt><trkpt lat="45.099691778778634" lon="9.422426272339925"><ele>53.666666666666664</ele><time>2026-04-18T09:53:23Z</time></trkpt><trkpt lat="45.09975167321628" lon="9.422475208299682"><ele>53.33333333333333</ele><time>2026-04-18T09:53:24Z</time></trkpt><trkpt lat="45.099848207597255" lon="9.422549515990646"><ele>53.0</ele><time>2026-04-18T09:53:26Z</time></trkpt><trkpt lat="45.09990346002321" lon="9.422623988353983"><ele>52.666666666666664</ele><time>2026-04-18T09:53:28Z</time></trkpt><trkpt lat="45.099906431422774" lon="9.422764609057525"><ele>52.33333333333333</ele><time>2026-04-18T09:53:30Z</time></trkpt><trkpt lat="45.09990073227739" lon="9.422884034684117"><ele>52.0</ele><time>2026-04-18T09:53:31Z</time></trkpt><trkpt lat="45.09989009477601" lon="9.423035658900435"><ele>52.0</ele><time>2026-04-18T09:53:32Z</time></trkpt><trkpt lat="45.099885883311615" lon="9.423226297033075"><ele>52.0</ele><time>2026-04-18T09:53:33Z</time></trkpt><trkpt lat="45.09988405976742" lon="9.423438142334144"><ele>52.0</ele><time>2026-04-18T09:53:34Z</time></trkpt><trkpt lat="45.099878170255074" lon="9.423650240839534"><ele>52.0</ele><time>2026-04-18T09:53:35Z</time></trkpt><trkpt lat="45.09987527423804" lon="9.423867786590288"><ele>53.33333333333333</ele><time>2026-04-18T09:53:36Z</time></trkpt><trkpt lat="45.09987087397398" lon="9.424090332418496"><ele>54.66666666666667</ele><time>2026-04-18T09:53:37Z</time></trkpt><trkpt lat="45.0998637996361" lon="9.424319301884509"><ele>56.0</ele><time>2026-04-18T09:53:38Z</time></trkpt><trkpt lat="45.099859869823426" lon="9.424549391922536"><ele>58.0</ele><time>2026-04-18T09:53:39Z</time></trkpt><trkpt lat="45.09985315185256" lon="9.424790011705301"><ele>60.0</ele><time>2026-04-18T09:53:40Z</time></trkpt><trkpt lat="45.09984930997171" lon="9.425034975366255"><ele>62.0</ele><time>2026-04-18T09:53:41Z</time></trkpt><trkpt lat="45.09984703502556" lon="9.425270958226152"><ele>61.66666666666667</ele><time>2026-04-18T09:53:42Z</time></trkpt><trkpt lat="45.09984432061788" lon="9.425498814992967"><ele>61.33333333333333</ele><time>2026-04-18T09:53:43Z</time></trkpt><trkpt lat="45.099840307516644" lon="9.4257408795077"><ele>61.0</ele><time>2026-04-18T09:53:44Z</time></trkpt><trkpt lat="45.099836255796916" lon="9.425986666369045"><ele>61.0</ele><time>2026-04-18T09:53:45Z</time></trkpt><trkpt lat="45.09983116416155" lon="9.426234184331845"><ele>61.0</ele><time>2026-04-18T09:53:46Z</time></trkpt><trkpt lat="45.0998266264622" lon="9.42648293127707"><ele>61.0</ele><time>2026-04-18T09:53:47Z</time></trkpt><trkpt lat="45.09982197954208" lon="9.426712788383727"><ele>60.25</ele><time>2026-04-18T09:53:48Z</time></trkpt><trkpt lat="45.09981833731636" lon="9.42691095847819"><ele>59.5</ele><time>2026-04-18T09:53:49Z</time></trkpt><trkpt lat="45.09981406836335" lon="9.427076156045565"><ele>58.75</ele><time>2026-04-18T09:53:50Z</time></trkpt><trkpt lat="45.0998076876084" lon="9.427224035780078"><ele>58.0</ele><time>2026-04-18T09:53:51Z</time></trkpt><trkpt lat="45.0998022067248" lon="9.427353499695744"><ele>57.4</ele><time>2026-04-18T09:53:52.001Z</time></trkpt><trkpt lat="45.09979952681445" lon="9.427464754855597"><ele>56.8</ele><time>2026-04-18T09:53:53.001Z</time></trkpt><trkpt lat="45.09979759092881" lon="9.427614659942323"><ele>56.2</ele><time>2026-04-18T09:53:55.001Z</time></trkpt><trkpt lat="45.09981108786175" lon="9.427447732411522"><ele>55.6</ele><time>2026-04-18T09:54:15.001Z</time></trkpt><trkpt lat="45.09981364221624" lon="9.427339291459148"><ele>55.0</ele><time>2026-04-18T09:54:16.001Z</time></trkpt><trkpt lat="45.09981881283052" lon="9.427230915251167"><ele>55.42857142857142</ele><time>2026-04-18T09:54:17.001Z</time></trkpt><trkpt lat="45.09982246291323" lon="9.42713689537235"><ele>55.85714285714286</ele><time>2026-04-18T09:54:18.001Z</time></trkpt><trkpt lat="45.09980820528924" lon="9.427046501836383"><ele>56.28571428571429</ele><time>2026-04-18T09:54:19.001Z</time></trkpt><trkpt lat="45.09981028295899" lon="9.426949103700046"><ele>56.714285714285715</ele><time>2026-04-18T09:54:20.001Z</time></trkpt><trkpt lat="45.09981237041985" lon="9.426851245061714"><ele>57.142857142857146</ele><time>2026-04-18T09:54:21.001Z</time></trkpt><trkpt lat="45.09981448445714" lon="9.42675214266235"><ele>57.57142857142858</ele><time>2026-04-18T09:54:22.001Z</time></trkpt><trkpt lat="45.09981644609358" lon="9.42666018306331"><ele>58.00000000000001</ele><time>2026-04-18T09:54:23.001Z</time></trkpt><trkpt lat="45.099818372952136" lon="9.426569853753355"><ele>58.0</ele><time>2026-04-18T09:54:24.001Z</time></trkpt><trkpt lat="45.099822070401046" lon="9.42639652196805"><ele>58.0</ele><time>2026-04-18T09:54:26.001Z</time></trkpt><trkpt lat="45.09982387938539" lon="9.426299200441326"><ele>58.0</ele><time>2026-04-18T09:54:28.002Z</time></trkpt><trkpt lat="45.09982649176923" lon="9.426157678578816"><ele>58.0</ele><time>2026-04-18T09:54:55.002Z</time></trkpt><trkpt lat="45.09982984404367" lon="9.425974264439915"><ele>58.0</ele><time>2026-04-18T09:54:57.002Z</time></trkpt><trkpt lat="45.09983157203825" lon="9.425879720141733"><ele>58.599999999999994</ele><time>2026-04-18T09:54:58.002Z</time></trkpt><trkpt lat="45.099833219136784" lon="9.42578960271389"><ele>59.199999999999996</ele><time>2026-04-18T09:54:59.002Z</time></trkpt><trkpt lat="45.0998355598778" lon="9.425661531457589"><ele>59.8</ele><time>2026-04-18T09:55:01.002Z</time></trkpt><trkpt lat="45.09983736924278" lon="9.42556252981599"><ele>60.4</ele><time>2026-04-18T09:55:04.002Z</time></trkpt><trkpt lat="45.09983918647185" lon="9.425463103827571"><ele>61.0</ele><time>2026-04-18T09:55:12.003Z</time></trkpt><trkpt lat="45.1004539803048" lon="9.425434703884715"><ele>59.199999999999996</ele><time>2026-04-18T09:55:15.003Z</time></trkpt><trkpt lat="45.10048374245004" lon="9.425532079007498"><ele>57.39999999999999</ele><time>2026-04-18T09:55:24.998Z</time></trkpt><trkpt lat="45.10047763889484" lon="9.425683451113184"><ele>55.6</ele><time>2026-04-18T09:55:26.998Z</time></trkpt><trkpt lat="45.10047455976759" lon="9.425777820830758"><ele>53.8</ele><time>2026-04-18T09:55:27.998Z</time></trkpt><trkpt lat="45.100496850581216" lon="9.42592409130368"><ele>52.0</ele><time>2026-04-18T09:55:29.998Z</time></trkpt><trkpt lat="45.10057992353701" lon="9.426062935151325"><ele>51.99999999999999</ele><time>2026-04-18T09:55:31.998Z</time></trkpt><trkpt lat="45.10063587663557" lon="9.426133782765023"><ele>52.0</ele><time>2026-04-18T09:55:32.998Z</time></trkpt><trkpt lat="45.100696145127245" lon="9.426210570009518"><ele>52.0</ele><time>2026-04-18T09:55:33.999Z</time></trkpt><trkpt lat="45.10075499290279" lon="9.426296388499035"><ele>52.0</ele><time>2026-04-18T09:55:34.999Z</time></trkpt><trkpt lat="45.10080999302046" lon="9.426386651359811"><ele>51.99999999999999</ele><time>2026-04-18T09:55:35.999Z</time></trkpt><trkpt lat="45.10086582855856" lon="9.426481137454894"><ele>52.0</ele><time>2026-04-18T09:55:36.999Z</time></trkpt><trkpt lat="45.10092442944988" lon="9.426598760143635"><ele>51.6</ele><time>2026-04-18T09:55:37.999Z</time></trkpt><trkpt lat="45.100970822272494" lon="9.426719626618596"><ele>51.2</ele><time>2026-04-18T09:55:38.999Z</time></trkpt><trkpt lat="45.10101692676536" lon="9.426837729244875"><ele>50.8</ele><time>2026-04-18T09:55:39.999Z</time></trkpt><trkpt lat="45.10106113055213" lon="9.426948250370009"><ele>50.4</ele><time>2026-04-18T09:55:40.999Z</time></trkpt><trkpt lat="45.10111462784097" lon="9.427064410267597"><ele>50.0</ele><time>2026-04-18T09:55:41.999Z</time></trkpt><trkpt lat="45.101163250870485" lon="9.42716956689809"><ele>50.00000000000001</ele><time>2026-04-18T09:55:42.999Z</time></trkpt><trkpt lat="45.10120928063993" lon="9.4272918253157"><ele>50.0</ele><time>2026-04-18T09:55:43.999Z</time></trkpt><trkpt lat="45.10125354225015" lon="9.427401068226528"><ele>50.0</ele><time>2026-04-18T09:55:44.999Z</time></trkpt><trkpt lat="45.101297252363075" lon="9.427516018773177"><ele>50.0</ele><time>2026-04-18T09:55:45.999Z</time></trkpt><trkpt lat="45.10132451817591" lon="9.4276240962367"><ele>50.00000000000001</ele><time>2026-04-18T09:55:46.999Z</time></trkpt><trkpt lat="45.101352795933146" lon="9.427723448114161"><ele>50.0</ele><time>2026-04-18T09:55:47.999Z</time></trkpt><trkpt lat="45.10139711388363" lon="9.427815187261329"><ele>50.0</ele><time>2026-04-18T09:55:49Z</time></trkpt><trkpt lat="45.10146657375815" lon="9.427917776541435"><ele>50.0</ele><time>2026-04-18T09:55:50Z</time></trkpt><trkpt lat="45.10152090080333" lon="9.42800087904641"><ele>50.0</ele><time>2026-04-18T09:55:51Z</time></trkpt><trkpt lat="45.101575755790435" lon="9.428094556914099"><ele>50.0</ele><time>2026-04-18T09:55:52Z</time></trkpt><trkpt lat="45.101629410962374" lon="9.428200979398774"><ele>50.0</ele><time>2026-04-18T09:55:53Z</time></trkpt><trkpt lat="45.10169023933286" lon="9.428309972557905"><ele>50.00000000000001</ele><time>2026-04-18T09:55:54Z</time></trkpt><trkpt lat="45.10174489776628" lon="9.428411363548578"><ele>50.0</ele><time>2026-04-18T09:55:55Z</time></trkpt><trkpt lat="45.10179385038245" lon="9.428509687143807"><ele>50.0</ele><time>2026-04-18T09:55:56Z</time></trkpt><trkpt lat="45.10184184158255" lon="9.428606140837692"><ele>50.0</ele><time>2026-04-18T09:55:57Z</time></trkpt><trkpt lat="45.101884021905626" lon="9.428688904820005"><ele>50.00000000000001</ele><time>2026-04-18T09:55:58Z</time></trkpt><trkpt lat="45.10192990219543" lon="9.428781755324847"><ele>50.0</ele><time>2026-04-18T09:55:59Z</time></trkpt><trkpt lat="45.10197852711652" lon="9.428882438369433"><ele>50.0</ele><time>2026-04-18T09:56:00Z</time></trkpt><trkpt lat="45.10203015642886" lon="9.428987605639529"><ele>50.0</ele><time>2026-04-18T09:56:01Z</time></trkpt><trkpt lat="45.1020745256561" lon="9.429088229408462"><ele>50.0</ele><time>2026-04-18T09:56:02Z</time></trkpt><trkpt lat="45.10212477003108" lon="9.42920411534598"><ele>50.0</ele><time>2026-04-18T09:56:03Z</time></trkpt><trkpt lat="45.1021747967119" lon="9.429319935656642"><ele>50.0</ele><time>2026-04-18T09:56:04Z</time></trkpt><trkpt lat="45.10221776431188" lon="9.429424329370649"><ele>50.00000000000001</ele><time>2026-04-18T09:56:05Z</time></trkpt><trkpt lat="45.10226098962456" lon="9.429539218262784"><ele>50.0</ele><time>2026-04-18T09:56:06Z</time></trkpt><trkpt lat="45.10229854685923" lon="9.429654915936966"><ele>50.0</ele><time>2026-04-18T09:56:07Z</time></trkpt><trkpt lat="45.10233330995158" lon="9.429770024757598"><ele>50.0</ele><time>2026-04-18T09:56:08Z</time></trkpt><trkpt lat="45.102369107507485" lon="9.429893229533072"><ele>50.00000000000001</ele><time>2026-04-18T09:56:09Z</time></trkpt><trkpt lat="45.102401997363096" lon="9.43000442478983"><ele>50.0</ele><time>2026-04-18T09:56:10Z</time></trkpt><trkpt lat="45.102445271764296" lon="9.430115978716566"><ele>49.833333333333336</ele><time>2026-04-18T09:56:11Z</time></trkpt><trkpt lat="45.10248739009111" lon="9.430225067461954"><ele>49.66666666666667</ele><time>2026-04-18T09:56:12Z</time></trkpt><trkpt lat="45.10252435026908" lon="9.430337716838208"><ele>49.5</ele><time>2026-04-18T09:56:13.001Z</time></trkpt><trkpt lat="45.102550719190575" lon="9.430452705033114"><ele>49.33333333333333</ele><time>2026-04-18T09:56:14.001Z</time></trkpt><trkpt lat="45.102578146207684" lon="9.43055937217484"><ele>49.166666666666664</ele><time>2026-04-18T09:56:15.001Z</time></trkpt><trkpt lat="45.10260074466216" lon="9.430665739032882"><ele>49.0</ele><time>2026-04-18T09:56:16.001Z</time></trkpt><trkpt lat="45.10262945005052" lon="9.430786376448975"><ele>48.99999999999999</ele><time>2026-04-18T09:56:17.001Z</time></trkpt><trkpt lat="45.10265789031611" lon="9.43090361533817"><ele>49.0</ele><time>2026-04-18T09:56:18.001Z</time></trkpt><trkpt lat="45.10268535665418" lon="9.431032006322294"><ele>49.0</ele><time>2026-04-18T09:56:19.001Z</time></trkpt><trkpt lat="45.102713483307035" lon="9.431147389351958"><ele>49.0</ele><time>2026-04-18T09:56:20.001Z</time></trkpt><trkpt lat="45.10274039053182" lon="9.431251469703769"><ele>48.99999999999999</ele><time>2026-04-18T09:56:21.001Z</time></trkpt><trkpt lat="45.10276798879144" lon="9.431360634005818"><ele>49.0</ele><time>2026-04-18T09:56:22.001Z</time></trkpt><trkpt lat="45.10279671465238" lon="9.431455079905172"><ele>48.99999999999999</ele><time>2026-04-18T09:56:23.001Z</time></trkpt><trkpt lat="45.10282297636218" lon="9.431547628916276"><ele>49.0</ele><time>2026-04-18T09:56:24.001Z</time></trkpt><trkpt lat="45.10284813012839" lon="9.431635016471569"><ele>49.0</ele><time>2026-04-18T09:56:25.001Z</time></trkpt><trkpt lat="45.10287395285159" lon="9.431722013910177"><ele>49.0</ele><time>2026-04-18T09:56:26.001Z</time></trkpt><trkpt lat="45.10289552062358" lon="9.431806972898862"><ele>48.99999999999999</ele><time>2026-04-18T09:56:27.001Z</time></trkpt><trkpt lat="45.10293979233775" lon="9.431965735929"><ele>49.0</ele><time>2026-04-18T09:56:29.001Z</time></trkpt><trkpt lat="45.102976233671285" lon="9.432087463238483"><ele>49.166666666666664</ele><time>2026-04-18T09:56:31.001Z</time></trkpt><trkpt lat="45.10301592620042" lon="9.43218298684696"><ele>49.33333333333333</ele><time>2026-04-18T09:56:34.001Z</time></trkpt><trkpt lat="45.103064484702614" lon="9.432313903176512"><ele>49.5</ele><time>2026-04-18T09:56:37.001Z</time></trkpt><trkpt lat="45.103104816567686" lon="9.432434728831634"><ele>49.66666666666667</ele><time>2026-04-18T09:56:39.001Z</time></trkpt><trkpt lat="45.10312702811391" lon="9.43251869894148"><ele>49.833333333333336</ele><time>2026-04-18T09:56:40.001Z</time></trkpt><trkpt lat="45.103153699399364" lon="9.432612002830474"><ele>50.0</ele><time>2026-04-18T09:56:41.001Z</time></trkpt><trkpt lat="45.1031897683782" lon="9.432717643085143"><ele>50.00000000000001</ele><time>2026-04-18T09:56:42.001Z</time></trkpt><trkpt lat="45.103225229729375" lon="9.432828882614835"><ele>50.0</ele><time>2026-04-18T09:56:43.001Z</time></trkpt><trkpt lat="45.10325607514469" lon="9.432928493868861"><ele>50.0</ele><time>2026-04-18T09:56:44.002Z</time></trkpt><trkpt lat="45.103287805657615" lon="9.433032312527917"><ele>50.0</ele><time>2026-04-18T09:56:45.002Z</time></trkpt><trkpt lat="45.10332040272785" lon="9.433143791549735"><ele>50.00000000000001</ele><time>2026-04-18T09:56:46.002Z</time></trkpt><trkpt lat="45.10335269491677" lon="9.433255751533345"><ele>50.0</ele><time>2026-04-18T09:56:47.002Z</time></trkpt><trkpt lat="45.10338842350151" lon="9.433364403638503"><ele>49.833333333333336</ele><time>2026-04-18T09:56:48.002Z</time></trkpt><trkpt lat="45.10342631981744" lon="9.433476848492857"><ele>49.66666666666667</ele><time>2026-04-18T09:56:49.002Z</time></trkpt><trkpt lat="45.103466453920305" lon="9.433588612462815"><ele>49.5</ele><time>2026-04-18T09:56:50.002Z</time></trkpt><trkpt lat="45.103508666948315" lon="9.43369477161843"><ele>49.33333333333333</ele><time>2026-04-18T09:56:51.002Z</time></trkpt><trkpt lat="45.103551106682524" lon="9.43380558134629"><ele>49.166666666666664</ele><time>2026-04-18T09:56:52.002Z</time></trkpt><trkpt lat="45.10359393157317" lon="9.433921809372478"><ele>49.0</ele><time>2026-04-18T09:56:53.002Z</time></trkpt><trkpt lat="45.10363165147626" lon="9.434012551167642"><ele>48.99999999999999</ele><time>2026-04-18T09:56:54.002Z</time></trkpt><trkpt lat="45.103665981599704" lon="9.434097885045988"><ele>49.0</ele><time>2026-04-18T09:56:55.002Z</time></trkpt><trkpt lat="45.10370418802002" lon="9.434182318342314"><ele>49.0</ele><time>2026-04-18T09:56:56.002Z</time></trkpt><trkpt lat="45.103740712555755" lon="9.43427034514571"><ele>49.0</ele><time>2026-04-18T09:56:57.002Z</time></trkpt><trkpt lat="45.10377388201821" lon="9.434368965346506"><ele>48.99999999999999</ele><time>2026-04-18T09:56:58.002Z</time></trkpt><trkpt lat="45.10379725856896" lon="9.434479707986934"><ele>49.0</ele><time>2026-04-18T09:56:59.002Z</time></trkpt><trkpt lat="45.10382511034933" lon="9.434609008903303"><ele>49.0</ele><time>2026-04-18T09:57:00.002Z</time></trkpt><trkpt lat="45.103854658958575" lon="9.434732953794935"><ele>49.0</ele><time>2026-04-18T09:57:01.002Z</time></trkpt><trkpt lat="45.103890478700926" lon="9.434859687557516"><ele>49.0</ele><time>2026-04-18T09:57:02.002Z</time></trkpt><trkpt lat="45.10392238456847" lon="9.434993504367428"><ele>49.0</ele><time>2026-04-18T09:57:03.002Z</time></trkpt><trkpt lat="45.10395030213911" lon="9.435118959766731"><ele>49.0</ele><time>2026-04-18T09:57:04.002Z</time></trkpt><trkpt lat="45.10397791518936" lon="9.43524645697031"><ele>49.0</ele><time>2026-04-18T09:57:05.002Z</time></trkpt><trkpt lat="45.104011299741444" lon="9.43537264203882"><ele>49.0</ele><time>2026-04-18T09:57:06.002Z</time></trkpt><trkpt lat="45.10403867147588" lon="9.435494760219706"><ele>49.0</ele><time>2026-04-18T09:57:07.002Z</time></trkpt><trkpt lat="45.10406743609578" lon="9.435624108092622"><ele>49.0</ele><time>2026-04-18T09:57:08.002Z</time></trkpt><trkpt lat="45.10409309149287" lon="9.435743922715282"><ele>49.0</ele><time>2026-04-18T09:57:09.002Z</time></trkpt><trkpt lat="45.10412200307459" lon="9.435869188489908"><ele>48.99999999999999</ele><time>2026-04-18T09:57:10.002Z</time></trkpt><trkpt lat="45.10415037396022" lon="9.435991840686839"><ele>49.0</ele><time>2026-04-18T09:57:11.002Z</time></trkpt><trkpt lat="45.10417732087917" lon="9.436109392443385"><ele>49.0</ele><time>2026-04-18T09:57:12.002Z</time></trkpt><trkpt lat="45.10421298668163" lon="9.436226451036307"><ele>49.0</ele><time>2026-04-18T09:57:13.002Z</time></trkpt><trkpt lat="45.104238811592374" lon="9.436331561639976"><ele>48.99999999999999</ele><time>2026-04-18T09:57:14.002Z</time></trkpt><trkpt lat="45.104259680590545" lon="9.436439681068325"><ele>49.0</ele><time>2026-04-18T09:57:15.002Z</time></trkpt><trkpt lat="45.10428261890373" lon="9.436559791718262"><ele>48.99999999999999</ele><time>2026-04-18T09:57:16.002Z</time></trkpt><trkpt lat="45.10431577483248" lon="9.436675132842847"><ele>49.0</ele><time>2026-04-18T09:57:17.003Z</time></trkpt><trkpt lat="45.104341422432476" lon="9.436798896283452"><ele>49.0</ele><time>2026-04-18T09:57:18.003Z</time></trkpt><trkpt lat="45.10437437439683" lon="9.436922105391382"><ele>49.0</ele><time>2026-04-18T09:57:19.003Z</time></trkpt><trkpt lat="45.1043986542201" lon="9.437028235723785"><ele>48.99999999999999</ele><time>2026-04-18T09:57:20.003Z</time></trkpt><trkpt lat="45.104411989226065" lon="9.437121720289095"><ele>49.0</ele><time>2026-04-18T09:57:21.003Z</time></trkpt><trkpt lat="45.10444083340318" lon="9.437226273883958"><ele>48.666666666666664</ele><time>2026-04-18T09:57:21.997Z</time></trkpt><trkpt lat="45.10446674392419" lon="9.437345590516362"><ele>48.33333333333333</ele><time>2026-04-18T09:57:22.997Z</time></trkpt><trkpt lat="45.10449090887896" lon="9.437460279598168"><ele>48.0</ele><time>2026-04-18T09:57:23.997Z</time></trkpt><trkpt lat="45.1045168189301" lon="9.437569811885519"><ele>47.666666666666664</ele><time>2026-04-18T09:57:24.997Z</time></trkpt><trkpt lat="45.10454473333559" lon="9.437679338952707"><ele>47.33333333333333</ele><time>2026-04-18T09:57:25.997Z</time></trkpt><trkpt lat="45.104570365475844" lon="9.437794457739226"><ele>47.0</ele><time>2026-04-18T09:57:26.998Z</time></trkpt><trkpt lat="45.104589729767135" lon="9.437912890502846"><ele>47.33333333333333</ele><time>2026-04-18T09:57:27.998Z</time></trkpt><trkpt lat="45.104608704205816" lon="9.438031426593016"><ele>47.666666666666664</ele><time>2026-04-18T09:57:28.998Z</time></trkpt><trkpt lat="45.1046266972205" lon="9.43813614348619"><ele>48.0</ele><time>2026-04-18T09:57:29.998Z</time></trkpt><trkpt lat="45.10464408292914" lon="9.438227962936251"><ele>48.33333333333333</ele><time>2026-04-18T09:57:30.998Z</time></trkpt><trkpt lat="45.10465845610588" lon="9.438319671009264"><ele>48.666666666666664</ele><time>2026-04-18T09:57:31.998Z</time></trkpt><trkpt lat="45.10469937796851" lon="9.438477497828632"><ele>49.0</ele><time>2026-04-18T09:57:33.998Z</time></trkpt><trkpt lat="45.104719497294724" lon="9.438607424653554"><ele>48.99999999999999</ele><time>2026-04-18T09:57:35.999Z</time></trkpt><trkpt lat="45.1047205498472" lon="9.43869732022441"><ele>49.0</ele><time>2026-04-18T09:57:56Z</time></trkpt><trkpt lat="45.10478717900046" lon="9.438784192100531"><ele>49.0</ele><time>2026-04-18T09:57:58Z</time></trkpt><trkpt lat="45.104847659031385" lon="9.438837469885272"><ele>49.0</ele><time>2026-04-18T09:57:59Z</time></trkpt><trkpt lat="45.1049011022715" lon="9.438896446511459"><ele>48.99999999999999</ele><time>2026-04-18T09:58:00Z</time></trkpt><trkpt lat="45.104972645981654" lon="9.438969394072553"><ele>49.0</ele><time>2026-04-18T09:58:01Z</time></trkpt><trkpt lat="45.10505490458849" lon="9.439053884425721"><ele>49.400000000000006</ele><time>2026-04-18T09:58:02.001Z</time></trkpt><trkpt lat="45.10513811508718" lon="9.439143568187244"><ele>49.8</ele><time>2026-04-18T09:58:03.001Z</time></trkpt><trkpt lat="45.105218226903105" lon="9.439226735564061"><ele>50.2</ele><time>2026-04-18T09:58:04.001Z</time></trkpt><trkpt lat="45.105310718383365" lon="9.439319962647344"><ele>50.599999999999994</ele><time>2026-04-18T09:58:05.001Z</time></trkpt><trkpt lat="45.10541246911606" lon="9.439419791655943"><ele>51.0</ele><time>2026-04-18T09:58:06.001Z</time></trkpt><trkpt lat="45.10551746185354" lon="9.439521937664532"><ele>51.0</ele><time>2026-04-18T09:58:07.001Z</time></trkpt><trkpt lat="45.10562338751049" lon="9.439629089333291"><ele>51.0</ele><time>2026-04-18T09:58:08.001Z</time></trkpt><trkpt lat="45.10572146214585" lon="9.43973341438684"><ele>51.0</ele><time>2026-04-18T09:58:09.001Z</time></trkpt><trkpt lat="45.10581976128438" lon="9.43982961780088"><ele>51.0</ele><time>2026-04-18T09:58:10.001Z</time></trkpt><trkpt lat="45.10592113988721" lon="9.439931034298418"><ele>51.0</ele><time>2026-04-18T09:58:11.001Z</time></trkpt><trkpt lat="45.106020534495535" lon="9.440031966481845"><ele>51.0</ele><time>2026-04-18T09:58:12.001Z</time></trkpt><trkpt lat="45.10612187503691" lon="9.440133205100816"><ele>51.0</ele><time>2026-04-18T09:58:13.001Z</time></trkpt><trkpt lat="45.10622393053426" lon="9.440235819413434"><ele>51.0</ele><time>2026-04-18T09:58:14.001Z</time></trkpt><trkpt lat="45.106324709618754" lon="9.44033794108455"><ele>51.0</ele><time>2026-04-18T09:58:15.001Z</time></trkpt><trkpt lat="45.10642278707982" lon="9.440436932884614"><ele>51.0</ele><time>2026-04-18T09:58:16.001Z</time></trkpt><trkpt lat="45.10651751290238" lon="9.44053414311527"><ele>51.0</ele><time>2026-04-18T09:58:17.001Z</time></trkpt><trkpt lat="45.10660918408781" lon="9.440630787161625"><ele>51.0</ele><time>2026-04-18T09:58:18.001Z</time></trkpt><trkpt lat="45.106702918920114" lon="9.440725920601405"><ele>51.0</ele><time>2026-04-18T09:58:19.001Z</time></trkpt><trkpt lat="45.10679814365108" lon="9.440822095662552"><ele>51.0</ele><time>2026-04-18T09:58:20.001Z</time></trkpt><trkpt lat="45.10689734323515" lon="9.440926603823181"><ele>51.0</ele><time>2026-04-18T09:58:21.001Z</time></trkpt><trkpt lat="45.10699863587194" lon="9.44103194185563"><ele>51.0</ele><time>2026-04-18T09:58:22.001Z</time></trkpt><trkpt lat="45.107101030992894" lon="9.4411361518723"><ele>51.0</ele><time>2026-04-18T09:58:23.001Z</time></trkpt><trkpt lat="45.10720135374423" lon="9.441237027484542"><ele>51.0</ele><time>2026-04-18T09:58:24.001Z</time></trkpt><trkpt lat="45.107297628168304" lon="9.441330417064432"><ele>51.0</ele><time>2026-04-18T09:58:25.001Z</time></trkpt><trkpt lat="45.107384836448844" lon="9.441417216866054"><ele>51.0</ele><time>2026-04-18T09:58:26.001Z</time></trkpt><trkpt lat="45.10746518161638" lon="9.441499457558619"><ele>51.0</ele><time>2026-04-18T09:58:27.001Z</time></trkpt><trkpt lat="45.10753266163948" lon="9.441566059527421"><ele>51.0</ele><time>2026-04-18T09:58:28.002Z</time></trkpt><trkpt lat="45.10758860744392" lon="9.441622884304653"><ele>51.0</ele><time>2026-04-18T09:58:29.002Z</time></trkpt><trkpt lat="45.10765046296016" lon="9.441699953021283"><ele>51.0</ele><time>2026-04-18T09:58:31.002Z</time></trkpt><trkpt lat="45.107661700724556" lon="9.441857240912416"><ele>51.0</ele><time>2026-04-18T09:58:35.002Z</time></trkpt><trkpt lat="45.10760720545269" lon="9.441962730381292"><ele>51.0</ele><time>2026-04-18T09:58:36.002Z</time></trkpt><trkpt lat="45.10755750823194" lon="9.442067114527568"><ele>51.0</ele><time>2026-04-18T09:58:37.002Z</time></trkpt><trkpt lat="45.10750614871896" lon="9.442191606808892"><ele>51.0</ele><time>2026-04-18T09:58:38.002Z</time></trkpt><trkpt lat="45.107441274323946" lon="9.442312378441262"><ele>51.0</ele><time>2026-04-18T09:58:39.002Z</time></trkpt><trkpt lat="45.1073815343221" lon="9.442423492488302"><ele>51.0</ele><time>2026-04-18T09:58:40.002Z</time></trkpt><trkpt lat="45.10731495609667" lon="9.44253693603421"><ele>51.0</ele><time>2026-04-18T09:58:41.002Z</time></trkpt><trkpt lat="45.10723698740465" lon="9.44266081825785"><ele>51.0</ele><time>2026-04-18T09:58:42.002Z</time></trkpt><trkpt lat="45.107149254189636" lon="9.442793432796956"><ele>51.0</ele><time>2026-04-18T09:58:43.002Z</time></trkpt><trkpt lat="45.107062267902194" lon="9.44293309987968"><ele>51.0</ele><time>2026-04-18T09:58:44.002Z</time></trkpt><trkpt lat="45.10697171117751" lon="9.443077611051136"><ele>51.0</ele><time>2026-04-18T09:58:45.002Z</time></trkpt><trkpt lat="45.1068859247976" lon="9.443220274693525"><ele>51.0</ele><time>2026-04-18T09:58:46.002Z</time></trkpt><trkpt lat="45.10678995268639" lon="9.443381766655406"><ele>51.0</ele><time>2026-04-18T09:58:47.002Z</time></trkpt><trkpt lat="45.10669492745092" lon="9.443557272568677"><ele>51.0</ele><time>2026-04-18T09:58:48.002Z</time></trkpt><trkpt lat="45.10660846502395" lon="9.443739175585312"><ele>51.0</ele><time>2026-04-18T09:58:49.002Z</time></trkpt><trkpt lat="45.106513845452234" lon="9.443930283426512"><ele>51.0</ele><time>2026-04-18T09:58:50.002Z</time></trkpt><trkpt lat="45.1064228247385" lon="9.444131298720075"><ele>51.0</ele><time>2026-04-18T09:58:51.002Z</time></trkpt><trkpt lat="45.10633631045689" lon="9.444339462453257"><ele>51.0</ele><time>2026-04-18T09:58:52.002Z</time></trkpt><trkpt lat="45.106251013192804" lon="9.44454952925611"><ele>50.66666666666667</ele><time>2026-04-18T09:58:53.002Z</time></trkpt><trkpt lat="45.10616705464021" lon="9.444758146499398"><ele>50.333333333333336</ele><time>2026-04-18T09:58:54.002Z</time></trkpt><trkpt lat="45.10608308074618" lon="9.444970417890037"><ele>50.0</ele><time>2026-04-18T09:58:55.002Z</time></trkpt><trkpt lat="45.105995007139505" lon="9.445179882383183"><ele>50.0</ele><time>2026-04-18T09:58:56.002Z</time></trkpt><trkpt lat="45.10590873322183" lon="9.445388748072855"><ele>50.0</ele><time>2026-04-18T09:58:57.002Z</time></trkpt><trkpt lat="45.10582120923153" lon="9.445596593816704"><ele>50.0</ele><time>2026-04-18T09:58:58.002Z</time></trkpt><trkpt lat="45.105733162676806" lon="9.445805627476895"><ele>50.0</ele><time>2026-04-18T09:58:59.003Z</time></trkpt><trkpt lat="45.105641403179916" lon="9.44602055820086"><ele>50.0</ele><time>2026-04-18T09:59:00.003Z</time></trkpt><trkpt lat="45.10555210298009" lon="9.446239814187562"><ele>50.0</ele><time>2026-04-18T09:59:01.003Z</time></trkpt><trkpt lat="45.10546150186507" lon="9.446466896547486"><ele>50.0</ele><time>2026-04-18T09:59:02.003Z</time></trkpt><trkpt lat="45.10536904452538" lon="9.446692153160836"><ele>50.0</ele><time>2026-04-18T09:59:03.003Z</time></trkpt><trkpt lat="45.10527534726691" lon="9.446922904278148"><ele>50.0</ele><time>2026-04-18T09:59:04.003Z</time></trkpt><trkpt lat="45.10517785114222" lon="9.447155542308465"><ele>50.0</ele><time>2026-04-18T09:59:05.003Z</time></trkpt><trkpt lat="45.10508185012684" lon="9.447378456488003"><ele>50.0</ele><time>2026-04-18T09:59:06.003Z</time></trkpt><trkpt lat="45.104985326608855" lon="9.447606461755562"><ele>50.0</ele><time>2026-04-18T09:59:07.003Z</time></trkpt><trkpt lat="45.104888260073885" lon="9.447834964654074"><ele>50.0</ele><time>2026-04-18T09:59:08.003Z</time></trkpt><trkpt lat="45.10479267991201" lon="9.448067523744125"><ele>50.0</ele><time>2026-04-18T09:59:09.003Z</time></trkpt><trkpt lat="45.104697408069896" lon="9.448297970563221"><ele>50.0</ele><time>2026-04-18T09:59:10.003Z</time></trkpt><trkpt lat="45.10459968401808" lon="9.448523760321738"><ele>50.0</ele><time>2026-04-18T09:59:11.003Z</time></trkpt><trkpt lat="45.104499423747775" lon="9.448743520137013"><ele>50.0</ele><time>2026-04-18T09:59:12.003Z</time></trkpt><trkpt lat="45.10439716902136" lon="9.4489503183616"><ele>50.0</ele><time>2026-04-18T09:59:13.003Z</time></trkpt><trkpt lat="45.104289129646375" lon="9.449144947880093"><ele>50.66666666666667</ele><time>2026-04-18T09:59:14.003Z</time></trkpt><trkpt lat="45.10417689343558" lon="9.449329789915419"><ele>51.33333333333333</ele><time>2026-04-18T09:59:15.003Z</time></trkpt><trkpt lat="45.1040579534098" lon="9.449496029150483"><ele>52.0</ele><time>2026-04-18T09:59:16.003Z</time></trkpt><trkpt lat="45.10393432199066" lon="9.44964569536807"><ele>52.25</ele><time>2026-04-18T09:59:17.003Z</time></trkpt><trkpt lat="45.10381398264791" lon="9.449777884107473"><ele>52.5</ele><time>2026-04-18T09:59:18.003Z</time></trkpt><trkpt lat="45.10369734737865" lon="9.449899923108685"><ele>52.75</ele><time>2026-04-18T09:59:19.003Z</time></trkpt><trkpt lat="45.10359305454729" lon="9.450012158111855"><ele>53.0</ele><time>2026-04-18T09:59:20.003Z</time></trkpt><trkpt lat="45.10352858571244" lon="9.450138058423416"><ele>53.0</ele><time>2026-04-18T09:59:21.003Z</time></trkpt><trkpt lat="45.10347424697248" lon="9.45025578699405"><ele>53.0</ele><time>2026-04-18T09:59:22.003Z</time></trkpt><trkpt lat="45.10345352260598" lon="9.450343267510958"><ele>53.0</ele><time>2026-04-18T09:59:23.003Z</time></trkpt><trkpt lat="45.10326986053321" lon="9.45036366078221"><ele>53.0</ele><time>2026-04-18T09:59:25.003Z</time></trkpt><trkpt lat="45.10317930177256" lon="9.450382681446344"><ele>53.0</ele><time>2026-04-18T09:59:27.003Z</time></trkpt><trkpt lat="45.103106331174786" lon="9.450399303376702"><ele>53.0</ele><time>2026-04-18T09:59:27.998Z</time></trkpt><trkpt lat="45.103011562608295" lon="9.45042233137135"><ele>53.0</ele><time>2026-04-18T09:59:28.998Z</time></trkpt><trkpt lat="45.1029214692242" lon="9.450436603487766"><ele>53.0</ele><time>2026-04-18T09:59:29.998Z</time></trkpt><trkpt lat="45.10281004212099" lon="9.450447469977902"><ele>53.0</ele><time>2026-04-18T09:59:30.998Z</time></trkpt><trkpt lat="45.10268006927007" lon="9.45045990238035"><ele>53.0</ele><time>2026-04-18T09:59:31.998Z</time></trkpt><trkpt lat="45.102555449338396" lon="9.45046661125926"><ele>53.0</ele><time>2026-04-18T09:59:32.998Z</time></trkpt><trkpt lat="45.10243069597127" lon="9.450473440430397"><ele>53.0</ele><time>2026-04-18T09:59:33.998Z</time></trkpt><trkpt lat="45.10229070541463" lon="9.450483169501759"><ele>53.0</ele><time>2026-04-18T09:59:34.998Z</time></trkpt><trkpt lat="45.10213814945934" lon="9.450496066851276"><ele>53.0</ele><time>2026-04-18T09:59:35.998Z</time></trkpt><trkpt lat="45.1019751038988" lon="9.450511010113761"><ele>53.0</ele><time>2026-04-18T09:59:36.998Z</time></trkpt><trkpt lat="45.10182216816976" lon="9.450524671788111"><ele>53.0</ele><time>2026-04-18T09:59:37.998Z</time></trkpt><trkpt lat="45.10165968566399" lon="9.450539747408088"><ele>53.0</ele><time>2026-04-18T09:59:38.999Z</time></trkpt><trkpt lat="45.10149086419676" lon="9.450553732255248"><ele>52.66666666666667</ele><time>2026-04-18T09:59:39.999Z</time></trkpt><trkpt lat="45.10131613406788" lon="9.450567668676744"><ele>52.33333333333333</ele><time>2026-04-18T09:59:40.999Z</time></trkpt><trkpt lat="45.10113313934187" lon="9.450580839353266"><ele>52.0</ele><time>2026-04-18T09:59:41.999Z</time></trkpt><trkpt lat="45.1009470017815" lon="9.45059283961556"><ele>52.0</ele><time>2026-04-18T09:59:42.999Z</time></trkpt><trkpt lat="45.100756413006465" lon="9.450603365631721"><ele>52.0</ele><time>2026-04-18T09:59:43.999Z</time></trkpt><trkpt lat="45.10057312328876" lon="9.450614338215471"><ele>52.0</ele><time>2026-04-18T09:59:44.999Z</time></trkpt><trkpt lat="45.10038753913421" lon="9.450629020654016"><ele>52.666666666666664</ele><time>2026-04-18T09:59:45.999Z</time></trkpt><trkpt lat="45.10019716053717" lon="9.450644284212714"><ele>53.33333333333333</ele><time>2026-04-18T09:59:46.999Z</time></trkpt><trkpt lat="45.099999028221305" lon="9.450658612805855"><ele>54.0</ele><time>2026-04-18T09:59:47.999Z</time></trkpt><trkpt lat="45.09979939648923" lon="9.450672569955145"><ele>54.33333333333333</ele><time>2026-04-18T09:59:48.999Z</time></trkpt><trkpt lat="45.09959734242171" lon="9.450687363162352"><ele>54.666666666666664</ele><time>2026-04-18T09:59:49.999Z</time></trkpt><trkpt lat="45.09939305989869" lon="9.450702960097924"><ele>55.0</ele><time>2026-04-18T09:59:51Z</time></trkpt><trkpt lat="45.09918727681354" lon="9.450717908270942"><ele>54.666666666666664</ele><time>2026-04-18T09:59:52Z</time></trkpt><trkpt lat="45.09898201909732" lon="9.450731709044767"><ele>54.33333333333333</ele><time>2026-04-18T09:59:53Z</time></trkpt><trkpt lat="45.098776368257084" lon="9.450745737420657"><ele>54.0</ele><time>2026-04-18T09:59:54Z</time></trkpt><trkpt lat="45.09858269537193" lon="9.450759244734757"><ele>54.0</ele><time>2026-04-18T09:59:55Z</time></trkpt><trkpt lat="45.09838747092223" lon="9.450773206267948"><ele>54.0</ele><time>2026-04-18T09:59:56Z</time></trkpt><trkpt lat="45.09819028693965" lon="9.45078844254599"><ele>54.0</ele><time>2026-04-18T09:59:57Z</time></trkpt><trkpt lat="45.097990560997374" lon="9.450804306899665"><ele>54.33333333333333</ele><time>2026-04-18T09:59:58Z</time></trkpt><trkpt lat="45.09779073909023" lon="9.450820012950516"><ele>54.666666666666664</ele><time>2026-04-18T09:59:59Z</time></trkpt><trkpt lat="45.09759095355254" lon="9.450836133130585"><ele>55.0</ele><time>2026-04-18T10:00:00Z</time></trkpt><trkpt lat="45.097394011169825" lon="9.450852539162847"><ele>55.33333333333333</ele><time>2026-04-18T10:00:01Z</time></trkpt><trkpt lat="45.09719759257048" lon="9.450867503846075"><ele>55.66666666666667</ele><time>2026-04-18T10:00:02Z</time></trkpt><trkpt lat="45.09700191371314" lon="9.450879730805562"><ele>56.0</ele><time>2026-04-18T10:00:03Z</time></trkpt><trkpt lat="45.096805598195374" lon="9.450893703236936"><ele>56.0</ele><time>2026-04-18T10:00:04Z</time></trkpt><trkpt lat="45.096611411627556" lon="9.450908604860894"><ele>56.0</ele><time>2026-04-18T10:00:05Z</time></trkpt><trkpt lat="45.096416493653365" lon="9.450924225545949"><ele>56.0</ele><time>2026-04-18T10:00:06Z</time></trkpt><trkpt lat="45.096219408260325" lon="9.450939553098578"><ele>54.0</ele><time>2026-04-18T10:00:07Z</time></trkpt><trkpt lat="45.09602136510055" lon="9.450954696681386"><ele>52.0</ele><time>2026-04-18T10:00:08.001Z</time></trkpt><trkpt lat="45.09582158549464" lon="9.450968125208085"><ele>50.0</ele><time>2026-04-18T10:00:09.001Z</time></trkpt><trkpt lat="45.09562225202544" lon="9.450980939041456"><ele>48.333333333333336</ele><time>2026-04-18T10:00:10.001Z</time></trkpt><trkpt lat="45.09542069357141" lon="9.450993511669166"><ele>46.66666666666667</ele><time>2026-04-18T10:00:11.001Z</time></trkpt><trkpt lat="45.095220275793494" lon="9.45100843394267"><ele>45.0</ele><time>2026-04-18T10:00:12.001Z</time></trkpt><trkpt lat="45.09501849155228" lon="9.45102280242193"><ele>45.0</ele><time>2026-04-18T10:00:13.001Z</time></trkpt><trkpt lat="45.09481691788451" lon="9.451036473210934"><ele>45.0</ele><time>2026-04-18T10:00:14.001Z</time></trkpt><trkpt lat="45.094621383635975" lon="9.451050391743824"><ele>45.0</ele><time>2026-04-18T10:00:15.001Z</time></trkpt><trkpt lat="45.094425971500215" lon="9.451063412555687"><ele>45.0</ele><time>2026-04-18T10:00:16.001Z</time></trkpt><trkpt lat="45.09423116376276" lon="9.45107701859884"><ele>45.0</ele><time>2026-04-18T10:00:17.001Z</time></trkpt><trkpt lat="45.094035093314304" lon="9.451090437944098"><ele>45.0</ele><time>2026-04-18T10:00:18.001Z</time></trkpt><trkpt lat="45.093841113234596" lon="9.451103977831139"><ele>45.0</ele><time>2026-04-18T10:00:19.001Z</time></trkpt><trkpt lat="45.093645646391046" lon="9.451117121547442"><ele>45.0</ele><time>2026-04-18T10:00:20.001Z</time></trkpt><trkpt lat="45.09345088165514" lon="9.451131708707706"><ele>45.0</ele><time>2026-04-18T10:00:21.001Z</time></trkpt><trkpt lat="45.09325725418805" lon="9.451148384517131"><ele>46.66666666666667</ele><time>2026-04-18T10:00:22.001Z</time></trkpt><trkpt lat="45.09306406881406" lon="9.451163833628401"><ele>48.333333333333336</ele><time>2026-04-18T10:00:23.001Z</time></trkpt><trkpt lat="45.09286979575884" lon="9.451178900428866"><ele>50.0</ele><time>2026-04-18T10:00:24.001Z</time></trkpt><trkpt lat="45.09267532442545" lon="9.451192488961107"><ele>50.0</ele><time>2026-04-18T10:00:25.001Z</time></trkpt><trkpt lat="45.09248022533131" lon="9.451206137337541"><ele>50.0</ele><time>2026-04-18T10:00:26.001Z</time></trkpt><trkpt lat="45.09228507600472" lon="9.451221888943056"><ele>50.0</ele><time>2026-04-18T10:00:27.001Z</time></trkpt><trkpt lat="45.092087070129836" lon="9.45123707489658"><ele>51.333333333333336</ele><time>2026-04-18T10:00:28.001Z</time></trkpt><trkpt lat="45.09189044234577" lon="9.451250780624072"><ele>52.66666666666667</ele><time>2026-04-18T10:00:29.001Z</time></trkpt><trkpt lat="45.09169459569714" lon="9.451262905620172"><ele>54.0</ele><time>2026-04-18T10:00:30.001Z</time></trkpt><trkpt lat="45.09150995746018" lon="9.451273828203517"><ele>54.0</ele><time>2026-04-18T10:00:31.001Z</time></trkpt><trkpt lat="45.09133246209258" lon="9.451285541734178"><ele>54.0</ele><time>2026-04-18T10:00:32.001Z</time></trkpt><trkpt lat="45.0911567070779" lon="9.451298125970519"><ele>54.0</ele><time>2026-04-18T10:00:33.001Z</time></trkpt><trkpt lat="45.09099303478009" lon="9.451309458251524"><ele>54.33333333333333</ele><time>2026-04-18T10:00:34.001Z</time></trkpt><trkpt lat="45.09083619063553" lon="9.451319828831355"><ele>54.666666666666664</ele><time>2026-04-18T10:00:35.002Z</time></trkpt><trkpt lat="45.09068152480672" lon="9.451330691834784"><ele>55.0</ele><time>2026-04-18T10:00:36.002Z</time></trkpt><trkpt lat="45.09052712038658" lon="9.45134199325429"><ele>54.33333333333333</ele><time>2026-04-18T10:00:37.002Z</time></trkpt><trkpt lat="45.090371324577546" lon="9.451354255329795"><ele>53.66666666666667</ele><time>2026-04-18T10:00:38.002Z</time></trkpt><trkpt lat="45.0902152961594" lon="9.451360741879073"><ele>53.0</ele><time>2026-04-18T10:00:39.002Z</time></trkpt><trkpt lat="45.09006952093798" lon="9.451370675097396"><ele>53.0</ele><time>2026-04-18T10:00:40.002Z</time></trkpt><trkpt lat="45.0899311914581" lon="9.45138090977568"><ele>53.0</ele><time>2026-04-18T10:00:41.002Z</time></trkpt><trkpt lat="45.08979799732403" lon="9.451391006313118"><ele>53.0</ele><time>2026-04-18T10:00:42.002Z</time></trkpt><trkpt lat="45.08966246940639" lon="9.451396190826895"><ele>53.0</ele><time>2026-04-18T10:00:43.002Z</time></trkpt><trkpt lat="45.089523284561714" lon="9.451399518782067"><ele>53.0</ele><time>2026-04-18T10:00:44.002Z</time></trkpt><trkpt lat="45.08937989387565" lon="9.451400875913436"><ele>53.0</ele><time>2026-04-18T10:00:45.002Z</time></trkpt><trkpt lat="45.08923710511387" lon="9.451395131702132"><ele>53.0</ele><time>2026-04-18T10:00:46.002Z</time></trkpt><trkpt lat="45.08909536142799" lon="9.451388188853647"><ele>53.0</ele><time>2026-04-18T10:00:47.002Z</time></trkpt><trkpt lat="45.08895049282006" lon="9.451376773803599"><ele>53.333333333333336</ele><time>2026-04-18T10:00:48.002Z</time></trkpt><trkpt lat="45.08880523348374" lon="9.451361945699118"><ele>53.66666666666667</ele><time>2026-04-18T10:00:49.002Z</time></trkpt><trkpt lat="45.08865525745095" lon="9.45134602866098"><ele>54.0</ele><time>2026-04-18T10:00:50.002Z</time></trkpt><trkpt lat="45.08850142873136" lon="9.451330557231051"><ele>54.0</ele><time>2026-04-18T10:00:51.002Z</time></trkpt><trkpt lat="45.08834826373533" lon="9.451315854371602"><ele>54.0</ele><time>2026-04-18T10:00:52.002Z</time></trkpt><trkpt lat="45.08819170015754" lon="9.451297934627336"><ele>54.0</ele><time>2026-04-18T10:00:53.002Z</time></trkpt><trkpt lat="45.088033397538254" lon="9.45128054739575"><ele>53.33333333333333</ele><time>2026-04-18T10:00:54.002Z</time></trkpt><trkpt lat="45.087874395067615" lon="9.451266016797"><ele>52.666666666666664</ele><time>2026-04-18T10:00:55.002Z</time></trkpt><trkpt lat="45.087719844360116" lon="9.451251407317516"><ele>52.0</ele><time>2026-04-18T10:00:56.002Z</time></trkpt><trkpt lat="45.087567842463145" lon="9.45123104882936"><ele>52.25</ele><time>2026-04-18T10:00:57.002Z</time></trkpt><trkpt lat="45.087421612877435" lon="9.45121168841828"><ele>52.5</ele><time>2026-04-18T10:00:58.002Z</time></trkpt><trkpt lat="45.08729437652028" lon="9.451194801508617"><ele>52.75</ele><time>2026-04-18T10:00:59.002Z</time></trkpt><trkpt lat="45.08718736564558" lon="9.451177853627893"><ele>53.0</ele><time>2026-04-18T10:01:00.002Z</time></trkpt><trkpt lat="45.08708647252898" lon="9.451162472606894"><ele>53.0</ele><time>2026-04-18T10:01:01.002Z</time></trkpt><trkpt lat="45.08700634045178" lon="9.451148735220055"><ele>53.0</ele><time>2026-04-18T10:01:02.002Z</time></trkpt><trkpt lat="45.0869066693337" lon="9.45113140617918"><ele>53.0</ele><time>2026-04-18T10:01:04.002Z</time></trkpt><trkpt lat="45.08683075981909" lon="9.451105411292588"><ele>53.0</ele><time>2026-04-18T10:01:13.003Z</time></trkpt><trkpt lat="45.0868426551818" lon="9.45139881633648"><ele>52.8</ele><time>2026-04-18T10:01:16.003Z</time></trkpt><trkpt lat="45.08683516048319" lon="9.451488404975109"><ele>52.599999999999994</ele><time>2026-04-18T10:01:17.003Z</time></trkpt><trkpt lat="45.08684253455961" lon="9.451597412323036"><ele>52.400000000000006</ele><time>2026-04-18T10:01:18.003Z</time></trkpt><trkpt lat="45.08685843336533" lon="9.451737423956041"><ele>52.2</ele><time>2026-04-18T10:01:19.003Z</time></trkpt><trkpt lat="45.08687468721654" lon="9.45189314950825"><ele>52.0</ele><time>2026-04-18T10:01:20.003Z</time></trkpt><trkpt lat="45.086891890739366" lon="9.452036368118003"><ele>51.75</ele><time>2026-04-18T10:01:21.003Z</time></trkpt><trkpt lat="45.08691843520993" lon="9.45219696992845"><ele>51.5</ele><time>2026-04-18T10:01:22.003Z</time></trkpt><trkpt lat="45.086946793454466" lon="9.452366985972848"><ele>51.25</ele><time>2026-04-18T10:01:23.003Z</time></trkpt><trkpt lat="45.08697958033045" lon="9.452551365625183"><ele>51.0</ele><time>2026-04-18T10:01:24.003Z</time></trkpt><trkpt lat="45.08701200484008" lon="9.4527487446333"><ele>51.0</ele><time>2026-04-18T10:01:25.003Z</time></trkpt><trkpt lat="45.08704443887898" lon="9.452951222482644"><ele>51.0</ele><time>2026-04-18T10:01:26.003Z</time></trkpt><trkpt lat="45.087075669021274" lon="9.45313707977842"><ele>51.0</ele><time>2026-04-18T10:01:27.003Z</time></trkpt><trkpt lat="45.087108525821655" lon="9.453333641442413"><ele>51.0</ele><time>2026-04-18T10:01:28.003Z</time></trkpt><trkpt lat="45.08713811258032" lon="9.453535313820616"><ele>51.25</ele><time>2026-04-18T10:01:29.003Z</time></trkpt><trkpt lat="45.08717141521461" lon="9.453742901988807"><ele>51.5</ele><time>2026-04-18T10:01:30.003Z</time></trkpt><trkpt lat="45.08720180621258" lon="9.453951624773735"><ele>51.75</ele><time>2026-04-18T10:01:31.003Z</time></trkpt><trkpt lat="45.08723039725575" lon="9.454150099014564"><ele>52.0</ele><time>2026-04-18T10:01:32.003Z</time></trkpt><trkpt lat="45.08725470588988" lon="9.4543322072206"><ele>52.2</ele><time>2026-04-18T10:01:33.003Z</time></trkpt><trkpt lat="45.0872794571892" lon="9.45449700011562"><ele>52.400000000000006</ele><time>2026-04-18T10:01:33.998Z</time></trkpt><trkpt lat="45.087312729900574" lon="9.454648770060297"><ele>52.599999999999994</ele><time>2026-04-18T10:01:34.998Z</time></trkpt><trkpt lat="45.087366660483994" lon="9.45477875646534"><ele>52.8</ele><time>2026-04-18T10:01:35.998Z</time></trkpt><trkpt lat="45.08744389370299" lon="9.454889385963819"><ele>53.0</ele><time>2026-04-18T10:01:36.998Z</time></trkpt><trkpt lat="45.08754497339317" lon="9.454986352356606"><ele>52.5</ele><time>2026-04-18T10:01:37.998Z</time></trkpt><trkpt lat="45.087667636204394" lon="9.45506086502302"><ele>52.0</ele><time>2026-04-18T10:01:38.998Z</time></trkpt><trkpt lat="45.0878032618657" lon="9.45512487609476"><ele>51.5</ele><time>2026-04-18T10:01:39.998Z</time></trkpt><trkpt lat="45.087960290062995" lon="9.455183085428608"><ele>51.0</ele><time>2026-04-18T10:01:40.999Z</time></trkpt><trkpt lat="45.08812026403172" lon="9.455248489567424"><ele>51.66666666666667</ele><time>2026-04-18T10:01:41.999Z</time></trkpt><trkpt lat="45.088273280955214" lon="9.45532220319394"><ele>52.333333333333336</ele><time>2026-04-18T10:01:42.999Z</time></trkpt><trkpt lat="45.088425262939296" lon="9.455388104659878"><ele>53.0</ele><time>2026-04-18T10:01:43.999Z</time></trkpt><trkpt lat="45.08858294123117" lon="9.455451803244708"><ele>52.66666666666667</ele><time>2026-04-18T10:01:44.999Z</time></trkpt><trkpt lat="45.08874398122316" lon="9.455513689342322"><ele>52.33333333333333</ele><time>2026-04-18T10:01:45.999Z</time></trkpt><trkpt lat="45.08890247409672" lon="9.455577232471814"><ele>52.0</ele><time>2026-04-18T10:01:46.999Z</time></trkpt><trkpt lat="45.0890529454669" lon="9.455636651462154"><ele>52.25</ele><time>2026-04-18T10:01:47.999Z</time></trkpt><trkpt lat="45.08919811326393" lon="9.455700522266397"><ele>52.5</ele><time>2026-04-18T10:01:48.999Z</time></trkpt><trkpt lat="45.089337628450984" lon="9.455760789233523"><ele>52.75</ele><time>2026-04-18T10:01:49.999Z</time></trkpt><trkpt lat="45.089466992270985" lon="9.455825229485026"><ele>53.0</ele><time>2026-04-18T10:01:50.999Z</time></trkpt><trkpt lat="45.089577851230786" lon="9.455895501788204"><ele>53.0</ele><time>2026-04-18T10:01:51.999Z</time></trkpt><trkpt lat="45.08967135673238" lon="9.455989739220382"><ele>53.0</ele><time>2026-04-18T10:01:52.999Z</time></trkpt><trkpt lat="45.08973609540308" lon="9.456117932690876"><ele>53.0</ele><time>2026-04-18T10:01:53.999Z</time></trkpt><trkpt lat="45.08978384894106" lon="9.456279327020514"><ele>53.0</ele><time>2026-04-18T10:01:55Z</time></trkpt><trkpt lat="45.08981452763272" lon="9.456463934026296"><ele>52.66666666666667</ele><time>2026-04-18T10:01:56Z</time></trkpt><trkpt lat="45.089837948076365" lon="9.45666439577573"><ele>52.33333333333333</ele><time>2026-04-18T10:01:57Z</time></trkpt><trkpt lat="45.08986613324148" lon="9.456877931830517"><ele>52.0</ele><time>2026-04-18T10:01:58Z</time></trkpt><trkpt lat="45.089896939240326" lon="9.457097825841268"><ele>52.0</ele><time>2026-04-18T10:01:59Z</time></trkpt><trkpt lat="45.089925392227165" lon="9.457323140739097"><ele>52.0</ele><time>2026-04-18T10:02:00Z</time></trkpt><trkpt lat="45.08994971694073" lon="9.457517157977914"><ele>52.0</ele><time>2026-04-18T10:02:01Z</time></trkpt><trkpt lat="45.08997954351366" lon="9.457751934198981"><ele>52.0</ele><time>2026-04-18T10:02:02Z</time></trkpt><trkpt lat="45.09000030545179" lon="9.457952601425465"><ele>52.0</ele><time>2026-04-18T10:02:03Z</time></trkpt><trkpt lat="45.09003648493781" lon="9.458069442696068"><ele>52.0</ele><time>2026-04-18T10:02:04Z</time></trkpt><trkpt lat="45.0900642572198" lon="9.458282490488658"><ele>52.0</ele><time>2026-04-18T10:02:05Z</time></trkpt><trkpt lat="45.09009117893701" lon="9.458498791624676"><ele>52.0</ele><time>2026-04-18T10:02:06Z</time></trkpt><trkpt lat="45.09010848965927" lon="9.45873257066857"><ele>52.0</ele><time>2026-04-18T10:02:07Z</time></trkpt><trkpt lat="45.09011725023732" lon="9.458979756965844"><ele>52.0</ele><time>2026-04-18T10:02:08Z</time></trkpt><trkpt lat="45.09012245215482" lon="9.459229342454831"><ele>52.0</ele><time>2026-04-18T10:02:09Z</time></trkpt><trkpt lat="45.09012930559275" lon="9.45948690038916"><ele>52.0</ele><time>2026-04-18T10:02:10Z</time></trkpt><trkpt lat="45.09013751104787" lon="9.459744575366475"><ele>52.0</ele><time>2026-04-18T10:02:11Z</time></trkpt><trkpt lat="45.090150697513494" lon="9.460007372795708"><ele>52.0</ele><time>2026-04-18T10:02:12Z</time></trkpt><trkpt lat="45.090161946673234" lon="9.46027046846401"><ele>52.0</ele><time>2026-04-18T10:02:13Z</time></trkpt><trkpt lat="45.09017248827064" lon="9.460538365477442"><ele>52.0</ele><time>2026-04-18T10:02:14.001Z</time></trkpt><trkpt lat="45.09018950583863" lon="9.46078190253403"><ele>52.0</ele><time>2026-04-18T10:02:15.001Z</time></trkpt><trkpt lat="45.09021262081855" lon="9.461033928263793"><ele>52.0</ele><time>2026-04-18T10:02:16.001Z</time></trkpt><trkpt lat="45.09023818131527" lon="9.46129852226645"><ele>52.0</ele><time>2026-04-18T10:02:17.001Z</time></trkpt><trkpt lat="45.09026448163516" lon="9.461580849563077"><ele>52.0</ele><time>2026-04-18T10:02:18.001Z</time></trkpt><trkpt lat="45.09029029457112" lon="9.461883942330147"><ele>52.0</ele><time>2026-04-18T10:02:19.001Z</time></trkpt><trkpt lat="45.090323045745485" lon="9.46220789122405"><ele>52.0</ele><time>2026-04-18T10:02:20.001Z</time></trkpt><trkpt lat="45.090358968062404" lon="9.462557071482683"><ele>51.0</ele><time>2026-04-18T10:02:21.001Z</time></trkpt><trkpt lat="45.09039697118755" lon="9.462920254860897"><ele>50.0</ele><time>2026-04-18T10:02:22.001Z</time></trkpt><trkpt lat="45.09043569694999" lon="9.463299218639046"><ele>50.0</ele><time>2026-04-18T10:02:23.001Z</time></trkpt><trkpt lat="45.090477111422565" lon="9.46369415372375"><ele>50.0</ele><time>2026-04-18T10:02:24.001Z</time></trkpt><trkpt lat="45.09051354941432" lon="9.464096918502499"><ele>50.0</ele><time>2026-04-18T10:02:25.001Z</time></trkpt><trkpt lat="45.09055348351887" lon="9.464517216117082"><ele>50.0</ele><time>2026-04-18T10:02:26.001Z</time></trkpt><trkpt lat="45.09059736323336" lon="9.464966681966251"><ele>50.0</ele><time>2026-04-18T10:02:27.001Z</time></trkpt><trkpt lat="45.090643245112794" lon="9.465373786999653"><ele>50.0</ele><time>2026-04-18T10:02:28.001Z</time></trkpt><trkpt lat="45.09067330870627" lon="9.465743883865397"><ele>49.66666666666667</ele><time>2026-04-18T10:02:29.001Z</time></trkpt><trkpt lat="45.09069678584757" lon="9.466043541494159"><ele>49.33333333333333</ele><time>2026-04-18T10:02:30.001Z</time></trkpt><trkpt lat="45.09071964493964" lon="9.466295181270116"><ele>49.0</ele><time>2026-04-18T10:02:31.001Z</time></trkpt><trkpt lat="45.09073683988717" lon="9.466502617366512"><ele>49.0</ele><time>2026-04-18T10:02:32.001Z</time></trkpt><trkpt lat="45.09075261975578" lon="9.466675313690676"><ele>49.0</ele><time>2026-04-18T10:02:33.001Z</time></trkpt><trkpt lat="45.09076445685386" lon="9.466803849977822"><ele>49.0</ele><time>2026-04-18T10:02:34.001Z</time></trkpt><trkpt lat="45.09077056619622" lon="9.466894002238778"><ele>49.0</ele><time>2026-04-18T10:02:35.001Z</time></trkpt><trkpt lat="45.09078409120028" lon="9.467052592000405"><ele>49.0</ele><time>2026-04-18T10:02:37.001Z</time></trkpt><trkpt lat="45.090800591825825" lon="9.46717285075705"><ele>49.25</ele><time>2026-04-18T10:02:38.001Z</time></trkpt><trkpt lat="45.09081513984809" lon="9.467314007700345"><ele>49.5</ele><time>2026-04-18T10:02:39.001Z</time></trkpt><trkpt lat="45.09083161585082" lon="9.467495876348874"><ele>49.75</ele><time>2026-04-18T10:02:40.001Z</time></trkpt><trkpt lat="45.09085265113523" lon="9.467701715892916"><ele>50.0</ele><time>2026-04-18T10:02:41.001Z</time></trkpt><trkpt lat="45.09087400577012" lon="9.467913382607591"><ele>50.333333333333336</ele><time>2026-04-18T10:02:42.002Z</time></trkpt><trkpt lat="45.09089422079636" lon="9.468131865265581"><ele>50.66666666666667</ele><time>2026-04-18T10:02:43.002Z</time></trkpt><trkpt lat="45.090917091250155" lon="9.468366039321554"><ele>51.0</ele><time>2026-04-18T10:02:44.002Z</time></trkpt><trkpt lat="45.090940225714704" lon="9.46861978796016"><ele>51.0</ele><time>2026-04-18T10:02:45.002Z</time></trkpt><trkpt lat="45.09096714114915" lon="9.468889166856167"><ele>51.0</ele><time>2026-04-18T10:02:46.002Z</time></trkpt><trkpt lat="45.09099419799028" lon="9.469143476380975"><ele>51.0</ele><time>2026-04-18T10:02:47.002Z</time></trkpt><trkpt lat="45.09102041641261" lon="9.469392326689448"><ele>51.0</ele><time>2026-04-18T10:02:48.002Z</time></trkpt><trkpt lat="45.091044809145004" lon="9.469650911793577"><ele>51.0</ele><time>2026-04-18T10:02:49.002Z</time></trkpt><trkpt lat="45.091067718347716" lon="9.469921117531355"><ele>51.0</ele><time>2026-04-18T10:02:50.002Z</time></trkpt><trkpt lat="45.09109533864145" lon="9.470205111029363"><ele>51.0</ele><time>2026-04-18T10:02:51.002Z</time></trkpt><trkpt lat="45.09112388593673" lon="9.470481082181763"><ele>51.0</ele><time>2026-04-18T10:02:52.002Z</time></trkpt><trkpt lat="45.09114405996205" lon="9.470729399523306"><ele>51.0</ele><time>2026-04-18T10:02:53.002Z</time></trkpt><trkpt lat="45.091166452675594" lon="9.47095053925456"><ele>51.0</ele><time>2026-04-18T10:02:54.002Z</time></trkpt><trkpt lat="45.091184926571536" lon="9.471136482458343"><ele>51.0</ele><time>2026-04-18T10:02:55.002Z</time></trkpt><trkpt lat="45.09120545398866" lon="9.471288130470937"><ele>51.0</ele><time>2026-04-18T10:02:56.002Z</time></trkpt><trkpt lat="45.09123771781047" lon="9.47142065848703"><ele>51.0</ele><time>2026-04-18T10:02:57.002Z</time></trkpt><trkpt lat="45.091273914794165" lon="9.471537376944967"><ele>51.0</ele><time>2026-04-18T10:02:58.002Z</time></trkpt><trkpt lat="45.09130181532962" lon="9.47164630954398"><ele>50.714285714285715</ele><time>2026-04-18T10:02:59.002Z</time></trkpt><trkpt lat="45.09131923289883" lon="9.471744008436"><ele>50.42857142857143</ele><time>2026-04-18T10:03:00.002Z</time></trkpt><trkpt lat="45.091327957826834" lon="9.471839492007614"><ele>50.14285714285714</ele><time>2026-04-18T10:03:01.002Z</time></trkpt><trkpt lat="45.09134178163875" lon="9.471942052071514"><ele>49.85714285714286</ele><time>2026-04-18T10:03:02.002Z</time></trkpt><trkpt lat="45.09135870510576" lon="9.472031314925637"><ele>49.57142857142857</ele><time>2026-04-18T10:03:03.002Z</time></trkpt><trkpt lat="45.091396453431614" lon="9.472158212960199"><ele>49.285714285714285</ele><time>2026-04-18T10:03:05.002Z</time></trkpt><trkpt lat="45.091433845147755" lon="9.472248208849436"><ele>49.0</ele><time>2026-04-18T10:03:08.002Z</time></trkpt><trkpt lat="45.091480872088354" lon="9.472372045394074"><ele>48.800000000000004</ele><time>2026-04-18T10:03:18.003Z</time></trkpt><trkpt lat="45.091507488648105" lon="9.472490131557501"><ele>48.6</ele><time>2026-04-18T10:03:20.003Z</time></trkpt><trkpt lat="45.09153570029179" lon="9.472609029873567"><ele>48.4</ele><time>2026-04-18T10:03:23.003Z</time></trkpt><trkpt lat="45.09156066714799" lon="9.472711763437516"><ele>48.2</ele><time>2026-04-18T10:03:26.003Z</time></trkpt><trkpt lat="45.091549436099974" lon="9.47260452744339"><ele>48.0</ele><time>2026-04-18T10:03:49.999Z</time></trkpt><trkpt lat="45.091376156655386" lon="9.472466049374678"><ele>48.0</ele><time>2026-04-18T10:03:51.999Z</time></trkpt><trkpt lat="45.09136321281788" lon="9.472333985337254"><ele>48.0</ele><time>2026-04-18T10:03:53.999Z</time></trkpt><trkpt lat="45.09135046128649" lon="9.472203883939654"><ele>48.0</ele><time>2026-04-18T10:03:55.999Z</time></trkpt><trkpt lat="45.09134064452921" lon="9.4721037253209"><ele>48.0</ele><time>2026-04-18T10:03:57.999Z</time></trkpt><trkpt lat="45.09132764699924" lon="9.471966589549115"><ele>48.0</ele><time>2026-04-18T10:04:00Z</time></trkpt><trkpt lat="45.09131923349044" lon="9.471878112469668"><ele>48.0</ele><time>2026-04-18T10:04:01Z</time></trkpt><trkpt lat="45.091310227799035" lon="9.471783407850268"><ele>48.0</ele><time>2026-04-18T10:04:02Z</time></trkpt><trkpt lat="45.0912966596549" lon="9.471640724151156"><ele>48.0</ele><time>2026-04-18T10:04:04Z</time></trkpt><trkpt lat="45.09128807340433" lon="9.471743008134634"><ele>48.0</ele><time>2026-04-18T10:04:13Z</time></trkpt><trkpt lat="45.0912565480073" lon="9.471880610917605"><ele>48.0</ele><time>2026-04-18T10:04:14Z</time></trkpt><trkpt lat="45.09128880753864" lon="9.472006898251268"><ele>48.0</ele><time>2026-04-18T10:04:15Z</time></trkpt><trkpt lat="45.09130236698862" lon="9.472150709997027"><ele>48.0</ele><time>2026-04-18T10:04:16Z</time></trkpt><trkpt lat="45.09131432282834" lon="9.472324227840732"><ele>48.0</ele><time>2026-04-18T10:04:17Z</time></trkpt><trkpt lat="45.09133135455477" lon="9.472515136085148"><ele>48.0</ele><time>2026-04-18T10:04:18Z</time></trkpt><trkpt lat="45.09135028020137" lon="9.472701690389552"><ele>48.0</ele><time>2026-04-18T10:04:19.001Z</time></trkpt><trkpt lat="45.09136749903199" lon="9.472912677895968"><ele>48.66666666666667</ele><time>2026-04-18T10:04:20.001Z</time></trkpt><trkpt lat="45.091390584194" lon="9.473144643076933"><ele>49.333333333333336</ele><time>2026-04-18T10:04:21.001Z</time></trkpt><trkpt lat="45.091415257203046" lon="9.473387107546511"><ele>50.0</ele><time>2026-04-18T10:04:22.001Z</time></trkpt><trkpt lat="45.091438072876905" lon="9.473623560337142"><ele>50.0</ele><time>2026-04-18T10:04:23.001Z</time></trkpt><trkpt lat="45.091459345257334" lon="9.473864968268341"><ele>50.0</ele><time>2026-04-18T10:04:24.001Z</time></trkpt><trkpt lat="45.09148401433261" lon="9.47411646514178"><ele>50.0</ele><time>2026-04-18T10:04:25.001Z</time></trkpt><trkpt lat="45.09151006012781" lon="9.474378034062978"><ele>50.0</ele><time>2026-04-18T10:04:26.001Z</time></trkpt><trkpt lat="45.091536210029005" lon="9.4746468108559"><ele>50.0</ele><time>2026-04-18T10:04:27.001Z</time></trkpt><trkpt lat="45.091563018307376" lon="9.474913696394463"><ele>50.0</ele><time>2026-04-18T10:04:28.001Z</time></trkpt><trkpt lat="45.09158697147622" lon="9.475174733700664"><ele>50.0</ele><time>2026-04-18T10:04:29.001Z</time></trkpt><trkpt lat="45.09160854312482" lon="9.475411305459987"><ele>50.0</ele><time>2026-04-18T10:04:30.001Z</time></trkpt><trkpt lat="45.09163251493965" lon="9.47565453012221"><ele>50.0</ele><time>2026-04-18T10:04:31.001Z</time></trkpt><trkpt lat="45.09165485998289" lon="9.475902094488285"><ele>50.333333333333336</ele><time>2026-04-18T10:04:32.001Z</time></trkpt><trkpt lat="45.09167788114082" lon="9.476151202187502"><ele>50.66666666666667</ele><time>2026-04-18T10:04:33.001Z</time></trkpt><trkpt lat="45.09170296423172" lon="9.476416267343263"><ele>51.0</ele><time>2026-04-18T10:04:34.001Z</time></trkpt><trkpt lat="45.09172728171101" lon="9.476678855152318"><ele>51.0</ele><time>2026-04-18T10:04:35.001Z</time></trkpt><trkpt lat="45.09175381954178" lon="9.476951360307876"><ele>51.0</ele><time>2026-04-18T10:04:36.001Z</time></trkpt><trkpt lat="45.09178277701842" lon="9.47722634365827"><ele>51.0</ele><time>2026-04-18T10:04:37.001Z</time></trkpt><trkpt lat="45.09180824402935" lon="9.477499691815844"><ele>51.0</ele><time>2026-04-18T10:04:38.001Z</time></trkpt><trkpt lat="45.09183931765537" lon="9.477763833528686"><ele>51.0</ele><time>2026-04-18T10:04:39.001Z</time></trkpt><trkpt lat="45.091864941454844" lon="9.478019638172313"><ele>51.0</ele><time>2026-04-18T10:04:40.001Z</time></trkpt><trkpt lat="45.09188571212039" lon="9.478272462849993"><ele>51.33333333333333</ele><time>2026-04-18T10:04:41.001Z</time></trkpt><trkpt lat="45.09190937782173" lon="9.47852439165078"><ele>51.666666666666664</ele><time>2026-04-18T10:04:42.001Z</time></trkpt><trkpt lat="45.091935736604896" lon="9.478771950557745"><ele>52.0</ele><time>2026-04-18T10:04:43.001Z</time></trkpt><trkpt lat="45.09195967391888" lon="9.4789961405399"><ele>53.0</ele><time>2026-04-18T10:04:44.001Z</time></trkpt><trkpt lat="45.09198487119879" lon="9.47921546919484"><ele>54.0</ele><time>2026-04-18T10:04:45.001Z</time></trkpt><trkpt lat="45.092001028589124" lon="9.479428402811381"><ele>55.0</ele><time>2026-04-18T10:04:46.001Z</time></trkpt><trkpt lat="45.092018002343956" lon="9.479632370137416"><ele>55.0</ele><time>2026-04-18T10:04:47.002Z</time></trkpt><trkpt lat="45.09203815617781" lon="9.479833693611685"><ele>55.0</ele><time>2026-04-18T10:04:48.002Z</time></trkpt><trkpt lat="45.09205870350398" lon="9.480047193725552"><ele>55.0</ele><time>2026-04-18T10:04:49.002Z</time></trkpt><trkpt lat="45.0920794749907" lon="9.480265285622766"><ele>55.666666666666664</ele><time>2026-04-18T10:04:50.002Z</time></trkpt><trkpt lat="45.09210462145886" lon="9.480487514376836"><ele>56.33333333333333</ele><time>2026-04-18T10:04:51.002Z</time></trkpt><trkpt lat="45.092126053435734" lon="9.480719796930108"><ele>57.0</ele><time>2026-04-18T10:04:52.002Z</time></trkpt><trkpt lat="45.09214466980531" lon="9.48095091203289"><ele>57.0</ele><time>2026-04-18T10:04:53.002Z</time></trkpt><trkpt lat="45.092167513411034" lon="9.481184114689581"><ele>57.0</ele><time>2026-04-18T10:04:54.002Z</time></trkpt><trkpt lat="45.09219070336728" lon="9.481419060389571"><ele>57.0</ele><time>2026-04-18T10:04:55.002Z</time></trkpt><trkpt lat="45.09220964719035" lon="9.481643523871766"><ele>56.75</ele><time>2026-04-18T10:04:56.002Z</time></trkpt><trkpt lat="45.092228049813876" lon="9.48185643933566"><ele>56.5</ele><time>2026-04-18T10:04:57.002Z</time></trkpt><trkpt lat="45.092248396486525" lon="9.482062191097006"><ele>56.25</ele><time>2026-04-18T10:04:58.002Z</time></trkpt><trkpt lat="45.092266896675994" lon="9.482271278891437"><ele>56.0</ele><time>2026-04-18T10:04:59.002Z</time></trkpt><trkpt lat="45.092287270692374" lon="9.482480753081806"><ele>55.25</ele><time>2026-04-18T10:05:00.002Z</time></trkpt><trkpt lat="45.09230498698898" lon="9.482679903264476"><ele>54.5</ele><time>2026-04-18T10:05:01.002Z</time></trkpt><trkpt lat="45.09231394489374" lon="9.482876029386643"><ele>53.75</ele><time>2026-04-18T10:05:02.002Z</time></trkpt><trkpt lat="45.092305396014474" lon="9.483065735371174"><ele>53.0</ele><time>2026-04-18T10:05:03.002Z</time></trkpt><trkpt lat="45.09227219729079" lon="9.483259101814838"><ele>52.66666666666667</ele><time>2026-04-18T10:05:04.002Z</time></trkpt><trkpt lat="45.09221469089857" lon="9.483463765301238"><ele>52.33333333333333</ele><time>2026-04-18T10:05:05.002Z</time></trkpt><trkpt lat="45.09214285093689" lon="9.483676265948793"><ele>52.0</ele><time>2026-04-18T10:05:06.002Z</time></trkpt><trkpt lat="45.092069853065674" lon="9.48390040056441"><ele>52.0</ele><time>2026-04-18T10:05:07.002Z</time></trkpt><trkpt lat="45.09199715068775" lon="9.484130074496132"><ele>52.0</ele><time>2026-04-18T10:05:08.002Z</time></trkpt><trkpt lat="45.09192598231788" lon="9.484364727051231"><ele>52.0</ele><time>2026-04-18T10:05:09.002Z</time></trkpt><trkpt lat="45.091853653942906" lon="9.484603195414817"><ele>53.0</ele><time>2026-04-18T10:05:10.002Z</time></trkpt><trkpt lat="45.09177782183193" lon="9.484843391282551"><ele>54.0</ele><time>2026-04-18T10:05:11.002Z</time></trkpt><trkpt lat="45.091700817332374" lon="9.485087938748613"><ele>55.0</ele><time>2026-04-18T10:05:12.002Z</time></trkpt><trkpt lat="45.09163090947367" lon="9.485313261638419"><ele>54.0</ele><time>2026-04-18T10:05:13.002Z</time></trkpt><trkpt lat="45.0915666028012" lon="9.485515082015073"><ele>53.0</ele><time>2026-04-18T10:05:14.002Z</time></trkpt><trkpt lat="45.09149709148068" lon="9.48570541965618"><ele>52.0</ele><time>2026-04-18T10:05:15.002Z</time></trkpt><trkpt lat="45.09142894178527" lon="9.485866035845929"><ele>51.0</ele><time>2026-04-18T10:05:16.002Z</time></trkpt><trkpt lat="45.09135549440447" lon="9.486014863094137"><ele>51.0</ele><time>2026-04-18T10:05:17.002Z</time></trkpt><trkpt lat="45.0912791882602" lon="9.486157156159972"><ele>51.0</ele><time>2026-04-18T10:05:18.002Z</time></trkpt><trkpt lat="45.09119761415244" lon="9.486310964446648"><ele>51.0</ele><time>2026-04-18T10:05:19.002Z</time></trkpt><trkpt lat="45.09111405998872" lon="9.486469614704552"><ele>51.0</ele><time>2026-04-18T10:05:20.003Z</time></trkpt><trkpt lat="45.091024329271505" lon="9.486638289149555"><ele>51.0</ele><time>2026-04-18T10:05:21.003Z</time></trkpt><trkpt lat="45.09093062186804" lon="9.48681980092307"><ele>51.0</ele><time>2026-04-18T10:05:22.003Z</time></trkpt><trkpt lat="45.09083235595458" lon="9.487006710762138"><ele>51.0</ele><time>2026-04-18T10:05:23.003Z</time></trkpt><trkpt lat="45.09072973153309" lon="9.487208114715054"><ele>51.0</ele><time>2026-04-18T10:05:24.003Z</time></trkpt><trkpt lat="45.09062130920547" lon="9.487420338187109"><ele>51.0</ele><time>2026-04-18T10:05:25.003Z</time></trkpt><trkpt lat="45.090513030798306" lon="9.487622649112597"><ele>51.0</ele><time>2026-04-18T10:05:26.003Z</time></trkpt><trkpt lat="45.09041247568804" lon="9.487815663695093"><ele>50.33333333333333</ele><time>2026-04-18T10:05:27.003Z</time></trkpt><trkpt lat="45.0903208748114" lon="9.487995336655924"><ele>49.666666666666664</ele><time>2026-04-18T10:05:28.003Z</time></trkpt><trkpt lat="45.09022508937182" lon="9.488170308941644"><ele>49.0</ele><time>2026-04-18T10:05:29.003Z</time></trkpt><trkpt lat="45.09013741858975" lon="9.48832632473371"><ele>49.0</ele><time>2026-04-18T10:05:30.003Z</time></trkpt><trkpt lat="45.09005243229722" lon="9.488488382639423"><ele>49.0</ele><time>2026-04-18T10:05:31.003Z</time></trkpt><trkpt lat="45.08997333276834" lon="9.488650415210703"><ele>49.0</ele><time>2026-04-18T10:05:32.003Z</time></trkpt><trkpt lat="45.08989207349783" lon="9.48881893463961"><ele>49.0</ele><time>2026-04-18T10:05:33.003Z</time></trkpt><trkpt lat="45.089819464383545" lon="9.48897310637447"><ele>49.5</ele><time>2026-04-18T10:05:34.003Z</time></trkpt><trkpt lat="45.08973636053977" lon="9.489092447969297"><ele>50.0</ele><time>2026-04-18T10:05:35.003Z</time></trkpt><trkpt lat="45.089662482628384" lon="9.489226250264421"><ele>50.5</ele><time>2026-04-18T10:05:36.003Z</time></trkpt><trkpt lat="45.08958625212401" lon="9.489364313444295"><ele>51.0</ele><time>2026-04-18T10:05:37.003Z</time></trkpt><trkpt lat="45.08952079795146" lon="9.48951500580617"><ele>51.25</ele><time>2026-04-18T10:05:38.003Z</time></trkpt><trkpt lat="45.08943199052419" lon="9.489651788204151"><ele>51.5</ele><time>2026-04-18T10:05:39.003Z</time></trkpt><trkpt lat="45.08934404058163" lon="9.489809309919433"><ele>51.75</ele><time>2026-04-18T10:05:40.003Z</time></trkpt><trkpt lat="45.089259436074265" lon="9.489974114782951"><ele>52.0</ele><time>2026-04-18T10:05:41.003Z</time></trkpt><trkpt lat="45.089181119584644" lon="9.490158267411129"><ele>52.0</ele><time>2026-04-18T10:05:42.003Z</time></trkpt><trkpt lat="45.08910819103223" lon="9.49035831457824"><ele>52.0</ele><time>2026-04-18T10:05:43.003Z</time></trkpt><trkpt lat="45.08904474270445" lon="9.490568485157139"><ele>52.0</ele><time>2026-04-18T10:05:44.003Z</time></trkpt><trkpt lat="45.088976759687554" lon="9.490799466568967"><ele>51.666666666666664</ele><time>2026-04-18T10:05:45.003Z</time></trkpt><trkpt lat="45.0889042566183" lon="9.491029250768987"><ele>51.33333333333333</ele><time>2026-04-18T10:05:45.998Z</time></trkpt><trkpt lat="45.08882769152331" lon="9.491264766265896"><ele>51.0</ele><time>2026-04-18T10:05:46.998Z</time></trkpt><trkpt lat="45.088754906532586" lon="9.491496064107318"><ele>51.0</ele><time>2026-04-18T10:05:47.998Z</time></trkpt><trkpt lat="45.08868587961216" lon="9.491712597573931"><ele>51.0</ele><time>2026-04-18T10:05:48.998Z</time></trkpt><trkpt lat="45.088617199597195" lon="9.4919247868924"><ele>51.0</ele><time>2026-04-18T10:05:49.998Z</time></trkpt><trkpt lat="45.088546761927994" lon="9.49213601301622"><ele>50.66666666666667</ele><time>2026-04-18T10:05:50.998Z</time></trkpt><trkpt lat="45.08847793149864" lon="9.492339768321672"><ele>50.333333333333336</ele><time>2026-04-18T10:05:51.998Z</time></trkpt><trkpt lat="45.08841371442027" lon="9.492536735599678"><ele>50.0</ele><time>2026-04-18T10:05:52.999Z</time></trkpt><trkpt lat="45.08834370416679" lon="9.492742343648992"><ele>50.333333333333336</ele><time>2026-04-18T10:05:53.999Z</time></trkpt><trkpt lat="45.08826689279102" lon="9.492959893608873"><ele>50.66666666666667</ele><time>2026-04-18T10:05:54.999Z</time></trkpt><trkpt lat="45.08818013027908" lon="9.4931793488484"><ele>51.0</ele><time>2026-04-18T10:05:55.999Z</time></trkpt><trkpt lat="45.08807997605657" lon="9.493410393798131"><ele>51.0</ele><time>2026-04-18T10:05:56.999Z</time></trkpt><trkpt lat="45.08798473542181" lon="9.4936395836977"><ele>51.0</ele><time>2026-04-18T10:05:57.999Z</time></trkpt><trkpt lat="45.08788571222291" lon="9.493876876512639"><ele>51.0</ele><time>2026-04-18T10:05:58.999Z</time></trkpt><trkpt lat="45.0877830742915" lon="9.494122554723562"><ele>51.0</ele><time>2026-04-18T10:05:59.999Z</time></trkpt><trkpt lat="45.08767850117472" lon="9.494373789801434"><ele>51.0</ele><time>2026-04-18T10:06:00.999Z</time></trkpt><trkpt lat="45.08757809027483" lon="9.494619301284178"><ele>51.0</ele><time>2026-04-18T10:06:01.999Z</time></trkpt><trkpt lat="45.08748001842355" lon="9.494853428236272"><ele>51.33333333333333</ele><time>2026-04-18T10:06:02.999Z</time></trkpt><trkpt lat="45.08739068768111" lon="9.495064634445429"><ele>51.666666666666664</ele><time>2026-04-18T10:06:03.999Z</time></trkpt><trkpt lat="45.08731041023818" lon="9.495260035147504"><ele>52.0</ele><time>2026-04-18T10:06:04.999Z</time></trkpt><trkpt lat="45.08723901217883" lon="9.495443377849973"><ele>52.0</ele><time>2026-04-18T10:06:05.999Z</time></trkpt><trkpt lat="45.08717646249117" lon="9.495614162545953"><ele>52.0</ele><time>2026-04-18T10:06:07Z</time></trkpt><trkpt lat="45.08712388764332" lon="9.495782754880562"><ele>52.0</ele><time>2026-04-18T10:06:08Z</time></trkpt><trkpt lat="45.08708419098792" lon="9.495937977464306"><ele>52.0</ele><time>2026-04-18T10:06:09Z</time></trkpt><trkpt lat="45.087051022222234" lon="9.496084561641897"><ele>52.0</ele><time>2026-04-18T10:06:10Z</time></trkpt><trkpt lat="45.08701654000766" lon="9.49624299665483"><ele>52.0</ele><time>2026-04-18T10:06:11Z</time></trkpt><trkpt lat="45.08697112335689" lon="9.496420641258089"><ele>52.0</ele><time>2026-04-18T10:06:12Z</time></trkpt><trkpt lat="45.086926668873296" lon="9.496617237623411"><ele>52.0</ele><time>2026-04-18T10:06:13Z</time></trkpt><trkpt lat="45.08687975595448" lon="9.496810351655448"><ele>52.0</ele><time>2026-04-18T10:06:14Z</time></trkpt><trkpt lat="45.08683246869423" lon="9.496992205975705"><ele>52.0</ele><time>2026-04-18T10:06:15Z</time></trkpt><trkpt lat="45.0867897849365" lon="9.497183277493054"><ele>52.0</ele><time>2026-04-18T10:06:16Z</time></trkpt><trkpt lat="45.086751150481966" lon="9.497350848335579"><ele>52.0</ele><time>2026-04-18T10:06:17Z</time></trkpt><trkpt lat="45.08671380023791" lon="9.497500098558607"><ele>51.5</ele><time>2026-04-18T10:06:18Z</time></trkpt><trkpt lat="45.08667688886804" lon="9.497640612921982"><ele>51.0</ele><time>2026-04-18T10:06:19Z</time></trkpt><trkpt lat="45.08663328385229" lon="9.497793565770333"><ele>50.5</ele><time>2026-04-18T10:06:20Z</time></trkpt><trkpt lat="45.08659052675977" lon="9.497961476089086"><ele>50.0</ele><time>2026-04-18T10:06:21Z</time></trkpt><trkpt lat="45.08654726311711" lon="9.49812770754971"><ele>50.0</ele><time>2026-04-18T10:06:22Z</time></trkpt><trkpt lat="45.08651066734946" lon="9.498295015104382"><ele>50.0</ele><time>2026-04-18T10:06:23Z</time></trkpt><trkpt lat="45.08647273496328" lon="9.498471710552746"><ele>50.0</ele><time>2026-04-18T10:06:24Z</time></trkpt><trkpt lat="45.08642542645017" lon="9.498660043940447"><ele>50.0</ele><time>2026-04-18T10:06:25.001Z</time></trkpt><trkpt lat="45.08637832500629" lon="9.498857936596856"><ele>50.0</ele><time>2026-04-18T10:06:26.001Z</time></trkpt><trkpt lat="45.08633363776154" lon="9.499058508416365"><ele>50.0</ele><time>2026-04-18T10:06:27.001Z</time></trkpt><trkpt lat="45.086292228305226" lon="9.499250141437624"><ele>50.0</ele><time>2026-04-18T10:06:28.001Z</time></trkpt><trkpt lat="45.08625215546897" lon="9.499429343752444"><ele>50.0</ele><time>2026-04-18T10:06:29.001Z</time></trkpt><trkpt lat="45.08621273480483" lon="9.499604775769416"><ele>50.0</ele><time>2026-04-18T10:06:30.001Z</time></trkpt><trkpt lat="45.08618401627563" lon="9.499761954016321"><ele>50.0</ele><time>2026-04-18T10:06:31.001Z</time></trkpt><trkpt lat="45.08614552035277" lon="9.499941727373265"><ele>50.0</ele><time>2026-04-18T10:06:32.001Z</time></trkpt><trkpt lat="45.08610216233659" lon="9.50013474411481"><ele>50.0</ele><time>2026-04-18T10:06:33.001Z</time></trkpt><trkpt lat="45.08605963814033" lon="9.500316877210802"><ele>50.25</ele><time>2026-04-18T10:06:34.001Z</time></trkpt><trkpt lat="45.086019380790844" lon="9.50049353173186"><ele>50.5</ele><time>2026-04-18T10:06:35.001Z</time></trkpt><trkpt lat="45.085981496685804" lon="9.500663301015429"><ele>50.75</ele><time>2026-04-18T10:06:36.001Z</time></trkpt><trkpt lat="45.085940890909505" lon="9.500818662447024"><ele>51.0</ele><time>2026-04-18T10:06:37.001Z</time></trkpt><trkpt lat="45.08590410728176" lon="9.500963337743721"><ele>51.0</ele><time>2026-04-18T10:06:38.001Z</time></trkpt><trkpt lat="45.085874958551685" lon="9.50110468468592"><ele>51.0</ele><time>2026-04-18T10:06:39.001Z</time></trkpt><trkpt lat="45.0858452900538" lon="9.50126203919783"><ele>51.0</ele><time>2026-04-18T10:06:40.001Z</time></trkpt><trkpt lat="45.085803535310276" lon="9.501413700973506"><ele>51.0</ele><time>2026-04-18T10:06:41.001Z</time></trkpt><trkpt lat="45.085759206298206" lon="9.501568434378264"><ele>50.75</ele><time>2026-04-18T10:06:42.001Z</time></trkpt><trkpt lat="45.085722182760954" lon="9.501731015461477"><ele>50.5</ele><time>2026-04-18T10:06:43.001Z</time></trkpt><trkpt lat="45.085686349099795" lon="9.501900109516454"><ele>50.25</ele><time>2026-04-18T10:06:44.001Z</time></trkpt><trkpt lat="45.085649249502175" lon="9.502071783582934"><ele>50.0</ele><time>2026-04-18T10:06:45.001Z</time></trkpt><trkpt lat="45.08561132711799" lon="9.502240628046557"><ele>50.0</ele><time>2026-04-18T10:06:46.001Z</time></trkpt><trkpt lat="45.08556990768969" lon="9.502409293645131"><ele>50.0</ele><time>2026-04-18T10:06:47.001Z</time></trkpt><trkpt lat="45.08553393340616" lon="9.502577711413773"><ele>50.0</ele><time>2026-04-18T10:06:48.001Z</time></trkpt><trkpt lat="45.08550209823564" lon="9.502743091525856"><ele>50.0</ele><time>2026-04-18T10:06:49.001Z</time></trkpt><trkpt lat="45.085466243612004" lon="9.50290528323155"><ele>50.25</ele><time>2026-04-18T10:06:50.001Z</time></trkpt><trkpt lat="45.0854307175949" lon="9.503061951013112"><ele>50.5</ele><time>2026-04-18T10:06:51.001Z</time></trkpt><trkpt lat="45.08539738901017" lon="9.503225640462619"><ele>50.75</ele><time>2026-04-18T10:06:52.001Z</time></trkpt><trkpt lat="45.08536162238939" lon="9.503388143225923"><ele>51.0</ele><time>2026-04-18T10:06:53.002Z</time></trkpt><trkpt lat="45.085324502354055" lon="9.503551243711255"><ele>51.0</ele><time>2026-04-18T10:06:54.002Z</time></trkpt><trkpt lat="45.08529045885121" lon="9.503701687766368"><ele>51.0</ele><time>2026-04-18T10:06:55.002Z</time></trkpt><trkpt lat="45.085258341200735" lon="9.503837182937616"><ele>51.0</ele><time>2026-04-18T10:06:56.002Z</time></trkpt><trkpt lat="45.08522534023172" lon="9.503950634320493"><ele>51.0</ele><time>2026-04-18T10:06:57.002Z</time></trkpt><trkpt lat="45.08516916716356" lon="9.504046379340181"><ele>51.0</ele><time>2026-04-18T10:06:59.002Z</time></trkpt><trkpt lat="45.08508016531528" lon="9.504033080333771"><ele>51.199999999999996</ele><time>2026-04-18T10:07:01.002Z</time></trkpt><trkpt lat="45.08500904800339" lon="9.504009320437946"><ele>51.4</ele><time>2026-04-18T10:07:02.002Z</time></trkpt><trkpt lat="45.08492547900524" lon="9.503975997477921"><ele>51.6</ele><time>2026-04-18T10:07:03.002Z</time></trkpt><trkpt lat="45.08482850423265" lon="9.50393873732694"><ele>51.8</ele><time>2026-04-18T10:07:04.002Z</time></trkpt><trkpt lat="45.08472477355988" lon="9.503897520236942"><ele>52.0</ele><time>2026-04-18T10:07:05.002Z</time></trkpt><trkpt lat="45.08461330836092" lon="9.503865438490132"><ele>51.5</ele><time>2026-04-18T10:07:06.002Z</time></trkpt><trkpt lat="45.08449209654537" lon="9.503837401965951"><ele>51.0</ele><time>2026-04-18T10:07:07.002Z</time></trkpt><trkpt lat="45.08437589443638" lon="9.503812176279402"><ele>50.5</ele><time>2026-04-18T10:07:08.002Z</time></trkpt><trkpt lat="45.08426020168225" lon="9.503794690968109"><ele>50.0</ele><time>2026-04-18T10:07:09.002Z</time></trkpt><trkpt lat="45.08414866948531" lon="9.50377621989609"><ele>50.0</ele><time>2026-04-18T10:07:10.002Z</time></trkpt><trkpt lat="45.08404117922221" lon="9.503751415292022"><ele>50.0</ele><time>2026-04-18T10:07:11.002Z</time></trkpt><trkpt lat="45.08394336804324" lon="9.503722765610387"><ele>50.0</ele><time>2026-04-18T10:07:12.002Z</time></trkpt><trkpt lat="45.08386626800512" lon="9.503697919444525"><ele>50.0</ele><time>2026-04-18T10:07:13.002Z</time></trkpt><trkpt lat="45.0837578096978" lon="9.503661528225377"><ele>50.0</ele><time>2026-04-18T10:07:15.002Z</time></trkpt><trkpt lat="45.08366988133202" lon="9.503613320319221"><ele>50.333333333333336</ele><time>2026-04-18T10:07:17.002Z</time></trkpt><trkpt lat="45.083610885292096" lon="9.503581690179914"><ele>50.66666666666667</ele><time>2026-04-18T10:07:19.002Z</time></trkpt><trkpt lat="45.08354709961011" lon="9.503614259837022"><ele>51.0</ele><time>2026-04-18T10:07:23.002Z</time></trkpt><trkpt lat="45.083631418029825" lon="9.503651554015685"><ele>51.33333333333333</ele><time>2026-04-18T10:07:33.003Z</time></trkpt><trkpt lat="45.08371348037147" lon="9.50367214802129"><ele>51.666666666666664</ele><time>2026-04-18T10:07:34.003Z</time></trkpt><trkpt lat="45.08378786452782" lon="9.50368221489235"><ele>52.0</ele><time>2026-04-18T10:07:35.003Z</time></trkpt><trkpt lat="45.08391178762433" lon="9.503728337744336"><ele>51.666666666666664</ele><time>2026-04-18T10:07:37.003Z</time></trkpt><trkpt lat="45.08397922346889" lon="9.503749678551905"><ele>51.33333333333333</ele><time>2026-04-18T10:07:38.003Z</time></trkpt><trkpt lat="45.08403562837872" lon="9.503815096543818"><ele>51.0</ele><time>2026-04-18T10:07:39.003Z</time></trkpt><trkpt lat="45.084163383919304" lon="9.503830868714502"><ele>50.66666666666667</ele><time>2026-04-18T10:07:41.003Z</time></trkpt><trkpt lat="45.08422953120364" lon="9.503834174179248"><ele>50.333333333333336</ele><time>2026-04-18T10:07:42.003Z</time></trkpt><trkpt lat="45.084295128945485" lon="9.503843897603705"><ele>50.0</ele><time>2026-04-18T10:07:43.003Z</time></trkpt><trkpt lat="45.08435844230722" lon="9.50385938056773"><ele>50.00000000000001</ele><time>2026-04-18T10:07:44.003Z</time></trkpt><trkpt lat="45.084421180570956" lon="9.503876180508673"><ele>50.0</ele><time>2026-04-18T10:07:45.003Z</time></trkpt><trkpt lat="45.08448684035297" lon="9.503894880907078"><ele>50.0</ele><time>2026-04-18T10:07:46.003Z</time></trkpt><trkpt lat="45.08455448622457" lon="9.503914420505055"><ele>50.0</ele><time>2026-04-18T10:07:47.003Z</time></trkpt><trkpt lat="45.084624580442494" lon="9.503934667322293"><ele>50.0</ele><time>2026-04-18T10:07:48.003Z</time></trkpt><trkpt lat="45.08469570658838" lon="9.50395538368031"><ele>50.00000000000001</ele><time>2026-04-18T10:07:49.003Z</time></trkpt><trkpt lat="45.0847653528515" lon="9.503975973520161"><ele>50.0</ele><time>2026-04-18T10:07:50.003Z</time></trkpt><trkpt lat="45.08483576752733" lon="9.50399679046054"><ele>50.0</ele><time>2026-04-18T10:07:51.003Z</time></trkpt><trkpt lat="45.08490137727228" lon="9.504016186935361"><ele>50.0</ele><time>2026-04-18T10:07:51.998Z</time></trkpt><trkpt lat="45.08501379167888" lon="9.504059182067605"><ele>50.0</ele><time>2026-04-18T10:07:53.999Z</time></trkpt><trkpt lat="45.085117894506965" lon="9.504099079141868"><ele>50.0</ele><time>2026-04-18T10:07:55.999Z</time></trkpt><trkpt lat="45.08520636124833" lon="9.504079215880465"><ele>50.0</ele><time>2026-04-18T10:07:57.999Z</time></trkpt><trkpt lat="45.085303281646226" lon="9.504049097298633"><ele>50.5</ele><time>2026-04-18T10:08:28Z</time></trkpt><trkpt lat="45.085512931598934" lon="9.504254049312769"><ele>51.0</ele><time>2026-04-18T10:08:32.001Z</time></trkpt><trkpt lat="45.0855902695819" lon="9.504279169647681"><ele>51.5</ele><time>2026-04-18T10:08:34.001Z</time></trkpt><trkpt lat="45.085664538356724" lon="9.504313883790248"><ele>52.0</ele><time>2026-04-18T10:08:36.001Z</time></trkpt><trkpt lat="45.08574052474233" lon="9.504343695992295"><ele>52.0</ele><time>2026-04-18T10:08:38.001Z</time></trkpt><trkpt lat="45.0858210424179" lon="9.504400123763823"><ele>52.0</ele><time>2026-04-18T10:08:41.001Z</time></trkpt><trkpt lat="45.085887288575044" lon="9.504427694403804"><ele>52.0</ele><time>2026-04-18T10:08:45.001Z</time></trkpt><trkpt lat="45.0858262506142" lon="9.50437365508408"><ele>52.0</ele><time>2026-04-18T10:09:02.002Z</time></trkpt><trkpt lat="45.08570675362542" lon="9.50433128852846"><ele>52.0</ele><time>2026-04-18T10:09:04.002Z</time></trkpt><trkpt lat="45.08556950087656" lon="9.504268533908515"><ele>52.0</ele><time>2026-04-18T10:09:05.002Z</time></trkpt><trkpt lat="45.08547956616244" lon="9.504226807958634"><ele>52.0</ele><time>2026-04-18T10:09:06.002Z</time></trkpt><trkpt lat="45.08541453363788" lon="9.504195015669293"><ele>52.0</ele><time>2026-04-18T10:09:07.002Z</time></trkpt><trkpt lat="45.08530820115868" lon="9.50413392328345"><ele>52.0</ele><time>2026-04-18T10:09:09.002Z</time></trkpt><trkpt lat="45.08521747690845" lon="9.504064828851114"><ele>52.0</ele><time>2026-04-18T10:09:11.002Z</time></trkpt><trkpt lat="45.085137326683274" lon="9.504015099687932"><ele>52.0</ele><time>2026-04-18T10:09:13.002Z</time></trkpt><trkpt lat="45.08501141851982" lon="9.503991209810142"><ele>52.0</ele><time>2026-04-18T10:09:15.002Z</time></trkpt><trkpt lat="45.08492574064311" lon="9.503967491269888"><ele>52.0</ele><time>2026-04-18T10:09:16.002Z</time></trkpt><trkpt lat="45.08483058397472" lon="9.503937212604258"><ele>52.0</ele><time>2026-04-18T10:09:17.002Z</time></trkpt><trkpt lat="45.08473337202304" lon="9.50390486567853"><ele>52.0</ele><time>2026-04-18T10:09:18.002Z</time></trkpt><trkpt lat="45.08464461272813" lon="9.503875820791139"><ele>51.6</ele><time>2026-04-18T10:09:19.002Z</time></trkpt><trkpt lat="45.08455778653676" lon="9.503850137004079"><ele>51.2</ele><time>2026-04-18T10:09:20.002Z</time></trkpt><trkpt lat="45.08445824874696" lon="9.503823908447767"><ele>50.8</ele><time>2026-04-18T10:09:21.002Z</time></trkpt><trkpt lat="45.084358887030774" lon="9.503804516511165"><ele>50.4</ele><time>2026-04-18T10:09:22.002Z</time></trkpt><trkpt lat="45.08426522905556" lon="9.503791043678318"><ele>50.0</ele><time>2026-04-18T10:09:23.002Z</time></trkpt><trkpt lat="45.08417872933261" lon="9.503783174330382"><ele>50.00000000000001</ele><time>2026-04-18T10:09:24.002Z</time></trkpt><trkpt lat="45.084113937791656" lon="9.503774265870915"><ele>50.0</ele><time>2026-04-18T10:09:25.002Z</time></trkpt><trkpt lat="45.08401762660219" lon="9.503752754986673"><ele>50.0</ele><time>2026-04-18T10:09:27.002Z</time></trkpt><trkpt lat="45.0839257008682" lon="9.503724026405859"><ele>50.0</ele><time>2026-04-18T10:09:29.002Z</time></trkpt><trkpt lat="45.083861458092564" lon="9.503701531833219"><ele>50.00000000000001</ele><time>2026-04-18T10:09:30.002Z</time></trkpt><trkpt lat="45.08378647371263" lon="9.503674581269415"><ele>50.0</ele><time>2026-04-18T10:09:31.002Z</time></trkpt><trkpt lat="45.083706759104174" lon="9.503644963021614"><ele>50.333333333333336</ele><time>2026-04-18T10:09:32.002Z</time></trkpt><trkpt lat="45.083626190832184" lon="9.503610928083273"><ele>50.66666666666667</ele><time>2026-04-18T10:09:33.002Z</time></trkpt><trkpt lat="45.08353938425498" lon="9.503580374010998"><ele>51.0</ele><time>2026-04-18T10:09:34.003Z</time></trkpt><trkpt lat="45.08345836316725" lon="9.503549758370312"><ele>51.33333333333333</ele><time>2026-04-18T10:09:35.003Z</time></trkpt><trkpt lat="45.08338193599853" lon="9.50351819093192"><ele>51.666666666666664</ele><time>2026-04-18T10:09:36.003Z</time></trkpt><trkpt lat="45.083277600307426" lon="9.503478964453505"><ele>52.0</ele><time>2026-04-18T10:09:38.003Z</time></trkpt><trkpt lat="45.08335641365955" lon="9.50353164094873"><ele>52.0</ele><time>2026-04-18T10:09:51.003Z</time></trkpt><trkpt lat="45.08346028908972" lon="9.503571053100465"><ele>52.0</ele><time>2026-04-18T10:09:53.003Z</time></trkpt><trkpt lat="45.0835365839206" lon="9.503600000553497"><ele>52.0</ele><time>2026-04-18T10:09:55.003Z</time></trkpt><trkpt lat="45.08354310166918" lon="9.50400550532691"><ele>51.666666666666664</ele><time>2026-04-18T10:09:57.003Z</time></trkpt><trkpt lat="45.08355174172758" lon="9.50410257037836"><ele>51.33333333333333</ele><time>2026-04-18T10:09:57.998Z</time></trkpt><trkpt lat="45.08356370944586" lon="9.504211031378773"><ele>51.0</ele><time>2026-04-18T10:09:58.998Z</time></trkpt><trkpt lat="45.08357808929665" lon="9.504318235601263"><ele>50.66666666666667</ele><time>2026-04-18T10:09:59.998Z</time></trkpt><trkpt lat="45.083592688638156" lon="9.504421265102053"><ele>50.333333333333336</ele><time>2026-04-18T10:10:00.998Z</time></trkpt><trkpt lat="45.08361031115927" lon="9.504535186988749"><ele>50.0</ele><time>2026-04-18T10:10:01.998Z</time></trkpt><trkpt lat="45.083630125576505" lon="9.50465328397541"><ele>50.0</ele><time>2026-04-18T10:10:02.999Z</time></trkpt><trkpt lat="45.08365280411607" lon="9.504764212600215"><ele>50.0</ele><time>2026-04-18T10:10:03.999Z</time></trkpt><trkpt lat="45.083673527720286" lon="9.50485432720869"><ele>50.0</ele><time>2026-04-18T10:10:04.999Z</time></trkpt><trkpt lat="45.083708006589006" lon="9.504993961878299"><ele>50.0</ele><time>2026-04-18T10:10:06.999Z</time></trkpt><trkpt lat="45.08372424178581" lon="9.505118788751128"><ele>50.0</ele><time>2026-04-18T10:10:08.999Z</time></trkpt><trkpt lat="45.08368038332577" lon="9.505267589666241"><ele>50.0</ele><time>2026-04-18T10:10:10.999Z</time></trkpt><trkpt lat="45.083641762130156" lon="9.5053859489531"><ele>50.0</ele><time>2026-04-18T10:10:11.999Z</time></trkpt><trkpt lat="45.08359725010768" lon="9.505515375959204"><ele>50.0</ele><time>2026-04-18T10:10:12.999Z</time></trkpt><trkpt lat="45.08354736313699" lon="9.50564337108003"><ele>50.0</ele><time>2026-04-18T10:10:13.999Z</time></trkpt><trkpt lat="45.08350915731952" lon="9.505748968916947"><ele>50.0</ele><time>2026-04-18T10:10:14.999Z</time></trkpt><trkpt lat="45.08347268261074" lon="9.505839462933597"><ele>50.4</ele><time>2026-04-18T10:10:15.999Z</time></trkpt><trkpt lat="45.083432425296046" lon="9.505943566401882"><ele>50.8</ele><time>2026-04-18T10:10:16.999Z</time></trkpt><trkpt lat="45.083388873148785" lon="9.506053979752444"><ele>51.2</ele><time>2026-04-18T10:10:18Z</time></trkpt><trkpt lat="45.083338322541344" lon="9.506184553026072"><ele>51.6</ele><time>2026-04-18T10:10:19Z</time></trkpt><trkpt lat="45.08327934180177" lon="9.506326229634135"><ele>52.0</ele><time>2026-04-18T10:10:20Z</time></trkpt><trkpt lat="45.08322438443507" lon="9.506467370661353"><ele>52.25</ele><time>2026-04-18T10:10:21Z</time></trkpt><trkpt lat="45.08316916366388" lon="9.506614455018418"><ele>52.5</ele><time>2026-04-18T10:10:22Z</time></trkpt><trkpt lat="45.083120446887534" lon="9.506748100185964"><ele>52.75</ele><time>2026-04-18T10:10:23Z</time></trkpt><trkpt lat="45.0830654623293" lon="9.506844600288739"><ele>53.0</ele><time>2026-04-18T10:10:24Z</time></trkpt><trkpt lat="45.08300966560151" lon="9.507027783719241"><ele>52.5</ele><time>2026-04-18T10:10:25Z</time></trkpt><trkpt lat="45.08294594838069" lon="9.507191585134807"><ele>52.0</ele><time>2026-04-18T10:10:26Z</time></trkpt><trkpt lat="45.08288188445693" lon="9.507356230182879"><ele>51.5</ele><time>2026-04-18T10:10:27Z</time></trkpt><trkpt lat="45.08282233095851" lon="9.507511548516963"><ele>51.0</ele><time>2026-04-18T10:10:28Z</time></trkpt><trkpt lat="45.08276727083412" lon="9.507650987109308"><ele>51.0</ele><time>2026-04-18T10:10:29Z</time></trkpt><trkpt lat="45.082709117048786" lon="9.507801253161075"><ele>51.0</ele><time>2026-04-18T10:10:30Z</time></trkpt><trkpt lat="45.082649186278154" lon="9.507961034591034"><ele>51.0</ele><time>2026-04-18T10:10:31Z</time></trkpt><trkpt lat="45.082589142624734" lon="9.508118708078435"><ele>51.0</ele><time>2026-04-18T10:10:32Z</time></trkpt><trkpt lat="45.0825317221166" lon="9.508274649832101"><ele>50.75</ele><time>2026-04-18T10:10:33Z</time></trkpt><trkpt lat="45.08247262824596" lon="9.50842995323646"><ele>50.5</ele><time>2026-04-18T10:10:34Z</time></trkpt><trkpt lat="45.08241043357836" lon="9.508589715810114"><ele>50.25</ele><time>2026-04-18T10:10:35Z</time></trkpt><trkpt lat="45.082353989497506" lon="9.508738527258414"><ele>50.0</ele><time>2026-04-18T10:10:36.001Z</time></trkpt><trkpt lat="45.08229487571279" lon="9.508893446407583"><ele>50.6</ele><time>2026-04-18T10:10:37.001Z</time></trkpt><trkpt lat="45.08223935422496" lon="9.509041636544406"><ele>51.2</ele><time>2026-04-18T10:10:38.001Z</time></trkpt><trkpt lat="45.08218692338828" lon="9.509179835971146"><ele>51.8</ele><time>2026-04-18T10:10:39.001Z</time></trkpt><trkpt lat="45.08213586570204" lon="9.509315690028053"><ele>52.4</ele><time>2026-04-18T10:10:40.001Z</time></trkpt><trkpt lat="45.08208955252866" lon="9.509440011061317"><ele>53.0</ele><time>2026-04-18T10:10:41.001Z</time></trkpt><trkpt lat="45.082048806687126" lon="9.509553195509556"><ele>52.833333333333336</ele><time>2026-04-18T10:10:42.001Z</time></trkpt><trkpt lat="45.082010198938775" lon="9.509661402361205"><ele>52.66666666666667</ele><time>2026-04-18T10:10:43.001Z</time></trkpt><trkpt lat="45.081974504478296" lon="9.509759130339743"><ele>52.5</ele><time>2026-04-18T10:10:44.001Z</time></trkpt><trkpt lat="45.08193750413968" lon="9.509839992989626"><ele>52.33333333333333</ele><time>2026-04-18T10:10:45.001Z</time></trkpt><trkpt lat="45.08185964673041" lon="9.50991146548014"><ele>52.166666666666664</ele><time>2026-04-18T10:10:47.001Z</time></trkpt><trkpt lat="45.0817362428139" lon="9.509906443478055"><ele>52.0</ele><time>2026-04-18T10:10:49.001Z</time></trkpt><trkpt lat="45.08164102402657" lon="9.509876691615831"><ele>52.5</ele><time>2026-04-18T10:10:50.001Z</time></trkpt><trkpt lat="45.081518478417514" lon="9.509833185979494"><ele>53.0</ele><time>2026-04-18T10:10:51.001Z</time></trkpt><trkpt lat="45.08139094626776" lon="9.509798087147038"><ele>53.5</ele><time>2026-04-18T10:10:52.001Z</time></trkpt><trkpt lat="45.08126222366991" lon="9.50976722250767"><ele>54.0</ele><time>2026-04-18T10:10:53.001Z</time></trkpt><trkpt lat="45.08112657786434" lon="9.509733053834479"><ele>54.0</ele><time>2026-04-18T10:10:54.001Z</time></trkpt><trkpt lat="45.0809950619871" lon="9.509702205964254"><ele>54.0</ele><time>2026-04-18T10:10:55.001Z</time></trkpt><trkpt lat="45.08086877666294" lon="9.509669729189886"><ele>54.0</ele><time>2026-04-18T10:10:56.001Z</time></trkpt><trkpt lat="45.08075072384492" lon="9.509638325882525"><ele>54.0</ele><time>2026-04-18T10:10:57.001Z</time></trkpt><trkpt lat="45.080633481630066" lon="9.509610144285425"><ele>54.0</ele><time>2026-04-18T10:10:58.001Z</time></trkpt><trkpt lat="45.08052345657241" lon="9.509589034030189"><ele>54.00000000000001</ele><time>2026-04-18T10:10:59.001Z</time></trkpt><trkpt lat="45.08042024725478" lon="9.509561933590433"><ele>54.00000000000001</ele><time>2026-04-18T10:11:00.001Z</time></trkpt><trkpt lat="45.08031896131662" lon="9.509535146893102"><ele>54.0</ele><time>2026-04-18T10:11:01.001Z</time></trkpt><trkpt lat="45.08022297598652" lon="9.50951028038018"><ele>54.0</ele><time>2026-04-18T10:11:02.001Z</time></trkpt><trkpt lat="45.080138995342345" lon="9.509488418733836"><ele>54.0</ele><time>2026-04-18T10:11:03.002Z</time></trkpt><trkpt lat="45.080058065398944" lon="9.509469612535291"><ele>54.00000000000001</ele><time>2026-04-18T10:11:04.002Z</time></trkpt><trkpt lat="45.07995157600247" lon="9.509466821072097"><ele>54.00000000000001</ele><time>2026-04-18T10:11:06.002Z</time></trkpt><trkpt lat="45.07988931575993" lon="9.509556089164725"><ele>54.0</ele><time>2026-04-18T10:11:08.002Z</time></trkpt><trkpt lat="45.079850309633144" lon="9.50971471430177"><ele>54.0</ele><time>2026-04-18T10:11:10.002Z</time></trkpt><trkpt lat="45.07982900418782" lon="9.50983454606016"><ele>53.75</ele><time>2026-04-18T10:11:11.002Z</time></trkpt><trkpt lat="45.07980074481179" lon="9.509995103829894"><ele>53.5</ele><time>2026-04-18T10:11:12.002Z</time></trkpt><trkpt lat="45.079767072606835" lon="9.510166239108322"><ele>53.25</ele><time>2026-04-18T10:11:13.002Z</time></trkpt><trkpt lat="45.079735247182995" lon="9.510332025277725"><ele>53.0</ele><time>2026-04-18T10:11:14.002Z</time></trkpt><trkpt lat="45.07970185551058" lon="9.510497075541645"><ele>53.0</ele><time>2026-04-18T10:11:15.002Z</time></trkpt><trkpt lat="45.07966243863409" lon="9.510661877196307"><ele>53.0</ele><time>2026-04-18T10:11:16.002Z</time></trkpt><trkpt lat="45.07962128529604" lon="9.510827284467565"><ele>53.0</ele><time>2026-04-18T10:11:17.002Z</time></trkpt><trkpt lat="45.07957903195335" lon="9.510983372208365"><ele>53.0</ele><time>2026-04-18T10:11:18.002Z</time></trkpt><trkpt lat="45.07953793629214" lon="9.511134928662873"><ele>53.0</ele><time>2026-04-18T10:11:19.002Z</time></trkpt><trkpt lat="45.079495531065746" lon="9.511285803580872"><ele>53.0</ele><time>2026-04-18T10:11:20.002Z</time></trkpt><trkpt lat="45.07945150917667" lon="9.511442495715265"><ele>53.0</ele><time>2026-04-18T10:11:21.002Z</time></trkpt><trkpt lat="45.07941493193521" lon="9.511588399529641"><ele>53.0</ele><time>2026-04-18T10:11:22.002Z</time></trkpt><trkpt lat="45.079373266789595" lon="9.511741933848949"><ele>53.0</ele><time>2026-04-18T10:11:23.002Z</time></trkpt><trkpt lat="45.07933184620202" lon="9.511902698275964"><ele>53.0</ele><time>2026-04-18T10:11:24.002Z</time></trkpt><trkpt lat="45.07928928653722" lon="9.512070091012871"><ele>53.0</ele><time>2026-04-18T10:11:25.002Z</time></trkpt><trkpt lat="45.079245989773575" lon="9.512241957186252"><ele>53.0</ele><time>2026-04-18T10:11:26.002Z</time></trkpt><trkpt lat="45.07920096872555" lon="9.512415939619695"><ele>53.0</ele><time>2026-04-18T10:11:27.002Z</time></trkpt><trkpt lat="45.079155951673975" lon="9.512595349451686"><ele>53.0</ele><time>2026-04-18T10:11:28.002Z</time></trkpt><trkpt lat="45.079112046074926" lon="9.512774276835655"><ele>53.0</ele><time>2026-04-18T10:11:29.002Z</time></trkpt><trkpt lat="45.079068743672615" lon="9.512951837028275"><ele>53.0</ele><time>2026-04-18T10:11:30.002Z</time></trkpt><trkpt lat="45.079026235541214" lon="9.513120504975202"><ele>53.0</ele><time>2026-04-18T10:11:31.002Z</time></trkpt><trkpt lat="45.078987312560294" lon="9.51328523697499"><ele>53.0</ele><time>2026-04-18T10:11:32.002Z</time></trkpt><trkpt lat="45.078945008973946" lon="9.513437675623091"><ele>53.0</ele><time>2026-04-18T10:11:33.002Z</time></trkpt><trkpt lat="45.07890243976458" lon="9.513578754246751"><ele>53.0</ele><time>2026-04-18T10:11:34.002Z</time></trkpt><trkpt lat="45.07886058612742" lon="9.513708236660058"><ele>53.0</ele><time>2026-04-18T10:11:35.002Z</time></trkpt><trkpt lat="45.07882488983243" lon="9.513833845631629"><ele>53.333333333333336</ele><time>2026-04-18T10:11:36.003Z</time></trkpt><trkpt lat="45.078797436518634" lon="9.51396152547021"><ele>53.66666666666667</ele><time>2026-04-18T10:11:37.003Z</time></trkpt><trkpt lat="45.078782268727394" lon="9.514079038409607"><ele>54.0</ele><time>2026-04-18T10:11:38.003Z</time></trkpt><trkpt lat="45.0787712501102" lon="9.514180246194973"><ele>54.33333333333333</ele><time>2026-04-18T10:11:39.003Z</time></trkpt><trkpt lat="45.078731370258474" lon="9.51430733904627"><ele>54.666666666666664</ele><time>2026-04-18T10:11:41.003Z</time></trkpt><trkpt lat="45.07864124486193" lon="9.514341838653605"><ele>55.0</ele><time>2026-04-18T10:11:43.003Z</time></trkpt><trkpt lat="45.078492537835515" lon="9.51431088736808"><ele>55.0</ele><time>2026-04-18T10:11:45.003Z</time></trkpt><trkpt lat="45.078381566462795" lon="9.514273020917036"><ele>55.0</ele><time>2026-04-18T10:11:46.003Z</time></trkpt><trkpt lat="45.07825117965856" lon="9.514238553999482"><ele>55.0</ele><time>2026-04-18T10:11:47.003Z</time></trkpt><trkpt lat="45.07812322285645" lon="9.514209226702407"><ele>55.0</ele><time>2026-04-18T10:11:48.003Z</time></trkpt><trkpt lat="45.07798220423665" lon="9.514174579401871"><ele>55.0</ele><time>2026-04-18T10:11:49.003Z</time></trkpt><trkpt lat="45.07782825937196" lon="9.51413435906569"><ele>55.0</ele><time>2026-04-18T10:11:50.003Z</time></trkpt><trkpt lat="45.07767056950607" lon="9.51409682655508"><ele>55.0</ele><time>2026-04-18T10:11:51.003Z</time></trkpt><trkpt lat="45.077519536604896" lon="9.514056373490426"><ele>55.5</ele><time>2026-04-18T10:11:52.003Z</time></trkpt><trkpt lat="45.07737024651398" lon="9.514021393140652"><ele>56.0</ele><time>2026-04-18T10:11:53.003Z</time></trkpt><trkpt lat="45.07722008973453" lon="9.513988543384665"><ele>56.5</ele><time>2026-04-18T10:11:54.003Z</time></trkpt><trkpt lat="45.07707600256821" lon="9.513953901632526"><ele>57.0</ele><time>2026-04-18T10:11:55.003Z</time></trkpt><trkpt lat="45.076935067882545" lon="9.513915297343301"><ele>57.0</ele><time>2026-04-18T10:11:56.003Z</time></trkpt><trkpt lat="45.07678848875642" lon="9.513885901973973"><ele>57.0</ele><time>2026-04-18T10:11:57.003Z</time></trkpt><trkpt lat="45.076642815878486" lon="9.513849365288165"><ele>57.0</ele><time>2026-04-18T10:11:58.003Z</time></trkpt><trkpt lat="45.07649923897226" lon="9.513813899175414"><ele>57.0</ele><time>2026-04-18T10:11:59.003Z</time></trkpt><trkpt lat="45.076356249443045" lon="9.513778590049947"><ele>56.75</ele><time>2026-04-18T10:12:00.003Z</time></trkpt><trkpt lat="45.07620568532147" lon="9.51374570505616"><ele>56.5</ele><time>2026-04-18T10:12:01.003Z</time></trkpt><trkpt lat="45.07606447370839" lon="9.513712348355122"><ele>56.25</ele><time>2026-04-18T10:12:02.003Z</time></trkpt><trkpt lat="45.07591893391491" lon="9.51367400720156"><ele>56.0</ele><time>2026-04-18T10:12:03.003Z</time></trkpt><trkpt lat="45.07577135029063" lon="9.513637248730031"><ele>55.5</ele><time>2026-04-18T10:12:03.999Z</time></trkpt><trkpt lat="45.075625877886196" lon="9.513601464208584"><ele>55.0</ele><time>2026-04-18T10:12:04.999Z</time></trkpt><trkpt lat="45.075486734456504" lon="9.513568010392705"><ele>54.5</ele><time>2026-04-18T10:12:05.999Z</time></trkpt><trkpt lat="45.07534370997164" lon="9.513531630236805"><ele>54.0</ele><time>2026-04-18T10:12:06.999Z</time></trkpt><trkpt lat="45.07520188879923" lon="9.513495235796253"><ele>54.0</ele><time>2026-04-18T10:12:07.999Z</time></trkpt><trkpt lat="45.07505397785446" lon="9.513458230386398"><ele>54.0</ele><time>2026-04-18T10:12:08.999Z</time></trkpt><trkpt lat="45.07490781680908" lon="9.513426370322565"><ele>54.0</ele><time>2026-04-18T10:12:09.999Z</time></trkpt><trkpt lat="45.07476415466682" lon="9.51339206022268"><ele>54.0</ele><time>2026-04-18T10:12:10.999Z</time></trkpt><trkpt lat="45.074622281856996" lon="9.513356255021149"><ele>54.25</ele><time>2026-04-18T10:12:11.999Z</time></trkpt><trkpt lat="45.07447797584551" lon="9.513320110408394"><ele>54.5</ele><time>2026-04-18T10:12:12.999Z</time></trkpt><trkpt lat="45.07433232495439" lon="9.513283880933308"><ele>54.75</ele><time>2026-04-18T10:12:13.999Z</time></trkpt><trkpt lat="45.074187602643924" lon="9.513249166685798"><ele>55.0</ele><time>2026-04-18T10:12:14.999Z</time></trkpt><trkpt lat="45.074043747081454" lon="9.5132147840489"><ele>55.0</ele><time>2026-04-18T10:12:15.999Z</time></trkpt><trkpt lat="45.0739021060218" lon="9.513180751074623"><ele>55.0</ele><time>2026-04-18T10:12:16.999Z</time></trkpt><trkpt lat="45.0737586588771" lon="9.51314681062978"><ele>55.0</ele><time>2026-04-18T10:12:17.999Z</time></trkpt><trkpt lat="45.07361473920461" lon="9.51311120192233"><ele>55.0</ele><time>2026-04-18T10:12:19Z</time></trkpt><trkpt lat="45.07347161865454" lon="9.513075866200436"><ele>55.0</ele><time>2026-04-18T10:12:20Z</time></trkpt><trkpt lat="45.07332759536702" lon="9.513042786645892"><ele>55.0</ele><time>2026-04-18T10:12:21Z</time></trkpt><trkpt lat="45.073187633274934" lon="9.51300869751883"><ele>55.0</ele><time>2026-04-18T10:12:22Z</time></trkpt><trkpt lat="45.073045782207465" lon="9.512977515602547"><ele>55.0</ele><time>2026-04-18T10:12:23Z</time></trkpt><trkpt lat="45.072904490970664" lon="9.512944834413364"><ele>54.75</ele><time>2026-04-18T10:12:24Z</time></trkpt><trkpt lat="45.07276720075503" lon="9.512910524912513"><ele>54.5</ele><time>2026-04-18T10:12:25Z</time></trkpt><trkpt lat="45.0726326782671" lon="9.512878135347018"><ele>54.25</ele><time>2026-04-18T10:12:26Z</time></trkpt><trkpt lat="45.07250121482944" lon="9.51284564734046"><ele>54.0</ele><time>2026-04-18T10:12:27Z</time></trkpt><trkpt lat="45.07237496568607" lon="9.512815078693773"><ele>53.75</ele><time>2026-04-18T10:12:28Z</time></trkpt><trkpt lat="45.07224560333766" lon="9.512786088067623"><ele>53.5</ele><time>2026-04-18T10:12:29Z</time></trkpt><trkpt lat="45.072124849574905" lon="9.512752783455756"><ele>53.25</ele><time>2026-04-18T10:12:30Z</time></trkpt><trkpt lat="45.07200767250782" lon="9.512722207519307"><ele>53.0</ele><time>2026-04-18T10:12:31Z</time></trkpt><trkpt lat="45.07189991458813" lon="9.512694648298412"><ele>53.0</ele><time>2026-04-18T10:12:32Z</time></trkpt><trkpt lat="45.07179586840325" lon="9.512667165874891"><ele>53.0</ele><time>2026-04-18T10:12:33Z</time></trkpt><trkpt lat="45.07169253689138" lon="9.512642818442641"><ele>53.0</ele><time>2026-04-18T10:12:34Z</time></trkpt><trkpt lat="45.07157736844101" lon="9.512612611021266"><ele>53.0</ele><time>2026-04-18T10:12:35Z</time></trkpt><trkpt lat="45.071463396495346" lon="9.512582152414433"><ele>53.0</ele><time>2026-04-18T10:12:36Z</time></trkpt><trkpt lat="45.07135830236439" lon="9.512555829556486"><ele>53.0</ele><time>2026-04-18T10:12:37Z</time></trkpt><trkpt lat="45.071239767587436" lon="9.512532585711014"><ele>53.0</ele><time>2026-04-18T10:12:38Z</time></trkpt><trkpt lat="45.07110545457165" lon="9.512501672496846"><ele>53.0</ele><time>2026-04-18T10:12:39Z</time></trkpt><trkpt lat="45.070963129772935" lon="9.512457291402498"><ele>53.0</ele><time>2026-04-18T10:12:40Z</time></trkpt><trkpt lat="45.07080942556655" lon="9.512419026906795"><ele>53.333333333333336</ele><time>2026-04-18T10:12:41.001Z</time></trkpt><trkpt lat="45.07064884655114" lon="9.51237623351605"><ele>53.66666666666667</ele><time>2026-04-18T10:12:42.001Z</time></trkpt><trkpt lat="45.07047911832144" lon="9.51233384066126"><ele>54.0</ele><time>2026-04-18T10:12:43.001Z</time></trkpt><trkpt lat="45.070311519211245" lon="9.512298592684559"><ele>54.0</ele><time>2026-04-18T10:12:44.001Z</time></trkpt><trkpt lat="45.07013571791576" lon="9.512251341089572"><ele>54.0</ele><time>2026-04-18T10:12:45.001Z</time></trkpt><trkpt lat="45.06996117845266" lon="9.512209840289755"><ele>54.0</ele><time>2026-04-18T10:12:46.001Z</time></trkpt><trkpt lat="45.06979092991473" lon="9.51216848922974"><ele>54.0</ele><time>2026-04-18T10:12:47.001Z</time></trkpt><trkpt lat="45.069634306244325" lon="9.51213305976628"><ele>54.0</ele><time>2026-04-18T10:12:48.001Z</time></trkpt><trkpt lat="45.0694740487085" lon="9.512087564000828"><ele>54.0</ele><time>2026-04-18T10:12:49.001Z</time></trkpt><trkpt lat="45.06931590155966" lon="9.512048519094575"><ele>54.0</ele><time>2026-04-18T10:12:50.001Z</time></trkpt><trkpt lat="45.06916916333741" lon="9.512009759928954"><ele>54.0</ele><time>2026-04-18T10:12:51.001Z</time></trkpt><trkpt lat="45.06903108350171" lon="9.511977286221091"><ele>54.0</ele><time>2026-04-18T10:12:52.001Z</time></trkpt><trkpt lat="45.06891794626069" lon="9.511944428221296"><ele>54.0</ele><time>2026-04-18T10:12:53.001Z</time></trkpt><trkpt lat="45.06882746358487" lon="9.511925099522307"><ele>54.166666666666664</ele><time>2026-04-18T10:12:54.001Z</time></trkpt><trkpt lat="45.06875503064515" lon="9.511922917511331"><ele>54.33333333333333</ele><time>2026-04-18T10:12:55.001Z</time></trkpt><trkpt lat="45.06868815284956" lon="9.51192203529372"><ele>54.5</ele><time>2026-04-18T10:12:56.001Z</time></trkpt><trkpt lat="45.06863573695606" lon="9.512009211362034"><ele>54.666666666666664</ele><time>2026-04-18T10:12:57.001Z</time></trkpt><trkpt lat="45.06861666166504" lon="9.512118906896804"><ele>54.83333333333333</ele><time>2026-04-18T10:12:58.001Z</time></trkpt><trkpt lat="45.06860053983841" lon="9.512233312432183"><ele>55.0</ele><time>2026-04-18T10:12:59.001Z</time></trkpt><trkpt lat="45.06858971751805" lon="9.51237995217811"><ele>55.0</ele><time>2026-04-18T10:13:00.001Z</time></trkpt><trkpt lat="45.068588753461725" lon="9.512545681481091"><ele>55.0</ele><time>2026-04-18T10:13:01.001Z</time></trkpt><trkpt lat="45.068588924260006" lon="9.51273092474467"><ele>55.0</ele><time>2026-04-18T10:13:02.001Z</time></trkpt><trkpt lat="45.068589385614445" lon="9.512935099544494"><ele>55.0</ele><time>2026-04-18T10:13:03.001Z</time></trkpt><trkpt lat="45.068588764583424" lon="9.513151335367338"><ele>55.0</ele><time>2026-04-18T10:13:04.001Z</time></trkpt><trkpt lat="45.06859714535845" lon="9.51338272866444"><ele>55.0</ele><time>2026-04-18T10:13:05.001Z</time></trkpt><trkpt lat="45.068584519373786" lon="9.513618830030074"><ele>55.0</ele><time>2026-04-18T10:13:06.001Z</time></trkpt><trkpt lat="45.06860002296597" lon="9.513858809208328"><ele>55.0</ele><time>2026-04-18T10:13:07.001Z</time></trkpt><trkpt lat="45.06860033343337" lon="9.514082287200484"><ele>55.0</ele><time>2026-04-18T10:13:08.001Z</time></trkpt><trkpt lat="45.0686011115436" lon="9.514277914481243"><ele>55.0</ele><time>2026-04-18T10:13:09.001Z</time></trkpt><trkpt lat="45.06859725146975" lon="9.514459802695578"><ele>55.0</ele><time>2026-04-18T10:13:10.001Z</time></trkpt><trkpt lat="45.068580089858784" lon="9.514628577202853"><ele>55.2</ele><time>2026-04-18T10:13:11.002Z</time></trkpt><trkpt lat="45.06854289686983" lon="9.514768755095528"><ele>55.4</ele><time>2026-04-18T10:13:12.002Z</time></trkpt><trkpt lat="45.06848997729782" lon="9.514882683098888"><ele>55.599999999999994</ele><time>2026-04-18T10:13:13.002Z</time></trkpt><trkpt lat="45.06841342257296" lon="9.514971276508506"><ele>55.8</ele><time>2026-04-18T10:13:14.002Z</time></trkpt><trkpt lat="45.0683202384515" lon="9.515034767979326"><ele>56.0</ele><time>2026-04-18T10:13:15.002Z</time></trkpt><trkpt lat="45.06822320047702" lon="9.515061986604426"><ele>56.5</ele><time>2026-04-18T10:13:16.002Z</time></trkpt><trkpt lat="45.06811143097534" lon="9.515053163665993"><ele>57.0</ele><time>2026-04-18T10:13:17.002Z</time></trkpt><trkpt lat="45.06799319390192" lon="9.515020096912636"><ele>57.5</ele><time>2026-04-18T10:13:18.002Z</time></trkpt><trkpt lat="45.06786082533065" lon="9.51497897718241"><ele>58.0</ele><time>2026-04-18T10:13:19.002Z</time></trkpt><trkpt lat="45.06771847662801" lon="9.514945102114906"><ele>58.0</ele><time>2026-04-18T10:13:20.002Z</time></trkpt><trkpt lat="45.0675761886328" lon="9.514914542880497"><ele>58.0</ele><time>2026-04-18T10:13:21.002Z</time></trkpt><trkpt lat="45.067433403679544" lon="9.514881820647417"><ele>58.0</ele><time>2026-04-18T10:13:22.002Z</time></trkpt><trkpt lat="45.06729992913961" lon="9.514849512559454"><ele>58.0</ele><time>2026-04-18T10:13:23.002Z</time></trkpt><trkpt lat="45.06716244120608" lon="9.514817915134778"><ele>57.5</ele><time>2026-04-18T10:13:24.002Z</time></trkpt><trkpt lat="45.06702421653719" lon="9.514799405366482"><ele>57.0</ele><time>2026-04-18T10:13:25.002Z</time></trkpt><trkpt lat="45.066890526597085" lon="9.514808644774341"><ele>56.5</ele><time>2026-04-18T10:13:26.002Z</time></trkpt><trkpt lat="45.06676024310647" lon="9.514843541918635"><ele>56.0</ele><time>2026-04-18T10:13:27.002Z</time></trkpt><trkpt lat="45.066627030207755" lon="9.514900781144602"><ele>56.0</ele><time>2026-04-18T10:13:28.002Z</time></trkpt><trkpt lat="45.066492013048276" lon="9.51495584069613"><ele>56.0</ele><time>2026-04-18T10:13:29.002Z</time></trkpt><trkpt lat="45.06635125666778" lon="9.515000467998659"><ele>56.0</ele><time>2026-04-18T10:13:30.002Z</time></trkpt><trkpt lat="45.06620796571241" lon="9.51501895982217"><ele>56.0</ele><time>2026-04-18T10:13:31.002Z</time></trkpt><trkpt lat="45.066064655960886" lon="9.514983109973603"><ele>56.0</ele><time>2026-04-18T10:13:32.002Z</time></trkpt><trkpt lat="45.0659204437093" lon="9.514952614743999"><ele>56.0</ele><time>2026-04-18T10:13:33.002Z</time></trkpt><trkpt lat="45.065770969462584" lon="9.514938672810365"><ele>56.0</ele><time>2026-04-18T10:13:34.002Z</time></trkpt><trkpt lat="45.06562807433141" lon="9.51490110920548"><ele>56.0</ele><time>2026-04-18T10:13:35.002Z</time></trkpt><trkpt lat="45.065497877867045" lon="9.514867275163835"><ele>56.0</ele><time>2026-04-18T10:13:36.002Z</time></trkpt><trkpt lat="45.06537317221315" lon="9.51483778343991"><ele>55.99999999999999</ele><time>2026-04-18T10:13:37.002Z</time></trkpt><trkpt lat="45.06526356916719" lon="9.514811170767512"><ele>55.99999999999999</ele><time>2026-04-18T10:13:38.002Z</time></trkpt><trkpt lat="45.06517041603624" lon="9.514786292638078"><ele>56.0</ele><time>2026-04-18T10:13:39.002Z</time></trkpt><trkpt lat="45.06509708127428" lon="9.514774073502453"><ele>56.0</ele><time>2026-04-18T10:13:40.002Z</time></trkpt><trkpt lat="45.06501851953013" lon="9.514759085709205"><ele>56.0</ele><time>2026-04-18T10:13:42.002Z</time></trkpt><trkpt lat="45.06498724613486" lon="9.514994609399738"><ele>56.0</ele><time>2026-04-18T10:13:44.003Z</time></trkpt><trkpt lat="45.06498128684792" lon="9.515125214138955"><ele>56.0</ele><time>2026-04-18T10:13:45.003Z</time></trkpt><trkpt lat="45.06495143632358" lon="9.51527691658962"><ele>56.0</ele><time>2026-04-18T10:13:46.003Z</time></trkpt><trkpt lat="45.064936373155895" lon="9.515447119260001"><ele>56.0</ele><time>2026-04-18T10:13:47.003Z</time></trkpt><trkpt lat="45.0649364486054" lon="9.515604236765242"><ele>56.0</ele><time>2026-04-18T10:13:48.003Z</time></trkpt><trkpt lat="45.0649197323954" lon="9.515784965953674"><ele>56.0</ele><time>2026-04-18T10:13:49.003Z</time></trkpt><trkpt lat="45.06490589422141" lon="9.515979145023303"><ele>56.0</ele><time>2026-04-18T10:13:50.003Z</time></trkpt><trkpt lat="45.064897394497685" lon="9.516181170666837"><ele>55.75</ele><time>2026-04-18T10:13:51.003Z</time></trkpt><trkpt lat="45.06488735606277" lon="9.51637319448948"><ele>55.5</ele><time>2026-04-18T10:13:52.003Z</time></trkpt><trkpt lat="45.0648722400618" lon="9.516574673649217"><ele>55.25</ele><time>2026-04-18T10:13:53.003Z</time></trkpt><trkpt lat="45.06485517153324" lon="9.516762591694615"><ele>55.0</ele><time>2026-04-18T10:13:54.003Z</time></trkpt><trkpt lat="45.06484185591852" lon="9.516955041908451"><ele>55.25</ele><time>2026-04-18T10:13:55.003Z</time></trkpt><trkpt lat="45.06483363000734" lon="9.5171428144999"><ele>55.5</ele><time>2026-04-18T10:13:56.003Z</time></trkpt><trkpt lat="45.06482385505082" lon="9.51731538342629"><ele>55.75</ele><time>2026-04-18T10:13:57.003Z</time></trkpt><trkpt lat="45.06481452503978" lon="9.517472214469358"><ele>56.0</ele><time>2026-04-18T10:13:58.003Z</time></trkpt><trkpt lat="45.06480770030338" lon="9.517614666901492"><ele>56.0</ele><time>2026-04-18T10:13:59.003Z</time></trkpt><trkpt lat="45.064795480544106" lon="9.517762607849455"><ele>56.0</ele><time>2026-04-18T10:14:00.003Z</time></trkpt><trkpt lat="45.06480163324904" lon="9.517922981213749"><ele>56.0</ele><time>2026-04-18T10:14:01.003Z</time></trkpt><trkpt lat="45.06481527390386" lon="9.518086582947305"><ele>56.0</ele><time>2026-04-18T10:14:02.003Z</time></trkpt><trkpt lat="45.06483332128566" lon="9.51826064127391"><ele>57.0</ele><time>2026-04-18T10:14:03.003Z</time></trkpt><trkpt lat="45.06484608530254" lon="9.518447526371247"><ele>58.0</ele><time>2026-04-18T10:14:04.003Z</time></trkpt><trkpt lat="45.064843172275175" lon="9.51864198784877"><ele>59.0</ele><time>2026-04-18T10:14:05.003Z</time></trkpt><trkpt lat="45.06483017740335" lon="9.518852868261709"><ele>60.0</ele><time>2026-04-18T10:14:06.003Z</time></trkpt><trkpt lat="45.064820983824866" lon="9.519075787618812"><ele>60.66666666666667</ele><time>2026-04-18T10:14:07.003Z</time></trkpt><trkpt lat="45.06481768085434" lon="9.519301528491294"><ele>61.333333333333336</ele><time>2026-04-18T10:14:08.003Z</time></trkpt><trkpt lat="45.06481653053856" lon="9.519521853454144"><ele>62.0</ele><time>2026-04-18T10:14:09.003Z</time></trkpt><trkpt lat="45.064816501202294" lon="9.519728555550754"><ele>62.333333333333336</ele><time>2026-04-18T10:14:09.999Z</time></trkpt><trkpt lat="45.06481557563057" lon="9.519965467405273"><ele>62.66666666666667</ele><time>2026-04-18T10:14:10.999Z</time></trkpt><trkpt lat="45.06481393066415" lon="9.520203229518362"><ele>63.0</ele><time>2026-04-18T10:14:11.999Z</time></trkpt><trkpt lat="45.064791347691745" lon="9.520444964076896"><ele>63.33333333333333</ele><time>2026-04-18T10:14:12.999Z</time></trkpt><trkpt lat="45.06479876459888" lon="9.520694289458511"><ele>63.666666666666664</ele><time>2026-04-18T10:14:13.999Z</time></trkpt><trkpt lat="45.064793237545565" lon="9.520952381490714"><ele>64.0</ele><time>2026-04-18T10:14:14.999Z</time></trkpt><trkpt lat="45.06478466136478" lon="9.521208610140562"><ele>64.0</ele><time>2026-04-18T10:14:15.999Z</time></trkpt><trkpt lat="45.064776827310666" lon="9.521471062244531"><ele>64.0</ele><time>2026-04-18T10:14:16.999Z</time></trkpt><trkpt lat="45.064768875218036" lon="9.521720993493277"><ele>64.0</ele><time>2026-04-18T10:14:17.999Z</time></trkpt><trkpt lat="45.064761265956186" lon="9.521976814252726"><ele>64.0</ele><time>2026-04-18T10:14:18.999Z</time></trkpt><trkpt lat="45.06475501748877" lon="9.52223092600498"><ele>64.0</ele><time>2026-04-18T10:14:19.999Z</time></trkpt><trkpt lat="45.064750157228644" lon="9.522490512723532"><ele>64.0</ele><time>2026-04-18T10:14:21Z</time></trkpt><trkpt lat="45.06474500382589" lon="9.522748646484086"><ele>64.0</ele><time>2026-04-18T10:14:22Z</time></trkpt><trkpt lat="45.06473920488945" lon="9.523008224119184"><ele>64.0</ele><time>2026-04-18T10:14:23Z</time></trkpt><trkpt lat="45.06473294961235" lon="9.52326609175457"><ele>64.0</ele><time>2026-04-18T10:14:24Z</time></trkpt><trkpt lat="45.06472603876703" lon="9.523523667038964"><ele>63.666666666666664</ele><time>2026-04-18T10:14:25Z</time></trkpt><trkpt lat="45.064717233493795" lon="9.523774448029922"><ele>63.33333333333333</ele><time>2026-04-18T10:14:26Z</time></trkpt><trkpt lat="45.06471037458585" lon="9.524016334462758"><ele>63.0</ele><time>2026-04-18T10:14:27Z</time></trkpt><trkpt lat="45.064704309206434" lon="9.524241601512353"><ele>63.0</ele><time>2026-04-18T10:14:28Z</time></trkpt><trkpt lat="45.064699591119435" lon="9.524450178774833"><ele>63.0</ele><time>2026-04-18T10:14:29Z</time></trkpt><trkpt lat="45.06469427008848" lon="9.524626832157434"><ele>63.0</ele><time>2026-04-18T10:14:30Z</time></trkpt><trkpt lat="45.06469378645771" lon="9.524766220784514"><ele>63.0</ele><time>2026-04-18T10:14:31Z</time></trkpt><trkpt lat="45.064690015796984" lon="9.524899589681684"><ele>63.333333333333336</ele><time>2026-04-18T10:14:32Z</time></trkpt><trkpt lat="45.06467933928984" lon="9.52499298441528"><ele>63.66666666666667</ele><time>2026-04-18T10:14:33Z</time></trkpt><trkpt lat="45.06465673727547" lon="9.525085868983158"><ele>64.0</ele><time>2026-04-18T10:14:35Z</time></trkpt><trkpt lat="45.064561202759236" lon="9.525096140257164"><ele>64.33333333333334</ele><time>2026-04-18T10:14:36Z</time></trkpt><trkpt lat="45.064475452479904" lon="9.525077542436485"><ele>64.66666666666667</ele><time>2026-04-18T10:14:37Z</time></trkpt><trkpt lat="45.064372667008584" lon="9.52505956784501"><ele>65.0</ele><time>2026-04-18T10:14:38Z</time></trkpt><trkpt lat="45.06425032745433" lon="9.52503901316396"><ele>65.5</ele><time>2026-04-18T10:14:39Z</time></trkpt><trkpt lat="45.06411107117263" lon="9.525019148609376"><ele>66.0</ele><time>2026-04-18T10:14:40Z</time></trkpt><trkpt lat="45.063964656628954" lon="9.524997146004905"><ele>66.5</ele><time>2026-04-18T10:14:41Z</time></trkpt><trkpt lat="45.06382638205879" lon="9.524977552869796"><ele>67.0</ele><time>2026-04-18T10:14:42Z</time></trkpt><trkpt lat="45.0636748512776" lon="9.524958488191734"><ele>67.0</ele><time>2026-04-18T10:14:43Z</time></trkpt><trkpt lat="45.06351850242908" lon="9.524935963669046"><ele>67.0</ele><time>2026-04-18T10:14:44Z</time></trkpt><trkpt lat="45.06335502853334" lon="9.524912833169365"><ele>67.0</ele><time>2026-04-18T10:14:45Z</time></trkpt><trkpt lat="45.06318504026098" lon="9.524891057497364"><ele>67.33333333333333</ele><time>2026-04-18T10:14:46.001Z</time></trkpt><trkpt lat="45.06300849134993" lon="9.524864924373828"><ele>67.66666666666667</ele><time>2026-04-18T10:14:47.001Z</time></trkpt><trkpt lat="45.062830205883664" lon="9.524835365378944"><ele>68.0</ele><time>2026-04-18T10:14:48.001Z</time></trkpt><trkpt lat="45.062661539881994" lon="9.524800778089094"><ele>68.0</ele><time>2026-04-18T10:14:49.001Z</time></trkpt><trkpt lat="45.06250144903693" lon="9.524753092355429"><ele>68.0</ele><time>2026-04-18T10:14:50.001Z</time></trkpt><trkpt lat="45.0623517123349" lon="9.524683842010628"><ele>68.0</ele><time>2026-04-18T10:14:51.001Z</time></trkpt><trkpt lat="45.06219324895841" lon="9.524674141866038"><ele>67.66666666666667</ele><time>2026-04-18T10:14:52.001Z</time></trkpt><trkpt lat="45.06203039300433" lon="9.524665465277252"><ele>67.33333333333333</ele><time>2026-04-18T10:14:53.001Z</time></trkpt><trkpt lat="45.06186936689378" lon="9.524667169504857"><ele>67.0</ele><time>2026-04-18T10:14:54.001Z</time></trkpt><trkpt lat="45.061712419702076" lon="9.524668860644102"><ele>66.66666666666666</ele><time>2026-04-18T10:14:55.001Z</time></trkpt><trkpt lat="45.06154616723453" lon="9.524671734702487"><ele>66.33333333333333</ele><time>2026-04-18T10:14:56.001Z</time></trkpt><trkpt lat="45.06137634776759" lon="9.524676429473901"><ele>66.0</ele><time>2026-04-18T10:14:57.001Z</time></trkpt><trkpt lat="45.06120910079999" lon="9.524680236940705"><ele>66.0</ele><time>2026-04-18T10:14:58.001Z</time></trkpt><trkpt lat="45.06104420615666" lon="9.52468276310065"><ele>66.0</ele><time>2026-04-18T10:14:59.001Z</time></trkpt><trkpt lat="45.0608875971299" lon="9.524685403594097"><ele>66.0</ele><time>2026-04-18T10:15:00.001Z</time></trkpt><trkpt lat="45.060739466387744" lon="9.524686367849434"><ele>65.39999999999999</ele><time>2026-04-18T10:15:01.001Z</time></trkpt><trkpt lat="45.060603438627" lon="9.52468704897436"><ele>64.8</ele><time>2026-04-18T10:15:02.001Z</time></trkpt><trkpt lat="45.0604801071426" lon="9.52468751676373"><ele>64.19999999999999</ele><time>2026-04-18T10:15:03.001Z</time></trkpt><trkpt lat="45.060376992478865" lon="9.524685116303045"><ele>63.599999999999994</ele><time>2026-04-18T10:15:04.001Z</time></trkpt><trkpt lat="45.06030240076269" lon="9.524689548396859"><ele>63.0</ele><time>2026-04-18T10:15:05.001Z</time></trkpt><trkpt lat="45.060203367113644" lon="9.524679389368721"><ele>63.0</ele><time>2026-04-18T10:15:07.001Z</time></trkpt><trkpt lat="45.06014523509836" lon="9.524788877384864"><ele>63.0</ele><time>2026-04-18T10:15:08.001Z</time></trkpt><trkpt lat="45.06009256850931" lon="9.524859765703297"><ele>63.0</ele><time>2026-04-18T10:15:09.001Z</time></trkpt><trkpt lat="45.060037295875915" lon="9.524949725582875"><ele>63.0</ele><time>2026-04-18T10:15:10.001Z</time></trkpt><trkpt lat="45.06004029554679" lon="9.525082199654141"><ele>63.0</ele><time>2026-04-18T10:15:11.001Z</time></trkpt><trkpt lat="45.06003592193195" lon="9.525203872466765"><ele>63.0</ele><time>2026-04-18T10:15:12.001Z</time></trkpt><trkpt lat="45.06004630691299" lon="9.525352440082772"><ele>63.25</ele><time>2026-04-18T10:15:13.001Z</time></trkpt><trkpt lat="45.060067967860206" lon="9.52551929990038"><ele>63.5</ele><time>2026-04-18T10:15:14.001Z</time></trkpt><trkpt lat="45.060073789068504" lon="9.525705694254498"><ele>63.75</ele><time>2026-04-18T10:15:15.001Z</time></trkpt><trkpt lat="45.060104134248945" lon="9.525878038225503"><ele>64.0</ele><time>2026-04-18T10:15:16.001Z</time></trkpt><trkpt lat="45.0601142031572" lon="9.526056192363933"><ele>63.75</ele><time>2026-04-18T10:15:17.002Z</time></trkpt><trkpt lat="45.060135647237885" lon="9.526240023905975"><ele>63.5</ele><time>2026-04-18T10:15:18.002Z</time></trkpt><trkpt lat="45.06015202940758" lon="9.526427323577042"><ele>63.25</ele><time>2026-04-18T10:15:19.002Z</time></trkpt><trkpt lat="45.06015152424742" lon="9.526624948024725"><ele>63.0</ele><time>2026-04-18T10:15:20.002Z</time></trkpt><trkpt lat="45.06016493657783" lon="9.526822808586262"><ele>63.0</ele><time>2026-04-18T10:15:21.002Z</time></trkpt><trkpt lat="45.06017886476405" lon="9.527028279273747"><ele>63.0</ele><time>2026-04-18T10:15:22.002Z</time></trkpt><trkpt lat="45.060208935074904" lon="9.527224715144143"><ele>63.0</ele><time>2026-04-18T10:15:23.002Z</time></trkpt><trkpt lat="45.06022051164419" lon="9.527395469297598"><ele>63.0</ele><time>2026-04-18T10:15:24.002Z</time></trkpt><trkpt lat="45.060236628550946" lon="9.527554318591093"><ele>62.666666666666664</ele><time>2026-04-18T10:15:25.002Z</time></trkpt><trkpt lat="45.060240668897954" lon="9.52768596768762"><ele>62.33333333333333</ele><time>2026-04-18T10:15:26.002Z</time></trkpt><trkpt lat="45.06026972977504" lon="9.52780327782323"><ele>62.0</ele><time>2026-04-18T10:15:27.002Z</time></trkpt><trkpt lat="45.06028272790347" lon="9.527921747777707"><ele>61.666666666666664</ele><time>2026-04-18T10:15:28.002Z</time></trkpt><trkpt lat="45.06029707042532" lon="9.528043257011094"><ele>61.33333333333333</ele><time>2026-04-18T10:15:29.002Z</time></trkpt><trkpt lat="45.06028425343212" lon="9.528156201282735"><ele>61.0</ele><time>2026-04-18T10:15:30.002Z</time></trkpt><trkpt lat="45.06027061932851" lon="9.528287022152773"><ele>60.166666666666664</ele><time>2026-04-18T10:15:32.002Z</time></trkpt><trkpt lat="45.06021343929776" lon="9.52834506184114"><ele>59.33333333333333</ele><time>2026-04-18T10:15:36.002Z</time></trkpt><trkpt lat="45.06013557984432" lon="9.528370414255923"><ele>58.5</ele><time>2026-04-18T10:16:04.003Z</time></trkpt><trkpt lat="45.06004703963787" lon="9.528376795900376"><ele>57.66666666666667</ele><time>2026-04-18T10:16:07.003Z</time></trkpt><trkpt lat="45.05996854795052" lon="9.528378769895506"><ele>56.833333333333336</ele><time>2026-04-18T10:16:11.003Z</time></trkpt><trkpt lat="45.05996586805159" lon="9.528269767196635"><ele>56.0</ele><time>2026-04-18T10:16:13.003Z</time></trkpt><trkpt lat="45.059938510870374" lon="9.528184412024071"><ele>56.00000000000001</ele><time>2026-04-18T10:16:15.003Z</time></trkpt><trkpt lat="45.059939654000594" lon="9.528065924892474"><ele>56.0</ele><time>2026-04-18T10:16:17.999Z</time></trkpt><trkpt lat="45.05995383925149" lon="9.527926743820704"><ele>56.0</ele><time>2026-04-18T10:16:20.999Z</time></trkpt><trkpt lat="45.05995148482692" lon="9.528029455014723"><ele>56.0</ele><time>2026-04-18T10:16:36Z</time></trkpt><trkpt lat="45.059938341216046" lon="9.528158538512887"><ele>56.00000000000001</ele><time>2026-04-18T10:16:38Z</time></trkpt><trkpt lat="45.05996098662598" lon="9.528289471166708"><ele>56.0</ele><time>2026-04-18T10:16:40Z</time></trkpt><trkpt lat="45.0600002286883" lon="9.52837303632796"><ele>55.5</ele><time>2026-04-18T10:16:42Z</time></trkpt><trkpt lat="45.06006588186971" lon="9.528410309539963"><ele>55.0</ele><time>2026-04-18T10:17:54.003Z</time></trkpt><trkpt lat="45.059598870932774" lon="9.529107691081794"><ele>54.99999999999999</ele><time>2026-04-18T10:18:44Z</time></trkpt><trkpt lat="45.059667983829485" lon="9.52915139991488"><ele>55.0</ele><time>2026-04-18T10:19:08.001Z</time></trkpt><trkpt lat="45.05976086267178" lon="9.529120939882237"><ele>55.0</ele><time>2026-04-18T10:19:10.001Z</time></trkpt><trkpt lat="45.05982974523674" lon="9.529104634752967"><ele>55.0</ele><time>2026-04-18T10:19:11.001Z</time></trkpt><trkpt lat="45.059899605296515" lon="9.529100439868461"><ele>54.99999999999999</ele><time>2026-04-18T10:19:13.001Z</time></trkpt><trkpt lat="45.05998227114128" lon="9.529099156906554"><ele>55.0</ele><time>2026-04-18T10:19:16.001Z</time></trkpt><trkpt lat="45.06006030743461" lon="9.529131160806813"><ele>54.83333333333333</ele><time>2026-04-18T10:19:20.001Z</time></trkpt><trkpt lat="45.06012786034868" lon="9.529166546416034"><ele>54.666666666666664</ele><time>2026-04-18T10:19:23.001Z</time></trkpt><trkpt lat="45.060193320909654" lon="9.529147473443626"><ele>54.5</ele><time>2026-04-18T10:19:26.001Z</time></trkpt><trkpt lat="45.060276455897124" lon="9.5291416309353"><ele>54.33333333333333</ele><time>2026-04-18T10:19:29.001Z</time></trkpt><trkpt lat="45.06034320736707" lon="9.529229002455885"><ele>54.166666666666664</ele><time>2026-04-18T10:19:32.002Z</time></trkpt><trkpt lat="45.06034291459273" lon="9.529375218469305"><ele>54.0</ele><time>2026-04-18T10:19:34.002Z</time></trkpt><trkpt lat="45.06033517405633" lon="9.529540892928386"><ele>55.5</ele><time>2026-04-18T10:19:36.002Z</time></trkpt><trkpt lat="45.06033093594169" lon="9.529691796743322"><ele>57.0</ele><time>2026-04-18T10:19:38.002Z</time></trkpt><trkpt lat="45.06032439042437" lon="9.529853245356229"><ele>58.5</ele><time>2026-04-18T10:19:40.002Z</time></trkpt><trkpt lat="45.06031853348817" lon="9.529998391271938"><ele>60.0</ele><time>2026-04-18T10:19:42.002Z</time></trkpt><trkpt lat="45.060346096828894" lon="9.53018823207936"><ele>60.0</ele><time>2026-04-18T10:19:44.002Z</time></trkpt><trkpt lat="45.060351748097574" lon="9.530302624371386"><ele>60.0</ele><time>2026-04-18T10:19:45.002Z</time></trkpt><trkpt lat="45.06034967001108" lon="9.530393588488677"><ele>60.0</ele><time>2026-04-18T10:19:46.002Z</time></trkpt><trkpt lat="45.06034323692321" lon="9.530552364876469"><ele>60.0</ele><time>2026-04-18T10:19:48.002Z</time></trkpt><trkpt lat="45.060377731498065" lon="9.530628013256846"><ele>60.0</ele><time>2026-04-18T10:19:50.002Z</time></trkpt><trkpt lat="45.060434969377155" lon="9.53056697877614"><ele>60.0</ele><time>2026-04-18T10:19:53.002Z</time></trkpt><trkpt lat="45.06040540843831" lon="9.530412537009898"><ele>60.0</ele><time>2026-04-18T10:19:56.002Z</time></trkpt><trkpt lat="45.06036945731551" lon="9.530330943330616"><ele>60.0</ele><time>2026-04-18T10:19:57.002Z</time></trkpt><trkpt lat="45.06035445790451" lon="9.530222594030898"><ele>60.0</ele><time>2026-04-18T10:19:58.002Z</time></trkpt><trkpt lat="45.0603550213829" lon="9.530119421372193"><ele>60.0</ele><time>2026-04-18T10:19:59.002Z</time></trkpt><trkpt lat="45.06035663721288" lon="9.530012935822358"><ele>60.0</ele><time>2026-04-18T10:20:00.002Z</time></trkpt><trkpt lat="45.060357129260694" lon="9.529901538984708"><ele>60.0</ele><time>2026-04-18T10:20:01.002Z</time></trkpt><trkpt lat="45.0603545581303" lon="9.529812443399472"><ele>60.0</ele><time>2026-04-18T10:20:02.002Z</time></trkpt><trkpt lat="45.06035196319888" lon="9.529629656611847"><ele>59.0</ele><time>2026-04-18T10:20:04.002Z</time></trkpt><trkpt lat="45.060349270773195" lon="9.529533810996034"><ele>58.0</ele><time>2026-04-18T10:20:05.002Z</time></trkpt><trkpt lat="45.06034445469534" lon="9.52943655167506"><ele>57.0</ele><time>2026-04-18T10:20:06.002Z</time></trkpt><trkpt lat="45.06034502444935" lon="9.52927381151523"><ele>56.0</ele><time>2026-04-18T10:20:08.002Z</time></trkpt><trkpt lat="45.06032278368637" lon="9.529182188714785"><ele>55.0</ele><time>2026-04-18T10:20:10.003Z</time></trkpt><trkpt lat="45.06024535584267" lon="9.529132698367372"><ele>54.0</ele><time>2026-04-18T10:20:13.003Z</time></trkpt><trkpt lat="45.060173054979614" lon="9.529129295392396"><ele>54.0</ele><time>2026-04-18T10:20:16.003Z</time></trkpt><trkpt lat="45.06007249592677" lon="9.529140144809611"><ele>54.00000000000001</ele><time>2026-04-18T10:20:19.003Z</time></trkpt><trkpt lat="45.059990174356784" lon="9.529102209553171"><ele>54.00000000000001</ele><time>2026-04-18T10:20:21.003Z</time></trkpt><trkpt lat="45.059911554053244" lon="9.529075868763709"><ele>54.0</ele><time>2026-04-18T10:21:34.001Z</time></trkpt><trkpt lat="45.05980595709136" lon="9.529074555211253"><ele>54.0</ele><time>2026-04-18T10:21:36.001Z</time></trkpt><trkpt lat="45.059727478208345" lon="9.52908370576245"><ele>54.166666666666664</ele><time>2026-04-18T10:21:37.001Z</time></trkpt><trkpt lat="45.05966002668691" lon="9.5290962525582"><ele>54.33333333333333</ele><time>2026-04-18T10:21:38.002Z</time></trkpt><trkpt lat="45.05957483710904" lon="9.529113339014001"><ele>54.5</ele><time>2026-04-18T10:21:39.002Z</time></trkpt><trkpt lat="45.0594747315931" lon="9.529140159409023"><ele>54.666666666666664</ele><time>2026-04-18T10:21:40.002Z</time></trkpt><trkpt lat="45.05937515997576" lon="9.529170435302758"><ele>54.83333333333333</ele><time>2026-04-18T10:21:41.002Z</time></trkpt><trkpt lat="45.059289226993194" lon="9.529198684984356"><ele>55.0</ele><time>2026-04-18T10:21:42.002Z</time></trkpt><trkpt lat="45.05921372393846" lon="9.529222402020052"><ele>54.99999999999999</ele><time>2026-04-18T10:21:43.002Z</time></trkpt><trkpt lat="45.05914089537874" lon="9.52924196852304"><ele>55.0</ele><time>2026-04-18T10:21:44.002Z</time></trkpt><trkpt lat="45.059067396838635" lon="9.529264605629777"><ele>55.0</ele><time>2026-04-18T10:21:45.002Z</time></trkpt><trkpt lat="45.05900139646261" lon="9.52929323278331"><ele>55.0</ele><time>2026-04-18T10:21:46.002Z</time></trkpt><trkpt lat="45.05893106547363" lon="9.529318907596245"><ele>54.99999999999999</ele><time>2026-04-18T10:21:47.002Z</time></trkpt><trkpt lat="45.0588545964348" lon="9.52935966240303"><ele>55.0</ele><time>2026-04-18T10:21:48.002Z</time></trkpt><trkpt lat="45.058777379804475" lon="9.52940564897559"><ele>55.2</ele><time>2026-04-18T10:21:49.002Z</time></trkpt><trkpt lat="45.05869357343236" lon="9.529450828752436"><ele>55.4</ele><time>2026-04-18T10:21:50.002Z</time></trkpt><trkpt lat="45.0586154363451" lon="9.529492586947827"><ele>55.599999999999994</ele><time>2026-04-18T10:21:51.002Z</time></trkpt><trkpt lat="45.058547108070535" lon="9.529536577420592"><ele>55.8</ele><time>2026-04-18T10:21:52.002Z</time></trkpt><trkpt lat="45.05844501566561" lon="9.529626822032649"><ele>56.0</ele><time>2026-04-18T10:21:54.002Z</time></trkpt><trkpt lat="45.05834826776495" lon="9.529744273551124"><ele>56.0</ele><time>2026-04-18T10:21:56.002Z</time></trkpt><trkpt lat="45.05828713287345" lon="9.529806120061384"><ele>55.99999999999999</ele><time>2026-04-18T10:21:57.002Z</time></trkpt><trkpt lat="45.05821613569077" lon="9.529864602349617"><ele>55.99999999999999</ele><time>2026-04-18T10:21:58.002Z</time></trkpt><trkpt lat="45.05813152391664" lon="9.529917442786731"><ele>56.0</ele><time>2026-04-18T10:21:59.002Z</time></trkpt><trkpt lat="45.05801677112238" lon="9.529969635576814"><ele>56.0</ele><time>2026-04-18T10:22:00.002Z</time></trkpt><trkpt lat="45.057905053640646" lon="9.530025230661327"><ele>56.00000000000001</ele><time>2026-04-18T10:22:01.002Z</time></trkpt><trkpt lat="45.05781909282354" lon="9.53007382960128"><ele>56.0</ele><time>2026-04-18T10:22:02.002Z</time></trkpt><trkpt lat="45.05773984098424" lon="9.5301304288042"><ele>56.0</ele><time>2026-04-18T10:22:03.002Z</time></trkpt><trkpt lat="45.05767291583454" lon="9.530185111043176"><ele>56.0</ele><time>2026-04-18T10:22:04.002Z</time></trkpt><trkpt lat="45.05760420162823" lon="9.53022794854345"><ele>56.00000000000001</ele><time>2026-04-18T10:22:05.002Z</time></trkpt><trkpt lat="45.0575322404697" lon="9.530246636121298"><ele>56.0</ele><time>2026-04-18T10:22:06.002Z</time></trkpt><trkpt lat="45.05744099418905" lon="9.530263976989275"><ele>56.0</ele><time>2026-04-18T10:22:07.002Z</time></trkpt><trkpt lat="45.05732964177731" lon="9.530266981211842"><ele>55.99999999999999</ele><time>2026-04-18T10:22:08.002Z</time></trkpt><trkpt lat="45.05721683222262" lon="9.530270884752907"><ele>55.99999999999999</ele><time>2026-04-18T10:22:09.002Z</time></trkpt><trkpt lat="45.05713255372545" lon="9.530283429205435"><ele>56.0</ele><time>2026-04-18T10:22:10.002Z</time></trkpt><trkpt lat="45.057040838701354" lon="9.530321567082728"><ele>56.0</ele><time>2026-04-18T10:22:11.002Z</time></trkpt><trkpt lat="45.0569355728098" lon="9.530374281824017"><ele>56.0</ele><time>2026-04-18T10:22:12.003Z</time></trkpt><trkpt lat="45.05684792250355" lon="9.530416131452505"><ele>55.99999999999999</ele><time>2026-04-18T10:22:13.003Z</time></trkpt><trkpt lat="45.05676363726938" lon="9.53042440326468"><ele>55.99999999999999</ele><time>2026-04-18T10:22:14.003Z</time></trkpt><trkpt lat="45.0566522308611" lon="9.530427460290953"><ele>56.0</ele><time>2026-04-18T10:22:15.003Z</time></trkpt><trkpt lat="45.056514399035706" lon="9.530421185663732"><ele>56.0</ele><time>2026-04-18T10:22:16.003Z</time></trkpt><trkpt lat="45.05637942036578" lon="9.530430363502647"><ele>56.0</ele><time>2026-04-18T10:22:17.003Z</time></trkpt><trkpt lat="45.05628787270398" lon="9.530446621742438"><ele>55.99999999999999</ele><time>2026-04-18T10:22:18.003Z</time></trkpt><trkpt lat="45.05619395118521" lon="9.530469497248246"><ele>55.99999999999999</ele><time>2026-04-18T10:22:19.003Z</time></trkpt><trkpt lat="45.056092480035716" lon="9.530495130617721"><ele>56.0</ele><time>2026-04-18T10:22:20.003Z</time></trkpt><trkpt lat="45.05597606476069" lon="9.530540096499228"><ele>56.0</ele><time>2026-04-18T10:22:21.003Z</time></trkpt><trkpt lat="45.05584702142527" lon="9.530589964581406"><ele>56.0</ele><time>2026-04-18T10:22:22.003Z</time></trkpt><trkpt lat="45.05572819841329" lon="9.530639918437497"><ele>55.99999999999999</ele><time>2026-04-18T10:22:23.003Z</time></trkpt><trkpt lat="45.05562600795248" lon="9.530683713777334"><ele>55.99999999999999</ele><time>2026-04-18T10:22:24.003Z</time></trkpt><trkpt lat="45.0555291750101" lon="9.530713172159741"><ele>56.0</ele><time>2026-04-18T10:22:25.003Z</time></trkpt><trkpt lat="45.055425429797694" lon="9.530727354095692"><ele>56.0</ele><time>2026-04-18T10:22:26.003Z</time></trkpt><trkpt lat="45.055323140812895" lon="9.530723735821985"><ele>56.00000000000001</ele><time>2026-04-18T10:22:27.003Z</time></trkpt><trkpt lat="45.05522788468211" lon="9.530714740775178"><ele>56.0</ele><time>2026-04-18T10:22:28.003Z</time></trkpt><trkpt lat="45.055134211109525" lon="9.530715738647988"><ele>56.0</ele><time>2026-04-18T10:22:29.003Z</time></trkpt><trkpt lat="45.055047848043436" lon="9.530723441765694"><ele>56.0</ele><time>2026-04-18T10:22:30.003Z</time></trkpt><trkpt lat="45.05497429974793" lon="9.530752797581812"><ele>56.00000000000001</ele><time>2026-04-18T10:22:31.003Z</time></trkpt><trkpt lat="45.054899366863964" lon="9.530804542913097"><ele>56.0</ele><time>2026-04-18T10:22:32.003Z</time></trkpt><trkpt lat="45.05482855253104" lon="9.530890000376479"><ele>56.25</ele><time>2026-04-18T10:22:33.003Z</time></trkpt><trkpt lat="45.05476975496549" lon="9.531007922681376"><ele>56.5</ele><time>2026-04-18T10:22:33.999Z</time></trkpt><trkpt lat="45.054699886699844" lon="9.53116110652708"><ele>56.75</ele><time>2026-04-18T10:22:34.999Z</time></trkpt><trkpt lat="45.054608606105795" lon="9.531324122900873"><ele>57.0</ele><time>2026-04-18T10:22:35.999Z</time></trkpt><trkpt lat="45.05452418717536" lon="9.531469971806798"><ele>57.0</ele><time>2026-04-18T10:22:36.999Z</time></trkpt><trkpt lat="45.054454913884484" lon="9.531582365811145"><ele>57.0</ele><time>2026-04-18T10:22:37.999Z</time></trkpt><trkpt lat="45.05439593594739" lon="9.531677010898838"><ele>57.0</ele><time>2026-04-18T10:22:38.999Z</time></trkpt><trkpt lat="45.05433822993864" lon="9.53177491068081"><ele>57.0</ele><time>2026-04-18T10:22:39.999Z</time></trkpt><trkpt lat="45.05426097198987" lon="9.53189629128211"><ele>57.0</ele><time>2026-04-18T10:22:40.999Z</time></trkpt><trkpt lat="45.05417348260998" lon="9.532039091198145"><ele>57.0</ele><time>2026-04-18T10:22:41.999Z</time></trkpt><trkpt lat="45.054094294038606" lon="9.532164414395751"><ele>57.0</ele><time>2026-04-18T10:22:42.999Z</time></trkpt><trkpt lat="45.05403053175804" lon="9.532274924838132"><ele>57.0</ele><time>2026-04-18T10:22:43.999Z</time></trkpt><trkpt lat="45.05396440085684" lon="9.53237159253488"><ele>57.0</ele><time>2026-04-18T10:22:44.999Z</time></trkpt><trkpt lat="45.053877773683" lon="9.53246288436029"><ele>57.0</ele><time>2026-04-18T10:22:45.999Z</time></trkpt><trkpt lat="45.05378122996056" lon="9.532530515791906"><ele>57.0</ele><time>2026-04-18T10:22:46.999Z</time></trkpt><trkpt lat="45.053671393839636" lon="9.532585639312806"><ele>57.0</ele><time>2026-04-18T10:22:47.999Z</time></trkpt><trkpt lat="45.053560610331196" lon="9.532611642044788"><ele>57.0</ele><time>2026-04-18T10:22:48.999Z</time></trkpt><trkpt lat="45.05344556093453" lon="9.532633669669774"><ele>57.0</ele><time>2026-04-18T10:22:49.999Z</time></trkpt><trkpt lat="45.0533216381993" lon="9.532647186572587"><ele>56.75</ele><time>2026-04-18T10:22:50.999Z</time></trkpt><trkpt lat="45.0532024506089" lon="9.53265967875015"><ele>56.5</ele><time>2026-04-18T10:22:51.999Z</time></trkpt><trkpt lat="45.053086631623444" lon="9.532674799318823"><ele>56.25</ele><time>2026-04-18T10:22:52.999Z</time></trkpt><trkpt lat="45.052967290930646" lon="9.532685783345313"><ele>56.0</ele><time>2026-04-18T10:22:53.999Z</time></trkpt><trkpt lat="45.05285705520732" lon="9.532678623933748"><ele>56.0</ele><time>2026-04-18T10:22:55Z</time></trkpt><trkpt lat="45.052743293391906" lon="9.532649359609188"><ele>56.0</ele><time>2026-04-18T10:22:56Z</time></trkpt><trkpt lat="45.05262330575207" lon="9.532614922800512"><ele>56.0</ele><time>2026-04-18T10:22:57Z</time></trkpt><trkpt lat="45.05249836992135" lon="9.532586999132874"><ele>56.0</ele><time>2026-04-18T10:22:58Z</time></trkpt><trkpt lat="45.052372578486754" lon="9.53257798902193"><ele>56.75</ele><time>2026-04-18T10:22:59Z</time></trkpt><trkpt lat="45.05223867583644" lon="9.53257306539864"><ele>57.5</ele><time>2026-04-18T10:23:00Z</time></trkpt><trkpt lat="45.05210496096872" lon="9.532572221058762"><ele>58.25</ele><time>2026-04-18T10:23:01Z</time></trkpt><trkpt lat="45.051974715904336" lon="9.532575751508391"><ele>59.0</ele><time>2026-04-18T10:23:02Z</time></trkpt><trkpt lat="45.05186486173992" lon="9.532583950511007"><ele>59.0</ele><time>2026-04-18T10:23:03Z</time></trkpt><trkpt lat="45.05176219360354" lon="9.532595687503"><ele>59.00000000000001</ele><time>2026-04-18T10:23:04Z</time></trkpt><trkpt lat="45.051657836720175" lon="9.532597944450465"><ele>59.00000000000001</ele><time>2026-04-18T10:23:05Z</time></trkpt><trkpt lat="45.0515631586116" lon="9.532588585912643"><ele>59.0</ele><time>2026-04-18T10:23:06Z</time></trkpt><trkpt lat="45.051475278054575" lon="9.532570651586102"><ele>59.0</ele><time>2026-04-18T10:23:07Z</time></trkpt><trkpt lat="45.0513934076311" lon="9.532562435442557"><ele>58.833333333333336</ele><time>2026-04-18T10:23:08Z</time></trkpt><trkpt lat="45.05132566958744" lon="9.53256665155577"><ele>58.66666666666667</ele><time>2026-04-18T10:23:09Z</time></trkpt><trkpt lat="45.05124407886218" lon="9.532600042733163"><ele>58.5</ele><time>2026-04-18T10:23:11Z</time></trkpt><trkpt lat="45.051190643728496" lon="9.532668316416315"><ele>58.33333333333333</ele><time>2026-04-18T10:23:13Z</time></trkpt><trkpt lat="45.05117440640763" lon="9.532800356734269"><ele>58.166666666666664</ele><time>2026-04-18T10:23:15Z</time></trkpt><trkpt lat="45.05117059484344" lon="9.53291604937911"><ele>58.0</ele><time>2026-04-18T10:23:16Z</time></trkpt><trkpt lat="45.05115695532151" lon="9.533072822583783"><ele>58.0</ele><time>2026-04-18T10:23:17Z</time></trkpt><trkpt lat="45.05113740613227" lon="9.533199848997507"><ele>58.0</ele><time>2026-04-18T10:23:18Z</time></trkpt><trkpt lat="45.05111640484396" lon="9.533341998535375"><ele>58.0</ele><time>2026-04-18T10:23:19Z</time></trkpt><trkpt lat="45.051093969643944" lon="9.533537246290445"><ele>58.0</ele><time>2026-04-18T10:23:20.001Z</time></trkpt><trkpt lat="45.05107217520014" lon="9.533725670425621"><ele>58.4</ele><time>2026-04-18T10:23:21.001Z</time></trkpt><trkpt lat="45.05105286180921" lon="9.533883879223213"><ele>58.8</ele><time>2026-04-18T10:23:22.001Z</time></trkpt><trkpt lat="45.05103842214928" lon="9.534018413873707"><ele>59.2</ele><time>2026-04-18T10:23:23.001Z</time></trkpt><trkpt lat="45.0510267560598" lon="9.534144165348701"><ele>59.6</ele><time>2026-04-18T10:23:24.001Z</time></trkpt><trkpt lat="45.05101536605816" lon="9.534252761914109"><ele>60.0</ele><time>2026-04-18T10:23:25.001Z</time></trkpt><trkpt lat="45.05100254019754" lon="9.534360174861124"><ele>60.0</ele><time>2026-04-18T10:23:26.001Z</time></trkpt><trkpt lat="45.05098597627318" lon="9.534484372061971"><ele>60.0</ele><time>2026-04-18T10:23:27.001Z</time></trkpt><trkpt lat="45.050967624364525" lon="9.534632201315134"><ele>60.0</ele><time>2026-04-18T10:23:28.001Z</time></trkpt><trkpt lat="45.050950153648415" lon="9.534775708820002"><ele>60.0</ele><time>2026-04-18T10:23:29.001Z</time></trkpt><trkpt lat="45.050932197491136" lon="9.53492227564086"><ele>60.0</ele><time>2026-04-18T10:23:30.001Z</time></trkpt><trkpt lat="45.050916376216186" lon="9.53505425775248"><ele>60.333333333333336</ele><time>2026-04-18T10:23:31.001Z</time></trkpt><trkpt lat="45.05090036199723" lon="9.53518800092575"><ele>60.66666666666667</ele><time>2026-04-18T10:23:32.001Z</time></trkpt><trkpt lat="45.05088939544211" lon="9.535317798974416"><ele>61.0</ele><time>2026-04-18T10:23:33.001Z</time></trkpt><trkpt lat="45.05087872937018" lon="9.535437266988497"><ele>61.333333333333336</ele><time>2026-04-18T10:23:34.001Z</time></trkpt><trkpt lat="45.0508689141035" lon="9.535558994134497"><ele>61.66666666666667</ele><time>2026-04-18T10:23:35.001Z</time></trkpt><trkpt lat="45.05085898123149" lon="9.535679017097209"><ele>62.0</ele><time>2026-04-18T10:23:36.001Z</time></trkpt><trkpt lat="45.05084987012036" lon="9.535805004338812"><ele>62.333333333333336</ele><time>2026-04-18T10:23:37.001Z</time></trkpt><trkpt lat="45.0508397238779" lon="9.535941542442584"><ele>62.66666666666667</ele><time>2026-04-18T10:23:38.001Z</time></trkpt><trkpt lat="45.050827692185386" lon="9.536072993370306"><ele>63.0</ele><time>2026-04-18T10:23:39.001Z</time></trkpt><trkpt lat="45.05081721741606" lon="9.536198366213318"><ele>63.33333333333333</ele><time>2026-04-18T10:23:40.001Z</time></trkpt><trkpt lat="45.05080798108336" lon="9.536319326108462"><ele>63.666666666666664</ele><time>2026-04-18T10:23:41.001Z</time></trkpt><trkpt lat="45.05079643331328" lon="9.536433161161288"><ele>64.0</ele><time>2026-04-18T10:23:42.001Z</time></trkpt><trkpt lat="45.05078277670749" lon="9.53653125586228"><ele>64.0</ele><time>2026-04-18T10:23:43.001Z</time></trkpt><trkpt lat="45.05077607367332" lon="9.536629883765928"><ele>64.0</ele><time>2026-04-18T10:23:44.001Z</time></trkpt><trkpt lat="45.05077992417632" lon="9.536815011147599"><ele>64.0</ele><time>2026-04-18T10:23:46.001Z</time></trkpt><trkpt lat="45.050821102180855" lon="9.536960962564434"><ele>64.0</ele><time>2026-04-18T10:23:48.001Z</time></trkpt><trkpt lat="45.05091716232702" lon="9.537019714217111"><ele>64.0</ele><time>2026-04-18T10:23:50.001Z</time></trkpt><trkpt lat="45.05105319479381" lon="9.537013132398638"><ele>64.0</ele><time>2026-04-18T10:23:52.002Z</time></trkpt><trkpt lat="45.05114648670782" lon="9.537021139636833"><ele>64.0</ele><time>2026-04-18T10:23:53.002Z</time></trkpt><trkpt lat="45.051246703828525" lon="9.537035457845297"><ele>64.0</ele><time>2026-04-18T10:23:54.002Z</time></trkpt><trkpt lat="45.05134191274138" lon="9.53704108523916"><ele>64.0</ele><time>2026-04-18T10:23:55.002Z</time></trkpt><trkpt lat="45.05142962255915" lon="9.53705359170783"><ele>64.0</ele><time>2026-04-18T10:23:56.002Z</time></trkpt><trkpt lat="45.051505858945646" lon="9.53706264373465"><ele>64.0</ele><time>2026-04-18T10:23:57.002Z</time></trkpt><trkpt lat="45.05158988898088" lon="9.537104423334334"><ele>64.0</ele><time>2026-04-18T10:23:59.002Z</time></trkpt><trkpt lat="45.051599252972814" lon="9.537239482259775"><ele>64.0</ele><time>2026-04-18T10:24:01.002Z</time></trkpt><trkpt lat="45.0515892930821" lon="9.537337835148623"><ele>64.0</ele><time>2026-04-18T10:24:02.002Z</time></trkpt><trkpt lat="45.051580759200625" lon="9.537458687452403"><ele>64.0</ele><time>2026-04-18T10:24:03.002Z</time></trkpt><trkpt lat="45.05157875790621" lon="9.537613974825218"><ele>64.0</ele><time>2026-04-18T10:24:04.002Z</time></trkpt><trkpt lat="45.05157236453453" lon="9.537778192913446"><ele>64.0</ele><time>2026-04-18T10:24:05.002Z</time></trkpt><trkpt lat="45.05156855122554" lon="9.537934148134058"><ele>64.0</ele><time>2026-04-18T10:24:06.002Z</time></trkpt><trkpt lat="45.05156860864107" lon="9.538105261685157"><ele>64.0</ele><time>2026-04-18T10:24:07.002Z</time></trkpt><trkpt lat="45.05157037976669" lon="9.538266549428657"><ele>64.0</ele><time>2026-04-18T10:24:08.002Z</time></trkpt><trkpt lat="45.05157091159898" lon="9.538429518908975"><ele>64.0</ele><time>2026-04-18T10:24:09.002Z</time></trkpt><trkpt lat="45.051569744661954" lon="9.538591421874694"><ele>64.0</ele><time>2026-04-18T10:24:10.002Z</time></trkpt><trkpt lat="45.05156662220555" lon="9.538750210388775"><ele>64.0</ele><time>2026-04-18T10:24:11.002Z</time></trkpt><trkpt lat="45.05156147293232" lon="9.538918177679374"><ele>64.25</ele><time>2026-04-18T10:24:12.002Z</time></trkpt><trkpt lat="45.051557645277995" lon="9.539093930580021"><ele>64.5</ele><time>2026-04-18T10:24:13.002Z</time></trkpt><trkpt lat="45.05155555891671" lon="9.539269257588993"><ele>64.75</ele><time>2026-04-18T10:24:14.002Z</time></trkpt><trkpt lat="45.051550441758664" lon="9.53944753630578"><ele>65.0</ele><time>2026-04-18T10:24:15.002Z</time></trkpt><trkpt lat="45.051550544261914" lon="9.53962097114398"><ele>65.0</ele><time>2026-04-18T10:24:16.002Z</time></trkpt><trkpt lat="45.05154831140897" lon="9.539777405798759"><ele>65.0</ele><time>2026-04-18T10:24:17.002Z</time></trkpt><trkpt lat="45.05154238673051" lon="9.53992927779109"><ele>65.0</ele><time>2026-04-18T10:24:18.002Z</time></trkpt><trkpt lat="45.05153372260935" lon="9.540085145468291"><ele>65.0</ele><time>2026-04-18T10:24:19.002Z</time></trkpt><trkpt lat="45.051521755227476" lon="9.54024278595917"><ele>65.0</ele><time>2026-04-18T10:24:20.002Z</time></trkpt><trkpt lat="45.05150983083496" lon="9.540393565101878"><ele>65.0</ele><time>2026-04-18T10:24:21.002Z</time></trkpt><trkpt lat="45.05149639862348" lon="9.540552445714619"><ele>65.0</ele><time>2026-04-18T10:24:22.002Z</time></trkpt><trkpt lat="45.05148199557501" lon="9.540706077153521"><ele>65.0</ele><time>2026-04-18T10:24:23.002Z</time></trkpt><trkpt lat="45.05146957529242" lon="9.540848447674952"><ele>65.0</ele><time>2026-04-18T10:24:24.003Z</time></trkpt><trkpt lat="45.05145632684168" lon="9.540974600105551"><ele>65.0</ele><time>2026-04-18T10:24:25.003Z</time></trkpt><trkpt lat="45.051447047273484" lon="9.541095398424593"><ele>65.0</ele><time>2026-04-18T10:24:26.003Z</time></trkpt><trkpt lat="45.05144042993279" lon="9.541185446456058"><ele>65.0</ele><time>2026-04-18T10:24:27.003Z</time></trkpt><trkpt lat="45.05141830087164" lon="9.541324839297484"><ele>65.0</ele><time>2026-04-18T10:24:29.003Z</time></trkpt><trkpt lat="45.05136613645017" lon="9.541410508365635"><ele>65.0</ele><time>2026-04-18T10:24:33.003Z</time></trkpt><trkpt lat="45.05124694733354" lon="9.541395924592091"><ele>65.0</ele><time>2026-04-18T10:24:35.003Z</time></trkpt><trkpt lat="45.05114342302298" lon="9.541375206207038"><ele>64.8</ele><time>2026-04-18T10:24:36.003Z</time></trkpt><trkpt lat="45.05105468789208" lon="9.541366989028147"><ele>64.6</ele><time>2026-04-18T10:24:37.003Z</time></trkpt><trkpt lat="45.050938021558636" lon="9.541363713306112"><ele>64.4</ele><time>2026-04-18T10:24:38.003Z</time></trkpt><trkpt lat="45.05082305558603" lon="9.541359191783757"><ele>64.2</ele><time>2026-04-18T10:24:39.003Z</time></trkpt><trkpt lat="45.050719686484115" lon="9.541355223765724"><ele>64.0</ele><time>2026-04-18T10:24:39.998Z</time></trkpt><trkpt lat="45.05061328323848" lon="9.54133975164952"><ele>64.66666666666666</ele><time>2026-04-18T10:24:40.998Z</time></trkpt><trkpt lat="45.05051444180509" lon="9.541341129028515"><ele>65.33333333333333</ele><time>2026-04-18T10:24:41.998Z</time></trkpt><trkpt lat="45.05042480638513" lon="9.541348495381962"><ele>66.0</ele><time>2026-04-18T10:24:42.998Z</time></trkpt><trkpt lat="45.05034581787388" lon="9.541353104081434"><ele>66.66666666666667</ele><time>2026-04-18T10:24:43.998Z</time></trkpt><trkpt lat="45.05027115191631" lon="9.54135384298463"><ele>67.33333333333334</ele><time>2026-04-18T10:24:44.998Z</time></trkpt><trkpt lat="45.05019874897497" lon="9.541369115065692"><ele>68.0</ele><time>2026-04-18T10:24:45.998Z</time></trkpt><trkpt lat="45.05011864025217" lon="9.541384619859407"><ele>68.0</ele><time>2026-04-18T10:24:46.999Z</time></trkpt><trkpt lat="45.05003144311322" lon="9.541404548722046"><ele>68.0</ele><time>2026-04-18T10:24:47.999Z</time></trkpt><trkpt lat="45.04992917557461" lon="9.541425427489282"><ele>68.0</ele><time>2026-04-18T10:24:48.999Z</time></trkpt><trkpt lat="45.049812843573534" lon="9.541441214485662"><ele>68.0</ele><time>2026-04-18T10:24:49.999Z</time></trkpt><trkpt lat="45.049678519185385" lon="9.541453910808997"><ele>68.0</ele><time>2026-04-18T10:24:50.999Z</time></trkpt><trkpt lat="45.0495291722787" lon="9.541465716566446"><ele>67.25</ele><time>2026-04-18T10:24:51.999Z</time></trkpt><trkpt lat="45.04937057916694" lon="9.541480319915555"><ele>66.5</ele><time>2026-04-18T10:24:52.999Z</time></trkpt><trkpt lat="45.0492374914702" lon="9.541495865101433"><ele>65.75</ele><time>2026-04-18T10:24:53.999Z</time></trkpt><trkpt lat="45.04910015665431" lon="9.541518411395295"><ele>65.0</ele><time>2026-04-18T10:24:54.999Z</time></trkpt><trkpt lat="45.048959401962044" lon="9.54153306845206"><ele>65.0</ele><time>2026-04-18T10:24:55.999Z</time></trkpt><trkpt lat="45.048827981026626" lon="9.541553612404774"><ele>65.0</ele><time>2026-04-18T10:24:56.999Z</time></trkpt><trkpt lat="45.048709551958034" lon="9.541567861872025"><ele>65.0</ele><time>2026-04-18T10:24:57.999Z</time></trkpt><trkpt lat="45.048582630882166" lon="9.54156888091306"><ele>65.0</ele><time>2026-04-18T10:24:58.999Z</time></trkpt><trkpt lat="45.048439798489106" lon="9.541514028440051"><ele>65.25</ele><time>2026-04-18T10:24:59.999Z</time></trkpt><trkpt lat="45.04829184234142" lon="9.541471242635282"><ele>65.5</ele><time>2026-04-18T10:25:01Z</time></trkpt><trkpt lat="45.0481825337082" lon="9.541456035231382"><ele>65.75</ele><time>2026-04-18T10:25:02Z</time></trkpt><trkpt lat="45.048035871071065" lon="9.541427464219286"><ele>66.0</ele><time>2026-04-18T10:25:03Z</time></trkpt><trkpt lat="45.047871375939714" lon="9.541399818263756"><ele>66.0</ele><time>2026-04-18T10:25:04Z</time></trkpt><trkpt lat="45.04770646900531" lon="9.54138180505734"><ele>66.0</ele><time>2026-04-18T10:25:05Z</time></trkpt><trkpt lat="45.04754550543041" lon="9.541364822594959"><ele>66.0</ele><time>2026-04-18T10:25:06Z</time></trkpt><trkpt lat="45.04738301664008" lon="9.541351261741807"><ele>66.0</ele><time>2026-04-18T10:25:07Z</time></trkpt><trkpt lat="45.047219191772705" lon="9.54133815183044"><ele>66.0</ele><time>2026-04-18T10:25:08Z</time></trkpt><trkpt lat="45.0470527202991" lon="9.541331535902827"><ele>66.0</ele><time>2026-04-18T10:25:09Z</time></trkpt><trkpt lat="45.04688742389495" lon="9.541320809035557"><ele>66.0</ele><time>2026-04-18T10:25:10Z</time></trkpt><trkpt lat="45.04672666712557" lon="9.541315828578234"><ele>66.0</ele><time>2026-04-18T10:25:11Z</time></trkpt><trkpt lat="45.046569506069595" lon="9.541286951881844"><ele>66.0</ele><time>2026-04-18T10:25:12Z</time></trkpt><trkpt lat="45.0464070323035" lon="9.541297734112206"><ele>66.0</ele><time>2026-04-18T10:25:13Z</time></trkpt><trkpt lat="45.046248776782214" lon="9.541277633873385"><ele>66.0</ele><time>2026-04-18T10:25:14Z</time></trkpt><trkpt lat="45.04609479979051" lon="9.541217742127113"><ele>66.0</ele><time>2026-04-18T10:25:15Z</time></trkpt><trkpt lat="45.045937973344884" lon="9.541165865021195"><ele>66.25</ele><time>2026-04-18T10:25:16Z</time></trkpt><trkpt lat="45.04578546039807" lon="9.541141175744702"><ele>66.5</ele><time>2026-04-18T10:25:17Z</time></trkpt><trkpt lat="45.04564044752293" lon="9.541102819254775"><ele>66.75</ele><time>2026-04-18T10:25:18Z</time></trkpt><trkpt lat="45.045503095065804" lon="9.541049995350434"><ele>67.0</ele><time>2026-04-18T10:25:19Z</time></trkpt><trkpt lat="45.04537003753899" lon="9.541025915491232"><ele>67.0</ele><time>2026-04-18T10:25:20Z</time></trkpt><trkpt lat="45.045242772508765" lon="9.541031203216408"><ele>67.0</ele><time>2026-04-18T10:25:21.001Z</time></trkpt><trkpt lat="45.045128773553046" lon="9.54102732375494"><ele>67.0</ele><time>2026-04-18T10:25:22.001Z</time></trkpt><trkpt lat="45.04503353597379" lon="9.541004724484594"><ele>67.0</ele><time>2026-04-18T10:25:23.001Z</time></trkpt><trkpt lat="45.04494948795306" lon="9.541020648536241"><ele>67.0</ele><time>2026-04-18T10:25:24.001Z</time></trkpt><trkpt lat="45.04487994850475" lon="9.541052057704205"><ele>66.8</ele><time>2026-04-18T10:25:25.001Z</time></trkpt><trkpt lat="45.044826840545255" lon="9.541166524922955"><ele>66.6</ele><time>2026-04-18T10:25:26.001Z</time></trkpt><trkpt lat="45.04477866068383" lon="9.541279268149482"><ele>66.39999999999999</ele><time>2026-04-18T10:25:27.001Z</time></trkpt><trkpt lat="45.04472047702878" lon="9.541416041336541"><ele>66.2</ele><time>2026-04-18T10:25:28.001Z</time></trkpt><trkpt lat="45.04465723465908" lon="9.541567442661004"><ele>66.0</ele><time>2026-04-18T10:25:29.001Z</time></trkpt><trkpt lat="45.04458764149023" lon="9.541734047565082"><ele>66.0</ele><time>2026-04-18T10:25:30.001Z</time></trkpt><trkpt lat="45.04451643059511" lon="9.54190912313246"><ele>66.0</ele><time>2026-04-18T10:25:31.001Z</time></trkpt><trkpt lat="45.04444635929027" lon="9.542101213563557"><ele>66.0</ele><time>2026-04-18T10:25:32.001Z</time></trkpt><trkpt lat="45.04437739841692" lon="9.542299285206155"><ele>65.66666666666667</ele><time>2026-04-18T10:25:33.001Z</time></trkpt><trkpt lat="45.04430595906659" lon="9.542500036933138"><ele>65.33333333333334</ele><time>2026-04-18T10:25:34.001Z</time></trkpt><trkpt lat="45.04423728588616" lon="9.542692311710276"><ele>65.0</ele><time>2026-04-18T10:25:35.001Z</time></trkpt><trkpt lat="45.04416838835229" lon="9.542878680146647"><ele>65.0</ele><time>2026-04-18T10:25:36.001Z</time></trkpt><trkpt lat="45.044094087203796" lon="9.543068341518074"><ele>65.0</ele><time>2026-04-18T10:25:37.001Z</time></trkpt><trkpt lat="45.04402052249444" lon="9.543248228919516"><ele>65.0</ele><time>2026-04-18T10:25:38.001Z</time></trkpt><trkpt lat="45.043943938472594" lon="9.543430639858746"><ele>65.0</ele><time>2026-04-18T10:25:39.001Z</time></trkpt><trkpt lat="45.043871819559634" lon="9.54360131127742"><ele>65.0</ele><time>2026-04-18T10:25:40.001Z</time></trkpt><trkpt lat="45.04380154613143" lon="9.543767615500407"><ele>65.0</ele><time>2026-04-18T10:25:41.001Z</time></trkpt><trkpt lat="45.0437333712952" lon="9.543930503699851"><ele>65.0</ele><time>2026-04-18T10:25:42.001Z</time></trkpt><trkpt lat="45.04366072634842" lon="9.544104569011024"><ele>65.0</ele><time>2026-04-18T10:25:43.001Z</time></trkpt><trkpt lat="45.04358665474283" lon="9.544282052999204"><ele>65.0</ele><time>2026-04-18T10:25:44.001Z</time></trkpt><trkpt lat="45.0435276380814" lon="9.544425265262177"><ele>65.0</ele><time>2026-04-18T10:25:45.001Z</time></trkpt><trkpt lat="45.043350795493204" lon="9.54485878582505"><ele>65.66666666666667</ele><time>2026-04-18T10:25:46.001Z</time></trkpt><trkpt lat="45.04328425502697" lon="9.5450733287526"><ele>66.33333333333333</ele><time>2026-04-18T10:25:47.001Z</time></trkpt><trkpt lat="45.0432031038524" lon="9.545271251165516"><ele>67.0</ele><time>2026-04-18T10:25:48.001Z</time></trkpt><trkpt lat="45.04312709549342" lon="9.545470562285931"><ele>67.0</ele><time>2026-04-18T10:25:49.002Z</time></trkpt><trkpt lat="45.043053928174906" lon="9.545664229785862"><ele>67.0</ele><time>2026-04-18T10:25:50.002Z</time></trkpt><trkpt lat="45.042978449359694" lon="9.545860293935052"><ele>67.0</ele><time>2026-04-18T10:25:51.002Z</time></trkpt><trkpt lat="45.042884541380424" lon="9.546036135537037"><ele>66.66666666666666</ele><time>2026-04-18T10:25:52.002Z</time></trkpt><trkpt lat="45.04280985177469" lon="9.546223897578525"><ele>66.33333333333333</ele><time>2026-04-18T10:25:53.002Z</time></trkpt><trkpt lat="45.04275734592859" lon="9.54642397195634"><ele>66.0</ele><time>2026-04-18T10:25:54.002Z</time></trkpt><trkpt lat="45.042701562939484" lon="9.546625273975993"><ele>66.0</ele><time>2026-04-18T10:25:55.002Z</time></trkpt><trkpt lat="45.04265890204917" lon="9.546834671556098"><ele>66.0</ele><time>2026-04-18T10:25:56.002Z</time></trkpt><trkpt lat="45.04262634385895" lon="9.547044301405093"><ele>66.0</ele><time>2026-04-18T10:25:57.002Z</time></trkpt><trkpt lat="45.042601845941725" lon="9.547254641245406"><ele>66.2</ele><time>2026-04-18T10:25:58.002Z</time></trkpt><trkpt lat="45.04257691748395" lon="9.54745170707901"><ele>66.39999999999999</ele><time>2026-04-18T10:25:59.002Z</time></trkpt><trkpt lat="45.04255358278544" lon="9.547621678909136"><ele>66.6</ele><time>2026-04-18T10:26:00.002Z</time></trkpt><trkpt lat="45.042511799375525" lon="9.54774703279621"><ele>66.8</ele><time>2026-04-18T10:26:01.002Z</time></trkpt><trkpt lat="45.042472497579254" lon="9.547830460610445"><ele>67.0</ele><time>2026-04-18T10:26:02.002Z</time></trkpt><trkpt lat="45.042414384767426" lon="9.547883127138592"><ele>67.2</ele><time>2026-04-18T10:26:03.002Z</time></trkpt><trkpt lat="45.04234439451156" lon="9.547878830973618"><ele>67.4</ele><time>2026-04-18T10:26:04.002Z</time></trkpt><trkpt lat="45.04224695440238" lon="9.547900157750332"><ele>67.6</ele><time>2026-04-18T10:26:05.002Z</time></trkpt><trkpt lat="45.04213250807604" lon="9.547922729091315"><ele>67.8</ele><time>2026-04-18T10:26:06.002Z</time></trkpt><trkpt lat="45.04201377099389" lon="9.547946988572194"><ele>68.0</ele><time>2026-04-18T10:26:07.002Z</time></trkpt><trkpt lat="45.04188852452961" lon="9.548005612501589"><ele>68.0</ele><time>2026-04-18T10:26:08.002Z</time></trkpt><trkpt lat="45.04178570028985" lon="9.54805526724233"><ele>68.0</ele><time>2026-04-18T10:26:09.002Z</time></trkpt><trkpt lat="45.0416838112887" lon="9.54813339925467"><ele>68.0</ele><time>2026-04-18T10:26:10.002Z</time></trkpt><trkpt lat="45.04157731035252" lon="9.54822051482474"><ele>68.0</ele><time>2026-04-18T10:26:11.002Z</time></trkpt><trkpt lat="45.04148157642198" lon="9.548308015122041"><ele>68.33333333333334</ele><time>2026-04-18T10:26:12.002Z</time></trkpt><trkpt lat="45.04139378564811" lon="9.548370867674679"><ele>68.66666666666667</ele><time>2026-04-18T10:26:13.002Z</time></trkpt><trkpt lat="45.0413095455559" lon="9.548431908288311"><ele>69.0</ele><time>2026-04-18T10:26:14.002Z</time></trkpt><trkpt lat="45.041245792371484" lon="9.548502525710175"><ele>69.33333333333333</ele><time>2026-04-18T10:26:15.002Z</time></trkpt><trkpt lat="45.04120293363419" lon="9.548586287120227"><ele>69.66666666666666</ele><time>2026-04-18T10:26:16.002Z</time></trkpt><trkpt lat="45.04119279109836" lon="9.548682016287065"><ele>70.0</ele><time>2026-04-18T10:26:17.002Z</time></trkpt><trkpt lat="45.04119544144393" lon="9.548794271284594"><ele>70.0</ele><time>2026-04-18T10:26:18.002Z</time></trkpt><trkpt lat="45.04121221904834" lon="9.548933263258474"><ele>70.0</ele><time>2026-04-18T10:26:19.002Z</time></trkpt><trkpt lat="45.04122763348828" lon="9.549094675095924"><ele>70.0</ele><time>2026-04-18T10:26:20.002Z</time></trkpt><trkpt lat="45.04124535700722" lon="9.549264858750456"><ele>70.0</ele><time>2026-04-18T10:26:21.002Z</time></trkpt><trkpt lat="45.04126082195388" lon="9.549422534484323"><ele>70.0</ele><time>2026-04-18T10:26:22.003Z</time></trkpt><trkpt lat="45.041269286818" lon="9.549558882627455"><ele>70.0</ele><time>2026-04-18T10:26:23.003Z</time></trkpt><trkpt lat="45.041268666989204" lon="9.549668487160009"><ele>70.0</ele><time>2026-04-18T10:26:24.003Z</time></trkpt><trkpt lat="45.041185934745414" lon="9.549786324513548"><ele>70.0</ele><time>2026-04-18T10:26:26.003Z</time></trkpt><trkpt lat="45.04111061008224" lon="9.549754239678805"><ele>70.0</ele><time>2026-04-18T10:26:27.003Z</time></trkpt><trkpt lat="45.04102108636802" lon="9.54977091881082"><ele>70.0</ele><time>2026-04-18T10:26:28.003Z</time></trkpt><trkpt lat="45.040904462065875" lon="9.549817019779635"><ele>70.25</ele><time>2026-04-18T10:26:29.003Z</time></trkpt><trkpt lat="45.040775613415455" lon="9.54984509241373"><ele>70.5</ele><time>2026-04-18T10:26:30.003Z</time></trkpt><trkpt lat="45.04064884395117" lon="9.549877493606573"><ele>70.75</ele><time>2026-04-18T10:26:31.003Z</time></trkpt><trkpt lat="45.04052627020549" lon="9.549893301545554"><ele>71.0</ele><time>2026-04-18T10:26:32.003Z</time></trkpt><trkpt lat="45.0404123706963" lon="9.549926709010938"><ele>71.0</ele><time>2026-04-18T10:26:33.003Z</time></trkpt><trkpt lat="45.04031866535514" lon="9.549953889588489"><ele>71.0</ele><time>2026-04-18T10:26:34.003Z</time></trkpt><trkpt lat="45.04025131264916" lon="9.549974047243671"><ele>71.0</ele><time>2026-04-18T10:26:35.003Z</time></trkpt><trkpt lat="45.04017834192006" lon="9.549970226134333"><ele>71.0</ele><time>2026-04-18T10:26:39.003Z</time></trkpt><trkpt lat="45.04017361323863" lon="9.549822248675538"><ele>71.0</ele><time>2026-04-18T10:26:40.003Z</time></trkpt><trkpt lat="45.04015003797803" lon="9.54969815248667"><ele>71.0</ele><time>2026-04-18T10:26:41.003Z</time></trkpt><trkpt lat="45.040120591383264" lon="9.549581958042491"><ele>70.8</ele><time>2026-04-18T10:26:42.003Z</time></trkpt><trkpt lat="45.040110194824905" lon="9.549462307716443"><ele>70.6</ele><time>2026-04-18T10:26:43.003Z</time></trkpt><trkpt lat="45.040063884040734" lon="9.549340704890795"><ele>70.4</ele><time>2026-04-18T10:26:44.003Z</time></trkpt><trkpt lat="45.04001040775776" lon="9.549200078714353"><ele>70.2</ele><time>2026-04-18T10:26:45.003Z</time></trkpt><trkpt lat="45.03992530875702" lon="9.549032697387975"><ele>70.0</ele><time>2026-04-18T10:26:45.998Z</time></trkpt><trkpt lat="45.03985665742175" lon="9.548911743950315"><ele>70.0</ele><time>2026-04-18T10:26:46.998Z</time></trkpt><trkpt lat="45.03978109125424" lon="9.548779583349203"><ele>70.0</ele><time>2026-04-18T10:26:47.998Z</time></trkpt><trkpt lat="45.0397088711058" lon="9.548635350784346"><ele>70.0</ele><time>2026-04-18T10:26:48.998Z</time></trkpt><trkpt lat="45.03963579760907" lon="9.548501420326367"><ele>70.0</ele><time>2026-04-18T10:26:49.998Z</time></trkpt><trkpt lat="45.039569770455394" lon="9.548385799678613"><ele>69.4</ele><time>2026-04-18T10:26:50.999Z</time></trkpt><trkpt lat="45.03950442702521" lon="9.548293423209593"><ele>68.8</ele><time>2026-04-18T10:26:51.999Z</time></trkpt><trkpt lat="45.03942753418047" lon="9.548236743790147"><ele>68.2</ele><time>2026-04-18T10:26:52.999Z</time></trkpt><trkpt lat="45.039330675431195" lon="9.548207650817552"><ele>67.6</ele><time>2026-04-18T10:26:53.999Z</time></trkpt><trkpt lat="45.03923251265309" lon="9.548204165624117"><ele>67.0</ele><time>2026-04-18T10:26:54.999Z</time></trkpt><trkpt lat="45.03914891597498" lon="9.548206595463986"><ele>67.4</ele><time>2026-04-18T10:26:55.999Z</time></trkpt><trkpt lat="45.03906855815547" lon="9.548216132778409"><ele>67.80000000000001</ele><time>2026-04-18T10:26:56.999Z</time></trkpt><trkpt lat="45.03897481741887" lon="9.548223957740799"><ele>68.2</ele><time>2026-04-18T10:26:57.999Z</time></trkpt><trkpt lat="45.03887374079391" lon="9.548205786276897"><ele>68.60000000000001</ele><time>2026-04-18T10:26:58.999Z</time></trkpt><trkpt lat="45.03876882820436" lon="9.54822637079332"><ele>69.0</ele><time>2026-04-18T10:26:59.999Z</time></trkpt><trkpt lat="45.038650496663664" lon="9.548219312837915"><ele>69.0</ele><time>2026-04-18T10:27:00.999Z</time></trkpt><trkpt lat="45.03850637466689" lon="9.548219437073206"><ele>69.0</ele><time>2026-04-18T10:27:01.999Z</time></trkpt><trkpt lat="45.03834541992671" lon="9.548221837830653"><ele>69.0</ele><time>2026-04-18T10:27:02.999Z</time></trkpt><trkpt lat="45.038177159523336" lon="9.548220123813199"><ele>69.66666666666667</ele><time>2026-04-18T10:27:03.999Z</time></trkpt><trkpt lat="45.038019501393954" lon="9.548215282776152"><ele>70.33333333333334</ele><time>2026-04-18T10:27:04.999Z</time></trkpt><trkpt lat="45.03785559911948" lon="9.548214365458987"><ele>71.0</ele><time>2026-04-18T10:27:06Z</time></trkpt><trkpt lat="45.037677783392425" lon="9.548211264944118"><ele>71.0</ele><time>2026-04-18T10:27:07Z</time></trkpt><trkpt lat="45.037494196584205" lon="9.548208432630656"><ele>71.0</ele><time>2026-04-18T10:27:08Z</time></trkpt><trkpt lat="45.03731000493943" lon="9.548206904626104"><ele>71.0</ele><time>2026-04-18T10:27:09Z</time></trkpt><trkpt lat="45.037129641635765" lon="9.548204392865586"><ele>70.66666666666667</ele><time>2026-04-18T10:27:10Z</time></trkpt><trkpt lat="45.03696042173503" lon="9.548202436514535"><ele>70.33333333333333</ele><time>2026-04-18T10:27:11Z</time></trkpt><trkpt lat="45.03678480368501" lon="9.548199202131505"><ele>70.0</ele><time>2026-04-18T10:27:12Z</time></trkpt><trkpt lat="45.0366062727525" lon="9.548200004279742"><ele>70.0</ele><time>2026-04-18T10:27:13Z</time></trkpt><trkpt lat="45.03641729314002" lon="9.54820420529506"><ele>70.0</ele><time>2026-04-18T10:27:14Z</time></trkpt><trkpt lat="45.03622912068187" lon="9.54820449663203"><ele>70.0</ele><time>2026-04-18T10:27:15Z</time></trkpt><trkpt lat="45.03603399550149" lon="9.548199916694037"><ele>70.0</ele><time>2026-04-18T10:27:16Z</time></trkpt><trkpt lat="45.03583585334177" lon="9.548194946086781"><ele>70.0</ele><time>2026-04-18T10:27:17Z</time></trkpt><trkpt lat="45.03563614545733" lon="9.548196913171356"><ele>70.0</ele><time>2026-04-18T10:27:18Z</time></trkpt><trkpt lat="45.035453165641734" lon="9.548196996795232"><ele>70.0</ele><time>2026-04-18T10:27:19Z</time></trkpt><trkpt lat="45.0352751947083" lon="9.548194895650681"><ele>70.0</ele><time>2026-04-18T10:27:20Z</time></trkpt><trkpt lat="45.0350962954969" lon="9.548191546628608"><ele>70.0</ele><time>2026-04-18T10:27:21Z</time></trkpt><trkpt lat="45.03492382897876" lon="9.548188860924242"><ele>70.0</ele><time>2026-04-18T10:27:22Z</time></trkpt><trkpt lat="45.03475164043088" lon="9.548186529905193"><ele>70.0</ele><time>2026-04-18T10:27:23Z</time></trkpt><trkpt lat="45.03458242263171" lon="9.548184407530133"><ele>70.0</ele><time>2026-04-18T10:27:24.001Z</time></trkpt><trkpt lat="45.034422430102296" lon="9.548181825011612"><ele>70.0</ele><time>2026-04-18T10:27:25.001Z</time></trkpt><trkpt lat="45.03426389319889" lon="9.548181352627322"><ele>70.0</ele><time>2026-04-18T10:27:26.001Z</time></trkpt><trkpt lat="45.03409635120164" lon="9.548182899122708"><ele>70.0</ele><time>2026-04-18T10:27:27.001Z</time></trkpt><trkpt lat="45.03393029835164" lon="9.54819308337063"><ele>70.0</ele><time>2026-04-18T10:27:28.001Z</time></trkpt><trkpt lat="45.03375305956585" lon="9.548224591102663"><ele>70.0</ele><time>2026-04-18T10:27:29.001Z</time></trkpt><trkpt lat="45.033564048038144" lon="9.548267941616945"><ele>70.0</ele><time>2026-04-18T10:27:30.001Z</time></trkpt><trkpt lat="45.033369698647356" lon="9.548314607408637"><ele>70.0</ele><time>2026-04-18T10:27:31.001Z</time></trkpt><trkpt lat="45.03316716092155" lon="9.548359992541512"><ele>70.0</ele><time>2026-04-18T10:27:32.001Z</time></trkpt><trkpt lat="45.03295895243758" lon="9.548407156283423"><ele>70.0</ele><time>2026-04-18T10:27:33.001Z</time></trkpt><trkpt lat="45.032756219578395" lon="9.548457385791675"><ele>70.0</ele><time>2026-04-18T10:27:34.001Z</time></trkpt><trkpt lat="45.03257221791889" lon="9.548501862370234"><ele>70.0</ele><time>2026-04-18T10:27:35.001Z</time></trkpt><trkpt lat="45.03241928087389" lon="9.548536854965212"><ele>70.0</ele><time>2026-04-18T10:27:36.001Z</time></trkpt><trkpt lat="45.032304648449525" lon="9.548562275838345"><ele>70.0</ele><time>2026-04-18T10:27:37.001Z</time></trkpt><trkpt lat="45.03222833028785" lon="9.548578410350009"><ele>70.0</ele><time>2026-04-18T10:27:38.001Z</time></trkpt><trkpt lat="45.03216296399346" lon="9.548604431938635"><ele>70.0</ele><time>2026-04-18T10:27:41.001Z</time></trkpt><trkpt lat="45.032251563669426" lon="9.548567625094503"><ele>70.0</ele><time>2026-04-18T10:27:53.002Z</time></trkpt><trkpt lat="45.03235408255112" lon="9.548587974834852"><ele>70.0</ele><time>2026-04-18T10:27:54.002Z</time></trkpt><trkpt lat="45.03244988209915" lon="9.54855162227626"><ele>70.0</ele><time>2026-04-18T10:27:55.002Z</time></trkpt><trkpt lat="45.03254137791204" lon="9.548530935088493"><ele>70.0</ele><time>2026-04-18T10:27:56.002Z</time></trkpt><trkpt lat="45.03265266406365" lon="9.548501912759022"><ele>70.0</ele><time>2026-04-18T10:27:57.002Z</time></trkpt><trkpt lat="45.03277555128184" lon="9.548470897312674"><ele>70.0</ele><time>2026-04-18T10:27:58.002Z</time></trkpt><trkpt lat="45.03288798619921" lon="9.548444535348745"><ele>70.0</ele><time>2026-04-18T10:27:59.002Z</time></trkpt><trkpt lat="45.03301193699924" lon="9.548415986561087"><ele>70.0</ele><time>2026-04-18T10:28:00.002Z</time></trkpt><trkpt lat="45.03314496057487" lon="9.54838196883659"><ele>70.0</ele><time>2026-04-18T10:28:01.002Z</time></trkpt><trkpt lat="45.03328402000538" lon="9.548347298702181"><ele>70.0</ele><time>2026-04-18T10:28:02.002Z</time></trkpt><trkpt lat="45.03341807617381" lon="9.548318678290435"><ele>70.0</ele><time>2026-04-18T10:28:03.002Z</time></trkpt><trkpt lat="45.03355062330486" lon="9.548286428783694"><ele>70.0</ele><time>2026-04-18T10:28:04.002Z</time></trkpt><trkpt lat="45.033668111894556" lon="9.548260299245488"><ele>70.0</ele><time>2026-04-18T10:28:05.002Z</time></trkpt><trkpt lat="45.033781318639235" lon="9.548238451903462"><ele>70.0</ele><time>2026-04-18T10:28:06.002Z</time></trkpt><trkpt lat="45.03388203802228" lon="9.548219638759873"><ele>70.0</ele><time>2026-04-18T10:28:07.002Z</time></trkpt><trkpt lat="45.03395380996804" lon="9.548200088177877"><ele>70.0</ele><time>2026-04-18T10:28:08.002Z</time></trkpt><trkpt lat="45.034016849491486" lon="9.548202862099373"><ele>70.0</ele><time>2026-04-18T10:28:11.002Z</time></trkpt><trkpt lat="45.03401465071859" lon="9.548057877968494"><ele>70.0</ele><time>2026-04-18T10:28:12.002Z</time></trkpt><trkpt lat="45.03401809538286" lon="9.547967148361076"><ele>70.0</ele><time>2026-04-18T10:28:21.002Z</time></trkpt><trkpt lat="45.034005796643314" lon="9.54784983263323"><ele>70.0</ele><time>2026-04-18T10:28:23.002Z</time></trkpt><trkpt lat="45.03401227736325" lon="9.547744151873527"><ele>70.0</ele><time>2026-04-18T10:28:24.003Z</time></trkpt><trkpt lat="45.03402043042126" lon="9.547621367540774"><ele>70.0</ele><time>2026-04-18T10:28:25.003Z</time></trkpt><trkpt lat="45.03402815935698" lon="9.547494791029544"><ele>70.0</ele><time>2026-04-18T10:28:26.003Z</time></trkpt><trkpt lat="45.0340385642711" lon="9.54733951024205"><ele>70.0</ele><time>2026-04-18T10:28:27.003Z</time></trkpt><trkpt lat="45.03404799176299" lon="9.547166177460552"><ele>70.0</ele><time>2026-04-18T10:28:28.003Z</time></trkpt><trkpt lat="45.03405950234517" lon="9.546988756025122"><ele>70.0</ele><time>2026-04-18T10:28:29.003Z</time></trkpt><trkpt lat="45.03406934982469" lon="9.546822842443136"><ele>70.0</ele><time>2026-04-18T10:28:30.003Z</time></trkpt><trkpt lat="45.03407936277136" lon="9.546643654421322"><ele>70.0</ele><time>2026-04-18T10:28:31.003Z</time></trkpt><trkpt lat="45.03409063514694" lon="9.546440123346885"><ele>70.0</ele><time>2026-04-18T10:28:32.003Z</time></trkpt><trkpt lat="45.034103834375856" lon="9.546230636925932"><ele>70.0</ele><time>2026-04-18T10:28:33.003Z</time></trkpt><trkpt lat="45.034116917600244" lon="9.545998452603635"><ele>70.33333333333333</ele><time>2026-04-18T10:28:34.003Z</time></trkpt><trkpt lat="45.03412998334422" lon="9.54579275109737"><ele>70.66666666666667</ele><time>2026-04-18T10:28:35.003Z</time></trkpt><trkpt lat="45.034141019642675" lon="9.545567175566559"><ele>71.0</ele><time>2026-04-18T10:28:36.003Z</time></trkpt><trkpt lat="45.03414999277247" lon="9.545333296109092"><ele>71.0</ele><time>2026-04-18T10:28:37.003Z</time></trkpt><trkpt lat="45.03416020527371" lon="9.545116925109282"><ele>71.0</ele><time>2026-04-18T10:28:38.003Z</time></trkpt><trkpt lat="45.03417375815052" lon="9.544899586618776"><ele>71.0</ele><time>2026-04-18T10:28:39.003Z</time></trkpt><trkpt lat="45.03418639343537" lon="9.54468717828594"><ele>70.66666666666667</ele><time>2026-04-18T10:28:40.003Z</time></trkpt><trkpt lat="45.034199391571164" lon="9.54447416571329"><ele>70.33333333333333</ele><time>2026-04-18T10:28:41.003Z</time></trkpt><trkpt lat="45.03421171853552" lon="9.544266609896512"><ele>70.0</ele><time>2026-04-18T10:28:42.003Z</time></trkpt><trkpt lat="45.03422319216753" lon="9.544051432783755"><ele>70.0</ele><time>2026-04-18T10:28:43.003Z</time></trkpt><trkpt lat="45.034233274476335" lon="9.54384819846442"><ele>70.0</ele><time>2026-04-18T10:28:44.003Z</time></trkpt><trkpt lat="45.03424443049196" lon="9.54364743116686"><ele>70.0</ele><time>2026-04-18T10:28:45.003Z</time></trkpt><trkpt lat="45.03425671897315" lon="9.543449907234134"><ele>70.0</ele><time>2026-04-18T10:28:46.003Z</time></trkpt><trkpt lat="45.034268655898465" lon="9.54326056955542"><ele>69.75</ele><time>2026-04-18T10:28:47.003Z</time></trkpt><trkpt lat="45.03427974622799" lon="9.543072336765611"><ele>69.5</ele><time>2026-04-18T10:28:48.003Z</time></trkpt><trkpt lat="45.0342897141306" lon="9.542882609572263"><ele>69.25</ele><time>2026-04-18T10:28:49.003Z</time></trkpt><trkpt lat="45.03430078655082" lon="9.5427111012324"><ele>69.0</ele><time>2026-04-18T10:28:50.003Z</time></trkpt><trkpt lat="45.03430992219584" lon="9.54256215976301"><ele>69.0</ele><time>2026-04-18T10:28:51.003Z</time></trkpt><trkpt lat="45.03431799080191" lon="9.542428956628212"><ele>69.0</ele><time>2026-04-18T10:28:51.998Z</time></trkpt><trkpt lat="45.034320336115556" lon="9.542303800885936"><ele>69.0</ele><time>2026-04-18T10:28:52.998Z</time></trkpt><trkpt lat="45.034308069501755" lon="9.54219107011955"><ele>69.0</ele><time>2026-04-18T10:28:53.998Z</time></trkpt><trkpt lat="45.034282767612545" lon="9.542083792319684"><ele>69.0</ele><time>2026-04-18T10:28:54.998Z</time></trkpt><trkpt lat="45.03424385009877" lon="9.541993916583744"><ele>69.0</ele><time>2026-04-18T10:28:55.998Z</time></trkpt><trkpt lat="45.034237036623" lon="9.541836371995588"><ele>69.0</ele><time>2026-04-18T10:28:57.999Z</time></trkpt><trkpt lat="45.03428383195849" lon="9.541678787663667"><ele>69.0</ele><time>2026-04-18T10:28:59.999Z</time></trkpt><trkpt lat="45.034309427810456" lon="9.541579935990391"><ele>69.0</ele><time>2026-04-18T10:29:00.999Z</time></trkpt><trkpt lat="45.03432453784033" lon="9.541473722981769"><ele>69.0</ele><time>2026-04-18T10:29:01.999Z</time></trkpt><trkpt lat="45.03432794344422" lon="9.541365401455089"><ele>69.0</ele><time>2026-04-18T10:29:02.999Z</time></trkpt><trkpt lat="45.03432044339435" lon="9.541251709440942"><ele>69.0</ele><time>2026-04-18T10:29:03.999Z</time></trkpt><trkpt lat="45.034297091670574" lon="9.541131817613008"><ele>69.16666666666667</ele><time>2026-04-18T10:29:04.999Z</time></trkpt><trkpt lat="45.03427426781136" lon="9.541011175396735"><ele>69.33333333333333</ele><time>2026-04-18T10:29:05.999Z</time></trkpt><trkpt lat="45.03426365716873" lon="9.540890039115672"><ele>69.5</ele><time>2026-04-18T10:29:06.999Z</time></trkpt><trkpt lat="45.034266939146285" lon="9.54078247013362"><ele>69.66666666666666</ele><time>2026-04-18T10:29:07.999Z</time></trkpt><trkpt lat="45.03427048272351" lon="9.540680493397291"><ele>69.83333333333333</ele><time>2026-04-18T10:29:08.999Z</time></trkpt><trkpt lat="45.03423973628615" lon="9.540583212174159"><ele>70.0</ele><time>2026-04-18T10:29:10.999Z</time></trkpt><trkpt lat="45.03417806815731" lon="9.54049696068048"><ele>70.4</ele><time>2026-04-18T10:29:13Z</time></trkpt><trkpt lat="45.034109688257416" lon="9.540514144026458"><ele>70.8</ele><time>2026-04-18T10:29:14Z</time></trkpt><trkpt lat="45.034035854090156" lon="9.54047407542145"><ele>71.2</ele><time>2026-04-18T10:29:16Z</time></trkpt><trkpt lat="45.034032082142325" lon="9.540337481686858"><ele>71.6</ele><time>2026-04-18T10:29:18Z</time></trkpt><trkpt lat="45.03404941321211" lon="9.540148663019295"><ele>72.0</ele><time>2026-04-18T10:29:20Z</time></trkpt><trkpt lat="45.03404832259319" lon="9.540012744679611"><ele>72.0</ele><time>2026-04-18T10:29:21Z</time></trkpt><trkpt lat="45.03404776332567" lon="9.539866204030549"><ele>72.0</ele><time>2026-04-18T10:29:22Z</time></trkpt><trkpt lat="45.03405066437221" lon="9.53973085072416"><ele>72.0</ele><time>2026-04-18T10:29:23Z</time></trkpt><trkpt lat="45.03406941447469" lon="9.53956895013799"><ele>72.0</ele><time>2026-04-18T10:29:24Z</time></trkpt><trkpt lat="45.03408355784405" lon="9.5393806240584"><ele>72.0</ele><time>2026-04-18T10:29:25Z</time></trkpt><trkpt lat="45.03410070089859" lon="9.539186312867423"><ele>72.0</ele><time>2026-04-18T10:29:26Z</time></trkpt><trkpt lat="45.03411663646" lon="9.53897456474411"><ele>72.0</ele><time>2026-04-18T10:29:27Z</time></trkpt><trkpt lat="45.034131790314284" lon="9.538762314290931"><ele>72.0</ele><time>2026-04-18T10:29:28Z</time></trkpt><trkpt lat="45.0341481525317" lon="9.538540455257866"><ele>72.0</ele><time>2026-04-18T10:29:29Z</time></trkpt><trkpt lat="45.03416394859289" lon="9.538322910249303"><ele>72.0</ele><time>2026-04-18T10:29:30Z</time></trkpt><trkpt lat="45.034178629342684" lon="9.538094688764447"><ele>72.0</ele><time>2026-04-18T10:29:31Z</time></trkpt><trkpt lat="45.03419482530392" lon="9.53786974951305"><ele>72.33333333333333</ele><time>2026-04-18T10:29:32.001Z</time></trkpt><trkpt lat="45.034209914471845" lon="9.53765409919805"><ele>72.66666666666666</ele><time>2026-04-18T10:29:33.001Z</time></trkpt><trkpt lat="45.0342262278038" lon="9.537428762850231"><ele>73.0</ele><time>2026-04-18T10:29:34.001Z</time></trkpt><trkpt lat="45.03424213167724" lon="9.537209382039894"><ele>72.5</ele><time>2026-04-18T10:29:35.001Z</time></trkpt><trkpt lat="45.034255753899245" lon="9.536995818099092"><ele>72.0</ele><time>2026-04-18T10:29:36.001Z</time></trkpt><trkpt lat="45.03426809138409" lon="9.536788876203842"><ele>71.5</ele><time>2026-04-18T10:29:37.001Z</time></trkpt><trkpt lat="45.03428184777911" lon="9.53659283110687"><ele>71.0</ele><time>2026-04-18T10:29:38.001Z</time></trkpt><trkpt lat="45.03429332643365" lon="9.536418547843676"><ele>71.0</ele><time>2026-04-18T10:29:39.001Z</time></trkpt><trkpt lat="45.03430676646202" lon="9.53624767715421"><ele>71.0</ele><time>2026-04-18T10:29:40.001Z</time></trkpt><trkpt lat="45.034318734612164" lon="9.536104121142976"><ele>71.0</ele><time>2026-04-18T10:29:41.001Z</time></trkpt><trkpt lat="45.03432915061161" lon="9.535987490489267"><ele>71.0</ele><time>2026-04-18T10:29:42.001Z</time></trkpt><trkpt lat="45.03433541149693" lon="9.53588437984522"><ele>71.0</ele><time>2026-04-18T10:29:43.001Z</time></trkpt><trkpt lat="45.0343350030999" lon="9.535744433287267"><ele>71.0</ele><time>2026-04-18T10:29:45.001Z</time></trkpt><trkpt lat="45.03425159231693" lon="9.535679100846718"><ele>71.0</ele><time>2026-04-18T10:29:48.001Z</time></trkpt><trkpt lat="45.03418634044238" lon="9.5357119674958"><ele>71.0</ele><time>2026-04-18T10:29:49.001Z</time></trkpt><trkpt lat="45.034104538734" lon="9.535697282765879"><ele>71.0</ele><time>2026-04-18T10:29:50.001Z</time></trkpt><trkpt lat="45.03400322519852" lon="9.535692646386435"><ele>71.0</ele><time>2026-04-18T10:29:51.001Z</time></trkpt><trkpt lat="45.03389435827535" lon="9.535689434391907"><ele>71.0</ele><time>2026-04-18T10:29:52.001Z</time></trkpt><trkpt lat="45.03375459392966" lon="9.535699650486455"><ele>71.0</ele><time>2026-04-18T10:29:53.001Z</time></trkpt><trkpt lat="45.03360533183017" lon="9.53570141433051"><ele>71.0</ele><time>2026-04-18T10:29:54.001Z</time></trkpt><trkpt lat="45.03344783987445" lon="9.535697131405449"><ele>71.0</ele><time>2026-04-18T10:29:55.001Z</time></trkpt><trkpt lat="45.033289422304364" lon="9.535694126368234"><ele>71.25</ele><time>2026-04-18T10:29:56.001Z</time></trkpt><trkpt lat="45.033136949487314" lon="9.535690601538047"><ele>71.5</ele><time>2026-04-18T10:29:57.001Z</time></trkpt><trkpt lat="45.033001233317194" lon="9.535688632253551"><ele>71.75</ele><time>2026-04-18T10:29:58.001Z</time></trkpt><trkpt lat="45.032870779708844" lon="9.535688175838034"><ele>72.0</ele><time>2026-04-18T10:29:59.001Z</time></trkpt><trkpt lat="45.03274246331376" lon="9.535685568079638"><ele>72.0</ele><time>2026-04-18T10:30:00.002Z</time></trkpt><trkpt lat="45.032615576849025" lon="9.535672897678916"><ele>72.0</ele><time>2026-04-18T10:30:01.002Z</time></trkpt><trkpt lat="45.03249359843691" lon="9.53561200629496"><ele>72.0</ele><time>2026-04-18T10:30:02.002Z</time></trkpt><trkpt lat="45.032364615447946" lon="9.535551082413225"><ele>72.0</ele><time>2026-04-18T10:30:03.002Z</time></trkpt><trkpt lat="45.03223198844941" lon="9.53550490215075"><ele>72.0</ele><time>2026-04-18T10:30:04.002Z</time></trkpt><trkpt lat="45.0321081009374" lon="9.535435849867476"><ele>72.0</ele><time>2026-04-18T10:30:05.002Z</time></trkpt><trkpt lat="45.03198535429305" lon="9.53536832571187"><ele>72.0</ele><time>2026-04-18T10:30:06.002Z</time></trkpt><trkpt lat="45.031863213145414" lon="9.535294966016727"><ele>72.0</ele><time>2026-04-18T10:30:07.002Z</time></trkpt><trkpt lat="45.0317462574849" lon="9.535221469610066"><ele>72.0</ele><time>2026-04-18T10:30:08.002Z</time></trkpt><trkpt lat="45.03163453552767" lon="9.535148422206893"><ele>72.0</ele><time>2026-04-18T10:30:09.002Z</time></trkpt><trkpt lat="45.03152551688197" lon="9.535076253810539"><ele>72.0</ele><time>2026-04-18T10:30:10.002Z</time></trkpt><trkpt lat="45.03141042009559" lon="9.535002129251032"><ele>72.0</ele><time>2026-04-18T10:30:11.002Z</time></trkpt><trkpt lat="45.03130433903716" lon="9.534928326185973"><ele>72.0</ele><time>2026-04-18T10:30:12.002Z</time></trkpt><trkpt lat="45.031198097840125" lon="9.534860138059427"><ele>72.0</ele><time>2026-04-18T10:30:13.002Z</time></trkpt><trkpt lat="45.03109499252106" lon="9.534795890796355"><ele>72.0</ele><time>2026-04-18T10:30:14.002Z</time></trkpt><trkpt lat="45.03099392415576" lon="9.534732908843434"><ele>72.0</ele><time>2026-04-18T10:30:15.002Z</time></trkpt><trkpt lat="45.03090152007404" lon="9.534664501433928"><ele>72.0</ele><time>2026-04-18T10:30:16.002Z</time></trkpt><trkpt lat="45.030806741856" lon="9.534610471156645"><ele>72.83333333333333</ele><time>2026-04-18T10:30:17.002Z</time></trkpt><trkpt lat="45.0307175371896" lon="9.534542218020377"><ele>73.66666666666667</ele><time>2026-04-18T10:30:18.002Z</time></trkpt><trkpt lat="45.030628954545826" lon="9.534484302402538"><ele>74.5</ele><time>2026-04-18T10:30:19.002Z</time></trkpt><trkpt lat="45.03055212481027" lon="9.534419956674379"><ele>75.33333333333334</ele><time>2026-04-18T10:30:20.002Z</time></trkpt><trkpt lat="45.030479887500256" lon="9.53437794772266"><ele>76.16666666666667</ele><time>2026-04-18T10:30:21.002Z</time></trkpt><trkpt lat="45.03041721722906" lon="9.534341862215388"><ele>77.0</ele><time>2026-04-18T10:30:22.002Z</time></trkpt><trkpt lat="45.03031031026987" lon="9.534328021242398"><ele>77.0</ele><time>2026-04-18T10:30:24.002Z</time></trkpt><trkpt lat="45.0302163659276" lon="9.534411613176275"><ele>77.0</ele><time>2026-04-18T10:30:26.002Z</time></trkpt><trkpt lat="45.030129948067945" lon="9.534529866452845"><ele>77.0</ele><time>2026-04-18T10:30:28.002Z</time></trkpt><trkpt lat="45.030061066753476" lon="9.534663924603388"><ele>77.0</ele><time>2026-04-18T10:30:30.002Z</time></trkpt><trkpt lat="45.030023081302645" lon="9.53473638960755"><ele>77.0</ele><time>2026-04-18T10:30:31.002Z</time></trkpt><trkpt lat="45.02998546952188" lon="9.534808141674405"><ele>76.6</ele><time>2026-04-18T10:30:32.003Z</time></trkpt><trkpt lat="45.02990656618056" lon="9.53495595606177"><ele>76.2</ele><time>2026-04-18T10:30:34.003Z</time></trkpt><trkpt lat="45.029841628480604" lon="9.535103690190764"><ele>75.8</ele><time>2026-04-18T10:30:36.003Z</time></trkpt><trkpt lat="45.02979491852513" lon="9.535168962002906"><ele>75.4</ele><time>2026-04-18T10:30:37.003Z</time></trkpt><trkpt lat="45.029718977538494" lon="9.535282195145546"><ele>75.0</ele><time>2026-04-18T10:30:39.003Z</time></trkpt><trkpt lat="45.02966706111057" lon="9.535365030159008"><ele>74.8</ele><time>2026-04-18T10:30:41.003Z</time></trkpt><trkpt lat="45.029594185395474" lon="9.535458574879128"><ele>74.6</ele><time>2026-04-18T10:30:44.003Z</time></trkpt><trkpt lat="45.02953536414497" lon="9.535618663700761"><ele>74.4</ele><time>2026-04-18T10:30:46.003Z</time></trkpt><trkpt lat="45.02949359553756" lon="9.535700664825777"><ele>74.2</ele><time>2026-04-18T10:30:47.003Z</time></trkpt><trkpt lat="45.029482833592475" lon="9.535840542842198"><ele>74.0</ele><time>2026-04-18T10:30:48.003Z</time></trkpt><trkpt lat="45.02944647415156" lon="9.536006653286059"><ele>74.0</ele><time>2026-04-18T10:30:49.003Z</time></trkpt><trkpt lat="45.02942436763091" lon="9.53621807749833"><ele>74.0</ele><time>2026-04-18T10:30:50.003Z</time></trkpt><trkpt lat="45.02940515936932" lon="9.536424733243214"><ele>74.0</ele><time>2026-04-18T10:30:51.003Z</time></trkpt><trkpt lat="45.029385393119306" lon="9.536671176692037"><ele>73.75</ele><time>2026-04-18T10:30:52.003Z</time></trkpt><trkpt lat="45.0293870104869" lon="9.536886275832334"><ele>73.5</ele><time>2026-04-18T10:30:53.003Z</time></trkpt><trkpt lat="45.02937350598938" lon="9.53708128095379"><ele>73.25</ele><time>2026-04-18T10:30:54.003Z</time></trkpt><trkpt lat="45.029362567408256" lon="9.537270099267058"><ele>73.0</ele><time>2026-04-18T10:30:55.003Z</time></trkpt><trkpt lat="45.02935348287351" lon="9.537457554957733"><ele>73.0</ele><time>2026-04-18T10:30:56.003Z</time></trkpt><trkpt lat="45.029326248692534" lon="9.537627889782854"><ele>73.0</ele><time>2026-04-18T10:30:57.003Z</time></trkpt><trkpt lat="45.02931671231545" lon="9.537782149135683"><ele>73.0</ele><time>2026-04-18T10:30:57.997Z</time></trkpt><trkpt lat="45.029317178015695" lon="9.537936688889955"><ele>73.0</ele><time>2026-04-18T10:30:58.997Z</time></trkpt><trkpt lat="45.029309704204714" lon="9.538083554602503"><ele>73.0</ele><time>2026-04-18T10:30:59.997Z</time></trkpt><trkpt lat="45.029300174470066" lon="9.538221715120194"><ele>73.0</ele><time>2026-04-18T10:31:00.998Z</time></trkpt><trkpt lat="45.02928717563408" lon="9.538355223403569"><ele>73.0</ele><time>2026-04-18T10:31:01.998Z</time></trkpt><trkpt lat="45.02928909242" lon="9.538484336516682"><ele>73.0</ele><time>2026-04-18T10:31:02.998Z</time></trkpt><trkpt lat="45.02929614148566" lon="9.538602476076592"><ele>73.0</ele><time>2026-04-18T10:31:03.998Z</time></trkpt><trkpt lat="45.0293118267014" lon="9.538727482293703"><ele>73.0</ele><time>2026-04-18T10:31:04.998Z</time></trkpt><trkpt lat="45.02932627302796" lon="9.538842694771429"><ele>73.0</ele><time>2026-04-18T10:31:05.998Z</time></trkpt><trkpt lat="45.02934284743477" lon="9.53894073509512"><ele>73.0</ele><time>2026-04-18T10:31:06.998Z</time></trkpt><trkpt lat="45.029318602211966" lon="9.53911697167319"><ele>73.0</ele><time>2026-04-18T10:31:08.999Z</time></trkpt><trkpt lat="45.02929163948116" lon="9.539215492079972"><ele>73.0</ele><time>2026-04-18T10:31:09.999Z</time></trkpt><trkpt lat="45.02924678313298" lon="9.53935741755838"><ele>73.0</ele><time>2026-04-18T10:31:10.999Z</time></trkpt><trkpt lat="45.0291973073436" lon="9.539521125583303"><ele>73.0</ele><time>2026-04-18T10:31:11.999Z</time></trkpt><trkpt lat="45.02914611738502" lon="9.539692062373717"><ele>73.0</ele><time>2026-04-18T10:31:12.999Z</time></trkpt><trkpt lat="45.02910341764536" lon="9.539826365337738"><ele>73.0</ele><time>2026-04-18T10:31:13.999Z</time></trkpt><trkpt lat="45.02906995046044" lon="9.539948565441225"><ele>73.0</ele><time>2026-04-18T10:31:14.999Z</time></trkpt><trkpt lat="45.029024070061915" lon="9.540091767545555"><ele>73.0</ele><time>2026-04-18T10:31:15.999Z</time></trkpt><trkpt lat="45.02901856781848" lon="9.540264766369997"><ele>73.0</ele><time>2026-04-18T10:31:16.999Z</time></trkpt><trkpt lat="45.029006986233654" lon="9.540445095790613"><ele>73.33333333333333</ele><time>2026-04-18T10:31:17.999Z</time></trkpt><trkpt lat="45.02900240525172" lon="9.5406528002476"><ele>73.66666666666667</ele><time>2026-04-18T10:31:18.999Z</time></trkpt><trkpt lat="45.02899725678752" lon="9.540893244520701"><ele>74.0</ele><time>2026-04-18T10:31:19.999Z</time></trkpt><trkpt lat="45.028999173395135" lon="9.541124061378225"><ele>74.66666666666667</ele><time>2026-04-18T10:31:21Z</time></trkpt><trkpt lat="45.02899241993519" lon="9.541331654744774"><ele>75.33333333333333</ele><time>2026-04-18T10:31:22Z</time></trkpt><trkpt lat="45.02898753425711" lon="9.541539262054814"><ele>76.0</ele><time>2026-04-18T10:31:23Z</time></trkpt><trkpt lat="45.028967847965916" lon="9.541761111530647"><ele>76.0</ele><time>2026-04-18T10:31:24Z</time></trkpt><trkpt lat="45.02893202471036" lon="9.541984701875421"><ele>76.0</ele><time>2026-04-18T10:31:25Z</time></trkpt><trkpt lat="45.02888722272508" lon="9.542218076739525"><ele>76.0</ele><time>2026-04-18T10:31:26Z</time></trkpt><trkpt lat="45.02883988089359" lon="9.542434219942878"><ele>75.39999999999999</ele><time>2026-04-18T10:31:27Z</time></trkpt><trkpt lat="45.028790488139784" lon="9.542650015937737"><ele>74.8</ele><time>2026-04-18T10:31:28Z</time></trkpt><trkpt lat="45.02875046847476" lon="9.542832537022326"><ele>74.19999999999999</ele><time>2026-04-18T10:31:29Z</time></trkpt><trkpt lat="45.028728628658506" lon="9.542942031258296"><ele>73.6</ele><time>2026-04-18T10:31:30Z</time></trkpt><trkpt lat="45.02868722649546" lon="9.543025526982218"><ele>73.0</ele><time>2026-04-18T10:31:32Z</time></trkpt><trkpt lat="45.028603879067994" lon="9.542988724473807"><ele>73.0</ele><time>2026-04-18T10:31:34Z</time></trkpt><trkpt lat="45.028519714370255" lon="9.543006754048609"><ele>73.0</ele><time>2026-04-18T10:31:35Z</time></trkpt><trkpt lat="45.028401029440204" lon="9.54299443673183"><ele>73.0</ele><time>2026-04-18T10:31:36Z</time></trkpt><trkpt lat="45.02829053775651" lon="9.542996609481015"><ele>73.0</ele><time>2026-04-18T10:31:37Z</time></trkpt><trkpt lat="45.02818077855124" lon="9.543015076658767"><ele>73.0</ele><time>2026-04-18T10:31:38Z</time></trkpt><trkpt lat="45.02804635454143" lon="9.543016127973386"><ele>72.66666666666666</ele><time>2026-04-18T10:31:39.001Z</time></trkpt><trkpt lat="45.027902032613866" lon="9.543017719653236"><ele>72.33333333333333</ele><time>2026-04-18T10:31:40.001Z</time></trkpt><trkpt lat="45.02774755020489" lon="9.543025567448806"><ele>72.0</ele><time>2026-04-18T10:31:41.001Z</time></trkpt><trkpt lat="45.02759499662103" lon="9.543033006566858"><ele>72.0</ele><time>2026-04-18T10:31:42.001Z</time></trkpt><trkpt lat="45.027457203285714" lon="9.543038741974001"><ele>72.0</ele><time>2026-04-18T10:31:43.001Z</time></trkpt><trkpt lat="45.02730800429013" lon="9.543044619710932"><ele>72.0</ele><time>2026-04-18T10:31:44.001Z</time></trkpt><trkpt lat="45.0271606767432" lon="9.543050072111049"><ele>72.0</ele><time>2026-04-18T10:31:45.001Z</time></trkpt><trkpt lat="45.02701151745807" lon="9.543054416242937"><ele>72.0</ele><time>2026-04-18T10:31:46.001Z</time></trkpt><trkpt lat="45.02687079065993" lon="9.543057326026961"><ele>72.0</ele><time>2026-04-18T10:31:47.001Z</time></trkpt><trkpt lat="45.02673562678129" lon="9.543058122857486"><ele>72.0</ele><time>2026-04-18T10:31:48.001Z</time></trkpt><trkpt lat="45.02660661959137" lon="9.543061681094093"><ele>72.0</ele><time>2026-04-18T10:31:49.001Z</time></trkpt><trkpt lat="45.026475092775975" lon="9.543072583426154"><ele>72.5</ele><time>2026-04-18T10:31:50.001Z</time></trkpt><trkpt lat="45.02632780199513" lon="9.543073791830048"><ele>73.0</ele><time>2026-04-18T10:31:51.001Z</time></trkpt><trkpt lat="45.026209463278974" lon="9.54307803785492"><ele>73.5</ele><time>2026-04-18T10:31:52.001Z</time></trkpt><trkpt lat="45.026094851096104" lon="9.543063826436175"><ele>74.0</ele><time>2026-04-18T10:31:53.001Z</time></trkpt><trkpt lat="45.02598886066985" lon="9.543084498663992"><ele>74.0</ele><time>2026-04-18T10:31:54.001Z</time></trkpt><trkpt lat="45.025897074778904" lon="9.543063826434725"><ele>74.0</ele><time>2026-04-18T10:31:55.001Z</time></trkpt><trkpt lat="45.025810998621495" lon="9.543087260960288"><ele>74.0</ele><time>2026-04-18T10:31:56.001Z</time></trkpt><trkpt lat="45.0257350353897" lon="9.543079024571078"><ele>74.0</ele><time>2026-04-18T10:31:57.001Z</time></trkpt><trkpt lat="45.02565769133448" lon="9.54307042489823"><ele>74.0</ele><time>2026-04-18T10:31:58.001Z</time></trkpt><trkpt lat="45.025586502215944" lon="9.543084147396451"><ele>74.0</ele><time>2026-04-18T10:31:59.001Z</time></trkpt><trkpt lat="45.0255174251265" lon="9.54309201887413"><ele>74.75</ele><time>2026-04-18T10:32:00.001Z</time></trkpt><trkpt lat="45.025418584830696" lon="9.54293798695614"><ele>75.5</ele><time>2026-04-18T10:32:01.001Z</time></trkpt><trkpt lat="45.02531479079082" lon="9.542926058752949"><ele>76.25</ele><time>2026-04-18T10:32:02.001Z</time></trkpt><trkpt lat="45.02520381174282" lon="9.542913704997694"><ele>77.0</ele><time>2026-04-18T10:32:03.001Z</time></trkpt><trkpt lat="45.02509882199451" lon="9.54290171908474"><ele>77.0</ele><time>2026-04-18T10:32:04.001Z</time></trkpt><trkpt lat="45.02499403226218" lon="9.54289061618468"><ele>77.0</ele><time>2026-04-18T10:32:05.001Z</time></trkpt><trkpt lat="45.024892208944934" lon="9.54287436948376"><ele>77.0</ele><time>2026-04-18T10:32:06.002Z</time></trkpt><trkpt lat="45.02480085914642" lon="9.542862083904222"><ele>77.0</ele><time>2026-04-18T10:32:07.002Z</time></trkpt><trkpt lat="45.02471642973599" lon="9.542851715488482"><ele>77.0</ele><time>2026-04-18T10:32:08.002Z</time></trkpt><trkpt lat="45.02463959456202" lon="9.542843333256137"><ele>76.83333333333334</ele><time>2026-04-18T10:32:09.002Z</time></trkpt><trkpt lat="45.02456905319286" lon="9.542833145072102"><ele>76.66666666666667</ele><time>2026-04-18T10:32:10.002Z</time></trkpt><trkpt lat="45.02448500268264" lon="9.542795555595243"><ele>76.5</ele><time>2026-04-18T10:32:12.002Z</time></trkpt><trkpt lat="45.02446157144121" lon="9.542685740262415"><ele>76.33333333333333</ele><time>2026-04-18T10:32:14.002Z</time></trkpt><trkpt lat="45.02449345291608" lon="9.542529964877339"><ele>76.16666666666666</ele><time>2026-04-18T10:32:16.002Z</time></trkpt><trkpt lat="45.02450998393703" lon="9.54244132363518"><ele>76.0</ele><time>2026-04-18T10:32:17.002Z</time></trkpt><trkpt lat="45.02449870880252" lon="9.54232016426967"><ele>76.0</ele><time>2026-04-18T10:32:19.002Z</time></trkpt><trkpt lat="45.02441809822641" lon="9.5422597795339"><ele>76.0</ele><time>2026-04-18T10:32:21.002Z</time></trkpt><trkpt lat="45.02429977502909" lon="9.542234751567946"><ele>76.0</ele><time>2026-04-18T10:32:23.002Z</time></trkpt><trkpt lat="45.024192233743996" lon="9.542195503835252"><ele>76.0</ele><time>2026-04-18T10:32:25.002Z</time></trkpt><trkpt lat="45.0240879684008" lon="9.542159093058077"><ele>76.0</ele><time>2026-04-18T10:32:27.002Z</time></trkpt><trkpt lat="45.02402029820219" lon="9.542134840014919"><ele>75.8</ele><time>2026-04-18T10:32:28.002Z</time></trkpt><trkpt lat="45.02392921416532" lon="9.542104781391968"><ele>75.6</ele><time>2026-04-18T10:32:29.002Z</time></trkpt><trkpt lat="45.02383458725834" lon="9.542071236634282"><ele>75.4</ele><time>2026-04-18T10:32:30.002Z</time></trkpt><trkpt lat="45.02373295160583" lon="9.54203423492245"><ele>75.2</ele><time>2026-04-18T10:32:31.002Z</time></trkpt><trkpt lat="45.023626271139285" lon="9.541996416656882"><ele>75.0</ele><time>2026-04-18T10:32:32.002Z</time></trkpt><trkpt lat="45.023506198541256" lon="9.541956011568685"><ele>75.0</ele><time>2026-04-18T10:32:33.002Z</time></trkpt><trkpt lat="45.02338640012719" lon="9.541918551323546"><ele>75.0</ele><time>2026-04-18T10:32:34.002Z</time></trkpt><trkpt lat="45.023265993783426" lon="9.541878246194957"><ele>75.0</ele><time>2026-04-18T10:32:35.002Z</time></trkpt><trkpt lat="45.023145876535615" lon="9.541838358271933"><ele>75.0</ele><time>2026-04-18T10:32:36.002Z</time></trkpt><trkpt lat="45.0230212748699" lon="9.541796760951085"><ele>75.0</ele><time>2026-04-18T10:32:37.002Z</time></trkpt><trkpt lat="45.022900339808395" lon="9.541756986511206"><ele>75.0</ele><time>2026-04-18T10:32:38.003Z</time></trkpt><trkpt lat="45.02279078792925" lon="9.541719557992947"><ele>75.0</ele><time>2026-04-18T10:32:39.003Z</time></trkpt><trkpt lat="45.02268958866733" lon="9.541684875602675"><ele>75.0</ele><time>2026-04-18T10:32:40.003Z</time></trkpt><trkpt lat="45.022587245748106" lon="9.541651792558444"><ele>75.0</ele><time>2026-04-18T10:32:41.003Z</time></trkpt><trkpt lat="45.02248706672625" lon="9.54162103229067"><ele>75.33333333333333</ele><time>2026-04-18T10:32:42.003Z</time></trkpt><trkpt lat="45.02238834279774" lon="9.541588477092214"><ele>75.66666666666667</ele><time>2026-04-18T10:32:43.003Z</time></trkpt><trkpt lat="45.02230725335543" lon="9.54156394722107"><ele>76.0</ele><time>2026-04-18T10:32:44.003Z</time></trkpt><trkpt lat="45.02222966415153" lon="9.541555491667342"><ele>76.33333333333334</ele><time>2026-04-18T10:32:45.003Z</time></trkpt><trkpt lat="45.02215744553666" lon="9.54157906906883"><ele>76.66666666666667</ele><time>2026-04-18T10:32:46.003Z</time></trkpt><trkpt lat="45.02208189789981" lon="9.541625425274793"><ele>77.0</ele><time>2026-04-18T10:32:47.003Z</time></trkpt><trkpt lat="45.02200114276561" lon="9.541678499362634"><ele>77.0</ele><time>2026-04-18T10:32:48.003Z</time></trkpt><trkpt lat="45.02191854170907" lon="9.54172428878332"><ele>77.0</ele><time>2026-04-18T10:32:49.003Z</time></trkpt><trkpt lat="45.02184143547957" lon="9.541761448413336"><ele>77.0</ele><time>2026-04-18T10:32:50.003Z</time></trkpt><trkpt lat="45.021772049256924" lon="9.541796736205642"><ele>77.0</ele><time>2026-04-18T10:32:51.003Z</time></trkpt><trkpt lat="45.021710012888" lon="9.54183036895455"><ele>77.0</ele><time>2026-04-18T10:32:52.003Z</time></trkpt><trkpt lat="45.02164966189121" lon="9.541869380479405"><ele>77.0</ele><time>2026-04-18T10:32:53.003Z</time></trkpt><trkpt lat="45.021569132765975" lon="9.541921316029338"><ele>77.0</ele><time>2026-04-18T10:32:55.003Z</time></trkpt><trkpt lat="45.02148630026454" lon="9.541918740043714"><ele>77.0</ele><time>2026-04-18T10:32:59.003Z</time></trkpt><trkpt lat="45.02144292465046" lon="9.541817345881723"><ele>77.0</ele><time>2026-04-18T10:33:01.003Z</time></trkpt><trkpt lat="45.02141722398974" lon="9.541709589541998"><ele>77.0</ele><time>2026-04-18T10:33:02.003Z</time></trkpt><trkpt lat="45.0213813784992" lon="9.541599714095144"><ele>77.0</ele><time>2026-04-18T10:33:03.003Z</time></trkpt><trkpt lat="45.0213315035532" lon="9.54148638725567"><ele>77.0</ele><time>2026-04-18T10:33:03.998Z</time></trkpt><trkpt lat="45.021274304392" lon="9.541354553312578"><ele>77.0</ele><time>2026-04-18T10:33:04.998Z</time></trkpt><trkpt lat="45.02121993172953" lon="9.541232107806877"><ele>77.0</ele><time>2026-04-18T10:33:05.998Z</time></trkpt><trkpt lat="45.021155653331896" lon="9.541097394147661"><ele>77.0</ele><time>2026-04-18T10:33:06.998Z</time></trkpt><trkpt lat="45.02108542796567" lon="9.540945953449995"><ele>77.0</ele><time>2026-04-18T10:33:07.998Z</time></trkpt><trkpt lat="45.02101703520354" lon="9.540792823152396"><ele>76.75</ele><time>2026-04-18T10:33:08.999Z</time></trkpt><trkpt lat="45.02094481914712" lon="9.540632327433304"><ele>76.5</ele><time>2026-04-18T10:33:09.999Z</time></trkpt><trkpt lat="45.020880020789775" lon="9.54049064547566"><ele>76.25</ele><time>2026-04-18T10:33:10.999Z</time></trkpt><trkpt lat="45.02082085505367" lon="9.540348741554023"><ele>76.0</ele><time>2026-04-18T10:33:11.999Z</time></trkpt><trkpt lat="45.02076145332982" lon="9.540205494896703"><ele>76.39999999999999</ele><time>2026-04-18T10:33:12.999Z</time></trkpt><trkpt lat="45.02069791599437" lon="9.540072238808541"><ele>76.8</ele><time>2026-04-18T10:33:13.999Z</time></trkpt><trkpt lat="45.020637640577945" lon="9.539943726690954"><ele>77.19999999999999</ele><time>2026-04-18T10:33:14.999Z</time></trkpt><trkpt lat="45.02058605648133" lon="9.539819457941446"><ele>77.6</ele><time>2026-04-18T10:33:15.999Z</time></trkpt><trkpt lat="45.02053953631289" lon="9.539703874644681"><ele>78.0</ele><time>2026-04-18T10:33:16.999Z</time></trkpt><trkpt lat="45.020497506231486" lon="9.539590784230345"><ele>78.0</ele><time>2026-04-18T10:33:17.999Z</time></trkpt><trkpt lat="45.02045401639545" lon="9.539479511657516"><ele>78.0</ele><time>2026-04-18T10:33:18.999Z</time></trkpt><trkpt lat="45.02039759778666" lon="9.539376321636183"><ele>78.0</ele><time>2026-04-18T10:33:19.999Z</time></trkpt><trkpt lat="45.02033549601818" lon="9.539288036414586"><ele>78.0</ele><time>2026-04-18T10:33:20.999Z</time></trkpt><trkpt lat="45.020271474582195" lon="9.53920893400783"><ele>78.0</ele><time>2026-04-18T10:33:21.999Z</time></trkpt><trkpt lat="45.02019395070738" lon="9.539150642488073"><ele>78.0</ele><time>2026-04-18T10:33:23Z</time></trkpt><trkpt lat="45.020106234934474" lon="9.539110073921282"><ele>78.0</ele><time>2026-04-18T10:33:24Z</time></trkpt><trkpt lat="45.02000433410346" lon="9.53907991568"><ele>78.0</ele><time>2026-04-18T10:33:25Z</time></trkpt><trkpt lat="45.01988961647335" lon="9.539042344302974"><ele>78.0</ele><time>2026-04-18T10:33:26Z</time></trkpt><trkpt lat="45.01976579831122" lon="9.538996254790582"><ele>78.0</ele><time>2026-04-18T10:33:27Z</time></trkpt><trkpt lat="45.019635247968345" lon="9.53893708890101"><ele>77.66666666666667</ele><time>2026-04-18T10:33:28Z</time></trkpt><trkpt lat="45.019495636451616" lon="9.538889513464845"><ele>77.33333333333334</ele><time>2026-04-18T10:33:29Z</time></trkpt><trkpt lat="45.01935358506546" lon="9.538833556621451"><ele>77.0</ele><time>2026-04-18T10:33:30Z</time></trkpt><trkpt lat="45.019182161366786" lon="9.538763602293272"><ele>77.0</ele><time>2026-04-18T10:33:31Z</time></trkpt><trkpt lat="45.01899255241806" lon="9.538686552612571"><ele>77.0</ele><time>2026-04-18T10:33:32Z</time></trkpt><trkpt lat="45.018824208443476" lon="9.538619661654165"><ele>77.0</ele><time>2026-04-18T10:33:33Z</time></trkpt><trkpt lat="45.01867544330412" lon="9.538559325257646"><ele>77.0</ele><time>2026-04-18T10:33:34Z</time></trkpt><trkpt lat="45.018541247997504" lon="9.538502320861005"><ele>77.0</ele><time>2026-04-18T10:33:35Z</time></trkpt><trkpt lat="45.01842257126067" lon="9.538453048982934"><ele>77.0</ele><time>2026-04-18T10:33:36Z</time></trkpt><trkpt lat="45.01830598239565" lon="9.538403498330005"><ele>77.0</ele><time>2026-04-18T10:33:37Z</time></trkpt><trkpt lat="45.01819431693888" lon="9.538355897105367"><ele>77.0</ele><time>2026-04-18T10:33:38Z</time></trkpt><trkpt lat="45.01808426659562" lon="9.538314358275143"><ele>77.0</ele><time>2026-04-18T10:33:39Z</time></trkpt><trkpt lat="45.017979375649645" lon="9.538287777902157"><ele>77.0</ele><time>2026-04-18T10:33:40Z</time></trkpt><trkpt lat="45.01788100510593" lon="9.538288382398841"><ele>77.0</ele><time>2026-04-18T10:33:41.001Z</time></trkpt><trkpt lat="45.017776217447874" lon="9.53830883089564"><ele>77.0</ele><time>2026-04-18T10:33:42.001Z</time></trkpt><trkpt lat="45.01766000723693" lon="9.538349720436972"><ele>77.0</ele><time>2026-04-18T10:33:43.001Z</time></trkpt><trkpt lat="45.01752867771496" lon="9.538394802408458"><ele>77.0</ele><time>2026-04-18T10:33:44.001Z</time></trkpt><trkpt lat="45.01741614334456" lon="9.538432928340026"><ele>77.0</ele><time>2026-04-18T10:33:45.001Z</time></trkpt><trkpt lat="45.0173087545641" lon="9.538443339134068"><ele>77.0</ele><time>2026-04-18T10:33:46.001Z</time></trkpt><trkpt lat="45.01721065851982" lon="9.538483581110523"><ele>76.83333333333334</ele><time>2026-04-18T10:33:47.001Z</time></trkpt><trkpt lat="45.017120683901055" lon="9.538502888800961"><ele>76.66666666666667</ele><time>2026-04-18T10:33:48.001Z</time></trkpt><trkpt lat="45.01705171165171" lon="9.538514482204302"><ele>76.5</ele><time>2026-04-18T10:33:49.001Z</time></trkpt><trkpt lat="45.016982425048084" lon="9.538503946033995"><ele>76.33333333333333</ele><time>2026-04-18T10:33:51.001Z</time></trkpt><trkpt lat="45.016964864329445" lon="9.53835091620449"><ele>76.16666666666666</ele><time>2026-04-18T10:33:54.001Z</time></trkpt><trkpt lat="45.01696037976168" lon="9.538246741727987"><ele>76.0</ele><time>2026-04-18T10:33:55.001Z</time></trkpt><trkpt lat="45.016946967806554" lon="9.538117704149194"><ele>76.0</ele><time>2026-04-18T10:33:56.001Z</time></trkpt><trkpt lat="45.01693351993687" lon="9.537990666430758"><ele>76.0</ele><time>2026-04-18T10:33:57.001Z</time></trkpt><trkpt lat="45.01691819318819" lon="9.537845065511016"><ele>76.0</ele><time>2026-04-18T10:33:58.001Z</time></trkpt><trkpt lat="45.0168976482044" lon="9.537667707015292"><ele>76.0</ele><time>2026-04-18T10:33:59.001Z</time></trkpt><trkpt lat="45.01688268511875" lon="9.537512738067324"><ele>76.0</ele><time>2026-04-18T10:34:00.001Z</time></trkpt><trkpt lat="45.01686497435723" lon="9.537350899139378"><ele>76.0</ele><time>2026-04-18T10:34:01.001Z</time></trkpt><trkpt lat="45.0168486217328" lon="9.537162434438654"><ele>76.0</ele><time>2026-04-18T10:34:02.001Z</time></trkpt><trkpt lat="45.01682867679994" lon="9.536962969069148"><ele>76.0</ele><time>2026-04-18T10:34:03.001Z</time></trkpt><trkpt lat="45.01680756165201" lon="9.536750938306746"><ele>76.0</ele><time>2026-04-18T10:34:04.001Z</time></trkpt><trkpt lat="45.01678639580144" lon="9.53653378424415"><ele>76.33333333333333</ele><time>2026-04-18T10:34:05.001Z</time></trkpt><trkpt lat="45.016766802406224" lon="9.536325463943841"><ele>76.66666666666667</ele><time>2026-04-18T10:34:06.001Z</time></trkpt><trkpt lat="45.01674670850904" lon="9.536107658204143"><ele>77.0</ele><time>2026-04-18T10:34:07.001Z</time></trkpt><trkpt lat="45.01672336685535" lon="9.535880930313159"><ele>77.33333333333334</ele><time>2026-04-18T10:34:08.001Z</time></trkpt><trkpt lat="45.01669898256892" lon="9.535644260675255"><ele>77.66666666666667</ele><time>2026-04-18T10:34:09.002Z</time></trkpt><trkpt lat="45.01667718491213" lon="9.53539985287877"><ele>78.0</ele><time>2026-04-18T10:34:10.002Z</time></trkpt><trkpt lat="45.016654604594414" lon="9.535152639608405"><ele>78.0</ele><time>2026-04-18T10:34:11.002Z</time></trkpt><trkpt lat="45.01663161706947" lon="9.534920060130467"><ele>78.0</ele><time>2026-04-18T10:34:12.002Z</time></trkpt><trkpt lat="45.01660966358872" lon="9.53469363467973"><ele>78.0</ele><time>2026-04-18T10:34:13.002Z</time></trkpt><trkpt lat="45.01658699180587" lon="9.53445875554184"><ele>79.33333333333333</ele><time>2026-04-18T10:34:14.002Z</time></trkpt><trkpt lat="45.01656512514069" lon="9.534218666227588"><ele>80.66666666666666</ele><time>2026-04-18T10:34:15.002Z</time></trkpt><trkpt lat="45.0165489063742" lon="9.533974803940211"><ele>82.0</ele><time>2026-04-18T10:34:16.002Z</time></trkpt><trkpt lat="45.01654224077808" lon="9.533726091762365"><ele>81.66666666666666</ele><time>2026-04-18T10:34:17.002Z</time></trkpt><trkpt lat="45.01655002768208" lon="9.533478528383702"><ele>81.33333333333333</ele><time>2026-04-18T10:34:18.002Z</time></trkpt><trkpt lat="45.01657450433509" lon="9.533230678429666"><ele>81.0</ele><time>2026-04-18T10:34:19.002Z</time></trkpt><trkpt lat="45.016608095701606" lon="9.532982039698846"><ele>81.0</ele><time>2026-04-18T10:34:20.002Z</time></trkpt><trkpt lat="45.01664690911407" lon="9.532732794974182"><ele>81.0</ele><time>2026-04-18T10:34:21.002Z</time></trkpt><trkpt lat="45.0166868380625" lon="9.532483142014335"><ele>81.0</ele><time>2026-04-18T10:34:22.002Z</time></trkpt><trkpt lat="45.01672584470891" lon="9.5322277352185"><ele>82.0</ele><time>2026-04-18T10:34:23.002Z</time></trkpt><trkpt lat="45.016757072077596" lon="9.531969849160406"><ele>83.0</ele><time>2026-04-18T10:34:24.002Z</time></trkpt><trkpt lat="45.01677745112581" lon="9.531711430602765"><ele>84.0</ele><time>2026-04-18T10:34:25.002Z</time></trkpt><trkpt lat="45.01679427243666" lon="9.531437465008148"><ele>83.33333333333333</ele><time>2026-04-18T10:34:26.002Z</time></trkpt><trkpt lat="45.01681250596216" lon="9.531159152133446"><ele>82.66666666666666</ele><time>2026-04-18T10:34:27.002Z</time></trkpt><trkpt lat="45.016830510597224" lon="9.530886540328922"><ele>82.0</ele><time>2026-04-18T10:34:28.002Z</time></trkpt><trkpt lat="45.01684563498803" lon="9.530623447397668"><ele>81.66666666666666</ele><time>2026-04-18T10:34:29.002Z</time></trkpt><trkpt lat="45.01686458750987" lon="9.530348898752974"><ele>81.33333333333333</ele><time>2026-04-18T10:34:30.002Z</time></trkpt><trkpt lat="45.016880459946606" lon="9.53007317680225"><ele>81.0</ele><time>2026-04-18T10:34:31.002Z</time></trkpt><trkpt lat="45.01689499880898" lon="9.52979855774139"><ele>81.0</ele><time>2026-04-18T10:34:32.002Z</time></trkpt><trkpt lat="45.016910509323544" lon="9.529518231649012"><ele>81.0</ele><time>2026-04-18T10:34:33.002Z</time></trkpt><trkpt lat="45.016924601161875" lon="9.529243198310768"><ele>81.0</ele><time>2026-04-18T10:34:34.002Z</time></trkpt><trkpt lat="45.01693541670442" lon="9.528971354223058"><ele>80.66666666666667</ele><time>2026-04-18T10:34:35.002Z</time></trkpt><trkpt lat="45.01694523171629" lon="9.528713919683186"><ele>80.33333333333334</ele><time>2026-04-18T10:34:36.002Z</time></trkpt><trkpt lat="45.016960495103916" lon="9.528463145310003"><ele>80.0</ele><time>2026-04-18T10:34:37.002Z</time></trkpt><trkpt lat="45.01697596278751" lon="9.528221120406835"><ele>80.0</ele><time>2026-04-18T10:34:38.002Z</time></trkpt><trkpt lat="45.01698931749473" lon="9.527992716547361"><ele>80.0</ele><time>2026-04-18T10:34:39.002Z</time></trkpt><trkpt lat="45.016999585301" lon="9.527767870353003"><ele>80.0</ele><time>2026-04-18T10:34:40.002Z</time></trkpt><trkpt lat="45.01700599301818" lon="9.52754575461279"><ele>80.33333333333334</ele><time>2026-04-18T10:34:41.003Z</time></trkpt><trkpt lat="45.01700286726994" lon="9.527325944165415"><ele>80.66666666666667</ele><time>2026-04-18T10:34:42.003Z</time></trkpt><trkpt lat="45.01698454989748" lon="9.52711434398946"><ele>81.0</ele><time>2026-04-18T10:34:43.003Z</time></trkpt><trkpt lat="45.016949344442466" lon="9.526905954693394"><ele>81.0</ele><time>2026-04-18T10:34:44.003Z</time></trkpt><trkpt lat="45.016899388139116" lon="9.526705710421156"><ele>81.0</ele><time>2026-04-18T10:34:45.003Z</time></trkpt><trkpt lat="45.01684023626807" lon="9.52651016597498"><ele>81.0</ele><time>2026-04-18T10:34:46.003Z</time></trkpt><trkpt lat="45.016772198856025" lon="9.526312989004564"><ele>80.66666666666667</ele><time>2026-04-18T10:34:47.003Z</time></trkpt><trkpt lat="45.01669915923807" lon="9.526114091068344"><ele>80.33333333333334</ele><time>2026-04-18T10:34:48.003Z</time></trkpt><trkpt lat="45.01662068651059" lon="9.525914129762459"><ele>80.0</ele><time>2026-04-18T10:34:49.003Z</time></trkpt><trkpt lat="45.016542964322255" lon="9.52571447855904"><ele>80.0</ele><time>2026-04-18T10:34:50.003Z</time></trkpt><trkpt lat="45.01646489647147" lon="9.525512395909722"><ele>80.0</ele><time>2026-04-18T10:34:51.003Z</time></trkpt><trkpt lat="45.016388323615175" lon="9.525310999284692"><ele>80.0</ele><time>2026-04-18T10:34:52.003Z</time></trkpt><trkpt lat="45.016311878040746" lon="9.525107595035111"><ele>80.33333333333334</ele><time>2026-04-18T10:34:53.003Z</time></trkpt><trkpt lat="45.016233634329595" lon="9.524908131397833"><ele>80.66666666666667</ele><time>2026-04-18T10:34:54.003Z</time></trkpt><trkpt lat="45.0161568168084" lon="9.52470787636371"><ele>81.0</ele><time>2026-04-18T10:34:55.003Z</time></trkpt><trkpt lat="45.01608012386409" lon="9.52450979881269"><ele>81.33333333333333</ele><time>2026-04-18T10:34:56.003Z</time></trkpt><trkpt lat="45.01600259862739" lon="9.524307380764618"><ele>81.66666666666666</ele><time>2026-04-18T10:34:57.003Z</time></trkpt><trkpt lat="45.01592540697127" lon="9.524106214403549"><ele>82.0</ele><time>2026-04-18T10:34:58.003Z</time></trkpt><trkpt lat="45.01584723193054" lon="9.523907908786205"><ele>81.75</ele><time>2026-04-18T10:34:59.003Z</time></trkpt><trkpt lat="45.015771750914645" lon="9.523715590351049"><ele>81.5</ele><time>2026-04-18T10:35:00.003Z</time></trkpt><trkpt lat="45.015703085982665" lon="9.52353478279226"><ele>81.25</ele><time>2026-04-18T10:35:01.003Z</time></trkpt><trkpt lat="45.015637752568544" lon="9.523364612298623"><ele>81.0</ele><time>2026-04-18T10:35:02.003Z</time></trkpt><trkpt lat="45.0155698740166" lon="9.523190526973366"><ele>81.0</ele><time>2026-04-18T10:35:03.003Z</time></trkpt><trkpt lat="45.01549664593175" lon="9.523006699117934"><ele>81.0</ele><time>2026-04-18T10:35:04.003Z</time></trkpt><trkpt lat="45.015422857263616" lon="9.522818806328079"><ele>81.0</ele><time>2026-04-18T10:35:05.003Z</time></trkpt><trkpt lat="45.015349590240646" lon="9.52263158268783"><ele>81.5</ele><time>2026-04-18T10:35:06.003Z</time></trkpt><trkpt lat="45.01528183749612" lon="9.52245554728089"><ele>82.0</ele><time>2026-04-18T10:35:07.003Z</time></trkpt><trkpt lat="45.015218352915646" lon="9.522291034898439"><ele>82.5</ele><time>2026-04-18T10:35:08.003Z</time></trkpt><trkpt lat="45.01516431332892" lon="9.522146443076632"><ele>83.0</ele><time>2026-04-18T10:35:09.003Z</time></trkpt><trkpt lat="45.0151155034374" lon="9.52201624797856"><ele>83.0</ele><time>2026-04-18T10:35:09.999Z</time></trkpt><trkpt lat="45.015068577002076" lon="9.521891905359222"><ele>83.0</ele><time>2026-04-18T10:35:10.999Z</time></trkpt><trkpt lat="45.015019924676494" lon="9.521759917354675"><ele>83.0</ele><time>2026-04-18T10:35:11.999Z</time></trkpt><trkpt lat="45.01497960837638" lon="9.521635173839767"><ele>83.0</ele><time>2026-04-18T10:35:12.999Z</time></trkpt><trkpt lat="45.01494844792195" lon="9.521526781274403"><ele>83.0</ele><time>2026-04-18T10:35:13.999Z</time></trkpt><trkpt lat="45.01492564253513" lon="9.521433638311375"><ele>82.83333333333334</ele><time>2026-04-18T10:35:14.999Z</time></trkpt><trkpt lat="45.01492009157447" lon="9.52132214853783"><ele>82.66666666666667</ele><time>2026-04-18T10:35:16.999Z</time></trkpt><trkpt lat="45.014830129927866" lon="9.521275814602967"><ele>82.5</ele><time>2026-04-18T10:35:18.999Z</time></trkpt><trkpt lat="45.01473649610167" lon="9.521367168576882"><ele>82.33333333333333</ele><time>2026-04-18T10:35:20.999Z</time></trkpt><trkpt lat="45.01467229618771" lon="9.52137947056432"><ele>82.16666666666666</ele><time>2026-04-18T10:35:22.999Z</time></trkpt><trkpt lat="45.01457882950757" lon="9.521372697640981"><ele>82.0</ele><time>2026-04-18T10:35:25.999Z</time></trkpt><trkpt lat="45.01449963975653" lon="9.521370379291444"><ele>82.0</ele><time>2026-04-18T10:35:28Z</time></trkpt><trkpt lat="45.01438842931333" lon="9.521358873243186"><ele>82.0</ele><time>2026-04-18T10:35:30Z</time></trkpt><trkpt lat="45.014296080919635" lon="9.521344314293849"><ele>82.0</ele><time>2026-04-18T10:35:32Z</time></trkpt><trkpt lat="45.01420558057352" lon="9.521368752203735"><ele>82.0</ele><time>2026-04-18T10:36:45.002Z</time></trkpt><trkpt lat="45.0141129481115" lon="9.521337913187054"><ele>82.0</ele><time>2026-04-18T10:36:47.002Z</time></trkpt><trkpt lat="45.014036295759304" lon="9.52132545810723"><ele>82.19999999999999</ele><time>2026-04-18T10:36:49.003Z</time></trkpt><trkpt lat="45.01389796858913" lon="9.521315466831528"><ele>82.4</ele><time>2026-04-18T10:36:51.003Z</time></trkpt><trkpt lat="45.01382510940593" lon="9.521311502863803"><ele>82.6</ele><time>2026-04-18T10:36:52.003Z</time></trkpt><trkpt lat="45.01372942213026" lon="9.521303698637539"><ele>82.80000000000001</ele><time>2026-04-18T10:36:53.003Z</time></trkpt><trkpt lat="45.013617542707664" lon="9.521294324146979"><ele>83.0</ele><time>2026-04-18T10:36:54.003Z</time></trkpt><trkpt lat="45.013494114994415" lon="9.521283996012789"><ele>83.0</ele><time>2026-04-18T10:36:55.003Z</time></trkpt><trkpt lat="45.013380652753796" lon="9.521276218302779"><ele>83.0</ele><time>2026-04-18T10:36:56.003Z</time></trkpt><trkpt lat="45.01325606952555" lon="9.521267030224946"><ele>83.0</ele><time>2026-04-18T10:36:57.003Z</time></trkpt><trkpt lat="45.013125744983014" lon="9.521257258868632"><ele>83.0</ele><time>2026-04-18T10:36:58.003Z</time></trkpt><trkpt lat="45.012985775383825" lon="9.521248087773014"><ele>83.0</ele><time>2026-04-18T10:36:59.003Z</time></trkpt><trkpt lat="45.012838995968444" lon="9.521237045765298"><ele>83.0</ele><time>2026-04-18T10:37:00.003Z</time></trkpt><trkpt lat="45.01269721412033" lon="9.521224728388598"><ele>83.0</ele><time>2026-04-18T10:37:01.003Z</time></trkpt><trkpt lat="45.01256400056037" lon="9.521213862571608"><ele>83.0</ele><time>2026-04-18T10:37:02.003Z</time></trkpt><trkpt lat="45.01242267545164" lon="9.521205030674812"><ele>83.33333333333334</ele><time>2026-04-18T10:37:03.003Z</time></trkpt><trkpt lat="45.012276641609006" lon="9.521192395056492"><ele>83.66666666666667</ele><time>2026-04-18T10:37:04.003Z</time></trkpt><trkpt lat="45.012124991288665" lon="9.52117984484153"><ele>84.0</ele><time>2026-04-18T10:37:05.003Z</time></trkpt><trkpt lat="45.01196780328351" lon="9.521168147211576"><ele>84.0</ele><time>2026-04-18T10:37:06.003Z</time></trkpt><trkpt lat="45.01180467550607" lon="9.521156606593141"><ele>84.0</ele><time>2026-04-18T10:37:07.003Z</time></trkpt><trkpt lat="45.01163602202682" lon="9.521145019202642"><ele>84.0</ele><time>2026-04-18T10:37:08.003Z</time></trkpt><trkpt lat="45.01146497130591" lon="9.521133891738234"><ele>84.66666666666667</ele><time>2026-04-18T10:37:09.003Z</time></trkpt><trkpt lat="45.011297747250964" lon="9.5211197118811"><ele>85.33333333333334</ele><time>2026-04-18T10:37:10.003Z</time></trkpt><trkpt lat="45.01113932713291" lon="9.521106183941832"><ele>86.0</ele><time>2026-04-18T10:37:11.003Z</time></trkpt><trkpt lat="45.01098480341205" lon="9.521095069575333"><ele>86.0</ele><time>2026-04-18T10:37:12.003Z</time></trkpt><trkpt lat="45.01082665196554" lon="9.521083190438437"><ele>86.0</ele><time>2026-04-18T10:37:13.003Z</time></trkpt><trkpt lat="45.01066493130677" lon="9.52107152123228"><ele>86.0</ele><time>2026-04-18T10:37:14.003Z</time></trkpt><trkpt lat="45.01049960042004" lon="9.521060898215733"><ele>85.66666666666667</ele><time>2026-04-18T10:37:15.003Z</time></trkpt><trkpt lat="45.0103302750932" lon="9.521050083809081"><ele>85.33333333333333</ele><time>2026-04-18T10:37:15.996Z</time></trkpt><trkpt lat="45.010164558314365" lon="9.521036439735926"><ele>85.0</ele><time>2026-04-18T10:37:16.997Z</time></trkpt><trkpt lat="45.00999968099483" lon="9.521023588589774"><ele>85.66666666666666</ele><time>2026-04-18T10:37:17.997Z</time></trkpt><trkpt lat="45.00983260478663" lon="9.521009626621556"><ele>86.33333333333333</ele><time>2026-04-18T10:37:18.997Z</time></trkpt><trkpt lat="45.00966689336989" lon="9.520997418040706"><ele>87.0</ele><time>2026-04-18T10:37:19.997Z</time></trkpt><trkpt lat="45.00950177608406" lon="9.520984992690565"><ele>87.0</ele><time>2026-04-18T10:37:20.997Z</time></trkpt><trkpt lat="45.00933705496217" lon="9.520973366443275"><ele>87.0</ele><time>2026-04-18T10:37:21.997Z</time></trkpt><trkpt lat="45.009174517009725" lon="9.520963346873932"><ele>87.0</ele><time>2026-04-18T10:37:22.998Z</time></trkpt><trkpt lat="45.0090140772543" lon="9.520951787972189"><ele>87.0</ele><time>2026-04-18T10:37:23.998Z</time></trkpt><trkpt lat="45.008858663405746" lon="9.520939205325442"><ele>87.0</ele><time>2026-04-18T10:37:24.998Z</time></trkpt><trkpt lat="45.008712258954766" lon="9.52092827914266"><ele>87.0</ele><time>2026-04-18T10:37:25.998Z</time></trkpt><trkpt lat="45.008578152368244" lon="9.520920456638228"><ele>87.0</ele><time>2026-04-18T10:37:26.998Z</time></trkpt><trkpt lat="45.00845038101707" lon="9.520911352972814"><ele>87.0</ele><time>2026-04-18T10:37:27.998Z</time></trkpt><trkpt lat="45.0083374366796" lon="9.520901734342047"><ele>87.0</ele><time>2026-04-18T10:37:28.998Z</time></trkpt><trkpt lat="45.00823935128451" lon="9.520893616650056"><ele>87.0</ele><time>2026-04-18T10:37:29.998Z</time></trkpt><trkpt lat="45.0081525919297" lon="9.520885243123912"><ele>87.0</ele><time>2026-04-18T10:37:30.999Z</time></trkpt><trkpt lat="45.00807755872525" lon="9.520876247293131"><ele>87.0</ele><time>2026-04-18T10:37:31.999Z</time></trkpt><trkpt lat="45.00796839070049" lon="9.520834391689633"><ele>87.0</ele><time>2026-04-18T10:37:33.999Z</time></trkpt><trkpt lat="45.00790176698476" lon="9.520705811597166"><ele>87.0</ele><time>2026-04-18T10:37:35.999Z</time></trkpt><trkpt lat="45.00785774498154" lon="9.520612815309354"><ele>87.0</ele><time>2026-04-18T10:37:36.999Z</time></trkpt><trkpt lat="45.0078018354853" lon="9.520502062044988"><ele>87.0</ele><time>2026-04-18T10:37:37.999Z</time></trkpt><trkpt lat="45.00774058088727" lon="9.52038516815781"><ele>87.0</ele><time>2026-04-18T10:37:38.999Z</time></trkpt><trkpt lat="45.00767644323638" lon="9.520252042523394"><ele>87.0</ele><time>2026-04-18T10:37:39.999Z</time></trkpt><trkpt lat="45.00761289521592" lon="9.520110185501725"><ele>87.0</ele><time>2026-04-18T10:37:41Z</time></trkpt><trkpt lat="45.00754378655652" lon="9.51995212518845"><ele>87.0</ele><time>2026-04-18T10:37:42Z</time></trkpt><trkpt lat="45.007465387357286" lon="9.51977460784943"><ele>87.0</ele><time>2026-04-18T10:37:43Z</time></trkpt><trkpt lat="45.007386133353826" lon="9.519601733298545"><ele>87.0</ele><time>2026-04-18T10:37:44Z</time></trkpt><trkpt lat="45.00730478118848" lon="9.519429088485364"><ele>87.0</ele><time>2026-04-18T10:37:45Z</time></trkpt><trkpt lat="45.00721695947472" lon="9.519242603498515"><ele>87.0</ele><time>2026-04-18T10:37:46Z</time></trkpt><trkpt lat="45.00712515012781" lon="9.519046594934851"><ele>87.0</ele><time>2026-04-18T10:37:47Z</time></trkpt><trkpt lat="45.007038232811375" lon="9.518834617528244"><ele>87.0</ele><time>2026-04-18T10:37:48Z</time></trkpt><trkpt lat="45.00694085522851" lon="9.518629619120833"><ele>87.0</ele><time>2026-04-18T10:37:49Z</time></trkpt><trkpt lat="45.00684160690959" lon="9.518420208263436"><ele>87.66666666666667</ele><time>2026-04-18T10:37:50Z</time></trkpt><trkpt lat="45.006749487403795" lon="9.518223297553384"><ele>88.33333333333334</ele><time>2026-04-18T10:37:51Z</time></trkpt><trkpt lat="45.00666606853565" lon="9.51804313837218"><ele>89.0</ele><time>2026-04-18T10:37:52Z</time></trkpt><trkpt lat="45.00659015516316" lon="9.517877919949251"><ele>89.33333333333334</ele><time>2026-04-18T10:37:53Z</time></trkpt><trkpt lat="45.00653169725192" lon="9.517746021521331"><ele>89.66666666666667</ele><time>2026-04-18T10:37:54Z</time></trkpt><trkpt lat="45.006486323031524" lon="9.517641469099877"><ele>90.0</ele><time>2026-04-18T10:37:55Z</time></trkpt><trkpt lat="45.006452091873705" lon="9.51756593361402"><ele>90.33333333333333</ele><time>2026-04-18T10:37:56Z</time></trkpt><trkpt lat="45.006407955693476" lon="9.517489358334517"><ele>90.66666666666666</ele><time>2026-04-18T10:37:58.001Z</time></trkpt><trkpt lat="45.006326462143505" lon="9.51754030234057"><ele>91.0</ele><time>2026-04-18T10:37:59.001Z</time></trkpt><trkpt lat="45.00621254839874" lon="9.517661653480172"><ele>91.0</ele><time>2026-04-18T10:38:01.001Z</time></trkpt><trkpt lat="45.00613404775484" lon="9.51773915862444"><ele>91.0</ele><time>2026-04-18T10:38:02.001Z</time></trkpt><trkpt lat="45.00605676842968" lon="9.517836230184766"><ele>91.0</ele><time>2026-04-18T10:38:03.001Z</time></trkpt><trkpt lat="45.00598197037821" lon="9.517965104189113"><ele>91.0</ele><time>2026-04-18T10:38:04.001Z</time></trkpt><trkpt lat="45.00589889618817" lon="9.51806753749934"><ele>91.0</ele><time>2026-04-18T10:38:05.001Z</time></trkpt><trkpt lat="45.00581137882896" lon="9.518140580510542"><ele>90.6</ele><time>2026-04-18T10:38:06.001Z</time></trkpt><trkpt lat="45.00573099897225" lon="9.518227111232418"><ele>90.19999999999999</ele><time>2026-04-18T10:38:07.001Z</time></trkpt><trkpt lat="45.00565026875704" lon="9.51830069832002"><ele>89.80000000000001</ele><time>2026-04-18T10:38:08.001Z</time></trkpt><trkpt lat="45.00557854130693" lon="9.51835679099492"><ele>89.4</ele><time>2026-04-18T10:38:09.001Z</time></trkpt><trkpt lat="45.0054973235291" lon="9.518409087834883"><ele>89.0</ele><time>2026-04-18T10:38:10.001Z</time></trkpt><trkpt lat="45.00539792285226" lon="9.518478095437546"><ele>89.0</ele><time>2026-04-18T10:38:11.001Z</time></trkpt><trkpt lat="45.00528084310974" lon="9.518521882901817"><ele>89.0</ele><time>2026-04-18T10:38:12.001Z</time></trkpt><trkpt lat="45.00515574625783" lon="9.51856672158136"><ele>89.0</ele><time>2026-04-18T10:38:13.001Z</time></trkpt><trkpt lat="45.00503851131319" lon="9.518615051090165"><ele>89.0</ele><time>2026-04-18T10:38:14.001Z</time></trkpt><trkpt lat="45.00492972241684" lon="9.518666975114813"><ele>88.80000000000001</ele><time>2026-04-18T10:38:15.001Z</time></trkpt><trkpt lat="45.004832384154355" lon="9.518719656757975"><ele>88.60000000000001</ele><time>2026-04-18T10:38:16.001Z</time></trkpt><trkpt lat="45.00473088641099" lon="9.518748532558277"><ele>88.4</ele><time>2026-04-18T10:38:17.001Z</time></trkpt><trkpt lat="45.00464804792177" lon="9.518797550178865"><ele>88.2</ele><time>2026-04-18T10:38:18.001Z</time></trkpt><trkpt lat="45.00457706104141" lon="9.518875387934132"><ele>88.0</ele><time>2026-04-18T10:38:19.001Z</time></trkpt><trkpt lat="45.004508010048795" lon="9.518897436291724"><ele>88.0</ele><time>2026-04-18T10:38:20.001Z</time></trkpt><trkpt lat="45.004394292462976" lon="9.518845954295783"><ele>88.0</ele><time>2026-04-18T10:38:22.002Z</time></trkpt><trkpt lat="45.00431156405076" lon="9.518846053330655"><ele>88.0</ele><time>2026-04-18T10:38:23.002Z</time></trkpt><trkpt lat="45.00422877089203" lon="9.518827978685394"><ele>88.0</ele><time>2026-04-18T10:38:24.002Z</time></trkpt><trkpt lat="45.00415620838465" lon="9.518811432844641"><ele>88.0</ele><time>2026-04-18T10:38:25.002Z</time></trkpt><trkpt lat="45.00406206088998" lon="9.51878917086353"><ele>88.0</ele><time>2026-04-18T10:38:26.002Z</time></trkpt><trkpt lat="45.00398126281702" lon="9.518771067221913"><ele>88.0</ele><time>2026-04-18T10:38:27.002Z</time></trkpt><trkpt lat="45.00391426603082" lon="9.518756806611604"><ele>88.0</ele><time>2026-04-18T10:38:28.002Z</time></trkpt><trkpt lat="45.00384043126737" lon="9.518733976279867"><ele>88.0</ele><time>2026-04-18T10:38:30.002Z</time></trkpt><trkpt lat="45.003912962641586" lon="9.518737987764586"><ele>88.0</ele><time>2026-04-18T10:38:52.002Z</time></trkpt><trkpt lat="45.00398080557752" lon="9.518753554680156"><ele>88.0</ele><time>2026-04-18T10:38:53.003Z</time></trkpt><trkpt lat="45.00409466788997" lon="9.518781991149332"><ele>88.0</ele><time>2026-04-18T10:38:54.003Z</time></trkpt><trkpt lat="45.00419389536047" lon="9.518822829215315"><ele>88.0</ele><time>2026-04-18T10:38:55.003Z</time></trkpt><trkpt lat="45.00427473183411" lon="9.518842539467826"><ele>88.0</ele><time>2026-04-18T10:38:56.003Z</time></trkpt><trkpt lat="45.00434355203088" lon="9.518857389972089"><ele>88.0</ele><time>2026-04-18T10:38:57.003Z</time></trkpt><trkpt lat="45.00444787092134" lon="9.518873875644555"><ele>88.0</ele><time>2026-04-18T10:38:59.003Z</time></trkpt><trkpt lat="45.00451631278087" lon="9.518907947514956"><ele>88.0</ele><time>2026-04-18T10:39:01.003Z</time></trkpt><trkpt lat="45.00451221319465" lon="9.519039802582242"><ele>88.0</ele><time>2026-04-18T10:39:04.003Z</time></trkpt><trkpt lat="45.00444711287051" lon="9.519146291464931"><ele>88.0</ele><time>2026-04-18T10:39:06.003Z</time></trkpt><trkpt lat="45.004399590242684" lon="9.519212599016422"><ele>88.0</ele><time>2026-04-18T10:39:07.003Z</time></trkpt><trkpt lat="45.004348224108625" lon="9.519287883217359"><ele>88.0</ele><time>2026-04-18T10:39:08.003Z</time></trkpt><trkpt lat="45.004301280330814" lon="9.51935081962706"><ele>88.0</ele><time>2026-04-18T10:39:09.003Z</time></trkpt><trkpt lat="45.00421345997763" lon="9.51945498517308"><ele>88.0</ele><time>2026-04-18T10:39:11.003Z</time></trkpt><trkpt lat="45.00414360654087" lon="9.519566762698565"><ele>88.0</ele><time>2026-04-18T10:39:13.003Z</time></trkpt><trkpt lat="45.00406876703094" lon="9.519667979549777"><ele>88.0</ele><time>2026-04-18T10:39:15.003Z</time></trkpt><trkpt lat="45.00397277356365" lon="9.519780607834035"><ele>88.0</ele><time>2026-04-18T10:39:17.003Z</time></trkpt><trkpt lat="45.00392229877977" lon="9.519842452275372"><ele>88.0</ele><time>2026-04-18T10:39:18.003Z</time></trkpt><trkpt lat="45.003833341202906" lon="9.519949352654253"><ele>88.0</ele><time>2026-04-18T10:39:20.003Z</time></trkpt><trkpt lat="45.003780176754006" lon="9.520015041739558"><ele>88.0</ele><time>2026-04-18T10:39:21.003Z</time></trkpt><trkpt lat="45.00372240884268" lon="9.520081510459871"><ele>88.0</ele><time>2026-04-18T10:39:21.998Z</time></trkpt><trkpt lat="45.00365675307464" lon="9.520173323569265"><ele>88.0</ele><time>2026-04-18T10:39:22.998Z</time></trkpt><trkpt lat="45.00358225328975" lon="9.520275643368691"><ele>88.0</ele><time>2026-04-18T10:39:23.998Z</time></trkpt><trkpt lat="45.00351165034383" lon="9.520371089694214"><ele>88.0</ele><time>2026-04-18T10:39:24.999Z</time></trkpt><trkpt lat="45.0034508950837" lon="9.52045088168069"><ele>88.0</ele><time>2026-04-18T10:39:25.999Z</time></trkpt><trkpt lat="45.00339136886444" lon="9.520527261289391"><ele>88.0</ele><time>2026-04-18T10:39:26.999Z</time></trkpt><trkpt lat="45.003330278454236" lon="9.520606045661482"><ele>88.0</ele><time>2026-04-18T10:39:27.999Z</time></trkpt><trkpt lat="45.003270366038734" lon="9.520685383044597"><ele>88.0</ele><time>2026-04-18T10:39:28.999Z</time></trkpt><trkpt lat="45.00321440703744" lon="9.520760243863025"><ele>88.0</ele><time>2026-04-18T10:39:29.999Z</time></trkpt><trkpt lat="45.00315530965795" lon="9.520836081750009"><ele>88.0</ele><time>2026-04-18T10:39:30.999Z</time></trkpt><trkpt lat="45.00310065766131" lon="9.520906114291078"><ele>88.0</ele><time>2026-04-18T10:39:31.999Z</time></trkpt><trkpt lat="45.00304449625649" lon="9.520973954477311"><ele>88.0</ele><time>2026-04-18T10:39:32.999Z</time></trkpt><trkpt lat="45.002988835964636" lon="9.521050475100264"><ele>88.0</ele><time>2026-04-18T10:39:33.999Z</time></trkpt><trkpt lat="45.00294217822497" lon="9.521119577888072"><ele>88.0</ele><time>2026-04-18T10:39:34.999Z</time></trkpt><trkpt lat="45.00289341827167" lon="9.521189925372862"><ele>88.0</ele><time>2026-04-18T10:39:35.999Z</time></trkpt><trkpt lat="45.00282198125393" lon="9.521304491620855"><ele>88.0</ele><time>2026-04-18T10:39:37.999Z</time></trkpt><trkpt lat="45.002784798722054" lon="9.521395649884164"><ele>88.0</ele><time>2026-04-18T10:39:41Z</time></trkpt><trkpt lat="45.002741520892435" lon="9.521514242114543"><ele>88.0</ele><time>2026-04-18T10:46:56.001Z</time></trkpt><trkpt lat="45.00268041944154" lon="9.521556135011453"><ele>88.0</ele><time>2026-04-18T10:46:59.001Z</time></trkpt><trkpt lat="45.002609879674836" lon="9.521610891956675"><ele>88.0</ele><time>2026-04-18T10:47:02.001Z</time></trkpt><trkpt lat="45.002549273898154" lon="9.521670339754667"><ele>88.0</ele><time>2026-04-18T10:47:04.001Z</time></trkpt><trkpt lat="45.00248473539202" lon="9.521746348058114"><ele>88.0</ele><time>2026-04-18T10:47:06.001Z</time></trkpt><trkpt lat="45.00243282253115" lon="9.521804065366995"><ele>88.2</ele><time>2026-04-18T10:47:09.001Z</time></trkpt><trkpt lat="45.00238381986151" lon="9.521875714231902"><ele>88.4</ele><time>2026-04-18T10:47:25.002Z</time></trkpt><trkpt lat="45.0023154376335" lon="9.521962123975701"><ele>88.60000000000001</ele><time>2026-04-18T10:47:27.002Z</time></trkpt><trkpt lat="45.00223702215892" lon="9.522071505999468"><ele>88.80000000000001</ele><time>2026-04-18T10:47:29.002Z</time></trkpt><trkpt lat="45.00218024857585" lon="9.522208323207371"><ele>89.0</ele><time>2026-04-18T10:47:31.002Z</time></trkpt><trkpt lat="45.00214210122174" lon="9.522363863555283"><ele>89.2</ele><time>2026-04-18T10:47:33.002Z</time></trkpt><trkpt lat="45.00211146836979" lon="9.522540489547698"><ele>89.4</ele><time>2026-04-18T10:47:35.002Z</time></trkpt><trkpt lat="45.00208805876857" lon="9.522640115028494"><ele>89.6</ele><time>2026-04-18T10:47:36.002Z</time></trkpt><trkpt lat="45.002064431238374" lon="9.522740761983853"><ele>89.8</ele><time>2026-04-18T10:47:37.002Z</time></trkpt><trkpt lat="45.00203837446607" lon="9.522853836665927"><ele>90.0</ele><time>2026-04-18T10:47:38.002Z</time></trkpt><trkpt lat="45.002009154660534" lon="9.522972880176455"><ele>90.0</ele><time>2026-04-18T10:47:39.002Z</time></trkpt><trkpt lat="45.001980065005206" lon="9.523080531284492"><ele>90.0</ele><time>2026-04-18T10:47:40.002Z</time></trkpt><trkpt lat="45.001948914232656" lon="9.523197503280185"><ele>90.0</ele><time>2026-04-18T10:47:41.002Z</time></trkpt><trkpt lat="45.001934069378585" lon="9.523311760119173"><ele>90.0</ele><time>2026-04-18T10:47:42.002Z</time></trkpt><trkpt lat="45.00190650069815" lon="9.52342631145603"><ele>90.0</ele><time>2026-04-18T10:47:43.002Z</time></trkpt><trkpt lat="45.00188231037657" lon="9.5235374537785"><ele>90.0</ele><time>2026-04-18T10:47:44.002Z</time></trkpt><trkpt lat="45.00185425249893" lon="9.523643440848168"><ele>89.83333333333333</ele><time>2026-04-18T10:47:45.002Z</time></trkpt><trkpt lat="45.0018258652921" lon="9.523762456181855"><ele>89.66666666666667</ele><time>2026-04-18T10:47:46Z</time></trkpt><trkpt lat="45.001801430595044" lon="9.523866691929998"><ele>89.5</ele><time>2026-04-18T10:47:47Z</time></trkpt><trkpt lat="45.00177230357012" lon="9.52398070109272"><ele>89.33333333333334</ele><time>2026-04-18T10:47:48Z</time></trkpt><trkpt lat="45.001743004051555" lon="9.524087372734849"><ele>89.16666666666667</ele><time>2026-04-18T10:47:49Z</time></trkpt><trkpt lat="45.001713253870825" lon="9.524188411134059"><ele>89.0</ele><time>2026-04-18T10:47:50Z</time></trkpt><trkpt lat="45.001676461481246" lon="9.524306129340284"><ele>89.0</ele><time>2026-04-18T10:47:51Z</time></trkpt><trkpt lat="45.00163666386136" lon="9.52441749587135"><ele>89.0</ele><time>2026-04-18T10:47:52Z</time></trkpt><trkpt lat="45.00160279982827" lon="9.524514722251537"><ele>89.0</ele><time>2026-04-18T10:47:53Z</time></trkpt><trkpt lat="45.00155011322713" lon="9.524665128617213"><ele>89.0</ele><time>2026-04-18T10:47:55Z</time></trkpt><trkpt lat="45.001518853205326" lon="9.524748928166154"><ele>89.0</ele><time>2026-04-18T10:47:56Z</time></trkpt><trkpt lat="45.00148302263948" lon="9.524848031163035"><ele>89.0</ele><time>2026-04-18T10:47:57Z</time></trkpt><trkpt lat="45.00145300013576" lon="9.524930653336217"><ele>89.2</ele><time>2026-04-18T10:47:58Z</time></trkpt><trkpt lat="45.001409202729825" lon="9.525053005549196"><ele>89.4</ele><time>2026-04-18T10:48:00Z</time></trkpt><trkpt lat="45.00136817717656" lon="9.525182693020891"><ele>89.6</ele><time>2026-04-18T10:48:02Z</time></trkpt><trkpt lat="45.00133595063967" lon="9.525288481388925"><ele>89.8</ele><time>2026-04-18T10:48:04Z</time></trkpt><trkpt lat="45.00129625240746" lon="9.525414310700125"><ele>90.0</ele><time>2026-04-18T10:48:06Z</time></trkpt><trkpt lat="45.00126175127964" lon="9.525510268292628"><ele>90.0</ele><time>2026-04-18T10:48:07Z</time></trkpt><trkpt lat="45.001193225303304" lon="9.525591706127779"><ele>90.0</ele><time>2026-04-18T10:48:08Z</time></trkpt><trkpt lat="45.0011538384968" lon="9.525706122467568"><ele>90.0</ele><time>2026-04-18T10:48:09Z</time></trkpt><trkpt lat="45.00111747883035" lon="9.525811743524182"><ele>90.0</ele><time>2026-04-18T10:48:10Z</time></trkpt><trkpt lat="45.00108024110486" lon="9.525919541106608"><ele>90.0</ele><time>2026-04-18T10:48:11Z</time></trkpt><trkpt lat="45.001039054146084" lon="9.526031759460894"><ele>90.0</ele><time>2026-04-18T10:48:12Z</time></trkpt><trkpt lat="45.000999214842544" lon="9.526148232623122"><ele>89.85714285714285</ele><time>2026-04-18T10:48:13Z</time></trkpt><trkpt lat="45.000968300462986" lon="9.526250749679928"><ele>89.71428571428572</ele><time>2026-04-18T10:48:14Z</time></trkpt><trkpt lat="45.00093569001197" lon="9.526343464529182"><ele>89.57142857142857</ele><time>2026-04-18T10:48:15Z</time></trkpt><trkpt lat="45.0009009770522" lon="9.526427156716213"><ele>89.42857142857142</ele><time>2026-04-18T10:48:16Z</time></trkpt><trkpt lat="45.00086742799267" lon="9.526517671335672"><ele>89.28571428571428</ele><time>2026-04-18T10:48:17Z</time></trkpt><trkpt lat="45.000838925061906" lon="9.526612218170666"><ele>89.14285714285714</ele><time>2026-04-18T10:48:18Z</time></trkpt><trkpt lat="45.000815062379154" lon="9.526712676170325"><ele>89.0</ele><time>2026-04-18T10:48:19Z</time></trkpt><trkpt lat="45.00080421365172" lon="9.526819362241179"><ele>89.0</ele><time>2026-04-18T10:48:20Z</time></trkpt><trkpt lat="45.000816515645305" lon="9.526942354871256"><ele>89.0</ele><time>2026-04-18T10:48:21Z</time></trkpt><trkpt lat="45.000807189370825" lon="9.527073687986686"><ele>89.0</ele><time>2026-04-18T10:48:22Z</time></trkpt><trkpt lat="45.00081040514464" lon="9.527215607512128"><ele>89.0</ele><time>2026-04-18T10:48:23Z</time></trkpt><trkpt lat="45.00080353829702" lon="9.52736781384355"><ele>89.0</ele><time>2026-04-18T10:48:24Z</time></trkpt><trkpt lat="45.000799216949176" lon="9.527504445974643"><ele>89.2</ele><time>2026-04-18T10:48:25Z</time></trkpt><trkpt lat="45.00079749083291" lon="9.52763912727177"><ele>89.4</ele><time>2026-04-18T10:48:26Z</time></trkpt><trkpt lat="45.000795609497025" lon="9.527790830790622"><ele>89.6</ele><time>2026-04-18T10:48:27Z</time></trkpt><trkpt lat="45.000791752281394" lon="9.527951225481317"><ele>89.8</ele><time>2026-04-18T10:48:28Z</time></trkpt><trkpt lat="45.00078790965418" lon="9.528113560239406"><ele>90.0</ele><time>2026-04-18T10:48:29Z</time></trkpt><trkpt lat="45.000775437861826" lon="9.52827656079751"><ele>90.0</ele><time>2026-04-18T10:48:30Z</time></trkpt><trkpt lat="45.00077764293546" lon="9.528420481527714"><ele>90.0</ele><time>2026-04-18T10:48:31Z</time></trkpt><trkpt lat="45.00077632336702" lon="9.52856564846578"><ele>90.0</ele><time>2026-04-18T10:48:32Z</time></trkpt><trkpt lat="45.00077428622959" lon="9.528714538396581"><ele>90.0</ele><time>2026-04-18T10:48:33Z</time></trkpt><trkpt lat="45.00076869112075" lon="9.528860689749228"><ele>90.0</ele><time>2026-04-18T10:48:34Z</time></trkpt><trkpt lat="45.000761127230895" lon="9.529007463679498"><ele>89.8</ele><time>2026-04-18T10:48:35.001Z</time></trkpt><trkpt lat="45.00075179898379" lon="9.529137069391382"><ele>89.6</ele><time>2026-04-18T10:48:36.001Z</time></trkpt><trkpt lat="45.00073909473069" lon="9.52927176796272"><ele>89.4</ele><time>2026-04-18T10:48:37.001Z</time></trkpt><trkpt lat="45.00071342152759" lon="9.529407592134124"><ele>89.2</ele><time>2026-04-18T10:48:38.001Z</time></trkpt><trkpt lat="45.0006742252435" lon="9.529528851500164"><ele>89.0</ele><time>2026-04-18T10:48:39.001Z</time></trkpt><trkpt lat="45.00062912635276" lon="9.529646879736562"><ele>89.0</ele><time>2026-04-18T10:48:40.001Z</time></trkpt><trkpt lat="45.000589124223474" lon="9.529753687012528"><ele>89.0</ele><time>2026-04-18T10:48:41.001Z</time></trkpt><trkpt lat="45.000550864356796" lon="9.529856166181103"><ele>89.0</ele><time>2026-04-18T10:48:42.001Z</time></trkpt><trkpt lat="45.00050973926322" lon="9.529960865512074"><ele>89.0</ele><time>2026-04-18T10:48:43.001Z</time></trkpt><trkpt lat="45.000469282467705" lon="9.53004651700821"><ele>89.0</ele><time>2026-04-18T10:48:44.001Z</time></trkpt><trkpt lat="45.00044528907108" lon="9.530131306870762"><ele>89.0</ele><time>2026-04-18T10:48:45.001Z</time></trkpt><trkpt lat="45.000408423050565" lon="9.530242935425864"><ele>89.0</ele><time>2026-04-18T10:48:47.001Z</time></trkpt><trkpt lat="45.000363072847406" lon="9.530344821656318"><ele>89.0</ele><time>2026-04-18T10:48:49.001Z</time></trkpt><trkpt lat="45.000288945181985" lon="9.530488066045697"><ele>89.0</ele><time>2026-04-18T10:48:51.001Z</time></trkpt><trkpt lat="45.000232850204966" lon="9.530566893543945"><ele>89.0</ele><time>2026-04-18T10:48:52.001Z</time></trkpt><trkpt lat="45.000171887036885" lon="9.530651846127942"><ele>89.0</ele><time>2026-04-18T10:48:53.001Z</time></trkpt><trkpt lat="45.00010294395888" lon="9.530729255369605"><ele>89.0</ele><time>2026-04-18T10:48:54.001Z</time></trkpt><trkpt lat="45.00002875948747" lon="9.530799451859588"><ele>89.0</ele><time>2026-04-18T10:48:55.001Z</time></trkpt><trkpt lat="44.99994849179588" lon="9.530853859033282"><ele>89.0</ele><time>2026-04-18T10:48:56.001Z</time></trkpt><trkpt lat="44.99986280955291" lon="9.530899124880381"><ele>89.0</ele><time>2026-04-18T10:48:57.001Z</time></trkpt><trkpt lat="44.999769543181195" lon="9.530938111829533"><ele>89.0</ele><time>2026-04-18T10:48:58.001Z</time></trkpt><trkpt lat="44.999673680853476" lon="9.530978915592126"><ele>89.0</ele><time>2026-04-18T10:48:59.001Z</time></trkpt><trkpt lat="44.99957869336666" lon="9.531019428962823"><ele>89.0</ele><time>2026-04-18T10:49:00.001Z</time></trkpt><trkpt lat="44.99948514985963" lon="9.531065497032328"><ele>89.0</ele><time>2026-04-18T10:49:01.001Z</time></trkpt><trkpt lat="44.9993912193886" lon="9.531114916563986"><ele>89.0</ele><time>2026-04-18T10:49:02.001Z</time></trkpt><trkpt lat="44.99930321393706" lon="9.531166593129976"><ele>89.0</ele><time>2026-04-18T10:49:03.001Z</time></trkpt><trkpt lat="44.999220124722136" lon="9.531212296480742"><ele>89.5</ele><time>2026-04-18T10:49:04.001Z</time></trkpt><trkpt lat="44.99914791796975" lon="9.531273557789923"><ele>90.0</ele><time>2026-04-18T10:49:05.001Z</time></trkpt><trkpt lat="44.999077231704995" lon="9.531338767441532"><ele>90.5</ele><time>2026-04-18T10:49:06.001Z</time></trkpt><trkpt lat="44.999004757274676" lon="9.531406025555604"><ele>91.0</ele><time>2026-04-18T10:49:07.001Z</time></trkpt><trkpt lat="44.9989365333974" lon="9.531468916021172"><ele>91.5</ele><time>2026-04-18T10:49:08.001Z</time></trkpt><trkpt lat="44.998871248362946" lon="9.531522020607698"><ele>92.0</ele><time>2026-04-18T10:49:09.001Z</time></trkpt><trkpt lat="44.99880219508303" lon="9.531582883040063"><ele>92.0</ele><time>2026-04-18T10:49:10.001Z</time></trkpt><trkpt lat="44.99873622290955" lon="9.53164038998039"><ele>92.0</ele><time>2026-04-18T10:49:11.001Z</time></trkpt><trkpt lat="44.99866977013128" lon="9.531680512631867"><ele>92.0</ele><time>2026-04-18T10:49:12.001Z</time></trkpt><trkpt lat="44.99860558803657" lon="9.531707273609175"><ele>92.0</ele><time>2026-04-18T10:49:13.001Z</time></trkpt><trkpt lat="44.99849780377415" lon="9.531742489432588"><ele>92.0</ele><time>2026-04-18T10:49:15.001Z</time></trkpt><trkpt lat="44.998421796675025" lon="9.531770041406146"><ele>92.0</ele><time>2026-04-18T10:49:17.001Z</time></trkpt><trkpt lat="44.998372597244064" lon="9.531825751049936"><ele>92.0</ele><time>2026-04-18T10:49:20.002Z</time></trkpt><trkpt lat="44.998362638349896" lon="9.531987573325784"><ele>92.0</ele><time>2026-04-18T10:49:22.002Z</time></trkpt><trkpt lat="44.998380702183695" lon="9.532089431432441"><ele>92.0</ele><time>2026-04-18T10:49:23.002Z</time></trkpt><trkpt lat="44.99838690898534" lon="9.532187659974221"><ele>92.0</ele><time>2026-04-18T10:49:24.002Z</time></trkpt><trkpt lat="44.99839032393901" lon="9.532307071563025"><ele>92.0</ele><time>2026-04-18T10:49:25.002Z</time></trkpt><trkpt lat="44.99838005816861" lon="9.53243062484913"><ele>92.0</ele><time>2026-04-18T10:49:26.002Z</time></trkpt><trkpt lat="44.99838824770894" lon="9.532560024175062"><ele>91.8</ele><time>2026-04-18T10:49:27.002Z</time></trkpt><trkpt lat="44.99838343713914" lon="9.53268320799716"><ele>91.6</ele><time>2026-04-18T10:49:28.002Z</time></trkpt><trkpt lat="44.99838069605991" lon="9.532807504449758"><ele>91.39999999999999</ele><time>2026-04-18T10:49:29.002Z</time></trkpt><trkpt lat="44.99837930581758" lon="9.532941227427102"><ele>91.19999999999999</ele><time>2026-04-18T10:49:30.002Z</time></trkpt><trkpt lat="44.998390213176144" lon="9.533072490590744"><ele>91.0</ele><time>2026-04-18T10:49:31.002Z</time></trkpt><trkpt lat="44.99841213368851" lon="9.533202072796842"><ele>91.0</ele><time>2026-04-18T10:49:32.002Z</time></trkpt><trkpt lat="44.998453653798805" lon="9.533332225851668"><ele>91.0</ele><time>2026-04-18T10:49:33.002Z</time></trkpt><trkpt lat="44.99851206811097" lon="9.533458863903471"><ele>91.0</ele><time>2026-04-18T10:49:34.002Z</time></trkpt><trkpt lat="44.99857672455982" lon="9.533585123674069"><ele>91.0</ele><time>2026-04-18T10:49:35.002Z</time></trkpt><trkpt lat="44.998640845067335" lon="9.533706197099557"><ele>91.0</ele><time>2026-04-18T10:49:36.002Z</time></trkpt><trkpt lat="44.998705834900974" lon="9.533828207938035"><ele>91.0</ele><time>2026-04-18T10:49:37.002Z</time></trkpt><trkpt lat="44.998770409895116" lon="9.533954766889334"><ele>91.0</ele><time>2026-04-18T10:49:38.002Z</time></trkpt><trkpt lat="44.998837283039606" lon="9.534081961951058"><ele>91.0</ele><time>2026-04-18T10:49:39.002Z</time></trkpt><trkpt lat="44.99890418661328" lon="9.534207369884031"><ele>91.0</ele><time>2026-04-18T10:49:40.002Z</time></trkpt><trkpt lat="44.99897176819785" lon="9.534335739931274"><ele>91.0</ele><time>2026-04-18T10:49:41.002Z</time></trkpt><trkpt lat="44.99904119680336" lon="9.534469065010475"><ele>91.25</ele><time>2026-04-18T10:49:42.002Z</time></trkpt><trkpt lat="44.99911042792757" lon="9.534604864071603"><ele>91.5</ele><time>2026-04-18T10:49:43.002Z</time></trkpt><trkpt lat="44.99918213259065" lon="9.534743900054355"><ele>91.75</ele><time>2026-04-18T10:49:44.002Z</time></trkpt><trkpt lat="44.99925615373865" lon="9.534890868235728"><ele>92.0</ele><time>2026-04-18T10:49:45.002Z</time></trkpt><trkpt lat="44.99932393905381" lon="9.535038512522192"><ele>91.25</ele><time>2026-04-18T10:49:46.002Z</time></trkpt><trkpt lat="44.99939027077856" lon="9.535192428853092"><ele>90.5</ele><time>2026-04-18T10:49:47.002Z</time></trkpt><trkpt lat="44.99945324506129" lon="9.535354708775662"><ele>89.75</ele><time>2026-04-18T10:49:48.002Z</time></trkpt><trkpt lat="44.99951488909352" lon="9.535519258794269"><ele>89.0</ele><time>2026-04-18T10:49:49.002Z</time></trkpt><trkpt lat="44.999564811504065" lon="9.53567312093983"><ele>89.0</ele><time>2026-04-18T10:49:50.002Z</time></trkpt><trkpt lat="44.9996069808612" lon="9.535813597464035"><ele>89.0</ele><time>2026-04-18T10:49:51.002Z</time></trkpt><trkpt lat="44.99965462602906" lon="9.535956810849457"><ele>89.0</ele><time>2026-04-18T10:49:51.998Z</time></trkpt><trkpt lat="44.99969734345531" lon="9.536093593745944"><ele>89.0</ele><time>2026-04-18T10:49:52.998Z</time></trkpt><trkpt lat="44.999738069565595" lon="9.536231321185822"><ele>89.0</ele><time>2026-04-18T10:49:53.998Z</time></trkpt><trkpt lat="44.99978019077767" lon="9.536366275405257"><ele>89.2</ele><time>2026-04-18T10:49:54.998Z</time></trkpt><trkpt lat="44.99981961490021" lon="9.536503421509659"><ele>89.4</ele><time>2026-04-18T10:49:55.998Z</time></trkpt><trkpt lat="44.99985727979487" lon="9.536644207152596"><ele>89.6</ele><time>2026-04-18T10:49:56.998Z</time></trkpt><trkpt lat="44.99989421065231" lon="9.536785296529544"><ele>89.8</ele><time>2026-04-18T10:49:57.998Z</time></trkpt><trkpt lat="44.99993147478101" lon="9.536925610522497"><ele>90.0</ele><time>2026-04-18T10:49:58.998Z</time></trkpt><trkpt lat="44.999964569087865" lon="9.53705787207031"><ele>90.0</ele><time>2026-04-18T10:49:59.998Z</time></trkpt><trkpt lat="44.99999586701899" lon="9.537179968760537"><ele>90.0</ele><time>2026-04-18T10:50:00.998Z</time></trkpt><trkpt lat="45.00002277563381" lon="9.53728106846797"><ele>90.0</ele><time>2026-04-18T10:50:01.998Z</time></trkpt><trkpt lat="45.00004757928127" lon="9.537419474289255"><ele>90.0</ele><time>2026-04-18T10:50:03.998Z</time></trkpt><trkpt lat="44.99993322180099" lon="9.537489530344445"><ele>90.0</ele><time>2026-04-18T10:50:07.998Z</time></trkpt><trkpt lat="44.99986497594766" lon="9.5375155080421"><ele>90.0</ele><time>2026-04-18T10:50:08.998Z</time></trkpt><trkpt lat="44.99979191167471" lon="9.537567129441276"><ele>90.0</ele><time>2026-04-18T10:50:09.999Z</time></trkpt><trkpt lat="44.99969735811891" lon="9.537599702804604"><ele>90.0</ele><time>2026-04-18T10:50:10.999Z</time></trkpt><trkpt lat="44.999603410771684" lon="9.537631558965078"><ele>90.0</ele><time>2026-04-18T10:50:11.999Z</time></trkpt><trkpt lat="44.999512563535845" lon="9.537660405017359"><ele>90.0</ele><time>2026-04-18T10:50:12.999Z</time></trkpt><trkpt lat="44.99941315110512" lon="9.53769271233752"><ele>90.0</ele><time>2026-04-18T10:50:13.999Z</time></trkpt><trkpt lat="44.99931143637672" lon="9.537728514516706"><ele>90.0</ele><time>2026-04-18T10:50:14.999Z</time></trkpt><trkpt lat="44.999216863968925" lon="9.53776477204385"><ele>90.0</ele><time>2026-04-18T10:50:15.999Z</time></trkpt><trkpt lat="44.999134357203346" lon="9.537796752801823"><ele>90.0</ele><time>2026-04-18T10:50:16.999Z</time></trkpt><trkpt lat="44.9990617138418" lon="9.537824922999484"><ele>90.0</ele><time>2026-04-18T10:50:17.999Z</time></trkpt><trkpt lat="44.99899162915775" lon="9.537851984649928"><ele>90.0</ele><time>2026-04-18T10:50:18.999Z</time></trkpt><trkpt lat="44.99891786016594" lon="9.53788265555469"><ele>90.33333333333333</ele><time>2026-04-18T10:50:19.999Z</time></trkpt><trkpt lat="44.99883780832172" lon="9.537888298157242"><ele>90.66666666666667</ele><time>2026-04-18T10:50:20.999Z</time></trkpt><trkpt lat="44.99876546891774" lon="9.537914938053504"><ele>91.0</ele><time>2026-04-18T10:50:21.999Z</time></trkpt><trkpt lat="44.998690567969035" lon="9.537942521273196"><ele>91.33333333333334</ele><time>2026-04-18T10:50:22.999Z</time></trkpt><trkpt lat="44.99862944064063" lon="9.537988876484837"><ele>91.66666666666667</ele><time>2026-04-18T10:50:23.999Z</time></trkpt><trkpt lat="44.99856798215383" lon="9.538008820574094"><ele>92.0</ele><time>2026-04-18T10:50:24.999Z</time></trkpt><trkpt lat="44.9984397440904" lon="9.538048992880148"><ele>92.0</ele><time>2026-04-18T10:50:26.999Z</time></trkpt><trkpt lat="44.99834366359691" lon="9.538086440995752"><ele>92.0</ele><time>2026-04-18T10:50:28Z</time></trkpt><trkpt lat="44.99823842036817" lon="9.53812425170873"><ele>92.0</ele><time>2026-04-18T10:50:29Z</time></trkpt><trkpt lat="44.99813520468811" lon="9.538159805649748"><ele>92.0</ele><time>2026-04-18T10:50:30Z</time></trkpt><trkpt lat="44.998034710976306" lon="9.538195886706395"><ele>92.0</ele><time>2026-04-18T10:50:31Z</time></trkpt><trkpt lat="44.99792951986209" lon="9.538233943469345"><ele>91.8</ele><time>2026-04-18T10:50:32Z</time></trkpt><trkpt lat="44.997831561750004" lon="9.538269871371192"><ele>91.6</ele><time>2026-04-18T10:50:33Z</time></trkpt><trkpt lat="44.99774578778241" lon="9.538299030627803"><ele>91.39999999999999</ele><time>2026-04-18T10:50:34Z</time></trkpt><trkpt lat="44.997660030414266" lon="9.53832891839625"><ele>91.19999999999999</ele><time>2026-04-18T10:50:35Z</time></trkpt><trkpt lat="44.99757500645773" lon="9.538359504135467"><ele>91.0</ele><time>2026-04-18T10:50:36Z</time></trkpt><trkpt lat="44.99749264144086" lon="9.538392707566114"><ele>90.6</ele><time>2026-04-18T10:50:37Z</time></trkpt><trkpt lat="44.997417239656045" lon="9.53842577751497"><ele>90.19999999999999</ele><time>2026-04-18T10:50:38Z</time></trkpt><trkpt lat="44.9973520302802" lon="9.538454335602117"><ele>89.80000000000001</ele><time>2026-04-18T10:50:39Z</time></trkpt><trkpt lat="44.99726110099084" lon="9.538456784939891"><ele>89.4</ele><time>2026-04-18T10:50:41Z</time></trkpt><trkpt lat="44.99721326383691" lon="9.538351449404926"><ele>89.0</ele><time>2026-04-18T10:50:43Z</time></trkpt><trkpt lat="44.99720323417283" lon="9.538159603764237"><ele>89.0</ele><time>2026-04-18T10:50:45Z</time></trkpt><trkpt lat="44.99720164424681" lon="9.53803047411661"><ele>89.0</ele><time>2026-04-18T10:50:46Z</time></trkpt><trkpt lat="44.99719333466469" lon="9.537896320515598"><ele>89.0</ele><time>2026-04-18T10:50:47Z</time></trkpt><trkpt lat="44.9971837474348" lon="9.537751705327798"><ele>89.0</ele><time>2026-04-18T10:50:48Z</time></trkpt><trkpt lat="44.99717322560479" lon="9.537606351964095"><ele>89.0</ele><time>2026-04-18T10:50:49Z</time></trkpt><trkpt lat="44.99716669308975" lon="9.537458985521058"><ele>89.0</ele><time>2026-04-18T10:50:50Z</time></trkpt><trkpt lat="44.99714700884194" lon="9.537358569593126"><ele>89.0</ele><time>2026-04-18T10:50:51Z</time></trkpt><trkpt lat="44.99714613570919" lon="9.53723643632685"><ele>89.0</ele><time>2026-04-18T10:50:52Z</time></trkpt><trkpt lat="44.99714307763976" lon="9.537137182724004"><ele>89.0</ele><time>2026-04-18T10:50:53Z</time></trkpt><trkpt lat="44.99712844891218" lon="9.537013634639376"><ele>89.0</ele><time>2026-04-18T10:50:55Z</time></trkpt><trkpt lat="44.9970467015918" lon="9.537014700196613"><ele>89.0</ele><time>2026-04-18T10:50:58.001Z</time></trkpt><trkpt lat="44.996954470388786" lon="9.537105624192222"><ele>89.0</ele><time>2026-04-18T10:51:00.001Z</time></trkpt><trkpt lat="44.99689846203033" lon="9.537177686586771"><ele>89.0</ele><time>2026-04-18T10:51:01.001Z</time></trkpt><trkpt lat="44.9968275257219" lon="9.537255835919519"><ele>89.0</ele><time>2026-04-18T10:51:02.001Z</time></trkpt><trkpt lat="44.99675131325977" lon="9.53734812601462"><ele>89.0</ele><time>2026-04-18T10:51:03.001Z</time></trkpt><trkpt lat="44.99667037602239" lon="9.537440318640583"><ele>89.0</ele><time>2026-04-18T10:51:04.001Z</time></trkpt><trkpt lat="44.99659574196527" lon="9.53752427996073"><ele>89.4</ele><time>2026-04-18T10:51:05.001Z</time></trkpt><trkpt lat="44.996517401373936" lon="9.537615143001211"><ele>89.80000000000001</ele><time>2026-04-18T10:51:06.001Z</time></trkpt><trkpt lat="44.99643015812947" lon="9.537713551138147"><ele>90.19999999999999</ele><time>2026-04-18T10:51:07.001Z</time></trkpt><trkpt lat="44.996345771534266" lon="9.537802623480012"><ele>90.6</ele><time>2026-04-18T10:51:08.001Z</time></trkpt><trkpt lat="44.99627275107259" lon="9.537878902194542"><ele>91.0</ele><time>2026-04-18T10:51:09.001Z</time></trkpt><trkpt lat="44.99619141472487" lon="9.53795979368884"><ele>91.0</ele><time>2026-04-18T10:51:10.001Z</time></trkpt><trkpt lat="44.996102308114224" lon="9.538047902380592"><ele>91.0</ele><time>2026-04-18T10:51:11.001Z</time></trkpt><trkpt lat="44.99601394197761" lon="9.538127778892823"><ele>91.0</ele><time>2026-04-18T10:51:12.001Z</time></trkpt><trkpt lat="44.99592838716592" lon="9.538213480771349"><ele>91.0</ele><time>2026-04-18T10:51:13.001Z</time></trkpt><trkpt lat="44.99584564696624" lon="9.538303687367259"><ele>91.0</ele><time>2026-04-18T10:51:14.001Z</time></trkpt><trkpt lat="44.99575900413439" lon="9.53838975438108"><ele>91.4</ele><time>2026-04-18T10:51:15.001Z</time></trkpt><trkpt lat="44.99567009511555" lon="9.538477966273222"><ele>91.8</ele><time>2026-04-18T10:51:16.001Z</time></trkpt><trkpt lat="44.99557903345934" lon="9.53856668942121"><ele>92.2</ele><time>2026-04-18T10:51:17.001Z</time></trkpt><trkpt lat="44.99548414527798" lon="9.538659658059816"><ele>92.60000000000001</ele><time>2026-04-18T10:51:18.001Z</time></trkpt><trkpt lat="44.99539111590119" lon="9.538748408443432"><ele>93.0</ele><time>2026-04-18T10:51:19.001Z</time></trkpt><trkpt lat="44.995298233395324" lon="9.538832508819283"><ele>93.0</ele><time>2026-04-18T10:51:20.001Z</time></trkpt><trkpt lat="44.99520984861283" lon="9.538909193539823"><ele>93.0</ele><time>2026-04-18T10:51:21.001Z</time></trkpt><trkpt lat="44.99511962359131" lon="9.538981657358208"><ele>93.0</ele><time>2026-04-18T10:51:22.001Z</time></trkpt><trkpt lat="44.99502342880552" lon="9.539059664881407"><ele>93.0</ele><time>2026-04-18T10:51:23.001Z</time></trkpt><trkpt lat="44.99492297915219" lon="9.539135900281654"><ele>93.0</ele><time>2026-04-18T10:51:24.001Z</time></trkpt><trkpt lat="44.99481977313173" lon="9.539208132198825"><ele>92.75</ele><time>2026-04-18T10:51:25.001Z</time></trkpt><trkpt lat="44.99471440873236" lon="9.539288597493599"><ele>92.5</ele><time>2026-04-18T10:51:26.001Z</time></trkpt><trkpt lat="44.994611845197745" lon="9.539370538444928"><ele>92.25</ele><time>2026-04-18T10:51:27.001Z</time></trkpt><trkpt lat="44.99451184510737" lon="9.53945388536799"><ele>92.0</ele><time>2026-04-18T10:51:28.001Z</time></trkpt><trkpt lat="44.994411876209014" lon="9.539532453744831"><ele>91.8</ele><time>2026-04-18T10:51:29.001Z</time></trkpt><trkpt lat="44.99431741211973" lon="9.539603199008253"><ele>91.6</ele><time>2026-04-18T10:51:30.001Z</time></trkpt><trkpt lat="44.99422639911802" lon="9.539672503674424"><ele>91.39999999999999</ele><time>2026-04-18T10:51:31.002Z</time></trkpt><trkpt lat="44.994127203934575" lon="9.53974455328828"><ele>91.19999999999999</ele><time>2026-04-18T10:51:32.002Z</time></trkpt><trkpt lat="44.99402806186802" lon="9.539823366046962"><ele>91.0</ele><time>2026-04-18T10:51:33.002Z</time></trkpt><trkpt lat="44.993927694208004" lon="9.539896983248036"><ele>91.4</ele><time>2026-04-18T10:51:34.002Z</time></trkpt><trkpt lat="44.99382961014072" lon="9.53996661263596"><ele>91.8</ele><time>2026-04-18T10:51:35.002Z</time></trkpt><trkpt lat="44.99373434717038" lon="9.54003450804702"><ele>92.2</ele><time>2026-04-18T10:51:36.002Z</time></trkpt><trkpt lat="44.993635375487074" lon="9.540101627460958"><ele>92.60000000000001</ele><time>2026-04-18T10:51:37.002Z</time></trkpt><trkpt lat="44.99354049148135" lon="9.540168763121187"><ele>93.0</ele><time>2026-04-18T10:51:38.002Z</time></trkpt><trkpt lat="44.99345001611078" lon="9.540224382451722"><ele>93.0</ele><time>2026-04-18T10:51:39.002Z</time></trkpt><trkpt lat="44.993366989403306" lon="9.54027374058428"><ele>93.0</ele><time>2026-04-18T10:51:40.002Z</time></trkpt><trkpt lat="44.993290669365265" lon="9.540323161641165"><ele>93.0</ele><time>2026-04-18T10:51:41.002Z</time></trkpt><trkpt lat="44.99321658050153" lon="9.540364686515085"><ele>93.0</ele><time>2026-04-18T10:51:42.002Z</time></trkpt><trkpt lat="44.993146574353474" lon="9.540401242215369"><ele>93.0</ele><time>2026-04-18T10:51:43.002Z</time></trkpt><trkpt lat="44.99307655063232" lon="9.540431907351204"><ele>93.0</ele><time>2026-04-18T10:51:44.002Z</time></trkpt><trkpt lat="44.99300611135021" lon="9.540469049514288"><ele>93.33333333333333</ele><time>2026-04-18T10:51:45.002Z</time></trkpt><trkpt lat="44.99292937034313" lon="9.54052246835359"><ele>93.66666666666667</ele><time>2026-04-18T10:51:46.002Z</time></trkpt><trkpt lat="44.992851954653865" lon="9.540576296731453"><ele>94.0</ele><time>2026-04-18T10:51:47.002Z</time></trkpt><trkpt lat="44.99277392916952" lon="9.540625611821136"><ele>94.33333333333334</ele><time>2026-04-18T10:51:48.002Z</time></trkpt><trkpt lat="44.99270338564494" lon="9.540662455635479"><ele>94.66666666666667</ele><time>2026-04-18T10:51:49.002Z</time></trkpt><trkpt lat="44.992631306740584" lon="9.540705216993173"><ele>95.0</ele><time>2026-04-18T10:51:50.002Z</time></trkpt><trkpt lat="44.99256609644058" lon="9.54075246688517"><ele>95.16666666666667</ele><time>2026-04-18T10:51:51.002Z</time></trkpt><trkpt lat="44.992501015268445" lon="9.540802172104755"><ele>95.33333333333334</ele><time>2026-04-18T10:51:52.002Z</time></trkpt><trkpt lat="44.99243019389221" lon="9.540852697589585"><ele>95.5</ele><time>2026-04-18T10:51:53.002Z</time></trkpt><trkpt lat="44.992356390003216" lon="9.540915754826226"><ele>95.66666666666667</ele><time>2026-04-18T10:51:54.002Z</time></trkpt><trkpt lat="44.99227616894771" lon="9.54098804952317"><ele>95.83333333333333</ele><time>2026-04-18T10:51:55.002Z</time></trkpt><trkpt lat="44.9922097482284" lon="9.541048220949056"><ele>96.0</ele><time>2026-04-18T10:51:56.002Z</time></trkpt><trkpt lat="44.99214702024642" lon="9.541099377927003"><ele>96.0</ele><time>2026-04-18T10:51:57.002Z</time></trkpt><trkpt lat="44.992081739060275" lon="9.541152267229306"><ele>96.0</ele><time>2026-04-18T10:51:57.998Z</time></trkpt><trkpt lat="44.992017431934094" lon="9.541206473973967"><ele>96.0</ele><time>2026-04-18T10:51:58.998Z</time></trkpt><trkpt lat="44.991952334396565" lon="9.541262810156544"><ele>96.0</ele><time>2026-04-18T10:51:59.998Z</time></trkpt><trkpt lat="44.99183712189855" lon="9.541344300164424"><ele>96.0</ele><time>2026-04-18T10:52:01.998Z</time></trkpt><trkpt lat="44.9917667571489" lon="9.541400049647931"><ele>96.0</ele><time>2026-04-18T10:52:02.998Z</time></trkpt><trkpt lat="44.991695011946355" lon="9.541459304901458"><ele>95.99999999999999</ele><time>2026-04-18T10:52:03.998Z</time></trkpt><trkpt lat="44.99162640794706" lon="9.541512686357699"><ele>96.0</ele><time>2026-04-18T10:52:04.998Z</time></trkpt><trkpt lat="44.99156174821208" lon="9.541563784501632"><ele>96.0</ele><time>2026-04-18T10:52:05.998Z</time></trkpt><trkpt lat="44.991490425319505" lon="9.541623554113793"><ele>96.0</ele><time>2026-04-18T10:52:06.998Z</time></trkpt><trkpt lat="44.99142204185135" lon="9.541673168211064"><ele>96.0</ele><time>2026-04-18T10:52:07.998Z</time></trkpt><trkpt lat="44.99136256421759" lon="9.541713088382894"><ele>95.99999999999999</ele><time>2026-04-18T10:52:08.998Z</time></trkpt><trkpt lat="44.99130650284247" lon="9.541758289909332"><ele>96.0</ele><time>2026-04-18T10:52:09.998Z</time></trkpt><trkpt lat="44.99123616939164" lon="9.541814746182103"><ele>96.0</ele><time>2026-04-18T10:52:10.998Z</time></trkpt><trkpt lat="44.99116952861272" lon="9.541872551498475"><ele>96.0</ele><time>2026-04-18T10:52:11.999Z</time></trkpt><trkpt lat="44.99110509473084" lon="9.54192986452859"><ele>96.0</ele><time>2026-04-18T10:52:12.999Z</time></trkpt><trkpt lat="44.991039676404846" lon="9.541984006098255"><ele>96.0</ele><time>2026-04-18T10:52:13.999Z</time></trkpt><trkpt lat="44.99098125942738" lon="9.542024086311192"><ele>96.0</ele><time>2026-04-18T10:52:14.999Z</time></trkpt><trkpt lat="44.990918956075674" lon="9.542075649296432"><ele>96.0</ele><time>2026-04-18T10:52:15.999Z</time></trkpt><trkpt lat="44.99081415654136" lon="9.542159285242711"><ele>96.0</ele><time>2026-04-18T10:52:17.999Z</time></trkpt><trkpt lat="44.990754563672695" lon="9.542210919134664"><ele>96.0</ele><time>2026-04-18T10:52:18.999Z</time></trkpt><trkpt lat="44.990702532923756" lon="9.542264706333562"><ele>96.0</ele><time>2026-04-18T10:52:19.999Z</time></trkpt><trkpt lat="44.990642123172535" lon="9.542359007186171"><ele>96.0</ele><time>2026-04-18T10:52:21.999Z</time></trkpt><trkpt lat="44.990567414081376" lon="9.542376027885327"><ele>96.0</ele><time>2026-04-18T10:52:23.999Z</time></trkpt><trkpt lat="44.99047863105094" lon="9.542410842150172"><ele>96.0</ele><time>2026-04-18T10:52:25.999Z</time></trkpt><trkpt lat="44.9904148600555" lon="9.542441134670046"><ele>96.0</ele><time>2026-04-18T10:52:29Z</time></trkpt><trkpt lat="44.990322993481385" lon="9.542425340805346"><ele>96.0</ele><time>2026-04-18T10:52:32Z</time></trkpt><trkpt lat="44.990209663911955" lon="9.542425340809807"><ele>96.0</ele><time>2026-04-18T10:52:34Z</time></trkpt><trkpt lat="44.99012025022214" lon="9.542575037916187"><ele>96.0</ele><time>2026-04-18T10:52:35Z</time></trkpt><trkpt lat="44.99004687806095" lon="9.542600339096433"><ele>96.0</ele><time>2026-04-18T10:52:36Z</time></trkpt><trkpt lat="44.98997591586966" lon="9.542619120411944"><ele>96.6</ele><time>2026-04-18T10:52:37Z</time></trkpt><trkpt lat="44.98990703534328" lon="9.54264740163093"><ele>97.19999999999999</ele><time>2026-04-18T10:52:38Z</time></trkpt><trkpt lat="44.989808740737125" lon="9.542706995793989"><ele>97.80000000000001</ele><time>2026-04-18T10:52:40Z</time></trkpt><trkpt lat="44.98972013506057" lon="9.54281042683526"><ele>98.4</ele><time>2026-04-18T10:52:42Z</time></trkpt><trkpt lat="44.98964124114541" lon="9.542878445020017"><ele>99.0</ele><time>2026-04-18T10:52:44Z</time></trkpt><trkpt lat="44.989541361035876" lon="9.542834420872678"><ele>99.0</ele><time>2026-04-18T10:52:46Z</time></trkpt><trkpt lat="44.98947126418561" lon="9.542831526970106"><ele>99.0</ele><time>2026-04-18T10:52:47Z</time></trkpt><trkpt lat="44.98937296812473" lon="9.54283949827446"><ele>99.0</ele><time>2026-04-18T10:52:48Z</time></trkpt><trkpt lat="44.98925790703526" lon="9.542859877941885"><ele>99.0</ele><time>2026-04-18T10:52:49Z</time></trkpt><trkpt lat="44.989130339225966" lon="9.542893869835067"><ele>99.0</ele><time>2026-04-18T10:52:50Z</time></trkpt><trkpt lat="44.98899566801937" lon="9.542935507109155"><ele>98.75</ele><time>2026-04-18T10:52:51Z</time></trkpt><trkpt lat="44.988854949328406" lon="9.542979223422297"><ele>98.5</ele><time>2026-04-18T10:52:52Z</time></trkpt><trkpt lat="44.98871452627911" lon="9.54302332570555"><ele>98.25</ele><time>2026-04-18T10:52:53.001Z</time></trkpt><trkpt lat="44.988578334073" lon="9.54306657411718"><ele>98.0</ele><time>2026-04-18T10:52:54.001Z</time></trkpt><trkpt lat="44.98843952112192" lon="9.543120593969038"><ele>97.66666666666666</ele><time>2026-04-18T10:52:55.001Z</time></trkpt><trkpt lat="44.988289485014924" lon="9.5431748376536"><ele>97.33333333333334</ele><time>2026-04-18T10:52:56.001Z</time></trkpt><trkpt lat="44.988141417384206" lon="9.543220283717606"><ele>97.0</ele><time>2026-04-18T10:52:57.001Z</time></trkpt><trkpt lat="44.98799139123388" lon="9.543263706094171"><ele>97.0</ele><time>2026-04-18T10:52:58.001Z</time></trkpt><trkpt lat="44.987836074257565" lon="9.543302969854075"><ele>97.0</ele><time>2026-04-18T10:52:59.001Z</time></trkpt><trkpt lat="44.98768111443507" lon="9.543348223929604"><ele>97.0</ele><time>2026-04-18T10:53:00.001Z</time></trkpt><trkpt lat="44.987528704562706" lon="9.543391869702685"><ele>97.66666666666667</ele><time>2026-04-18T10:53:01.001Z</time></trkpt><trkpt lat="44.98737530176949" lon="9.543432336900063"><ele>98.33333333333334</ele><time>2026-04-18T10:53:02.001Z</time></trkpt><trkpt lat="44.98722062257896" lon="9.543473901775988"><ele>99.0</ele><time>2026-04-18T10:53:03.001Z</time></trkpt><trkpt lat="44.987058899685685" lon="9.54351857224399"><ele>99.0</ele><time>2026-04-18T10:53:04.001Z</time></trkpt><trkpt lat="44.986892942432945" lon="9.543568490627631"><ele>99.0</ele><time>2026-04-18T10:53:05.001Z</time></trkpt><trkpt lat="44.98672041523069" lon="9.543622721264223"><ele>99.0</ele><time>2026-04-18T10:53:06.001Z</time></trkpt><trkpt lat="44.98654271703665" lon="9.543653772893466"><ele>99.0</ele><time>2026-04-18T10:53:07.001Z</time></trkpt><trkpt lat="44.98637249109526" lon="9.543729004140651"><ele>99.0</ele><time>2026-04-18T10:53:08.001Z</time></trkpt><trkpt lat="44.986198317858" lon="9.543781653761425"><ele>99.0</ele><time>2026-04-18T10:53:09.001Z</time></trkpt><trkpt lat="44.98602000628062" lon="9.543836657491166"><ele>99.33333333333334</ele><time>2026-04-18T10:53:10.001Z</time></trkpt><trkpt lat="44.98584215537557" lon="9.543890024052086"><ele>99.66666666666667</ele><time>2026-04-18T10:53:11.001Z</time></trkpt><trkpt lat="44.985666149214985" lon="9.543943027717226"><ele>100.0</ele><time>2026-04-18T10:53:12.001Z</time></trkpt><trkpt lat="44.98549567819693" lon="9.543995836198283"><ele>100.0</ele><time>2026-04-18T10:53:13.001Z</time></trkpt><trkpt lat="44.985323609880105" lon="9.544051897474912"><ele>100.0</ele><time>2026-04-18T10:53:14.001Z</time></trkpt><trkpt lat="44.98515175564675" lon="9.544107551332566"><ele>100.0</ele><time>2026-04-18T10:53:15.001Z</time></trkpt><trkpt lat="44.984978804304625" lon="9.544162416336098"><ele>99.66666666666667</ele><time>2026-04-18T10:53:16.001Z</time></trkpt><trkpt lat="44.984808641358605" lon="9.54421677059908"><ele>99.33333333333334</ele><time>2026-04-18T10:53:17.001Z</time></trkpt><trkpt lat="44.98464254027434" lon="9.544270850805908"><ele>99.0</ele><time>2026-04-18T10:53:18.001Z</time></trkpt><trkpt lat="44.98448861830375" lon="9.544321654056073"><ele>99.0</ele><time>2026-04-18T10:53:19.001Z</time></trkpt><trkpt lat="44.9843461497656" lon="9.544372126763747"><ele>99.0</ele><time>2026-04-18T10:53:20.001Z</time></trkpt><trkpt lat="44.98420949448271" lon="9.544417369573331"><ele>99.0</ele><time>2026-04-18T10:53:21.001Z</time></trkpt><trkpt lat="44.98408413254144" lon="9.54445294283219"><ele>99.0</ele><time>2026-04-18T10:53:22.001Z</time></trkpt><trkpt lat="44.983963196706625" lon="9.544472440698756"><ele>99.5</ele><time>2026-04-18T10:53:23.001Z</time></trkpt><trkpt lat="44.98384266115784" lon="9.544471571180063"><ele>100.0</ele><time>2026-04-18T10:53:24.001Z</time></trkpt><trkpt lat="44.98371615124554" lon="9.544438051726434"><ele>100.5</ele><time>2026-04-18T10:53:25.002Z</time></trkpt><trkpt lat="44.98358443388818" lon="9.544386735868795"><ele>101.0</ele><time>2026-04-18T10:53:26.002Z</time></trkpt><trkpt lat="44.98344237432361" lon="9.544328660736495"><ele>101.33333333333333</ele><time>2026-04-18T10:53:27.002Z</time></trkpt><trkpt lat="44.98329390878619" lon="9.544269227280745"><ele>101.66666666666666</ele><time>2026-04-18T10:53:28.002Z</time></trkpt><trkpt lat="44.98313881146707" lon="9.544203899301944"><ele>102.0</ele><time>2026-04-18T10:53:29.002Z</time></trkpt><trkpt lat="44.98297665134007" lon="9.544139218572932"><ele>102.0</ele><time>2026-04-18T10:53:30.002Z</time></trkpt><trkpt lat="44.982803879852725" lon="9.5440699064908"><ele>102.0</ele><time>2026-04-18T10:53:31.002Z</time></trkpt><trkpt lat="44.98262701526291" lon="9.543998708123752"><ele>102.0</ele><time>2026-04-18T10:53:32.002Z</time></trkpt><trkpt lat="44.98245977872553" lon="9.543933786420379"><ele>102.33333333333334</ele><time>2026-04-18T10:53:33.002Z</time></trkpt><trkpt lat="44.98228831337306" lon="9.54386748076909"><ele>102.66666666666667</ele><time>2026-04-18T10:53:34.002Z</time></trkpt><trkpt lat="44.982113454817856" lon="9.543800368730633"><ele>103.0</ele><time>2026-04-18T10:53:35.002Z</time></trkpt><trkpt lat="44.98193976742366" lon="9.543733838645414"><ele>103.0</ele><time>2026-04-18T10:53:36.002Z</time></trkpt><trkpt lat="44.98176504398384" lon="9.54366840940529"><ele>103.0</ele><time>2026-04-18T10:53:37.002Z</time></trkpt><trkpt lat="44.98159056025399" lon="9.54359812533692"><ele>103.0</ele><time>2026-04-18T10:53:38.002Z</time></trkpt><trkpt lat="44.98141512371912" lon="9.543529031455286"><ele>103.66666666666667</ele><time>2026-04-18T10:53:39.002Z</time></trkpt><trkpt lat="44.981237100736244" lon="9.543459580789042"><ele>104.33333333333334</ele><time>2026-04-18T10:53:40.002Z</time></trkpt><trkpt lat="44.98105935964238" lon="9.543397544749078"><ele>105.0</ele><time>2026-04-18T10:53:41.002Z</time></trkpt><trkpt lat="44.980880943151625" lon="9.543337461229457"><ele>105.0</ele><time>2026-04-18T10:53:42.002Z</time></trkpt><trkpt lat="44.98069994784204" lon="9.54328797419781"><ele>105.0</ele><time>2026-04-18T10:53:43.002Z</time></trkpt><trkpt lat="44.980518910855984" lon="9.543242070820039"><ele>105.0</ele><time>2026-04-18T10:53:44.002Z</time></trkpt><trkpt lat="44.98033677575277" lon="9.543200457534637"><ele>105.0</ele><time>2026-04-18T10:53:45.002Z</time></trkpt><trkpt lat="44.98015517418715" lon="9.543160773243166"><ele>105.0</ele><time>2026-04-18T10:53:46.002Z</time></trkpt><trkpt lat="44.97997127394938" lon="9.5431233013849"><ele>105.0</ele><time>2026-04-18T10:53:47.002Z</time></trkpt><trkpt lat="44.97979087299043" lon="9.543084807220115"><ele>105.33333333333334</ele><time>2026-04-18T10:53:48.002Z</time></trkpt><trkpt lat="44.97960881798247" lon="9.54304893320437"><ele>105.66666666666667</ele><time>2026-04-18T10:53:49.002Z</time></trkpt><trkpt lat="44.97942749605289" lon="9.543015346937407"><ele>106.0</ele><time>2026-04-18T10:53:50.002Z</time></trkpt><trkpt lat="44.979246296520074" lon="9.542981586373681"><ele>106.33333333333334</ele><time>2026-04-18T10:53:51.002Z</time></trkpt><trkpt lat="44.97906787922323" lon="9.542946633377644"><ele>106.66666666666666</ele><time>2026-04-18T10:53:52.002Z</time></trkpt><trkpt lat="44.97889184507583" lon="9.54291048193685"><ele>107.0</ele><time>2026-04-18T10:53:53.002Z</time></trkpt><trkpt lat="44.978729229144676" lon="9.542872296731844"><ele>107.0</ele><time>2026-04-18T10:53:54.002Z</time></trkpt><trkpt lat="44.97857738672288" lon="9.542834292452277"><ele>107.0</ele><time>2026-04-18T10:53:55.002Z</time></trkpt><trkpt lat="44.9784344616487" lon="9.54278756878734"><ele>107.0</ele><time>2026-04-18T10:53:56.002Z</time></trkpt><trkpt lat="44.97827966756804" lon="9.542738956753695"><ele>107.0</ele><time>2026-04-18T10:53:57.002Z</time></trkpt><trkpt lat="44.97812528157317" lon="9.542669982002622"><ele>107.0</ele><time>2026-04-18T10:53:58.003Z</time></trkpt><trkpt lat="44.9779734469313" lon="9.542578890034752"><ele>107.0</ele><time>2026-04-18T10:53:59.003Z</time></trkpt><trkpt lat="44.97782158335146" lon="9.542472296430853"><ele>107.0</ele><time>2026-04-18T10:54:00.003Z</time></trkpt><trkpt lat="44.977677219524196" lon="9.542362204922508"><ele>107.0</ele><time>2026-04-18T10:54:01.003Z</time></trkpt><trkpt lat="44.977520770238414" lon="9.542223274988247"><ele>107.0</ele><time>2026-04-18T10:54:02.003Z</time></trkpt><trkpt lat="44.97737342044759" lon="9.5421081099696"><ele>107.33333333333333</ele><time>2026-04-18T10:54:03.003Z</time></trkpt><trkpt lat="44.97722755063158" lon="9.541990087067326"><ele>107.66666666666666</ele><time>2026-04-18T10:54:03.998Z</time></trkpt><trkpt lat="44.977093522198615" lon="9.541871268339845"><ele>108.0</ele><time>2026-04-18T10:54:04.998Z</time></trkpt><trkpt lat="44.97690268877443" lon="9.54173295304935"><ele>108.0</ele><time>2026-04-18T10:54:05.998Z</time></trkpt><trkpt lat="44.97674049645684" lon="9.541608592363168"><ele>108.0</ele><time>2026-04-18T10:54:06.999Z</time></trkpt><trkpt lat="44.97658717369902" lon="9.541488499580476"><ele>108.0</ele><time>2026-04-18T10:54:07.999Z</time></trkpt><trkpt lat="44.976432798769885" lon="9.541365226538584"><ele>108.0</ele><time>2026-04-18T10:54:08.999Z</time></trkpt><trkpt lat="44.976284093240196" lon="9.541248984476269"><ele>108.0</ele><time>2026-04-18T10:54:09.999Z</time></trkpt><trkpt lat="44.97613289699503" lon="9.54113125666366"><ele>108.0</ele><time>2026-04-18T10:54:10.999Z</time></trkpt><trkpt lat="44.975979742954515" lon="9.541010524952592"><ele>108.33333333333334</ele><time>2026-04-18T10:54:11.999Z</time></trkpt><trkpt lat="44.9758176092962" lon="9.540886439505803"><ele>108.66666666666667</ele><time>2026-04-18T10:54:12.999Z</time></trkpt><trkpt lat="44.975693187189066" lon="9.540786886533844"><ele>109.0</ele><time>2026-04-18T10:54:13.999Z</time></trkpt><trkpt lat="44.975565290535194" lon="9.540677093633054"><ele>109.0</ele><time>2026-04-18T10:54:14.999Z</time></trkpt><trkpt lat="44.9754236527708" lon="9.54056176780337"><ele>109.0</ele><time>2026-04-18T10:54:15.999Z</time></trkpt><trkpt lat="44.97527984181295" lon="9.540447592034162"><ele>109.0</ele><time>2026-04-18T10:54:16.999Z</time></trkpt><trkpt lat="44.97513492579846" lon="9.540330206474945"><ele>110.0</ele><time>2026-04-18T10:54:17.999Z</time></trkpt><trkpt lat="44.97498991409538" lon="9.540213109469992"><ele>111.0</ele><time>2026-04-18T10:54:18.999Z</time></trkpt><trkpt lat="44.974839836310835" lon="9.540094713986317"><ele>112.0</ele><time>2026-04-18T10:54:19.999Z</time></trkpt><trkpt lat="44.974690201255825" lon="9.539979311423066"><ele>112.0</ele><time>2026-04-18T10:54:20.999Z</time></trkpt><trkpt lat="44.97454118847563" lon="9.53986562476371"><ele>112.0</ele><time>2026-04-18T10:54:22Z</time></trkpt><trkpt lat="44.97439610417436" lon="9.539749226029096"><ele>112.0</ele><time>2026-04-18T10:54:23Z</time></trkpt><trkpt lat="44.97424620575895" lon="9.539625962009"><ele>112.66666666666667</ele><time>2026-04-18T10:54:24Z</time></trkpt><trkpt lat="44.974090300419405" lon="9.539505302753515"><ele>113.33333333333334</ele><time>2026-04-18T10:54:25Z</time></trkpt><trkpt lat="44.97393505646292" lon="9.539384760528597"><ele>114.0</ele><time>2026-04-18T10:54:26Z</time></trkpt><trkpt lat="44.97378028420776" lon="9.539261702693706"><ele>114.0</ele><time>2026-04-18T10:54:27Z</time></trkpt><trkpt lat="44.9736262513923" lon="9.539139716838548"><ele>114.0</ele><time>2026-04-18T10:54:28Z</time></trkpt><trkpt lat="44.97347159998444" lon="9.539016861086079"><ele>114.0</ele><time>2026-04-18T10:54:29Z</time></trkpt><trkpt lat="44.973316866004836" lon="9.538892781276534"><ele>114.33333333333334</ele><time>2026-04-18T10:54:30Z</time></trkpt><trkpt lat="44.973159263743234" lon="9.538768264136841"><ele>114.66666666666667</ele><time>2026-04-18T10:54:31Z</time></trkpt><trkpt lat="44.97299941914311" lon="9.538642876111746"><ele>115.0</ele><time>2026-04-18T10:54:32Z</time></trkpt><trkpt lat="44.972839627725165" lon="9.538515464576964"><ele>115.0</ele><time>2026-04-18T10:54:33Z</time></trkpt><trkpt lat="44.97267909842983" lon="9.538387464399738"><ele>115.0</ele><time>2026-04-18T10:54:34Z</time></trkpt><trkpt lat="44.97251900183561" lon="9.538260296647326"><ele>115.0</ele><time>2026-04-18T10:54:35Z</time></trkpt><trkpt lat="44.97235866339173" lon="9.538134301203785"><ele>115.0</ele><time>2026-04-18T10:54:36Z</time></trkpt><trkpt lat="44.97219579357394" lon="9.538005811176745"><ele>115.0</ele><time>2026-04-18T10:54:37Z</time></trkpt><trkpt lat="44.97203335735313" lon="9.537873714393672"><ele>115.0</ele><time>2026-04-18T10:54:38Z</time></trkpt><trkpt lat="44.97187446245702" lon="9.537742832333832"><ele>115.0</ele><time>2026-04-18T10:54:39.001Z</time></trkpt><trkpt lat="44.971712661952886" lon="9.537613453638668"><ele>115.0</ele><time>2026-04-18T10:54:40.001Z</time></trkpt><trkpt lat="44.97154862741404" lon="9.537484399858382"><ele>115.0</ele><time>2026-04-18T10:54:41.001Z</time></trkpt><trkpt lat="44.97138402102163" lon="9.537355519275444"><ele>115.33333333333334</ele><time>2026-04-18T10:54:42.001Z</time></trkpt><trkpt lat="44.97122014669034" lon="9.537226067045186"><ele>115.66666666666666</ele><time>2026-04-18T10:54:43.001Z</time></trkpt><trkpt lat="44.97105401950367" lon="9.537095677903162"><ele>116.0</ele><time>2026-04-18T10:54:44.001Z</time></trkpt><trkpt lat="44.97089206984356" lon="9.536963177592215"><ele>116.33333333333333</ele><time>2026-04-18T10:54:45.001Z</time></trkpt><trkpt lat="44.97072845457471" lon="9.53683265251702"><ele>116.66666666666666</ele><time>2026-04-18T10:54:46.001Z</time></trkpt><trkpt lat="44.97056795116983" lon="9.536703435163554"><ele>117.0</ele><time>2026-04-18T10:54:47.001Z</time></trkpt><trkpt lat="44.97041126474722" lon="9.536576765471498"><ele>117.0</ele><time>2026-04-18T10:54:48.001Z</time></trkpt><trkpt lat="44.97026896652906" lon="9.536457152644859"><ele>117.0</ele><time>2026-04-18T10:54:49.001Z</time></trkpt><trkpt lat="44.970138281624514" lon="9.536346544563738"><ele>117.0</ele><time>2026-04-18T10:54:50.001Z</time></trkpt><trkpt lat="44.970010113433325" lon="9.536249544307475"><ele>117.25</ele><time>2026-04-18T10:54:51.001Z</time></trkpt><trkpt lat="44.969883266291454" lon="9.536150764587049"><ele>117.5</ele><time>2026-04-18T10:54:52.001Z</time></trkpt><trkpt lat="44.96976680530861" lon="9.536056212517305"><ele>117.75</ele><time>2026-04-18T10:54:53.001Z</time></trkpt><trkpt lat="44.969655624362304" lon="9.535967603784352"><ele>118.0</ele><time>2026-04-18T10:54:54.001Z</time></trkpt><trkpt lat="44.96955697312963" lon="9.535881235965174"><ele>118.00000000000001</ele><time>2026-04-18T10:54:55.001Z</time></trkpt><trkpt lat="44.969474384853534" lon="9.535795845256699"><ele>118.0</ele><time>2026-04-18T10:54:56.001Z</time></trkpt><trkpt lat="44.96940437709734" lon="9.535711170158466"><ele>118.0</ele><time>2026-04-18T10:54:57.001Z</time></trkpt><trkpt lat="44.969354897990826" lon="9.535626247054095"><ele>118.0</ele><time>2026-04-18T10:54:58.001Z</time></trkpt><trkpt lat="44.96931486186882" lon="9.535540128551917"><ele>118.00000000000001</ele><time>2026-04-18T10:54:59.001Z</time></trkpt><trkpt lat="44.96928635619952" lon="9.535450402571767"><ele>118.0</ele><time>2026-04-18T10:55:00.001Z</time></trkpt><trkpt lat="44.9692569195064" lon="9.53533946569679"><ele>118.2</ele><time>2026-04-18T10:55:01.001Z</time></trkpt><trkpt lat="44.96923212459252" lon="9.535190513521707"><ele>118.4</ele><time>2026-04-18T10:55:03.001Z</time></trkpt><trkpt lat="44.9692158999935" lon="9.53508758958044"><ele>118.60000000000001</ele><time>2026-04-18T10:55:05.001Z</time></trkpt><trkpt lat="44.969197688644996" lon="9.534977809925422"><ele>118.80000000000001</ele><time>2026-04-18T10:55:07.002Z</time></trkpt><trkpt lat="44.96915708781789" lon="9.534823821355074"><ele>119.0</ele><time>2026-04-18T10:55:09.002Z</time></trkpt><trkpt lat="44.96913447494749" lon="9.53469285363134"><ele>119.14285714285714</ele><time>2026-04-18T10:55:11.002Z</time></trkpt><trkpt lat="44.96913353976081" lon="9.534596476825737"><ele>119.28571428571428</ele><time>2026-04-18T10:55:13.002Z</time></trkpt><trkpt lat="44.969112761373154" lon="9.534488995445722"><ele>119.42857142857143</ele><time>2026-04-18T10:55:15.002Z</time></trkpt><trkpt lat="44.96909551282822" lon="9.534397066436831"><ele>119.57142857142857</ele><time>2026-04-18T10:55:17.002Z</time></trkpt><trkpt lat="44.96908020015046" lon="9.534300269019031"><ele>119.71428571428571</ele><time>2026-04-18T10:55:19.002Z</time></trkpt><trkpt lat="44.96906888527198" lon="9.53419824774797"><ele>119.85714285714286</ele><time>2026-04-18T10:55:21.002Z</time></trkpt><trkpt lat="44.969059669707775" lon="9.534099967493857"><ele>120.0</ele><time>2026-04-18T10:55:23.002Z</time></trkpt><trkpt lat="44.969033735523894" lon="9.534009251779732"><ele>120.0</ele><time>2026-04-18T10:55:25.002Z</time></trkpt><trkpt lat="44.96901187048258" lon="9.53385922598558"><ele>120.0</ele><time>2026-04-18T10:55:27.002Z</time></trkpt><trkpt lat="44.96897692710661" lon="9.533755999056822"><ele>120.0</ele><time>2026-04-18T10:55:28.002Z</time></trkpt><trkpt lat="44.96891779614421" lon="9.533663424547942"><ele>120.0</ele><time>2026-04-18T10:55:29.002Z</time></trkpt><trkpt lat="44.968865908312445" lon="9.533575891561403"><ele>120.0</ele><time>2026-04-18T10:55:30.002Z</time></trkpt><trkpt lat="44.96877368184547" lon="9.533521294523345"><ele>120.5</ele><time>2026-04-18T10:55:31.002Z</time></trkpt><trkpt lat="44.96866985718605" lon="9.533482108116939"><ele>121.0</ele><time>2026-04-18T10:55:32.002Z</time></trkpt><trkpt lat="44.96855831847682" lon="9.533446393930596"><ele>121.5</ele><time>2026-04-18T10:55:33.002Z</time></trkpt><trkpt lat="44.96844056196909" lon="9.533415788049314"><ele>122.0</ele><time>2026-04-18T10:55:34.002Z</time></trkpt><trkpt lat="44.96833068499059" lon="9.533318864314987"><ele>122.0</ele><time>2026-04-18T10:55:35.002Z</time></trkpt><trkpt lat="44.96820175743152" lon="9.53324833384056"><ele>122.0</ele><time>2026-04-18T10:55:36.002Z</time></trkpt><trkpt lat="44.968098844073715" lon="9.533145526681269"><ele>122.0</ele><time>2026-04-18T10:55:37.002Z</time></trkpt><trkpt lat="44.96798634622532" lon="9.533075738363026"><ele>122.0</ele><time>2026-04-18T10:55:38.002Z</time></trkpt><trkpt lat="44.96787277574613" lon="9.532992286426339"><ele>122.0</ele><time>2026-04-18T10:55:39.003Z</time></trkpt><trkpt lat="44.967756901739676" lon="9.532905403771826"><ele>122.0</ele><time>2026-04-18T10:55:40.003Z</time></trkpt><trkpt lat="44.96764126035031" lon="9.532816337450143"><ele>122.0</ele><time>2026-04-18T10:55:41.003Z</time></trkpt><trkpt lat="44.967531090439245" lon="9.532722849037825"><ele>122.0</ele><time>2026-04-18T10:55:42.003Z</time></trkpt><trkpt lat="44.96743437318303" lon="9.532619038539996"><ele>122.6</ele><time>2026-04-18T10:55:43.003Z</time></trkpt><trkpt lat="44.96734058859995" lon="9.53251813042768"><ele>123.19999999999999</ele><time>2026-04-18T10:55:44.003Z</time></trkpt><trkpt lat="44.96725451856255" lon="9.532431924777578"><ele>123.8</ele><time>2026-04-18T10:55:45.003Z</time></trkpt><trkpt lat="44.96717144302394" lon="9.532339773563002"><ele>124.4</ele><time>2026-04-18T10:55:46.003Z</time></trkpt><trkpt lat="44.96706169510013" lon="9.532284384817839"><ele>125.0</ele><time>2026-04-18T10:55:47.003Z</time></trkpt><trkpt lat="44.966935832523106" lon="9.532266770585819"><ele>125.0</ele><time>2026-04-18T10:55:48.003Z</time></trkpt><trkpt lat="44.96680047124997" lon="9.53228273796849"><ele>125.0</ele><time>2026-04-18T10:55:49.003Z</time></trkpt><trkpt lat="44.96666399498283" lon="9.532308797922354"><ele>125.0</ele><time>2026-04-18T10:55:50.003Z</time></trkpt><trkpt lat="44.96652894130673" lon="9.532333662945677"><ele>125.0</ele><time>2026-04-18T10:55:51.003Z</time></trkpt><trkpt lat="44.9664009527104" lon="9.532341050670237"><ele>124.5</ele><time>2026-04-18T10:55:52.003Z</time></trkpt><trkpt lat="44.96627576308439" lon="9.532340415151177"><ele>124.0</ele><time>2026-04-18T10:55:53.003Z</time></trkpt><trkpt lat="44.966158292228236" lon="9.532268469061869"><ele>123.5</ele><time>2026-04-18T10:55:54.003Z</time></trkpt><trkpt lat="44.96604502618379" lon="9.532216602471832"><ele>123.0</ele><time>2026-04-18T10:55:55.003Z</time></trkpt><trkpt lat="44.96594040225992" lon="9.532199974647733"><ele>124.0</ele><time>2026-04-18T10:55:56.003Z</time></trkpt><trkpt lat="44.9658446832678" lon="9.532181774856516"><ele>125.00000000000001</ele><time>2026-04-18T10:55:57.003Z</time></trkpt><trkpt lat="44.965739757373775" lon="9.532192536803564"><ele>126.00000000000001</ele><time>2026-04-18T10:55:58.003Z</time></trkpt><trkpt lat="44.96562424000041" lon="9.53222973422025"><ele>127.0</ele><time>2026-04-18T10:55:59.003Z</time></trkpt><trkpt lat="44.96550192819937" lon="9.532268803519997"><ele>128.0</ele><time>2026-04-18T10:56:00.003Z</time></trkpt><trkpt lat="44.96537616073005" lon="9.532297232875372"><ele>128.0</ele><time>2026-04-18T10:56:01.003Z</time></trkpt><trkpt lat="44.96525327950368" lon="9.532338187523028"><ele>128.0</ele><time>2026-04-18T10:56:02.003Z</time></trkpt><trkpt lat="44.96511890084558" lon="9.532325042405287"><ele>128.0</ele><time>2026-04-18T10:56:03.003Z</time></trkpt><trkpt lat="44.96497899414901" lon="9.532316262088935"><ele>128.0</ele><time>2026-04-18T10:56:04.003Z</time></trkpt><trkpt lat="44.9648345023832" lon="9.532287840702626"><ele>130.33333333333331</ele><time>2026-04-18T10:56:05.003Z</time></trkpt><trkpt lat="44.964675076650664" lon="9.53228111396893"><ele>132.66666666666666</ele><time>2026-04-18T10:56:06.003Z</time></trkpt><trkpt lat="44.96451469268702" lon="9.532249756770849"><ele>135.0</ele><time>2026-04-18T10:56:07.003Z</time></trkpt><trkpt lat="44.96435141347907" lon="9.53222112447887"><ele>135.66666666666666</ele><time>2026-04-18T10:56:08.003Z</time></trkpt><trkpt lat="44.96418302201665" lon="9.532194002862546"><ele>136.33333333333331</ele><time>2026-04-18T10:56:09.003Z</time></trkpt><trkpt lat="44.96401592042384" lon="9.532166651885447"><ele>137.0</ele><time>2026-04-18T10:56:09.999Z</time></trkpt><trkpt lat="44.96386301709311" lon="9.532117453111267"><ele>137.0</ele><time>2026-04-18T10:56:10.999Z</time></trkpt><trkpt lat="44.963703965413686" lon="9.532090315477163"><ele>137.0</ele><time>2026-04-18T10:56:11.999Z</time></trkpt><trkpt lat="44.96354235097388" lon="9.53208235790204"><ele>137.0</ele><time>2026-04-18T10:56:12.999Z</time></trkpt><trkpt lat="44.963382870171046" lon="9.532049299983719"><ele>137.33333333333331</ele><time>2026-04-18T10:56:13.999Z</time></trkpt><trkpt lat="44.96322100003692" lon="9.532019883264217"><ele>137.66666666666666</ele><time>2026-04-18T10:56:14.999Z</time></trkpt><trkpt lat="44.96305636058496" lon="9.531991947095088"><ele>138.0</ele><time>2026-04-18T10:56:15.999Z</time></trkpt><trkpt lat="44.96288822161676" lon="9.53196573645402"><ele>138.0</ele><time>2026-04-18T10:56:16.999Z</time></trkpt><trkpt lat="44.962709323178125" lon="9.531935484873891"><ele>138.0</ele><time>2026-04-18T10:56:17.999Z</time></trkpt><trkpt lat="44.96252863672848" lon="9.531904101818881"><ele>138.0</ele><time>2026-04-18T10:56:18.999Z</time></trkpt><trkpt lat="44.96234074011387" lon="9.531872402841264"><ele>138.66666666666666</ele><time>2026-04-18T10:56:20Z</time></trkpt><trkpt lat="44.962149764020765" lon="9.531838430846962"><ele>139.33333333333331</ele><time>2026-04-18T10:56:21Z</time></trkpt><trkpt lat="44.9619671240818" lon="9.531805571784982"><ele>140.0</ele><time>2026-04-18T10:56:22Z</time></trkpt><trkpt lat="44.961795031326496" lon="9.53177438195674"><ele>141.0</ele><time>2026-04-18T10:56:23Z</time></trkpt><trkpt lat="44.96161760365014" lon="9.531742743870115"><ele>142.0</ele><time>2026-04-18T10:56:24Z</time></trkpt><trkpt lat="44.961436487490545" lon="9.531712964977947"><ele>143.0</ele><time>2026-04-18T10:56:25Z</time></trkpt><trkpt lat="44.96125663988329" lon="9.531682619456813"><ele>143.0</ele><time>2026-04-18T10:56:26Z</time></trkpt><trkpt lat="44.96107388243719" lon="9.531652109648586"><ele>143.0</ele><time>2026-04-18T10:56:27Z</time></trkpt><trkpt lat="44.960889954163186" lon="9.531618276090258"><ele>143.0</ele><time>2026-04-18T10:56:28Z</time></trkpt><trkpt lat="44.96070606650092" lon="9.53158441124873"><ele>143.33333333333331</ele><time>2026-04-18T10:56:29Z</time></trkpt><trkpt lat="44.96052336496785" lon="9.53155189674754"><ele>143.66666666666666</ele><time>2026-04-18T10:56:30Z</time></trkpt><trkpt lat="44.960337997075165" lon="9.531514729209531"><ele>144.0</ele><time>2026-04-18T10:56:31Z</time></trkpt><trkpt lat="44.96015073812992" lon="9.531483856344606"><ele>144.66666666666666</ele><time>2026-04-18T10:56:32Z</time></trkpt><trkpt lat="44.95996628559603" lon="9.531446008348262"><ele>145.33333333333331</ele><time>2026-04-18T10:56:33Z</time></trkpt><trkpt lat="44.959780669924946" lon="9.531417361652544"><ele>146.0</ele><time>2026-04-18T10:56:34Z</time></trkpt><trkpt lat="44.959592292297735" lon="9.531376764847021"><ele>146.0</ele><time>2026-04-18T10:56:35Z</time></trkpt><trkpt lat="44.95940608221225" lon="9.531348391531129"><ele>146.0</ele><time>2026-04-18T10:56:36Z</time></trkpt><trkpt lat="44.95923062842301" lon="9.531314538513486"><ele>146.0</ele><time>2026-04-18T10:56:37Z</time></trkpt><trkpt lat="44.959056217641994" lon="9.531284787074437"><ele>146.0</ele><time>2026-04-18T10:56:38Z</time></trkpt><trkpt lat="44.95888240910084" lon="9.531254721695634"><ele>146.0</ele><time>2026-04-18T10:56:39Z</time></trkpt><trkpt lat="44.958720046971216" lon="9.531226110539645"><ele>146.0</ele><time>2026-04-18T10:56:40Z</time></trkpt><trkpt lat="44.95857428980223" lon="9.53120359300439"><ele>146.0</ele><time>2026-04-18T10:56:41Z</time></trkpt><trkpt lat="44.958435071413014" lon="9.531177959034778"><ele>146.0</ele><time>2026-04-18T10:56:42Z</time></trkpt><trkpt lat="44.95830916728948" lon="9.531156075169914"><ele>146.0</ele><time>2026-04-18T10:56:43Z</time></trkpt><trkpt lat="44.95818773126753" lon="9.531129900613337"><ele>146.0</ele><time>2026-04-18T10:56:44.001Z</time></trkpt><trkpt lat="44.95807454114178" lon="9.531093527037182"><ele>147.25</ele><time>2026-04-18T10:56:45.001Z</time></trkpt><trkpt lat="44.95795076819156" lon="9.531033132288142"><ele>148.5</ele><time>2026-04-18T10:56:46.001Z</time></trkpt><trkpt lat="44.95781919834403" lon="9.530944759100594"><ele>149.75</ele><time>2026-04-18T10:56:47.001Z</time></trkpt><trkpt lat="44.95768658230274" lon="9.530853300525788"><ele>151.0</ele><time>2026-04-18T10:56:48.001Z</time></trkpt><trkpt lat="44.95753858061605" lon="9.530757399158322"><ele>150.0</ele><time>2026-04-18T10:56:49.001Z</time></trkpt><trkpt lat="44.95738897963033" lon="9.530663791513232"><ele>149.0</ele><time>2026-04-18T10:56:50.001Z</time></trkpt><trkpt lat="44.95724163411493" lon="9.530569522087612"><ele>148.0</ele><time>2026-04-18T10:56:51.001Z</time></trkpt><trkpt lat="44.95711205863924" lon="9.530484877739955"><ele>148.0</ele><time>2026-04-18T10:56:52.001Z</time></trkpt><trkpt lat="44.95700079288218" lon="9.530411218228128"><ele>148.0</ele><time>2026-04-18T10:56:53.001Z</time></trkpt><trkpt lat="44.95692390061039" lon="9.530359213294126"><ele>148.0</ele><time>2026-04-18T10:56:54.001Z</time></trkpt><trkpt lat="44.95684369602359" lon="9.530296757887708"><ele>148.0</ele><time>2026-04-18T10:56:56.001Z</time></trkpt><trkpt lat="44.95693832355906" lon="9.530365612574592"><ele>148.0</ele><time>2026-04-18T10:57:15.002Z</time></trkpt><trkpt lat="44.95701883904934" lon="9.530447715923593"><ele>148.0</ele><time>2026-04-18T10:57:16.002Z</time></trkpt><trkpt lat="44.9571115460834" lon="9.530490497729703"><ele>148.0</ele><time>2026-04-18T10:57:17.002Z</time></trkpt><trkpt lat="44.9571972310029" lon="9.530549190245033"><ele>148.0</ele><time>2026-04-18T10:57:18.002Z</time></trkpt><trkpt lat="44.957283285634894" lon="9.53060680754129"><ele>148.0</ele><time>2026-04-18T10:57:19.002Z</time></trkpt><trkpt lat="44.95737524153388" lon="9.530667326916403"><ele>148.0</ele><time>2026-04-18T10:57:20.002Z</time></trkpt><trkpt lat="44.95747988698562" lon="9.530735175627074"><ele>148.6</ele><time>2026-04-18T10:57:21.002Z</time></trkpt><trkpt lat="44.95759180014024" lon="9.530808984525853"><ele>149.20000000000002</ele><time>2026-04-18T10:57:22.002Z</time></trkpt><trkpt lat="44.95769642021839" lon="9.530878349022244"><ele>149.8</ele><time>2026-04-18T10:57:23.002Z</time></trkpt><trkpt lat="44.957786016743455" lon="9.530936968363488"><ele>150.4</ele><time>2026-04-18T10:57:24.002Z</time></trkpt><trkpt lat="44.95786638519397" lon="9.530987369898746"><ele>151.0</ele><time>2026-04-18T10:57:25.002Z</time></trkpt><trkpt lat="44.95794075337012" lon="9.531035635361727"><ele>151.0</ele><time>2026-04-18T10:57:26.002Z</time></trkpt><trkpt lat="44.95800778095085" lon="9.531078309583938"><ele>151.0</ele><time>2026-04-18T10:57:27.002Z</time></trkpt><trkpt lat="44.95809884872854" lon="9.531097845970814"><ele>151.0</ele><time>2026-04-18T10:57:29.002Z</time></trkpt><trkpt lat="44.958127687993134" lon="9.531004762697604"><ele>151.0</ele><time>2026-04-18T10:57:31.002Z</time></trkpt><trkpt lat="44.95815808879658" lon="9.530837631246515"><ele>151.0</ele><time>2026-04-18T10:57:33.002Z</time></trkpt><trkpt lat="44.958174454168635" lon="9.530691652272775"><ele>151.0</ele><time>2026-04-18T10:57:34.002Z</time></trkpt><trkpt lat="44.95818997135872" lon="9.53054155567819"><ele>151.0</ele><time>2026-04-18T10:57:35.002Z</time></trkpt><trkpt lat="44.95818838863608" lon="9.530408771342948"><ele>151.0</ele><time>2026-04-18T10:57:36.002Z</time></trkpt><trkpt lat="44.958206112235274" lon="9.530260008255174"><ele>151.0</ele><time>2026-04-18T10:57:37.002Z</time></trkpt><trkpt lat="44.95821916693061" lon="9.530111203440969"><ele>151.0</ele><time>2026-04-18T10:57:38.002Z</time></trkpt><trkpt lat="44.958231323262474" lon="9.52997598901834"><ele>150.66666666666669</ele><time>2026-04-18T10:57:39.002Z</time></trkpt><trkpt lat="44.958240817891564" lon="9.529851227309388"><ele>150.33333333333334</ele><time>2026-04-18T10:57:40.002Z</time></trkpt><trkpt lat="44.958249935157326" lon="9.52973909241468"><ele>150.0</ele><time>2026-04-18T10:57:41.002Z</time></trkpt><trkpt lat="44.958258751769435" lon="9.529638133893062"><ele>149.66666666666666</ele><time>2026-04-18T10:57:42.002Z</time></trkpt><trkpt lat="44.95826433202391" lon="9.529538651598076"><ele>149.33333333333331</ele><time>2026-04-18T10:57:43.002Z</time></trkpt><trkpt lat="44.95827113351666" lon="9.529429833862388"><ele>149.0</ele><time>2026-04-18T10:57:44.002Z</time></trkpt><trkpt lat="44.95827411188096" lon="9.529324541629816"><ele>148.66666666666666</ele><time>2026-04-18T10:57:45.002Z</time></trkpt><trkpt lat="44.95827656906579" lon="9.52921105503466"><ele>148.33333333333331</ele><time>2026-04-18T10:57:46.002Z</time></trkpt><trkpt lat="44.958279968266744" lon="9.52909998342451"><ele>148.0</ele><time>2026-04-18T10:57:47.003Z</time></trkpt><trkpt lat="44.95828369418149" lon="9.528995976783207"><ele>147.66666666666666</ele><time>2026-04-18T10:57:48.003Z</time></trkpt><trkpt lat="44.958285088801745" lon="9.528889984852245"><ele>147.33333333333334</ele><time>2026-04-18T10:57:49.003Z</time></trkpt><trkpt lat="44.95828313436264" lon="9.528759508952797"><ele>147.0</ele><time>2026-04-18T10:57:50.003Z</time></trkpt><trkpt lat="44.95828036731728" lon="9.528616842874898"><ele>146.2</ele><time>2026-04-18T10:57:51.003Z</time></trkpt><trkpt lat="44.958277583824156" lon="9.528470465829201"><ele>145.39999999999998</ele><time>2026-04-18T10:57:52.003Z</time></trkpt><trkpt lat="44.95827532438587" lon="9.52832470448462"><ele>144.60000000000002</ele><time>2026-04-18T10:57:53.003Z</time></trkpt><trkpt lat="44.958272624626126" lon="9.528192620284273"><ele>143.8</ele><time>2026-04-18T10:57:54.003Z</time></trkpt><trkpt lat="44.958266463385186" lon="9.528051242173696"><ele>143.0</ele><time>2026-04-18T10:57:55.003Z</time></trkpt><trkpt lat="44.958257872976354" lon="9.527905589268563"><ele>143.8</ele><time>2026-04-18T10:57:56.003Z</time></trkpt><trkpt lat="44.95824737005217" lon="9.527757183453327"><ele>144.60000000000002</ele><time>2026-04-18T10:57:57.003Z</time></trkpt><trkpt lat="44.95823703777278" lon="9.527614923844888"><ele>145.39999999999998</ele><time>2026-04-18T10:57:58.003Z</time></trkpt><trkpt lat="44.95822718265542" lon="9.527473089016356"><ele>146.2</ele><time>2026-04-18T10:57:59.003Z</time></trkpt><trkpt lat="44.95821901431262" lon="9.5273392843163"><ele>147.0</ele><time>2026-04-18T10:58:00.003Z</time></trkpt><trkpt lat="44.95820989007315" lon="9.527210092180889"><ele>147.0</ele><time>2026-04-18T10:58:01.003Z</time></trkpt><trkpt lat="44.95819969813812" lon="9.527089554820527"><ele>147.0</ele><time>2026-04-18T10:58:02.003Z</time></trkpt><trkpt lat="44.9581949905609" lon="9.526980941586064"><ele>147.0</ele><time>2026-04-18T10:58:03.003Z</time></trkpt><trkpt lat="44.958243891224164" lon="9.526829317855917"><ele>147.0</ele><time>2026-04-18T10:58:05.003Z</time></trkpt><trkpt lat="44.958273679597866" lon="9.526737806200867"><ele>147.0</ele><time>2026-04-18T10:58:06.003Z</time></trkpt><trkpt lat="44.958344459445705" lon="9.526671780453663"><ele>147.0</ele><time>2026-04-18T10:58:07.003Z</time></trkpt><trkpt lat="44.95841107553819" lon="9.526578893329102"><ele>147.2</ele><time>2026-04-18T10:58:08.003Z</time></trkpt><trkpt lat="44.9584777358613" lon="9.526468991125492"><ele>147.39999999999998</ele><time>2026-04-18T10:58:09.003Z</time></trkpt><trkpt lat="44.958557553378846" lon="9.526381961502935"><ele>147.60000000000002</ele><time>2026-04-18T10:58:10.003Z</time></trkpt><trkpt lat="44.9586321463693" lon="9.526304634306966"><ele>147.8</ele><time>2026-04-18T10:58:11.003Z</time></trkpt><trkpt lat="44.95871001919189" lon="9.526240213491166"><ele>148.0</ele><time>2026-04-18T10:58:12.003Z</time></trkpt><trkpt lat="44.95879617624814" lon="9.526216995267026"><ele>148.66666666666669</ele><time>2026-04-18T10:58:13.003Z</time></trkpt><trkpt lat="44.95887823358857" lon="9.526180664243396"><ele>149.33333333333334</ele><time>2026-04-18T10:58:14.003Z</time></trkpt><trkpt lat="44.958943137341" lon="9.526122251697679"><ele>150.0</ele><time>2026-04-18T10:58:15.003Z</time></trkpt><trkpt lat="44.95902271070314" lon="9.526042666308102"><ele>150.66666666666666</ele><time>2026-04-18T10:58:16.999Z</time></trkpt><trkpt lat="44.95899857078113" lon="9.525947872509484"><ele>151.33333333333331</ele><time>2026-04-18T10:58:18.999Z</time></trkpt><trkpt lat="44.95891970139929" lon="9.525895459190354"><ele>152.0</ele><time>2026-04-18T10:58:20.999Z</time></trkpt><trkpt lat="44.95884005935696" lon="9.525864005168255"><ele>152.0</ele><time>2026-04-18T10:58:21.999Z</time></trkpt><trkpt lat="44.958753519787976" lon="9.525813360767769"><ele>152.0</ele><time>2026-04-18T10:58:22.999Z</time></trkpt><trkpt lat="44.95866837224639" lon="9.525755564907012"><ele>152.0</ele><time>2026-04-18T10:58:23.999Z</time></trkpt><trkpt lat="44.95856576616284" lon="9.525696300260487"><ele>152.0</ele><time>2026-04-18T10:58:24.999Z</time></trkpt><trkpt lat="44.95845780433612" lon="9.52562604775597"><ele>152.0</ele><time>2026-04-18T10:58:25.999Z</time></trkpt><trkpt lat="44.95835146390855" lon="9.525558829766558"><ele>152.4</ele><time>2026-04-18T10:58:27Z</time></trkpt><trkpt lat="44.95825453844049" lon="9.52549990216711"><ele>152.79999999999998</ele><time>2026-04-18T10:58:27.999Z</time></trkpt><trkpt lat="44.95816331151761" lon="9.52544523852851"><ele>153.2</ele><time>2026-04-18T10:58:28.999Z</time></trkpt><trkpt lat="44.95807722724092" lon="9.525395546248983"><ele>153.6</ele><time>2026-04-18T10:58:30Z</time></trkpt><trkpt lat="44.95800633975233" lon="9.525342552363494"><ele>154.0</ele><time>2026-04-18T10:58:31Z</time></trkpt><trkpt lat="44.95793736389538" lon="9.525304312366309"><ele>154.33333333333334</ele><time>2026-04-18T10:58:32Z</time></trkpt><trkpt lat="44.95786054108882" lon="9.525259632344403"><ele>154.66666666666669</ele><time>2026-04-18T10:58:33Z</time></trkpt><trkpt lat="44.95778185124842" lon="9.525213926171135"><ele>155.0</ele><time>2026-04-18T10:58:34Z</time></trkpt><trkpt lat="44.95771403121354" lon="9.525166935794884"><ele>155.33333333333334</ele><time>2026-04-18T10:58:35Z</time></trkpt><trkpt lat="44.95764443399162" lon="9.52511017305754"><ele>155.66666666666666</ele><time>2026-04-18T10:58:36Z</time></trkpt><trkpt lat="44.95757257785466" lon="9.525035594038703"><ele>156.0</ele><time>2026-04-18T10:58:37Z</time></trkpt><trkpt lat="44.957508897214005" lon="9.52497402703389"><ele>156.33333333333334</ele><time>2026-04-18T10:58:38Z</time></trkpt><trkpt lat="44.9574560025635" lon="9.524914081483729"><ele>156.66666666666666</ele><time>2026-04-18T10:58:39Z</time></trkpt><trkpt lat="44.95739992809633" lon="9.524852076209573"><ele>157.0</ele><time>2026-04-18T10:58:40Z</time></trkpt><trkpt lat="44.95733235631408" lon="9.52484978294866"><ele>157.33333333333331</ele><time>2026-04-18T10:58:43Z</time></trkpt><trkpt lat="44.95725183615236" lon="9.524826710512198"><ele>157.66666666666666</ele><time>2026-04-18T10:58:47Z</time></trkpt><trkpt lat="44.9571830455871" lon="9.524797904538568"><ele>158.0</ele><time>2026-04-18T10:58:49Z</time></trkpt><trkpt lat="44.957080805477275" lon="9.524755929923929"><ele>158.0</ele><time>2026-04-18T10:58:51Z</time></trkpt><trkpt lat="44.95701197663841" lon="9.524711976018676"><ele>158.0</ele><time>2026-04-18T10:58:52.001Z</time></trkpt><trkpt lat="44.9569414207455" lon="9.524668220338128"><ele>158.0</ele><time>2026-04-18T10:58:53.001Z</time></trkpt><trkpt lat="44.956861987615504" lon="9.524617679521983"><ele>158.0</ele><time>2026-04-18T10:58:54.001Z</time></trkpt><trkpt lat="44.95678191137506" lon="9.524570751674897"><ele>158.0</ele><time>2026-04-18T10:58:55.001Z</time></trkpt><trkpt lat="44.95668781312938" lon="9.524515640604475"><ele>158.0</ele><time>2026-04-18T10:58:56.001Z</time></trkpt><trkpt lat="44.956585300341835" lon="9.524454399523327"><ele>158.75</ele><time>2026-04-18T10:58:57.001Z</time></trkpt><trkpt lat="44.9564806441802" lon="9.524386022945489"><ele>159.5</ele><time>2026-04-18T10:58:58.001Z</time></trkpt><trkpt lat="44.95636885502434" lon="9.524315376851431"><ele>160.25</ele><time>2026-04-18T10:58:59.001Z</time></trkpt><trkpt lat="44.956256044565585" lon="9.524243347621566"><ele>161.0</ele><time>2026-04-18T10:59:00.001Z</time></trkpt><trkpt lat="44.95613959464441" lon="9.524174890068965"><ele>161.0</ele><time>2026-04-18T10:59:01.001Z</time></trkpt><trkpt lat="44.95602896477181" lon="9.524106355333185"><ele>161.0</ele><time>2026-04-18T10:59:02.001Z</time></trkpt><trkpt lat="44.95592304561291" lon="9.52404051718705"><ele>161.0</ele><time>2026-04-18T10:59:03.001Z</time></trkpt><trkpt lat="44.95582542445107" lon="9.523978440676316"><ele>161.0</ele><time>2026-04-18T10:59:04.001Z</time></trkpt><trkpt lat="44.95573260043458" lon="9.523923508993086"><ele>161.0</ele><time>2026-04-18T10:59:05.001Z</time></trkpt><trkpt lat="44.95564598374055" lon="9.523860287308965"><ele>161.33333333333331</ele><time>2026-04-18T10:59:06.001Z</time></trkpt><trkpt lat="44.95556731292778" lon="9.523812004062467"><ele>161.66666666666666</ele><time>2026-04-18T10:59:07.001Z</time></trkpt><trkpt lat="44.95549691807109" lon="9.523758700111369"><ele>162.0</ele><time>2026-04-18T10:59:08.001Z</time></trkpt><trkpt lat="44.95542663888961" lon="9.523713236658343"><ele>162.33333333333334</ele><time>2026-04-18T10:59:09.001Z</time></trkpt><trkpt lat="44.95533281283315" lon="9.523631304967346"><ele>162.66666666666669</ele><time>2026-04-18T10:59:11.001Z</time></trkpt><trkpt lat="44.95527178604892" lon="9.523585796163976"><ele>163.0</ele><time>2026-04-18T10:59:13.001Z</time></trkpt><trkpt lat="44.9551656958058" lon="9.523527431370127"><ele>163.2</ele><time>2026-04-18T10:59:15.001Z</time></trkpt><trkpt lat="44.955081353663054" lon="9.52350603588269"><ele>163.4</ele><time>2026-04-18T10:59:16.001Z</time></trkpt><trkpt lat="44.954992497118326" lon="9.523451045315838"><ele>163.6</ele><time>2026-04-18T10:59:17.001Z</time></trkpt><trkpt lat="44.954892783534135" lon="9.523391907622015"><ele>163.79999999999998</ele><time>2026-04-18T10:59:18.001Z</time></trkpt><trkpt lat="44.95479882022967" lon="9.52333125666281"><ele>164.0</ele><time>2026-04-18T10:59:19.001Z</time></trkpt><trkpt lat="44.95470317847561" lon="9.523275982707176"><ele>164.75</ele><time>2026-04-18T10:59:20.001Z</time></trkpt><trkpt lat="44.95459469709486" lon="9.523203876415225"><ele>165.5</ele><time>2026-04-18T10:59:21.001Z</time></trkpt><trkpt lat="44.95448586085433" lon="9.523131864414102"><ele>166.25</ele><time>2026-04-18T10:59:22.001Z</time></trkpt><trkpt lat="44.954370036230756" lon="9.523067450029698"><ele>167.0</ele><time>2026-04-18T10:59:23.002Z</time></trkpt><trkpt lat="44.95425677940172" lon="9.52300287173307"><ele>167.2</ele><time>2026-04-18T10:59:24.002Z</time></trkpt><trkpt lat="44.954143716060166" lon="9.52293784830437"><ele>167.39999999999998</ele><time>2026-04-18T10:59:25.002Z</time></trkpt><trkpt lat="44.954043842702504" lon="9.522877370547059"><ele>167.60000000000002</ele><time>2026-04-18T10:59:26.002Z</time></trkpt><trkpt lat="44.953958638329894" lon="9.522822775520584"><ele>167.8</ele><time>2026-04-18T10:59:27.002Z</time></trkpt><trkpt lat="44.95388873430797" lon="9.522765602780877"><ele>168.0</ele><time>2026-04-18T10:59:28.002Z</time></trkpt><trkpt lat="44.95383678113308" lon="9.522714401560412"><ele>168.16666666666666</ele><time>2026-04-18T10:59:29.002Z</time></trkpt><trkpt lat="44.95372399257854" lon="9.522615303824283"><ele>168.33333333333334</ele><time>2026-04-18T11:04:18.003Z</time></trkpt><trkpt lat="44.953674797671475" lon="9.522528113579078"><ele>168.5</ele><time>2026-04-18T11:04:20.003Z</time></trkpt><trkpt lat="44.95363825096886" lon="9.522431689675537"><ele>168.66666666666669</ele><time>2026-04-18T11:04:30.003Z</time></trkpt><trkpt lat="44.95356569719189" lon="9.522410331957584"><ele>168.83333333333334</ele><time>2026-04-18T11:04:31.003Z</time></trkpt><trkpt lat="44.953492595370214" lon="9.522402808562976"><ele>169.0</ele><time>2026-04-18T11:04:32.003Z</time></trkpt><trkpt lat="44.9534222188596" lon="9.522395527957508"><ele>169.39999999999998</ele><time>2026-04-18T11:04:33.003Z</time></trkpt><trkpt lat="44.95333757835658" lon="9.522384983254497"><ele>169.8</ele><time>2026-04-18T11:04:33.997Z</time></trkpt><trkpt lat="44.953247585538804" lon="9.52236821661556"><ele>170.2</ele><time>2026-04-18T11:04:34.997Z</time></trkpt><trkpt lat="44.953143855779686" lon="9.522348928751368"><ele>170.60000000000002</ele><time>2026-04-18T11:04:35.997Z</time></trkpt><trkpt lat="44.953047930429435" lon="9.5223320587403"><ele>171.0</ele><time>2026-04-18T11:04:36.997Z</time></trkpt><trkpt lat="44.95295188011864" lon="9.522320069168806"><ele>171.0</ele><time>2026-04-18T11:04:37.997Z</time></trkpt><trkpt lat="44.95285836228341" lon="9.522302589500345"><ele>171.0</ele><time>2026-04-18T11:04:38.997Z</time></trkpt><trkpt lat="44.95276464550467" lon="9.522286253647431"><ele>171.0</ele><time>2026-04-18T11:04:39.998Z</time></trkpt><trkpt lat="44.95266884128164" lon="9.522275134515278"><ele>171.0</ele><time>2026-04-18T11:04:40.998Z</time></trkpt><trkpt lat="44.95256311213583" lon="9.52227077261254"><ele>171.0</ele><time>2026-04-18T11:04:41.998Z</time></trkpt><trkpt lat="44.952458689941295" lon="9.522262872148067"><ele>171.5</ele><time>2026-04-18T11:04:42.998Z</time></trkpt><trkpt lat="44.952350589608464" lon="9.522250122950622"><ele>172.0</ele><time>2026-04-18T11:04:43.998Z</time></trkpt><trkpt lat="44.95223521846068" lon="9.522237388305319"><ele>172.5</ele><time>2026-04-18T11:04:44.998Z</time></trkpt><trkpt lat="44.95211780597163" lon="9.522218370575183"><ele>173.0</ele><time>2026-04-18T11:04:45.998Z</time></trkpt><trkpt lat="44.951997098252065" lon="9.522193524972513"><ele>173.0</ele><time>2026-04-18T11:04:46.998Z</time></trkpt><trkpt lat="44.951864591231036" lon="9.522164453152973"><ele>173.0</ele><time>2026-04-18T11:04:47.998Z</time></trkpt><trkpt lat="44.95172605567692" lon="9.522131948720283"><ele>173.0</ele><time>2026-04-18T11:04:48.999Z</time></trkpt><trkpt lat="44.95159954125196" lon="9.522102144445942"><ele>173.0</ele><time>2026-04-18T11:04:49.999Z</time></trkpt><trkpt lat="44.95147285298021" lon="9.522066417177678"><ele>173.0</ele><time>2026-04-18T11:04:50.999Z</time></trkpt><trkpt lat="44.951349172670135" lon="9.522033327265175"><ele>173.0</ele><time>2026-04-18T11:04:51.999Z</time></trkpt><trkpt lat="44.95122476206601" lon="9.521995341129054"><ele>173.0</ele><time>2026-04-18T11:04:52.999Z</time></trkpt><trkpt lat="44.95110969393779" lon="9.521964362793327"><ele>173.0</ele><time>2026-04-18T11:04:53.999Z</time></trkpt><trkpt lat="44.95100058760899" lon="9.521937959898116"><ele>173.0</ele><time>2026-04-18T11:04:54.999Z</time></trkpt><trkpt lat="44.95089380910662" lon="9.521910854266126"><ele>173.0</ele><time>2026-04-18T11:04:55.999Z</time></trkpt><trkpt lat="44.95079523924023" lon="9.52188151387795"><ele>173.0</ele><time>2026-04-18T11:04:56.999Z</time></trkpt><trkpt lat="44.95069288795163" lon="9.52184248577041"><ele>173.0</ele><time>2026-04-18T11:04:58Z</time></trkpt><trkpt lat="44.95055908746657" lon="9.521804739153758"><ele>174.66666666666666</ele><time>2026-04-18T11:04:59Z</time></trkpt><trkpt lat="44.950263624677405" lon="9.521758329424259"><ele>176.33333333333334</ele><time>2026-04-18T11:05:00Z</time></trkpt><trkpt lat="44.950131159727576" lon="9.521724384311655"><ele>178.0</ele><time>2026-04-18T11:05:01Z</time></trkpt><trkpt lat="44.95000278441176" lon="9.521697836986636"><ele>178.5</ele><time>2026-04-18T11:05:02Z</time></trkpt><trkpt lat="44.949877830456124" lon="9.521669102285445"><ele>179.0</ele><time>2026-04-18T11:05:03Z</time></trkpt><trkpt lat="44.94975617086414" lon="9.52163729379307"><ele>179.5</ele><time>2026-04-18T11:05:04Z</time></trkpt><trkpt lat="44.949642278490224" lon="9.521605273533382"><ele>180.0</ele><time>2026-04-18T11:05:05Z</time></trkpt><trkpt lat="44.94954208379578" lon="9.521574331119075"><ele>180.0</ele><time>2026-04-18T11:05:06Z</time></trkpt><trkpt lat="44.94944764592529" lon="9.521547391683116"><ele>180.0</ele><time>2026-04-18T11:05:07Z</time></trkpt><trkpt lat="44.949367225173255" lon="9.521523278552305"><ele>180.0</ele><time>2026-04-18T11:05:08Z</time></trkpt><trkpt lat="44.94924884832213" lon="9.5214692209694"><ele>180.0</ele><time>2026-04-18T11:05:10Z</time></trkpt><trkpt lat="44.94914117012523" lon="9.521403796224192"><ele>180.0</ele><time>2026-04-18T11:05:12Z</time></trkpt><trkpt lat="44.949071214765546" lon="9.521470868229644"><ele>180.0</ele><time>2026-04-18T11:05:14.001Z</time></trkpt><trkpt lat="44.9490903038791" lon="9.521600046992175"><ele>180.0</ele><time>2026-04-18T11:05:16.001Z</time></trkpt><trkpt lat="44.94913812710212" lon="9.521678214663405"><ele>180.0</ele><time>2026-04-18T11:05:17.001Z</time></trkpt><trkpt lat="44.94920438677134" lon="9.521764618195864"><ele>180.0</ele><time>2026-04-18T11:05:18.001Z</time></trkpt><trkpt lat="44.949276461481624" lon="9.521862664049117"><ele>180.0</ele><time>2026-04-18T11:05:19.001Z</time></trkpt><trkpt lat="44.94935741053401" lon="9.521984962527474"><ele>179.75</ele><time>2026-04-18T11:05:20.001Z</time></trkpt><trkpt lat="44.94942879442255" lon="9.522115000223902"><ele>179.5</ele><time>2026-04-18T11:05:21.001Z</time></trkpt><trkpt lat="44.949505330157216" lon="9.522248573275993"><ele>179.25</ele><time>2026-04-18T11:05:22.001Z</time></trkpt><trkpt lat="44.94959988138633" lon="9.52239783273447"><ele>179.0</ele><time>2026-04-18T11:05:23.001Z</time></trkpt><trkpt lat="44.94968656556247" lon="9.52254292506954"><ele>179.0</ele><time>2026-04-18T11:05:24.001Z</time></trkpt><trkpt lat="44.94977545530953" lon="9.522697853367253"><ele>179.0</ele><time>2026-04-18T11:05:25.001Z</time></trkpt><trkpt lat="44.94985438533242" lon="9.522842120996748"><ele>179.0</ele><time>2026-04-18T11:05:26.001Z</time></trkpt><trkpt lat="44.94993221222299" lon="9.522981326653444"><ele>179.0</ele><time>2026-04-18T11:05:27.001Z</time></trkpt><trkpt lat="44.95000480784195" lon="9.523114597497896"><ele>177.39999999999998</ele><time>2026-04-18T11:05:28.001Z</time></trkpt><trkpt lat="44.95006941502538" lon="9.523242829480555"><ele>175.8</ele><time>2026-04-18T11:05:29.001Z</time></trkpt><trkpt lat="44.95012907345644" lon="9.523371142543965"><ele>174.2</ele><time>2026-04-18T11:05:30.001Z</time></trkpt><trkpt lat="44.950175460202274" lon="9.523501152565306"><ele>172.60000000000002</ele><time>2026-04-18T11:05:31.001Z</time></trkpt><trkpt lat="44.95021155276044" lon="9.523650211167073"><ele>171.0</ele><time>2026-04-18T11:05:32.001Z</time></trkpt><trkpt lat="44.95022761779629" lon="9.523820686444058"><ele>171.0</ele><time>2026-04-18T11:05:33.001Z</time></trkpt><trkpt lat="44.95022221340194" lon="9.523994332002328"><ele>171.0</ele><time>2026-04-18T11:05:34.001Z</time></trkpt><trkpt lat="44.95019627326818" lon="9.524177757228799"><ele>171.0</ele><time>2026-04-18T11:05:35.001Z</time></trkpt><trkpt lat="44.95015370339636" lon="9.524364417613254"><ele>171.0</ele><time>2026-04-18T11:05:36.001Z</time></trkpt><trkpt lat="44.950084866343914" lon="9.524551276214165"><ele>169.0</ele><time>2026-04-18T11:05:37.001Z</time></trkpt><trkpt lat="44.95001394678132" lon="9.524748351676669"><ele>167.0</ele><time>2026-04-18T11:05:38.001Z</time></trkpt><trkpt lat="44.94994600746008" lon="9.524956146427664"><ele>165.0</ele><time>2026-04-18T11:05:39.002Z</time></trkpt><trkpt lat="44.9498787241841" lon="9.525170810477777"><ele>165.0</ele><time>2026-04-18T11:05:40.002Z</time></trkpt><trkpt lat="44.94981361526545" lon="9.525382946618363"><ele>165.0</ele><time>2026-04-18T11:05:41.002Z</time></trkpt><trkpt lat="44.94974788632743" lon="9.525598782493939"><ele>165.0</ele><time>2026-04-18T11:05:42.002Z</time></trkpt><trkpt lat="44.949675322169846" lon="9.525817669238775"><ele>163.33333333333334</ele><time>2026-04-18T11:05:43.002Z</time></trkpt><trkpt lat="44.94960314697242" lon="9.526034821382806"><ele>161.66666666666669</ele><time>2026-04-18T11:05:44.002Z</time></trkpt><trkpt lat="44.9495352882802" lon="9.526252996950364"><ele>160.0</ele><time>2026-04-18T11:05:45.002Z</time></trkpt><trkpt lat="44.94946495513739" lon="9.526470007249465"><ele>158.33333333333334</ele><time>2026-04-18T11:05:46.002Z</time></trkpt><trkpt lat="44.94939755393054" lon="9.526678111381395"><ele>156.66666666666666</ele><time>2026-04-18T11:05:47.002Z</time></trkpt><trkpt lat="44.94933013384876" lon="9.526891485371616"><ele>155.0</ele><time>2026-04-18T11:05:48.002Z</time></trkpt><trkpt lat="44.94925990158892" lon="9.527110203150771"><ele>153.33333333333331</ele><time>2026-04-18T11:05:49.002Z</time></trkpt><trkpt lat="44.94918937303322" lon="9.527327383798033"><ele>151.66666666666666</ele><time>2026-04-18T11:05:50.002Z</time></trkpt><trkpt lat="44.949114134633206" lon="9.527546587666015"><ele>150.0</ele><time>2026-04-18T11:05:51.002Z</time></trkpt><trkpt lat="44.949042320066155" lon="9.527767744057805"><ele>149.33333333333334</ele><time>2026-04-18T11:05:52.002Z</time></trkpt><trkpt lat="44.94896927889547" lon="9.527989497219504"><ele>148.66666666666669</ele><time>2026-04-18T11:05:53.002Z</time></trkpt><trkpt lat="44.94889942935882" lon="9.528211284797262"><ele>148.0</ele><time>2026-04-18T11:05:54.002Z</time></trkpt><trkpt lat="44.94882710305559" lon="9.528435644167736"><ele>148.0</ele><time>2026-04-18T11:05:55.002Z</time></trkpt><trkpt lat="44.948759224039186" lon="9.528657285016665"><ele>148.0</ele><time>2026-04-18T11:05:56.002Z</time></trkpt><trkpt lat="44.94868683880601" lon="9.528880012696389"><ele>148.0</ele><time>2026-04-18T11:05:57.002Z</time></trkpt><trkpt lat="44.948614748805525" lon="9.529098259329183"><ele>148.0</ele><time>2026-04-18T11:05:58.002Z</time></trkpt><trkpt lat="44.948543627190226" lon="9.529318869203369"><ele>148.0</ele><time>2026-04-18T11:05:59.002Z</time></trkpt><trkpt lat="44.94847102324175" lon="9.529541841672948"><ele>148.0</ele><time>2026-04-18T11:06:00.002Z</time></trkpt><trkpt lat="44.94840171323614" lon="9.529763451711629"><ele>148.66666666666669</ele><time>2026-04-18T11:06:01.002Z</time></trkpt><trkpt lat="44.94832944929526" lon="9.529992844445422"><ele>149.33333333333334</ele><time>2026-04-18T11:06:02.002Z</time></trkpt><trkpt lat="44.94825529481394" lon="9.530218264900798"><ele>150.0</ele><time>2026-04-18T11:06:03.002Z</time></trkpt><trkpt lat="44.94817963531503" lon="9.530451633437261"><ele>150.0</ele><time>2026-04-18T11:06:04.002Z</time></trkpt><trkpt lat="44.948102699719534" lon="9.530683343362437"><ele>150.0</ele><time>2026-04-18T11:06:05.002Z</time></trkpt><trkpt lat="44.94803188239591" lon="9.530909991110754"><ele>150.0</ele><time>2026-04-18T11:06:06.002Z</time></trkpt><trkpt lat="44.947959514078775" lon="9.53114009457234"><ele>150.0</ele><time>2026-04-18T11:06:07.002Z</time></trkpt><trkpt lat="44.94788469499469" lon="9.531369524060457"><ele>150.0</ele><time>2026-04-18T11:06:08.002Z</time></trkpt><trkpt lat="44.94780964333996" lon="9.531599669959547"><ele>150.0</ele><time>2026-04-18T11:06:09.002Z</time></trkpt><trkpt lat="44.94773854162672" lon="9.531825536717784"><ele>150.0</ele><time>2026-04-18T11:06:10.002Z</time></trkpt><trkpt lat="44.94766377869327" lon="9.53205185025097"><ele>150.0</ele><time>2026-04-18T11:06:11.003Z</time></trkpt><trkpt lat="44.94759399321952" lon="9.53226767406303"><ele>150.0</ele><time>2026-04-18T11:06:12.003Z</time></trkpt><trkpt lat="44.947529556254345" lon="9.532475723516423"><ele>151.0</ele><time>2026-04-18T11:06:13.003Z</time></trkpt><trkpt lat="44.947467270553496" lon="9.53267335221228"><ele>152.0</ele><time>2026-04-18T11:06:14.003Z</time></trkpt><trkpt lat="44.94740610730381" lon="9.532872000705474"><ele>153.0</ele><time>2026-04-18T11:06:15.003Z</time></trkpt><trkpt lat="44.94735326420185" lon="9.53306681532388"><ele>153.25</ele><time>2026-04-18T11:06:16.003Z</time></trkpt><trkpt lat="44.94730885177899" lon="9.533266981316443"><ele>153.5</ele><time>2026-04-18T11:06:17.003Z</time></trkpt><trkpt lat="44.94727751717534" lon="9.53347048446945"><ele>153.75</ele><time>2026-04-18T11:06:18.003Z</time></trkpt><trkpt lat="44.94725528997345" lon="9.53367545556425"><ele>154.0</ele><time>2026-04-18T11:06:19.003Z</time></trkpt><trkpt lat="44.947239077954805" lon="9.533867608780128"><ele>154.4</ele><time>2026-04-18T11:06:20.003Z</time></trkpt><trkpt lat="44.94722453193057" lon="9.534052538836274"><ele>154.8</ele><time>2026-04-18T11:06:21.003Z</time></trkpt><trkpt lat="44.947207323102106" lon="9.534206747496071"><ele>155.2</ele><time>2026-04-18T11:06:22.003Z</time></trkpt><trkpt lat="44.94718627455902" lon="9.5343419177057"><ele>155.6</ele><time>2026-04-18T11:06:23.003Z</time></trkpt><trkpt lat="44.94716486725535" lon="9.534439331993676"><ele>156.0</ele><time>2026-04-18T11:06:24.003Z</time></trkpt><trkpt lat="44.94710494948348" lon="9.534568316785013"><ele>156.0</ele><time>2026-04-18T11:06:26.003Z</time></trkpt><trkpt lat="44.94699257741993" lon="9.534584617318238"><ele>156.0</ele><time>2026-04-18T11:06:28.003Z</time></trkpt><trkpt lat="44.94689045348146" lon="9.534455545071062"><ele>156.0</ele><time>2026-04-18T11:06:30.003Z</time></trkpt><trkpt lat="44.946831549357704" lon="9.534342142502842"><ele>156.0</ele><time>2026-04-18T11:06:31.003Z</time></trkpt><trkpt lat="44.94674954986588" lon="9.534214156067701"><ele>155.75</ele><time>2026-04-18T11:06:32.003Z</time></trkpt><trkpt lat="44.94665404833614" lon="9.534079819300342"><ele>155.5</ele><time>2026-04-18T11:06:33.003Z</time></trkpt><trkpt lat="44.94654436647569" lon="9.533935929933538"><ele>155.25</ele><time>2026-04-18T11:06:34.003Z</time></trkpt><trkpt lat="44.94643808420802" lon="9.533789880306381"><ele>155.0</ele><time>2026-04-18T11:06:35.003Z</time></trkpt><trkpt lat="44.94633720797783" lon="9.533647033199822"><ele>154.75</ele><time>2026-04-18T11:06:36.003Z</time></trkpt><trkpt lat="44.946236743526015" lon="9.533505534992232"><ele>154.5</ele><time>2026-04-18T11:06:37.003Z</time></trkpt><trkpt lat="44.94613435607847" lon="9.53336318541993"><ele>154.25</ele><time>2026-04-18T11:06:38.003Z</time></trkpt><trkpt lat="44.94602883010144" lon="9.533220546781791"><ele>154.0</ele><time>2026-04-18T11:06:39.003Z</time></trkpt><trkpt lat="44.94592023897916" lon="9.53308524075004"><ele>154.66666666666669</ele><time>2026-04-18T11:06:39.998Z</time></trkpt><trkpt lat="44.94580439765756" lon="9.532958513826742"><ele>155.33333333333334</ele><time>2026-04-18T11:06:40.998Z</time></trkpt><trkpt lat="44.94568159304923" lon="9.532829991900673"><ele>156.0</ele><time>2026-04-18T11:06:41.998Z</time></trkpt><trkpt lat="44.94555947824578" lon="9.532697263272938"><ele>156.0</ele><time>2026-04-18T11:06:42.998Z</time></trkpt><trkpt lat="44.945434524124046" lon="9.532559010451408"><ele>156.0</ele><time>2026-04-18T11:06:43.998Z</time></trkpt><trkpt lat="44.94530917724914" lon="9.532408875533745"><ele>156.0</ele><time>2026-04-18T11:06:44.998Z</time></trkpt><trkpt lat="44.945193677480106" lon="9.5322454879969"><ele>156.0</ele><time>2026-04-18T11:06:45.999Z</time></trkpt><trkpt lat="44.94507822319618" lon="9.532073284938015"><ele>156.0</ele><time>2026-04-18T11:06:46.999Z</time></trkpt><trkpt lat="44.94496382840442" lon="9.531897241040179"><ele>156.0</ele><time>2026-04-18T11:06:47.999Z</time></trkpt><trkpt lat="44.94484640767762" lon="9.53171211460824"><ele>156.0</ele><time>2026-04-18T11:06:48.999Z</time></trkpt><trkpt lat="44.94473516243536" lon="9.531533094137508"><ele>156.0</ele><time>2026-04-18T11:06:49.999Z</time></trkpt><trkpt lat="44.94462797009494" lon="9.531361509321586"><ele>156.0</ele><time>2026-04-18T11:06:50.999Z</time></trkpt><trkpt lat="44.94451581699436" lon="9.531184946335502"><ele>156.0</ele><time>2026-04-18T11:06:51.999Z</time></trkpt><trkpt lat="44.9444005137731" lon="9.531006423271885"><ele>156.0</ele><time>2026-04-18T11:06:52.999Z</time></trkpt><trkpt lat="44.9442862284181" lon="9.530828511299587"><ele>156.0</ele><time>2026-04-18T11:06:53.999Z</time></trkpt><trkpt lat="44.94416629247408" lon="9.530644510150731"><ele>156.66666666666666</ele><time>2026-04-18T11:06:54.999Z</time></trkpt><trkpt lat="44.944045422412" lon="9.530461470632217"><ele>157.33333333333331</ele><time>2026-04-18T11:06:55.999Z</time></trkpt><trkpt lat="44.94392371307303" lon="9.530272897635728"><ele>158.0</ele><time>2026-04-18T11:06:56.999Z</time></trkpt><trkpt lat="44.94380267561648" lon="9.530082256379563"><ele>158.0</ele><time>2026-04-18T11:06:57.999Z</time></trkpt><trkpt lat="44.94368025870565" lon="9.52989214798339"><ele>158.0</ele><time>2026-04-18T11:06:58.999Z</time></trkpt><trkpt lat="44.943553930583874" lon="9.529704123065022"><ele>158.0</ele><time>2026-04-18T11:07:00Z</time></trkpt><trkpt lat="44.943429490394806" lon="9.52951796128075"><ele>158.66666666666666</ele><time>2026-04-18T11:07:01Z</time></trkpt><trkpt lat="44.94330650765874" lon="9.529336988279004"><ele>159.33333333333334</ele><time>2026-04-18T11:07:02Z</time></trkpt><trkpt lat="44.94318413336557" lon="9.529164628917274"><ele>160.0</ele><time>2026-04-18T11:07:03Z</time></trkpt><trkpt lat="44.943064211583696" lon="9.528996783247667"><ele>160.0</ele><time>2026-04-18T11:07:04Z</time></trkpt><trkpt lat="44.942946901400056" lon="9.528831329104376"><ele>160.0</ele><time>2026-04-18T11:07:05Z</time></trkpt><trkpt lat="44.942828372743115" lon="9.528663687648468"><ele>160.0</ele><time>2026-04-18T11:07:06Z</time></trkpt><trkpt lat="44.942713443679374" lon="9.528493652316826"><ele>160.0</ele><time>2026-04-18T11:07:07Z</time></trkpt><trkpt lat="44.94260168850989" lon="9.52832221546715"><ele>160.0</ele><time>2026-04-18T11:07:08Z</time></trkpt><trkpt lat="44.94249242080197" lon="9.528159771207795"><ele>160.0</ele><time>2026-04-18T11:07:09Z</time></trkpt><trkpt lat="44.94238416804683" lon="9.528007691849794"><ele>161.0</ele><time>2026-04-18T11:07:10Z</time></trkpt><trkpt lat="44.942263446421826" lon="9.527870071139345"><ele>162.0</ele><time>2026-04-18T11:07:11Z</time></trkpt><trkpt lat="44.94213740588555" lon="9.527732694994263"><ele>163.0</ele><time>2026-04-18T11:07:12Z</time></trkpt><trkpt lat="44.94199306694519" lon="9.52761200214386"><ele>163.0</ele><time>2026-04-18T11:07:13Z</time></trkpt><trkpt lat="44.941855570067595" lon="9.527478408958814"><ele>163.0</ele><time>2026-04-18T11:07:14Z</time></trkpt><trkpt lat="44.941717668979905" lon="9.527338750973007"><ele>163.0</ele><time>2026-04-18T11:07:15Z</time></trkpt><trkpt lat="44.94158043610389" lon="9.52720197436205"><ele>163.0</ele><time>2026-04-18T11:07:16Z</time></trkpt><trkpt lat="44.94143536040414" lon="9.527063176088912"><ele>163.0</ele><time>2026-04-18T11:07:17Z</time></trkpt><trkpt lat="44.94129231833463" lon="9.526927378995593"><ele>163.0</ele><time>2026-04-18T11:07:18Z</time></trkpt><trkpt lat="44.94114974016991" lon="9.526783479800637"><ele>163.0</ele><time>2026-04-18T11:07:19.001Z</time></trkpt><trkpt lat="44.941001955229616" lon="9.526643846827662"><ele>163.0</ele><time>2026-04-18T11:07:20.001Z</time></trkpt><trkpt lat="44.940855841982405" lon="9.526501044735994"><ele>163.0</ele><time>2026-04-18T11:07:21.001Z</time></trkpt><trkpt lat="44.940714500687136" lon="9.526363200939878"><ele>163.33333333333334</ele><time>2026-04-18T11:07:22.001Z</time></trkpt><trkpt lat="44.940579549346424" lon="9.526227903614338"><ele>163.66666666666666</ele><time>2026-04-18T11:07:23.001Z</time></trkpt><trkpt lat="44.94043746331021" lon="9.526088442479562"><ele>164.0</ele><time>2026-04-18T11:07:24.001Z</time></trkpt><trkpt lat="44.94029304033086" lon="9.525944971878703"><ele>164.0</ele><time>2026-04-18T11:07:25.001Z</time></trkpt><trkpt lat="44.94014928224992" lon="9.525801201233735"><ele>164.0</ele><time>2026-04-18T11:07:26.001Z</time></trkpt><trkpt lat="44.94000532528526" lon="9.525659821560426"><ele>164.0</ele><time>2026-04-18T11:07:27.001Z</time></trkpt><trkpt lat="44.93986203514505" lon="9.525523891709653"><ele>164.66666666666666</ele><time>2026-04-18T11:07:28.001Z</time></trkpt><trkpt lat="44.93971495864865" lon="9.52539987110375"><ele>165.33333333333334</ele><time>2026-04-18T11:07:29.001Z</time></trkpt><trkpt lat="44.93956382110782" lon="9.52530259146663"><ele>166.0</ele><time>2026-04-18T11:07:30.001Z</time></trkpt><trkpt lat="44.93939477345731" lon="9.525236410046046"><ele>166.0</ele><time>2026-04-18T11:07:31.001Z</time></trkpt><trkpt lat="44.93922118174589" lon="9.525179169222595"><ele>166.0</ele><time>2026-04-18T11:07:32.001Z</time></trkpt><trkpt lat="44.9390507320129" lon="9.525114414928737"><ele>166.0</ele><time>2026-04-18T11:07:33.001Z</time></trkpt><trkpt lat="44.938878317503494" lon="9.52504907858964"><ele>167.0</ele><time>2026-04-18T11:07:34.001Z</time></trkpt><trkpt lat="44.93870723878947" lon="9.524976149691787"><ele>168.0</ele><time>2026-04-18T11:07:35.001Z</time></trkpt><trkpt lat="44.93853558346238" lon="9.524916240056513"><ele>169.0</ele><time>2026-04-18T11:07:36.001Z</time></trkpt><trkpt lat="44.93836760710709" lon="9.524845823473601"><ele>170.33333333333334</ele><time>2026-04-18T11:07:37.001Z</time></trkpt><trkpt lat="44.938199306854784" lon="9.524772926596931"><ele>171.66666666666666</ele><time>2026-04-18T11:07:38.001Z</time></trkpt><trkpt lat="44.93803621347054" lon="9.524702928627269"><ele>173.0</ele><time>2026-04-18T11:07:39.001Z</time></trkpt><trkpt lat="44.9378686126282" lon="9.524634359465049"><ele>173.0</ele><time>2026-04-18T11:07:40.001Z</time></trkpt><trkpt lat="44.93769503923133" lon="9.52457186737485"><ele>173.0</ele><time>2026-04-18T11:07:41.001Z</time></trkpt><trkpt lat="44.93750737026364" lon="9.524499697690377"><ele>173.0</ele><time>2026-04-18T11:07:42.001Z</time></trkpt><trkpt lat="44.937319554803885" lon="9.52443236414467"><ele>173.75</ele><time>2026-04-18T11:07:43.001Z</time></trkpt><trkpt lat="44.93717178511621" lon="9.524370446799034"><ele>174.5</ele><time>2026-04-18T11:07:44.001Z</time></trkpt><trkpt lat="44.93704625738368" lon="9.52431199590756"><ele>175.25</ele><time>2026-04-18T11:07:45.001Z</time></trkpt><trkpt lat="44.93689948483169" lon="9.524252533267674"><ele>176.0</ele><time>2026-04-18T11:07:46.001Z</time></trkpt><trkpt lat="44.93676077103421" lon="9.524194045754385"><ele>177.5</ele><time>2026-04-18T11:07:47.002Z</time></trkpt><trkpt lat="44.93663279624921" lon="9.524138596695554"><ele>179.0</ele><time>2026-04-18T11:07:48.002Z</time></trkpt><trkpt lat="44.93650421594403" lon="9.524075850711844"><ele>180.5</ele><time>2026-04-18T11:07:49.002Z</time></trkpt><trkpt lat="44.93635805306676" lon="9.523996824519472"><ele>182.0</ele><time>2026-04-18T11:07:50.002Z</time></trkpt><trkpt lat="44.936228473642686" lon="9.523913563785568"><ele>182.0</ele><time>2026-04-18T11:07:51.002Z</time></trkpt><trkpt lat="44.93608492550188" lon="9.523832821986188"><ele>182.0</ele><time>2026-04-18T11:07:52.002Z</time></trkpt><trkpt lat="44.93593899413131" lon="9.523741610220123"><ele>182.0</ele><time>2026-04-18T11:07:53.002Z</time></trkpt><trkpt lat="44.93556055779831" lon="9.52371090104169"><ele>184.0</ele><time>2026-04-18T11:07:54.002Z</time></trkpt><trkpt lat="44.93539337145393" lon="9.523647914778687"><ele>186.0</ele><time>2026-04-18T11:07:55.002Z</time></trkpt><trkpt lat="44.93522397116592" lon="9.523590293671246"><ele>188.0</ele><time>2026-04-18T11:07:56.002Z</time></trkpt><trkpt lat="44.9350520258151" lon="9.523520491634924"><ele>191.33333333333331</ele><time>2026-04-18T11:07:57.002Z</time></trkpt><trkpt lat="44.93487438245713" lon="9.523456654813742"><ele>194.66666666666666</ele><time>2026-04-18T11:07:58.002Z</time></trkpt><trkpt lat="44.93469356998205" lon="9.523387069187068"><ele>198.0</ele><time>2026-04-18T11:07:59.002Z</time></trkpt><trkpt lat="44.9345120650963" lon="9.523311160442347"><ele>198.0</ele><time>2026-04-18T11:08:00.002Z</time></trkpt><trkpt lat="44.934324926339684" lon="9.523236427487374"><ele>198.0</ele><time>2026-04-18T11:08:01.002Z</time></trkpt><trkpt lat="44.9341389666308" lon="9.5231579753852"><ele>198.0</ele><time>2026-04-18T11:08:02.002Z</time></trkpt><trkpt lat="44.933963610447336" lon="9.523075691994224"><ele>199.33333333333331</ele><time>2026-04-18T11:08:03.002Z</time></trkpt><trkpt lat="44.933787845415324" lon="9.522989402468209"><ele>200.66666666666666</ele><time>2026-04-18T11:08:04.002Z</time></trkpt><trkpt lat="44.93361039110707" lon="9.522897311275402"><ele>202.0</ele><time>2026-04-18T11:08:05.002Z</time></trkpt><trkpt lat="44.9334324090795" lon="9.522807607275194"><ele>203.66666666666666</ele><time>2026-04-18T11:08:06.002Z</time></trkpt><trkpt lat="44.93325417581721" lon="9.522712125427992"><ele>205.33333333333331</ele><time>2026-04-18T11:08:07.002Z</time></trkpt><trkpt lat="44.93307664329312" lon="9.522620658414505"><ele>207.0</ele><time>2026-04-18T11:08:08.002Z</time></trkpt><trkpt lat="44.93290278136845" lon="9.522533627610011"><ele>207.0</ele><time>2026-04-18T11:08:09.002Z</time></trkpt><trkpt lat="44.93272839865953" lon="9.52244786889716"><ele>207.0</ele><time>2026-04-18T11:08:10.002Z</time></trkpt><trkpt lat="44.93255488949145" lon="9.522361403264632"><ele>207.0</ele><time>2026-04-18T11:08:11.002Z</time></trkpt><trkpt lat="44.93238223014886" lon="9.522277359512918"><ele>208.66666666666669</ele><time>2026-04-18T11:08:12.002Z</time></trkpt><trkpt lat="44.93221390336197" lon="9.522193627841675"><ele>210.33333333333334</ele><time>2026-04-18T11:08:13.002Z</time></trkpt><trkpt lat="44.9320551208059" lon="9.52210422948705"><ele>212.0</ele><time>2026-04-18T11:08:14.002Z</time></trkpt><trkpt lat="44.93191777952144" lon="9.52200216269277"><ele>212.66666666666669</ele><time>2026-04-18T11:08:15.002Z</time></trkpt><trkpt lat="44.93178409503161" lon="9.521876094266077"><ele>213.33333333333331</ele><time>2026-04-18T11:08:16.002Z</time></trkpt><trkpt lat="44.931664979617686" lon="9.52167791493899"><ele>214.0</ele><time>2026-04-18T11:08:17.002Z</time></trkpt><trkpt lat="44.93154475419678" lon="9.521530970377288"><ele>215.33333333333331</ele><time>2026-04-18T11:08:18.002Z</time></trkpt><trkpt lat="44.931421388994806" lon="9.52138490814275"><ele>216.66666666666669</ele><time>2026-04-18T11:08:19.002Z</time></trkpt><trkpt lat="44.93131028240899" lon="9.52122404180026"><ele>218.0</ele><time>2026-04-18T11:08:20.003Z</time></trkpt><trkpt lat="44.93122094609677" lon="9.521042626164519"><ele>218.33333333333334</ele><time>2026-04-18T11:08:21.003Z</time></trkpt><trkpt lat="44.93114733637054" lon="9.520822932001268"><ele>218.66666666666669</ele><time>2026-04-18T11:08:22.003Z</time></trkpt><trkpt lat="44.9310813150739" lon="9.520589178364059"><ele>219.0</ele><time>2026-04-18T11:08:23.003Z</time></trkpt><trkpt lat="44.93101204077712" lon="9.52037547609929"><ele>219.39999999999998</ele><time>2026-04-18T11:08:24.003Z</time></trkpt><trkpt lat="44.930949955453514" lon="9.520187681822215"><ele>219.79999999999998</ele><time>2026-04-18T11:08:25.003Z</time></trkpt><trkpt lat="44.930895270192785" lon="9.520031727698049"><ele>220.20000000000002</ele><time>2026-04-18T11:08:26.003Z</time></trkpt><trkpt lat="44.93085136492269" lon="9.519917438085047"><ele>220.60000000000002</ele><time>2026-04-18T11:08:27.003Z</time></trkpt><trkpt lat="44.930798344370515" lon="9.519854821449679"><ele>221.0</ele><time>2026-04-18T11:08:28.003Z</time></trkpt><trkpt lat="44.930694533189424" lon="9.519892797129902"><ele>223.50000000000003</ele><time>2026-04-18T11:08:30.003Z</time></trkpt><trkpt lat="44.93064839792257" lon="9.519972810079262"><ele>226.0</ele><time>2026-04-18T11:08:31.003Z</time></trkpt><trkpt lat="44.93059704719912" lon="9.52006267213065"><ele>228.5</ele><time>2026-04-18T11:08:32.003Z</time></trkpt><trkpt lat="44.930541218896806" lon="9.520152951211246"><ele>231.0</ele><time>2026-04-18T11:08:33.003Z</time></trkpt><trkpt lat="44.930464888506044" lon="9.52025092040888"><ele>233.50000000000003</ele><time>2026-04-18T11:08:34.003Z</time></trkpt><trkpt lat="44.930374021554144" lon="9.520316249363129"><ele>236.0</ele><time>2026-04-18T11:08:35.003Z</time></trkpt><trkpt lat="44.93026976537241" lon="9.520335057909243"><ele>236.0</ele><time>2026-04-18T11:08:36.003Z</time></trkpt><trkpt lat="44.930161094667525" lon="9.520312276869191"><ele>236.0</ele><time>2026-04-18T11:08:37.003Z</time></trkpt><trkpt lat="44.93003781391085" lon="9.520259929677657"><ele>236.0</ele><time>2026-04-18T11:08:38.003Z</time></trkpt><trkpt lat="44.92991262275811" lon="9.5202228861987"><ele>236.0</ele><time>2026-04-18T11:08:39.003Z</time></trkpt><trkpt lat="44.9297726517045" lon="9.520190292826976"><ele>240.25</ele><time>2026-04-18T11:08:40.003Z</time></trkpt><trkpt lat="44.92963170277932" lon="9.520166262980737"><ele>244.5</ele><time>2026-04-18T11:08:41.003Z</time></trkpt><trkpt lat="44.92949604095385" lon="9.520151503693354"><ele>248.75</ele><time>2026-04-18T11:08:42.003Z</time></trkpt><trkpt lat="44.929367074308175" lon="9.520145673367873"><ele>253.0</ele><time>2026-04-18T11:08:43.003Z</time></trkpt><trkpt lat="44.92924094571585" lon="9.520184298546871"><ele>251.75</ele><time>2026-04-18T11:08:44.003Z</time></trkpt><trkpt lat="44.92911992913707" lon="9.520255002577183"><ele>250.5</ele><time>2026-04-18T11:08:45.003Z</time></trkpt><trkpt lat="44.929008477777295" lon="9.520349721870234"><ele>249.25</ele><time>2026-04-18T11:08:45.999Z</time></trkpt><trkpt lat="44.92891258892335" lon="9.520440202278238"><ele>248.0</ele><time>2026-04-18T11:08:46.999Z</time></trkpt><trkpt lat="44.9288396632953" lon="9.520500809358813"><ele>248.0</ele><time>2026-04-18T11:08:47.999Z</time></trkpt><trkpt lat="44.92874888526788" lon="9.520527524451605"><ele>248.0</ele><time>2026-04-18T11:08:48.999Z</time></trkpt><trkpt lat="44.92863084953143" lon="9.520520548355488"><ele>248.0</ele><time>2026-04-18T11:08:49.999Z</time></trkpt><trkpt lat="44.92850268414067" lon="9.520489333093337"><ele>248.0</ele><time>2026-04-18T11:08:50.999Z</time></trkpt><trkpt lat="44.92837177475362" lon="9.52044850262615"><ele>253.0</ele><time>2026-04-18T11:08:51.999Z</time></trkpt><trkpt lat="44.92824266035472" lon="9.520387467713629"><ele>258.0</ele><time>2026-04-18T11:08:52.999Z</time></trkpt><trkpt lat="44.928109208646546" lon="9.520319341395805"><ele>263.0</ele><time>2026-04-18T11:08:53.999Z</time></trkpt><trkpt lat="44.92797063689399" lon="9.520246491998583"><ele>268.0</ele><time>2026-04-18T11:08:54.999Z</time></trkpt><trkpt lat="44.927826227343246" lon="9.52017316422006"><ele>268.0</ele><time>2026-04-18T11:08:55.999Z</time></trkpt><trkpt lat="44.92767644834188" lon="9.520103391417164"><ele>268.0</ele><time>2026-04-18T11:08:56.999Z</time></trkpt><trkpt lat="44.927522439177224" lon="9.520031665510833"><ele>268.0</ele><time>2026-04-18T11:08:57.999Z</time></trkpt><trkpt lat="44.92736416017112" lon="9.519963509988976"><ele>269.0</ele><time>2026-04-18T11:08:58.999Z</time></trkpt><trkpt lat="44.92721028064181" lon="9.51989326910823"><ele>270.0</ele><time>2026-04-18T11:08:59.999Z</time></trkpt><trkpt lat="44.927065388328984" lon="9.519827023732308"><ele>271.0</ele><time>2026-04-18T11:09:01Z</time></trkpt><trkpt lat="44.92692144229648" lon="9.519761159697248"><ele>271.0</ele><time>2026-04-18T11:09:02Z</time></trkpt><trkpt lat="44.9267843435377" lon="9.519695878362999"><ele>271.0</ele><time>2026-04-18T11:09:03Z</time></trkpt><trkpt lat="44.92666043584218" lon="9.519618988154127"><ele>271.0</ele><time>2026-04-18T11:09:04Z</time></trkpt><trkpt lat="44.92654244232232" lon="9.519521795435107"><ele>271.0</ele><time>2026-04-18T11:09:05Z</time></trkpt><trkpt lat="44.9264371086834" lon="9.519389389753336"><ele>275.3333333333333</ele><time>2026-04-18T11:09:06Z</time></trkpt><trkpt lat="44.92634212357302" lon="9.51922171809221"><ele>279.6666666666667</ele><time>2026-04-18T11:09:07Z</time></trkpt><trkpt lat="44.926254099153994" lon="9.519044462959048"><ele>284.0</ele><time>2026-04-18T11:09:08Z</time></trkpt><trkpt lat="44.92616824991204" lon="9.51886206866433"><ele>284.0</ele><time>2026-04-18T11:09:09Z</time></trkpt><trkpt lat="44.926071827728464" lon="9.518692772177085"><ele>284.0</ele><time>2026-04-18T11:09:10Z</time></trkpt><trkpt lat="44.92595411148151" lon="9.51853846109017"><ele>284.0</ele><time>2026-04-18T11:09:11Z</time></trkpt><trkpt lat="44.92581970132314" lon="9.5184057127198"><ele>284.0</ele><time>2026-04-18T11:09:12Z</time></trkpt><trkpt lat="44.925676589759384" lon="9.518285025110492"><ele>284.0</ele><time>2026-04-18T11:09:13Z</time></trkpt><trkpt lat="44.92552963205312" lon="9.518171012667072"><ele>284.0</ele><time>2026-04-18T11:09:14Z</time></trkpt><trkpt lat="44.92537583117395" lon="9.518062963230985"><ele>284.0</ele><time>2026-04-18T11:09:15Z</time></trkpt><trkpt lat="44.92522995513412" lon="9.517968808741841"><ele>284.0</ele><time>2026-04-18T11:09:16Z</time></trkpt><trkpt lat="44.92508152272845" lon="9.517864822771468"><ele>284.0</ele><time>2026-04-18T11:09:17Z</time></trkpt><trkpt lat="44.92493302540657" lon="9.517754311507323"><ele>284.33333333333337</ele><time>2026-04-18T11:09:18Z</time></trkpt><trkpt lat="44.924788455643665" lon="9.517642287980754"><ele>284.6666666666667</ele><time>2026-04-18T11:09:19Z</time></trkpt><trkpt lat="44.9246436334882" lon="9.517541135029877"><ele>285.0</ele><time>2026-04-18T11:09:20Z</time></trkpt><trkpt lat="44.924500028728275" lon="9.51744871075543"><ele>285.0</ele><time>2026-04-18T11:09:21.001Z</time></trkpt><trkpt lat="44.9243512233357" lon="9.517372298810969"><ele>285.0</ele><time>2026-04-18T11:09:22.001Z</time></trkpt><trkpt lat="44.92419277299306" lon="9.517318267145692"><ele>285.0</ele><time>2026-04-18T11:09:23.001Z</time></trkpt><trkpt lat="44.92402365556736" lon="9.517286466897648"><ele>285.3333333333333</ele><time>2026-04-18T11:09:24.001Z</time></trkpt><trkpt lat="44.92384903285029" lon="9.517257875061137"><ele>285.66666666666663</ele><time>2026-04-18T11:09:25.001Z</time></trkpt><trkpt lat="44.92367316252759" lon="9.517219144172355"><ele>286.0</ele><time>2026-04-18T11:09:26.001Z</time></trkpt><trkpt lat="44.92349779982051" lon="9.517180763026058"><ele>286.66666666666663</ele><time>2026-04-18T11:09:27.001Z</time></trkpt><trkpt lat="44.923327330109615" lon="9.517141449911286"><ele>287.3333333333333</ele><time>2026-04-18T11:09:28.001Z</time></trkpt><trkpt lat="44.923172036331884" lon="9.517110443693385"><ele>288.0</ele><time>2026-04-18T11:09:29.001Z</time></trkpt><trkpt lat="44.92300737765253" lon="9.517081702516712"><ele>287.0</ele><time>2026-04-18T11:09:30.001Z</time></trkpt><trkpt lat="44.922836091312256" lon="9.51704464119582"><ele>286.0</ele><time>2026-04-18T11:09:31.001Z</time></trkpt><trkpt lat="44.9226572889767" lon="9.517010245168995"><ele>285.0</ele><time>2026-04-18T11:09:32.001Z</time></trkpt><trkpt lat="44.922480701169334" lon="9.516977809533937"><ele>287.0</ele><time>2026-04-18T11:09:33.001Z</time></trkpt><trkpt lat="44.92231121064173" lon="9.51694449046312"><ele>289.0</ele><time>2026-04-18T11:09:34.001Z</time></trkpt><trkpt lat="44.92213908136315" lon="9.516918496938139"><ele>291.0</ele><time>2026-04-18T11:09:35.001Z</time></trkpt><trkpt lat="44.92199360184637" lon="9.51688675229978"><ele>291.0</ele><time>2026-04-18T11:09:36.001Z</time></trkpt><trkpt lat="44.92185799824112" lon="9.51686207446507"><ele>291.0</ele><time>2026-04-18T11:09:37.001Z</time></trkpt><trkpt lat="44.921717462332374" lon="9.51683101451559"><ele>291.0</ele><time>2026-04-18T11:09:38.001Z</time></trkpt><trkpt lat="44.92158086181982" lon="9.51678539557507"><ele>291.0</ele><time>2026-04-18T11:09:39.001Z</time></trkpt><trkpt lat="44.92145399893751" lon="9.516716381234966"><ele>293.0</ele><time>2026-04-18T11:09:40.001Z</time></trkpt><trkpt lat="44.92134050794725" lon="9.51661972149659"><ele>295.0</ele><time>2026-04-18T11:09:41.001Z</time></trkpt><trkpt lat="44.92124086019174" lon="9.516503271900548"><ele>297.0</ele><time>2026-04-18T11:09:42.001Z</time></trkpt><trkpt lat="44.921145103949186" lon="9.516351073379465"><ele>299.0</ele><time>2026-04-18T11:09:43.001Z</time></trkpt><trkpt lat="44.92105478839278" lon="9.51617609425086"><ele>299.5</ele><time>2026-04-18T11:09:44.001Z</time></trkpt><trkpt lat="44.920966096306074" lon="9.516001534230522"><ele>300.0</ele><time>2026-04-18T11:09:45.001Z</time></trkpt><trkpt lat="44.92087805317644" lon="9.5158342341004"><ele>300.5</ele><time>2026-04-18T11:09:46.001Z</time></trkpt><trkpt lat="44.92078459010972" lon="9.51568909444696"><ele>301.0</ele><time>2026-04-18T11:09:47.001Z</time></trkpt><trkpt lat="44.920675312935636" lon="9.515570812042776"><ele>302.0</ele><time>2026-04-18T11:09:48.001Z</time></trkpt><trkpt lat="44.92055332426123" lon="9.515483487628735"><ele>303.0</ele><time>2026-04-18T11:09:49.002Z</time></trkpt><trkpt lat="44.920414854342475" lon="9.51542790961983"><ele>304.0</ele><time>2026-04-18T11:09:50.002Z</time></trkpt><trkpt lat="44.92025694786614" lon="9.51541024052674"><ele>305.0</ele><time>2026-04-18T11:09:51.002Z</time></trkpt><trkpt lat="44.92009418323066" lon="9.515420766448338"><ele>307.0</ele><time>2026-04-18T11:09:52.002Z</time></trkpt><trkpt lat="44.91992473713588" lon="9.515427832838633"><ele>309.0</ele><time>2026-04-18T11:09:53.002Z</time></trkpt><trkpt lat="44.91975088634418" lon="9.515425298126402"><ele>311.0</ele><time>2026-04-18T11:09:54.002Z</time></trkpt><trkpt lat="44.91958064175938" lon="9.515415270448203"><ele>311.0</ele><time>2026-04-18T11:09:55.002Z</time></trkpt><trkpt lat="44.91940582728596" lon="9.515405855317717"><ele>311.0</ele><time>2026-04-18T11:09:56.002Z</time></trkpt><trkpt lat="44.91922961817179" lon="9.51539978244278"><ele>311.0</ele><time>2026-04-18T11:09:57.002Z</time></trkpt><trkpt lat="44.91905867689719" lon="9.515391757920472"><ele>316.0</ele><time>2026-04-18T11:09:58.002Z</time></trkpt><trkpt lat="44.91888495711876" lon="9.515380433364317"><ele>321.0</ele><time>2026-04-18T11:09:59.002Z</time></trkpt><trkpt lat="44.918714974883464" lon="9.515366393262664"><ele>326.0</ele><time>2026-04-18T11:10:00.002Z</time></trkpt><trkpt lat="44.91854379353217" lon="9.515355539681067"><ele>326.6666666666667</ele><time>2026-04-18T11:10:01.002Z</time></trkpt><trkpt lat="44.9183720050064" lon="9.515349090506955"><ele>327.3333333333333</ele><time>2026-04-18T11:10:02.002Z</time></trkpt><trkpt lat="44.9181970496687" lon="9.515342925700937"><ele>328.0</ele><time>2026-04-18T11:10:03.002Z</time></trkpt><trkpt lat="44.918026759279414" lon="9.51534516260243"><ele>328.0</ele><time>2026-04-18T11:10:04.002Z</time></trkpt><trkpt lat="44.91785263096903" lon="9.515341328721096"><ele>328.0</ele><time>2026-04-18T11:10:05.002Z</time></trkpt><trkpt lat="44.91767659062899" lon="9.515329937763651"><ele>328.0</ele><time>2026-04-18T11:10:06.002Z</time></trkpt><trkpt lat="44.91749939208086" lon="9.51532003595441"><ele>330.3333333333333</ele><time>2026-04-18T11:10:07.002Z</time></trkpt><trkpt lat="44.91732322170265" lon="9.515310680252384"><ele>332.6666666666667</ele><time>2026-04-18T11:10:08.002Z</time></trkpt><trkpt lat="44.91714328598922" lon="9.51531141438004"><ele>335.0</ele><time>2026-04-18T11:10:09.002Z</time></trkpt><trkpt lat="44.91695747198367" lon="9.51529998560173"><ele>335.0</ele><time>2026-04-18T11:10:10.002Z</time></trkpt><trkpt lat="44.916777264806456" lon="9.515286933558606"><ele>335.0</ele><time>2026-04-18T11:10:11.002Z</time></trkpt><trkpt lat="44.916594926440965" lon="9.515280382589928"><ele>335.0</ele><time>2026-04-18T11:10:12.002Z</time></trkpt><trkpt lat="44.91641223980049" lon="9.515276115854794"><ele>336.33333333333337</ele><time>2026-04-18T11:10:13.002Z</time></trkpt><trkpt lat="44.91623114427394" lon="9.515269765878573"><ele>337.6666666666667</ele><time>2026-04-18T11:10:14.002Z</time></trkpt><trkpt lat="44.91604964238024" lon="9.515260322002119"><ele>339.0</ele><time>2026-04-18T11:10:15.002Z</time></trkpt><trkpt lat="44.91586802210886" lon="9.515253047656513"><ele>342.3333333333333</ele><time>2026-04-18T11:10:16.002Z</time></trkpt><trkpt lat="44.91568865952651" lon="9.515244441108866"><ele>345.66666666666663</ele><time>2026-04-18T11:10:17.002Z</time></trkpt><trkpt lat="44.91550797361972" lon="9.515237674809484"><ele>349.0</ele><time>2026-04-18T11:10:18.002Z</time></trkpt><trkpt lat="44.91533228610208" lon="9.515225838626153"><ele>349.0</ele><time>2026-04-18T11:10:19.002Z</time></trkpt><trkpt lat="44.91515463877189" lon="9.515213625564256"><ele>349.0</ele><time>2026-04-18T11:10:20.002Z</time></trkpt><trkpt lat="44.91497803811372" lon="9.515199815408582"><ele>349.0</ele><time>2026-04-18T11:10:21.002Z</time></trkpt><trkpt lat="44.91480854353272" lon="9.515189876929597"><ele>352.3333333333333</ele><time>2026-04-18T11:10:22.003Z</time></trkpt><trkpt lat="44.91464745203299" lon="9.515192637872689"><ele>355.6666666666667</ele><time>2026-04-18T11:10:23.003Z</time></trkpt><trkpt lat="44.91449865170311" lon="9.515219838056426"><ele>359.0</ele><time>2026-04-18T11:10:24.003Z</time></trkpt><trkpt lat="44.91435591958269" lon="9.515263673906016"><ele>361.25</ele><time>2026-04-18T11:10:25.003Z</time></trkpt><trkpt lat="44.91422442580172" lon="9.515323756516553"><ele>363.5</ele><time>2026-04-18T11:10:26.003Z</time></trkpt><trkpt lat="44.91413101287965" lon="9.515418216772748"><ele>365.75</ele><time>2026-04-18T11:10:27.003Z</time></trkpt><trkpt lat="44.91404681052566" lon="9.515531369337467"><ele>368.0</ele><time>2026-04-18T11:10:28.003Z</time></trkpt><trkpt lat="44.91396606138299" lon="9.515645943206415"><ele>369.0</ele><time>2026-04-18T11:10:29.003Z</time></trkpt><trkpt lat="44.913888250322586" lon="9.515781703841398"><ele>370.0</ele><time>2026-04-18T11:10:30.003Z</time></trkpt><trkpt lat="44.91380841705859" lon="9.515912572895568"><ele>371.0</ele><time>2026-04-18T11:10:31.003Z</time></trkpt><trkpt lat="44.91372770940637" lon="9.516051101839368"><ele>372.0</ele><time>2026-04-18T11:10:32.003Z</time></trkpt><trkpt lat="44.913644230518216" lon="9.516196670306078"><ele>370.5</ele><time>2026-04-18T11:10:33.003Z</time></trkpt><trkpt lat="44.91355390114243" lon="9.516345938318256"><ele>369.0</ele><time>2026-04-18T11:10:34.003Z</time></trkpt><trkpt lat="44.9134512849557" lon="9.516495366230295"><ele>367.5</ele><time>2026-04-18T11:10:35.003Z</time></trkpt><trkpt lat="44.91335195558671" lon="9.516643211292596"><ele>366.0</ele><time>2026-04-18T11:10:36.003Z</time></trkpt><trkpt lat="44.9132674392145" lon="9.516775698785306"><ele>369.20000000000005</ele><time>2026-04-18T11:10:37.003Z</time></trkpt><trkpt lat="44.91318951493718" lon="9.51687480178014"><ele>372.40000000000003</ele><time>2026-04-18T11:10:38.003Z</time></trkpt><trkpt lat="44.91308425322259" lon="9.516943342272215"><ele>375.6</ele><time>2026-04-18T11:10:39.003Z</time></trkpt><trkpt lat="44.913004703516634" lon="9.516978212085037"><ele>378.8</ele><time>2026-04-18T11:10:40.003Z</time></trkpt><trkpt lat="44.912919659492474" lon="9.516992994728584"><ele>382.0</ele><time>2026-04-18T11:10:41.003Z</time></trkpt><trkpt lat="44.91281904243936" lon="9.517012050577565"><ele>382.0</ele><time>2026-04-18T11:10:42.003Z</time></trkpt><trkpt lat="44.91271095157294" lon="9.517033891360716"><ele>382.0</ele><time>2026-04-18T11:10:43.003Z</time></trkpt><trkpt lat="44.912599221567945" lon="9.517057079231778"><ele>382.0</ele><time>2026-04-18T11:10:44.003Z</time></trkpt><trkpt lat="44.91247633482967" lon="9.51708235327184"><ele>382.0</ele><time>2026-04-18T11:10:45.003Z</time></trkpt><trkpt lat="44.91234394148819" lon="9.517104151010239"><ele>383.5</ele><time>2026-04-18T11:10:46.003Z</time></trkpt><trkpt lat="44.912202523695264" lon="9.517131309842448"><ele>385.0</ele><time>2026-04-18T11:10:47.003Z</time></trkpt><trkpt lat="44.91205810513046" lon="9.517166083446288"><ele>386.5</ele><time>2026-04-18T11:10:48.003Z</time></trkpt><trkpt lat="44.91190918854971" lon="9.517193151586902"><ele>388.0</ele><time>2026-04-18T11:10:49.003Z</time></trkpt><trkpt lat="44.91176624066465" lon="9.517223539806068"><ele>391.75</ele><time>2026-04-18T11:10:50.003Z</time></trkpt><trkpt lat="44.91163270817553" lon="9.517229424936936"><ele>395.5</ele><time>2026-04-18T11:10:51.003Z</time></trkpt><trkpt lat="44.91149114356864" lon="9.517246042213165"><ele>399.25</ele><time>2026-04-18T11:10:52Z</time></trkpt><trkpt lat="44.911352824739325" lon="9.517262273775405"><ele>403.0</ele><time>2026-04-18T11:10:53Z</time></trkpt><trkpt lat="44.9112098230375" lon="9.517282533252889"><ele>403.0</ele><time>2026-04-18T11:10:54Z</time></trkpt><trkpt lat="44.91106310483987" lon="9.517293674665105"><ele>403.0</ele><time>2026-04-18T11:10:55Z</time></trkpt><trkpt lat="44.91091274266018" lon="9.51730055930702"><ele>403.0</ele><time>2026-04-18T11:10:56Z</time></trkpt><trkpt lat="44.910764194202976" lon="9.517304434556337"><ele>403.0</ele><time>2026-04-18T11:10:57Z</time></trkpt><trkpt lat="44.910615503938644" lon="9.517293882617727"><ele>405.6666666666667</ele><time>2026-04-18T11:10:58Z</time></trkpt><trkpt lat="44.91045785035237" lon="9.517277679315024"><ele>408.33333333333337</ele><time>2026-04-18T11:10:59Z</time></trkpt><trkpt lat="44.91029960947069" lon="9.51725431485055"><ele>411.0</ele><time>2026-04-18T11:11:00Z</time></trkpt><trkpt lat="44.910138943107846" lon="9.517227001749921"><ele>413.33333333333337</ele><time>2026-04-18T11:11:01Z</time></trkpt><trkpt lat="44.909974352641505" lon="9.517200395900874"><ele>415.6666666666667</ele><time>2026-04-18T11:11:02Z</time></trkpt><trkpt lat="44.90980872845104" lon="9.517170535709566"><ele>418.0</ele><time>2026-04-18T11:11:03Z</time></trkpt><trkpt lat="44.909649500289945" lon="9.517140531474"><ele>418.0</ele><time>2026-04-18T11:11:04Z</time></trkpt><trkpt lat="44.909491064556974" lon="9.517115084798599"><ele>418.0</ele><time>2026-04-18T11:11:05Z</time></trkpt><trkpt lat="44.909340733597325" lon="9.517094249647855"><ele>418.0</ele><time>2026-04-18T11:11:06Z</time></trkpt><trkpt lat="44.909190741838096" lon="9.517071988202751"><ele>419.33333333333337</ele><time>2026-04-18T11:11:07Z</time></trkpt><trkpt lat="44.90904220781641" lon="9.517048843493498"><ele>420.66666666666663</ele><time>2026-04-18T11:11:08Z</time></trkpt><trkpt lat="44.90888690221181" lon="9.517025097610139"><ele>422.0</ele><time>2026-04-18T11:11:09Z</time></trkpt><trkpt lat="44.90873411194126" lon="9.517002928898359"><ele>422.0</ele><time>2026-04-18T11:11:10Z</time></trkpt><trkpt lat="44.90858443737823" lon="9.516981707636043"><ele>422.0</ele><time>2026-04-18T11:11:11Z</time></trkpt><trkpt lat="44.908450351699265" lon="9.51696174622159"><ele>422.0</ele><time>2026-04-18T11:11:12Z</time></trkpt><trkpt lat="44.908337700933636" lon="9.5169479749205"><ele>422.0</ele><time>2026-04-18T11:11:13Z</time></trkpt><trkpt lat="44.90823623826013" lon="9.516940308122832"><ele>424.99999999999994</ele><time>2026-04-18T11:11:14Z</time></trkpt><trkpt lat="44.908140532141985" lon="9.516938180909692"><ele>428.0</ele><time>2026-04-18T11:11:15Z</time></trkpt><trkpt lat="44.90806474486797" lon="9.516908807625784"><ele>431.0</ele><time>2026-04-18T11:11:16Z</time></trkpt><trkpt lat="44.907994468033955" lon="9.51685253463542"><ele>434.0</ele><time>2026-04-18T11:11:17Z</time></trkpt><trkpt lat="44.90794481981153" lon="9.51678408286936"><ele>436.99999999999994</ele><time>2026-04-18T11:11:18Z</time></trkpt><trkpt lat="44.907930282565374" lon="9.51668085356479"><ele>440.0</ele><time>2026-04-18T11:11:19Z</time></trkpt><trkpt lat="44.90793556963418" lon="9.516567118392343"><ele>440.0</ele><time>2026-04-18T11:11:20Z</time></trkpt><trkpt lat="44.90795790617872" lon="9.516445922659454"><ele>440.0</ele><time>2026-04-18T11:11:21Z</time></trkpt><trkpt lat="44.90797913360732" lon="9.516313393976077"><ele>440.0</ele><time>2026-04-18T11:11:22Z</time></trkpt><trkpt lat="44.908011594612574" lon="9.516164791696255"><ele>440.0</ele><time>2026-04-18T11:11:23.001Z</time></trkpt><trkpt lat="44.908065143880414" lon="9.516017481498485"><ele>440.0</ele><time>2026-04-18T11:11:24.001Z</time></trkpt><trkpt lat="44.908137516090264" lon="9.515870880402531"><ele>442.0</ele><time>2026-04-18T11:11:25.001Z</time></trkpt><trkpt lat="44.908221635837265" lon="9.515717116879088"><ele>444.0</ele><time>2026-04-18T11:11:26.001Z</time></trkpt><trkpt lat="44.908307569600446" lon="9.515555057003828"><ele>446.0</ele><time>2026-04-18T11:11:27.001Z</time></trkpt><trkpt lat="44.90838936297499" lon="9.51539275606111"><ele>448.0</ele><time>2026-04-18T11:11:28.001Z</time></trkpt><trkpt lat="44.908466920857045" lon="9.515254498191023"><ele>448.0</ele><time>2026-04-18T11:11:29.001Z</time></trkpt><trkpt lat="44.90854066235856" lon="9.515130170128455"><ele>448.0</ele><time>2026-04-18T11:11:30.001Z</time></trkpt><trkpt lat="44.908629411257806" lon="9.515021874134938"><ele>448.0</ele><time>2026-04-18T11:11:31.001Z</time></trkpt><trkpt lat="44.90873580809676" lon="9.5149176006725"><ele>448.0</ele><time>2026-04-18T11:11:32.001Z</time></trkpt><trkpt lat="44.90885235925928" lon="9.514809760700876"><ele>448.0</ele><time>2026-04-18T11:11:33.001Z</time></trkpt><trkpt lat="44.908975134501055" lon="9.51470037400748"><ele>448.0</ele><time>2026-04-18T11:11:34.001Z</time></trkpt><trkpt lat="44.90909018299799" lon="9.514596106085712"><ele>448.0</ele><time>2026-04-18T11:11:35.001Z</time></trkpt><trkpt lat="44.90919430515602" lon="9.514496954900293"><ele>448.0</ele><time>2026-04-18T11:11:36.001Z</time></trkpt><trkpt lat="44.90927744151724" lon="9.514402532059957"><ele>446.2</ele><time>2026-04-18T11:11:37.001Z</time></trkpt><trkpt lat="44.90933855688607" lon="9.514289869199626"><ele>444.4</ele><time>2026-04-18T11:11:38.001Z</time></trkpt><trkpt lat="44.90937111682629" lon="9.514175413846463"><ele>442.59999999999997</ele><time>2026-04-18T11:11:39.001Z</time></trkpt><trkpt lat="44.90938484836308" lon="9.514073319432235"><ele>440.79999999999995</ele><time>2026-04-18T11:11:40.001Z</time></trkpt><trkpt lat="44.9093436068119" lon="9.513911592667105"><ele>439.0</ele><time>2026-04-18T11:11:43.001Z</time></trkpt><trkpt lat="44.909255950562155" lon="9.513862117259325"><ele>440.5</ele><time>2026-04-18T11:11:44.001Z</time></trkpt><trkpt lat="44.90915289218058" lon="9.513831403662769"><ele>442.0</ele><time>2026-04-18T11:11:45.001Z</time></trkpt><trkpt lat="44.9093083309661" lon="9.5133031735636"><ele>442.0</ele><time>2026-04-18T11:11:46.001Z</time></trkpt><trkpt lat="44.90925397116847" lon="9.51316714478355"><ele>442.0</ele><time>2026-04-18T11:11:47.001Z</time></trkpt><trkpt lat="44.90925669069174" lon="9.512960620748775"><ele>442.0</ele><time>2026-04-18T11:11:48.001Z</time></trkpt><trkpt lat="44.90924582881104" lon="9.512795318296147"><ele>442.0</ele><time>2026-04-18T11:11:49.001Z</time></trkpt><trkpt lat="44.909258072990454" lon="9.512593692240117"><ele>442.25</ele><time>2026-04-18T11:11:50.001Z</time></trkpt><trkpt lat="44.90927424915126" lon="9.512389117122103"><ele>442.5</ele><time>2026-04-18T11:11:51.001Z</time></trkpt><trkpt lat="44.909297429500505" lon="9.512180955165645"><ele>442.75</ele><time>2026-04-18T11:11:52.001Z</time></trkpt><trkpt lat="44.909313791409865" lon="9.511991405711935"><ele>443.0</ele><time>2026-04-18T11:11:53.001Z</time></trkpt><trkpt lat="44.909323367685424" lon="9.511824452857923"><ele>444.2</ele><time>2026-04-18T11:11:54.002Z</time></trkpt><trkpt lat="44.909325649191786" lon="9.511679136513322"><ele>445.4</ele><time>2026-04-18T11:11:55.002Z</time></trkpt><trkpt lat="44.909305925913664" lon="9.511534471790382"><ele>446.59999999999997</ele><time>2026-04-18T11:11:56.002Z</time></trkpt><trkpt lat="44.90925597196152" lon="9.51140482609313"><ele>447.79999999999995</ele><time>2026-04-18T11:11:57.002Z</time></trkpt><trkpt lat="44.90917809675469" lon="9.511295669372105"><ele>449.0</ele><time>2026-04-18T11:11:58.002Z</time></trkpt><trkpt lat="44.90908129390984" lon="9.511209311100242"><ele>456.25</ele><time>2026-04-18T11:11:59.002Z</time></trkpt><trkpt lat="44.90899528269181" lon="9.51111736866625"><ele>463.5</ele><time>2026-04-18T11:12:00.002Z</time></trkpt><trkpt lat="44.90890430823235" lon="9.511008723255838"><ele>470.75</ele><time>2026-04-18T11:12:01.002Z</time></trkpt><trkpt lat="44.90882026113772" lon="9.510861793273213"><ele>478.0</ele><time>2026-04-18T11:12:02.002Z</time></trkpt><trkpt lat="44.90874191040067" lon="9.510706654740426"><ele>478.0</ele><time>2026-04-18T11:12:03.002Z</time></trkpt><trkpt lat="44.9086659031483" lon="9.510531628420651"><ele>478.0</ele><time>2026-04-18T11:12:04.002Z</time></trkpt><trkpt lat="44.90859456466192" lon="9.510342023826908"><ele>478.0</ele><time>2026-04-18T11:12:05.002Z</time></trkpt><trkpt lat="44.90852579148668" lon="9.510167720654346"><ele>478.0</ele><time>2026-04-18T11:12:06.002Z</time></trkpt><trkpt lat="44.90845722631549" lon="9.510005831633302"><ele>479.5</ele><time>2026-04-18T11:12:07.002Z</time></trkpt><trkpt lat="44.90838166895429" lon="9.509856942690053"><ele>481.0</ele><time>2026-04-18T11:12:08.002Z</time></trkpt><trkpt lat="44.90829019174748" lon="9.509715532656648"><ele>482.5</ele><time>2026-04-18T11:12:09.002Z</time></trkpt><trkpt lat="44.90818715309982" lon="9.509583443506006"><ele>484.0</ele><time>2026-04-18T11:12:10.002Z</time></trkpt><trkpt lat="44.90807754369769" lon="9.509422234090318"><ele>484.0</ele><time>2026-04-18T11:12:11.002Z</time></trkpt><trkpt lat="44.907989588469775" lon="9.509259683911148"><ele>484.0</ele><time>2026-04-18T11:12:12.002Z</time></trkpt><trkpt lat="44.90789959857618" lon="9.509096414898579"><ele>484.0</ele><time>2026-04-18T11:12:13.002Z</time></trkpt><trkpt lat="44.907802699476385" lon="9.508941896648262"><ele>484.0</ele><time>2026-04-18T11:12:14.002Z</time></trkpt><trkpt lat="44.90770556787084" lon="9.508777537028031"><ele>482.75</ele><time>2026-04-18T11:12:15.002Z</time></trkpt><trkpt lat="44.90761456919489" lon="9.508621867576974"><ele>481.5</ele><time>2026-04-18T11:12:16.002Z</time></trkpt><trkpt lat="44.90752627767879" lon="9.508479913685088"><ele>480.25</ele><time>2026-04-18T11:12:17.002Z</time></trkpt><trkpt lat="44.907447768992874" lon="9.508373575231525"><ele>479.0</ele><time>2026-04-18T11:12:18.002Z</time></trkpt><trkpt lat="44.90737256713285" lon="9.508294401145843"><ele>482.0</ele><time>2026-04-18T11:12:19.002Z</time></trkpt><trkpt lat="44.90727245701487" lon="9.508257870930674"><ele>485.0</ele><time>2026-04-18T11:12:20.002Z</time></trkpt><trkpt lat="44.907155876797866" lon="9.508246789196258"><ele>488.0</ele><time>2026-04-18T11:12:21.002Z</time></trkpt><trkpt lat="44.907027330603256" lon="9.508259904058276"><ele>491.0</ele><time>2026-04-18T11:12:22.002Z</time></trkpt><trkpt lat="44.906877860653" lon="9.508275365332862"><ele>491.0</ele><time>2026-04-18T11:12:23.002Z</time></trkpt><trkpt lat="44.90674876827498" lon="9.508297885921852"><ele>491.0</ele><time>2026-04-18T11:12:24.002Z</time></trkpt><trkpt lat="44.90663307116114" lon="9.508310480234009"><ele>491.0</ele><time>2026-04-18T11:12:25.002Z</time></trkpt><trkpt lat="44.90652240544625" lon="9.508350676594628"><ele>491.0</ele><time>2026-04-18T11:12:26.002Z</time></trkpt><trkpt lat="44.90638810890883" lon="9.508439452224536"><ele>493.66666666666663</ele><time>2026-04-18T11:12:27.003Z</time></trkpt><trkpt lat="44.906246861104336" lon="9.508540477566546"><ele>496.33333333333337</ele><time>2026-04-18T11:12:28.003Z</time></trkpt><trkpt lat="44.9060929736429" lon="9.508617033870399"><ele>499.0</ele><time>2026-04-18T11:12:29.003Z</time></trkpt><trkpt lat="44.90593392490456" lon="9.508685184910362"><ele>505.6666666666667</ele><time>2026-04-18T11:12:30.003Z</time></trkpt><trkpt lat="44.90578685831162" lon="9.508743939839707"><ele>512.3333333333334</ele><time>2026-04-18T11:12:31.003Z</time></trkpt><trkpt lat="44.905640435667884" lon="9.508803745462515"><ele>519.0</ele><time>2026-04-18T11:12:32.003Z</time></trkpt><trkpt lat="44.905489527533895" lon="9.508876534112511"><ele>519.0</ele><time>2026-04-18T11:12:33.003Z</time></trkpt><trkpt lat="44.90533561256127" lon="9.508960087158567"><ele>519.0</ele><time>2026-04-18T11:12:34.003Z</time></trkpt><trkpt lat="44.905189596211464" lon="9.509046018409647"><ele>519.0</ele><time>2026-04-18T11:12:35.003Z</time></trkpt><trkpt lat="44.905044771745104" lon="9.509136875125591"><ele>517.25</ele><time>2026-04-18T11:12:36.003Z</time></trkpt><trkpt lat="44.90491441543731" lon="9.5092522450344"><ele>515.5</ele><time>2026-04-18T11:12:37.003Z</time></trkpt><trkpt lat="44.904795111299705" lon="9.509361317780721"><ele>513.75</ele><time>2026-04-18T11:12:38.003Z</time></trkpt><trkpt lat="44.904686626858854" lon="9.509454887404887"><ele>512.0</ele><time>2026-04-18T11:12:39.003Z</time></trkpt><trkpt lat="44.90458904196747" lon="9.509541263112729"><ele>515.75</ele><time>2026-04-18T11:12:40.003Z</time></trkpt><trkpt lat="44.904502263336795" lon="9.509650375333031"><ele>519.5</ele><time>2026-04-18T11:12:41.003Z</time></trkpt><trkpt lat="44.90442411326183" lon="9.509775197837046"><ele>523.25</ele><time>2026-04-18T11:12:42.003Z</time></trkpt><trkpt lat="44.90436407184492" lon="9.509915786436613"><ele>527.0</ele><time>2026-04-18T11:12:43.003Z</time></trkpt><trkpt lat="44.904315029266336" lon="9.510052504574446"><ele>527.0</ele><time>2026-04-18T11:12:44.003Z</time></trkpt><trkpt lat="44.904324861062115" lon="9.510175347548902"><ele>527.0</ele><time>2026-04-18T11:12:45.003Z</time></trkpt><trkpt lat="44.90433564901374" lon="9.510318420572219"><ele>527.0</ele><time>2026-04-18T11:12:46.003Z</time></trkpt><trkpt lat="44.90439199486189" lon="9.510470105093233"><ele>527.0</ele><time>2026-04-18T11:12:47.003Z</time></trkpt><trkpt lat="44.90447003048296" lon="9.51066339591675"><ele>529.25</ele><time>2026-04-18T11:12:48.003Z</time></trkpt><trkpt lat="44.90452007446664" lon="9.510842558342695"><ele>531.5</ele><time>2026-04-18T11:12:49.003Z</time></trkpt><trkpt lat="44.90455862261472" lon="9.511009411279295"><ele>533.75</ele><time>2026-04-18T11:12:50.003Z</time></trkpt><trkpt lat="44.904550651807845" lon="9.511200283768057"><ele>536.0</ele><time>2026-04-18T11:12:51.003Z</time></trkpt><trkpt lat="44.90448980904124" lon="9.511361136161106"><ele>539.6666666666666</ele><time>2026-04-18T11:12:52.003Z</time></trkpt><trkpt lat="44.90441530311418" lon="9.511539308564146"><ele>543.3333333333334</ele><time>2026-04-18T11:12:53.003Z</time></trkpt><trkpt lat="44.9043419252188" lon="9.511744435149646"><ele>547.0</ele><time>2026-04-18T11:12:54.003Z</time></trkpt><trkpt lat="44.90428586840163" lon="9.511961538128217"><ele>548.0</ele><time>2026-04-18T11:12:55.003Z</time></trkpt><trkpt lat="44.90425473875322" lon="9.512187288306565"><ele>549.0</ele><time>2026-04-18T11:12:56.003Z</time></trkpt><trkpt lat="44.904226660323694" lon="9.512397572629942"><ele>550.0</ele><time>2026-04-18T11:12:57.003Z</time></trkpt><trkpt lat="44.90418494351384" lon="9.512600683645251"><ele>543.75</ele><time>2026-04-18T11:12:57.999Z</time></trkpt><trkpt lat="44.90412475064266" lon="9.512797136607952"><ele>537.5</ele><time>2026-04-18T11:12:58.999Z</time></trkpt><trkpt lat="44.90405068885999" lon="9.51297841604076"><ele>531.25</ele><time>2026-04-18T11:13:00Z</time></trkpt><trkpt lat="44.90396222351507" lon="9.513143740130523"><ele>525.0</ele><time>2026-04-18T11:13:01Z</time></trkpt><trkpt lat="44.903856367062055" lon="9.513299901966159"><ele>524.6666666666666</ele><time>2026-04-18T11:13:02Z</time></trkpt><trkpt lat="44.903742638520505" lon="9.51345823992911"><ele>524.3333333333333</ele><time>2026-04-18T11:13:03Z</time></trkpt><trkpt lat="44.903626088706964" lon="9.513616374032301"><ele>524.0</ele><time>2026-04-18T11:13:04Z</time></trkpt><trkpt lat="44.903508939617325" lon="9.513782321873608"><ele>525.6666666666666</ele><time>2026-04-18T11:13:05Z</time></trkpt><trkpt lat="44.90339086817702" lon="9.513946397493438"><ele>527.3333333333334</ele><time>2026-04-18T11:13:06Z</time></trkpt><trkpt lat="44.90327704620263" lon="9.514102178721664"><ele>529.0</ele><time>2026-04-18T11:13:07Z</time></trkpt><trkpt lat="44.90316541388429" lon="9.514265070864615"><ele>529.0</ele><time>2026-04-18T11:13:08Z</time></trkpt><trkpt lat="44.90306640611917" lon="9.514415096962535"><ele>529.0</ele><time>2026-04-18T11:13:09Z</time></trkpt><trkpt lat="44.90297755757317" lon="9.514542447284356"><ele>529.0</ele><time>2026-04-18T11:13:10Z</time></trkpt><trkpt lat="44.902889828344236" lon="9.51462881547812"><ele>529.0</ele><time>2026-04-18T11:13:11Z</time></trkpt><trkpt lat="44.90278965516448" lon="9.51468736031172"><ele>527.75</ele><time>2026-04-18T11:13:12Z</time></trkpt><trkpt lat="44.902678245348326" lon="9.514698896835169"><ele>526.5</ele><time>2026-04-18T11:13:13Z</time></trkpt><trkpt lat="44.90255844934592" lon="9.514671427056552"><ele>525.25</ele><time>2026-04-18T11:13:14Z</time></trkpt><trkpt lat="44.90244348211626" lon="9.514622688663932"><ele>524.0</ele><time>2026-04-18T11:13:15Z</time></trkpt><trkpt lat="44.90233014574932" lon="9.514654499302804"><ele>526.5</ele><time>2026-04-18T11:13:16Z</time></trkpt><trkpt lat="44.90222283362607" lon="9.514729014626205"><ele>529.0</ele><time>2026-04-18T11:13:17Z</time></trkpt><trkpt lat="44.90213034811676" lon="9.51484429820593"><ele>531.5</ele><time>2026-04-18T11:13:18Z</time></trkpt><trkpt lat="44.90205013159104" lon="9.514982625484253"><ele>534.0</ele><time>2026-04-18T11:13:19Z</time></trkpt><trkpt lat="44.90196358295915" lon="9.515125407969819"><ele>534.0</ele><time>2026-04-18T11:13:20Z</time></trkpt><trkpt lat="44.90187708524638" lon="9.515262806004536"><ele>534.0</ele><time>2026-04-18T11:13:21Z</time></trkpt><trkpt lat="44.90179519138176" lon="9.515384029844567"><ele>534.0</ele><time>2026-04-18T11:13:22Z</time></trkpt><trkpt lat="44.90172468129121" lon="9.515502131583949"><ele>534.0</ele><time>2026-04-18T11:13:23Z</time></trkpt><trkpt lat="44.901668265987816" lon="9.515628623531983"><ele>535.6666666666666</ele><time>2026-04-18T11:13:24Z</time></trkpt><trkpt lat="44.9016314540905" lon="9.51576241592862"><ele>537.3333333333334</ele><time>2026-04-18T11:13:25Z</time></trkpt><trkpt lat="44.901610225999356" lon="9.515903294163019"><ele>539.0</ele><time>2026-04-18T11:13:26Z</time></trkpt><trkpt lat="44.90159027418789" lon="9.516031587484022"><ele>540.6666666666667</ele><time>2026-04-18T11:13:27Z</time></trkpt><trkpt lat="44.90156277120086" lon="9.51613937537718"><ele>542.3333333333334</ele><time>2026-04-18T11:13:28Z</time></trkpt><trkpt lat="44.90153407732131" lon="9.516224874859917"><ele>544.0</ele><time>2026-04-18T11:13:29Z</time></trkpt><trkpt lat="44.90147976190179" lon="9.516303370878111"><ele>544.0</ele><time>2026-04-18T11:13:31.001Z</time></trkpt><trkpt lat="44.90145073412085" lon="9.516391684474803"><ele>544.0</ele><time>2026-04-18T11:13:48.001Z</time></trkpt><trkpt lat="44.90138179730528" lon="9.516433534562163"><ele>544.0</ele><time>2026-04-18T11:13:50.001Z</time></trkpt><trkpt lat="44.90127119179522" lon="9.516485103405692"><ele>544.0</ele><time>2026-04-18T11:13:52.001Z</time></trkpt><trkpt lat="44.90119506416995" lon="9.516523776997792"><ele>544.0</ele><time>2026-04-18T11:13:53.001Z</time></trkpt><trkpt lat="44.90111681973917" lon="9.516555835205905"><ele>544.0</ele><time>2026-04-18T11:13:54.001Z</time></trkpt><trkpt lat="44.90103968033243" lon="9.516586387699515"><ele>544.0</ele><time>2026-04-18T11:13:55.001Z</time></trkpt><trkpt lat="44.90095800026054" lon="9.516623243882657"><ele>544.0</ele><time>2026-04-18T11:13:56.001Z</time></trkpt><trkpt lat="44.900878299243004" lon="9.516667457142603"><ele>544.0</ele><time>2026-04-18T11:13:57.001Z</time></trkpt><trkpt lat="44.90080634715442" lon="9.516723861342882"><ele>544.0</ele><time>2026-04-18T11:13:58.001Z</time></trkpt><trkpt lat="44.900743976252954" lon="9.516774724255498"><ele>544.0</ele><time>2026-04-18T11:13:59.001Z</time></trkpt><trkpt lat="44.900686010719326" lon="9.516817040343653"><ele>544.0</ele><time>2026-04-18T11:14:00.001Z</time></trkpt><trkpt lat="44.900578293995295" lon="9.516904063186399"><ele>544.3333333333334</ele><time>2026-04-18T11:14:02.002Z</time></trkpt><trkpt lat="44.90052114212902" lon="9.516944280853718"><ele>544.6666666666667</ele><time>2026-04-18T11:14:03.002Z</time></trkpt><trkpt lat="44.900457708569995" lon="9.516985686465775"><ele>545.0</ele><time>2026-04-18T11:14:04.002Z</time></trkpt><trkpt lat="44.900377893944786" lon="9.517029945160763"><ele>545.3333333333334</ele><time>2026-04-18T11:14:05.002Z</time></trkpt><trkpt lat="44.90028928963905" lon="9.517065426902805"><ele>545.6666666666666</ele><time>2026-04-18T11:14:06.002Z</time></trkpt><trkpt lat="44.900199008476825" lon="9.517072374787595"><ele>546.0</ele><time>2026-04-18T11:14:07.002Z</time></trkpt><trkpt lat="44.90010717634724" lon="9.517040594824632"><ele>546.0</ele><time>2026-04-18T11:14:08.002Z</time></trkpt><trkpt lat="44.90002452195865" lon="9.51696151244998"><ele>546.0</ele><time>2026-04-18T11:14:09.002Z</time></trkpt><trkpt lat="44.89994047851773" lon="9.516834679422244"><ele>546.0</ele><time>2026-04-18T11:14:10.002Z</time></trkpt><trkpt lat="44.899831226689486" lon="9.516746998812177"><ele>546.0</ele><time>2026-04-18T11:14:11.002Z</time></trkpt><trkpt lat="44.899730695612426" lon="9.516632823186521"><ele>546.0</ele><time>2026-04-18T11:14:12.002Z</time></trkpt><trkpt lat="44.8996136534438" lon="9.51655193470541"><ele>546.0</ele><time>2026-04-18T11:14:13.002Z</time></trkpt><trkpt lat="44.89949198635247" lon="9.516481235222479"><ele>546.0</ele><time>2026-04-18T11:14:14.002Z</time></trkpt><trkpt lat="44.89937249645758" lon="9.516399229529227"><ele>546.0</ele><time>2026-04-18T11:14:15.002Z</time></trkpt><trkpt lat="44.89925525622868" lon="9.51630850011626"><ele>543.0</ele><time>2026-04-18T11:14:16.002Z</time></trkpt><trkpt lat="44.89914590682508" lon="9.516214948051338"><ele>540.0</ele><time>2026-04-18T11:14:17.002Z</time></trkpt><trkpt lat="44.89904576729358" lon="9.516132728700578"><ele>537.0</ele><time>2026-04-18T11:14:18.002Z</time></trkpt><trkpt lat="44.89894891981945" lon="9.516061704329102"><ele>534.0</ele><time>2026-04-18T11:14:19.002Z</time></trkpt><trkpt lat="44.89885627455778" lon="9.516006030446045"><ele>534.0</ele><time>2026-04-18T11:14:20.002Z</time></trkpt><trkpt lat="44.898762104542044" lon="9.515975268954694"><ele>534.0</ele><time>2026-04-18T11:14:21.002Z</time></trkpt><trkpt lat="44.89868076682751" lon="9.51597677825637"><ele>534.0</ele><time>2026-04-18T11:14:22.002Z</time></trkpt><trkpt lat="44.89860030841814" lon="9.515976486587684"><ele>534.0</ele><time>2026-04-18T11:14:23.002Z</time></trkpt><trkpt lat="44.8985195053854" lon="9.516019734437299"><ele>534.0</ele><time>2026-04-18T11:14:24.002Z</time></trkpt><trkpt lat="44.89843694340952" lon="9.516066686399842"><ele>534.0</ele><time>2026-04-18T11:14:25.002Z</time></trkpt><trkpt lat="44.89834636362735" lon="9.516121022853286"><ele>533.5</ele><time>2026-04-18T11:14:26.002Z</time></trkpt><trkpt lat="44.89824598505773" lon="9.516186993490138"><ele>533.0</ele><time>2026-04-18T11:14:27.002Z</time></trkpt><trkpt lat="44.89814730316746" lon="9.516266899942275"><ele>532.5</ele><time>2026-04-18T11:14:28.002Z</time></trkpt><trkpt lat="44.89805091257855" lon="9.51637815436341"><ele>532.0</ele><time>2026-04-18T11:14:29.002Z</time></trkpt><trkpt lat="44.89797511306609" lon="9.516485564574028"><ele>532.0</ele><time>2026-04-18T11:14:30.002Z</time></trkpt><trkpt lat="44.897901994021545" lon="9.516596705038843"><ele>532.0</ele><time>2026-04-18T11:14:31.002Z</time></trkpt><trkpt lat="44.89785027744282" lon="9.516689790988453"><ele>532.0</ele><time>2026-04-18T11:14:32.002Z</time></trkpt><trkpt lat="44.897781042254785" lon="9.516738058879461"><ele>532.0</ele><time>2026-04-18T11:14:33.002Z</time></trkpt><trkpt lat="44.897711537893464" lon="9.51675313885424"><ele>532.0</ele><time>2026-04-18T11:14:34.002Z</time></trkpt><trkpt lat="44.897625284143565" lon="9.516743447135584"><ele>532.0</ele><time>2026-04-18T11:14:35.003Z</time></trkpt><trkpt lat="44.897533489437706" lon="9.516701614299135"><ele>534.25</ele><time>2026-04-18T11:14:36.003Z</time></trkpt><trkpt lat="44.89743044341329" lon="9.516636511382119"><ele>536.5</ele><time>2026-04-18T11:14:37.003Z</time></trkpt><trkpt lat="44.897319162544974" lon="9.516538370699203"><ele>538.75</ele><time>2026-04-18T11:14:38.003Z</time></trkpt><trkpt lat="44.89720624940104" lon="9.516448767946988"><ele>541.0</ele><time>2026-04-18T11:14:39.003Z</time></trkpt><trkpt lat="44.89709867869769" lon="9.516359039031004"><ele>541.0</ele><time>2026-04-18T11:14:40.003Z</time></trkpt><trkpt lat="44.89698980577008" lon="9.516286974404519"><ele>541.0</ele><time>2026-04-18T11:14:41.003Z</time></trkpt><trkpt lat="44.896867458946645" lon="9.516250599862751"><ele>541.0</ele><time>2026-04-18T11:14:42.003Z</time></trkpt><trkpt lat="44.89673958055708" lon="9.516255263244783"><ele>541.0</ele><time>2026-04-18T11:14:43.003Z</time></trkpt><trkpt lat="44.896602614753995" lon="9.516295301590002"><ele>538.5</ele><time>2026-04-18T11:14:44.003Z</time></trkpt><trkpt lat="44.89645514296383" lon="9.516339957553813"><ele>536.0</ele><time>2026-04-18T11:14:45.003Z</time></trkpt><trkpt lat="44.89631556126845" lon="9.51638342684353"><ele>533.5</ele><time>2026-04-18T11:14:46.003Z</time></trkpt><trkpt lat="44.89617533489949" lon="9.516431309168135"><ele>531.0</ele><time>2026-04-18T11:14:47.003Z</time></trkpt><trkpt lat="44.89603741123868" lon="9.516478239563826"><ele>531.75</ele><time>2026-04-18T11:14:48.003Z</time></trkpt><trkpt lat="44.895909614934524" lon="9.516516813928995"><ele>532.5</ele><time>2026-04-18T11:14:49.003Z</time></trkpt><trkpt lat="44.89578284781726" lon="9.516546682870446"><ele>533.25</ele><time>2026-04-18T11:14:50.003Z</time></trkpt><trkpt lat="44.89565021175681" lon="9.51656120677632"><ele>534.0</ele><time>2026-04-18T11:14:51.003Z</time></trkpt><trkpt lat="44.895517566925626" lon="9.516560353838534"><ele>534.0</ele><time>2026-04-18T11:14:52.003Z</time></trkpt><trkpt lat="44.8953795707824" lon="9.516549425782856"><ele>534.0</ele><time>2026-04-18T11:14:53.003Z</time></trkpt><trkpt lat="44.895236567300316" lon="9.516531080557435"><ele>534.0</ele><time>2026-04-18T11:14:54.003Z</time></trkpt><trkpt lat="44.89509740706049" lon="9.516512338031413"><ele>534.0</ele><time>2026-04-18T11:14:55.003Z</time></trkpt><trkpt lat="44.894969406536056" lon="9.516469071700513"><ele>533.5</ele><time>2026-04-18T11:14:56.003Z</time></trkpt><trkpt lat="44.89486562586123" lon="9.51644659133101"><ele>533.0</ele><time>2026-04-18T11:14:57.003Z</time></trkpt><trkpt lat="44.894777884554884" lon="9.51643889856685"><ele>532.5</ele><time>2026-04-18T11:14:58.003Z</time></trkpt><trkpt lat="44.89471530047208" lon="9.516412114465938"><ele>532.0</ele><time>2026-04-18T11:14:59.003Z</time></trkpt><trkpt lat="44.89465417801501" lon="9.516381698886079"><ele>531.5</ele><time>2026-04-18T11:15:02.003Z</time></trkpt><trkpt lat="44.89471733403152" lon="9.516405881924575"><ele>531.0</ele><time>2026-04-18T11:15:13.999Z</time></trkpt><trkpt lat="44.8948244066605" lon="9.516436766411983"><ele>531.0</ele><time>2026-04-18T11:15:15.999Z</time></trkpt><trkpt lat="44.89489646732847" lon="9.51645394272201"><ele>531.0</ele><time>2026-04-18T11:15:16.999Z</time></trkpt><trkpt lat="44.89496713375223" lon="9.516468593389288"><ele>531.0</ele><time>2026-04-18T11:15:17.999Z</time></trkpt><trkpt lat="44.89504805252833" lon="9.516485620730245"><ele>531.0</ele><time>2026-04-18T11:15:18.999Z</time></trkpt><trkpt lat="44.89517839214208" lon="9.516493043471051"><ele>531.0</ele><time>2026-04-18T11:15:19.999Z</time></trkpt><trkpt lat="44.89529897372094" lon="9.516557918312534"><ele>531.6</ele><time>2026-04-18T11:15:21Z</time></trkpt><trkpt lat="44.895397974859925" lon="9.51657378116742"><ele>532.2</ele><time>2026-04-18T11:15:22Z</time></trkpt><trkpt lat="44.895506171122285" lon="9.516578306608135"><ele>532.8</ele><time>2026-04-18T11:15:23Z</time></trkpt><trkpt lat="44.895602726931514" lon="9.516585744035508"><ele>533.4</ele><time>2026-04-18T11:15:24Z</time></trkpt><trkpt lat="44.89571226597808" lon="9.51658770329731"><ele>534.0</ele><time>2026-04-18T11:15:25Z</time></trkpt><trkpt lat="44.895829098730985" lon="9.516574356978825"><ele>533.4</ele><time>2026-04-18T11:15:26Z</time></trkpt><trkpt lat="44.89594179878462" lon="9.516547347454058"><ele>532.8</ele><time>2026-04-18T11:15:27Z</time></trkpt><trkpt lat="44.89605539299946" lon="9.516509815733205"><ele>532.2</ele><time>2026-04-18T11:15:28Z</time></trkpt><trkpt lat="44.89614471371241" lon="9.516480971255955"><ele>531.6</ele><time>2026-04-18T11:15:29Z</time></trkpt><trkpt lat="44.89620811006344" lon="9.516451477171287"><ele>531.0</ele><time>2026-04-18T11:15:30Z</time></trkpt><trkpt lat="44.89625526356982" lon="9.516536900312916"><ele>531.0</ele><time>2026-04-18T11:15:34Z</time></trkpt><trkpt lat="44.8961786082936" lon="9.516662855649605"><ele>531.0</ele><time>2026-04-18T11:15:36Z</time></trkpt><trkpt lat="44.89615134644904" lon="9.51676531525091"><ele>531.0</ele><time>2026-04-18T11:15:37Z</time></trkpt><trkpt lat="44.89612488999167" lon="9.516869787772617"><ele>531.0</ele><time>2026-04-18T11:15:38Z</time></trkpt><trkpt lat="44.89609766444536" lon="9.516978473878028"><ele>531.0</ele><time>2026-04-18T11:15:39Z</time></trkpt><trkpt lat="44.896088535993435" lon="9.517089565218292"><ele>531.0</ele><time>2026-04-18T11:15:40.001Z</time></trkpt><trkpt lat="44.896064050110496" lon="9.517179278707742"><ele>529.8</ele><time>2026-04-18T11:15:41.001Z</time></trkpt><trkpt lat="44.89605444958201" lon="9.517350788425423"><ele>528.6</ele><time>2026-04-18T11:15:43.001Z</time></trkpt><trkpt lat="44.89605600329727" lon="9.517441157405372"><ele>527.4</ele><time>2026-04-18T11:15:44.001Z</time></trkpt><trkpt lat="44.89606433159125" lon="9.517594187007097"><ele>526.2</ele><time>2026-04-18T11:15:46.001Z</time></trkpt><trkpt lat="44.896042156815035" lon="9.51775221462868"><ele>525.0</ele><time>2026-04-18T11:15:48.001Z</time></trkpt><trkpt lat="44.89600225958323" lon="9.517877135121362"><ele>524.3333333333334</ele><time>2026-04-18T11:15:50.001Z</time></trkpt><trkpt lat="44.89592069300236" lon="9.51803161923716"><ele>523.6666666666666</ele><time>2026-04-18T11:15:52.001Z</time></trkpt><trkpt lat="44.8958586465367" lon="9.518090804006226"><ele>523.0</ele><time>2026-04-18T11:15:53.001Z</time></trkpt><trkpt lat="44.895811008763566" lon="9.518163113410852"><ele>522.3333333333333</ele><time>2026-04-18T11:15:54.001Z</time></trkpt><trkpt lat="44.89576395242355" lon="9.51823936194151"><ele>521.6666666666666</ele><time>2026-04-18T11:15:55.001Z</time></trkpt><trkpt lat="44.89571679532466" lon="9.518308083275803"><ele>521.0</ele><time>2026-04-18T11:15:56.001Z</time></trkpt><trkpt lat="44.8956699512871" lon="9.518384441897744"><ele>521.0</ele><time>2026-04-18T11:15:57.001Z</time></trkpt><trkpt lat="44.89562097139783" lon="9.518451683950126"><ele>521.0</ele><time>2026-04-18T11:15:58.001Z</time></trkpt><trkpt lat="44.895506182146725" lon="9.518535842284393"><ele>521.0</ele><time>2026-04-18T11:16:00.001Z</time></trkpt><trkpt lat="44.89543684856254" lon="9.518569306549779"><ele>521.0</ele><time>2026-04-18T11:16:01.001Z</time></trkpt><trkpt lat="44.895376539940905" lon="9.518598183848125"><ele>521.0</ele><time>2026-04-18T11:16:02.001Z</time></trkpt><trkpt lat="44.89530317549663" lon="9.518645628273905"><ele>521.0</ele><time>2026-04-18T11:16:03.001Z</time></trkpt><trkpt lat="44.89518119482189" lon="9.518752862795985"><ele>518.2</ele><time>2026-04-18T11:16:05.001Z</time></trkpt><trkpt lat="44.89509718408338" lon="9.518841073961983"><ele>515.4000000000001</ele><time>2026-04-18T11:16:07.001Z</time></trkpt><trkpt lat="44.894995934009714" lon="9.51888611206561"><ele>512.6</ele><time>2026-04-18T11:16:09.002Z</time></trkpt><trkpt lat="44.89489090346456" lon="9.518860796796593"><ele>509.8</ele><time>2026-04-18T11:16:11.002Z</time></trkpt><trkpt lat="44.89477658778799" lon="9.518810046276789"><ele>507.0</ele><time>2026-04-18T11:16:13.002Z</time></trkpt><trkpt lat="44.89470703339558" lon="9.518796190864242"><ele>507.0</ele><time>2026-04-18T11:16:14.002Z</time></trkpt><trkpt lat="44.894632657091265" lon="9.518753783453588"><ele>507.00000000000006</ele><time>2026-04-18T11:16:15.002Z</time></trkpt><trkpt lat="44.894571874745914" lon="9.518707123881777"><ele>507.00000000000006</ele><time>2026-04-18T11:16:16.002Z</time></trkpt><trkpt lat="44.894505600914144" lon="9.518682613974159"><ele>507.0</ele><time>2026-04-18T11:16:17.002Z</time></trkpt><trkpt lat="44.894387955402" lon="9.518620073825591"><ele>507.0</ele><time>2026-04-18T11:16:19.002Z</time></trkpt><trkpt lat="44.894281706715596" lon="9.518553373515845"><ele>507.0</ele><time>2026-04-18T11:16:21.002Z</time></trkpt><trkpt lat="44.894174061083476" lon="9.518493469929753"><ele>507.00000000000006</ele><time>2026-04-18T11:16:23.002Z</time></trkpt><trkpt lat="44.89407698913339" lon="9.51839483185076"><ele>507.00000000000006</ele><time>2026-04-18T11:16:25.002Z</time></trkpt><trkpt lat="44.89403459722752" lon="9.518315662906888"><ele>507.0</ele><time>2026-04-18T11:16:26.002Z</time></trkpt><trkpt lat="44.89398688912394" lon="9.518223514761743"><ele>507.0</ele><time>2026-04-18T11:16:27.002Z</time></trkpt><trkpt lat="44.89394251368923" lon="9.518146318935129"><ele>507.0</ele><time>2026-04-18T11:16:28.002Z</time></trkpt><trkpt lat="44.89389778483297" lon="9.51806731391227"><ele>507.0</ele><time>2026-04-18T11:16:29.002Z</time></trkpt><trkpt lat="44.89385115903425" lon="9.518006541116167"><ele>507.0</ele><time>2026-04-18T11:16:30.002Z</time></trkpt><trkpt lat="44.893796843768705" lon="9.51795608685941"><ele>507.0</ele><time>2026-04-18T11:16:31.002Z</time></trkpt><trkpt lat="44.89373476089124" lon="9.517920208156205"><ele>507.0</ele><time>2026-04-18T11:16:32.002Z</time></trkpt><trkpt lat="44.89366639414667" lon="9.517896814210049"><ele>507.0</ele><time>2026-04-18T11:16:33.002Z</time></trkpt><trkpt lat="44.89359558821189" lon="9.517900599935464"><ele>507.0</ele><time>2026-04-18T11:16:34.002Z</time></trkpt><trkpt lat="44.89351618807602" lon="9.517924546429004"><ele>507.0</ele><time>2026-04-18T11:16:35.002Z</time></trkpt><trkpt lat="44.89344469564611" lon="9.517970532718934"><ele>507.00000000000006</ele><time>2026-04-18T11:16:36.002Z</time></trkpt><trkpt lat="44.89337403701525" lon="9.518031515125115"><ele>507.00000000000006</ele><time>2026-04-18T11:16:37.002Z</time></trkpt><trkpt lat="44.893306566799914" lon="9.518059661716054"><ele>507.0</ele><time>2026-04-18T11:16:38.002Z</time></trkpt><trkpt lat="44.89320029237239" lon="9.518161214967131"><ele>507.0</ele><time>2026-04-18T11:16:40.002Z</time></trkpt><trkpt lat="44.8930737011783" lon="9.518215159852488"><ele>505.3333333333333</ele><time>2026-04-18T11:16:42.003Z</time></trkpt><trkpt lat="44.89299894731249" lon="9.518242364436523"><ele>503.66666666666663</ele><time>2026-04-18T11:16:43.003Z</time></trkpt><trkpt lat="44.89291674569593" lon="9.518287624884993"><ele>502.0</ele><time>2026-04-18T11:16:44.003Z</time></trkpt><trkpt lat="44.892841569016454" lon="9.518305120932517"><ele>500.3333333333333</ele><time>2026-04-18T11:16:45.003Z</time></trkpt><trkpt lat="44.892753971206645" lon="9.518315287622181"><ele>498.66666666666663</ele><time>2026-04-18T11:16:46.003Z</time></trkpt><trkpt lat="44.89267638254536" lon="9.518344739026691"><ele>497.0</ele><time>2026-04-18T11:16:47.003Z</time></trkpt><trkpt lat="44.89260384763859" lon="9.51837614002451"><ele>495.99999999999994</ele><time>2026-04-18T11:16:48.003Z</time></trkpt><trkpt lat="44.892532673382696" lon="9.518401649033754"><ele>495.0</ele><time>2026-04-18T11:16:49.003Z</time></trkpt><trkpt lat="44.892472069389335" lon="9.518439066615162"><ele>494.0</ele><time>2026-04-18T11:16:50.003Z</time></trkpt><trkpt lat="44.89239362947691" lon="9.51847075144267"><ele>493.0</ele><time>2026-04-18T11:16:51.003Z</time></trkpt><trkpt lat="44.892314328127576" lon="9.518501633291141"><ele>491.99999999999994</ele><time>2026-04-18T11:16:52.003Z</time></trkpt><trkpt lat="44.89224102122575" lon="9.51853617617749"><ele>491.0</ele><time>2026-04-18T11:16:53.003Z</time></trkpt><trkpt lat="44.89216461672504" lon="9.518586601156628"><ele>491.0</ele><time>2026-04-18T11:16:54.003Z</time></trkpt><trkpt lat="44.89209795407753" lon="9.518619977066669"><ele>490.99999999999994</ele><time>2026-04-18T11:16:55.003Z</time></trkpt><trkpt lat="44.8920305419848" lon="9.518659656053245"><ele>491.0</ele><time>2026-04-18T11:16:56.003Z</time></trkpt><trkpt lat="44.89196106116798" lon="9.51868868991284"><ele>491.0</ele><time>2026-04-18T11:16:57.003Z</time></trkpt><trkpt lat="44.891899550816845" lon="9.51871582812435"><ele>490.99999999999994</ele><time>2026-04-18T11:16:58.003Z</time></trkpt><trkpt lat="44.89183957819086" lon="9.518754698313991"><ele>491.0</ele><time>2026-04-18T11:16:59.003Z</time></trkpt><trkpt lat="44.89178253813686" lon="9.518806177931774"><ele>491.0</ele><time>2026-04-18T11:17:00.003Z</time></trkpt><trkpt lat="44.89172371569253" lon="9.518866642103625"><ele>489.4285714285714</ele><time>2026-04-18T11:17:01.003Z</time></trkpt><trkpt lat="44.891660820543485" lon="9.518925046484785"><ele>487.8571428571428</ele><time>2026-04-18T11:17:02.003Z</time></trkpt><trkpt lat="44.89160436639992" lon="9.518970264775309"><ele>486.2857142857143</ele><time>2026-04-18T11:17:03.003Z</time></trkpt><trkpt lat="44.89154651187212" lon="9.519016035013895"><ele>484.71428571428567</ele><time>2026-04-18T11:17:04.003Z</time></trkpt><trkpt lat="44.89148880850024" lon="9.51906333632334"><ele>483.1428571428571</ele><time>2026-04-18T11:17:05.003Z</time></trkpt><trkpt lat="44.89143531075484" lon="9.519122085215498"><ele>481.57142857142856</ele><time>2026-04-18T11:17:06.003Z</time></trkpt><trkpt lat="44.89138278367355" lon="9.519182244786453"><ele>480.0</ele><time>2026-04-18T11:17:07.003Z</time></trkpt><trkpt lat="44.89133817003356" lon="9.519255615776656"><ele>480.0</ele><time>2026-04-18T11:17:08.003Z</time></trkpt><trkpt lat="44.89128817668902" lon="9.519342250263966"><ele>480.0</ele><time>2026-04-18T11:17:09.003Z</time></trkpt><trkpt lat="44.89122529931964" lon="9.519427520703891"><ele>480.0</ele><time>2026-04-18T11:17:09.999Z</time></trkpt><trkpt lat="44.89118770255487" lon="9.519516124844959"><ele>480.0</ele><time>2026-04-18T11:17:10.999Z</time></trkpt><trkpt lat="44.89115976383936" lon="9.519606967009468"><ele>480.0</ele><time>2026-04-18T11:17:11.999Z</time></trkpt><trkpt lat="44.89111114167734" lon="9.519688013714275"><ele>480.0</ele><time>2026-04-18T11:17:12.999Z</time></trkpt><trkpt lat="44.89105115049652" lon="9.519744600963698"><ele>478.5</ele><time>2026-04-18T11:17:13.999Z</time></trkpt><trkpt lat="44.891005539896454" lon="9.519809808134983"><ele>477.0</ele><time>2026-04-18T11:17:14.999Z</time></trkpt><trkpt lat="44.89094127678128" lon="9.519969223784134"><ele>475.5</ele><time>2026-04-18T11:17:16.999Z</time></trkpt><trkpt lat="44.89091527917642" lon="9.520061574596093"><ele>474.0</ele><time>2026-04-18T11:17:17.999Z</time></trkpt><trkpt lat="44.890894614925685" lon="9.5201556321127"><ele>472.5</ele><time>2026-04-18T11:17:18.999Z</time></trkpt><trkpt lat="44.890877781602526" lon="9.520245301392846"><ele>471.0</ele><time>2026-04-18T11:17:19.999Z</time></trkpt><trkpt lat="44.89083883794974" lon="9.520331098729127"><ele>469.00000000000006</ele><time>2026-04-18T11:17:21Z</time></trkpt><trkpt lat="44.890818151872274" lon="9.520428298993764"><ele>467.0</ele><time>2026-04-18T11:17:22Z</time></trkpt><trkpt lat="44.89077282907179" lon="9.520501778053916"><ele>465.00000000000006</ele><time>2026-04-18T11:17:23Z</time></trkpt><trkpt lat="44.890722722378364" lon="9.520573375823968"><ele>463.00000000000006</ele><time>2026-04-18T11:17:24Z</time></trkpt><trkpt lat="44.8906561615324" lon="9.520609344662168"><ele>461.0</ele><time>2026-04-18T11:17:25Z</time></trkpt><trkpt lat="44.890605553241855" lon="9.52067523317098"><ele>459.00000000000006</ele><time>2026-04-18T11:17:26Z</time></trkpt><trkpt lat="44.89054279640174" lon="9.520704536446683"><ele>457.00000000000006</ele><time>2026-04-18T11:17:27Z</time></trkpt><trkpt lat="44.89048152397069" lon="9.520730939659076"><ele>457.00000000000006</ele><time>2026-04-18T11:17:28Z</time></trkpt><trkpt lat="44.89035683837382" lon="9.520759383531104"><ele>457.0</ele><time>2026-04-18T11:17:30Z</time></trkpt><trkpt lat="44.890288512677905" lon="9.52076962598572"><ele>457.0</ele><time>2026-04-18T11:17:31Z</time></trkpt><trkpt lat="44.89021933879078" lon="9.520778065606438"><ele>457.0</ele><time>2026-04-18T11:17:32Z</time></trkpt><trkpt lat="44.8901501465762" lon="9.520789701934046"><ele>457.00000000000006</ele><time>2026-04-18T11:17:33Z</time></trkpt><trkpt lat="44.89007822191783" lon="9.520813249265963"><ele>457.0</ele><time>2026-04-18T11:17:34Z</time></trkpt><trkpt lat="44.890004969902584" lon="9.520849135226607"><ele>457.00000000000006</ele><time>2026-04-18T11:17:35Z</time></trkpt><trkpt lat="44.88993504670445" lon="9.52088496870861"><ele>457.0</ele><time>2026-04-18T11:17:36Z</time></trkpt><trkpt lat="44.88987131194756" lon="9.52091618774769"><ele>457.0</ele><time>2026-04-18T11:17:37Z</time></trkpt><trkpt lat="44.88980384903619" lon="9.52094464272915"><ele>457.0</ele><time>2026-04-18T11:17:38Z</time></trkpt><trkpt lat="44.88974351685132" lon="9.520983750515004"><ele>457.00000000000006</ele><time>2026-04-18T11:17:39Z</time></trkpt><trkpt lat="44.889682394927874" lon="9.521034382700298"><ele>457.0</ele><time>2026-04-18T11:17:40Z</time></trkpt><trkpt lat="44.88958003217268" lon="9.5211239259131"><ele>457.0</ele><time>2026-04-18T11:17:42Z</time></trkpt><trkpt lat="44.88946053853137" lon="9.521172338173814"><ele>457.00000000000006</ele><time>2026-04-18T11:17:44Z</time></trkpt><trkpt lat="44.88934655361907" lon="9.521148372252508"><ele>457.00000000000006</ele><time>2026-04-18T11:17:46.001Z</time></trkpt><trkpt lat="44.88925223750372" lon="9.5210818617601"><ele>457.0</ele><time>2026-04-18T11:17:48.001Z</time></trkpt><trkpt lat="44.88917352101146" lon="9.521067184716962"><ele>457.0</ele><time>2026-04-18T11:17:50.001Z</time></trkpt><trkpt lat="44.889113746013976" lon="9.521169249956255"><ele>453.0</ele><time>2026-04-18T11:17:52.001Z</time></trkpt><trkpt lat="44.889157511836515" lon="9.521332455503531"><ele>449.00000000000006</ele><time>2026-04-18T11:17:54.001Z</time></trkpt><trkpt lat="44.88922368966881" lon="9.521352188580476"><ele>445.00000000000006</ele><time>2026-04-18T11:17:55.001Z</time></trkpt><trkpt lat="44.889301454247615" lon="9.521398402100708"><ele>441.0</ele><time>2026-04-18T11:17:57.001Z</time></trkpt><trkpt lat="44.889394742363784" lon="9.521438574141206"><ele>437.0</ele><time>2026-04-18T11:17:59.001Z</time></trkpt><trkpt lat="44.88949655201001" lon="9.521485240032083"><ele>437.0</ele><time>2026-04-18T11:18:01.001Z</time></trkpt><trkpt lat="44.88960266202863" lon="9.521541276874961"><ele>437.00000000000006</ele><time>2026-04-18T11:18:03.001Z</time></trkpt><trkpt lat="44.88969997536937" lon="9.5216232340536"><ele>437.00000000000006</ele><time>2026-04-18T11:18:05.001Z</time></trkpt><trkpt lat="44.88974800959747" lon="9.52169101863268"><ele>437.0</ele><time>2026-04-18T11:18:06.001Z</time></trkpt><trkpt lat="44.88979987088028" lon="9.521771833684982"><ele>437.0</ele><time>2026-04-18T11:18:07.001Z</time></trkpt><trkpt lat="44.88986359292726" lon="9.521852748910199"><ele>436.99999999999994</ele><time>2026-04-18T11:18:08.001Z</time></trkpt><trkpt lat="44.88990756737006" lon="9.521942859648883"><ele>437.0</ele><time>2026-04-18T11:18:09.001Z</time></trkpt><trkpt lat="44.88995256767725" lon="9.522017571966723"><ele>437.0</ele><time>2026-04-18T11:18:10.001Z</time></trkpt><trkpt lat="44.89001298260993" lon="9.522134422938674"><ele>437.0</ele><time>2026-04-18T11:18:12.001Z</time></trkpt><trkpt lat="44.89012095222272" lon="9.522230231270708"><ele>436.99999999999994</ele><time>2026-04-18T11:18:14.001Z</time></trkpt><trkpt lat="44.890179510125996" lon="9.522280618093985"><ele>437.0</ele><time>2026-04-18T11:18:15.002Z</time></trkpt><trkpt lat="44.890236839436994" lon="9.522326048282236"><ele>434.66666666666663</ele><time>2026-04-18T11:18:16.002Z</time></trkpt><trkpt lat="44.890350968686775" lon="9.522391961637416"><ele>432.3333333333333</ele><time>2026-04-18T11:18:18.002Z</time></trkpt><trkpt lat="44.8904188440755" lon="9.522411440762516"><ele>430.0</ele><time>2026-04-18T11:18:19.002Z</time></trkpt><trkpt lat="44.89048759831555" lon="9.522415524798923"><ele>427.66666666666663</ele><time>2026-04-18T11:18:20.002Z</time></trkpt><trkpt lat="44.89055578839471" lon="9.522417704381501"><ele>425.3333333333333</ele><time>2026-04-18T11:18:21.002Z</time></trkpt><trkpt lat="44.89062414994042" lon="9.522438836789979"><ele>423.0</ele><time>2026-04-18T11:18:22.002Z</time></trkpt><trkpt lat="44.89068839463584" lon="9.522446479745282"><ele>423.0</ele><time>2026-04-18T11:18:23.002Z</time></trkpt><trkpt lat="44.89075852449204" lon="9.52245920925047"><ele>423.0</ele><time>2026-04-18T11:18:24.002Z</time></trkpt><trkpt lat="44.89082347453412" lon="9.52247411459176"><ele>423.0</ele><time>2026-04-18T11:18:25.002Z</time></trkpt><trkpt lat="44.890943052458034" lon="9.52252174934459"><ele>423.0</ele><time>2026-04-18T11:18:27.002Z</time></trkpt><trkpt lat="44.89102352478074" lon="9.522594516357755"><ele>423.0</ele><time>2026-04-18T11:18:29.002Z</time></trkpt><trkpt lat="44.891085785645934" lon="9.522689740276682"><ele>423.0</ele><time>2026-04-18T11:18:31.002Z</time></trkpt><trkpt lat="44.89109869728521" lon="9.522795670254917"><ele>423.0</ele><time>2026-04-18T11:18:33.002Z</time></trkpt><trkpt lat="44.89103268393754" lon="9.52289292624359"><ele>423.0</ele><time>2026-04-18T11:18:36.002Z</time></trkpt><trkpt lat="44.89094276143472" lon="9.522847558392275"><ele>423.0</ele><time>2026-04-18T11:18:38.002Z</time></trkpt><trkpt lat="44.89082559273839" lon="9.52278955964244"><ele>423.0</ele><time>2026-04-18T11:18:40.002Z</time></trkpt><trkpt lat="44.89075858964078" lon="9.52278404900784"><ele>423.0</ele><time>2026-04-18T11:18:41.002Z</time></trkpt><trkpt lat="44.890648783112404" lon="9.522738474873268"><ele>423.0</ele><time>2026-04-18T11:18:43.002Z</time></trkpt><trkpt lat="44.89052951813669" lon="9.522760381377733"><ele>423.0</ele><time>2026-04-18T11:18:45.002Z</time></trkpt><trkpt lat="44.89042659367683" lon="9.522848080441687"><ele>423.0</ele><time>2026-04-18T11:18:47.002Z</time></trkpt><trkpt lat="44.89037406112806" lon="9.52291207603277"><ele>423.0</ele><time>2026-04-18T11:18:48.003Z</time></trkpt><trkpt lat="44.890306225050054" lon="9.522957950953032"><ele>423.0</ele><time>2026-04-18T11:18:49.003Z</time></trkpt><trkpt lat="44.89024787982871" lon="9.523021937962014"><ele>422.2857142857143</ele><time>2026-04-18T11:18:50.003Z</time></trkpt><trkpt lat="44.89019055440111" lon="9.523085156232113"><ele>421.5714285714286</ele><time>2026-04-18T11:18:51.003Z</time></trkpt><trkpt lat="44.89013736103553" lon="9.52313960498711"><ele>420.8571428571429</ele><time>2026-04-18T11:18:52.003Z</time></trkpt><trkpt lat="44.89007968868066" lon="9.523187454944182"><ele>420.1428571428571</ele><time>2026-04-18T11:18:53.003Z</time></trkpt><trkpt lat="44.89001811595405" lon="9.523222756719914"><ele>419.42857142857144</ele><time>2026-04-18T11:18:54.003Z</time></trkpt><trkpt lat="44.88995137552807" lon="9.523261780112065"><ele>418.7142857142857</ele><time>2026-04-18T11:18:55.003Z</time></trkpt><trkpt lat="44.889882607251614" lon="9.523300497804847"><ele>418.0</ele><time>2026-04-18T11:18:56.003Z</time></trkpt><trkpt lat="44.889806268094716" lon="9.523340442786912"><ele>416.1666666666667</ele><time>2026-04-18T11:18:57.003Z</time></trkpt><trkpt lat="44.88974059880601" lon="9.523371481218557"><ele>414.33333333333337</ele><time>2026-04-18T11:18:58.003Z</time></trkpt><trkpt lat="44.88967206412871" lon="9.523398651953872"><ele>412.5</ele><time>2026-04-18T11:18:59.003Z</time></trkpt><trkpt lat="44.889605431971795" lon="9.523417984982736"><ele>410.66666666666663</ele><time>2026-04-18T11:19:00.003Z</time></trkpt><trkpt lat="44.88954061117618" lon="9.523422553986988"><ele>408.8333333333333</ele><time>2026-04-18T11:19:01.003Z</time></trkpt><trkpt lat="44.889403677547975" lon="9.52340714080459"><ele>407.0</ele><time>2026-04-18T11:19:03.003Z</time></trkpt><trkpt lat="44.88932649525525" lon="9.523404882866648"><ele>406.8</ele><time>2026-04-18T11:19:04.003Z</time></trkpt><trkpt lat="44.88924920761705" lon="9.523407094074269"><ele>406.6</ele><time>2026-04-18T11:19:05.003Z</time></trkpt><trkpt lat="44.88917701785371" lon="9.52341846668956"><ele>406.40000000000003</ele><time>2026-04-18T11:19:06.003Z</time></trkpt><trkpt lat="44.889116449250494" lon="9.523455885849788"><ele>406.20000000000005</ele><time>2026-04-18T11:19:07.003Z</time></trkpt><trkpt lat="44.889001823230174" lon="9.52350799826676"><ele>406.0</ele><time>2026-04-18T11:19:09.003Z</time></trkpt><trkpt lat="44.88891128592412" lon="9.52363157898901"><ele>406.00000000000006</ele><time>2026-04-18T11:19:11.003Z</time></trkpt><trkpt lat="44.88887895268679" lon="9.523711852251864"><ele>406.0</ele><time>2026-04-18T11:19:12.003Z</time></trkpt><trkpt lat="44.888831908309875" lon="9.523778346202882"><ele>406.0</ele><time>2026-04-18T11:19:13.003Z</time></trkpt><trkpt lat="44.888731555327304" lon="9.523772875960713"><ele>406.0</ele><time>2026-04-18T11:19:15.003Z</time></trkpt><trkpt lat="44.88864129415218" lon="9.523733904942265"><ele>406.00000000000006</ele><time>2026-04-18T11:19:17Z</time></trkpt><trkpt lat="44.88852320671123" lon="9.523692182469755"><ele>406.0</ele><time>2026-04-18T11:19:19Z</time></trkpt><trkpt lat="44.88842806632386" lon="9.523718689162145"><ele>404.50000000000006</ele><time>2026-04-18T11:19:21Z</time></trkpt><trkpt lat="44.888383145184726" lon="9.52380876609752"><ele>403.0</ele><time>2026-04-18T11:19:22Z</time></trkpt><trkpt lat="44.88837384501971" lon="9.52397723612144"><ele>401.5</ele><time>2026-04-18T11:19:24Z</time></trkpt><trkpt lat="44.88840665641927" lon="9.524119420116437"><ele>400.0</ele><time>2026-04-18T11:19:26Z</time></trkpt><trkpt lat="44.888435775175786" lon="9.524204353873644"><ele>398.50000000000006</ele><time>2026-04-18T11:19:27Z</time></trkpt><trkpt lat="44.88847829772259" lon="9.524286280881334"><ele>397.0</ele><time>2026-04-18T11:19:28Z</time></trkpt><trkpt lat="44.88849904937509" lon="9.5243827160918"><ele>395.40000000000003</ele><time>2026-04-18T11:19:29Z</time></trkpt><trkpt lat="44.88852708561328" lon="9.524523092933341"><ele>393.8</ele><time>2026-04-18T11:19:31Z</time></trkpt><trkpt lat="44.88847865914519" lon="9.52463286854212"><ele>392.2</ele><time>2026-04-18T11:19:34Z</time></trkpt><trkpt lat="44.88839881722582" lon="9.524757544287953"><ele>390.6</ele><time>2026-04-18T11:19:36Z</time></trkpt><trkpt lat="44.88836253165877" lon="9.52493646912557"><ele>389.0</ele><time>2026-04-18T11:19:38Z</time></trkpt><trkpt lat="44.88837904617951" lon="9.525038058652317"><ele>388.99999999999994</ele><time>2026-04-18T11:19:39Z</time></trkpt><trkpt lat="44.888403320806" lon="9.525132514323746"><ele>389.0</ele><time>2026-04-18T11:19:40Z</time></trkpt><trkpt lat="44.88844245820797" lon="9.52522572421081"><ele>389.0</ele><time>2026-04-18T11:19:41Z</time></trkpt><trkpt lat="44.88847832745928" lon="9.525303487162548"><ele>389.0</ele><time>2026-04-18T11:19:42Z</time></trkpt><trkpt lat="44.88853140212069" lon="9.525375777005147"><ele>388.99999999999994</ele><time>2026-04-18T11:19:43Z</time></trkpt><trkpt lat="44.88858640159279" lon="9.525431807679666"><ele>389.0</ele><time>2026-04-18T11:19:44Z</time></trkpt><trkpt lat="44.88867090237802" lon="9.525538196958513"><ele>384.49999999999994</ele><time>2026-04-18T11:19:46Z</time></trkpt><trkpt lat="44.888709554864086" lon="9.525618640795358"><ele>380.0</ele><time>2026-04-18T11:19:48Z</time></trkpt><trkpt lat="44.88868124444888" lon="9.525726092980186"><ele>375.5</ele><time>2026-04-18T11:19:50.001Z</time></trkpt><trkpt lat="44.88865691270262" lon="9.525808241016668"><ele>371.0</ele><time>2026-04-18T11:19:51.001Z</time></trkpt><trkpt lat="44.888595883484314" lon="9.525942693726906"><ele>366.5</ele><time>2026-04-18T11:19:53.001Z</time></trkpt><trkpt lat="44.88851976995347" lon="9.526067622260035"><ele>362.0</ele><time>2026-04-18T11:19:55.001Z</time></trkpt><trkpt lat="44.888496377921555" lon="9.526241390542786"><ele>360.8</ele><time>2026-04-18T11:19:57.001Z</time></trkpt><trkpt lat="44.88852827734543" lon="9.526339558786374"><ele>359.6</ele><time>2026-04-18T11:19:58.001Z</time></trkpt><trkpt lat="44.88859936666645" lon="9.526424819643282"><ele>358.40000000000003</ele><time>2026-04-18T11:19:59.001Z</time></trkpt><trkpt lat="44.88864921511756" lon="9.52657178835064"><ele>357.20000000000005</ele><time>2026-04-18T11:20:01.001Z</time></trkpt><trkpt lat="44.88870405561749" lon="9.526686388551738"><ele>356.0</ele><time>2026-04-18T11:20:03.001Z</time></trkpt><trkpt lat="44.88869519432531" lon="9.526838427572867"><ele>356.0</ele><time>2026-04-18T11:20:05.001Z</time></trkpt><trkpt lat="44.88866497524362" lon="9.526916670131174"><ele>356.0</ele><time>2026-04-18T11:20:06.001Z</time></trkpt><trkpt lat="44.88861246063081" lon="9.526977196079127"><ele>356.0</ele><time>2026-04-18T11:20:07.001Z</time></trkpt><trkpt lat="44.888575391914486" lon="9.52706550297067"><ele>356.0</ele><time>2026-04-18T11:20:08.001Z</time></trkpt><trkpt lat="44.888525925658904" lon="9.527157501281184"><ele>356.0</ele><time>2026-04-18T11:20:09.001Z</time></trkpt><trkpt lat="44.88846393875394" lon="9.527262124259437"><ele>356.0</ele><time>2026-04-18T11:20:10.001Z</time></trkpt><trkpt lat="44.88840913343302" lon="9.527363552865301"><ele>356.5</ele><time>2026-04-18T11:20:11.001Z</time></trkpt><trkpt lat="44.888363713143704" lon="9.527457068214074"><ele>357.0</ele><time>2026-04-18T11:20:12.001Z</time></trkpt><trkpt lat="44.88832115463072" lon="9.52754654618789"><ele>357.5</ele><time>2026-04-18T11:20:13.001Z</time></trkpt><trkpt lat="44.88828122141" lon="9.527640210647911"><ele>358.0</ele><time>2026-04-18T11:20:14.001Z</time></trkpt><trkpt lat="44.88824436334167" lon="9.527746869425624"><ele>358.5</ele><time>2026-04-18T11:20:15.001Z</time></trkpt><trkpt lat="44.88821213058632" lon="9.527850237856239"><ele>359.0</ele><time>2026-04-18T11:20:16.001Z</time></trkpt><trkpt lat="44.888167113626764" lon="9.527957774262449"><ele>359.0</ele><time>2026-04-18T11:20:17.001Z</time></trkpt><trkpt lat="44.88813785930982" lon="9.528051792694386"><ele>359.0</ele><time>2026-04-18T11:20:18.001Z</time></trkpt><trkpt lat="44.88810699519061" lon="9.528152660117778"><ele>359.0</ele><time>2026-04-18T11:20:19.001Z</time></trkpt><trkpt lat="44.88808148962" lon="9.528252735251874"><ele>359.0</ele><time>2026-04-18T11:20:20.002Z</time></trkpt><trkpt lat="44.888023448267404" lon="9.528409206326227"><ele>359.0</ele><time>2026-04-18T11:20:22.002Z</time></trkpt><trkpt lat="44.88794786994928" lon="9.528507179803585"><ele>359.0</ele><time>2026-04-18T11:20:24.002Z</time></trkpt><trkpt lat="44.8878479060248" lon="9.528545456193656"><ele>359.0</ele><time>2026-04-18T11:20:26.002Z</time></trkpt><trkpt lat="44.88772585448214" lon="9.52849660013202"><ele>359.0</ele><time>2026-04-18T11:20:28.002Z</time></trkpt><trkpt lat="44.88765748270779" lon="9.528491120535698"><ele>359.0</ele><time>2026-04-18T11:20:29.002Z</time></trkpt><trkpt lat="44.88757276736791" lon="9.528486758296673"><ele>359.0</ele><time>2026-04-18T11:20:30.002Z</time></trkpt><trkpt lat="44.88749884470295" lon="9.528499038291617"><ele>359.0</ele><time>2026-04-18T11:20:31.002Z</time></trkpt><trkpt lat="44.88739537566695" lon="9.528535559863412"><ele>359.0</ele><time>2026-04-18T11:20:32.002Z</time></trkpt><trkpt lat="44.88730053919883" lon="9.528589231425087"><ele>359.0</ele><time>2026-04-18T11:20:33.002Z</time></trkpt><trkpt lat="44.88721396040987" lon="9.528683269861782"><ele>359.0</ele><time>2026-04-18T11:20:34.002Z</time></trkpt><trkpt lat="44.887118734599206" lon="9.528753385388256"><ele>359.0</ele><time>2026-04-18T11:20:35.002Z</time></trkpt><trkpt lat="44.88702673622278" lon="9.528807489799906"><ele>359.0</ele><time>2026-04-18T11:20:36.002Z</time></trkpt><trkpt lat="44.8869386912887" lon="9.528860846054844"><ele>359.0</ele><time>2026-04-18T11:20:37.002Z</time></trkpt><trkpt lat="44.886865050897434" lon="9.528904436582394"><ele>359.0</ele><time>2026-04-18T11:20:38.002Z</time></trkpt><trkpt lat="44.88678139009191" lon="9.52891613113737"><ele>359.0</ele><time>2026-04-18T11:20:39.002Z</time></trkpt><trkpt lat="44.88670094364121" lon="9.52892848200538"><ele>359.0</ele><time>2026-04-18T11:20:40.002Z</time></trkpt><trkpt lat="44.88661445079619" lon="9.528935867757593"><ele>359.0</ele><time>2026-04-18T11:20:41.002Z</time></trkpt><trkpt lat="44.8865195072189" lon="9.52894593335253"><ele>360.33333333333337</ele><time>2026-04-18T11:20:42.002Z</time></trkpt><trkpt lat="44.88642393197193" lon="9.528940331261795"><ele>361.6666666666667</ele><time>2026-04-18T11:20:43.002Z</time></trkpt><trkpt lat="44.88634289805838" lon="9.528935772456547"><ele>363.0</ele><time>2026-04-18T11:20:44.002Z</time></trkpt><trkpt lat="44.88627088837804" lon="9.528878651152896"><ele>364.3333333333333</ele><time>2026-04-18T11:20:45.002Z</time></trkpt><trkpt lat="44.88620249146157" lon="9.52886032141572"><ele>365.66666666666663</ele><time>2026-04-18T11:20:46.002Z</time></trkpt><trkpt lat="44.88611605876159" lon="9.52887028340237"><ele>367.0</ele><time>2026-04-18T11:20:47.002Z</time></trkpt><trkpt lat="44.886046108116275" lon="9.528859771504608"><ele>367.0</ele><time>2026-04-18T11:20:48.002Z</time></trkpt><trkpt lat="44.88596231747016" lon="9.528844324988574"><ele>367.0</ele><time>2026-04-18T11:20:49.002Z</time></trkpt><trkpt lat="44.8858686973897" lon="9.528858662831633"><ele>367.0</ele><time>2026-04-18T11:20:50.002Z</time></trkpt><trkpt lat="44.88580278329626" lon="9.528866772499425"><ele>367.0</ele><time>2026-04-18T11:20:51.002Z</time></trkpt><trkpt lat="44.885699958660425" lon="9.528896685668617"><ele>367.0</ele><time>2026-04-18T11:20:53.003Z</time></trkpt><trkpt lat="44.885650600709674" lon="9.528965613836998"><ele>367.0</ele><time>2026-04-18T11:20:54.003Z</time></trkpt><trkpt lat="44.88561654784467" lon="9.529062691309251"><ele>366.8333333333333</ele><time>2026-04-18T11:20:55.003Z</time></trkpt><trkpt lat="44.88563894784685" lon="9.52918203170383"><ele>366.66666666666663</ele><time>2026-04-18T11:20:56.003Z</time></trkpt><trkpt lat="44.885617273822305" lon="9.529280634184623"><ele>366.5</ele><time>2026-04-18T11:20:57.003Z</time></trkpt><trkpt lat="44.88560591449117" lon="9.52938379656684"><ele>366.3333333333333</ele><time>2026-04-18T11:20:58.003Z</time></trkpt><trkpt lat="44.885586698671815" lon="9.529478935521704"><ele>366.1666666666667</ele><time>2026-04-18T11:20:59.003Z</time></trkpt><trkpt lat="44.88555234354792" lon="9.529566919094261"><ele>366.0</ele><time>2026-04-18T11:21:00.003Z</time></trkpt><trkpt lat="44.88550077211649" lon="9.529654852566718"><ele>366.0</ele><time>2026-04-18T11:21:01.003Z</time></trkpt><trkpt lat="44.88545187950919" lon="9.52973437880381"><ele>366.0</ele><time>2026-04-18T11:21:02.003Z</time></trkpt><trkpt lat="44.88539840389792" lon="9.529814157026482"><ele>366.0</ele><time>2026-04-18T11:21:03.003Z</time></trkpt><trkpt lat="44.885336722640176" lon="9.529896966956366"><ele>366.0</ele><time>2026-04-18T11:21:04.003Z</time></trkpt><trkpt lat="44.88527323487414" lon="9.529971450671626"><ele>366.0</ele><time>2026-04-18T11:21:05.003Z</time></trkpt><trkpt lat="44.8852087446716" lon="9.53003009307193"><ele>366.0</ele><time>2026-04-18T11:21:06.003Z</time></trkpt><trkpt lat="44.88514564352052" lon="9.530065952342321"><ele>369.8</ele><time>2026-04-18T11:21:07.003Z</time></trkpt><trkpt lat="44.885069659031565" lon="9.530111055290226"><ele>373.6</ele><time>2026-04-18T11:21:08.003Z</time></trkpt><trkpt lat="44.88499779131943" lon="9.530146325277283"><ele>377.4</ele><time>2026-04-18T11:21:09.003Z</time></trkpt><trkpt lat="44.88491857185932" lon="9.530198435359535"><ele>381.2</ele><time>2026-04-18T11:21:10.003Z</time></trkpt><trkpt lat="44.884831658107906" lon="9.53019588937644"><ele>385.0</ele><time>2026-04-18T11:21:11.003Z</time></trkpt><trkpt lat="44.88469244646292" lon="9.530226654468512"><ele>385.0</ele><time>2026-04-18T11:21:13.003Z</time></trkpt><trkpt lat="44.88459988851188" lon="9.530226674743785"><ele>385.0</ele><time>2026-04-18T11:21:14.003Z</time></trkpt><trkpt lat="44.88450579959007" lon="9.530237716336691"><ele>385.0</ele><time>2026-04-18T11:21:15.003Z</time></trkpt><trkpt lat="44.884430501685564" lon="9.530223760564864"><ele>385.0</ele><time>2026-04-18T11:21:16.003Z</time></trkpt><trkpt lat="44.88430520803748" lon="9.530238517570053"><ele>385.0</ele><time>2026-04-18T11:21:17.003Z</time></trkpt><trkpt lat="44.88422083919842" lon="9.530244063031658"><ele>386.33333333333337</ele><time>2026-04-18T11:21:18.003Z</time></trkpt><trkpt lat="44.88413574034954" lon="9.530258862826168"><ele>387.6666666666667</ele><time>2026-04-18T11:21:19.003Z</time></trkpt><trkpt lat="44.88405106641366" lon="9.530254099354869"><ele>389.0</ele><time>2026-04-18T11:21:20.003Z</time></trkpt><trkpt lat="44.88396626497502" lon="9.530299222307656"><ele>390.33333333333337</ele><time>2026-04-18T11:21:21.003Z</time></trkpt><trkpt lat="44.883884711133085" lon="9.530343688583736"><ele>391.6666666666667</ele><time>2026-04-18T11:21:22Z</time></trkpt><trkpt lat="44.883800785721185" lon="9.530344846360205"><ele>393.0</ele><time>2026-04-18T11:21:23Z</time></trkpt><trkpt lat="44.88370229821624" lon="9.530352639637579"><ele>393.0</ele><time>2026-04-18T11:21:24Z</time></trkpt><trkpt lat="44.88360747951527" lon="9.530368001700737"><ele>393.0</ele><time>2026-04-18T11:21:25Z</time></trkpt><trkpt lat="44.883511848446375" lon="9.530385223699488"><ele>393.0</ele><time>2026-04-18T11:21:26Z</time></trkpt><trkpt lat="44.88342912878623" lon="9.530395532385416"><ele>393.0</ele><time>2026-04-18T11:21:27Z</time></trkpt><trkpt lat="44.88335148884012" lon="9.530401943760321"><ele>393.0</ele><time>2026-04-18T11:21:28Z</time></trkpt><trkpt lat="44.88327619571617" lon="9.530410777293394"><ele>393.0</ele><time>2026-04-18T11:21:29Z</time></trkpt><trkpt lat="44.88320434569127" lon="9.53040849796357"><ele>392.79999999999995</ele><time>2026-04-18T11:21:30Z</time></trkpt><trkpt lat="44.8831271281091" lon="9.530399248309795"><ele>392.6</ele><time>2026-04-18T11:21:31Z</time></trkpt><trkpt lat="44.88303675462035" lon="9.530363867172888"><ele>392.4</ele><time>2026-04-18T11:21:32Z</time></trkpt><trkpt lat="44.882939243780754" lon="9.530351901873031"><ele>392.20000000000005</ele><time>2026-04-18T11:21:33Z</time></trkpt><trkpt lat="44.88284251660787" lon="9.530339323019604"><ele>392.0</ele><time>2026-04-18T11:21:34Z</time></trkpt><trkpt lat="44.88274894481446" lon="9.530334528403097"><ele>391.99999999999994</ele><time>2026-04-18T11:21:35Z</time></trkpt><trkpt lat="44.882664992554574" lon="9.53032871499846"><ele>392.0</ele><time>2026-04-18T11:21:36Z</time></trkpt><trkpt lat="44.88257189103823" lon="9.530342291590715"><ele>392.0</ele><time>2026-04-18T11:21:37Z</time></trkpt><trkpt lat="44.88248439314045" lon="9.530366128106262"><ele>392.0</ele><time>2026-04-18T11:21:38Z</time></trkpt><trkpt lat="44.88239567316867" lon="9.530400804681927"><ele>391.99999999999994</ele><time>2026-04-18T11:21:39Z</time></trkpt><trkpt lat="44.88230969468096" lon="9.530439128800396"><ele>392.0</ele><time>2026-04-18T11:21:40Z</time></trkpt><trkpt lat="44.88221998208019" lon="9.530460958537516"><ele>390.8333333333333</ele><time>2026-04-18T11:21:41Z</time></trkpt><trkpt lat="44.88214901774534" lon="9.530523890338628"><ele>389.66666666666663</ele><time>2026-04-18T11:21:42Z</time></trkpt><trkpt lat="44.882076538315175" lon="9.530557386047985"><ele>388.5</ele><time>2026-04-18T11:21:43Z</time></trkpt><trkpt lat="44.882021747043694" lon="9.530631333798024"><ele>387.33333333333337</ele><time>2026-04-18T11:21:44Z</time></trkpt><trkpt lat="44.881989251128104" lon="9.530733341468427"><ele>386.1666666666667</ele><time>2026-04-18T11:21:45Z</time></trkpt><trkpt lat="44.88196129112187" lon="9.53082800651969"><ele>385.0</ele><time>2026-04-18T11:21:46Z</time></trkpt><trkpt lat="44.88195769374225" lon="9.53093202107826"><ele>385.0</ele><time>2026-04-18T11:21:47Z</time></trkpt><trkpt lat="44.88195734961558" lon="9.531029166952523"><ele>385.0</ele><time>2026-04-18T11:21:48Z</time></trkpt><trkpt lat="44.88189808849688" lon="9.531175158850617"><ele>385.0</ele><time>2026-04-18T11:21:50Z</time></trkpt><trkpt lat="44.88182563633928" lon="9.5312007639496"><ele>385.0</ele><time>2026-04-18T11:21:51Z</time></trkpt><trkpt lat="44.88176218670143" lon="9.531360954992735"><ele>385.0</ele><time>2026-04-18T11:21:53Z</time></trkpt><trkpt lat="44.881697123940995" lon="9.531486392600385"><ele>385.6</ele><time>2026-04-18T11:21:55.001Z</time></trkpt><trkpt lat="44.88162503605099" lon="9.531539364225228"><ele>386.2</ele><time>2026-04-18T11:21:58.001Z</time></trkpt><trkpt lat="44.88152706811345" lon="9.531466738245737"><ele>386.79999999999995</ele><time>2026-04-18T11:22:00.001Z</time></trkpt><trkpt lat="44.881462034839025" lon="9.531410842597728"><ele>387.4</ele><time>2026-04-18T11:22:12.001Z</time></trkpt><trkpt lat="44.881347264830055" lon="9.531544550598463"><ele>388.0</ele><time>2026-04-18T11:22:17.001Z</time></trkpt><trkpt lat="44.8813435710426" lon="9.531672428447758"><ele>388.0</ele><time>2026-04-18T11:22:19.001Z</time></trkpt><trkpt lat="44.88135119902246" lon="9.531780908276758"><ele>388.0</ele><time>2026-04-18T11:22:21.001Z</time></trkpt><trkpt lat="44.881354831920206" lon="9.531885995387135"><ele>388.0</ele><time>2026-04-18T11:22:24.001Z</time></trkpt><trkpt lat="44.88136071895673" lon="9.53197666420138"><ele>388.0</ele><time>2026-04-18T11:22:26.002Z</time></trkpt><trkpt lat="44.88134836832016" lon="9.532077848239002"><ele>388.0</ele><time>2026-04-18T11:22:29.002Z</time></trkpt><trkpt lat="44.881330456390764" lon="9.532164412449033"><ele>388.0</ele><time>2026-04-18T11:22:32.002Z</time></trkpt><trkpt lat="44.88136095147717" lon="9.532056637952039"><ele>388.0</ele><time>2026-04-18T11:22:42.002Z</time></trkpt><trkpt lat="44.88137264359948" lon="9.531930128931226"><ele>388.0</ele><time>2026-04-18T11:22:44.002Z</time></trkpt><trkpt lat="44.88134880209931" lon="9.531796885991543"><ele>388.0</ele><time>2026-04-18T11:22:45.002Z</time></trkpt><trkpt lat="44.88133981907997" lon="9.531645755672189"><ele>388.0</ele><time>2026-04-18T11:22:47.002Z</time></trkpt><trkpt lat="44.88136462402598" lon="9.531531311699496"><ele>388.0</ele><time>2026-04-18T11:22:49.002Z</time></trkpt><trkpt lat="44.88141695594548" lon="9.531421774704324"><ele>388.0</ele><time>2026-04-18T11:22:51.002Z</time></trkpt><trkpt lat="44.88146705660715" lon="9.531314962227231"><ele>389.33333333333337</ele><time>2026-04-18T11:22:53.002Z</time></trkpt><trkpt lat="44.88152853156623" lon="9.531216354744975"><ele>390.6666666666667</ele><time>2026-04-18T11:22:55.002Z</time></trkpt><trkpt lat="44.88159830263655" lon="9.53110443976658"><ele>392.0</ele><time>2026-04-18T11:22:57.002Z</time></trkpt><trkpt lat="44.88166255672736" lon="9.531001374194075"><ele>393.33333333333337</ele><time>2026-04-18T11:22:59.003Z</time></trkpt><trkpt lat="44.8817162306847" lon="9.53094512169907"><ele>394.6666666666667</ele><time>2026-04-18T11:23:00.003Z</time></trkpt><trkpt lat="44.881745879848026" lon="9.530845175708585"><ele>396.0</ele><time>2026-04-18T11:23:01.003Z</time></trkpt><trkpt lat="44.88176102718205" lon="9.530673019509608"><ele>396.0</ele><time>2026-04-18T11:23:03.003Z</time></trkpt><trkpt lat="44.88175288749708" lon="9.530497272532997"><ele>396.0</ele><time>2026-04-18T11:23:05.003Z</time></trkpt><trkpt lat="44.881790709157855" lon="9.530403765229517"><ele>396.0</ele><time>2026-04-18T11:23:06.003Z</time></trkpt><trkpt lat="44.881807771750644" lon="9.530314966450105"><ele>396.0</ele><time>2026-04-18T11:23:07.003Z</time></trkpt><trkpt lat="44.88184696866212" lon="9.530209671118577"><ele>396.0</ele><time>2026-04-18T11:23:08.003Z</time></trkpt><trkpt lat="44.88190157513012" lon="9.530101963164944"><ele>396.0</ele><time>2026-04-18T11:23:09.003Z</time></trkpt><trkpt lat="44.8819574391744" lon="9.529990484751595"><ele>396.4</ele><time>2026-04-18T11:23:10.003Z</time></trkpt><trkpt lat="44.88201645149219" lon="9.529875532198655"><ele>396.8</ele><time>2026-04-18T11:23:11.003Z</time></trkpt><trkpt lat="44.88207121917162" lon="9.529762681379914"><ele>397.2</ele><time>2026-04-18T11:23:12.003Z</time></trkpt><trkpt lat="44.8821329397809" lon="9.529653687873418"><ele>397.59999999999997</ele><time>2026-04-18T11:23:13.003Z</time></trkpt><trkpt lat="44.88218018452349" lon="9.529494305468141"><ele>398.0</ele><time>2026-04-18T11:23:14.003Z</time></trkpt><trkpt lat="44.88223098029814" lon="9.529344824536201"><ele>401.2</ele><time>2026-04-18T11:23:15.003Z</time></trkpt><trkpt lat="44.8822823239254" lon="9.529199601674634"><ele>404.4</ele><time>2026-04-18T11:23:16.003Z</time></trkpt><trkpt lat="44.882340113414756" lon="9.529069782091648"><ele>407.59999999999997</ele><time>2026-04-18T11:23:17.003Z</time></trkpt><trkpt lat="44.88240891631921" lon="9.528962837410274"><ele>410.79999999999995</ele><time>2026-04-18T11:23:18.003Z</time></trkpt><trkpt lat="44.88248534221043" lon="9.528873207163803"><ele>414.0</ele><time>2026-04-18T11:23:19.003Z</time></trkpt><trkpt lat="44.88257770452722" lon="9.528810435098425"><ele>413.4</ele><time>2026-04-18T11:23:20.003Z</time></trkpt><trkpt lat="44.882652358593376" lon="9.528735752992828"><ele>412.79999999999995</ele><time>2026-04-18T11:23:21.003Z</time></trkpt><trkpt lat="44.8827137544475" lon="9.528639471734984"><ele>412.20000000000005</ele><time>2026-04-18T11:23:22.003Z</time></trkpt><trkpt lat="44.8827564359293" lon="9.528525355567261"><ele>411.6</ele><time>2026-04-18T11:23:23.003Z</time></trkpt><trkpt lat="44.882812337155606" lon="9.528424331190433"><ele>411.0</ele><time>2026-04-18T11:23:24.003Z</time></trkpt><trkpt lat="44.88286996298352" lon="9.52830815731931"><ele>414.4</ele><time>2026-04-18T11:23:25.003Z</time></trkpt><trkpt lat="44.88293078551384" lon="9.528192101518162"><ele>417.8</ele><time>2026-04-18T11:23:26.003Z</time></trkpt><trkpt lat="44.88299225687059" lon="9.52807957726446"><ele>421.19999999999993</ele><time>2026-04-18T11:23:27.003Z</time></trkpt><trkpt lat="44.88305120674529" lon="9.527954138768402"><ele>424.59999999999997</ele><time>2026-04-18T11:23:28Z</time></trkpt><trkpt lat="44.883121541450464" lon="9.52784729248191"><ele>428.0</ele><time>2026-04-18T11:23:29Z</time></trkpt><trkpt lat="44.883190914939185" lon="9.527755285274308"><ele>428.99999999999994</ele><time>2026-04-18T11:23:30Z</time></trkpt><trkpt lat="44.88327679163279" lon="9.52768073095986"><ele>430.0</ele><time>2026-04-18T11:23:31Z</time></trkpt><trkpt lat="44.883342912480096" lon="9.527583620205334"><ele>431.0</ele><time>2026-04-18T11:23:32Z</time></trkpt><trkpt lat="44.88342700758428" lon="9.52752326929244"><ele>432.0</ele><time>2026-04-18T11:23:33Z</time></trkpt><trkpt lat="44.883480399417856" lon="9.527445911013114"><ele>432.99999999999994</ele><time>2026-04-18T11:23:34Z</time></trkpt><trkpt lat="44.88354309288218" lon="9.527400910185627"><ele>434.0</ele><time>2026-04-18T11:23:35Z</time></trkpt><trkpt lat="44.8835982793743" lon="9.527338267259903"><ele>433.99999999999994</ele><time>2026-04-18T11:23:36Z</time></trkpt><trkpt lat="44.8836555199057" lon="9.527202048283469"><ele>434.0</ele><time>2026-04-18T11:23:38Z</time></trkpt><trkpt lat="44.883665309485046" lon="9.527110637823963"><ele>434.0</ele><time>2026-04-18T11:23:39Z</time></trkpt><trkpt lat="44.88366478720725" lon="9.52700182904782"><ele>434.0</ele><time>2026-04-18T11:23:40Z</time></trkpt><trkpt lat="44.883658097190676" lon="9.52688010830072"><ele>433.99999999999994</ele><time>2026-04-18T11:23:41Z</time></trkpt><trkpt lat="44.883657964926456" lon="9.5267538203864"><ele>434.0</ele><time>2026-04-18T11:23:42Z</time></trkpt><trkpt lat="44.88368567696793" lon="9.526621633477138"><ele>434.79999999999995</ele><time>2026-04-18T11:23:43Z</time></trkpt><trkpt lat="44.88371870603026" lon="9.526496525735114"><ele>435.59999999999997</ele><time>2026-04-18T11:23:44Z</time></trkpt><trkpt lat="44.88376390047503" lon="9.526364445373558"><ele>436.4</ele><time>2026-04-18T11:23:45Z</time></trkpt><trkpt lat="44.88379733436717" lon="9.52623288534601"><ele>437.2</ele><time>2026-04-18T11:23:46Z</time></trkpt><trkpt lat="44.88385625701354" lon="9.526129240210697"><ele>438.0</ele><time>2026-04-18T11:23:47Z</time></trkpt><trkpt lat="44.88391555667848" lon="9.52602880068087"><ele>440.79999999999995</ele><time>2026-04-18T11:23:48Z</time></trkpt><trkpt lat="44.88398270598373" lon="9.525923013529138"><ele>443.59999999999997</ele><time>2026-04-18T11:23:49Z</time></trkpt><trkpt lat="44.88406343843147" lon="9.525842678348004"><ele>446.40000000000003</ele><time>2026-04-18T11:23:50Z</time></trkpt><trkpt lat="44.88413333804313" lon="9.525756527301606"><ele>449.20000000000005</ele><time>2026-04-18T11:23:51Z</time></trkpt><trkpt lat="44.88420317993861" lon="9.525663821107807"><ele>452.0</ele><time>2026-04-18T11:23:52Z</time></trkpt><trkpt lat="44.884246867826185" lon="9.525562562416765"><ele>450.8333333333333</ele><time>2026-04-18T11:23:53Z</time></trkpt><trkpt lat="44.88430456669734" lon="9.52548134897429"><ele>449.66666666666663</ele><time>2026-04-18T11:23:54Z</time></trkpt><trkpt lat="44.8843404954158" lon="9.525381676147362"><ele>448.5</ele><time>2026-04-18T11:23:55Z</time></trkpt><trkpt lat="44.88435118201394" lon="9.525273116026156"><ele>447.33333333333337</ele><time>2026-04-18T11:23:56Z</time></trkpt><trkpt lat="44.88436605263403" lon="9.525177277307911"><ele>446.1666666666667</ele><time>2026-04-18T11:23:57Z</time></trkpt><trkpt lat="44.8843745326625" lon="9.525074395829341"><ele>445.0</ele><time>2026-04-18T11:23:58.001Z</time></trkpt><trkpt lat="44.88436862549154" lon="9.524971087205808"><ele>447.33333333333337</ele><time>2026-04-18T11:23:59.001Z</time></trkpt><trkpt lat="44.884390751892184" lon="9.524860122566492"><ele>449.6666666666667</ele><time>2026-04-18T11:24:00.001Z</time></trkpt><trkpt lat="44.884399327274586" lon="9.524761130288653"><ele>452.0</ele><time>2026-04-18T11:24:01.001Z</time></trkpt><trkpt lat="44.88445980011579" lon="9.52467004045841"><ele>454.33333333333337</ele><time>2026-04-18T11:24:02.001Z</time></trkpt><trkpt lat="44.88450695605965" lon="9.524569225957109"><ele>456.6666666666667</ele><time>2026-04-18T11:24:03.001Z</time></trkpt><trkpt lat="44.88455560735097" lon="9.524462469723709"><ele>459.0</ele><time>2026-04-18T11:24:04.001Z</time></trkpt><trkpt lat="44.88459962312496" lon="9.524345082042432"><ele>460.6</ele><time>2026-04-18T11:24:05.001Z</time></trkpt><trkpt lat="44.884650508217646" lon="9.524219088186904"><ele>462.2</ele><time>2026-04-18T11:24:06.001Z</time></trkpt><trkpt lat="44.88469727349708" lon="9.524096010925424"><ele>463.80000000000007</ele><time>2026-04-18T11:24:07.001Z</time></trkpt><trkpt lat="44.88473992557887" lon="9.523972804794788"><ele>465.40000000000003</ele><time>2026-04-18T11:24:08.001Z</time></trkpt><trkpt lat="44.88478418582662" lon="9.523860384744387"><ele>467.0</ele><time>2026-04-18T11:24:09.001Z</time></trkpt><trkpt lat="44.88483468696664" lon="9.523765301076288"><ele>468.20000000000005</ele><time>2026-04-18T11:24:10.001Z</time></trkpt><trkpt lat="44.884888330581994" lon="9.523673209851513"><ele>469.40000000000003</ele><time>2026-04-18T11:24:11.001Z</time></trkpt><trkpt lat="44.884941784476496" lon="9.52357540975316"><ele>470.59999999999997</ele><time>2026-04-18T11:24:12.001Z</time></trkpt><trkpt lat="44.88499227418683" lon="9.523455944806512"><ele>471.79999999999995</ele><time>2026-04-18T11:24:13.001Z</time></trkpt><trkpt lat="44.88503355217862" lon="9.523318153831207"><ele>473.0</ele><time>2026-04-18T11:24:14.001Z</time></trkpt><trkpt lat="44.88507867624084" lon="9.523172026911405"><ele>472.59999999999997</ele><time>2026-04-18T11:24:15.001Z</time></trkpt><trkpt lat="44.885130746591344" lon="9.523034195176004"><ele>472.19999999999993</ele><time>2026-04-18T11:24:16.001Z</time></trkpt><trkpt lat="44.88519163356973" lon="9.522899974580232"><ele>471.8</ele><time>2026-04-18T11:24:17.001Z</time></trkpt><trkpt lat="44.88525482287454" lon="9.52276425159028"><ele>471.4</ele><time>2026-04-18T11:24:18.001Z</time></trkpt><trkpt lat="44.885317655402446" lon="9.522635704138798"><ele>471.0</ele><time>2026-04-18T11:24:19.001Z</time></trkpt><trkpt lat="44.8853803233286" lon="9.522510113494135"><ele>471.0</ele><time>2026-04-18T11:24:20.001Z</time></trkpt><trkpt lat="44.88543982927348" lon="9.522391630985666"><ele>471.0</ele><time>2026-04-18T11:24:21.001Z</time></trkpt><trkpt lat="44.885501232155384" lon="9.522292122138474"><ele>471.0</ele><time>2026-04-18T11:24:22.001Z</time></trkpt><trkpt lat="44.88553975523871" lon="9.522194270249058"><ele>471.0</ele><time>2026-04-18T11:24:23.001Z</time></trkpt><trkpt lat="44.88557510093607" lon="9.522106532230241"><ele>471.0</ele><time>2026-04-18T11:24:24.001Z</time></trkpt><trkpt lat="44.88559830028508" lon="9.522023652113932"><ele>471.0</ele><time>2026-04-18T11:24:25.001Z</time></trkpt><trkpt lat="44.88560986039496" lon="9.521928589455205"><ele>472.8333333333333</ele><time>2026-04-18T11:24:26.001Z</time></trkpt><trkpt lat="44.88560056545636" lon="9.521829366494416"><ele>474.66666666666663</ele><time>2026-04-18T11:24:27.001Z</time></trkpt><trkpt lat="44.88557572841401" lon="9.521725957760035"><ele>476.5</ele><time>2026-04-18T11:24:28.001Z</time></trkpt><trkpt lat="44.885544425403175" lon="9.52162199057668"><ele>478.3333333333333</ele><time>2026-04-18T11:24:29.001Z</time></trkpt><trkpt lat="44.885532833026694" lon="9.521498644935319"><ele>480.16666666666663</ele><time>2026-04-18T11:24:30.001Z</time></trkpt><trkpt lat="44.88552677184714" lon="9.521369548216107"><ele>482.0</ele><time>2026-04-18T11:24:31.001Z</time></trkpt><trkpt lat="44.88553447577928" lon="9.521259604734103"><ele>484.20000000000005</ele><time>2026-04-18T11:24:32.001Z</time></trkpt><trkpt lat="44.88554248447837" lon="9.521116222704844"><ele>486.40000000000003</ele><time>2026-04-18T11:24:33.002Z</time></trkpt><trkpt lat="44.885546996080464" lon="9.52097868705203"><ele>488.59999999999997</ele><time>2026-04-18T11:24:34.002Z</time></trkpt><trkpt lat="44.885538342676064" lon="9.520845001888036"><ele>490.79999999999995</ele><time>2026-04-18T11:24:35.002Z</time></trkpt><trkpt lat="44.885550937967636" lon="9.52072821732511"><ele>493.0</ele><time>2026-04-18T11:24:36.002Z</time></trkpt><trkpt lat="44.88556657383481" lon="9.520604098294484"><ele>493.00000000000006</ele><time>2026-04-18T11:24:37.002Z</time></trkpt><trkpt lat="44.88560561676893" lon="9.520478806455735"><ele>493.0</ele><time>2026-04-18T11:24:38.002Z</time></trkpt><trkpt lat="44.885629139330455" lon="9.520384289950927"><ele>493.0</ele><time>2026-04-18T11:24:39.002Z</time></trkpt><trkpt lat="44.88565615491666" lon="9.520294590722232"><ele>493.0</ele><time>2026-04-18T11:24:40.002Z</time></trkpt><trkpt lat="44.885689009567486" lon="9.520128465921452"><ele>493.00000000000006</ele><time>2026-04-18T11:24:42.002Z</time></trkpt><trkpt lat="44.88566999501029" lon="9.520034273693716"><ele>493.0</ele><time>2026-04-18T11:24:43.002Z</time></trkpt><trkpt lat="44.885608914152584" lon="9.519881989842514"><ele>494.83333333333337</ele><time>2026-04-18T11:24:45.002Z</time></trkpt><trkpt lat="44.88554925422518" lon="9.51982257113755"><ele>496.6666666666667</ele><time>2026-04-18T11:24:46.002Z</time></trkpt><trkpt lat="44.885492084631146" lon="9.51976556787498"><ele>498.5</ele><time>2026-04-18T11:24:47.002Z</time></trkpt><trkpt lat="44.88544240417087" lon="9.519683017835769"><ele>500.33333333333337</ele><time>2026-04-18T11:24:48.002Z</time></trkpt><trkpt lat="44.885359225947" lon="9.519591858106446"><ele>502.1666666666667</ele><time>2026-04-18T11:24:50.002Z</time></trkpt><trkpt lat="44.8853586263338" lon="9.519495759002925"><ele>504.0</ele><time>2026-04-18T11:24:52.002Z</time></trkpt><trkpt lat="44.88544925613693" lon="9.51943619150396"><ele>506.79999999999995</ele><time>2026-04-18T11:24:55.002Z</time></trkpt><trkpt lat="44.88555407425059" lon="9.519357250572781"><ele>509.59999999999997</ele><time>2026-04-18T11:24:57.002Z</time></trkpt><trkpt lat="44.885613355546724" lon="9.519262849034941"><ele>512.4</ele><time>2026-04-18T11:24:59.002Z</time></trkpt><trkpt lat="44.88562266380537" lon="9.519128672888062"><ele>515.1999999999999</ele><time>2026-04-18T11:25:01.002Z</time></trkpt><trkpt lat="44.88560329300938" lon="9.518960983838076"><ele>518.0</ele><time>2026-04-18T11:25:03.002Z</time></trkpt><trkpt lat="44.88557958567629" lon="9.518875297858347"><ele>518.0</ele><time>2026-04-18T11:25:04.002Z</time></trkpt><trkpt lat="44.885544977063404" lon="9.518784387380084"><ele>518.0</ele><time>2026-04-18T11:25:05.002Z</time></trkpt><trkpt lat="44.885507747522496" lon="9.518685309578244"><ele>518.0</ele><time>2026-04-18T11:25:06.002Z</time></trkpt><trkpt lat="44.88546714556053" lon="9.518595902669093"><ele>518.0</ele><time>2026-04-18T11:25:07.003Z</time></trkpt><trkpt lat="44.885430011922814" lon="9.518506469775524"><ele>518.0</ele><time>2026-04-18T11:25:08.003Z</time></trkpt><trkpt lat="44.88541642925883" lon="9.518395807462767"><ele>518.0</ele><time>2026-04-18T11:25:09.003Z</time></trkpt><trkpt lat="44.885396697530076" lon="9.518293902423373"><ele>520.0</ele><time>2026-04-18T11:25:10.003Z</time></trkpt><trkpt lat="44.885376392324645" lon="9.518179074030439"><ele>522.0</ele><time>2026-04-18T11:25:11.003Z</time></trkpt><trkpt lat="44.88535779961102" lon="9.518076018590342"><ele>524.0</ele><time>2026-04-18T11:25:12.003Z</time></trkpt><trkpt lat="44.885339496434106" lon="9.517981945086113"><ele>526.0</ele><time>2026-04-18T11:25:13.003Z</time></trkpt><trkpt lat="44.88531332887191" lon="9.517822663007514"><ele>528.0</ele><time>2026-04-18T11:25:15.003Z</time></trkpt><trkpt lat="44.88531666300138" lon="9.517652795977382"><ele>530.0</ele><time>2026-04-18T11:25:17.003Z</time></trkpt><trkpt lat="44.88532300878066" lon="9.517543650603603"><ele>532.0</ele><time>2026-04-18T11:25:18.003Z</time></trkpt><trkpt lat="44.8853221113802" lon="9.517442790996935"><ele>534.0</ele><time>2026-04-18T11:25:19.003Z</time></trkpt><trkpt lat="44.88531954581532" lon="9.517290477685673"><ele>536.0</ele><time>2026-04-18T11:25:21.003Z</time></trkpt><trkpt lat="44.88536761403882" lon="9.51719935987614"><ele>538.0</ele><time>2026-04-18T11:25:23.003Z</time></trkpt><trkpt lat="44.88546379830391" lon="9.517102540071512"><ele>539.5</ele><time>2026-04-18T11:25:25.003Z</time></trkpt><trkpt lat="44.88551937166613" lon="9.517054160962738"><ele>541.0</ele><time>2026-04-18T11:25:26.003Z</time></trkpt><trkpt lat="44.88560517449677" lon="9.516911596298142"><ele>542.5</ele><time>2026-04-18T11:25:28.003Z</time></trkpt><trkpt lat="44.8856195099997" lon="9.51680507018091"><ele>544.0</ele><time>2026-04-18T11:25:29.003Z</time></trkpt><trkpt lat="44.88563092837993" lon="9.516704505351955"><ele>545.5</ele><time>2026-04-18T11:25:30.003Z</time></trkpt><trkpt lat="44.88564944452645" lon="9.516595068212812"><ele>547.0</ele><time>2026-04-18T11:25:31.003Z</time></trkpt><trkpt lat="44.885676450558634" lon="9.516495554495421"><ele>547.0</ele><time>2026-04-18T11:25:32.003Z</time></trkpt><trkpt lat="44.885715641774404" lon="9.51639687294499"><ele>547.0</ele><time>2026-04-18T11:25:33.003Z</time></trkpt><trkpt lat="44.88577791962159" lon="9.516343415250411"><ele>547.0</ele><time>2026-04-18T11:25:33.999Z</time></trkpt><trkpt lat="44.88582516185434" lon="9.516255030971548"><ele>547.0</ele><time>2026-04-18T11:25:34.999Z</time></trkpt><trkpt lat="44.88589185993904" lon="9.516197318022446"><ele>547.0</ele><time>2026-04-18T11:25:35.999Z</time></trkpt><trkpt lat="44.885959523153765" lon="9.516147100460607"><ele>547.0</ele><time>2026-04-18T11:25:36.999Z</time></trkpt><trkpt lat="44.88602896709475" lon="9.516118036748994"><ele>548.0</ele><time>2026-04-18T11:25:37.999Z</time></trkpt><trkpt lat="44.886098964575" lon="9.516103434987773"><ele>549.0</ele><time>2026-04-18T11:25:38.999Z</time></trkpt><trkpt lat="44.88616654955645" lon="9.516081768281142"><ele>550.0</ele><time>2026-04-18T11:25:39.999Z</time></trkpt><trkpt lat="44.8862766341721" lon="9.516014925095153"><ele>551.0</ele><time>2026-04-18T11:25:41.999Z</time></trkpt><trkpt lat="44.88633732867495" lon="9.5159801919365"><ele>552.0</ele><time>2026-04-18T11:25:42.999Z</time></trkpt><trkpt lat="44.88644343312397" lon="9.515938732126816"><ele>553.0</ele><time>2026-04-18T11:25:44.999Z</time></trkpt><trkpt lat="44.88654105180164" lon="9.515951269741732"><ele>553.0</ele><time>2026-04-18T11:25:46.999Z</time></trkpt><trkpt lat="44.88665903575843" lon="9.516002806105742"><ele>553.0</ele><time>2026-04-18T11:25:48.999Z</time></trkpt><trkpt lat="44.88677557750574" lon="9.51601543679447"><ele>553.0</ele><time>2026-04-18T11:25:50.999Z</time></trkpt><trkpt lat="44.88686312748652" lon="9.515987564327379"><ele>553.0</ele><time>2026-04-18T11:25:53Z</time></trkpt><trkpt lat="44.88694643684353" lon="9.515919413058764"><ele>553.0</ele><time>2026-04-18T11:27:21.003Z</time></trkpt><trkpt lat="44.8870170501457" lon="9.515873968144591"><ele>552.4</ele><time>2026-04-18T11:27:23.003Z</time></trkpt><trkpt lat="44.88709731545102" lon="9.515843864580678"><ele>551.8</ele><time>2026-04-18T11:27:25.003Z</time></trkpt><trkpt lat="44.887186580135484" lon="9.515826605667803"><ele>551.2</ele><time>2026-04-18T11:27:27.003Z</time></trkpt><trkpt lat="44.887277066484636" lon="9.51581746338157"><ele>550.6</ele><time>2026-04-18T11:27:29.003Z</time></trkpt><trkpt lat="44.88737356661304" lon="9.515802086401537"><ele>550.0</ele><time>2026-04-18T11:27:31.003Z</time></trkpt><trkpt lat="44.88746683186419" lon="9.515785216013233"><ele>550.0</ele><time>2026-04-18T11:27:33.003Z</time></trkpt><trkpt lat="44.88755541646335" lon="9.515768601766155"><ele>550.0</ele><time>2026-04-18T11:27:35.003Z</time></trkpt><trkpt lat="44.887631091057706" lon="9.515733675475962"><ele>550.0</ele><time>2026-04-18T11:27:37.003Z</time></trkpt><trkpt lat="44.887696347116865" lon="9.515693594703443"><ele>550.0</ele><time>2026-04-18T11:27:39.003Z</time></trkpt><trkpt lat="44.887736535780775" lon="9.51561721048042"><ele>550.0</ele><time>2026-04-18T11:27:43.998Z</time></trkpt><trkpt lat="44.88760401128895" lon="9.515372109909276"><ele>551.1666666666667</ele><time>2026-04-18T11:27:47.999Z</time></trkpt><trkpt lat="44.88753920915846" lon="9.515243157570781"><ele>552.3333333333334</ele><time>2026-04-18T11:27:49.999Z</time></trkpt><trkpt lat="44.88750124803064" lon="9.515169343035298"><ele>553.5</ele><time>2026-04-18T11:27:50.999Z</time></trkpt><trkpt lat="44.88745964883134" lon="9.51508845426583"><ele>554.6666666666666</ele><time>2026-04-18T11:27:51.999Z</time></trkpt><trkpt lat="44.8874160034858" lon="9.515003586969113"><ele>555.8333333333333</ele><time>2026-04-18T11:27:52.999Z</time></trkpt><trkpt lat="44.88737357242359" lon="9.514915434498844"><ele>557.0</ele><time>2026-04-18T11:27:53.999Z</time></trkpt><trkpt lat="44.887334625324" lon="9.514811483245504"><ele>557.0</ele><time>2026-04-18T11:27:54.999Z</time></trkpt><trkpt lat="44.88730784292028" lon="9.514700410009391"><ele>557.0</ele><time>2026-04-18T11:27:55.999Z</time></trkpt><trkpt lat="44.88728149127078" lon="9.51457456543133"><ele>557.0</ele><time>2026-04-18T11:27:56.999Z</time></trkpt><trkpt lat="44.887261069124" lon="9.514438450085596"><ele>557.0</ele><time>2026-04-18T11:27:57.999Z</time></trkpt><trkpt lat="44.88724860215599" lon="9.514296580594152"><ele>557.0</ele><time>2026-04-18T11:27:59Z</time></trkpt><trkpt lat="44.88724893417449" lon="9.514178035683228"><ele>557.4</ele><time>2026-04-18T11:28:00Z</time></trkpt><trkpt lat="44.88724468490009" lon="9.514044683633397"><ele>557.8000000000001</ele><time>2026-04-18T11:28:01Z</time></trkpt><trkpt lat="44.88723552757724" lon="9.513905831080299"><ele>558.2</ele><time>2026-04-18T11:28:02Z</time></trkpt><trkpt lat="44.88721217691927" lon="9.513765642617285"><ele>558.6</ele><time>2026-04-18T11:28:03Z</time></trkpt><trkpt lat="44.887182203516495" lon="9.513630464981228"><ele>559.0</ele><time>2026-04-18T11:28:04Z</time></trkpt><trkpt lat="44.88714805929434" lon="9.513490431377035"><ele>559.0</ele><time>2026-04-18T11:28:05Z</time></trkpt><trkpt lat="44.887118540039594" lon="9.513346722140122"><ele>559.0</ele><time>2026-04-18T11:28:06Z</time></trkpt><trkpt lat="44.8871039128503" lon="9.513187510344315"><ele>559.0</ele><time>2026-04-18T11:28:07Z</time></trkpt><trkpt lat="44.88710311201982" lon="9.513022979568394"><ele>559.0</ele><time>2026-04-18T11:28:08Z</time></trkpt><trkpt lat="44.88710480537236" lon="9.512858790066"><ele>560.0</ele><time>2026-04-18T11:28:09Z</time></trkpt><trkpt lat="44.887098703753125" lon="9.512698505396608"><ele>561.0</ele><time>2026-04-18T11:28:10Z</time></trkpt><trkpt lat="44.887078975090134" lon="9.512556743573025"><ele>562.0</ele><time>2026-04-18T11:28:11Z</time></trkpt><trkpt lat="44.887055388948895" lon="9.512426330492241"><ele>563.0</ele><time>2026-04-18T11:28:12Z</time></trkpt><trkpt lat="44.88703068322637" lon="9.51230151983517"><ele>564.0</ele><time>2026-04-18T11:28:13Z</time></trkpt><trkpt lat="44.88701237337997" lon="9.512203458379334"><ele>564.8333333333334</ele><time>2026-04-18T11:28:14Z</time></trkpt><trkpt lat="44.886994521744654" lon="9.512053241283821"><ele>565.6666666666666</ele><time>2026-04-18T11:28:16Z</time></trkpt><trkpt lat="44.887002631293356" lon="9.511945199311958"><ele>566.5</ele><time>2026-04-18T11:28:17.001Z</time></trkpt><trkpt lat="44.88703783823084" lon="9.511850328558147"><ele>567.3333333333333</ele><time>2026-04-18T11:28:18.001Z</time></trkpt><trkpt lat="44.88706539851617" lon="9.511743236882914"><ele>568.1666666666666</ele><time>2026-04-18T11:28:19.001Z</time></trkpt><trkpt lat="44.88710966647923" lon="9.511663343109843"><ele>569.0</ele><time>2026-04-18T11:28:20.001Z</time></trkpt><trkpt lat="44.88714885018625" lon="9.51157911119449"><ele>569.0</ele><time>2026-04-18T11:28:21.001Z</time></trkpt><trkpt lat="44.887186251987764" lon="9.511501829675439"><ele>569.0</ele><time>2026-04-18T11:28:22.001Z</time></trkpt><trkpt lat="44.887215495966856" lon="9.511417030461903"><ele>569.0</ele><time>2026-04-18T11:28:23.001Z</time></trkpt><trkpt lat="44.88722132192075" lon="9.511306622948496"><ele>569.0</ele><time>2026-04-18T11:28:24.001Z</time></trkpt><trkpt lat="44.88720783906821" lon="9.511188836533014"><ele>569.0</ele><time>2026-04-18T11:28:25.001Z</time></trkpt><trkpt lat="44.88717946604498" lon="9.511075477962748"><ele>569.0</ele><time>2026-04-18T11:28:26.001Z</time></trkpt><trkpt lat="44.88713900133338" lon="9.51097153639594"><ele>569.5</ele><time>2026-04-18T11:28:27.001Z</time></trkpt><trkpt lat="44.887086224665936" lon="9.51087131835643"><ele>570.0</ele><time>2026-04-18T11:28:28.001Z</time></trkpt><trkpt lat="44.8870287879311" lon="9.510776088300817"><ele>570.5</ele><time>2026-04-18T11:28:29.001Z</time></trkpt><trkpt lat="44.88696404373163" lon="9.510689799875905"><ele>571.0</ele><time>2026-04-18T11:28:30.001Z</time></trkpt><trkpt lat="44.88689376399507" lon="9.51061869352849"><ele>571.5</ele><time>2026-04-18T11:28:31.001Z</time></trkpt><trkpt lat="44.88681919470559" lon="9.510561929839902"><ele>572.0</ele><time>2026-04-18T11:28:32.001Z</time></trkpt><trkpt lat="44.8867372298326" lon="9.510519581763683"><ele>576.0</ele><time>2026-04-18T11:28:33.001Z</time></trkpt><trkpt lat="44.88665696209763" lon="9.51048960211525"><ele>580.0</ele><time>2026-04-18T11:28:34.001Z</time></trkpt><trkpt lat="44.88656847494314" lon="9.510472031663438"><ele>584.0</ele><time>2026-04-18T11:28:35.001Z</time></trkpt><trkpt lat="44.88647134334298" lon="9.510482556020822"><ele>588.0</ele><time>2026-04-18T11:28:36.001Z</time></trkpt><trkpt lat="44.88637624563114" lon="9.510508939301483"><ele>592.0</ele><time>2026-04-18T11:28:37.001Z</time></trkpt><trkpt lat="44.88626504236817" lon="9.510550577248281"><ele>592.0</ele><time>2026-04-18T11:28:38.001Z</time></trkpt><trkpt lat="44.88615191788238" lon="9.510596359585223"><ele>592.0</ele><time>2026-04-18T11:28:39.001Z</time></trkpt><trkpt lat="44.8860372478542" lon="9.510646923304922"><ele>592.0</ele><time>2026-04-18T11:28:40.001Z</time></trkpt><trkpt lat="44.88592250709484" lon="9.510697205520085"><ele>592.0</ele><time>2026-04-18T11:28:41.001Z</time></trkpt><trkpt lat="44.885825469400324" lon="9.510761134500703"><ele>592.0</ele><time>2026-04-18T11:28:42.001Z</time></trkpt><trkpt lat="44.88570912933436" lon="9.510802830970386"><ele>592.0</ele><time>2026-04-18T11:28:43.001Z</time></trkpt><trkpt lat="44.88558756055966" lon="9.510836780366306"><ele>592.0</ele><time>2026-04-18T11:28:44.002Z</time></trkpt><trkpt lat="44.88546715193211" lon="9.5108440859269"><ele>592.0</ele><time>2026-04-18T11:28:45.002Z</time></trkpt><trkpt lat="44.885356374835354" lon="9.51083080344302"><ele>592.0</ele><time>2026-04-18T11:28:46.002Z</time></trkpt><trkpt lat="44.88525038790593" lon="9.510818360238511"><ele>592.0</ele><time>2026-04-18T11:28:47.002Z</time></trkpt><trkpt lat="44.88513988435508" lon="9.510795452854934"><ele>592.0</ele><time>2026-04-18T11:28:48.002Z</time></trkpt><trkpt lat="44.885026081638394" lon="9.510804935129107"><ele>592.0</ele><time>2026-04-18T11:28:49.002Z</time></trkpt><trkpt lat="44.88491258386091" lon="9.510814385519545"><ele>592.0</ele><time>2026-04-18T11:28:50.002Z</time></trkpt><trkpt lat="44.88480013162487" lon="9.510807880062293"><ele>591.5</ele><time>2026-04-18T11:28:51.002Z</time></trkpt><trkpt lat="44.88468669696339" lon="9.51077965161761"><ele>591.0</ele><time>2026-04-18T11:28:52.002Z</time></trkpt><trkpt lat="44.884574868533115" lon="9.510723014402181"><ele>590.5</ele><time>2026-04-18T11:28:53.002Z</time></trkpt><trkpt lat="44.88445958706618" lon="9.510670277749787"><ele>590.0</ele><time>2026-04-18T11:28:54.002Z</time></trkpt><trkpt lat="44.88434212779291" lon="9.510629594756224"><ele>589.0</ele><time>2026-04-18T11:28:55.002Z</time></trkpt><trkpt lat="44.88423050720255" lon="9.510626685501759"><ele>588.0</ele><time>2026-04-18T11:28:56.002Z</time></trkpt><trkpt lat="44.88410679401234" lon="9.510640495771849"><ele>587.0</ele><time>2026-04-18T11:28:57.002Z</time></trkpt><trkpt lat="44.88396897734107" lon="9.510660524592652"><ele>586.0</ele><time>2026-04-18T11:28:58.002Z</time></trkpt><trkpt lat="44.88384148373985" lon="9.510676028132524"><ele>586.0</ele><time>2026-04-18T11:28:59.002Z</time></trkpt><trkpt lat="44.88372158188198" lon="9.510670095098392"><ele>586.0</ele><time>2026-04-18T11:29:00.002Z</time></trkpt><trkpt lat="44.88360709794404" lon="9.510637688657157"><ele>586.0</ele><time>2026-04-18T11:29:01.002Z</time></trkpt><trkpt lat="44.883493841401766" lon="9.510596832646499"><ele>586.0</ele><time>2026-04-18T11:29:02.002Z</time></trkpt><trkpt lat="44.88339008049834" lon="9.510553060607437"><ele>584.6</ele><time>2026-04-18T11:29:03.002Z</time></trkpt><trkpt lat="44.88329536775516" lon="9.510494902576335"><ele>583.2</ele><time>2026-04-18T11:29:04.002Z</time></trkpt><trkpt lat="44.883204412216976" lon="9.510423714439487"><ele>581.8</ele><time>2026-04-18T11:29:05.002Z</time></trkpt><trkpt lat="44.88310782705025" lon="9.510351829335542"><ele>580.4</ele><time>2026-04-18T11:29:06.002Z</time></trkpt><trkpt lat="44.88301440876774" lon="9.510316469660419"><ele>579.0</ele><time>2026-04-18T11:29:07.002Z</time></trkpt><trkpt lat="44.88292233160553" lon="9.510277596096078"><ele>579.0</ele><time>2026-04-18T11:29:08.002Z</time></trkpt><trkpt lat="44.88282336705993" lon="9.51022686149527"><ele>579.0</ele><time>2026-04-18T11:29:09.002Z</time></trkpt><trkpt lat="44.88270975444477" lon="9.510207847927271"><ele>579.0</ele><time>2026-04-18T11:29:10.002Z</time></trkpt><trkpt lat="44.88258957948397" lon="9.510200005203435"><ele>579.0</ele><time>2026-04-18T11:29:11.002Z</time></trkpt><trkpt lat="44.8824675126223" lon="9.510184978351527"><ele>579.0</ele><time>2026-04-18T11:29:12.002Z</time></trkpt><trkpt lat="44.88234182752501" lon="9.510160231020851"><ele>579.0</ele><time>2026-04-18T11:29:13.002Z</time></trkpt><trkpt lat="44.882243423911206" lon="9.510126264233175"><ele>579.0</ele><time>2026-04-18T11:29:14.002Z</time></trkpt><trkpt lat="44.882141598469936" lon="9.510105628530166"><ele>579.0</ele><time>2026-04-18T11:29:15.002Z</time></trkpt><trkpt lat="44.88204590389084" lon="9.51015279763609"><ele>579.0</ele><time>2026-04-18T11:29:16.003Z</time></trkpt><trkpt lat="44.88194866425466" lon="9.510214004402611"><ele>579.0</ele><time>2026-04-18T11:29:17.003Z</time></trkpt><trkpt lat="44.88184574856811" lon="9.510287682906647"><ele>579.0</ele><time>2026-04-18T11:29:18.003Z</time></trkpt><trkpt lat="44.88173292513839" lon="9.510365053744998"><ele>579.0</ele><time>2026-04-18T11:29:19.003Z</time></trkpt><trkpt lat="44.88162365914486" lon="9.510435338647769"><ele>579.0</ele><time>2026-04-18T11:29:20.003Z</time></trkpt><trkpt lat="44.88152666454456" lon="9.510506420279201"><ele>580.6</ele><time>2026-04-18T11:29:21.003Z</time></trkpt><trkpt lat="44.88144361072285" lon="9.510575983462363"><ele>582.2</ele><time>2026-04-18T11:29:22.003Z</time></trkpt><trkpt lat="44.88137029033086" lon="9.510673014932424"><ele>583.8000000000001</ele><time>2026-04-18T11:29:23.003Z</time></trkpt><trkpt lat="44.88130261693916" lon="9.510797073811842"><ele>585.4</ele><time>2026-04-18T11:29:24.003Z</time></trkpt><trkpt lat="44.8812434545103" lon="9.51094749071754"><ele>587.0</ele><time>2026-04-18T11:29:25.003Z</time></trkpt><trkpt lat="44.88118849959208" lon="9.511098795676771"><ele>587.0</ele><time>2026-04-18T11:29:26.003Z</time></trkpt><trkpt lat="44.88113106036697" lon="9.511230278423346"><ele>587.0</ele><time>2026-04-18T11:29:27.003Z</time></trkpt><trkpt lat="44.881072443703694" lon="9.511337490426817"><ele>587.0</ele><time>2026-04-18T11:29:28.003Z</time></trkpt><trkpt lat="44.88101235868403" lon="9.511406356930266"><ele>587.0</ele><time>2026-04-18T11:29:29.003Z</time></trkpt><trkpt lat="44.880947673473166" lon="9.511445748375085"><ele>587.0</ele><time>2026-04-18T11:29:30.003Z</time></trkpt><trkpt lat="44.88087885347733" lon="9.511449345892206"><ele>587.0</ele><time>2026-04-18T11:29:31.003Z</time></trkpt><trkpt lat="44.88081658073092" lon="9.511410438971177"><ele>588.6</ele><time>2026-04-18T11:29:32.003Z</time></trkpt><trkpt lat="44.88076378510777" lon="9.5113262825773"><ele>590.2</ele><time>2026-04-18T11:29:33.003Z</time></trkpt><trkpt lat="44.88071432167595" lon="9.51121565857649"><ele>591.8</ele><time>2026-04-18T11:29:34.003Z</time></trkpt><trkpt lat="44.88068055066865" lon="9.511083192659722"><ele>593.4</ele><time>2026-04-18T11:29:35.003Z</time></trkpt><trkpt lat="44.88065420268391" lon="9.510940970617163"><ele>595.0</ele><time>2026-04-18T11:29:36.003Z</time></trkpt><trkpt lat="44.88062093584889" lon="9.510818951063667"><ele>596.6</ele><time>2026-04-18T11:29:37.003Z</time></trkpt><trkpt lat="44.88057212541977" lon="9.510717896279303"><ele>598.2</ele><time>2026-04-18T11:29:38.003Z</time></trkpt><trkpt lat="44.88051906145437" lon="9.510627943721847"><ele>599.8</ele><time>2026-04-18T11:29:39.003Z</time></trkpt><trkpt lat="44.88044006484926" lon="9.51056903811688"><ele>601.4</ele><time>2026-04-18T11:29:40.003Z</time></trkpt><trkpt lat="44.88035136662081" lon="9.510527895884188"><ele>603.0</ele><time>2026-04-18T11:29:41.003Z</time></trkpt><trkpt lat="44.880250018241455" lon="9.51048440679739"><ele>606.25</ele><time>2026-04-18T11:29:42.003Z</time></trkpt><trkpt lat="44.880138264679424" lon="9.510392393631001"><ele>609.5</ele><time>2026-04-18T11:29:43.003Z</time></trkpt><trkpt lat="44.880004437152124" lon="9.51034926130417"><ele>612.75</ele><time>2026-04-18T11:29:44.003Z</time></trkpt><trkpt lat="44.87988522880449" lon="9.510287716459052"><ele>616.0</ele><time>2026-04-18T11:29:45.003Z</time></trkpt><trkpt lat="44.87975215600923" lon="9.510229280343788"><ele>616.6666666666667</ele><time>2026-04-18T11:29:45.999Z</time></trkpt><trkpt lat="44.87960856167767" lon="9.510152814401998"><ele>617.3333333333334</ele><time>2026-04-18T11:29:46.999Z</time></trkpt><trkpt lat="44.879477239512376" lon="9.510038402593"><ele>618.0</ele><time>2026-04-18T11:29:47.999Z</time></trkpt><trkpt lat="44.87932176491904" lon="9.509949511886386"><ele>617.0</ele><time>2026-04-18T11:29:48.999Z</time></trkpt><trkpt lat="44.879151477602356" lon="9.50993160725167"><ele>616.0</ele><time>2026-04-18T11:29:49.999Z</time></trkpt><trkpt lat="44.87899406444319" lon="9.510003782882833"><ele>615.0</ele><time>2026-04-18T11:29:51Z</time></trkpt><trkpt lat="44.87912677719651" lon="9.509972268287765"><ele>615.0</ele><time>2026-04-18T11:29:52Z</time></trkpt><trkpt lat="44.87900315556122" lon="9.510040401127752"><ele>615.0</ele><time>2026-04-18T11:29:53Z</time></trkpt><trkpt lat="44.87886968748501" lon="9.510073066468951"><ele>615.0</ele><time>2026-04-18T11:29:54Z</time></trkpt><trkpt lat="44.87874077048972" lon="9.510121721526128"><ele>615.0</ele><time>2026-04-18T11:29:55Z</time></trkpt><trkpt lat="44.87861317535558" lon="9.510152117141965"><ele>615.0</ele><time>2026-04-18T11:29:56Z</time></trkpt><trkpt lat="44.87848817369109" lon="9.510157683102186"><ele>615.0</ele><time>2026-04-18T11:29:57Z</time></trkpt><trkpt lat="44.87838414924681" lon="9.510149305873258"><ele>615.0</ele><time>2026-04-18T11:29:58Z</time></trkpt><trkpt lat="44.878293159076904" lon="9.510103476764543"><ele>615.0</ele><time>2026-04-18T11:29:59Z</time></trkpt><trkpt lat="44.87819993254922" lon="9.510038277019207"><ele>615.0</ele><time>2026-04-18T11:30:01Z</time></trkpt><trkpt lat="44.87816811465829" lon="9.50994572762782"><ele>615.1666666666666</ele><time>2026-04-18T11:30:03Z</time></trkpt><trkpt lat="44.87818188226993" lon="9.509800751027358"><ele>615.3333333333334</ele><time>2026-04-18T11:30:05Z</time></trkpt><trkpt lat="44.8781965912789" lon="9.509692798030313"><ele>615.5</ele><time>2026-04-18T11:30:06Z</time></trkpt><trkpt lat="44.878221401896305" lon="9.509582679846401"><ele>615.6666666666667</ele><time>2026-04-18T11:30:07Z</time></trkpt><trkpt lat="44.87824932214245" lon="9.509495573696949"><ele>615.8333333333334</ele><time>2026-04-18T11:30:08Z</time></trkpt><trkpt lat="44.87830309798012" lon="9.509435706831512"><ele>616.0</ele><time>2026-04-18T11:30:09Z</time></trkpt><trkpt lat="44.87837534714581" lon="9.509390535966082"><ele>620.0</ele><time>2026-04-18T11:30:10Z</time></trkpt><trkpt lat="44.87844047560942" lon="9.509315365763523"><ele>624.0</ele><time>2026-04-18T11:30:11Z</time></trkpt><trkpt lat="44.87853156126299" lon="9.509178460257148"><ele>628.0</ele><time>2026-04-18T11:30:13Z</time></trkpt><trkpt lat="44.878568250375984" lon="9.509054452919814"><ele>632.0</ele><time>2026-04-18T11:30:14Z</time></trkpt><trkpt lat="44.878589867767346" lon="9.508895324756551"><ele>636.0</ele><time>2026-04-18T11:30:15Z</time></trkpt><trkpt lat="44.878591115213496" lon="9.50868775141812"><ele>638.25</ele><time>2026-04-18T11:30:16Z</time></trkpt><trkpt lat="44.87858763110446" lon="9.50853572296589"><ele>640.5</ele><time>2026-04-18T11:30:17Z</time></trkpt><trkpt lat="44.87858440440087" lon="9.508381746305362"><ele>642.75</ele><time>2026-04-18T11:30:18Z</time></trkpt><trkpt lat="44.878579651693634" lon="9.508211549577005"><ele>645.0</ele><time>2026-04-18T11:30:19Z</time></trkpt><trkpt lat="44.8785812601706" lon="9.508045713791267"><ele>643.3333333333334</ele><time>2026-04-18T11:30:20.001Z</time></trkpt><trkpt lat="44.87856694566018" lon="9.507890938446685"><ele>641.6666666666666</ele><time>2026-04-18T11:30:21.001Z</time></trkpt><trkpt lat="44.878551989387255" lon="9.507768088270321"><ele>640.0</ele><time>2026-04-18T11:30:22.001Z</time></trkpt><trkpt lat="44.878540608428224" lon="9.507651450024515"><ele>638.3333333333333</ele><time>2026-04-18T11:30:23.001Z</time></trkpt><trkpt lat="44.878524522765986" lon="9.507544038518658"><ele>636.6666666666666</ele><time>2026-04-18T11:30:24.001Z</time></trkpt><trkpt lat="44.87850598439479" lon="9.507433011973644"><ele>635.0</ele><time>2026-04-18T11:30:25.001Z</time></trkpt><trkpt lat="44.87848183345224" lon="9.507293333706919"><ele>635.0</ele><time>2026-04-18T11:30:26.001Z</time></trkpt><trkpt lat="44.87845074225614" lon="9.50714239086486"><ele>635.0</ele><time>2026-04-18T11:30:27.001Z</time></trkpt><trkpt lat="44.8784170337976" lon="9.507005482675991"><ele>635.0</ele><time>2026-04-18T11:30:28.001Z</time></trkpt><trkpt lat="44.87838522835241" lon="9.506896531191614"><ele>635.0</ele><time>2026-04-18T11:30:29.001Z</time></trkpt><trkpt lat="44.87835727975035" lon="9.506801051808873"><ele>635.0</ele><time>2026-04-18T11:30:30.001Z</time></trkpt><trkpt lat="44.87828197620222" lon="9.506730956837853"><ele>633.6</ele><time>2026-04-18T11:30:31.001Z</time></trkpt><trkpt lat="44.87820569653397" lon="9.506633332412576"><ele>632.2</ele><time>2026-04-18T11:30:32.001Z</time></trkpt><trkpt lat="44.878132999073486" lon="9.506540670081845"><ele>630.8</ele><time>2026-04-18T11:30:33.001Z</time></trkpt><trkpt lat="44.87809377388573" lon="9.506406327951188"><ele>629.4</ele><time>2026-04-18T11:30:34.001Z</time></trkpt><trkpt lat="44.8780484128878" lon="9.506265114825126"><ele>628.0</ele><time>2026-04-18T11:30:35.001Z</time></trkpt><trkpt lat="44.8780081805299" lon="9.506108108519369"><ele>627.1999999999999</ele><time>2026-04-18T11:30:36.001Z</time></trkpt><trkpt lat="44.87798474717927" lon="9.505947590569145"><ele>626.4</ele><time>2026-04-18T11:30:37.001Z</time></trkpt><trkpt lat="44.87797572777212" lon="9.50579671364146"><ele>625.5999999999999</ele><time>2026-04-18T11:30:38.001Z</time></trkpt><trkpt lat="44.87797421769464" lon="9.505642055026023"><ele>624.8</ele><time>2026-04-18T11:30:39.001Z</time></trkpt><trkpt lat="44.87795604346724" lon="9.505490759955709"><ele>624.0</ele><time>2026-04-18T11:30:40.001Z</time></trkpt><trkpt lat="44.87795835393399" lon="9.505368091468497"><ele>624.0</ele><time>2026-04-18T11:30:41.001Z</time></trkpt><trkpt lat="44.87795693971257" lon="9.505271037262638"><ele>624.0</ele><time>2026-04-18T11:30:42.001Z</time></trkpt><trkpt lat="44.87795721546676" lon="9.505090263783691"><ele>624.0</ele><time>2026-04-18T11:30:44.001Z</time></trkpt><trkpt lat="44.877959239639786" lon="9.504993272385041"><ele>624.0</ele><time>2026-04-18T11:30:45.001Z</time></trkpt><trkpt lat="44.877985552992016" lon="9.504851354062026"><ele>624.0</ele><time>2026-04-18T11:30:47.001Z</time></trkpt><trkpt lat="44.877998990357774" lon="9.504757107020387"><ele>624.0</ele><time>2026-04-18T11:30:49.001Z</time></trkpt><trkpt lat="44.8780256558296" lon="9.504674376287602"><ele>624.0</ele><time>2026-04-18T11:30:57.002Z</time></trkpt><trkpt lat="44.87802397879404" lon="9.504580988308817"><ele>624.0</ele><time>2026-04-18T11:31:52.999Z</time></trkpt><trkpt lat="44.878046502331664" lon="9.50447796375378"><ele>624.0</ele><time>2026-04-18T11:33:00.001Z</time></trkpt><trkpt lat="44.8780525806039" lon="9.50436414019276"><ele>624.0</ele><time>2026-04-18T11:33:02.002Z</time></trkpt><trkpt lat="44.87810771750857" lon="9.504235784464518"><ele>624.0</ele><time>2026-04-18T11:33:04.002Z</time></trkpt><trkpt lat="44.87813584032646" lon="9.504149275290542"><ele>624.0</ele><time>2026-04-18T11:33:05.002Z</time></trkpt><trkpt lat="44.8781680465076" lon="9.504053162960405"><ele>624.5</ele><time>2026-04-18T11:33:06.002Z</time></trkpt><trkpt lat="44.87820191978387" lon="9.503952075660294"><ele>625.0</ele><time>2026-04-18T11:33:07.002Z</time></trkpt><trkpt lat="44.87824019839081" lon="9.503840936767418"><ele>625.5</ele><time>2026-04-18T11:33:08.002Z</time></trkpt><trkpt lat="44.87828013548119" lon="9.503727777383412"><ele>626.0</ele><time>2026-04-18T11:33:09.002Z</time></trkpt><trkpt lat="44.878316465221346" lon="9.503613310392726"><ele>626.5</ele><time>2026-04-18T11:33:10.002Z</time></trkpt><trkpt lat="44.87834771538209" lon="9.503501486772754"><ele>627.0</ele><time>2026-04-18T11:33:11.002Z</time></trkpt><trkpt lat="44.878372447792174" lon="9.503393616780306"><ele>627.1666666666666</ele><time>2026-04-18T11:33:12.002Z</time></trkpt><trkpt lat="44.87839151012212" lon="9.50328437520076"><ele>627.3333333333334</ele><time>2026-04-18T11:33:13.002Z</time></trkpt><trkpt lat="44.8784042156623" lon="9.503170440381762"><ele>627.5</ele><time>2026-04-18T11:33:14.002Z</time></trkpt><trkpt lat="44.87840600219939" lon="9.503051573394645"><ele>627.6666666666667</ele><time>2026-04-18T11:33:15.002Z</time></trkpt><trkpt lat="44.878408257425775" lon="9.50293430166423"><ele>627.8333333333334</ele><time>2026-04-18T11:33:16.002Z</time></trkpt><trkpt lat="44.87841314342368" lon="9.502816995727686"><ele>628.0</ele><time>2026-04-18T11:33:17.002Z</time></trkpt><trkpt lat="44.87843516066829" lon="9.502700777307655"><ele>628.0</ele><time>2026-04-18T11:33:18.002Z</time></trkpt><trkpt lat="44.87847207283421" lon="9.502567573481702"><ele>628.0</ele><time>2026-04-18T11:33:19.002Z</time></trkpt><trkpt lat="44.87850906230013" lon="9.502424973545079"><ele>628.0</ele><time>2026-04-18T11:33:20.002Z</time></trkpt><trkpt lat="44.87854262180576" lon="9.502277406442325"><ele>628.0</ele><time>2026-04-18T11:33:21.002Z</time></trkpt><trkpt lat="44.878572712708994" lon="9.502116715590192"><ele>628.0</ele><time>2026-04-18T11:33:22.002Z</time></trkpt><trkpt lat="44.87859772932462" lon="9.50195055889284"><ele>629.0</ele><time>2026-04-18T11:33:23.002Z</time></trkpt><trkpt lat="44.87860536534169" lon="9.501781598217855"><ele>630.0</ele><time>2026-04-18T11:33:24.002Z</time></trkpt><trkpt lat="44.878636537599505" lon="9.501620871183786"><ele>631.0</ele><time>2026-04-18T11:33:25.002Z</time></trkpt><trkpt lat="44.87867498897186" lon="9.501454104612073"><ele>632.0</ele><time>2026-04-18T11:33:26.002Z</time></trkpt><trkpt lat="44.878717539529134" lon="9.501290772785117"><ele>630.75</ele><time>2026-04-18T11:33:27.002Z</time></trkpt><trkpt lat="44.87875917790597" lon="9.50113270208908"><ele>629.5</ele><time>2026-04-18T11:33:28.002Z</time></trkpt><trkpt lat="44.87880015278208" lon="9.500967819349741"><ele>628.25</ele><time>2026-04-18T11:33:29.002Z</time></trkpt><trkpt lat="44.87884211329338" lon="9.500805055955466"><ele>627.0</ele><time>2026-04-18T11:33:30.002Z</time></trkpt><trkpt lat="44.87888405876956" lon="9.50064016060505"><ele>627.0</ele><time>2026-04-18T11:33:31.002Z</time></trkpt><trkpt lat="44.87892612448261" lon="9.500475840065135"><ele>627.0</ele><time>2026-04-18T11:33:32.002Z</time></trkpt><trkpt lat="44.87897480393807" lon="9.500324436701037"><ele>627.0</ele><time>2026-04-18T11:33:33.002Z</time></trkpt><trkpt lat="44.879013033763144" lon="9.500179007566137"><ele>627.0</ele><time>2026-04-18T11:33:34.003Z</time></trkpt><trkpt lat="44.8790305205266" lon="9.50002200931189"><ele>626.0</ele><time>2026-04-18T11:33:35.003Z</time></trkpt><trkpt lat="44.87902943923717" lon="9.499856148725561"><ele>625.0</ele><time>2026-04-18T11:33:36.003Z</time></trkpt><trkpt lat="44.87903241454087" lon="9.499674864930745"><ele>624.0</ele><time>2026-04-18T11:33:37.003Z</time></trkpt><trkpt lat="44.879006551730626" lon="9.49950795405809"><ele>623.0</ele><time>2026-04-18T11:33:38.003Z</time></trkpt><trkpt lat="44.87899468978169" lon="9.49935362551604"><ele>621.5</ele><time>2026-04-18T11:33:39.003Z</time></trkpt><trkpt lat="44.87897837781954" lon="9.499201557287357"><ele>620.0</ele><time>2026-04-18T11:33:40.003Z</time></trkpt><trkpt lat="44.87896222993808" lon="9.499030227551494"><ele>618.5</ele><time>2026-04-18T11:33:41.003Z</time></trkpt><trkpt lat="44.878947353632746" lon="9.49885119198511"><ele>617.0</ele><time>2026-04-18T11:33:42.003Z</time></trkpt><trkpt lat="44.878951730665285" lon="9.498672061457418"><ele>616.0</ele><time>2026-04-18T11:33:43.003Z</time></trkpt><trkpt lat="44.878928872799044" lon="9.498497674426991"><ele>615.0</ele><time>2026-04-18T11:33:44.003Z</time></trkpt><trkpt lat="44.87892244116581" lon="9.498326257872902"><ele>614.0</ele><time>2026-04-18T11:33:45.003Z</time></trkpt><trkpt lat="44.87892767636936" lon="9.498170497912978"><ele>613.0</ele><time>2026-04-18T11:33:46.003Z</time></trkpt><trkpt lat="44.87893602288065" lon="9.498027155553808"><ele>612.5</ele><time>2026-04-18T11:33:47.003Z</time></trkpt><trkpt lat="44.87894690867651" lon="9.497900714419911"><ele>612.0</ele><time>2026-04-18T11:33:48.003Z</time></trkpt><trkpt lat="44.87895745236413" lon="9.49778417519658"><ele>611.5</ele><time>2026-04-18T11:33:49.003Z</time></trkpt><trkpt lat="44.87897031813296" lon="9.49767921912825"><ele>611.0</ele><time>2026-04-18T11:33:50.003Z</time></trkpt><trkpt lat="44.8789841095914" lon="9.497566332557483"><ele>610.5</ele><time>2026-04-18T11:33:51.003Z</time></trkpt><trkpt lat="44.8790014677735" lon="9.497451195298131"><ele>610.0</ele><time>2026-04-18T11:33:52.003Z</time></trkpt><trkpt lat="44.87902297780114" lon="9.497338059090161"><ele>610.0</ele><time>2026-04-18T11:33:53.003Z</time></trkpt><trkpt lat="44.87905642882181" lon="9.497232712781377"><ele>610.0</ele><time>2026-04-18T11:33:54.003Z</time></trkpt><trkpt lat="44.87910319789183" lon="9.497134873087727"><ele>610.0</ele><time>2026-04-18T11:33:55.003Z</time></trkpt><trkpt lat="44.879151369534334" lon="9.497053660845364"><ele>610.0</ele><time>2026-04-18T11:33:56.003Z</time></trkpt><trkpt lat="44.87920466059762" lon="9.496932494187979"><ele>610.0</ele><time>2026-04-18T11:33:57.998Z</time></trkpt><trkpt lat="44.879162284627455" lon="9.496736746714575"><ele>607.5</ele><time>2026-04-18T11:33:59.998Z</time></trkpt><trkpt lat="44.87909165204609" lon="9.496622300255906"><ele>605.0</ele><time>2026-04-18T11:34:00.998Z</time></trkpt><trkpt lat="44.87901566217177" lon="9.496500454339149"><ele>602.5</ele><time>2026-04-18T11:34:01.998Z</time></trkpt><trkpt lat="44.87893658643706" lon="9.496367416977352"><ele>600.0</ele><time>2026-04-18T11:34:02.998Z</time></trkpt><trkpt lat="44.87885327823219" lon="9.496227750664522"><ele>595.0</ele><time>2026-04-18T11:34:03.998Z</time></trkpt><trkpt lat="44.87876161555091" lon="9.496095855331884"><ele>590.0</ele><time>2026-04-18T11:34:04.999Z</time></trkpt><trkpt lat="44.87866573126596" lon="9.495983268767544"><ele>585.0</ele><time>2026-04-18T11:34:05.999Z</time></trkpt><trkpt lat="44.87856680094069" lon="9.495883681219146"><ele>580.0</ele><time>2026-04-18T11:34:06.999Z</time></trkpt><trkpt lat="44.878500196286204" lon="9.495738400411774"><ele>581.0</ele><time>2026-04-18T11:34:07.999Z</time></trkpt><trkpt lat="44.87843034982754" lon="9.495613063524754"><ele>582.0</ele><time>2026-04-18T11:34:08.999Z</time></trkpt><trkpt lat="44.878351065356306" lon="9.495518228406418"><ele>583.0</ele><time>2026-04-18T11:34:09.999Z</time></trkpt><trkpt lat="44.87828985048357" lon="9.495418588123803"><ele>584.0</ele><time>2026-04-18T11:34:10.999Z</time></trkpt><trkpt lat="44.87820928420746" lon="9.49534997094459"><ele>585.0</ele><time>2026-04-18T11:34:11.999Z</time></trkpt><trkpt lat="44.878117974836094" lon="9.49529199899"><ele>582.4</ele><time>2026-04-18T11:34:12.999Z</time></trkpt><trkpt lat="44.87801681265187" lon="9.495258145178358"><ele>579.8</ele><time>2026-04-18T11:34:13.999Z</time></trkpt><trkpt lat="44.87792422509895" lon="9.495198984983533"><ele>577.2</ele><time>2026-04-18T11:34:14.999Z</time></trkpt><trkpt lat="44.87782621917667" lon="9.495139988319883"><ele>574.6</ele><time>2026-04-18T11:34:15.999Z</time></trkpt><trkpt lat="44.87772011144192" lon="9.495082136050934"><ele>572.0</ele><time>2026-04-18T11:34:17Z</time></trkpt><trkpt lat="44.87761082425486" lon="9.49501063877272"><ele>572.25</ele><time>2026-04-18T11:34:18Z</time></trkpt><trkpt lat="44.877498422420835" lon="9.494946197871636"><ele>572.5</ele><time>2026-04-18T11:34:19Z</time></trkpt><trkpt lat="44.87739983762809" lon="9.494871804607133"><ele>572.75</ele><time>2026-04-18T11:34:20Z</time></trkpt><trkpt lat="44.87730950454255" lon="9.49476943220333"><ele>573.0</ele><time>2026-04-18T11:34:21Z</time></trkpt><trkpt lat="44.87724891507978" lon="9.4946529809453"><ele>570.4</ele><time>2026-04-18T11:34:22Z</time></trkpt><trkpt lat="44.877181775147406" lon="9.494522859021023"><ele>567.8</ele><time>2026-04-18T11:34:23Z</time></trkpt><trkpt lat="44.87711987923069" lon="9.49438918376605"><ele>565.2</ele><time>2026-04-18T11:34:24Z</time></trkpt><trkpt lat="44.87705597896992" lon="9.494254990119874"><ele>562.6</ele><time>2026-04-18T11:34:25Z</time></trkpt><trkpt lat="44.87700024085986" lon="9.494131646914614"><ele>560.0</ele><time>2026-04-18T11:34:26Z</time></trkpt><trkpt lat="44.87695384204441" lon="9.494006321991929"><ele>560.0</ele><time>2026-04-18T11:34:27Z</time></trkpt><trkpt lat="44.876915845325996" lon="9.493875977178169"><ele>560.0</ele><time>2026-04-18T11:34:28Z</time></trkpt><trkpt lat="44.87689641274108" lon="9.493736801201296"><ele>560.0</ele><time>2026-04-18T11:34:29Z</time></trkpt><trkpt lat="44.87689314600794" lon="9.493603552716328"><ele>560.0</ele><time>2026-04-18T11:34:30Z</time></trkpt><trkpt lat="44.876911897346574" lon="9.49346821995187"><ele>560.0</ele><time>2026-04-18T11:34:31Z</time></trkpt><trkpt lat="44.876920439850274" lon="9.49334070320293"><ele>557.2</ele><time>2026-04-18T11:34:32Z</time></trkpt><trkpt lat="44.87693560824698" lon="9.493210809720553"><ele>554.4</ele><time>2026-04-18T11:34:33Z</time></trkpt><trkpt lat="44.876956922219065" lon="9.493077597874851"><ele>551.6</ele><time>2026-04-18T11:34:34.001Z</time></trkpt><trkpt lat="44.87698340225392" lon="9.492933208626273"><ele>548.8</ele><time>2026-04-18T11:34:35.001Z</time></trkpt><trkpt lat="44.87700870574709" lon="9.492803246809975"><ele>546.0</ele><time>2026-04-18T11:34:36.001Z</time></trkpt><trkpt lat="44.87704009697379" lon="9.492416593716946"><ele>546.0</ele><time>2026-04-18T11:34:37.001Z</time></trkpt><trkpt lat="44.87704310220603" lon="9.49226777962876"><ele>546.0</ele><time>2026-04-18T11:34:38.001Z</time></trkpt><trkpt lat="44.87704003181214" lon="9.492115517659414"><ele>546.0</ele><time>2026-04-18T11:34:39.001Z</time></trkpt><trkpt lat="44.87702557971328" lon="9.491966468272718"><ele>546.0</ele><time>2026-04-18T11:34:40.001Z</time></trkpt><trkpt lat="44.87701638210203" lon="9.491819289903384"><ele>546.0</ele><time>2026-04-18T11:34:41.001Z</time></trkpt><trkpt lat="44.87703769359932" lon="9.491663732789272"><ele>545.75</ele><time>2026-04-18T11:34:42.001Z</time></trkpt><trkpt lat="44.87705433322227" lon="9.491507304413183"><ele>545.5</ele><time>2026-04-18T11:34:43.001Z</time></trkpt><trkpt lat="44.87705822923681" lon="9.491340399224912"><ele>545.25</ele><time>2026-04-18T11:34:44.001Z</time></trkpt><trkpt lat="44.877024859620064" lon="9.491183020927744"><ele>545.0</ele><time>2026-04-18T11:34:45.001Z</time></trkpt><trkpt lat="44.877011431011766" lon="9.491037265110364"><ele>545.8</ele><time>2026-04-18T11:34:46.001Z</time></trkpt><trkpt lat="44.877021745790096" lon="9.490907905230321"><ele>546.6</ele><time>2026-04-18T11:34:47.001Z</time></trkpt><trkpt lat="44.877047745756364" lon="9.49079058071449"><ele>547.4</ele><time>2026-04-18T11:34:48.001Z</time></trkpt><trkpt lat="44.87708820155662" lon="9.490670205026722"><ele>548.2</ele><time>2026-04-18T11:34:49.001Z</time></trkpt><trkpt lat="44.87714582604094" lon="9.490551230590402"><ele>549.0</ele><time>2026-04-18T11:34:50.001Z</time></trkpt><trkpt lat="44.877211950254264" lon="9.49043656798937"><ele>550.6</ele><time>2026-04-18T11:34:51.001Z</time></trkpt><trkpt lat="44.87728472282474" lon="9.490328114265447"><ele>552.2</ele><time>2026-04-18T11:34:52.001Z</time></trkpt><trkpt lat="44.87734053506677" lon="9.490193486526044"><ele>553.8000000000001</ele><time>2026-04-18T11:34:53.001Z</time></trkpt><trkpt lat="44.87737794036632" lon="9.490102548689947"><ele>555.4</ele><time>2026-04-18T11:34:54.001Z</time></trkpt><trkpt lat="44.8773968667119" lon="9.489978617447314"><ele>557.0</ele><time>2026-04-18T11:34:55.001Z</time></trkpt><trkpt lat="44.877383725786096" lon="9.489856179560906"><ele>557.0</ele><time>2026-04-18T11:34:56.001Z</time></trkpt><trkpt lat="44.8773522324417" lon="9.48974714648587"><ele>557.0</ele><time>2026-04-18T11:34:57.001Z</time></trkpt><trkpt lat="44.877300241297554" lon="9.48962888944059"><ele>557.0</ele><time>2026-04-18T11:34:58.001Z</time></trkpt><trkpt lat="44.8772462065463" lon="9.489498071788365"><ele>557.0</ele><time>2026-04-18T11:34:59.001Z</time></trkpt><trkpt lat="44.8771732428252" lon="9.489357494614968"><ele>557.0</ele><time>2026-04-18T11:35:00.001Z</time></trkpt><trkpt lat="44.87711186453371" lon="9.489206882085561"><ele>556.0</ele><time>2026-04-18T11:35:01.002Z</time></trkpt><trkpt lat="44.8770529224588" lon="9.489053484278257"><ele>555.0</ele><time>2026-04-18T11:35:02.002Z</time></trkpt><trkpt lat="44.877008178420674" lon="9.488897304311614"><ele>554.0</ele><time>2026-04-18T11:35:03.002Z</time></trkpt><trkpt lat="44.87695054085105" lon="9.488758318251538"><ele>553.0</ele><time>2026-04-18T11:35:04.002Z</time></trkpt><trkpt lat="44.876901847273366" lon="9.488617166432924"><ele>553.0</ele><time>2026-04-18T11:35:05.002Z</time></trkpt><trkpt lat="44.8768554013368" lon="9.488474536676064"><ele>553.0</ele><time>2026-04-18T11:35:06.002Z</time></trkpt><trkpt lat="44.8768162580183" lon="9.48832220825764"><ele>553.0</ele><time>2026-04-18T11:35:07.002Z</time></trkpt><trkpt lat="44.87677780391217" lon="9.488186834685486"><ele>553.0</ele><time>2026-04-18T11:35:08.002Z</time></trkpt><trkpt lat="44.876745048426386" lon="9.488057855174313"><ele>553.0</ele><time>2026-04-18T11:35:09.002Z</time></trkpt><trkpt lat="44.876722622917036" lon="9.487937681251125"><ele>552.6</ele><time>2026-04-18T11:35:10.002Z</time></trkpt><trkpt lat="44.876715085005785" lon="9.487811985801601"><ele>552.1999999999999</ele><time>2026-04-18T11:35:11.002Z</time></trkpt><trkpt lat="44.876734383574934" lon="9.487678143475566"><ele>551.8</ele><time>2026-04-18T11:35:12.002Z</time></trkpt><trkpt lat="44.87671147266658" lon="9.487540158156126"><ele>551.4</ele><time>2026-04-18T11:35:13.002Z</time></trkpt><trkpt lat="44.876689068121784" lon="9.487400766665507"><ele>551.0</ele><time>2026-04-18T11:35:14.002Z</time></trkpt><trkpt lat="44.876650988970695" lon="9.487246627493901"><ele>551.4</ele><time>2026-04-18T11:35:15.002Z</time></trkpt><trkpt lat="44.87660740715821" lon="9.487093162781012"><ele>551.8</ele><time>2026-04-18T11:35:16.002Z</time></trkpt><trkpt lat="44.87655547529621" lon="9.486949600548627"><ele>552.1999999999999</ele><time>2026-04-18T11:35:17.002Z</time></trkpt><trkpt lat="44.87650650130977" lon="9.486816400577032"><ele>552.6</ele><time>2026-04-18T11:35:18.002Z</time></trkpt><trkpt lat="44.8764599601686" lon="9.486687611190584"><ele>553.0</ele><time>2026-04-18T11:35:19.002Z</time></trkpt><trkpt lat="44.87641247889848" lon="9.486558232592428"><ele>553.0</ele><time>2026-04-18T11:35:20.002Z</time></trkpt><trkpt lat="44.87636454929685" lon="9.486438701048781"><ele>553.0</ele><time>2026-04-18T11:35:21.002Z</time></trkpt><trkpt lat="44.87630517832921" lon="9.486326122413889"><ele>553.0</ele><time>2026-04-18T11:35:22.002Z</time></trkpt><trkpt lat="44.87623526193723" lon="9.486217515171184"><ele>553.0</ele><time>2026-04-18T11:35:23.002Z</time></trkpt><trkpt lat="44.87615702642108" lon="9.486101944214285"><ele>553.0</ele><time>2026-04-18T11:35:24.002Z</time></trkpt><trkpt lat="44.87608639407588" lon="9.485965821594199"><ele>552.8</ele><time>2026-04-18T11:35:25.002Z</time></trkpt><trkpt lat="44.876003046734645" lon="9.48587476881496"><ele>552.5999999999999</ele><time>2026-04-18T11:35:26.002Z</time></trkpt><trkpt lat="44.87594368797774" lon="9.485768177173613"><ele>552.4000000000001</ele><time>2026-04-18T11:35:27.002Z</time></trkpt><trkpt lat="44.875891762281285" lon="9.485652707709002"><ele>552.2</ele><time>2026-04-18T11:35:28.002Z</time></trkpt><trkpt lat="44.87586219257747" lon="9.485514055566123"><ele>552.0</ele><time>2026-04-18T11:35:29.002Z</time></trkpt><trkpt lat="44.8758344269705" lon="9.485360155555089"><ele>552.4</ele><time>2026-04-18T11:35:30.002Z</time></trkpt><trkpt lat="44.875806666992176" lon="9.485203675894827"><ele>552.8000000000001</ele><time>2026-04-18T11:35:31.002Z</time></trkpt><trkpt lat="44.87577790354798" lon="9.485070232100567"><ele>553.2</ele><time>2026-04-18T11:35:32.002Z</time></trkpt><trkpt lat="44.87574049441025" lon="9.484951261394873"><ele>553.6</ele><time>2026-04-18T11:35:33.002Z</time></trkpt><trkpt lat="44.87569906543272" lon="9.484837675109375"><ele>554.0</ele><time>2026-04-18T11:35:34.003Z</time></trkpt><trkpt lat="44.87565016154808" lon="9.484709780207034"><ele>554.6</ele><time>2026-04-18T11:35:35.003Z</time></trkpt><trkpt lat="44.8756095397701" lon="9.484580356206019"><ele>555.2</ele><time>2026-04-18T11:35:36.003Z</time></trkpt><trkpt lat="44.87556733545175" lon="9.484446278423539"><ele>555.8000000000001</ele><time>2026-04-18T11:35:37.003Z</time></trkpt><trkpt lat="44.875529175093966" lon="9.484301132504973"><ele>556.4</ele><time>2026-04-18T11:35:38.003Z</time></trkpt><trkpt lat="44.8754960532209" lon="9.484133173141029"><ele>557.0</ele><time>2026-04-18T11:35:39.003Z</time></trkpt><trkpt lat="44.875463440534325" lon="9.483964432491248"><ele>557.0</ele><time>2026-04-18T11:35:40.003Z</time></trkpt><trkpt lat="44.87543852838893" lon="9.483801216485864"><ele>557.0</ele><time>2026-04-18T11:35:41.003Z</time></trkpt><trkpt lat="44.875407337474115" lon="9.48362530246529"><ele>557.0</ele><time>2026-04-18T11:35:42.003Z</time></trkpt><trkpt lat="44.875397299262175" lon="9.483450335591785"><ele>557.0</ele><time>2026-04-18T11:35:43.003Z</time></trkpt><trkpt lat="44.87536727549354" lon="9.483285892759092"><ele>555.6</ele><time>2026-04-18T11:35:44.003Z</time></trkpt><trkpt lat="44.87534269317284" lon="9.48312262638326"><ele>554.2</ele><time>2026-04-18T11:35:45.003Z</time></trkpt><trkpt lat="44.87532150476826" lon="9.482969324268232"><ele>552.8</ele><time>2026-04-18T11:35:46.003Z</time></trkpt><trkpt lat="44.875305018054306" lon="9.482826030412562"><ele>551.4</ele><time>2026-04-18T11:35:47.003Z</time></trkpt><trkpt lat="44.87527825555542" lon="9.482697023683242"><ele>550.0</ele><time>2026-04-18T11:35:48.003Z</time></trkpt><trkpt lat="44.875239528875" lon="9.482581715111518"><ele>549.6666666666667</ele><time>2026-04-18T11:35:49.003Z</time></trkpt><trkpt lat="44.87518570547198" lon="9.482476991912344"><ele>549.3333333333334</ele><time>2026-04-18T11:35:50.003Z</time></trkpt><trkpt lat="44.875124211659596" lon="9.482392648363463"><ele>549.0</ele><time>2026-04-18T11:35:51.003Z</time></trkpt><trkpt lat="44.875058918912686" lon="9.482313858049693"><ele>548.6666666666666</ele><time>2026-04-18T11:35:52.003Z</time></trkpt><trkpt lat="44.87500360556392" lon="9.482219696600026"><ele>548.3333333333333</ele><time>2026-04-18T11:35:53.003Z</time></trkpt><trkpt lat="44.87493031977968" lon="9.482145599968113"><ele>548.0</ele><time>2026-04-18T11:35:54.003Z</time></trkpt><trkpt lat="44.87484853128785" lon="9.482078722695393"><ele>548.0</ele><time>2026-04-18T11:35:55.003Z</time></trkpt><trkpt lat="44.874747975439064" lon="9.482026782480638"><ele>548.0</ele><time>2026-04-18T11:35:56.003Z</time></trkpt><trkpt lat="44.87462886505467" lon="9.482003641476602"><ele>548.0</ele><time>2026-04-18T11:35:57.003Z</time></trkpt><trkpt lat="44.8745106320149" lon="9.481983663457116"><ele>548.0</ele><time>2026-04-18T11:35:58.003Z</time></trkpt><trkpt lat="44.87440045265339" lon="9.481960231755156"><ele>548.0</ele><time>2026-04-18T11:35:59.003Z</time></trkpt><trkpt lat="44.87429687065794" lon="9.481915565728574"><ele>548.0</ele><time>2026-04-18T11:36:00.003Z</time></trkpt><trkpt lat="44.87419969599298" lon="9.481840674862966"><ele>548.0</ele><time>2026-04-18T11:36:01.003Z</time></trkpt><trkpt lat="44.87409960759928" lon="9.481745863985113"><ele>548.0</ele><time>2026-04-18T11:36:02.003Z</time></trkpt><trkpt lat="44.873999136349184" lon="9.481649113595461"><ele>546.0</ele><time>2026-04-18T11:36:03.003Z</time></trkpt><trkpt lat="44.873898901387236" lon="9.481551057005904"><ele>544.0</ele><time>2026-04-18T11:36:04Z</time></trkpt><trkpt lat="44.87379669726806" lon="9.481451074136885"><ele>542.0</ele><time>2026-04-18T11:36:05Z</time></trkpt><trkpt lat="44.87369593787942" lon="9.481351409824018"><ele>540.0</ele><time>2026-04-18T11:36:06Z</time></trkpt><trkpt lat="44.87359982873124" lon="9.481253157008684"><ele>538.0</ele><time>2026-04-18T11:36:07Z</time></trkpt><trkpt lat="44.87352019932855" lon="9.4811628707843"><ele>536.0</ele><time>2026-04-18T11:36:08Z</time></trkpt><trkpt lat="44.8734472203409" lon="9.481068439829206"><ele>534.0</ele><time>2026-04-18T11:36:09Z</time></trkpt><trkpt lat="44.87338553328775" lon="9.480960537802376"><ele>532.0</ele><time>2026-04-18T11:36:10Z</time></trkpt><trkpt lat="44.873323400432426" lon="9.480840655428224"><ele>530.0</ele><time>2026-04-18T11:36:11Z</time></trkpt><trkpt lat="44.87326460319171" lon="9.480712609791572"><ele>529.2</ele><time>2026-04-18T11:36:12Z</time></trkpt><trkpt lat="44.87321240419062" lon="9.480580697951263"><ele>528.4</ele><time>2026-04-18T11:36:13Z</time></trkpt><trkpt lat="44.87315824441509" lon="9.480444341262565"><ele>527.6</ele><time>2026-04-18T11:36:14Z</time></trkpt><trkpt lat="44.873105564459095" lon="9.48031475047434"><ele>526.8</ele><time>2026-04-18T11:36:15Z</time></trkpt><trkpt lat="44.873054806456416" lon="9.480189470130568"><ele>526.0</ele><time>2026-04-18T11:36:16Z</time></trkpt><trkpt lat="44.873010782900934" lon="9.480079984766173"><ele>524.6666666666667</ele><time>2026-04-18T11:36:17Z</time></trkpt><trkpt lat="44.872975681009144" lon="9.479992687027611"><ele>523.3333333333334</ele><time>2026-04-18T11:36:18Z</time></trkpt><trkpt lat="44.87292420920727" lon="9.479881941877842"><ele>522.0</ele><time>2026-04-18T11:36:20Z</time></trkpt><trkpt lat="44.87292798006985" lon="9.479770808899708"><ele>520.6666666666666</ele><time>2026-04-18T11:36:51.001Z</time></trkpt><trkpt lat="44.87292830065565" lon="9.479610934476698"><ele>519.3333333333333</ele><time>2026-04-18T11:36:53.001Z</time></trkpt><trkpt lat="44.8729255608147" lon="9.47950232052559"><ele>518.0</ele><time>2026-04-18T11:36:54.001Z</time></trkpt><trkpt lat="44.87291715741404" lon="9.479383678600058"><ele>517.3333333333333</ele><time>2026-04-18T11:36:55.001Z</time></trkpt><trkpt lat="44.872906953963096" lon="9.479281311794105"><ele>516.6666666666666</ele><time>2026-04-18T11:36:56.001Z</time></trkpt><trkpt lat="44.87289200966737" lon="9.47917839907609"><ele>516.0</ele><time>2026-04-18T11:36:57.001Z</time></trkpt><trkpt lat="44.87287108505592" lon="9.479064835949695"><ele>515.3333333333334</ele><time>2026-04-18T11:36:58.001Z</time></trkpt><trkpt lat="44.87284570724596" lon="9.478948803173077"><ele>514.6666666666667</ele><time>2026-04-18T11:36:59.001Z</time></trkpt><trkpt lat="44.872821023311886" lon="9.478820542101465"><ele>514.0</ele><time>2026-04-18T11:37:00.001Z</time></trkpt><trkpt lat="44.87279225725569" lon="9.47869813606706"><ele>513.5</ele><time>2026-04-18T11:37:01.001Z</time></trkpt><trkpt lat="44.87280885000449" lon="9.478568550416643"><ele>513.0</ele><time>2026-04-18T11:37:02.001Z</time></trkpt><trkpt lat="44.872814532159516" lon="9.478436374711405"><ele>512.5</ele><time>2026-04-18T11:37:03.001Z</time></trkpt><trkpt lat="44.87279623026235" lon="9.4783079665961"><ele>512.0</ele><time>2026-04-18T11:37:04.001Z</time></trkpt><trkpt lat="44.87278619964394" lon="9.478197881540416"><ele>511.50000000000006</ele><time>2026-04-18T11:37:05.001Z</time></trkpt><trkpt lat="44.872767328446784" lon="9.478077685254659"><ele>511.0</ele><time>2026-04-18T11:37:06.001Z</time></trkpt><trkpt lat="44.87276158692796" lon="9.477965530816071"><ele>511.1666666666667</ele><time>2026-04-18T11:37:07.001Z</time></trkpt><trkpt lat="44.87272198271208" lon="9.477866330088192"><ele>511.33333333333337</ele><time>2026-04-18T11:37:08.002Z</time></trkpt><trkpt lat="44.872688720862634" lon="9.477766093977834"><ele>511.5</ele><time>2026-04-18T11:37:09.002Z</time></trkpt><trkpt lat="44.87263987522359" lon="9.477657796937885"><ele>511.66666666666663</ele><time>2026-04-18T11:37:10.002Z</time></trkpt><trkpt lat="44.8726127700603" lon="9.47755052938342"><ele>511.8333333333333</ele><time>2026-04-18T11:37:11.002Z</time></trkpt><trkpt lat="44.872557584731396" lon="9.477452601351086"><ele>512.0</ele><time>2026-04-18T11:37:12.002Z</time></trkpt><trkpt lat="44.87251405199361" lon="9.477352326276911"><ele>515.8000000000001</ele><time>2026-04-18T11:37:13.002Z</time></trkpt><trkpt lat="44.8724548265338" lon="9.477209601103574"><ele>519.6</ele><time>2026-04-18T11:37:15.002Z</time></trkpt><trkpt lat="44.8723979346575" lon="9.477118346484113"><ele>523.4000000000001</ele><time>2026-04-18T11:37:17.002Z</time></trkpt><trkpt lat="44.87229043741766" lon="9.477134068513303"><ele>527.2</ele><time>2026-04-18T11:37:19.002Z</time></trkpt><trkpt lat="44.872220572032724" lon="9.477101381288564"><ele>531.0</ele><time>2026-04-18T11:37:21.002Z</time></trkpt><trkpt lat="44.872145365083824" lon="9.477027646662547"><ele>531.0</ele><time>2026-04-18T11:37:24.002Z</time></trkpt><trkpt lat="44.872050957013194" lon="9.476910258295492"><ele>531.0</ele><time>2026-04-18T11:37:26.002Z</time></trkpt><trkpt lat="44.87199982637536" lon="9.476857993071144"><ele>531.0</ele><time>2026-04-18T11:37:27.002Z</time></trkpt><trkpt lat="44.87190461151028" lon="9.476760665400223"><ele>531.0</ele><time>2026-04-18T11:37:29.002Z</time></trkpt><trkpt lat="44.871814832792076" lon="9.476673238178163"><ele>531.0</ele><time>2026-04-18T11:37:31.002Z</time></trkpt><trkpt lat="44.871799781272486" lon="9.476515754175832"><ele>531.8</ele><time>2026-04-18T11:37:33.002Z</time></trkpt><trkpt lat="44.87175640163817" lon="9.47635458794846"><ele>532.6</ele><time>2026-04-18T11:37:35.002Z</time></trkpt><trkpt lat="44.871728983730996" lon="9.476179132244377"><ele>533.4</ele><time>2026-04-18T11:37:37.002Z</time></trkpt><trkpt lat="44.87169482442786" lon="9.476071384073508"><ele>534.2</ele><time>2026-04-18T11:37:38.002Z</time></trkpt><trkpt lat="44.871655139567565" lon="9.47595842764073"><ele>535.0</ele><time>2026-04-18T11:37:39.002Z</time></trkpt><trkpt lat="44.87159432642672" lon="9.475843205862953"><ele>535.0</ele><time>2026-04-18T11:37:40.002Z</time></trkpt><trkpt lat="44.871565232728216" lon="9.475708027818069"><ele>535.0</ele><time>2026-04-18T11:37:41.002Z</time></trkpt><trkpt lat="44.87151116377398" lon="9.475586902578065"><ele>535.0</ele><time>2026-04-18T11:37:42.003Z</time></trkpt><trkpt lat="44.87148944976487" lon="9.475441487276854"><ele>535.0</ele><time>2026-04-18T11:37:43.003Z</time></trkpt><trkpt lat="44.87145749481365" lon="9.475310497799867"><ele>535.0</ele><time>2026-04-18T11:37:44.003Z</time></trkpt><trkpt lat="44.871405209723854" lon="9.475184379935353"><ele>534.6</ele><time>2026-04-18T11:37:45.003Z</time></trkpt><trkpt lat="44.87136848087883" lon="9.475049498708255"><ele>534.2</ele><time>2026-04-18T11:37:46.003Z</time></trkpt><trkpt lat="44.87133301890152" lon="9.474925619684031"><ele>533.8</ele><time>2026-04-18T11:37:47.003Z</time></trkpt><trkpt lat="44.871287726225624" lon="9.474808723304653"><ele>533.4</ele><time>2026-04-18T11:37:48.003Z</time></trkpt><trkpt lat="44.87123986924049" lon="9.474686433998611"><ele>533.0</ele><time>2026-04-18T11:37:49.003Z</time></trkpt><trkpt lat="44.87119267052386" lon="9.47457487754069"><ele>532.6</ele><time>2026-04-18T11:37:50.003Z</time></trkpt><trkpt lat="44.87116155901469" lon="9.474442102997054"><ele>532.1999999999999</ele><time>2026-04-18T11:37:51.003Z</time></trkpt><trkpt lat="44.87112180224551" lon="9.474319972270823"><ele>531.8</ele><time>2026-04-18T11:37:52.003Z</time></trkpt><trkpt lat="44.871100375695676" lon="9.474202052404603"><ele>531.4</ele><time>2026-04-18T11:37:53.003Z</time></trkpt><trkpt lat="44.87110050375829" lon="9.47407748097364"><ele>531.0</ele><time>2026-04-18T11:37:54.003Z</time></trkpt><trkpt lat="44.871109034352116" lon="9.473954928068553"><ele>531.0</ele><time>2026-04-18T11:37:55.003Z</time></trkpt><trkpt lat="44.871115976263944" lon="9.473837738493394"><ele>531.0</ele><time>2026-04-18T11:37:56.003Z</time></trkpt><trkpt lat="44.87113774696991" lon="9.473753978773141"><ele>531.0</ele><time>2026-04-18T11:37:57.003Z</time></trkpt><trkpt lat="44.87113482147762" lon="9.47358615814959"><ele>531.0</ele><time>2026-04-18T11:37:59.003Z</time></trkpt><trkpt lat="44.87110888875386" lon="9.473456311357314"><ele>531.0</ele><time>2026-04-18T11:38:00.003Z</time></trkpt><trkpt lat="44.87103450270631" lon="9.473368631857028"><ele>531.5</ele><time>2026-04-18T11:38:01.003Z</time></trkpt><trkpt lat="44.870979076498955" lon="9.473268704294087"><ele>532.0</ele><time>2026-04-18T11:38:02.003Z</time></trkpt><trkpt lat="44.87094270989365" lon="9.473165192158417"><ele>532.5</ele><time>2026-04-18T11:38:03.003Z</time></trkpt><trkpt lat="44.87089259111012" lon="9.473076843474892"><ele>533.0</ele><time>2026-04-18T11:38:04.003Z</time></trkpt><trkpt lat="44.870842520531156" lon="9.472989622550244"><ele>533.5</ele><time>2026-04-18T11:38:05.003Z</time></trkpt><trkpt lat="44.8707877225045" lon="9.472896201153585"><ele>534.0</ele><time>2026-04-18T11:38:06.003Z</time></trkpt><trkpt lat="44.87073763957172" lon="9.472810818255377"><ele>534.0000000000001</ele><time>2026-04-18T11:38:07.003Z</time></trkpt><trkpt lat="44.87069105570499" lon="9.472730841113485"><ele>534.0</ele><time>2026-04-18T11:38:08.003Z</time></trkpt><trkpt lat="44.87064076259754" lon="9.472660418808415"><ele>534.0</ele><time>2026-04-18T11:38:09.003Z</time></trkpt><trkpt lat="44.87059304008579" lon="9.472591268126875"><ele>534.0</ele><time>2026-04-18T11:38:09.999Z</time></trkpt><trkpt lat="44.870552091267186" lon="9.472500847359672"><ele>534.0</ele><time>2026-04-18T11:38:10.999Z</time></trkpt><trkpt lat="44.87049038245718" lon="9.472437666480753"><ele>534.0000000000001</ele><time>2026-04-18T11:38:11.999Z</time></trkpt><trkpt lat="44.87042055677026" lon="9.472395707741951"><ele>534.0</ele><time>2026-04-18T11:38:12.999Z</time></trkpt><trkpt lat="44.87035003871424" lon="9.472358001093685"><ele>534.0</ele><time>2026-04-18T11:38:13.999Z</time></trkpt><trkpt lat="44.870285413" lon="9.472326225597634"><ele>534.0</ele><time>2026-04-18T11:38:14.999Z</time></trkpt><trkpt lat="44.870220589806785" lon="9.472300406958748"><ele>534.0</ele><time>2026-04-18T11:38:15.999Z</time></trkpt><trkpt lat="44.87013785446005" lon="9.472209108200508"><ele>534.0</ele><time>2026-04-18T11:38:17.999Z</time></trkpt><trkpt lat="44.87008420344612" lon="9.472144988882752"><ele>534.0</ele><time>2026-04-18T11:38:20.999Z</time></trkpt><trkpt lat="44.87001237812003" lon="9.472097843819363"><ele>534.0</ele><time>2026-04-18T11:38:25Z</time></trkpt><trkpt lat="44.869936888467144" lon="9.47206278509609"><ele>534.8</ele><time>2026-04-18T11:38:28Z</time></trkpt><trkpt lat="44.86987761854959" lon="9.472019548941278"><ele>535.5999999999999</ele><time>2026-04-18T11:38:35Z</time></trkpt><trkpt lat="44.86980374330191" lon="9.471917992973628"><ele>536.4</ele><time>2026-04-18T11:38:37Z</time></trkpt><trkpt lat="44.869737429999894" lon="9.471750187741154"><ele>537.1999999999999</ele><time>2026-04-18T11:38:39Z</time></trkpt><trkpt lat="44.86968973886718" lon="9.471671095393704"><ele>538.0</ele><time>2026-04-18T11:38:40Z</time></trkpt><trkpt lat="44.86963928489666" lon="9.471585269120848"><ele>538.0</ele><time>2026-04-18T11:38:41Z</time></trkpt><trkpt lat="44.869594950708354" lon="9.471489744814145"><ele>538.0</ele><time>2026-04-18T11:38:42Z</time></trkpt><trkpt lat="44.869577566487926" lon="9.471384737471986"><ele>538.0</ele><time>2026-04-18T11:38:43Z</time></trkpt><trkpt lat="44.86954692452258" lon="9.471305212233071"><ele>538.0</ele><time>2026-04-18T11:38:44Z</time></trkpt><trkpt lat="44.869509461450996" lon="9.471137441715989"><ele>538.0</ele><time>2026-04-18T11:38:46.001Z</time></trkpt><trkpt lat="44.86952111990648" lon="9.471038277171157"><ele>538.0</ele><time>2026-04-18T11:38:47.001Z</time></trkpt><trkpt lat="44.86953430974272" lon="9.47093373129962"><ele>537.6666666666667</ele><time>2026-04-18T11:38:48.001Z</time></trkpt><trkpt lat="44.86955164583881" lon="9.47083632929269"><ele>537.3333333333334</ele><time>2026-04-18T11:38:49.001Z</time></trkpt><trkpt lat="44.86953489360883" lon="9.47072419111458"><ele>537.0</ele><time>2026-04-18T11:38:50.001Z</time></trkpt><trkpt lat="44.86948940430659" lon="9.47061958631575"><ele>536.6666666666666</ele><time>2026-04-18T11:38:51.001Z</time></trkpt><trkpt lat="44.86947969154618" lon="9.470525195619429"><ele>536.3333333333333</ele><time>2026-04-18T11:38:52.001Z</time></trkpt><trkpt lat="44.86949528444169" lon="9.47042252657886"><ele>536.0</ele><time>2026-04-18T11:38:53.001Z</time></trkpt><trkpt lat="44.86947312184979" lon="9.470320869365464"><ele>537.1666666666666</ele><time>2026-04-18T11:38:54.001Z</time></trkpt><trkpt lat="44.86945852140739" lon="9.470226396487378"><ele>538.3333333333333</ele><time>2026-04-18T11:38:55.001Z</time></trkpt><trkpt lat="44.869440138889296" lon="9.470132000975793"><ele>539.5</ele><time>2026-04-18T11:38:56.001Z</time></trkpt><trkpt lat="44.86941232025786" lon="9.470034242692693"><ele>540.6666666666666</ele><time>2026-04-18T11:38:57.001Z</time></trkpt><trkpt lat="44.86939653936202" lon="9.46991382986176"><ele>541.8333333333334</ele><time>2026-04-18T11:38:58.001Z</time></trkpt><trkpt lat="44.869345844451644" lon="9.469818398037724"><ele>543.0</ele><time>2026-04-18T11:38:59.001Z</time></trkpt><trkpt lat="44.8693010635868" lon="9.469714100199502"><ele>545.8</ele><time>2026-04-18T11:39:00.001Z</time></trkpt><trkpt lat="44.8692762866739" lon="9.469592194169367"><ele>548.5999999999999</ele><time>2026-04-18T11:39:01.001Z</time></trkpt><trkpt lat="44.86924937124956" lon="9.469471993200418"><ele>551.4000000000001</ele><time>2026-04-18T11:39:02.001Z</time></trkpt><trkpt lat="44.86922583156291" lon="9.469368994491246"><ele>554.2</ele><time>2026-04-18T11:39:03.001Z</time></trkpt><trkpt lat="44.869202744421436" lon="9.469212866714894"><ele>557.0</ele><time>2026-04-18T11:39:05.001Z</time></trkpt><trkpt lat="44.86928529522371" lon="9.469117448773675"><ele>557.0</ele><time>2026-04-18T11:39:07.001Z</time></trkpt><trkpt lat="44.869324723141055" lon="9.469041586006135"><ele>557.0</ele><time>2026-04-18T11:39:08.001Z</time></trkpt><trkpt lat="44.86938753840982" lon="9.468984441103489"><ele>557.0</ele><time>2026-04-18T11:39:09.001Z</time></trkpt><trkpt lat="44.86945234197032" lon="9.468926147106973"><ele>557.0</ele><time>2026-04-18T11:39:10.001Z</time></trkpt><trkpt lat="44.86952324372975" lon="9.468864962858415"><ele>557.0</ele><time>2026-04-18T11:39:11.001Z</time></trkpt><trkpt lat="44.869597162843945" lon="9.468811402916163"><ele>557.0</ele><time>2026-04-18T11:39:12.001Z</time></trkpt><trkpt lat="44.8696685829636" lon="9.468765284464832"><ele>559.3333333333333</ele><time>2026-04-18T11:39:13.001Z</time></trkpt><trkpt lat="44.869745225625124" lon="9.468716764093399"><ele>561.6666666666666</ele><time>2026-04-18T11:39:14.002Z</time></trkpt><trkpt lat="44.86981290571813" lon="9.46866997779172"><ele>564.0</ele><time>2026-04-18T11:39:15.002Z</time></trkpt><trkpt lat="44.86987765426511" lon="9.46862322297382"><ele>566.3333333333334</ele><time>2026-04-18T11:39:16.002Z</time></trkpt><trkpt lat="44.86994208620802" lon="9.468559007277943"><ele>568.6666666666667</ele><time>2026-04-18T11:39:17.002Z</time></trkpt><trkpt lat="44.870004632924285" lon="9.468473899027314"><ele>571.0</ele><time>2026-04-18T11:39:18.002Z</time></trkpt><trkpt lat="44.8700698035572" lon="9.468387566494886"><ele>570.1428571428571</ele><time>2026-04-18T11:39:19.002Z</time></trkpt><trkpt lat="44.8701334850568" lon="9.468314650605999"><ele>569.2857142857142</ele><time>2026-04-18T11:39:20.002Z</time></trkpt><trkpt lat="44.87019218889599" lon="9.46825590308098"><ele>568.4285714285713</ele><time>2026-04-18T11:39:21.002Z</time></trkpt><trkpt lat="44.87025568939049" lon="9.468189382807246"><ele>567.5714285714286</ele><time>2026-04-18T11:39:22.002Z</time></trkpt><trkpt lat="44.87031216286185" lon="9.468124982366502"><ele>566.7142857142857</ele><time>2026-04-18T11:39:23.002Z</time></trkpt><trkpt lat="44.87035855219371" lon="9.46806389974852"><ele>565.8571428571428</ele><time>2026-04-18T11:39:24.002Z</time></trkpt><trkpt lat="44.87040442213608" lon="9.46797738958964"><ele>565.0</ele><time>2026-04-18T11:39:26.002Z</time></trkpt><trkpt lat="44.87041664577095" lon="9.467866995149548"><ele>563.8</ele><time>2026-04-18T11:39:28.002Z</time></trkpt><trkpt lat="44.870321080451276" lon="9.467763911303292"><ele>562.6</ele><time>2026-04-18T11:39:30.002Z</time></trkpt><trkpt lat="44.870260823320876" lon="9.467666018309087"><ele>561.4</ele><time>2026-04-18T11:39:32.002Z</time></trkpt><trkpt lat="44.870285013134044" lon="9.467496628894052"><ele>560.2</ele><time>2026-04-18T11:39:34.002Z</time></trkpt><trkpt lat="44.87026523223085" lon="9.467396150899077"><ele>559.0</ele><time>2026-04-18T11:39:35.002Z</time></trkpt><trkpt lat="44.87022062972848" lon="9.467305449344215"><ele>559.0</ele><time>2026-04-18T11:39:36.002Z</time></trkpt><trkpt lat="44.87018369755789" lon="9.467203490693624"><ele>559.0</ele><time>2026-04-18T11:39:37.002Z</time></trkpt><trkpt lat="44.870134685586564" lon="9.46708998796538"><ele>559.0</ele><time>2026-04-18T11:39:38.002Z</time></trkpt><trkpt lat="44.8700824973871" lon="9.46697637763245"><ele>559.0</ele><time>2026-04-18T11:39:39.002Z</time></trkpt><trkpt lat="44.87004299024476" lon="9.466861445607734"><ele>559.0</ele><time>2026-04-18T11:39:40.002Z</time></trkpt><trkpt lat="44.86999432410519" lon="9.466754007722573"><ele>561.5</ele><time>2026-04-18T11:39:41.002Z</time></trkpt><trkpt lat="44.8699494867438" lon="9.46663814151459"><ele>564.0</ele><time>2026-04-18T11:39:42.002Z</time></trkpt><trkpt lat="44.86992383646947" lon="9.466516165760686"><ele>566.5</ele><time>2026-04-18T11:39:43.002Z</time></trkpt><trkpt lat="44.86990564793318" lon="9.466401973437328"><ele>569.0</ele><time>2026-04-18T11:39:44.002Z</time></trkpt><trkpt lat="44.8698878553866" lon="9.466280863152969"><ele>571.5</ele><time>2026-04-18T11:39:45.002Z</time></trkpt><trkpt lat="44.869869966180914" lon="9.466157195210933"><ele>574.0</ele><time>2026-04-18T11:39:46.002Z</time></trkpt><trkpt lat="44.86984628872141" lon="9.466038674449575"><ele>574.0</ele><time>2026-04-18T11:39:47.003Z</time></trkpt><trkpt lat="44.869816549469334" lon="9.465921816173209"><ele>574.0</ele><time>2026-04-18T11:39:48.003Z</time></trkpt><trkpt lat="44.86978389483521" lon="9.465805897754805"><ele>574.0</ele><time>2026-04-18T11:39:49.003Z</time></trkpt><trkpt lat="44.86975027156517" lon="9.465687947210116"><ele>574.0</ele><time>2026-04-18T11:39:50.003Z</time></trkpt><trkpt lat="44.86971210824785" lon="9.465575062863817"><ele>574.0</ele><time>2026-04-18T11:39:51.003Z</time></trkpt><trkpt lat="44.86967396507086" lon="9.465453458282951"><ele>574.0</ele><time>2026-04-18T11:39:52.003Z</time></trkpt><trkpt lat="44.86964164888423" lon="9.465342090657265"><ele>573.5</ele><time>2026-04-18T11:39:53.003Z</time></trkpt><trkpt lat="44.86960610058664" lon="9.46523803189618"><ele>573.0</ele><time>2026-04-18T11:39:54.003Z</time></trkpt><trkpt lat="44.869579949289125" lon="9.465129212412942"><ele>572.5</ele><time>2026-04-18T11:39:55.003Z</time></trkpt><trkpt lat="44.86957761276241" lon="9.465015138220235"><ele>572.0</ele><time>2026-04-18T11:39:56.003Z</time></trkpt><trkpt lat="44.86959130348523" lon="9.464897815991117"><ele>571.5</ele><time>2026-04-18T11:39:57.003Z</time></trkpt><trkpt lat="44.86959093401271" lon="9.464805999764234"><ele>571.0</ele><time>2026-04-18T11:39:58.003Z</time></trkpt><trkpt lat="44.86955959743249" lon="9.464680164469595"><ele>571.5</ele><time>2026-04-18T11:39:59.003Z</time></trkpt><trkpt lat="44.86952857810894" lon="9.464563851562529"><ele>572.0</ele><time>2026-04-18T11:40:00.003Z</time></trkpt><trkpt lat="44.869499751274326" lon="9.464435835864235"><ele>572.5</ele><time>2026-04-18T11:40:01.003Z</time></trkpt><trkpt lat="44.8694725494946" lon="9.464310367769581"><ele>573.0</ele><time>2026-04-18T11:40:02.003Z</time></trkpt><trkpt lat="44.86947235148895" lon="9.464185838139905"><ele>573.5</ele><time>2026-04-18T11:40:03.003Z</time></trkpt><trkpt lat="44.86946491983467" lon="9.46406672718188"><ele>574.0</ele><time>2026-04-18T11:40:04.003Z</time></trkpt><trkpt lat="44.86947285745075" lon="9.463967573472777"><ele>574.0</ele><time>2026-04-18T11:40:05.003Z</time></trkpt><trkpt lat="44.86950261349948" lon="9.463886470985978"><ele>574.0</ele><time>2026-04-18T11:40:06.003Z</time></trkpt><trkpt lat="44.86954277593339" lon="9.463797650257598"><ele>574.0</ele><time>2026-04-18T11:40:07.003Z</time></trkpt><trkpt lat="44.869581628923875" lon="9.463704663547334"><ele>574.0</ele><time>2026-04-18T11:40:08.003Z</time></trkpt><trkpt lat="44.869645278556575" lon="9.46364110903079"><ele>574.0</ele><time>2026-04-18T11:40:09.003Z</time></trkpt><trkpt lat="44.86971280192953" lon="9.463596858617679"><ele>574.0</ele><time>2026-04-18T11:40:10.003Z</time></trkpt><trkpt lat="44.86977948352941" lon="9.463556989701473"><ele>574.0</ele><time>2026-04-18T11:40:11.003Z</time></trkpt><trkpt lat="44.869878005633915" lon="9.463492208053689"><ele>574.3333333333334</ele><time>2026-04-18T11:40:13.003Z</time></trkpt><trkpt lat="44.869932859557665" lon="9.46342515165852"><ele>574.6666666666667</ele><time>2026-04-18T11:40:15.003Z</time></trkpt><trkpt lat="44.86993102854686" lon="9.463304256562674"><ele>575.0</ele><time>2026-04-18T11:40:16.999Z</time></trkpt><trkpt lat="44.86987025198554" lon="9.463246290733833"><ele>575.3333333333334</ele><time>2026-04-18T11:40:17.999Z</time></trkpt><trkpt lat="44.869809433219345" lon="9.46320573951882"><ele>575.6666666666666</ele><time>2026-04-18T11:40:18.999Z</time></trkpt><trkpt lat="44.86974231830406" lon="9.463146070511502"><ele>576.0</ele><time>2026-04-18T11:40:19.999Z</time></trkpt><trkpt lat="44.869676761378486" lon="9.463089732276735"><ele>576.0</ele><time>2026-04-18T11:40:20.999Z</time></trkpt><trkpt lat="44.86962901526381" lon="9.463024616125864"><ele>576.0</ele><time>2026-04-18T11:40:21.999Z</time></trkpt><trkpt lat="44.86958152182966" lon="9.462955123426187"><ele>576.0</ele><time>2026-04-18T11:40:22.999Z</time></trkpt><trkpt lat="44.86953499303005" lon="9.462885586546017"><ele>576.0</ele><time>2026-04-18T11:40:23.999Z</time></trkpt><trkpt lat="44.86948055132967" lon="9.462740884791558"><ele>576.0</ele><time>2026-04-18T11:40:25.999Z</time></trkpt><trkpt lat="44.86948947961457" lon="9.462580881848924"><ele>576.0</ele><time>2026-04-18T11:40:28Z</time></trkpt><trkpt lat="44.86952427472909" lon="9.4624044347808"><ele>574.3333333333334</ele><time>2026-04-18T11:40:30Z</time></trkpt><trkpt lat="44.86954491400591" lon="9.462301004265813"><ele>572.6666666666666</ele><time>2026-04-18T11:40:31Z</time></trkpt><trkpt lat="44.86954127658945" lon="9.462197934394792"><ele>571.0</ele><time>2026-04-18T11:40:32Z</time></trkpt><trkpt lat="44.86956652657164" lon="9.462089403181773"><ele>569.3333333333333</ele><time>2026-04-18T11:40:33Z</time></trkpt><trkpt lat="44.869559926122086" lon="9.461963722538531"><ele>567.6666666666666</ele><time>2026-04-18T11:40:34Z</time></trkpt><trkpt lat="44.86956366306657" lon="9.46185518621778"><ele>566.0</ele><time>2026-04-18T11:40:35Z</time></trkpt><trkpt lat="44.869573761232544" lon="9.461754370611956"><ele>565.4</ele><time>2026-04-18T11:40:36Z</time></trkpt><trkpt lat="44.86956056732378" lon="9.461590208273629"><ele>564.8</ele><time>2026-04-18T11:40:38Z</time></trkpt><trkpt lat="44.869520822554485" lon="9.461440794573466"><ele>564.1999999999999</ele><time>2026-04-18T11:40:40Z</time></trkpt><trkpt lat="44.86946114006309" lon="9.461385830275207"><ele>563.6</ele><time>2026-04-18T11:40:41Z</time></trkpt><trkpt lat="44.86938966564239" lon="9.461334755126058"><ele>563.0</ele><time>2026-04-18T11:40:42Z</time></trkpt><trkpt lat="44.86932439807797" lon="9.46129758740716"><ele>566.8333333333333</ele><time>2026-04-18T11:40:43Z</time></trkpt><trkpt lat="44.86925181920655" lon="9.461260621501074"><ele>570.6666666666666</ele><time>2026-04-18T11:40:44Z</time></trkpt><trkpt lat="44.86917598596912" lon="9.461237014764963"><ele>574.5</ele><time>2026-04-18T11:40:45Z</time></trkpt><trkpt lat="44.86910332671065" lon="9.461133929849861"><ele>578.3333333333334</ele><time>2026-04-18T11:40:46Z</time></trkpt><trkpt lat="44.86905301002897" lon="9.461019241600017"><ele>582.1666666666667</ele><time>2026-04-18T11:40:47Z</time></trkpt><trkpt lat="44.86901153904672" lon="9.460899274920642"><ele>586.0</ele><time>2026-04-18T11:40:48Z</time></trkpt><trkpt lat="44.8689679328836" lon="9.460789559182844"><ele>586.0</ele><time>2026-04-18T11:40:49Z</time></trkpt><trkpt lat="44.868938685183124" lon="9.460670527986569"><ele>586.0</ele><time>2026-04-18T11:40:50Z</time></trkpt><trkpt lat="44.86890994670223" lon="9.460555756857266"><ele>586.0</ele><time>2026-04-18T11:40:51Z</time></trkpt><trkpt lat="44.86888012886889" lon="9.460439001932206"><ele>586.0</ele><time>2026-04-18T11:40:52.001Z</time></trkpt><trkpt lat="44.868859185794854" lon="9.460314514670998"><ele>586.0</ele><time>2026-04-18T11:40:53.001Z</time></trkpt><trkpt lat="44.86886492220315" lon="9.46020856176396"><ele>586.0</ele><time>2026-04-18T11:40:54.001Z</time></trkpt><trkpt lat="44.8688631355467" lon="9.46009978290965"><ele>585.6666666666667</ele><time>2026-04-18T11:40:55.001Z</time></trkpt><trkpt lat="44.86886866864508" lon="9.460002366465307"><ele>585.3333333333334</ele><time>2026-04-18T11:40:56.001Z</time></trkpt><trkpt lat="44.86883220142364" lon="9.459851434375675"><ele>585.0</ele><time>2026-04-18T11:40:58.001Z</time></trkpt><trkpt lat="44.868769591752134" lon="9.459753678396055"><ele>584.6666666666666</ele><time>2026-04-18T11:40:59.001Z</time></trkpt><trkpt lat="44.868729874108034" lon="9.459653484987806"><ele>584.3333333333333</ele><time>2026-04-18T11:41:00.001Z</time></trkpt><trkpt lat="44.868686364567665" lon="9.459567970622318"><ele>584.0</ele><time>2026-04-18T11:41:01.001Z</time></trkpt><trkpt lat="44.868617692981616" lon="9.459506900112652"><ele>584.0</ele><time>2026-04-18T11:41:02.001Z</time></trkpt><trkpt lat="44.868551410927275" lon="9.459465485090115"><ele>584.0</ele><time>2026-04-18T11:41:03.001Z</time></trkpt><trkpt lat="44.86848524012511" lon="9.459401941895358"><ele>584.0</ele><time>2026-04-18T11:41:04.001Z</time></trkpt><trkpt lat="44.86841809690143" lon="9.459369308654734"><ele>584.0</ele><time>2026-04-18T11:41:05.001Z</time></trkpt><trkpt lat="44.86835474543827" lon="9.459367188567274"><ele>584.0</ele><time>2026-04-18T11:41:06.001Z</time></trkpt><trkpt lat="44.868259609844166" lon="9.459337660933246"><ele>584.0</ele><time>2026-04-18T11:41:08.001Z</time></trkpt><trkpt lat="44.86821079691754" lon="9.459227924741576"><ele>585.2</ele><time>2026-04-18T11:41:10.001Z</time></trkpt><trkpt lat="44.86822416347529" lon="9.459072045599475"><ele>586.4</ele><time>2026-04-18T11:41:12.001Z</time></trkpt><trkpt lat="44.86828034074999" lon="9.458997743790468"><ele>587.6</ele><time>2026-04-18T11:41:13.001Z</time></trkpt><trkpt lat="44.86838067432361" lon="9.458860644265517"><ele>588.8</ele><time>2026-04-18T11:41:15.001Z</time></trkpt><trkpt lat="44.868424467415245" lon="9.458757395957806"><ele>590.0</ele><time>2026-04-18T11:41:16.001Z</time></trkpt><trkpt lat="44.86845601056948" lon="9.458668354644777"><ele>590.0</ele><time>2026-04-18T11:41:17.001Z</time></trkpt><trkpt lat="44.86848102063386" lon="9.458581245667386"><ele>590.0</ele><time>2026-04-18T11:41:18.001Z</time></trkpt><trkpt lat="44.86850724601611" lon="9.458443441568546"><ele>590.0</ele><time>2026-04-18T11:41:20.001Z</time></trkpt><trkpt lat="44.86850287384376" lon="9.458349442155809"><ele>590.0</ele><time>2026-04-18T11:41:21.001Z</time></trkpt><trkpt lat="44.86851614175564" lon="9.458234023795175"><ele>590.0</ele><time>2026-04-18T11:41:22.001Z</time></trkpt><trkpt lat="44.868558976702" lon="9.458149481625885"><ele>590.0</ele><time>2026-04-18T11:41:23.002Z</time></trkpt><trkpt lat="44.86861680607045" lon="9.458099659481197"><ele>590.0</ele><time>2026-04-18T11:41:24.002Z</time></trkpt><trkpt lat="44.868690683515936" lon="9.45799033215603"><ele>590.0</ele><time>2026-04-18T11:41:26.002Z</time></trkpt><trkpt lat="44.8687200325258" lon="9.457905553061376"><ele>590.0</ele><time>2026-04-18T11:41:27.002Z</time></trkpt><trkpt lat="44.86870970189566" lon="9.457797498477518"><ele>590.0</ele><time>2026-04-18T11:41:28.002Z</time></trkpt><trkpt lat="44.86870280598241" lon="9.457705187463405"><ele>590.0</ele><time>2026-04-18T11:41:29.002Z</time></trkpt><trkpt lat="44.868707204085666" lon="9.457606677360527"><ele>590.0</ele><time>2026-04-18T11:41:30.002Z</time></trkpt><trkpt lat="44.86873370446581" lon="9.457511957624806"><ele>591.0</ele><time>2026-04-18T11:41:31.002Z</time></trkpt><trkpt lat="44.868780744707244" lon="9.457447473584699"><ele>592.0</ele><time>2026-04-18T11:41:32.002Z</time></trkpt><trkpt lat="44.86881664789573" lon="9.457362400888467"><ele>593.0</ele><time>2026-04-18T11:41:33.002Z</time></trkpt><trkpt lat="44.86884084773558" lon="9.457258671038426"><ele>594.0</ele><time>2026-04-18T11:41:34.002Z</time></trkpt><trkpt lat="44.86886312333516" lon="9.457145990940226"><ele>595.0</ele><time>2026-04-18T11:41:35.002Z</time></trkpt><trkpt lat="44.86891757463135" lon="9.457055909966373"><ele>596.0</ele><time>2026-04-18T11:41:36.002Z</time></trkpt><trkpt lat="44.86895097384872" lon="9.456936860744927"><ele>595.0</ele><time>2026-04-18T11:41:37.002Z</time></trkpt><trkpt lat="44.86901692923788" lon="9.456848310438025"><ele>594.0</ele><time>2026-04-18T11:41:38.002Z</time></trkpt><trkpt lat="44.86909252634313" lon="9.456785271512544"><ele>593.0</ele><time>2026-04-18T11:41:39.002Z</time></trkpt><trkpt lat="44.86915303008185" lon="9.45673722878736"><ele>592.0</ele><time>2026-04-18T11:41:40.002Z</time></trkpt><trkpt lat="44.869208525757216" lon="9.45668716776342"><ele>591.0</ele><time>2026-04-18T11:41:41.002Z</time></trkpt><trkpt lat="44.86925478574804" lon="9.456583828349503"><ele>590.0</ele><time>2026-04-18T11:41:42.002Z</time></trkpt><trkpt lat="44.8692803451722" lon="9.456477083030133"><ele>590.0</ele><time>2026-04-18T11:41:43.002Z</time></trkpt><trkpt lat="44.86930001339879" lon="9.456361821607585"><ele>590.0</ele><time>2026-04-18T11:41:44.002Z</time></trkpt><trkpt lat="44.86932057675319" lon="9.456229657188912"><ele>590.0</ele><time>2026-04-18T11:41:45.002Z</time></trkpt><trkpt lat="44.869322758067035" lon="9.456104099628638"><ele>590.0</ele><time>2026-04-18T11:41:46.002Z</time></trkpt><trkpt lat="44.86933671616575" lon="9.455979809645711"><ele>590.0</ele><time>2026-04-18T11:41:47.002Z</time></trkpt><trkpt lat="44.86933839387521" lon="9.455864745409812"><ele>590.0</ele><time>2026-04-18T11:41:48.002Z</time></trkpt><trkpt lat="44.869359780678884" lon="9.455740436123698"><ele>591.1428571428572</ele><time>2026-04-18T11:41:49.002Z</time></trkpt><trkpt lat="44.86935976214865" lon="9.455634176102448"><ele>592.2857142857143</ele><time>2026-04-18T11:41:50.002Z</time></trkpt><trkpt lat="44.86933743118782" lon="9.455519784725022"><ele>593.4285714285714</ele><time>2026-04-18T11:41:51.002Z</time></trkpt><trkpt lat="44.86933032034852" lon="9.455411120077194"><ele>594.5714285714287</ele><time>2026-04-18T11:41:52.002Z</time></trkpt><trkpt lat="44.869337367365056" lon="9.455309800059945"><ele>595.7142857142858</ele><time>2026-04-18T11:41:53.002Z</time></trkpt><trkpt lat="44.869358591600104" lon="9.45521969597027"><ele>596.8571428571429</ele><time>2026-04-18T11:41:54.002Z</time></trkpt><trkpt lat="44.86940288619833" lon="9.455138623909074"><ele>598.0</ele><time>2026-04-18T11:41:55.002Z</time></trkpt><trkpt lat="44.869467858882125" lon="9.455074819550228"><ele>600.5</ele><time>2026-04-18T11:41:56.003Z</time></trkpt><trkpt lat="44.8695413693702" lon="9.455019002198119"><ele>603.0</ele><time>2026-04-18T11:41:57.003Z</time></trkpt><trkpt lat="44.86961754821917" lon="9.454966417600524"><ele>605.5</ele><time>2026-04-18T11:41:58.003Z</time></trkpt><trkpt lat="44.86968023294759" lon="9.45489319102162"><ele>608.0</ele><time>2026-04-18T11:41:59.003Z</time></trkpt><trkpt lat="44.869739482551736" lon="9.454808440688648"><ele>610.5</ele><time>2026-04-18T11:42:00.003Z</time></trkpt><trkpt lat="44.869782627312695" lon="9.454731322599297"><ele>613.0</ele><time>2026-04-18T11:42:01.003Z</time></trkpt><trkpt lat="44.86985386965546" lon="9.454665390415691"><ele>613.0</ele><time>2026-04-18T11:42:02.003Z</time></trkpt><trkpt lat="44.86991844907375" lon="9.454626581008222"><ele>613.0</ele><time>2026-04-18T11:42:03.003Z</time></trkpt><trkpt lat="44.870001204568425" lon="9.454568655605016"><ele>613.0</ele><time>2026-04-18T11:42:05.003Z</time></trkpt><trkpt lat="44.870032814180085" lon="9.454455911955074"><ele>613.0</ele><time>2026-04-18T11:42:07.003Z</time></trkpt><trkpt lat="44.87003083357599" lon="9.454297822427"><ele>613.0</ele><time>2026-04-18T11:42:09.003Z</time></trkpt><trkpt lat="44.87003849830548" lon="9.454110850116201"><ele>612.0</ele><time>2026-04-18T11:42:11.003Z</time></trkpt><trkpt lat="44.87005139251407" lon="9.454009348883675"><ele>611.0</ele><time>2026-04-18T11:42:12.003Z</time></trkpt><trkpt lat="44.87007719313007" lon="9.453910310584035"><ele>610.0</ele><time>2026-04-18T11:42:13.003Z</time></trkpt><trkpt lat="44.870101663969734" lon="9.453817894342494"><ele>609.0</ele><time>2026-04-18T11:42:14.003Z</time></trkpt><trkpt lat="44.87012374247661" lon="9.453728391409504"><ele>608.0</ele><time>2026-04-18T11:42:15.003Z</time></trkpt><trkpt lat="44.870141105839465" lon="9.45363982847462"><ele>607.0</ele><time>2026-04-18T11:42:16.003Z</time></trkpt><trkpt lat="44.87009826799262" lon="9.453476249521566"><ele>610.1666666666667</ele><time>2026-04-18T11:42:18.003Z</time></trkpt><trkpt lat="44.87007489907671" lon="9.453391436018292"><ele>613.3333333333334</ele><time>2026-04-18T11:42:19.003Z</time></trkpt><trkpt lat="44.870061673778906" lon="9.453277218963182"><ele>616.5</ele><time>2026-04-18T11:42:20.003Z</time></trkpt><trkpt lat="44.8700384922115" lon="9.453184489117715"><ele>619.6666666666666</ele><time>2026-04-18T11:42:21.003Z</time></trkpt><trkpt lat="44.86998118101806" lon="9.453093913157467"><ele>622.8333333333333</ele><time>2026-04-18T11:42:21.999Z</time></trkpt><trkpt lat="44.86992860106245" lon="9.453026191603204"><ele>626.0</ele><time>2026-04-18T11:42:22.999Z</time></trkpt><trkpt lat="44.869858107973116" lon="9.45294402597551"><ele>626.0</ele><time>2026-04-18T11:42:23.999Z</time></trkpt><trkpt lat="44.869810788642255" lon="9.452855134150774"><ele>626.0</ele><time>2026-04-18T11:42:24.999Z</time></trkpt><trkpt lat="44.86973518055788" lon="9.452790873910738"><ele>626.0</ele><time>2026-04-18T11:42:25.999Z</time></trkpt><trkpt lat="44.86968617082242" lon="9.45269880876613"><ele>626.0</ele><time>2026-04-18T11:42:26.999Z</time></trkpt><trkpt lat="44.869617119237745" lon="9.452636728200616"><ele>626.0</ele><time>2026-04-18T11:42:27.999Z</time></trkpt><trkpt lat="44.869562870801126" lon="9.452545395898094"><ele>626.0</ele><time>2026-04-18T11:42:28.999Z</time></trkpt><trkpt lat="44.869490930951514" lon="9.452466620087872"><ele>626.0</ele><time>2026-04-18T11:42:29.999Z</time></trkpt><trkpt lat="44.86942975119122" lon="9.452369764840782"><ele>626.0</ele><time>2026-04-18T11:42:30.999Z</time></trkpt><trkpt lat="44.86936691708413" lon="9.452275796352264"><ele>626.0</ele><time>2026-04-18T11:42:31.999Z</time></trkpt><trkpt lat="44.869318810370075" lon="9.452177206352676"><ele>626.0</ele><time>2026-04-18T11:42:32.999Z</time></trkpt><trkpt lat="44.869282279046445" lon="9.452076240717199"><ele>626.0</ele><time>2026-04-18T11:42:33.999Z</time></trkpt><trkpt lat="44.86922959721185" lon="9.451959236418187"><ele>626.0</ele><time>2026-04-18T11:42:34.999Z</time></trkpt><trkpt lat="44.869158021675716" lon="9.451830906540447"><ele>625.6</ele><time>2026-04-18T11:42:35.999Z</time></trkpt><trkpt lat="44.86909366111731" lon="9.451728785683407"><ele>625.2</ele><time>2026-04-18T11:42:36.999Z</time></trkpt><trkpt lat="44.86904552225617" lon="9.451628315296782"><ele>624.8</ele><time>2026-04-18T11:42:38Z</time></trkpt><trkpt lat="44.86902064029066" lon="9.451528406368427"><ele>624.4</ele><time>2026-04-18T11:42:39Z</time></trkpt><trkpt lat="44.86900779443709" lon="9.451361128732353"><ele>624.0</ele><time>2026-04-18T11:42:41Z</time></trkpt><trkpt lat="44.86895037732103" lon="9.451218582099152"><ele>624.0</ele><time>2026-04-18T11:42:43Z</time></trkpt><trkpt lat="44.86889376416191" lon="9.45115086957633"><ele>624.0</ele><time>2026-04-18T11:42:44Z</time></trkpt><trkpt lat="44.86881554656952" lon="9.451086906199112"><ele>624.0</ele><time>2026-04-18T11:42:45Z</time></trkpt><trkpt lat="44.86873239630579" lon="9.451014207145517"><ele>624.0</ele><time>2026-04-18T11:42:46Z</time></trkpt><trkpt lat="44.86866781323277" lon="9.45093970190654"><ele>624.0</ele><time>2026-04-18T11:42:47Z</time></trkpt><trkpt lat="44.86859432281357" lon="9.450879071014672"><ele>624.0</ele><time>2026-04-18T11:42:48Z</time></trkpt><trkpt lat="44.86852421960155" lon="9.450823617328632"><ele>625.6666666666666</ele><time>2026-04-18T11:42:49Z</time></trkpt><trkpt lat="44.86844165325992" lon="9.450805018693334"><ele>627.3333333333334</ele><time>2026-04-18T11:42:50Z</time></trkpt><trkpt lat="44.86838253999588" lon="9.450773597524181"><ele>629.0</ele><time>2026-04-18T11:42:51Z</time></trkpt><trkpt lat="44.868314217655296" lon="9.450652759569412"><ele>630.6666666666667</ele><time>2026-04-18T11:42:53Z</time></trkpt><trkpt lat="44.86831289399191" lon="9.450553532200912"><ele>632.3333333333334</ele><time>2026-04-18T11:42:54Z</time></trkpt><trkpt lat="44.868341661994464" lon="9.450438757269778"><ele>634.0</ele><time>2026-04-18T11:42:55Z</time></trkpt><trkpt lat="44.86832408595162" lon="9.450304845256207"><ele>634.0</ele><time>2026-04-18T11:42:56Z</time></trkpt><trkpt lat="44.86832404441165" lon="9.45019034863362"><ele>634.0</ele><time>2026-04-18T11:42:57Z</time></trkpt><trkpt lat="44.86830324985607" lon="9.450087650392655"><ele>634.0</ele><time>2026-04-18T11:42:58.001Z</time></trkpt><trkpt lat="44.86827807423497" lon="9.450004510904023"><ele>634.0</ele><time>2026-04-18T11:42:59.001Z</time></trkpt><trkpt lat="44.868254395994164" lon="9.449914870419114"><ele>634.0</ele><time>2026-04-18T11:43:00.001Z</time></trkpt><trkpt lat="44.868195272850365" lon="9.44984171740293"><ele>634.0</ele><time>2026-04-18T11:43:01.001Z</time></trkpt><trkpt lat="44.86814183833391" lon="9.4497440162376"><ele>634.0</ele><time>2026-04-18T11:43:02.001Z</time></trkpt><trkpt lat="44.868074132650264" lon="9.449662485371691"><ele>634.0</ele><time>2026-04-18T11:43:03.001Z</time></trkpt><trkpt lat="44.86800362801567" lon="9.449622741796887"><ele>634.0</ele><time>2026-04-18T11:43:04.001Z</time></trkpt><trkpt lat="44.86794341689576" lon="9.449572324913683"><ele>634.0</ele><time>2026-04-18T11:43:05.001Z</time></trkpt><trkpt lat="44.8678808382467" lon="9.44953902616022"><ele>634.0</ele><time>2026-04-18T11:43:06.001Z</time></trkpt><trkpt lat="44.86782023037894" lon="9.449479745465828"><ele>634.0</ele><time>2026-04-18T11:43:07.001Z</time></trkpt><trkpt lat="44.867746938939874" lon="9.449428842564048"><ele>633.3333333333334</ele><time>2026-04-18T11:43:08.001Z</time></trkpt><trkpt lat="44.86766358216136" lon="9.449324519250098"><ele>632.6666666666667</ele><time>2026-04-18T11:43:10.001Z</time></trkpt><trkpt lat="44.86759497370699" lon="9.449291132132313"><ele>632.0</ele><time>2026-04-18T11:43:12.001Z</time></trkpt><trkpt lat="44.86753214763638" lon="9.449275414897347"><ele>631.3333333333334</ele><time>2026-04-18T11:43:14.001Z</time></trkpt><trkpt lat="44.867479850945884" lon="9.449381317550715"><ele>630.6666666666666</ele><time>2026-04-18T11:43:16.001Z</time></trkpt><trkpt lat="44.86744055337066" lon="9.449507171322077"><ele>630.0</ele><time>2026-04-18T11:43:18.001Z</time></trkpt><trkpt lat="44.86738683521813" lon="9.44965958387273"><ele>633.2</ele><time>2026-04-18T11:43:20.001Z</time></trkpt><trkpt lat="44.86732659926815" lon="9.449819542310518"><ele>636.4</ele><time>2026-04-18T11:43:22.001Z</time></trkpt><trkpt lat="44.86727964175835" lon="9.44991976278084"><ele>639.5999999999999</ele><time>2026-04-18T11:43:23.001Z</time></trkpt><trkpt lat="44.867243917181156" lon="9.45001669269243"><ele>642.8</ele><time>2026-04-18T11:43:24.001Z</time></trkpt><trkpt lat="44.86720383099135" lon="9.450127628843314"><ele>646.0</ele><time>2026-04-18T11:43:25.001Z</time></trkpt><trkpt lat="44.86716769496036" lon="9.450241327733751"><ele>646.0</ele><time>2026-04-18T11:43:26.001Z</time></trkpt><trkpt lat="44.86713818213116" lon="9.450341292821998"><ele>646.0</ele><time>2026-04-18T11:43:27.002Z</time></trkpt><trkpt lat="44.867099833297125" lon="9.45045025824805"><ele>646.0</ele><time>2026-04-18T11:43:28.002Z</time></trkpt><trkpt lat="44.8670627195882" lon="9.45055589168461"><ele>646.0</ele><time>2026-04-18T11:43:29.002Z</time></trkpt><trkpt lat="44.86703003328094" lon="9.450658205014957"><ele>646.0</ele><time>2026-04-18T11:43:30.002Z</time></trkpt><trkpt lat="44.866997258561355" lon="9.450771891394892"><ele>646.0</ele><time>2026-04-18T11:43:31.002Z</time></trkpt><trkpt lat="44.866965695725604" lon="9.450874032196916"><ele>646.8333333333334</ele><time>2026-04-18T11:43:32.002Z</time></trkpt><trkpt lat="44.86693448662136" lon="9.450974211314948"><ele>647.6666666666667</ele><time>2026-04-18T11:43:33.002Z</time></trkpt><trkpt lat="44.866906530713344" lon="9.45106785774176"><ele>648.5</ele><time>2026-04-18T11:43:34.002Z</time></trkpt><trkpt lat="44.86687270560759" lon="9.451165737918267"><ele>649.3333333333334</ele><time>2026-04-18T11:43:35.002Z</time></trkpt><trkpt lat="44.86683263801614" lon="9.451255790282527"><ele>650.1666666666666</ele><time>2026-04-18T11:43:36.002Z</time></trkpt><trkpt lat="44.86678186010504" lon="9.45134334642175"><ele>651.0</ele><time>2026-04-18T11:43:37.002Z</time></trkpt><trkpt lat="44.86672844300873" lon="9.451422621487515"><ele>653.1428571428571</ele><time>2026-04-18T11:43:38.002Z</time></trkpt><trkpt lat="44.8666750799187" lon="9.451512028724856"><ele>655.2857142857142</ele><time>2026-04-18T11:43:39.002Z</time></trkpt><trkpt lat="44.86662375010027" lon="9.451597840748404"><ele>657.4285714285714</ele><time>2026-04-18T11:43:40.002Z</time></trkpt><trkpt lat="44.866575352823666" lon="9.451671566360753"><ele>659.5714285714286</ele><time>2026-04-18T11:43:41.002Z</time></trkpt><trkpt lat="44.86653072924919" lon="9.451740765218014"><ele>661.7142857142857</ele><time>2026-04-18T11:43:42.002Z</time></trkpt><trkpt lat="44.866481105752506" lon="9.451812377214651"><ele>663.8571428571429</ele><time>2026-04-18T11:43:43.002Z</time></trkpt><trkpt lat="44.86642664891102" lon="9.451883991714451"><ele>666.0</ele><time>2026-04-18T11:43:44.002Z</time></trkpt><trkpt lat="44.86637755591466" lon="9.451958909486725"><ele>666.0</ele><time>2026-04-18T11:43:45.002Z</time></trkpt><trkpt lat="44.86631247321715" lon="9.452044291518499"><ele>666.0</ele><time>2026-04-18T11:43:46.002Z</time></trkpt><trkpt lat="44.866231083119146" lon="9.452188039818092"><ele>666.0</ele><time>2026-04-18T11:43:48.002Z</time></trkpt><trkpt lat="44.86618681340174" lon="9.452271565462219"><ele>666.0</ele><time>2026-04-18T11:43:49.002Z</time></trkpt><trkpt lat="44.866138018374635" lon="9.45233585518373"><ele>666.0</ele><time>2026-04-18T11:43:50.002Z</time></trkpt><trkpt lat="44.86607510790714" lon="9.452379767518313"><ele>666.0</ele><time>2026-04-18T11:43:51.002Z</time></trkpt><trkpt lat="44.86600469368359" lon="9.452421162300011"><ele>669.0</ele><time>2026-04-18T11:43:52.002Z</time></trkpt><trkpt lat="44.86593335441307" lon="9.452461659461576"><ele>672.0</ele><time>2026-04-18T11:43:53.002Z</time></trkpt><trkpt lat="44.86585485176755" lon="9.452500763977662"><ele>675.0</ele><time>2026-04-18T11:43:54.002Z</time></trkpt><trkpt lat="44.86577683668926" lon="9.452541146971031"><ele>678.0</ele><time>2026-04-18T11:43:55.002Z</time></trkpt><trkpt lat="44.86569742430127" lon="9.452553055315647"><ele>681.0</ele><time>2026-04-18T11:43:56.002Z</time></trkpt><trkpt lat="44.86563053249557" lon="9.452605126847905"><ele>684.0</ele><time>2026-04-18T11:43:57.002Z</time></trkpt><trkpt lat="44.86555678820118" lon="9.452632574059946"><ele>683.9999999999999</ele><time>2026-04-18T11:43:58.002Z</time></trkpt><trkpt lat="44.86548448523482" lon="9.452662839764807"><ele>684.0</ele><time>2026-04-18T11:43:59.003Z</time></trkpt><trkpt lat="44.86542490110159" lon="9.452693401386473"><ele>684.0</ele><time>2026-04-18T11:44:00.003Z</time></trkpt><trkpt lat="44.86535773878083" lon="9.452737019963605"><ele>684.0</ele><time>2026-04-18T11:44:01.003Z</time></trkpt><trkpt lat="44.86529674627233" lon="9.452790018215794"><ele>684.0</ele><time>2026-04-18T11:44:02.003Z</time></trkpt><trkpt lat="44.86523963998855" lon="9.452850927144397"><ele>683.9999999999999</ele><time>2026-04-18T11:44:03.003Z</time></trkpt><trkpt lat="44.865186635294336" lon="9.452917803114968"><ele>684.0</ele><time>2026-04-18T11:44:04.003Z</time></trkpt><trkpt lat="44.865131781379674" lon="9.452986079617471"><ele>685.9999999999999</ele><time>2026-04-18T11:44:05.003Z</time></trkpt><trkpt lat="44.86507983311941" lon="9.453055770307142"><ele>688.0</ele><time>2026-04-18T11:44:06.003Z</time></trkpt><trkpt lat="44.86503702871282" lon="9.45312306742429"><ele>690.0</ele><time>2026-04-18T11:44:07.003Z</time></trkpt><trkpt lat="44.86499003255934" lon="9.453187912508383"><ele>692.0</ele><time>2026-04-18T11:44:08.003Z</time></trkpt><trkpt lat="44.86493281652359" lon="9.453255996410503"><ele>694.0</ele><time>2026-04-18T11:44:09.003Z</time></trkpt><trkpt lat="44.86487491012286" lon="9.4533070308089"><ele>695.9999999999999</ele><time>2026-04-18T11:44:10.003Z</time></trkpt><trkpt lat="44.86481701206224" lon="9.45335793452936"><ele>698.0</ele><time>2026-04-18T11:44:11.003Z</time></trkpt><trkpt lat="44.86475712118687" lon="9.45339133521976"><ele>698.0</ele><time>2026-04-18T11:44:12.003Z</time></trkpt><trkpt lat="44.864693230352" lon="9.453419737236574"><ele>698.0</ele><time>2026-04-18T11:44:13.003Z</time></trkpt><trkpt lat="44.86458853553925" lon="9.453491521110855"><ele>698.0</ele><time>2026-04-18T11:44:15.003Z</time></trkpt><trkpt lat="44.86449469210043" lon="9.453576844314085"><ele>698.0</ele><time>2026-04-18T11:44:17.003Z</time></trkpt><trkpt lat="44.864445623881196" lon="9.453634253215041"><ele>698.0</ele><time>2026-04-18T11:44:18.003Z</time></trkpt><trkpt lat="44.864405549814855" lon="9.453710763284818"><ele>698.0</ele><time>2026-04-18T11:44:19.003Z</time></trkpt><trkpt lat="44.864341218433346" lon="9.453756405499435"><ele>700.5</ele><time>2026-04-18T11:44:20.003Z</time></trkpt><trkpt lat="44.86428682053059" lon="9.453836122439212"><ele>703.0</ele><time>2026-04-18T11:44:21.003Z</time></trkpt><trkpt lat="44.86422375362326" lon="9.453899520513792"><ele>705.5</ele><time>2026-04-18T11:44:22.003Z</time></trkpt><trkpt lat="44.86415553131096" lon="9.453959103754846"><ele>708.0</ele><time>2026-04-18T11:44:23.003Z</time></trkpt><trkpt lat="44.86408791150663" lon="9.454022458254427"><ele>710.5</ele><time>2026-04-18T11:44:24.003Z</time></trkpt><trkpt lat="44.86400930221815" lon="9.45409007776009"><ele>713.0</ele><time>2026-04-18T11:44:25.003Z</time></trkpt><trkpt lat="44.86391895419143" lon="9.454152706878398"><ele>713.5</ele><time>2026-04-18T11:44:26.003Z</time></trkpt><trkpt lat="44.86383989762916" lon="9.454203025824777"><ele>714.0</ele><time>2026-04-18T11:44:27.003Z</time></trkpt><trkpt lat="44.86375929503921" lon="9.454270332282166"><ele>714.5</ele><time>2026-04-18T11:44:27.999Z</time></trkpt><trkpt lat="44.86367899963323" lon="9.454320639804529"><ele>715.0</ele><time>2026-04-18T11:44:28.999Z</time></trkpt><trkpt lat="44.86363457845559" lon="9.454387546259964"><ele>715.5</ele><time>2026-04-18T11:44:29.999Z</time></trkpt><trkpt lat="44.86357740516135" lon="9.454456198391412"><ele>716.0</ele><time>2026-04-18T11:44:30.999Z</time></trkpt><trkpt lat="44.8634950647751" lon="9.454504252753571"><ele>715.3333333333333</ele><time>2026-04-18T11:44:31.999Z</time></trkpt><trkpt lat="44.863419727640334" lon="9.454536410398273"><ele>714.6666666666666</ele><time>2026-04-18T11:44:32.999Z</time></trkpt><trkpt lat="44.86334426565703" lon="9.454593191998033"><ele>714.0</ele><time>2026-04-18T11:44:33.999Z</time></trkpt><trkpt lat="44.86326506720273" lon="9.454649477654742"><ele>713.3333333333334</ele><time>2026-04-18T11:44:34.999Z</time></trkpt><trkpt lat="44.86318687378133" lon="9.454730773427887"><ele>712.6666666666667</ele><time>2026-04-18T11:44:35.999Z</time></trkpt><trkpt lat="44.86310957900919" lon="9.45481471306959"><ele>712.0</ele><time>2026-04-18T11:44:37Z</time></trkpt><trkpt lat="44.86303803072356" lon="9.454881876467713"><ele>714.6666666666667</ele><time>2026-04-18T11:44:38Z</time></trkpt><trkpt lat="44.862979189835" lon="9.454960567369405"><ele>717.3333333333334</ele><time>2026-04-18T11:44:39Z</time></trkpt><trkpt lat="44.86293894915855" lon="9.45504937362938"><ele>720.0</ele><time>2026-04-18T11:44:40Z</time></trkpt><trkpt lat="44.86289792190683" lon="9.45513617083352"><ele>722.6666666666666</ele><time>2026-04-18T11:44:41Z</time></trkpt><trkpt lat="44.86285251777558" lon="9.45523909335311"><ele>725.3333333333333</ele><time>2026-04-18T11:44:42Z</time></trkpt><trkpt lat="44.86281060907745" lon="9.455327669565005"><ele>728.0</ele><time>2026-04-18T11:44:43Z</time></trkpt><trkpt lat="44.86275687472801" lon="9.455442493181994"><ele>729.0</ele><time>2026-04-18T11:44:44Z</time></trkpt><trkpt lat="44.862706434922984" lon="9.45553866066769"><ele>730.0</ele><time>2026-04-18T11:44:45Z</time></trkpt><trkpt lat="44.86263489563924" lon="9.455610303290952"><ele>731.0</ele><time>2026-04-18T11:44:46Z</time></trkpt><trkpt lat="44.86256168106023" lon="9.4556621443582"><ele>732.0</ele><time>2026-04-18T11:44:47Z</time></trkpt><trkpt lat="44.86248430409412" lon="9.45569199708174"><ele>733.0</ele><time>2026-04-18T11:44:48Z</time></trkpt><trkpt lat="44.86240361639674" lon="9.455707636916918"><ele>734.0</ele><time>2026-04-18T11:44:49Z</time></trkpt><trkpt lat="44.862320495063585" lon="9.455726407377439"><ele>735.1666666666666</ele><time>2026-04-18T11:44:50Z</time></trkpt><trkpt lat="44.86224497357562" lon="9.455757921456588"><ele>736.3333333333333</ele><time>2026-04-18T11:44:51Z</time></trkpt><trkpt lat="44.862178804683715" lon="9.455810659286506"><ele>737.5</ele><time>2026-04-18T11:44:52Z</time></trkpt><trkpt lat="44.86212713720877" lon="9.455886314263362"><ele>738.6666666666666</ele><time>2026-04-18T11:44:53Z</time></trkpt><trkpt lat="44.86208191083665" lon="9.45596925139439"><ele>739.8333333333334</ele><time>2026-04-18T11:44:54Z</time></trkpt><trkpt lat="44.86203571275918" lon="9.456069344967252"><ele>741.0</ele><time>2026-04-18T11:44:55Z</time></trkpt><trkpt lat="44.86198679123855" lon="9.456174457764451"><ele>741.0</ele><time>2026-04-18T11:44:56Z</time></trkpt><trkpt lat="44.86194117055365" lon="9.456264843503549"><ele>741.0</ele><time>2026-04-18T11:44:57Z</time></trkpt><trkpt lat="44.86189926315163" lon="9.456344283289495"><ele>741.0</ele><time>2026-04-18T11:44:58Z</time></trkpt><trkpt lat="44.86179642043135" lon="9.456431854943455"><ele>741.0</ele><time>2026-04-18T11:45:00Z</time></trkpt><trkpt lat="44.86172680464082" lon="9.456449864275719"><ele>741.0</ele><time>2026-04-18T11:45:01Z</time></trkpt><trkpt lat="44.86163908557636" lon="9.456461248683729"><ele>741.0</ele><time>2026-04-18T11:45:02Z</time></trkpt><trkpt lat="44.861555840056376" lon="9.45643475714552"><ele>741.0</ele><time>2026-04-18T11:45:03.001Z</time></trkpt><trkpt lat="44.86147861540299" lon="9.456396066859043"><ele>741.0</ele><time>2026-04-18T11:45:04.001Z</time></trkpt><trkpt lat="44.86140564490065" lon="9.456365329355679"><ele>741.0</ele><time>2026-04-18T11:45:05.001Z</time></trkpt><trkpt lat="44.86132926307008" lon="9.456364340337894"><ele>741.0</ele><time>2026-04-18T11:45:06.001Z</time></trkpt><trkpt lat="44.861250945462814" lon="9.456373064369327"><ele>741.0</ele><time>2026-04-18T11:45:07.001Z</time></trkpt><trkpt lat="44.86118610814285" lon="9.456374205556218"><ele>741.0</ele><time>2026-04-18T11:45:08.001Z</time></trkpt><trkpt lat="44.861063623564796" lon="9.456336554044176"><ele>741.0</ele><time>2026-04-18T11:45:10.001Z</time></trkpt><trkpt lat="44.860947204794634" lon="9.456381237695256"><ele>741.0</ele><time>2026-04-18T11:45:12.001Z</time></trkpt><trkpt lat="44.86084790865347" lon="9.456463293310705"><ele>741.0</ele><time>2026-04-18T11:45:14.001Z</time></trkpt><trkpt lat="44.86073559417723" lon="9.45653640460541"><ele>741.0</ele><time>2026-04-18T11:45:16.001Z</time></trkpt><trkpt lat="44.86066742573619" lon="9.456578564260697"><ele>741.0</ele><time>2026-04-18T11:45:17.001Z</time></trkpt><trkpt lat="44.86059210136026" lon="9.456614652705948"><ele>741.0</ele><time>2026-04-18T11:45:18.001Z</time></trkpt><trkpt lat="44.86051476311803" lon="9.456645463844254"><ele>741.0</ele><time>2026-04-18T11:45:19.001Z</time></trkpt><trkpt lat="44.860436501338576" lon="9.456677226672362"><ele>741.0</ele><time>2026-04-18T11:45:20.001Z</time></trkpt><trkpt lat="44.86036262828136" lon="9.456712527363345"><ele>741.0</ele><time>2026-04-18T11:45:21.001Z</time></trkpt><trkpt lat="44.86029429352024" lon="9.456756981755186"><ele>741.0</ele><time>2026-04-18T11:45:22.001Z</time></trkpt><trkpt lat="44.86022712145078" lon="9.456794991075782"><ele>741.0</ele><time>2026-04-18T11:45:23.001Z</time></trkpt><trkpt lat="44.860161768535306" lon="9.456821932248824"><ele>741.5</ele><time>2026-04-18T11:45:24.001Z</time></trkpt><trkpt lat="44.86009864338235" lon="9.456836121183501"><ele>742.0</ele><time>2026-04-18T11:45:25.001Z</time></trkpt><trkpt lat="44.86003605663417" lon="9.456853848820895"><ele>742.5</ele><time>2026-04-18T11:45:26.001Z</time></trkpt><trkpt lat="44.8599252206753" lon="9.45692708699971"><ele>743.0</ele><time>2026-04-18T11:45:28.001Z</time></trkpt><trkpt lat="44.85986416526156" lon="9.456997599979594"><ele>743.5</ele><time>2026-04-18T11:45:29.001Z</time></trkpt><trkpt lat="44.85980243740478" lon="9.457066994711784"><ele>744.0</ele><time>2026-04-18T11:45:30.001Z</time></trkpt><trkpt lat="44.85973285296599" lon="9.45712372708317"><ele>741.5</ele><time>2026-04-18T11:45:31.001Z</time></trkpt><trkpt lat="44.859659345229375" lon="9.45717985944746"><ele>739.0</ele><time>2026-04-18T11:45:32.001Z</time></trkpt><trkpt lat="44.85959034352808" lon="9.457236727572253"><ele>736.5</ele><time>2026-04-18T11:45:33.002Z</time></trkpt><trkpt lat="44.85952843235364" lon="9.457306147300914"><ele>734.0</ele><time>2026-04-18T11:45:34.002Z</time></trkpt><trkpt lat="44.85947739434538" lon="9.457383594020033"><ele>731.5</ele><time>2026-04-18T11:45:35.002Z</time></trkpt><trkpt lat="44.859427160768526" lon="9.457469842099288"><ele>729.0</ele><time>2026-04-18T11:45:36.002Z</time></trkpt><trkpt lat="44.85938350917324" lon="9.457561154801885"><ele>729.0</ele><time>2026-04-18T11:45:37.002Z</time></trkpt><trkpt lat="44.85934068810549" lon="9.457635574222525"><ele>729.0</ele><time>2026-04-18T11:45:38.002Z</time></trkpt><trkpt lat="44.85930666716404" lon="9.457722771211277"><ele>729.0</ele><time>2026-04-18T11:45:39.002Z</time></trkpt><trkpt lat="44.85926647769746" lon="9.457800735969668"><ele>729.0</ele><time>2026-04-18T11:45:40.002Z</time></trkpt><trkpt lat="44.85922535194768" lon="9.457870930817611"><ele>729.0</ele><time>2026-04-18T11:45:41.002Z</time></trkpt><trkpt lat="44.85917228572337" lon="9.457930043106087"><ele>729.0</ele><time>2026-04-18T11:45:42.002Z</time></trkpt><trkpt lat="44.859109401492" lon="9.457982916286554"><ele>729.0</ele><time>2026-04-18T11:45:43.002Z</time></trkpt><trkpt lat="44.859042652788915" lon="9.458037015506214"><ele>728.2857142857143</ele><time>2026-04-18T11:45:44.002Z</time></trkpt><trkpt lat="44.858977032988044" lon="9.458086049651897"><ele>727.5714285714286</ele><time>2026-04-18T11:45:45.002Z</time></trkpt><trkpt lat="44.85891241239" lon="9.458140944558538"><ele>726.8571428571429</ele><time>2026-04-18T11:45:46.002Z</time></trkpt><trkpt lat="44.85886074941358" lon="9.458196548286223"><ele>726.1428571428571</ele><time>2026-04-18T11:45:47.002Z</time></trkpt><trkpt lat="44.858814913400145" lon="9.458261176294467"><ele>725.4285714285713</ele><time>2026-04-18T11:45:48.002Z</time></trkpt><trkpt lat="44.85877130606025" lon="9.458332666573781"><ele>724.7142857142857</ele><time>2026-04-18T11:45:49.002Z</time></trkpt><trkpt lat="44.8587258887847" lon="9.45840942973333"><ele>724.0</ele><time>2026-04-18T11:45:50.002Z</time></trkpt><trkpt lat="44.858675745170814" lon="9.45849570147426"><ele>724.0</ele><time>2026-04-18T11:45:51.002Z</time></trkpt><trkpt lat="44.858624046932356" lon="9.45857765807569"><ele>724.0</ele><time>2026-04-18T11:45:52.002Z</time></trkpt><trkpt lat="44.85857346159794" lon="9.458657223488633"><ele>724.0</ele><time>2026-04-18T11:45:53.002Z</time></trkpt><trkpt lat="44.85852242131059" lon="9.45873942744132"><ele>724.0</ele><time>2026-04-18T11:45:54.002Z</time></trkpt><trkpt lat="44.85847396234184" lon="9.458812025062729"><ele>724.0</ele><time>2026-04-18T11:45:55.002Z</time></trkpt><trkpt lat="44.858424997536" lon="9.458890436188518"><ele>724.0</ele><time>2026-04-18T11:45:56.002Z</time></trkpt><trkpt lat="44.85834170850115" lon="9.459038396012417"><ele>722.6666666666667</ele><time>2026-04-18T11:45:58.002Z</time></trkpt><trkpt lat="44.85830271678382" lon="9.45911491375272"><ele>721.3333333333334</ele><time>2026-04-18T11:45:59.002Z</time></trkpt><trkpt lat="44.858265980210426" lon="9.459197824160203"><ele>720.0</ele><time>2026-04-18T11:46:00.002Z</time></trkpt><trkpt lat="44.85823009028386" lon="9.459276458639204"><ele>718.6666666666666</ele><time>2026-04-18T11:46:01.002Z</time></trkpt><trkpt lat="44.85816149182957" lon="9.459428083633666"><ele>717.3333333333333</ele><time>2026-04-18T11:46:03.002Z</time></trkpt><trkpt lat="44.85812561913082" lon="9.459508435099021"><ele>716.0</ele><time>2026-04-18T11:46:04.002Z</time></trkpt><trkpt lat="44.85807531939956" lon="9.459574896986744"><ele>713.6666666666666</ele><time>2026-04-18T11:46:05.002Z</time></trkpt><trkpt lat="44.85801522350956" lon="9.459633698078049"><ele>711.3333333333333</ele><time>2026-04-18T11:46:06.003Z</time></trkpt><trkpt lat="44.85794543309197" lon="9.459699169568085"><ele>709.0</ele><time>2026-04-18T11:46:07.003Z</time></trkpt><trkpt lat="44.8578797557608" lon="9.459765130201786"><ele>706.6666666666666</ele><time>2026-04-18T11:46:08.003Z</time></trkpt><trkpt lat="44.85782164513784" lon="9.459822998904396"><ele>704.3333333333334</ele><time>2026-04-18T11:46:09.003Z</time></trkpt><trkpt lat="44.8577581983241" lon="9.459896172451973"><ele>702.0</ele><time>2026-04-18T11:46:10.003Z</time></trkpt><trkpt lat="44.85769718108172" lon="9.45996194114719"><ele>702.0</ele><time>2026-04-18T11:46:11.003Z</time></trkpt><trkpt lat="44.85763444342445" lon="9.460022737208927"><ele>702.0</ele><time>2026-04-18T11:46:12.003Z</time></trkpt><trkpt lat="44.85757111748459" lon="9.460075175826464"><ele>702.0</ele><time>2026-04-18T11:46:13.003Z</time></trkpt><trkpt lat="44.857504525891095" lon="9.46012459108822"><ele>702.0</ele><time>2026-04-18T11:46:14.003Z</time></trkpt><trkpt lat="44.85740802632601" lon="9.460222121988622"><ele>702.0</ele><time>2026-04-18T11:46:16.003Z</time></trkpt><trkpt lat="44.85732326218549" lon="9.4603346151423"><ele>703.0</ele><time>2026-04-18T11:46:18.003Z</time></trkpt><trkpt lat="44.857274594862176" lon="9.460400873893889"><ele>704.0</ele><time>2026-04-18T11:46:19.003Z</time></trkpt><trkpt lat="44.857232223010584" lon="9.460471416649945"><ele>705.0</ele><time>2026-04-18T11:46:20.003Z</time></trkpt><trkpt lat="44.857183474296285" lon="9.460617309172942"><ele>706.0</ele><time>2026-04-18T11:46:22.003Z</time></trkpt><trkpt lat="44.85715241454472" lon="9.460737071855977"><ele>707.0</ele><time>2026-04-18T11:46:24.003Z</time></trkpt><trkpt lat="44.85711892308076" lon="9.460845661405985"><ele>708.0</ele><time>2026-04-18T11:46:26.003Z</time></trkpt><trkpt lat="44.85708884526369" lon="9.460942467085058"><ele>705.2</ele><time>2026-04-18T11:46:28.003Z</time></trkpt><trkpt lat="44.85705939753049" lon="9.461048856496955"><ele>702.4</ele><time>2026-04-18T11:46:30.003Z</time></trkpt><trkpt lat="44.85700541564124" lon="9.461183647674272"><ele>699.6</ele><time>2026-04-18T11:46:32.003Z</time></trkpt><trkpt lat="44.856953682224564" lon="9.461306467488656"><ele>696.8000000000001</ele><time>2026-04-18T11:46:34Z</time></trkpt><trkpt lat="44.85690546319494" lon="9.461425945986328"><ele>694.0</ele><time>2026-04-18T11:46:36Z</time></trkpt><trkpt lat="44.856876002322494" lon="9.461506605713687"><ele>692.3333333333334</ele><time>2026-04-18T11:46:37Z</time></trkpt><trkpt lat="44.856821114921125" lon="9.461661841345334"><ele>690.6666666666667</ele><time>2026-04-18T11:46:39Z</time></trkpt><trkpt lat="44.8567870215325" lon="9.461746295762998"><ele>689.0</ele><time>2026-04-18T11:46:40Z</time></trkpt><trkpt lat="44.85673844668376" lon="9.46188962644409"><ele>687.3333333333334</ele><time>2026-04-18T11:46:42Z</time></trkpt><trkpt lat="44.856708241315765" lon="9.461968762126217"><ele>685.6666666666666</ele><time>2026-04-18T11:46:43Z</time></trkpt><trkpt lat="44.85666438765557" lon="9.462049235112415"><ele>684.0</ele><time>2026-04-18T11:46:44Z</time></trkpt><trkpt lat="44.85662504312731" lon="9.462125654853768"><ele>682.4000000000001</ele><time>2026-04-18T11:46:45Z</time></trkpt><trkpt lat="44.85655978810772" lon="9.462261172355602"><ele>680.8</ele><time>2026-04-18T11:46:47Z</time></trkpt><trkpt lat="44.85652713536566" lon="9.462391908035855"><ele>679.2</ele><time>2026-04-18T11:46:49Z</time></trkpt><trkpt lat="44.856492671264945" lon="9.46252570816803"><ele>677.5999999999999</ele><time>2026-04-18T11:46:51Z</time></trkpt><trkpt lat="44.85648943924522" lon="9.462626730782267"><ele>676.0</ele><time>2026-04-18T11:46:53Z</time></trkpt><trkpt lat="44.856477248940166" lon="9.462730697135543"><ele>676.0</ele><time>2026-04-18T11:46:55Z</time></trkpt><trkpt lat="44.85644847717267" lon="9.462810924167574"><ele>676.0</ele><time>2026-04-18T11:46:59Z</time></trkpt><trkpt lat="44.85636126401921" lon="9.462722724910888"><ele>676.0</ele><time>2026-04-18T11:47:13.001Z</time></trkpt><trkpt lat="44.85634559741304" lon="9.462614639265455"><ele>676.0</ele><time>2026-04-18T11:47:14.001Z</time></trkpt><trkpt lat="44.85630203817239" lon="9.462521328328272"><ele>676.0</ele><time>2026-04-18T11:47:15.001Z</time></trkpt><trkpt lat="44.85626541165437" lon="9.46244333505466"><ele>676.0</ele><time>2026-04-18T11:47:16.001Z</time></trkpt><trkpt lat="44.85622203278696" lon="9.462353713682152"><ele>676.0</ele><time>2026-04-18T11:47:17.001Z</time></trkpt><trkpt lat="44.85617416813273" lon="9.462254807965879"><ele>676.0</ele><time>2026-04-18T11:47:18.001Z</time></trkpt><trkpt lat="44.85610756167045" lon="9.462158369286682"><ele>676.0</ele><time>2026-04-18T11:47:19.001Z</time></trkpt><trkpt lat="44.856050479645724" lon="9.462039228316705"><ele>676.0</ele><time>2026-04-18T11:47:20.001Z</time></trkpt><trkpt lat="44.855990039068416" lon="9.461923163106885"><ele>676.0</ele><time>2026-04-18T11:47:21.001Z</time></trkpt><trkpt lat="44.85592317918128" lon="9.461807108368834"><ele>676.25</ele><time>2026-04-18T11:47:22.001Z</time></trkpt><trkpt lat="44.85584405012438" lon="9.46167960005839"><ele>676.5</ele><time>2026-04-18T11:47:23.001Z</time></trkpt><trkpt lat="44.85576043215274" lon="9.461543628241118"><ele>676.75</ele><time>2026-04-18T11:47:24.001Z</time></trkpt><trkpt lat="44.85568264520483" lon="9.46140324980718"><ele>677.0</ele><time>2026-04-18T11:47:25.001Z</time></trkpt><trkpt lat="44.85560357002675" lon="9.461265258379735"><ele>679.0</ele><time>2026-04-18T11:47:26.001Z</time></trkpt><trkpt lat="44.85552398147915" lon="9.461131074726058"><ele>681.0</ele><time>2026-04-18T11:47:27.001Z</time></trkpt><trkpt lat="44.855440976586436" lon="9.461007724048278"><ele>683.0</ele><time>2026-04-18T11:47:28.001Z</time></trkpt><trkpt lat="44.85535429213337" lon="9.460890042981434"><ele>685.0</ele><time>2026-04-18T11:47:29.001Z</time></trkpt><trkpt lat="44.855267190018466" lon="9.460777799321257"><ele>685.0</ele><time>2026-04-18T11:47:30.001Z</time></trkpt><trkpt lat="44.85518767566711" lon="9.460659002764231"><ele>685.0</ele><time>2026-04-18T11:47:31.001Z</time></trkpt><trkpt lat="44.85512368062395" lon="9.460535518209353"><ele>685.0</ele><time>2026-04-18T11:47:32.001Z</time></trkpt><trkpt lat="44.8550726689272" lon="9.460413712351476"><ele>685.0</ele><time>2026-04-18T11:47:33.001Z</time></trkpt><trkpt lat="44.8550218948631" lon="9.46028888318102"><ele>685.0</ele><time>2026-04-18T11:47:34.001Z</time></trkpt><trkpt lat="44.854934612707716" lon="9.460206045518662"><ele>684.4</ele><time>2026-04-18T11:47:35.001Z</time></trkpt><trkpt lat="44.85486297662717" lon="9.460098682516305"><ele>683.8</ele><time>2026-04-18T11:47:36.001Z</time></trkpt><trkpt lat="44.85481416230707" lon="9.459989823438478"><ele>683.2</ele><time>2026-04-18T11:47:37.002Z</time></trkpt><trkpt lat="44.854760472839736" lon="9.459897510840298"><ele>682.6</ele><time>2026-04-18T11:47:38.002Z</time></trkpt><trkpt lat="44.85469959125503" lon="9.459808178505039"><ele>682.0</ele><time>2026-04-18T11:47:39.002Z</time></trkpt><trkpt lat="44.85459296751593" lon="9.45979452470168"><ele>682.0</ele><time>2026-04-18T11:47:40.002Z</time></trkpt><trkpt lat="44.8544938113826" lon="9.459775580092465"><ele>682.0</ele><time>2026-04-18T11:47:41.002Z</time></trkpt><trkpt lat="44.85439471430404" lon="9.459717131152592"><ele>682.0</ele><time>2026-04-18T11:47:42.002Z</time></trkpt><trkpt lat="44.85428517574564" lon="9.45966724270405"><ele>682.0</ele><time>2026-04-18T11:47:43.002Z</time></trkpt><trkpt lat="44.85417145633091" lon="9.459624148011045"><ele>682.0</ele><time>2026-04-18T11:47:44.002Z</time></trkpt><trkpt lat="44.85407254110257" lon="9.459591349182608"><ele>683.8</ele><time>2026-04-18T11:47:45.002Z</time></trkpt><trkpt lat="44.85397776520018" lon="9.459581979901936"><ele>685.6</ele><time>2026-04-18T11:47:46.002Z</time></trkpt><trkpt lat="44.85389575284338" lon="9.459529779063924"><ele>687.4</ele><time>2026-04-18T11:47:47.002Z</time></trkpt><trkpt lat="44.85383107534256" lon="9.459449636926157"><ele>689.1999999999999</ele><time>2026-04-18T11:47:48.002Z</time></trkpt><trkpt lat="44.85377907745284" lon="9.459349840539714"><ele>691.0</ele><time>2026-04-18T11:47:49.002Z</time></trkpt><trkpt lat="44.85373212648404" lon="9.459226241487809"><ele>691.0</ele><time>2026-04-18T11:47:50.002Z</time></trkpt><trkpt lat="44.8536844805844" lon="9.459096848907931"><ele>691.0</ele><time>2026-04-18T11:47:51.002Z</time></trkpt><trkpt lat="44.85365033012014" lon="9.458957976026289"><ele>691.0</ele><time>2026-04-18T11:47:52.002Z</time></trkpt><trkpt lat="44.85358489030464" lon="9.45884360725265"><ele>691.0</ele><time>2026-04-18T11:47:53.002Z</time></trkpt><trkpt lat="44.853501303905546" lon="9.458747278327174"><ele>691.0</ele><time>2026-04-18T11:47:54.002Z</time></trkpt><trkpt lat="44.85339220938677" lon="9.458674749406649"><ele>690.0</ele><time>2026-04-18T11:47:55.002Z</time></trkpt><trkpt lat="44.853278798311415" lon="9.458614086355578"><ele>689.0</ele><time>2026-04-18T11:47:56.002Z</time></trkpt><trkpt lat="44.85316225330026" lon="9.458552010518888"><ele>688.0</ele><time>2026-04-18T11:47:57.002Z</time></trkpt><trkpt lat="44.853047007932254" lon="9.45848512863126"><ele>687.0</ele><time>2026-04-18T11:47:58.002Z</time></trkpt><trkpt lat="44.85293349402046" lon="9.458421267899839"><ele>687.0</ele><time>2026-04-18T11:47:59.002Z</time></trkpt><trkpt lat="44.85282216249788" lon="9.458367294687239"><ele>687.0</ele><time>2026-04-18T11:48:00.002Z</time></trkpt><trkpt lat="44.85271923814496" lon="9.458288529265621"><ele>687.0</ele><time>2026-04-18T11:48:01.002Z</time></trkpt><trkpt lat="44.85260973415535" lon="9.458222795824678"><ele>687.0</ele><time>2026-04-18T11:48:02.002Z</time></trkpt><trkpt lat="44.8525100842388" lon="9.458155916413546"><ele>687.25</ele><time>2026-04-18T11:48:03.002Z</time></trkpt><trkpt lat="44.8524061442888" lon="9.458135353376795"><ele>687.5</ele><time>2026-04-18T11:48:04.002Z</time></trkpt><trkpt lat="44.852315372547324" lon="9.458042443036963"><ele>687.75</ele><time>2026-04-18T11:48:05.002Z</time></trkpt><trkpt lat="44.85221359274657" lon="9.45794225529347"><ele>688.0</ele><time>2026-04-18T11:48:06.002Z</time></trkpt><trkpt lat="44.85210656959737" lon="9.457855051130162"><ele>688.0</ele><time>2026-04-18T11:48:07.002Z</time></trkpt><trkpt lat="44.85201883673006" lon="9.45774790739699"><ele>688.0</ele><time>2026-04-18T11:48:08.002Z</time></trkpt><trkpt lat="44.85193637719555" lon="9.457625843963156"><ele>688.0</ele><time>2026-04-18T11:48:09.002Z</time></trkpt><trkpt lat="44.851885967084" lon="9.45746153794911"><ele>688.0</ele><time>2026-04-18T11:48:10.003Z</time></trkpt><trkpt lat="44.85181761099141" lon="9.457295763469427"><ele>686.0</ele><time>2026-04-18T11:48:11.003Z</time></trkpt><trkpt lat="44.85173445947495" lon="9.457137791039818"><ele>684.0</ele><time>2026-04-18T11:48:12.003Z</time></trkpt><trkpt lat="44.851670247798694" lon="9.456984301487891"><ele>682.0</ele><time>2026-04-18T11:48:13.003Z</time></trkpt><trkpt lat="44.851617732931665" lon="9.456839639787434"><ele>680.0</ele><time>2026-04-18T11:48:14.003Z</time></trkpt><trkpt lat="44.851546173650796" lon="9.456705520769875"><ele>680.0</ele><time>2026-04-18T11:48:15.003Z</time></trkpt><trkpt lat="44.851451210250886" lon="9.456597084796444"><ele>680.0</ele><time>2026-04-18T11:48:16.003Z</time></trkpt><trkpt lat="44.85134601811099" lon="9.456507391027166"><ele>680.0</ele><time>2026-04-18T11:48:17.003Z</time></trkpt><trkpt lat="44.85123527684894" lon="9.456415432184377"><ele>680.0</ele><time>2026-04-18T11:48:18.003Z</time></trkpt><trkpt lat="44.85111617172299" lon="9.456337366448215"><ele>679.8</ele><time>2026-04-18T11:48:19.003Z</time></trkpt><trkpt lat="44.851004582321174" lon="9.456278463644482"><ele>679.6</ele><time>2026-04-18T11:48:20.003Z</time></trkpt><trkpt lat="44.85090036842472" lon="9.45621763394753"><ele>679.4000000000001</ele><time>2026-04-18T11:48:21.003Z</time></trkpt><trkpt lat="44.850805262484066" lon="9.456160713127003"><ele>679.2</ele><time>2026-04-18T11:48:22.003Z</time></trkpt><trkpt lat="44.85073279398787" lon="9.456110623608776"><ele>679.0</ele><time>2026-04-18T11:48:23.003Z</time></trkpt><trkpt lat="44.8506566355401" lon="9.456055976257614"><ele>679.0</ele><time>2026-04-18T11:48:25.003Z</time></trkpt><trkpt lat="44.85057885949052" lon="9.456000168234375"><ele>679.0</ele><time>2026-04-18T11:48:28.003Z</time></trkpt><trkpt lat="44.850484909580466" lon="9.456179942575224"><ele>679.0</ele><time>2026-04-18T11:48:29.003Z</time></trkpt><trkpt lat="44.85043288076578" lon="9.45625243109545"><ele>679.0</ele><time>2026-04-18T11:48:30.003Z</time></trkpt><trkpt lat="44.85037963431236" lon="9.45633298688368"><ele>679.0</ele><time>2026-04-18T11:48:31.003Z</time></trkpt><trkpt lat="44.85030842291975" lon="9.456433267092853"><ele>677.8000000000001</ele><time>2026-04-18T11:48:32.003Z</time></trkpt><trkpt lat="44.85022625830479" lon="9.456542313830559"><ele>676.6</ele><time>2026-04-18T11:48:33.003Z</time></trkpt><trkpt lat="44.85015090214254" lon="9.456649306856342"><ele>675.4</ele><time>2026-04-18T11:48:34.003Z</time></trkpt><trkpt lat="44.850076427690816" lon="9.456758109309382"><ele>674.2</ele><time>2026-04-18T11:48:35.003Z</time></trkpt><trkpt lat="44.84999812422972" lon="9.456872583813142"><ele>673.0</ele><time>2026-04-18T11:48:36.003Z</time></trkpt><trkpt lat="44.8499269781149" lon="9.457001557317264"><ele>673.0</ele><time>2026-04-18T11:48:37.003Z</time></trkpt><trkpt lat="44.84985901220833" lon="9.45714622681549"><ele>673.0</ele><time>2026-04-18T11:48:38.003Z</time></trkpt><trkpt lat="44.849796219703585" lon="9.457299869033598"><ele>673.0</ele><time>2026-04-18T11:48:39.003Z</time></trkpt><trkpt lat="44.849741903057996" lon="9.457471178189012"><ele>673.0</ele><time>2026-04-18T11:48:40Z</time></trkpt><trkpt lat="44.84968724599913" lon="9.457645376754371"><ele>673.0</ele><time>2026-04-18T11:48:41Z</time></trkpt><trkpt lat="44.84965032774804" lon="9.45780616318329"><ele>673.0</ele><time>2026-04-18T11:48:42Z</time></trkpt><trkpt lat="44.84960270049749" lon="9.457969477431975"><ele>673.0</ele><time>2026-04-18T11:48:43Z</time></trkpt><trkpt lat="44.849549728370484" lon="9.45812092690316"><ele>673.0</ele><time>2026-04-18T11:48:44Z</time></trkpt><trkpt lat="44.84948004989156" lon="9.45826297388299"><ele>672.25</ele><time>2026-04-18T11:48:45Z</time></trkpt><trkpt lat="44.84939776624173" lon="9.458402136435305"><ele>671.5</ele><time>2026-04-18T11:48:46Z</time></trkpt><trkpt lat="44.84931386554263" lon="9.458542323566627"><ele>670.75</ele><time>2026-04-18T11:48:47Z</time></trkpt><trkpt lat="44.849225994192444" lon="9.458686270898014"><ele>670.0</ele><time>2026-04-18T11:48:48Z</time></trkpt><trkpt lat="44.84913908295158" lon="9.458831669127852"><ele>669.25</ele><time>2026-04-18T11:48:49Z</time></trkpt><trkpt lat="44.84905170407329" lon="9.458992278820885"><ele>668.5</ele><time>2026-04-18T11:48:50Z</time></trkpt><trkpt lat="44.84896579200036" lon="9.459154066098236"><ele>667.75</ele><time>2026-04-18T11:48:51Z</time></trkpt><trkpt lat="44.84890129371294" lon="9.45931767859428"><ele>667.0</ele><time>2026-04-18T11:48:52Z</time></trkpt><trkpt lat="44.84884932785797" lon="9.459480509821264"><ele>666.0</ele><time>2026-04-18T11:48:53Z</time></trkpt><trkpt lat="44.8488136737981" lon="9.459649416657204"><ele>665.0</ele><time>2026-04-18T11:48:54Z</time></trkpt><trkpt lat="44.848792178691276" lon="9.459827835516892"><ele>664.0</ele><time>2026-04-18T11:48:55Z</time></trkpt><trkpt lat="44.848773198914444" lon="9.460014318997596"><ele>663.0</ele><time>2026-04-18T11:48:56Z</time></trkpt><trkpt lat="44.848759565894255" lon="9.460210420399017"><ele>663.0</ele><time>2026-04-18T11:48:57Z</time></trkpt><trkpt lat="44.84874125315929" lon="9.460409890272395"><ele>663.0</ele><time>2026-04-18T11:48:58Z</time></trkpt><trkpt lat="44.84871066208869" lon="9.46062226929994"><ele>663.0</ele><time>2026-04-18T11:48:59Z</time></trkpt><trkpt lat="44.848666986395614" lon="9.460836503870256"><ele>661.75</ele><time>2026-04-18T11:49:00Z</time></trkpt><trkpt lat="44.848630067454614" lon="9.46103136672327"><ele>660.5</ele><time>2026-04-18T11:49:01Z</time></trkpt><trkpt lat="44.84859851764198" lon="9.461230697432729"><ele>659.25</ele><time>2026-04-18T11:49:02Z</time></trkpt><trkpt lat="44.84856299825823" lon="9.46143416825314"><ele>658.0</ele><time>2026-04-18T11:49:03Z</time></trkpt><trkpt lat="44.84852764993644" lon="9.461647067189672"><ele>657.3333333333334</ele><time>2026-04-18T11:49:04Z</time></trkpt><trkpt lat="44.848494913676525" lon="9.461863922874725"><ele>656.6666666666666</ele><time>2026-04-18T11:49:05Z</time></trkpt><trkpt lat="44.848464951576645" lon="9.46208575267031"><ele>656.0</ele><time>2026-04-18T11:49:06Z</time></trkpt><trkpt lat="44.848435759165675" lon="9.462300313317211"><ele>657.5</ele><time>2026-04-18T11:49:07Z</time></trkpt><trkpt lat="44.84840897287116" lon="9.462505294522265"><ele>659.0</ele><time>2026-04-18T11:49:08Z</time></trkpt><trkpt lat="44.84838536035967" lon="9.462693791894699"><ele>660.5</ele><time>2026-04-18T11:49:09Z</time></trkpt><trkpt lat="44.84835858859021" lon="9.462865143321958"><ele>662.0</ele><time>2026-04-18T11:49:10Z</time></trkpt><trkpt lat="44.84832552904972" lon="9.463015817940297"><ele>662.5</ele><time>2026-04-18T11:49:11Z</time></trkpt><trkpt lat="44.84828067357336" lon="9.463164717685782"><ele>663.0</ele><time>2026-04-18T11:49:12.001Z</time></trkpt><trkpt lat="44.848222425576054" lon="9.463304497783353"><ele>663.5</ele><time>2026-04-18T11:49:13.001Z</time></trkpt><trkpt lat="44.84814686494143" lon="9.463444650093818"><ele>664.0</ele><time>2026-04-18T11:49:14.001Z</time></trkpt><trkpt lat="44.84806499627969" lon="9.463599266984481"><ele>664.0</ele><time>2026-04-18T11:49:15.001Z</time></trkpt><trkpt lat="44.8479850326529" lon="9.463769131857799"><ele>664.0</ele><time>2026-04-18T11:49:16.001Z</time></trkpt><trkpt lat="44.84790720782426" lon="9.46395034727752"><ele>664.0</ele><time>2026-04-18T11:49:17.001Z</time></trkpt><trkpt lat="44.84783174798484" lon="9.464139160110586"><ele>664.0</ele><time>2026-04-18T11:49:18.001Z</time></trkpt><trkpt lat="44.847757178735826" lon="9.464338371346079"><ele>664.0</ele><time>2026-04-18T11:49:19.001Z</time></trkpt><trkpt lat="44.84768583897291" lon="9.464540197156877"><ele>664.0</ele><time>2026-04-18T11:49:20.001Z</time></trkpt><trkpt lat="44.847622300325206" lon="9.464740455965996"><ele>664.0</ele><time>2026-04-18T11:49:21.001Z</time></trkpt><trkpt lat="44.84756171013035" lon="9.46494811701471"><ele>664.0</ele><time>2026-04-18T11:49:22.001Z</time></trkpt><trkpt lat="44.847507957048876" lon="9.46516168987504"><ele>664.0</ele><time>2026-04-18T11:49:23.001Z</time></trkpt><trkpt lat="44.84746052035229" lon="9.465378906842467"><ele>664.0</ele><time>2026-04-18T11:49:24.001Z</time></trkpt><trkpt lat="44.84742275529432" lon="9.465589167040251"><ele>665.6666666666667</ele><time>2026-04-18T11:49:25.001Z</time></trkpt><trkpt lat="44.84740740685562" lon="9.46579960639338"><ele>667.3333333333334</ele><time>2026-04-18T11:49:26.001Z</time></trkpt><trkpt lat="44.84740351963983" lon="9.466017032558273"><ele>669.0</ele><time>2026-04-18T11:49:27.001Z</time></trkpt><trkpt lat="44.847400867490606" lon="9.466229574128603"><ele>670.0</ele><time>2026-04-18T11:49:28.001Z</time></trkpt><trkpt lat="44.84739615761134" lon="9.46643064579466"><ele>671.0</ele><time>2026-04-18T11:49:29.001Z</time></trkpt><trkpt lat="44.84738249526704" lon="9.466602250124634"><ele>672.0</ele><time>2026-04-18T11:49:30.001Z</time></trkpt><trkpt lat="44.847352575039" lon="9.466756715256729"><ele>673.0</ele><time>2026-04-18T11:49:31.001Z</time></trkpt><trkpt lat="44.84730097687899" lon="9.466905559050272"><ele>673.0</ele><time>2026-04-18T11:49:32.001Z</time></trkpt><trkpt lat="44.84724711410803" lon="9.467063331056412"><ele>673.0</ele><time>2026-04-18T11:49:33.001Z</time></trkpt><trkpt lat="44.84722059299256" lon="9.467246994043474"><ele>673.0</ele><time>2026-04-18T11:49:34.001Z</time></trkpt><trkpt lat="44.847225637332855" lon="9.467432865996882"><ele>673.0</ele><time>2026-04-18T11:49:35.001Z</time></trkpt><trkpt lat="44.84726362572913" lon="9.467612817636562"><ele>672.75</ele><time>2026-04-18T11:49:36.001Z</time></trkpt><trkpt lat="44.84730030448068" lon="9.467800499988854"><ele>672.5</ele><time>2026-04-18T11:49:37.001Z</time></trkpt><trkpt lat="44.847336352970736" lon="9.468002535685999"><ele>672.25</ele><time>2026-04-18T11:49:38.001Z</time></trkpt><trkpt lat="44.84738113214728" lon="9.468212820290416"><ele>672.0</ele><time>2026-04-18T11:49:39.001Z</time></trkpt><trkpt lat="44.847431057042165" lon="9.468420868491993"><ele>672.6666666666666</ele><time>2026-04-18T11:49:40.001Z</time></trkpt><trkpt lat="44.84748356736722" lon="9.468631439507774"><ele>673.3333333333333</ele><time>2026-04-18T11:49:41.001Z</time></trkpt><trkpt lat="44.847537155186906" lon="9.46884154249768"><ele>674.0</ele><time>2026-04-18T11:49:42.001Z</time></trkpt><trkpt lat="44.847599639415584" lon="9.469052718858986"><ele>673.0</ele><time>2026-04-18T11:49:43.001Z</time></trkpt><trkpt lat="44.847668512331275" lon="9.469261840560456"><ele>672.0</ele><time>2026-04-18T11:49:44.001Z</time></trkpt><trkpt lat="44.84773692400085" lon="9.469464907831858"><ele>671.0</ele><time>2026-04-18T11:49:45.001Z</time></trkpt><trkpt lat="44.847799837776854" lon="9.46965344014895"><ele>671.0</ele><time>2026-04-18T11:49:46.002Z</time></trkpt><trkpt lat="44.84786640570866" lon="9.469827422970653"><ele>671.0</ele><time>2026-04-18T11:49:47.002Z</time></trkpt><trkpt lat="44.847937873018346" lon="9.469982965897756"><ele>671.0</ele><time>2026-04-18T11:49:48.002Z</time></trkpt><trkpt lat="44.84802352988651" lon="9.470116815209737"><ele>671.0</ele><time>2026-04-18T11:49:49.002Z</time></trkpt><trkpt lat="44.84811985548683" lon="9.470231820383502"><ele>671.0</ele><time>2026-04-18T11:49:50.002Z</time></trkpt><trkpt lat="44.84821891258884" lon="9.470340514118542"><ele>671.0</ele><time>2026-04-18T11:49:51.002Z</time></trkpt><trkpt lat="44.84831334704789" lon="9.470461989053572"><ele>671.0</ele><time>2026-04-18T11:49:52.002Z</time></trkpt><trkpt lat="44.848401428379844" lon="9.470599185485103"><ele>671.0</ele><time>2026-04-18T11:49:53.002Z</time></trkpt><trkpt lat="44.84848058703891" lon="9.470732714821594"><ele>669.8</ele><time>2026-04-18T11:49:54.002Z</time></trkpt><trkpt lat="44.848542658164824" lon="9.470856910121595"><ele>668.5999999999999</ele><time>2026-04-18T11:49:55.002Z</time></trkpt><trkpt lat="44.8485885817342" lon="9.470983684672234"><ele>667.4</ele><time>2026-04-18T11:49:56.002Z</time></trkpt><trkpt lat="44.84861578269953" lon="9.471113433675072"><ele>666.2</ele><time>2026-04-18T11:49:57.002Z</time></trkpt><trkpt lat="44.848626823424894" lon="9.471265101458851"><ele>665.0</ele><time>2026-04-18T11:49:58.002Z</time></trkpt><trkpt lat="44.84862377664259" lon="9.471430307270031"><ele>665.0</ele><time>2026-04-18T11:49:59.002Z</time></trkpt><trkpt lat="44.848613588216416" lon="9.471600704555604"><ele>665.0</ele><time>2026-04-18T11:50:00.002Z</time></trkpt><trkpt lat="44.8486075994025" lon="9.471761385369616"><ele>665.0</ele><time>2026-04-18T11:50:01.002Z</time></trkpt><trkpt lat="44.84860773830293" lon="9.471916046288515"><ele>665.0</ele><time>2026-04-18T11:50:02.002Z</time></trkpt><trkpt lat="44.84860545686234" lon="9.472064575159125"><ele>664.4</ele><time>2026-04-18T11:50:03.002Z</time></trkpt><trkpt lat="44.848604083357344" lon="9.472213456724555"><ele>663.8</ele><time>2026-04-18T11:50:04.002Z</time></trkpt><trkpt lat="44.848607851561546" lon="9.472359604681635"><ele>663.2</ele><time>2026-04-18T11:50:05.002Z</time></trkpt><trkpt lat="44.84863122885449" lon="9.47250681856811"><ele>662.6</ele><time>2026-04-18T11:50:06.002Z</time></trkpt><trkpt lat="44.84866067003033" lon="9.472649475630945"><ele>662.0</ele><time>2026-04-18T11:50:07.002Z</time></trkpt><trkpt lat="44.848686806391136" lon="9.472788761712145"><ele>662.0</ele><time>2026-04-18T11:50:08.002Z</time></trkpt><trkpt lat="44.848714772430554" lon="9.472921118851625"><ele>662.0</ele><time>2026-04-18T11:50:09.002Z</time></trkpt><trkpt lat="44.84873956618237" lon="9.473015366431683"><ele>662.0</ele><time>2026-04-18T11:50:10.002Z</time></trkpt><trkpt lat="44.84876474610272" lon="9.473115622414173"><ele>662.0</ele><time>2026-04-18T11:50:17.002Z</time></trkpt><trkpt lat="44.84882589036853" lon="9.473149767232865"><ele>662.0</ele><time>2026-04-18T11:50:21.003Z</time></trkpt><trkpt lat="44.84877570050388" lon="9.473068699845687"><ele>662.0</ele><time>2026-04-18T11:50:30.003Z</time></trkpt><trkpt lat="44.84873530894564" lon="9.47298743302732"><ele>662.0</ele><time>2026-04-18T11:50:32.003Z</time></trkpt><trkpt lat="44.84869583215366" lon="9.472792125989656"><ele>662.0</ele><time>2026-04-18T11:50:34.003Z</time></trkpt><trkpt lat="44.8486761177261" lon="9.472676583628116"><ele>662.0</ele><time>2026-04-18T11:50:35.003Z</time></trkpt><trkpt lat="44.84863525433451" lon="9.472506169870174"><ele>662.0</ele><time>2026-04-18T11:50:36.003Z</time></trkpt><trkpt lat="44.848621992309305" lon="9.472356281765245"><ele>662.0</ele><time>2026-04-18T11:50:37.003Z</time></trkpt><trkpt lat="44.84860628121481" lon="9.47223023991707"><ele>662.0</ele><time>2026-04-18T11:50:38.003Z</time></trkpt><trkpt lat="44.848600651497875" lon="9.47210597352307"><ele>662.0</ele><time>2026-04-18T11:50:39.003Z</time></trkpt><trkpt lat="44.848614336784344" lon="9.471964132585862"><ele>662.0</ele><time>2026-04-18T11:50:40.003Z</time></trkpt><trkpt lat="44.848627897665274" lon="9.471812410426676"><ele>662.0</ele><time>2026-04-18T11:50:41.003Z</time></trkpt><trkpt lat="44.84863555269046" lon="9.471657180745844"><ele>662.4000000000001</ele><time>2026-04-18T11:50:42.003Z</time></trkpt><trkpt lat="44.84864478988511" lon="9.471502724226072"><ele>662.8000000000001</ele><time>2026-04-18T11:50:43.003Z</time></trkpt><trkpt lat="44.84864787951699" lon="9.471368389794309"><ele>663.2</ele><time>2026-04-18T11:50:44.003Z</time></trkpt><trkpt lat="44.848646462565284" lon="9.47123962809795"><ele>663.6</ele><time>2026-04-18T11:50:45.003Z</time></trkpt><trkpt lat="44.84863937097675" lon="9.47111967483817"><ele>664.0</ele><time>2026-04-18T11:50:45.999Z</time></trkpt><trkpt lat="44.84861623944417" lon="9.471003034271593"><ele>664.0</ele><time>2026-04-18T11:50:46.999Z</time></trkpt><trkpt lat="44.84857492621499" lon="9.470890152641926"><ele>664.0</ele><time>2026-04-18T11:50:47.999Z</time></trkpt><trkpt lat="44.84851882410171" lon="9.470784488790478"><ele>664.0</ele><time>2026-04-18T11:50:48.999Z</time></trkpt><trkpt lat="44.84845773526531" lon="9.47068787435764"><ele>664.0</ele><time>2026-04-18T11:50:49.999Z</time></trkpt><trkpt lat="44.8483915030574" lon="9.470585092475885"><ele>664.0</ele><time>2026-04-18T11:50:50.999Z</time></trkpt><trkpt lat="44.848327453485275" lon="9.470486444713906"><ele>665.1666666666667</ele><time>2026-04-18T11:50:51.999Z</time></trkpt><trkpt lat="44.84827114937332" lon="9.470397866035484"><ele>666.3333333333334</ele><time>2026-04-18T11:50:52.999Z</time></trkpt><trkpt lat="44.84821461435507" lon="9.470314044597574"><ele>667.5</ele><time>2026-04-18T11:50:54Z</time></trkpt><trkpt lat="44.84814874908748" lon="9.470242065952673"><ele>668.6666666666666</ele><time>2026-04-18T11:50:55Z</time></trkpt><trkpt lat="44.84808634789783" lon="9.470184023672989"><ele>669.8333333333333</ele><time>2026-04-18T11:50:56Z</time></trkpt><trkpt lat="44.84803533155166" lon="9.470125438585963"><ele>671.0</ele><time>2026-04-18T11:50:57Z</time></trkpt><trkpt lat="44.848003915166885" lon="9.470021749441777"><ele>671.0</ele><time>2026-04-18T11:50:58Z</time></trkpt><trkpt lat="44.84795375879528" lon="9.469931190626157"><ele>671.0</ele><time>2026-04-18T11:50:59Z</time></trkpt><trkpt lat="44.847906160432274" lon="9.469818796069614"><ele>671.0</ele><time>2026-04-18T11:51:00Z</time></trkpt><trkpt lat="44.847856697852215" lon="9.469683025526441"><ele>671.0</ele><time>2026-04-18T11:51:01Z</time></trkpt><trkpt lat="44.847809935055466" lon="9.469543543402683"><ele>671.0</ele><time>2026-04-18T11:51:02Z</time></trkpt><trkpt lat="44.84776294372407" lon="9.469394400365786"><ele>671.75</ele><time>2026-04-18T11:51:03Z</time></trkpt><trkpt lat="44.84771047225377" lon="9.469238116939923"><ele>672.5</ele><time>2026-04-18T11:51:04Z</time></trkpt><trkpt lat="44.8476495417391" lon="9.469056638751923"><ele>673.25</ele><time>2026-04-18T11:51:05Z</time></trkpt><trkpt lat="44.8475910854496" lon="9.468875052713077"><ele>674.0</ele><time>2026-04-18T11:51:06Z</time></trkpt><trkpt lat="44.847542496772036" lon="9.468687770122358"><ele>674.0</ele><time>2026-04-18T11:51:07Z</time></trkpt><trkpt lat="44.847497462500264" lon="9.468514455450958"><ele>674.0</ele><time>2026-04-18T11:51:08Z</time></trkpt><trkpt lat="44.847458724589075" lon="9.468350255677644"><ele>674.0</ele><time>2026-04-18T11:51:09Z</time></trkpt><trkpt lat="44.847423311901935" lon="9.4681886665887"><ele>674.0</ele><time>2026-04-18T11:51:10Z</time></trkpt><trkpt lat="44.84738993997951" lon="9.46803473486858"><ele>673.5</ele><time>2026-04-18T11:51:11Z</time></trkpt><trkpt lat="44.84734098626449" lon="9.467873619312345"><ele>673.0</ele><time>2026-04-18T11:51:12Z</time></trkpt><trkpt lat="44.847316157049654" lon="9.467712406429586"><ele>672.5</ele><time>2026-04-18T11:51:13Z</time></trkpt><trkpt lat="44.84729737589048" lon="9.46756108628183"><ele>672.0</ele><time>2026-04-18T11:51:14Z</time></trkpt><trkpt lat="44.84727587417185" lon="9.467421623543741"><ele>672.0</ele><time>2026-04-18T11:51:15Z</time></trkpt><trkpt lat="44.847263432195064" lon="9.467278860205116"><ele>672.0</ele><time>2026-04-18T11:51:16Z</time></trkpt><trkpt lat="44.84727069974778" lon="9.467139029908056"><ele>672.0</ele><time>2026-04-18T11:51:17Z</time></trkpt><trkpt lat="44.847301707903064" lon="9.466998942255305"><ele>672.0</ele><time>2026-04-18T11:51:18Z</time></trkpt><trkpt lat="44.84734228841688" lon="9.466871980471135"><ele>672.0</ele><time>2026-04-18T11:51:19.001Z</time></trkpt><trkpt lat="44.8473798424843" lon="9.46676055995641"><ele>672.2</ele><time>2026-04-18T11:51:20.001Z</time></trkpt><trkpt lat="44.84740807124081" lon="9.466652705681927"><ele>672.4000000000001</ele><time>2026-04-18T11:51:21.001Z</time></trkpt><trkpt lat="44.847425702909554" lon="9.466523990939555"><ele>672.5999999999999</ele><time>2026-04-18T11:51:22.001Z</time></trkpt><trkpt lat="44.84742746440653" lon="9.466385534168243"><ele>672.8</ele><time>2026-04-18T11:51:23.001Z</time></trkpt><trkpt lat="44.84742741084374" lon="9.466241351807149"><ele>673.0</ele><time>2026-04-18T11:51:24.001Z</time></trkpt><trkpt lat="44.84742854893857" lon="9.466099016574505"><ele>672.2</ele><time>2026-04-18T11:51:25.001Z</time></trkpt><trkpt lat="44.84743191133255" lon="9.465960762874351"><ele>671.4</ele><time>2026-04-18T11:51:26.001Z</time></trkpt><trkpt lat="44.84744110483254" lon="9.4658236435089"><ele>670.6</ele><time>2026-04-18T11:51:27.001Z</time></trkpt><trkpt lat="44.84744606034087" lon="9.465677277429025"><ele>669.8000000000001</ele><time>2026-04-18T11:51:28.001Z</time></trkpt><trkpt lat="44.84746295809361" lon="9.46553016565932"><ele>669.0</ele><time>2026-04-18T11:51:29.001Z</time></trkpt><trkpt lat="44.847485123102985" lon="9.465391998673633"><ele>668.0</ele><time>2026-04-18T11:51:30.001Z</time></trkpt><trkpt lat="44.84751277977866" lon="9.46525535546893"><ele>667.0</ele><time>2026-04-18T11:51:31.001Z</time></trkpt><trkpt lat="44.84754300287181" lon="9.465140532081644"><ele>666.0</ele><time>2026-04-18T11:51:32.001Z</time></trkpt><trkpt lat="44.84756720355631" lon="9.465050503534478"><ele>665.0</ele><time>2026-04-18T11:51:33.001Z</time></trkpt><trkpt lat="44.84758766260468" lon="9.464964327707365"><ele>664.0</ele><time>2026-04-18T11:51:36.001Z</time></trkpt><trkpt lat="44.847420912046815" lon="9.464987705386914"><ele>664.0</ele><time>2026-04-18T11:51:39.001Z</time></trkpt><trkpt lat="44.84732661537093" lon="9.465114007188163"><ele>664.0</ele><time>2026-04-18T11:51:41.001Z</time></trkpt><trkpt lat="44.84727901593227" lon="9.465179505716447"><ele>664.0</ele><time>2026-04-18T11:51:42.001Z</time></trkpt><trkpt lat="44.847214297808115" lon="9.465263810435166"><ele>664.0</ele><time>2026-04-18T11:51:43.001Z</time></trkpt><trkpt lat="44.847130780878764" lon="9.465351970368905"><ele>664.0</ele><time>2026-04-18T11:51:44.001Z</time></trkpt><trkpt lat="44.847044961869784" lon="9.465433679759254"><ele>663.4000000000001</ele><time>2026-04-18T11:51:45.001Z</time></trkpt><trkpt lat="44.846971127751324" lon="9.465523234929696"><ele>662.8</ele><time>2026-04-18T11:51:46.001Z</time></trkpt><trkpt lat="44.846882325162355" lon="9.465611517992386"><ele>662.2</ele><time>2026-04-18T11:51:47.001Z</time></trkpt><trkpt lat="44.84679137413018" lon="9.465685905223157"><ele>661.5999999999999</ele><time>2026-04-18T11:51:48.001Z</time></trkpt><trkpt lat="44.84670414004538" lon="9.465743699226403"><ele>661.0</ele><time>2026-04-18T11:51:49.002Z</time></trkpt><trkpt lat="44.84661941605544" lon="9.465780961400903"><ele>661.0</ele><time>2026-04-18T11:51:50.002Z</time></trkpt><trkpt lat="44.84654296171794" lon="9.465819284502937"><ele>661.0</ele><time>2026-04-18T11:51:51.002Z</time></trkpt><trkpt lat="44.846477565027556" lon="9.465875882097926"><ele>661.0</ele><time>2026-04-18T11:51:52.002Z</time></trkpt><trkpt lat="44.846415996704025" lon="9.465954933612046"><ele>661.0</ele><time>2026-04-18T11:51:53.002Z</time></trkpt><trkpt lat="44.846367429517834" lon="9.466061638444002"><ele>661.0</ele><time>2026-04-18T11:51:54.002Z</time></trkpt><trkpt lat="44.846317683287396" lon="9.46618785234193"><ele>661.0</ele><time>2026-04-18T11:51:55.002Z</time></trkpt><trkpt lat="44.84625779327969" lon="9.466304625433574"><ele>660.0</ele><time>2026-04-18T11:51:56.002Z</time></trkpt><trkpt lat="44.84617329927916" lon="9.466408346830615"><ele>659.0</ele><time>2026-04-18T11:51:57.002Z</time></trkpt><trkpt lat="44.846064767359145" lon="9.466472897562435"><ele>658.0</ele><time>2026-04-18T11:51:58.002Z</time></trkpt><trkpt lat="44.845991716929916" lon="9.46656697164339"><ele>657.0</ele><time>2026-04-18T11:51:59.002Z</time></trkpt><trkpt lat="44.84593086275898" lon="9.466649204808268"><ele>656.0</ele><time>2026-04-18T11:52:00.002Z</time></trkpt><trkpt lat="44.84588730034648" lon="9.466734952289562"><ele>656.0</ele><time>2026-04-18T11:52:01.002Z</time></trkpt><trkpt lat="44.84584727198879" lon="9.466839811081003"><ele>656.0</ele><time>2026-04-18T11:52:02.002Z</time></trkpt><trkpt lat="44.84581058120775" lon="9.466976820778974"><ele>656.0</ele><time>2026-04-18T11:52:03.002Z</time></trkpt><trkpt lat="44.84576310941414" lon="9.467132511757422"><ele>656.0</ele><time>2026-04-18T11:52:04.002Z</time></trkpt><trkpt lat="44.84571137798598" lon="9.467300221598146"><ele>656.0</ele><time>2026-04-18T11:52:05.002Z</time></trkpt><trkpt lat="44.845664321055544" lon="9.467457864556014"><ele>657.0</ele><time>2026-04-18T11:52:06.002Z</time></trkpt><trkpt lat="44.8456298932621" lon="9.46760999210589"><ele>658.0</ele><time>2026-04-18T11:52:07.002Z</time></trkpt><trkpt lat="44.84560213430949" lon="9.467752741815675"><ele>659.0</ele><time>2026-04-18T11:52:08.002Z</time></trkpt><trkpt lat="44.84556232316002" lon="9.467875308870783"><ele>660.0</ele><time>2026-04-18T11:52:09.002Z</time></trkpt><trkpt lat="44.84550948188331" lon="9.467971800189202"><ele>661.0</ele><time>2026-04-18T11:52:10.002Z</time></trkpt><trkpt lat="44.84544160632952" lon="9.468036983796868"><ele>660.8</ele><time>2026-04-18T11:52:11.002Z</time></trkpt><trkpt lat="44.84535233367868" lon="9.468078625437393"><ele>660.5999999999999</ele><time>2026-04-18T11:52:12.002Z</time></trkpt><trkpt lat="44.84525213554722" lon="9.468109645737483"><ele>660.4</ele><time>2026-04-18T11:52:13.002Z</time></trkpt><trkpt lat="44.84514828950414" lon="9.46814346231428"><ele>660.2</ele><time>2026-04-18T11:52:14.002Z</time></trkpt><trkpt lat="44.84506361657773" lon="9.46818380235789"><ele>660.0</ele><time>2026-04-18T11:52:15.002Z</time></trkpt><trkpt lat="44.844987713423166" lon="9.46822483502716"><ele>660.0</ele><time>2026-04-18T11:52:16.002Z</time></trkpt><trkpt lat="44.84490928878452" lon="9.468270210828758"><ele>660.0</ele><time>2026-04-18T11:52:17.002Z</time></trkpt><trkpt lat="44.844829287523794" lon="9.468326111969105"><ele>660.0</ele><time>2026-04-18T11:52:18.002Z</time></trkpt><trkpt lat="44.84473385822596" lon="9.468377659676174"><ele>660.0</ele><time>2026-04-18T11:52:19.002Z</time></trkpt><trkpt lat="44.84463096877562" lon="9.468418412230575"><ele>660.0</ele><time>2026-04-18T11:52:20.002Z</time></trkpt><trkpt lat="44.844535302834345" lon="9.46844629179572"><ele>660.0</ele><time>2026-04-18T11:52:21.003Z</time></trkpt><trkpt lat="44.84444713872902" lon="9.468473199660137"><ele>660.0</ele><time>2026-04-18T11:52:22.003Z</time></trkpt><trkpt lat="44.84435751645222" lon="9.46852769924812"><ele>660.0</ele><time>2026-04-18T11:52:23.003Z</time></trkpt><trkpt lat="44.8442698307498" lon="9.46861330394202"><ele>660.0</ele><time>2026-04-18T11:52:24.003Z</time></trkpt><trkpt lat="44.844185090279524" lon="9.468730281106403"><ele>660.0</ele><time>2026-04-18T11:52:25.003Z</time></trkpt><trkpt lat="44.84410561079759" lon="9.468862684616823"><ele>660.4</ele><time>2026-04-18T11:52:26.003Z</time></trkpt><trkpt lat="44.844033515796745" lon="9.468983436064464"><ele>660.8</ele><time>2026-04-18T11:52:27.003Z</time></trkpt><trkpt lat="44.843973809174024" lon="9.469106727498161"><ele>661.2</ele><time>2026-04-18T11:52:28.003Z</time></trkpt><trkpt lat="44.843921627517744" lon="9.469251741898686"><ele>661.6</ele><time>2026-04-18T11:52:29.003Z</time></trkpt><trkpt lat="44.843881057501356" lon="9.46939034692408"><ele>662.0</ele><time>2026-04-18T11:52:30.003Z</time></trkpt><trkpt lat="44.84383449505058" lon="9.469513086953855"><ele>661.0</ele><time>2026-04-18T11:52:31.003Z</time></trkpt><trkpt lat="44.84377268038246" lon="9.469609756448085"><ele>660.0</ele><time>2026-04-18T11:52:32.003Z</time></trkpt><trkpt lat="44.843691409189326" lon="9.469678515924317"><ele>659.0</ele><time>2026-04-18T11:52:33.003Z</time></trkpt><trkpt lat="44.84358715783136" lon="9.469705020383124"><ele>658.0</ele><time>2026-04-18T11:52:34.003Z</time></trkpt><trkpt lat="44.8434759460353" lon="9.469781395539004"><ele>657.0</ele><time>2026-04-18T11:52:35.003Z</time></trkpt><trkpt lat="44.84335887046705" lon="9.469855868844814"><ele>657.0</ele><time>2026-04-18T11:52:36.003Z</time></trkpt><trkpt lat="44.84323620687015" lon="9.469934281933046"><ele>657.0</ele><time>2026-04-18T11:52:37.003Z</time></trkpt><trkpt lat="44.8431137101572" lon="9.469993258705653"><ele>657.0</ele><time>2026-04-18T11:52:38.003Z</time></trkpt><trkpt lat="44.84299671365941" lon="9.47006240976464"><ele>657.0</ele><time>2026-04-18T11:52:39.003Z</time></trkpt><trkpt lat="44.84289145525102" lon="9.470155466236742"><ele>657.0</ele><time>2026-04-18T11:52:40.003Z</time></trkpt><trkpt lat="44.84278814944774" lon="9.470248116399006"><ele>657.0</ele><time>2026-04-18T11:52:41.003Z</time></trkpt><trkpt lat="44.84268322924172" lon="9.470333521421797"><ele>657.0</ele><time>2026-04-18T11:52:42.003Z</time></trkpt><trkpt lat="44.84257881622803" lon="9.470396838007334"><ele>657.0</ele><time>2026-04-18T11:52:43.003Z</time></trkpt><trkpt lat="44.842476596235024" lon="9.47044686621403"><ele>658.6</ele><time>2026-04-18T11:52:44.003Z</time></trkpt><trkpt lat="44.84238193097582" lon="9.470480472664711"><ele>660.2</ele><time>2026-04-18T11:52:45.003Z</time></trkpt><trkpt lat="44.84228263369563" lon="9.470466465873892"><ele>661.8</ele><time>2026-04-18T11:52:46.003Z</time></trkpt><trkpt lat="44.84218331616675" lon="9.470442167478302"><ele>663.4</ele><time>2026-04-18T11:52:47.003Z</time></trkpt><trkpt lat="44.842085799300065" lon="9.470388190190645"><ele>665.0</ele><time>2026-04-18T11:52:48.003Z</time></trkpt><trkpt lat="44.8419950601764" lon="9.470360682599956"><ele>661.6</ele><time>2026-04-18T11:52:49.003Z</time></trkpt><trkpt lat="44.84190627184173" lon="9.470350604722313"><ele>658.2</ele><time>2026-04-18T11:52:50.003Z</time></trkpt><trkpt lat="44.84181102929228" lon="9.47037045464252"><ele>654.8</ele><time>2026-04-18T11:52:51.003Z</time></trkpt><trkpt lat="44.8417025782524" lon="9.470375616018904"><ele>651.4</ele><time>2026-04-18T11:52:51.999Z</time></trkpt><trkpt lat="44.841586576391904" lon="9.470382135761989"><ele>648.0</ele><time>2026-04-18T11:52:52.999Z</time></trkpt><trkpt lat="44.84146757203386" lon="9.470382945433563"><ele>647.4</ele><time>2026-04-18T11:52:53.999Z</time></trkpt><trkpt lat="44.84135496353393" lon="9.470391351533726"><ele>646.8</ele><time>2026-04-18T11:52:54.999Z</time></trkpt><trkpt lat="44.84124829855459" lon="9.470364168443389"><ele>646.2</ele><time>2026-04-18T11:52:55.999Z</time></trkpt><trkpt lat="44.84113892601333" lon="9.470338183680616"><ele>645.6</ele><time>2026-04-18T11:52:56.999Z</time></trkpt><trkpt lat="44.841038706658885" lon="9.470293528736121"><ele>645.0</ele><time>2026-04-18T11:52:57.999Z</time></trkpt><trkpt lat="44.84093824743904" lon="9.47024812771462"><ele>644.8</ele><time>2026-04-18T11:52:58.999Z</time></trkpt><trkpt lat="44.84084171518463" lon="9.470220700416307"><ele>644.6</ele><time>2026-04-18T11:52:59.999Z</time></trkpt><trkpt lat="44.84074730072204" lon="9.470218278579656"><ele>644.4000000000001</ele><time>2026-04-18T11:53:00.999Z</time></trkpt><trkpt lat="44.84064640643469" lon="9.470269606955803"><ele>644.2</ele><time>2026-04-18T11:53:01.999Z</time></trkpt><trkpt lat="44.840532997455945" lon="9.470322103263246"><ele>644.0</ele><time>2026-04-18T11:53:03Z</time></trkpt><trkpt lat="44.84042239227992" lon="9.470392746237998"><ele>645.2</ele><time>2026-04-18T11:53:04Z</time></trkpt><trkpt lat="44.84032118693325" lon="9.47048321806913"><ele>646.4000000000001</ele><time>2026-04-18T11:53:05Z</time></trkpt><trkpt lat="44.84022804940375" lon="9.470580987894989"><ele>647.6</ele><time>2026-04-18T11:53:06Z</time></trkpt><trkpt lat="44.84014482808372" lon="9.470677769517753"><ele>648.8</ele><time>2026-04-18T11:53:07Z</time></trkpt><trkpt lat="44.840071245408204" lon="9.470773949847567"><ele>650.0</ele><time>2026-04-18T11:53:08Z</time></trkpt><trkpt lat="44.8400056058931" lon="9.470865243783463"><ele>650.0</ele><time>2026-04-18T11:53:09Z</time></trkpt><trkpt lat="44.83994781888062" lon="9.470946553512382"><ele>650.0</ele><time>2026-04-18T11:53:10Z</time></trkpt><trkpt lat="44.83988398292663" lon="9.471029999958162"><ele>650.0</ele><time>2026-04-18T11:53:11Z</time></trkpt><trkpt lat="44.83982154799465" lon="9.47111218867602"><ele>650.0</ele><time>2026-04-18T11:53:12Z</time></trkpt><trkpt lat="44.83975709976643" lon="9.471187139243868"><ele>650.0</ele><time>2026-04-18T11:53:13Z</time></trkpt><trkpt lat="44.839670865363516" lon="9.471225922521212"><ele>650.0</ele><time>2026-04-18T11:53:15Z</time></trkpt><trkpt lat="44.83964209661807" lon="9.471095415082255"><ele>650.0</ele><time>2026-04-18T11:53:19Z</time></trkpt><trkpt lat="44.83962287063245" lon="9.471000624636766"><ele>650.0</ele><time>2026-04-18T11:53:20Z</time></trkpt><trkpt lat="44.83960243703861" lon="9.470905404085775"><ele>650.0</ele><time>2026-04-18T11:53:21Z</time></trkpt><trkpt lat="44.839581939241384" lon="9.470814844379378"><ele>650.0</ele><time>2026-04-18T11:53:22Z</time></trkpt><trkpt lat="44.839555414511594" lon="9.470702784301277"><ele>650.0</ele><time>2026-04-18T11:53:23Z</time></trkpt><trkpt lat="44.8395216829865" lon="9.470596898405805"><ele>650.0</ele><time>2026-04-18T11:53:24Z</time></trkpt><trkpt lat="44.83948069311481" lon="9.47051100492472"><ele>650.0</ele><time>2026-04-18T11:53:25Z</time></trkpt><trkpt lat="44.83943337364002" lon="9.470442112199239"><ele>647.6</ele><time>2026-04-18T11:53:26Z</time></trkpt><trkpt lat="44.83934675866625" lon="9.470393123488765"><ele>645.2</ele><time>2026-04-18T11:53:27.001Z</time></trkpt><trkpt lat="44.83925051586607" lon="9.47035803156471"><ele>642.8</ele><time>2026-04-18T11:53:28.001Z</time></trkpt><trkpt lat="44.839145942987294" lon="9.47034319881206"><ele>640.4</ele><time>2026-04-18T11:53:29.001Z</time></trkpt><trkpt lat="44.839048050469366" lon="9.470337806524975"><ele>638.0</ele><time>2026-04-18T11:53:30.001Z</time></trkpt><trkpt lat="44.838956458332255" lon="9.470318867855163"><ele>637.3333333333333</ele><time>2026-04-18T11:53:31.001Z</time></trkpt><trkpt lat="44.838884778416464" lon="9.470277736990472"><ele>636.6666666666666</ele><time>2026-04-18T11:53:32.001Z</time></trkpt><trkpt lat="44.83882868354747" lon="9.470206493627865"><ele>636.0</ele><time>2026-04-18T11:53:33.001Z</time></trkpt><trkpt lat="44.838767458701426" lon="9.4701308564612"><ele>635.3333333333334</ele><time>2026-04-18T11:53:34.001Z</time></trkpt><trkpt lat="44.83871921022252" lon="9.470060497008987"><ele>634.6666666666667</ele><time>2026-04-18T11:53:35.001Z</time></trkpt><trkpt lat="44.83864040523297" lon="9.470010329675237"><ele>634.0</ele><time>2026-04-18T11:53:37.001Z</time></trkpt><trkpt lat="44.83856501939638" lon="9.470054378774945"><ele>634.0</ele><time>2026-04-18T11:53:39.001Z</time></trkpt><trkpt lat="44.83852592836846" lon="9.470140911775397"><ele>634.0</ele><time>2026-04-18T11:53:41.001Z</time></trkpt><trkpt lat="44.838490879957384" lon="9.470246784935265"><ele>634.0</ele><time>2026-04-18T11:53:43.001Z</time></trkpt><trkpt lat="44.83846268245059" lon="9.47041095293481"><ele>634.0</ele><time>2026-04-18T11:53:45.001Z</time></trkpt><trkpt lat="44.83845151489371" lon="9.47050372134847"><ele>634.0</ele><time>2026-04-18T11:53:46.001Z</time></trkpt><trkpt lat="44.83845511008718" lon="9.470600754777372"><ele>634.0</ele><time>2026-04-18T11:53:47.001Z</time></trkpt><trkpt lat="44.838482247578774" lon="9.470767968264992"><ele>635.5</ele><time>2026-04-18T11:53:49.001Z</time></trkpt><trkpt lat="44.838546604734205" lon="9.470938234232426"><ele>637.0</ele><time>2026-04-18T11:53:51.001Z</time></trkpt><trkpt lat="44.838579217028105" lon="9.47102857968428"><ele>638.5</ele><time>2026-04-18T11:53:52.001Z</time></trkpt><trkpt lat="44.838599334952846" lon="9.471118820880907"><ele>640.0</ele><time>2026-04-18T11:53:53.001Z</time></trkpt><trkpt lat="44.83859371459318" lon="9.47121296033736"><ele>641.5</ele><time>2026-04-18T11:53:54.001Z</time></trkpt><trkpt lat="44.83855269301504" lon="9.471286355214188"><ele>643.0</ele><time>2026-04-18T11:53:55.001Z</time></trkpt><trkpt lat="44.838524782820954" lon="9.471390796355518"><ele>643.8</ele><time>2026-04-18T11:53:56.001Z</time></trkpt><trkpt lat="44.838474196006594" lon="9.471488613641984"><ele>644.5999999999999</ele><time>2026-04-18T11:53:57.002Z</time></trkpt><trkpt lat="44.8384246374391" lon="9.471599000004595"><ele>645.4000000000001</ele><time>2026-04-18T11:53:58.002Z</time></trkpt><trkpt lat="44.83836913883346" lon="9.47172059035074"><ele>646.2</ele><time>2026-04-18T11:53:59.002Z</time></trkpt><trkpt lat="44.838314535752275" lon="9.471841376959535"><ele>647.0</ele><time>2026-04-18T11:54:00.002Z</time></trkpt><trkpt lat="44.83826478390108" lon="9.471947632144587"><ele>644.0</ele><time>2026-04-18T11:54:01.002Z</time></trkpt><trkpt lat="44.8382156427966" lon="9.472053405879267"><ele>641.0</ele><time>2026-04-18T11:54:02.002Z</time></trkpt><trkpt lat="44.838172089468415" lon="9.472156353636127"><ele>638.0</ele><time>2026-04-18T11:54:03.002Z</time></trkpt><trkpt lat="44.83812289547883" lon="9.47226111356713"><ele>635.0</ele><time>2026-04-18T11:54:04.002Z</time></trkpt><trkpt lat="44.838093642358174" lon="9.472382363471098"><ele>632.0</ele><time>2026-04-18T11:54:05.002Z</time></trkpt><trkpt lat="44.83807647425207" lon="9.472514712638427"><ele>632.0</ele><time>2026-04-18T11:54:06.002Z</time></trkpt><trkpt lat="44.83808082608322" lon="9.472632264271269"><ele>632.0</ele><time>2026-04-18T11:54:07.002Z</time></trkpt><trkpt lat="44.83807770944075" lon="9.472770944619558"><ele>632.0</ele><time>2026-04-18T11:54:08.002Z</time></trkpt><trkpt lat="44.838068480580176" lon="9.472923036420736"><ele>632.0</ele><time>2026-04-18T11:54:09.002Z</time></trkpt><trkpt lat="44.838049592588575" lon="9.47305999656276"><ele>632.0</ele><time>2026-04-18T11:54:10.002Z</time></trkpt><trkpt lat="44.83802614891053" lon="9.473192309638296"><ele>631.6</ele><time>2026-04-18T11:54:11.002Z</time></trkpt><trkpt lat="44.837985293749824" lon="9.473306748449593"><ele>631.2</ele><time>2026-04-18T11:54:12.002Z</time></trkpt><trkpt lat="44.83792822636912" lon="9.473417770640784"><ele>630.8</ele><time>2026-04-18T11:54:13.002Z</time></trkpt><trkpt lat="44.83785631479819" lon="9.473493757301238"><ele>630.4</ele><time>2026-04-18T11:54:14.002Z</time></trkpt><trkpt lat="44.837759942857346" lon="9.473537604901901"><ele>630.0</ele><time>2026-04-18T11:54:15.002Z</time></trkpt><trkpt lat="44.8376731508414" lon="9.473600688354047"><ele>627.5</ele><time>2026-04-18T11:54:16.002Z</time></trkpt><trkpt lat="44.83759126816098" lon="9.473676681668733"><ele>625.0</ele><time>2026-04-18T11:54:17.002Z</time></trkpt><trkpt lat="44.83750308825665" lon="9.473794496597597"><ele>622.5</ele><time>2026-04-18T11:54:18.002Z</time></trkpt><trkpt lat="44.83741262203638" lon="9.473918830632106"><ele>620.0</ele><time>2026-04-18T11:54:19.002Z</time></trkpt><trkpt lat="44.837321834283486" lon="9.474047048031995"><ele>620.0</ele><time>2026-04-18T11:54:20.002Z</time></trkpt><trkpt lat="44.83722445199207" lon="9.474165044307016"><ele>620.0</ele><time>2026-04-18T11:54:21.002Z</time></trkpt><trkpt lat="44.83713547996415" lon="9.474278979486849"><ele>620.0</ele><time>2026-04-18T11:54:22.002Z</time></trkpt><trkpt lat="44.837049284593306" lon="9.474389608515724"><ele>620.0</ele><time>2026-04-18T11:54:23.002Z</time></trkpt><trkpt lat="44.83696210724439" lon="9.47448191172943"><ele>620.0</ele><time>2026-04-18T11:54:24.002Z</time></trkpt><trkpt lat="44.836865575616144" lon="9.474551234545558"><ele>620.0</ele><time>2026-04-18T11:54:25.002Z</time></trkpt><trkpt lat="44.836765782760025" lon="9.474597767340223"><ele>620.0</ele><time>2026-04-18T11:54:26.002Z</time></trkpt><trkpt lat="44.83668362036377" lon="9.474646317185274"><ele>620.0</ele><time>2026-04-18T11:54:27.002Z</time></trkpt><trkpt lat="44.83660940649038" lon="9.47469635794878"><ele>620.0</ele><time>2026-04-18T11:54:28.002Z</time></trkpt><trkpt lat="44.836524513675435" lon="9.474748033576992"><ele>619.5</ele><time>2026-04-18T11:54:29.002Z</time></trkpt><trkpt lat="44.836435908445765" lon="9.474769432783127"><ele>619.0</ele><time>2026-04-18T11:54:30.003Z</time></trkpt><trkpt lat="44.83632117296739" lon="9.474797793537881"><ele>618.5</ele><time>2026-04-18T11:54:31.003Z</time></trkpt><trkpt lat="44.836181789781044" lon="9.474841561531147"><ele>618.0</ele><time>2026-04-18T11:54:32.003Z</time></trkpt><trkpt lat="44.83607774914376" lon="9.47487842592502"><ele>618.0</ele><time>2026-04-18T11:54:33.003Z</time></trkpt><trkpt lat="44.83598386474706" lon="9.47493749578241"><ele>618.0</ele><time>2026-04-18T11:54:34.003Z</time></trkpt><trkpt lat="44.835888873824395" lon="9.475029131964018"><ele>618.0</ele><time>2026-04-18T11:54:35.003Z</time></trkpt><trkpt lat="44.83579314089012" lon="9.475122676644121"><ele>618.0</ele><time>2026-04-18T11:54:36.003Z</time></trkpt><trkpt lat="44.83572009609674" lon="9.475227762644572"><ele>618.0</ele><time>2026-04-18T11:54:37.003Z</time></trkpt><trkpt lat="44.835655305140065" lon="9.475344746352278"><ele>616.0</ele><time>2026-04-18T11:54:38.003Z</time></trkpt><trkpt lat="44.835624470514354" lon="9.475484461273687"><ele>614.0</ele><time>2026-04-18T11:54:39.003Z</time></trkpt><trkpt lat="44.835568647404486" lon="9.475568034850433"><ele>612.0</ele><time>2026-04-18T11:54:40.003Z</time></trkpt><trkpt lat="44.83548480452067" lon="9.47560083832961"><ele>610.0</ele><time>2026-04-18T11:54:42.003Z</time></trkpt><trkpt lat="44.83542370730705" lon="9.475480954496295"><ele>608.0</ele><time>2026-04-18T11:54:44.003Z</time></trkpt><trkpt lat="44.835386077904104" lon="9.475370743424373"><ele>605.8</ele><time>2026-04-18T11:54:45.003Z</time></trkpt><trkpt lat="44.83537280843812" lon="9.475232337045782"><ele>603.5999999999999</ele><time>2026-04-18T11:54:46.003Z</time></trkpt><trkpt lat="44.83538281547726" lon="9.475087272162204"><ele>601.4000000000001</ele><time>2026-04-18T11:54:47.003Z</time></trkpt><trkpt lat="44.835432037767404" lon="9.474954065771737"><ele>599.2</ele><time>2026-04-18T11:54:48.003Z</time></trkpt><trkpt lat="44.83546369123339" lon="9.474804984085376"><ele>597.0</ele><time>2026-04-18T11:54:49.003Z</time></trkpt><trkpt lat="44.83550255283838" lon="9.47466273518524"><ele>596.0</ele><time>2026-04-18T11:54:50.003Z</time></trkpt><trkpt lat="44.83552094966934" lon="9.474526877857606"><ele>595.0</ele><time>2026-04-18T11:54:51.003Z</time></trkpt><trkpt lat="44.83552490534968" lon="9.474396166273463"><ele>594.0</ele><time>2026-04-18T11:54:52.003Z</time></trkpt><trkpt lat="44.83552963819819" lon="9.4742469567519"><ele>593.0</ele><time>2026-04-18T11:54:53.003Z</time></trkpt><trkpt lat="44.83549253072311" lon="9.47408893441843"><ele>592.0</ele><time>2026-04-18T11:54:54.003Z</time></trkpt><trkpt lat="44.83542807937078" lon="9.473941842376849"><ele>592.0</ele><time>2026-04-18T11:54:55.003Z</time></trkpt><trkpt lat="44.83539265713373" lon="9.47378327519312"><ele>592.0</ele><time>2026-04-18T11:54:56.003Z</time></trkpt><trkpt lat="44.83539031458626" lon="9.473613892549249"><ele>592.0</ele><time>2026-04-18T11:54:57.003Z</time></trkpt><trkpt lat="44.83537983243261" lon="9.473451687038418"><ele>592.0</ele><time>2026-04-18T11:54:57.998Z</time></trkpt><trkpt lat="44.83537157551007" lon="9.473299880865527"><ele>591.6</ele><time>2026-04-18T11:54:58.999Z</time></trkpt><trkpt lat="44.83534688510611" lon="9.473166442225862"><ele>591.2</ele><time>2026-04-18T11:54:59.999Z</time></trkpt><trkpt lat="44.835336930599674" lon="9.473074297908838"><ele>590.8</ele><time>2026-04-18T11:55:00.999Z</time></trkpt><trkpt lat="44.83530632342401" lon="9.472980289042416"><ele>590.4</ele><time>2026-04-18T11:55:02.999Z</time></trkpt><trkpt lat="44.83520921422579" lon="9.473028015102294"><ele>590.0</ele><time>2026-04-18T11:55:03.999Z</time></trkpt><trkpt lat="44.83519652436369" lon="9.473229224279304"><ele>590.0</ele><time>2026-04-18T11:55:05.999Z</time></trkpt><trkpt lat="44.8352024292357" lon="9.473351728218047"><ele>590.0</ele><time>2026-04-18T11:55:06.999Z</time></trkpt><trkpt lat="44.83519285167599" lon="9.47349134467571"><ele>590.0</ele><time>2026-04-18T11:55:07.999Z</time></trkpt><trkpt lat="44.83513200349228" lon="9.473594223283422"><ele>590.0</ele><time>2026-04-18T11:55:08.999Z</time></trkpt><trkpt lat="44.835104787876666" lon="9.473730714352529"><ele>590.0</ele><time>2026-04-18T11:55:09.999Z</time></trkpt><trkpt lat="44.83506068582937" lon="9.473881140347924"><ele>586.25</ele><time>2026-04-18T11:55:10.999Z</time></trkpt><trkpt lat="44.834997854968066" lon="9.474030428784761"><ele>582.5</ele><time>2026-04-18T11:55:11.999Z</time></trkpt><trkpt lat="44.8349012495295" lon="9.474151380194739"><ele>578.75</ele><time>2026-04-18T11:55:12.999Z</time></trkpt><trkpt lat="44.83481201856704" lon="9.474281312779752"><ele>575.0</ele><time>2026-04-18T11:55:13.999Z</time></trkpt><trkpt lat="44.834720282610206" lon="9.474386773088423"><ele>575.0</ele><time>2026-04-18T11:55:14.999Z</time></trkpt><trkpt lat="44.834629735448715" lon="9.474500669192688"><ele>575.0</ele><time>2026-04-18T11:55:16Z</time></trkpt><trkpt lat="44.83452552145083" lon="9.474588205359842"><ele>575.0</ele><time>2026-04-18T11:55:17Z</time></trkpt><trkpt lat="44.83442932175139" lon="9.474682706319141"><ele>575.0</ele><time>2026-04-18T11:55:18Z</time></trkpt><trkpt lat="44.83433797857982" lon="9.474777792487906"><ele>573.6</ele><time>2026-04-18T11:55:19Z</time></trkpt><trkpt lat="44.83425241239348" lon="9.474859727073701"><ele>572.2</ele><time>2026-04-18T11:55:20Z</time></trkpt><trkpt lat="44.83415832796949" lon="9.474906773413045"><ele>570.8</ele><time>2026-04-18T11:55:21Z</time></trkpt><trkpt lat="44.83407670026977" lon="9.474972941886026"><ele>569.4</ele><time>2026-04-18T11:55:22Z</time></trkpt><trkpt lat="44.83398498020777" lon="9.474995998242724"><ele>568.0</ele><time>2026-04-18T11:55:23Z</time></trkpt><trkpt lat="44.83389451068584" lon="9.475004976032249"><ele>568.0</ele><time>2026-04-18T11:55:24Z</time></trkpt><trkpt lat="44.83381963591416" lon="9.475042993171494"><ele>568.0</ele><time>2026-04-18T11:55:25Z</time></trkpt><trkpt lat="44.833765326359924" lon="9.475113977325359"><ele>568.0</ele><time>2026-04-18T11:55:26Z</time></trkpt><trkpt lat="44.83372873133745" lon="9.47520835680811"><ele>568.0</ele><time>2026-04-18T11:55:27Z</time></trkpt><trkpt lat="44.83372286530792" lon="9.475309914912003"><ele>568.0</ele><time>2026-04-18T11:55:28Z</time></trkpt><trkpt lat="44.833736057451794" lon="9.475432630451374"><ele>568.0</ele><time>2026-04-18T11:55:29Z</time></trkpt><trkpt lat="44.833766466160434" lon="9.475569287915715"><ele>568.25</ele><time>2026-04-18T11:55:30Z</time></trkpt><trkpt lat="44.83377306952357" lon="9.475734019630755"><ele>568.5</ele><time>2026-04-18T11:55:31Z</time></trkpt><trkpt lat="44.833784009317476" lon="9.475909479314467"><ele>568.75</ele><time>2026-04-18T11:55:32Z</time></trkpt><trkpt lat="44.833818999096486" lon="9.476065059347357"><ele>569.0</ele><time>2026-04-18T11:55:33Z</time></trkpt><trkpt lat="44.83381339094721" lon="9.476217393885017"><ele>569.4</ele><time>2026-04-18T11:55:34.001Z</time></trkpt><trkpt lat="44.83376075068831" lon="9.476351565791488"><ele>569.8</ele><time>2026-04-18T11:55:35.001Z</time></trkpt><trkpt lat="44.83373599470421" lon="9.476494663278778"><ele>570.2</ele><time>2026-04-18T11:55:36.001Z</time></trkpt><trkpt lat="44.83371029588745" lon="9.476641156051624"><ele>570.6</ele><time>2026-04-18T11:55:37.001Z</time></trkpt><trkpt lat="44.833696260577426" lon="9.476800837161967"><ele>571.0</ele><time>2026-04-18T11:55:38.001Z</time></trkpt><trkpt lat="44.83369350802958" lon="9.476957494773389"><ele>571.4</ele><time>2026-04-18T11:55:39.001Z</time></trkpt><trkpt lat="44.83370138659702" lon="9.477109260566356"><ele>571.8</ele><time>2026-04-18T11:55:40.001Z</time></trkpt><trkpt lat="44.833699536418415" lon="9.477228511342846"><ele>572.1999999999999</ele><time>2026-04-18T11:55:41.001Z</time></trkpt><trkpt lat="44.833666745067625" lon="9.47737257114382"><ele>572.6</ele><time>2026-04-18T11:55:43.001Z</time></trkpt><trkpt lat="44.833644233312945" lon="9.477534801782571"><ele>573.0</ele><time>2026-04-18T11:55:45.001Z</time></trkpt><trkpt lat="44.833627025492454" lon="9.47765296075032"><ele>573.0</ele><time>2026-04-18T11:55:46.001Z</time></trkpt><trkpt lat="44.8336120412123" lon="9.477789059490432"><ele>573.0</ele><time>2026-04-18T11:55:47.001Z</time></trkpt><trkpt lat="44.83360345264631" lon="9.477926376591476"><ele>573.0</ele><time>2026-04-18T11:55:48.001Z</time></trkpt><trkpt lat="44.83356260404467" lon="9.478050051781"><ele>573.0</ele><time>2026-04-18T11:55:49.001Z</time></trkpt><trkpt lat="44.83351097763744" lon="9.478165652045679"><ele>573.0</ele><time>2026-04-18T11:55:50.001Z</time></trkpt><trkpt lat="44.83346746870466" lon="9.4782688677226"><ele>572.8333333333334</ele><time>2026-04-18T11:55:51.001Z</time></trkpt><trkpt lat="44.833465586694025" lon="9.478361694671692"><ele>572.6666666666666</ele><time>2026-04-18T11:55:52.001Z</time></trkpt><trkpt lat="44.83348638354283" lon="9.478456331579515"><ele>572.5</ele><time>2026-04-18T11:55:53.001Z</time></trkpt><trkpt lat="44.8335190983767" lon="9.478554517447462"><ele>572.3333333333333</ele><time>2026-04-18T11:55:54.001Z</time></trkpt><trkpt lat="44.83353280658387" lon="9.47869236092657"><ele>572.1666666666666</ele><time>2026-04-18T11:55:55.001Z</time></trkpt><trkpt lat="44.833567647440404" lon="9.478848823954332"><ele>572.0</ele><time>2026-04-18T11:55:56.001Z</time></trkpt><trkpt lat="44.8335803356987" lon="9.479009370593895"><ele>570.8000000000001</ele><time>2026-04-18T11:55:57.001Z</time></trkpt><trkpt lat="44.833590545454044" lon="9.479156236212749"><ele>569.6</ele><time>2026-04-18T11:55:58.001Z</time></trkpt><trkpt lat="44.83359528667047" lon="9.479293937013809"><ele>568.4000000000001</ele><time>2026-04-18T11:55:59.001Z</time></trkpt><trkpt lat="44.83360876329799" lon="9.479400690296"><ele>567.2</ele><time>2026-04-18T11:56:00.001Z</time></trkpt><trkpt lat="44.8336399336749" lon="9.479482670283701"><ele>566.0</ele><time>2026-04-18T11:56:01.001Z</time></trkpt><trkpt lat="44.83374766991652" lon="9.479613953426641"><ele>561.8</ele><time>2026-04-18T11:56:03.002Z</time></trkpt><trkpt lat="44.833819636546934" lon="9.479706349559592"><ele>557.6</ele><time>2026-04-18T11:56:04.002Z</time></trkpt><trkpt lat="44.83388007293362" lon="9.479822176435945"><ele>553.4</ele><time>2026-04-18T11:56:05.002Z</time></trkpt><trkpt lat="44.83393223925347" lon="9.479947227183722"><ele>549.2</ele><time>2026-04-18T11:56:06.002Z</time></trkpt><trkpt lat="44.83398511465736" lon="9.480077652325372"><ele>545.0</ele><time>2026-04-18T11:56:07.002Z</time></trkpt><trkpt lat="44.83404303957089" lon="9.480211230019108"><ele>545.0</ele><time>2026-04-18T11:56:08.002Z</time></trkpt><trkpt lat="44.83410481954582" lon="9.480350958925701"><ele>545.0</ele><time>2026-04-18T11:56:09.002Z</time></trkpt><trkpt lat="44.83415905451619" lon="9.480486104261963"><ele>545.0</ele><time>2026-04-18T11:56:10.002Z</time></trkpt><trkpt lat="44.83419592842434" lon="9.480611357356869"><ele>545.0</ele><time>2026-04-18T11:56:11.002Z</time></trkpt><trkpt lat="44.834211624453445" lon="9.48071515476205"><ele>545.0</ele><time>2026-04-18T11:56:12.002Z</time></trkpt><trkpt lat="44.83422163902391" lon="9.480815309975226"><ele>544.8333333333333</ele><time>2026-04-18T11:56:13.002Z</time></trkpt><trkpt lat="44.83424191557585" lon="9.480902908605104"><ele>544.6666666666666</ele><time>2026-04-18T11:56:14.002Z</time></trkpt><trkpt lat="44.83427679888835" lon="9.480993003050177"><ele>544.5</ele><time>2026-04-18T11:56:15.002Z</time></trkpt><trkpt lat="44.83432826086538" lon="9.481080432715567"><ele>544.3333333333334</ele><time>2026-04-18T11:56:16.002Z</time></trkpt><trkpt lat="44.83439137554984" lon="9.481159190591843"><ele>544.1666666666667</ele><time>2026-04-18T11:56:17.002Z</time></trkpt><trkpt lat="44.83446842296427" lon="9.481241964841928"><ele>544.0</ele><time>2026-04-18T11:56:18.002Z</time></trkpt><trkpt lat="44.83454620226841" lon="9.481320035293146"><ele>540.0</ele><time>2026-04-18T11:56:19.002Z</time></trkpt><trkpt lat="44.834628788932314" lon="9.48138854167026"><ele>536.0</ele><time>2026-04-18T11:56:20.002Z</time></trkpt><trkpt lat="44.83469817057903" lon="9.481436144017561"><ele>532.0</ele><time>2026-04-18T11:56:21.002Z</time></trkpt><trkpt lat="44.83482237434437" lon="9.481495001576663"><ele>528.0</ele><time>2026-04-18T11:56:23.002Z</time></trkpt><trkpt lat="44.83490276429391" lon="9.48150273874328"><ele>524.0</ele><time>2026-04-18T11:56:24.002Z</time></trkpt><trkpt lat="44.835003000690435" lon="9.481492079490996"><ele>524.0</ele><time>2026-04-18T11:56:25.002Z</time></trkpt><trkpt lat="44.83511926211902" lon="9.481474975434816"><ele>524.0</ele><time>2026-04-18T11:56:26.002Z</time></trkpt><trkpt lat="44.83523010380514" lon="9.481467251483616"><ele>524.0</ele><time>2026-04-18T11:56:27.002Z</time></trkpt><trkpt lat="44.83534411584429" lon="9.481480563462721"><ele>524.0</ele><time>2026-04-18T11:56:28.002Z</time></trkpt><trkpt lat="44.83545819764698" lon="9.481508070843477"><ele>525.2</ele><time>2026-04-18T11:56:29.002Z</time></trkpt><trkpt lat="44.83556709381449" lon="9.481550947016483"><ele>526.4</ele><time>2026-04-18T11:56:30.002Z</time></trkpt><trkpt lat="44.83566417588035" lon="9.481579298379518"><ele>527.6</ele><time>2026-04-18T11:56:31.002Z</time></trkpt><trkpt lat="44.83575190446582" lon="9.481605051511346"><ele>528.8</ele><time>2026-04-18T11:56:32.002Z</time></trkpt><trkpt lat="44.83582694509968" lon="9.481639929191408"><ele>530.0</ele><time>2026-04-18T11:56:33.002Z</time></trkpt><trkpt lat="44.83588813002989" lon="9.481690201551155"><ele>530.0</ele><time>2026-04-18T11:56:34.003Z</time></trkpt><trkpt lat="44.835944906976714" lon="9.481764455139496"><ele>530.0</ele><time>2026-04-18T11:56:35.003Z</time></trkpt><trkpt lat="44.83599828333541" lon="9.481861463527197"><ele>530.0</ele><time>2026-04-18T11:56:36.003Z</time></trkpt><trkpt lat="44.83604980153085" lon="9.481970516758212"><ele>530.0</ele><time>2026-04-18T11:56:37.003Z</time></trkpt><trkpt lat="44.83610372983217" lon="9.482087274578415"><ele>530.0</ele><time>2026-04-18T11:56:38.003Z</time></trkpt><trkpt lat="44.836147937251795" lon="9.482197696142277"><ele>530.0</ele><time>2026-04-18T11:56:39.003Z</time></trkpt><trkpt lat="44.83619580951695" lon="9.482329204103326"><ele>530.2</ele><time>2026-04-18T11:56:41.003Z</time></trkpt><trkpt lat="44.83626607380141" lon="9.48247960157946"><ele>530.4</ele><time>2026-04-18T11:56:43.003Z</time></trkpt><trkpt lat="44.836281093875144" lon="9.482573928497395"><ele>530.6</ele><time>2026-04-18T11:56:44.003Z</time></trkpt><trkpt lat="44.83626161463426" lon="9.482683495132024"><ele>530.8</ele><time>2026-04-18T11:56:45.003Z</time></trkpt><trkpt lat="44.83622064367905" lon="9.482800857364488"><ele>531.0</ele><time>2026-04-18T11:56:46.003Z</time></trkpt><trkpt lat="44.836169060062595" lon="9.482900904637114"><ele>530.1666666666666</ele><time>2026-04-18T11:56:47.003Z</time></trkpt><trkpt lat="44.836128879844445" lon="9.48299373075075"><ele>529.3333333333334</ele><time>2026-04-18T11:56:48.003Z</time></trkpt><trkpt lat="44.836113613182256" lon="9.483083850275829"><ele>528.5</ele><time>2026-04-18T11:56:49.003Z</time></trkpt><trkpt lat="44.83611947011752" lon="9.483189428413299"><ele>527.6666666666667</ele><time>2026-04-18T11:56:50.003Z</time></trkpt><trkpt lat="44.83612478902978" lon="9.483335734045655"><ele>526.8333333333334</ele><time>2026-04-18T11:56:51.003Z</time></trkpt><trkpt lat="44.83614782959057" lon="9.48343372418133"><ele>526.0</ele><time>2026-04-18T11:56:52.003Z</time></trkpt><trkpt lat="44.83617090511529" lon="9.48355294401805"><ele>526.0</ele><time>2026-04-18T11:56:53.003Z</time></trkpt><trkpt lat="44.83621740754442" lon="9.48363684487073"><ele>526.0</ele><time>2026-04-18T11:56:54.003Z</time></trkpt><trkpt lat="44.83625799236807" lon="9.483729504114608"><ele>526.0</ele><time>2026-04-18T11:56:55.003Z</time></trkpt><trkpt lat="44.83629316719282" lon="9.48382555406366"><ele>526.0</ele><time>2026-04-18T11:56:56.003Z</time></trkpt><trkpt lat="44.83632630835679" lon="9.483923780123709"><ele>526.0</ele><time>2026-04-18T11:56:57.003Z</time></trkpt><trkpt lat="44.83634795709021" lon="9.484007626634373"><ele>526.0</ele><time>2026-04-18T11:57:00.003Z</time></trkpt><trkpt lat="44.83639462908822" lon="9.484100217857868"><ele>524.5</ele><time>2026-04-18T11:57:05.999Z</time></trkpt><trkpt lat="44.83645543399025" lon="9.484202101903081"><ele>523.0</ele><time>2026-04-18T11:57:07.999Z</time></trkpt><trkpt lat="44.836501374113" lon="9.484292831624376"><ele>521.5</ele><time>2026-04-18T11:57:09.999Z</time></trkpt><trkpt lat="44.83655684202117" lon="9.484356782608927"><ele>520.0</ele><time>2026-04-18T11:57:11.999Z</time></trkpt><trkpt lat="44.836495869208434" lon="9.484285838931415"><ele>518.5</ele><time>2026-04-18T11:57:36Z</time></trkpt><trkpt lat="44.836451334046984" lon="9.484217775554189"><ele>517.0</ele><time>2026-04-18T11:57:37Z</time></trkpt><trkpt lat="44.836407737530486" lon="9.48413681718395"><ele>517.0</ele><time>2026-04-18T11:57:38Z</time></trkpt><trkpt lat="44.836357829747165" lon="9.483988061038845"><ele>517.0</ele><time>2026-04-18T11:57:40Z</time></trkpt><trkpt lat="44.83629853671653" lon="9.483937942312561"><ele>517.0</ele><time>2026-04-18T11:57:43Z</time></trkpt><trkpt lat="44.83613988788065" lon="9.484052295978033"><ele>517.0</ele><time>2026-04-18T11:57:47.001Z</time></trkpt><trkpt lat="44.83607863990573" lon="9.484125813978585"><ele>517.0</ele><time>2026-04-18T11:57:49.001Z</time></trkpt><trkpt lat="44.83603914900253" lon="9.484237445978389"><ele>516.1666666666667</ele><time>2026-04-18T11:57:51.001Z</time></trkpt><trkpt lat="44.83595799702268" lon="9.484304621435266"><ele>515.3333333333334</ele><time>2026-04-18T11:57:53.001Z</time></trkpt><trkpt lat="44.83587646586784" lon="9.484350922567286"><ele>514.5</ele><time>2026-04-18T11:57:55.001Z</time></trkpt><trkpt lat="44.835816583061195" lon="9.484394546840994"><ele>513.6666666666666</ele><time>2026-04-18T11:57:58.001Z</time></trkpt><trkpt lat="44.835745524438956" lon="9.484455430106502"><ele>512.8333333333333</ele><time>2026-04-18T11:58:01.001Z</time></trkpt><trkpt lat="44.835693187931895" lon="9.484541555906015"><ele>512.0</ele><time>2026-04-18T11:58:03.001Z</time></trkpt><trkpt lat="44.835639150891176" lon="9.48464017207097"><ele>510.66666666666663</ele><time>2026-04-18T11:58:05.001Z</time></trkpt><trkpt lat="44.83563138527164" lon="9.484773090178043"><ele>509.3333333333333</ele><time>2026-04-18T11:58:08.001Z</time></trkpt><trkpt lat="44.835621759000844" lon="9.48491500673222"><ele>508.0</ele><time>2026-04-18T11:58:11.001Z</time></trkpt><trkpt lat="44.835602699061496" lon="9.485017374291647"><ele>506.66666666666663</ele><time>2026-04-18T11:58:13.001Z</time></trkpt><trkpt lat="44.83555956499749" lon="9.485132542013439"><ele>505.3333333333333</ele><time>2026-04-18T11:58:16.002Z</time></trkpt><trkpt lat="44.83552250706523" lon="9.485214975138488"><ele>504.0</ele><time>2026-04-18T11:58:18.002Z</time></trkpt><trkpt lat="44.83548232662295" lon="9.485289783042841"><ele>504.0</ele><time>2026-04-18T11:58:20.002Z</time></trkpt><trkpt lat="44.83543284861917" lon="9.485384218457536"><ele>504.0</ele><time>2026-04-18T11:58:22.002Z</time></trkpt><trkpt lat="44.835395820791796" lon="9.485485458217532"><ele>504.0</ele><time>2026-04-18T11:58:24.002Z</time></trkpt><trkpt lat="44.83536280622968" lon="9.485578782612492"><ele>504.0</ele><time>2026-04-18T11:58:26.002Z</time></trkpt><trkpt lat="44.83532997459791" lon="9.485661487097968"><ele>504.0</ele><time>2026-04-18T11:58:28.002Z</time></trkpt><trkpt lat="44.835303552491645" lon="9.48575540516552"><ele>504.0</ele><time>2026-04-18T11:58:30.002Z</time></trkpt><trkpt lat="44.83527394171666" lon="9.485835913680935"><ele>504.0</ele><time>2026-04-18T11:58:34.002Z</time></trkpt><trkpt lat="44.83524067166775" lon="9.485940911531511"><ele>502.1428571428571</ele><time>2026-04-18T11:58:38.002Z</time></trkpt><trkpt lat="44.83520236454666" lon="9.486035510499034"><ele>500.2857142857143</ele><time>2026-04-18T11:58:41.002Z</time></trkpt><trkpt lat="44.835168251349806" lon="9.486132688069834"><ele>498.42857142857144</ele><time>2026-04-18T11:58:44.002Z</time></trkpt><trkpt lat="44.8351440588832" lon="9.486227398836728"><ele>496.57142857142856</ele><time>2026-04-18T11:58:50.003Z</time></trkpt><trkpt lat="44.835120681438916" lon="9.486316066949675"><ele>494.71428571428567</ele><time>2026-04-18T11:58:59.003Z</time></trkpt><trkpt lat="44.83508762081475" lon="9.486402843779093"><ele>492.85714285714283</ele><time>2026-04-18T11:59:05.003Z</time></trkpt><trkpt lat="44.83506169848167" lon="9.486502155620306"><ele>491.0</ele><time>2026-04-18T11:59:08.003Z</time></trkpt><trkpt lat="44.83502882587752" lon="9.486606281512683"><ele>487.99999999999994</ele><time>2026-04-18T11:59:10.999Z</time></trkpt><trkpt lat="44.835005377201306" lon="9.486723371866455"><ele>485.0</ele><time>2026-04-18T11:59:13.999Z</time></trkpt><trkpt lat="44.834983582490125" lon="9.486844607851951"><ele>482.0</ele><time>2026-04-18T11:59:16.999Z</time></trkpt><trkpt lat="44.83495755035765" lon="9.486945998880921"><ele>479.0</ele><time>2026-04-18T11:59:19.999Z</time></trkpt><trkpt lat="44.834927733639496" lon="9.4870394977424"><ele>475.99999999999994</ele><time>2026-04-18T11:59:22.999Z</time></trkpt><trkpt lat="44.834908822606145" lon="9.487133578319863"><ele>473.0</ele><time>2026-04-18T11:59:25Z</time></trkpt><trkpt lat="44.83486500471052" lon="9.487265595039418"><ele>471.14285714285717</ele><time>2026-04-18T11:59:28Z</time></trkpt><trkpt lat="44.83483583538493" lon="9.4873498417728"><ele>469.2857142857142</ele><time>2026-04-18T11:59:30Z</time></trkpt><trkpt lat="44.83478846140111" lon="9.487434535235094"><ele>467.4285714285714</ele><time>2026-04-18T11:59:32Z</time></trkpt><trkpt lat="44.83473848367195" lon="9.487510777855226"><ele>465.57142857142856</ele><time>2026-04-18T11:59:34Z</time></trkpt><trkpt lat="44.834705133314024" lon="9.487607119711996"><ele>463.71428571428567</ele><time>2026-04-18T11:59:36Z</time></trkpt><trkpt lat="44.83467667523705" lon="9.48769975847121"><ele>461.8571428571428</ele><time>2026-04-18T11:59:38Z</time></trkpt><trkpt lat="44.83465655063438" lon="9.48778699451126"><ele>459.99999999999994</ele><time>2026-04-18T11:59:40Z</time></trkpt><trkpt lat="44.83466460644742" lon="9.48790244785176"><ele>458.1666666666667</ele><time>2026-04-18T11:59:43Z</time></trkpt><trkpt lat="44.834698838122" lon="9.48798863627594"><ele>456.33333333333337</ele><time>2026-04-18T11:59:46.001Z</time></trkpt><trkpt lat="44.834739719637774" lon="9.488072759590612"><ele>454.5</ele><time>2026-04-18T11:59:48.001Z</time></trkpt><trkpt lat="44.83476989888595" lon="9.488170062195827"><ele>452.66666666666663</ele><time>2026-04-18T11:59:50.001Z</time></trkpt><trkpt lat="44.834797154775224" lon="9.488251187547924"><ele>450.8333333333333</ele><time>2026-04-18T11:59:52.001Z</time></trkpt><trkpt lat="44.834833804298356" lon="9.488374072298896"><ele>449.0</ele><time>2026-04-18T11:59:55.001Z</time></trkpt><trkpt lat="44.83486857615935" lon="9.48849075616005"><ele>448.99999999999994</ele><time>2026-04-18T11:59:58.001Z</time></trkpt><trkpt lat="44.83489582167986" lon="9.488617553752146"><ele>449.0</ele><time>2026-04-18T12:00:01.001Z</time></trkpt><trkpt lat="44.83490769958959" lon="9.488714025714309"><ele>449.0</ele><time>2026-04-18T12:00:03.001Z</time></trkpt><trkpt lat="44.83491205723238" lon="9.488826287570044"><ele>449.0</ele><time>2026-04-18T12:00:06.001Z</time></trkpt><trkpt lat="44.83489305327256" lon="9.488943712474416"><ele>448.99999999999994</ele><time>2026-04-18T12:00:09.001Z</time></trkpt><trkpt lat="44.834891823710436" lon="9.489070202716636"><ele>449.0</ele><time>2026-04-18T12:00:12.001Z</time></trkpt><trkpt lat="44.83489508038659" lon="9.489183352666439"><ele>446.71428571428567</ele><time>2026-04-18T12:00:15.001Z</time></trkpt><trkpt lat="44.83488983894225" lon="9.489279258376559"><ele>444.4285714285714</ele><time>2026-04-18T12:00:17.002Z</time></trkpt><trkpt lat="44.834880505205405" lon="9.489402349111458"><ele>442.1428571428571</ele><time>2026-04-18T12:00:20.002Z</time></trkpt><trkpt lat="44.83486321025429" lon="9.489504635892573"><ele>439.85714285714283</ele><time>2026-04-18T12:00:23.002Z</time></trkpt><trkpt lat="44.834849324659565" lon="9.489616674325763"><ele>437.57142857142856</ele><time>2026-04-18T12:00:30.002Z</time></trkpt><trkpt lat="44.83483858486436" lon="9.48971111195927"><ele>435.2857142857142</ele><time>2026-04-18T12:00:42.002Z</time></trkpt><trkpt lat="44.83482860067792" lon="9.489806752038259"><ele>433.0</ele><time>2026-04-18T12:00:48.002Z</time></trkpt><trkpt lat="44.834818480397125" lon="9.489900739555702"><ele>430.33333333333337</ele><time>2026-04-18T12:00:54.003Z</time></trkpt><trkpt lat="44.83480598020455" lon="9.489995304977338"><ele>427.6666666666667</ele><time>2026-04-18T12:01:00.003Z</time></trkpt><trkpt lat="44.834792432491675" lon="9.490088059704894"><ele>425.0</ele><time>2026-04-18T12:01:05.003Z</time></trkpt><trkpt lat="44.83477658914501" lon="9.490212412122334"><ele>422.33333333333337</ele><time>2026-04-18T12:01:08.003Z</time></trkpt><trkpt lat="44.83475958963328" lon="9.490303493538162"><ele>419.6666666666667</ele><time>2026-04-18T12:01:13.003Z</time></trkpt><trkpt lat="44.83474628219529" lon="9.490400192433054"><ele>417.0</ele><time>2026-04-18T12:01:15.998Z</time></trkpt><trkpt lat="44.834741801785206" lon="9.490526060589975"><ele>415.14285714285717</ele><time>2026-04-18T12:01:17.998Z</time></trkpt><trkpt lat="44.834730896001936" lon="9.490642856179239"><ele>413.2857142857143</ele><time>2026-04-18T12:01:19.998Z</time></trkpt><trkpt lat="44.834728005051524" lon="9.490732558032777"><ele>411.42857142857144</ele><time>2026-04-18T12:01:29.999Z</time></trkpt><trkpt lat="44.834728461571416" lon="9.490827738138135"><ele>409.57142857142856</ele><time>2026-04-18T12:01:35.999Z</time></trkpt><trkpt lat="44.83472378648184" lon="9.49091909435628"><ele>407.71428571428567</ele><time>2026-04-18T12:01:46Z</time></trkpt><trkpt lat="44.83472891871189" lon="9.491012761097556"><ele>405.85714285714283</ele><time>2026-04-18T12:02:08.001Z</time></trkpt><trkpt lat="44.834731139401086" lon="9.491108684054767"><ele>404.0</ele><time>2026-04-18T12:02:21.001Z</time></trkpt><trkpt lat="44.83473443699797" lon="9.491229803596285"><ele>401.85714285714283</ele><time>2026-04-18T12:02:25.002Z</time></trkpt><trkpt lat="44.834719914366154" lon="9.491331767726543"><ele>399.71428571428567</ele><time>2026-04-18T12:02:30.002Z</time></trkpt><trkpt lat="44.83468646890854" lon="9.49142365573997"><ele>397.57142857142856</ele><time>2026-04-18T12:02:33.002Z</time></trkpt><trkpt lat="44.834671627245896" lon="9.491518580769146"><ele>395.42857142857144</ele><time>2026-04-18T12:02:39.002Z</time></trkpt><trkpt lat="44.83466624222673" lon="9.491607664818677"><ele>393.2857142857143</ele><time>2026-04-18T12:02:44.002Z</time></trkpt><trkpt lat="44.834651127892904" lon="9.491700728719382"><ele>391.14285714285717</ele><time>2026-04-18T12:02:50.002Z</time></trkpt><trkpt lat="44.83463291864759" lon="9.491788336267987"><ele>389.0</ele><time>2026-04-18T12:02:55.003Z</time></trkpt><trkpt lat="44.83461224000326" lon="9.491880745332246"><ele>389.0</ele><time>2026-04-18T12:03:01.003Z</time></trkpt><trkpt lat="44.83458765971128" lon="9.491963140652071"><ele>389.0</ele><time>2026-04-18T12:03:05.003Z</time></trkpt><trkpt lat="44.8345619717864" lon="9.492050241678726"><ele>389.0</ele><time>2026-04-18T12:03:07.003Z</time></trkpt><trkpt lat="44.83453422577506" lon="9.49212997508342"><ele>389.0</ele><time>2026-04-18T12:03:09.003Z</time></trkpt><trkpt lat="44.834502619465994" lon="9.49224354941926"><ele>389.0</ele><time>2026-04-18T12:03:12.003Z</time></trkpt><trkpt lat="44.83448530595426" lon="9.492353123883452"><ele>389.0</ele><time>2026-04-18T12:03:15.003Z</time></trkpt><trkpt lat="44.83446127584173" lon="9.49245248185644"><ele>389.0</ele><time>2026-04-18T12:03:18.003Z</time></trkpt><trkpt lat="44.83443978622512" lon="9.492545106110946"><ele>386.8571428571429</ele><time>2026-04-18T12:03:23.998Z</time></trkpt><trkpt lat="44.8344188534337" lon="9.492636172891634"><ele>384.71428571428567</ele><time>2026-04-18T12:03:29.999Z</time></trkpt><trkpt lat="44.83439315342248" lon="9.492733619902687"><ele>382.57142857142856</ele><time>2026-04-18T12:03:32.999Z</time></trkpt><trkpt lat="44.83436882843144" lon="9.49281812336756"><ele>380.42857142857144</ele><time>2026-04-18T12:03:35.999Z</time></trkpt><trkpt lat="44.83435227157145" lon="9.49291265868298"><ele>378.28571428571433</ele><time>2026-04-18T12:03:39.999Z</time></trkpt><trkpt lat="44.83433289175856" lon="9.49299725646871"><ele>376.1428571428571</ele><time>2026-04-18T12:03:45Z</time></trkpt><trkpt lat="44.83431440679059" lon="9.493088470205544"><ele>374.0</ele><time>2026-04-18T12:03:51Z</time></trkpt><trkpt lat="44.834289428470335" lon="9.49318020636762"><ele>370.83333333333337</ele><time>2026-04-18T12:04:01.001Z</time></trkpt><trkpt lat="44.834254031393606" lon="9.493279441746507"><ele>367.6666666666667</ele><time>2026-04-18T12:04:05.001Z</time></trkpt><trkpt lat="44.83422937493203" lon="9.493384222725886"><ele>364.5</ele><time>2026-04-18T12:04:09.001Z</time></trkpt><trkpt lat="44.8341948927443" lon="9.493470683820266"><ele>361.3333333333333</ele><time>2026-04-18T12:04:12.001Z</time></trkpt><trkpt lat="44.834172751562015" lon="9.493567364585548"><ele>358.16666666666663</ele><time>2026-04-18T12:04:15.001Z</time></trkpt><trkpt lat="44.83416940636026" lon="9.493691726390686"><ele>355.0</ele><time>2026-04-18T12:04:19.001Z</time></trkpt><trkpt lat="44.834164990825265" lon="9.493809947547565"><ele>355.0</ele><time>2026-04-18T12:04:23.001Z</time></trkpt><trkpt lat="44.834289428470335" lon="9.49318020636762"><ele>355.0</ele><time>2026-04-18T12:04:01.001Z</time></trkpt><trkpt lat="44.834254031393606" lon="9.493279441746507"><ele>355.0</ele><time>2026-04-18T12:04:05.001Z</time></trkpt><trkpt lat="44.83422937493203" lon="9.493384222725886"><ele>355.0</ele><time>2026-04-18T12:04:09.001Z</time></trkpt><trkpt lat="44.8341948927443" lon="9.493470683820266"><ele>355.0</ele><time>2026-04-18T12:04:12.001Z</time></trkpt><trkpt lat="44.834172751562015" lon="9.493567364585548"><ele>355.0</ele><time>2026-04-18T12:04:15.001Z</time></trkpt><trkpt lat="44.83416940636026" lon="9.493691726390686"><ele>355.0</ele><time>2026-04-18T12:04:19.001Z</time></trkpt><trkpt lat="44.834164990825265" lon="9.493809947547565"><ele>352.8333333333333</ele><time>2026-04-18T12:04:23.001Z</time></trkpt><trkpt lat="44.83416639003327" lon="9.493898996064877"><ele>350.66666666666663</ele><time>2026-04-18T12:04:31.002Z</time></trkpt><trkpt lat="44.83419111356245" lon="9.493998402551941"><ele>348.5</ele><time>2026-04-18T12:04:43.002Z</time></trkpt><trkpt lat="44.834173900942844" lon="9.494117692313571"><ele>346.3333333333333</ele><time>2026-04-18T12:04:46.002Z</time></trkpt><trkpt lat="44.83407686855864" lon="9.494135627846314"><ele>344.1666666666667</ele><time>2026-04-18T12:04:49.002Z</time></trkpt><trkpt lat="44.833998800466595" lon="9.49418627101257"><ele>342.0</ele><time>2026-04-18T12:04:51.002Z</time></trkpt><trkpt lat="44.833921797705656" lon="9.494214122379228"><ele>342.0</ele><time>2026-04-18T12:04:53.002Z</time></trkpt><trkpt lat="44.83381297207979" lon="9.494301297069638"><ele>342.0</ele><time>2026-04-18T12:04:55.002Z</time></trkpt><trkpt lat="44.833719668516615" lon="9.494404788486227"><ele>342.0</ele><time>2026-04-18T12:04:57.002Z</time></trkpt><trkpt lat="44.83366040911589" lon="9.494531221936137"><ele>342.0</ele><time>2026-04-18T12:04:59.002Z</time></trkpt><trkpt lat="44.8336089259566" lon="9.494676543082926"><ele>341.8</ele><time>2026-04-18T12:05:01.003Z</time></trkpt><trkpt lat="44.83355793723127" lon="9.49481274690435"><ele>341.6</ele><time>2026-04-18T12:05:03.003Z</time></trkpt><trkpt lat="44.83349261393486" lon="9.494972262549561"><ele>341.40000000000003</ele><time>2026-04-18T12:05:05.003Z</time></trkpt><trkpt lat="44.83343720139974" lon="9.495037875403685"><ele>341.20000000000005</ele><time>2026-04-18T12:05:06.003Z</time></trkpt><trkpt lat="44.83336429356164" lon="9.495098482190016"><ele>341.0</ele><time>2026-04-18T12:05:07.003Z</time></trkpt><trkpt lat="44.833281837403604" lon="9.495112093443847"><ele>339.42857142857144</ele><time>2026-04-18T12:05:08.003Z</time></trkpt><trkpt lat="44.83321342811753" lon="9.495153617865538"><ele>337.8571428571429</ele><time>2026-04-18T12:05:09.003Z</time></trkpt><trkpt lat="44.83314913766811" lon="9.49520436799285"><ele>336.28571428571433</ele><time>2026-04-18T12:05:10.003Z</time></trkpt><trkpt lat="44.83308907437348" lon="9.49526015367981"><ele>334.7142857142857</ele><time>2026-04-18T12:05:11.003Z</time></trkpt><trkpt lat="44.833027567047004" lon="9.495298870011817"><ele>333.14285714285717</ele><time>2026-04-18T12:05:12.003Z</time></trkpt><trkpt lat="44.83296510889128" lon="9.495347676281625"><ele>331.5714285714286</ele><time>2026-04-18T12:05:13.003Z</time></trkpt><trkpt lat="44.832902071815234" lon="9.495347070370475"><ele>330.0</ele><time>2026-04-18T12:05:14.003Z</time></trkpt><trkpt lat="44.832841503816155" lon="9.495305733410788"><ele>330.0</ele><time>2026-04-18T12:05:15.003Z</time></trkpt><trkpt lat="44.83273576018536" lon="9.495241004765312"><ele>330.0</ele><time>2026-04-18T12:05:17.003Z</time></trkpt><trkpt lat="44.832615682633765" lon="9.495190488304782"><ele>330.0</ele><time>2026-04-18T12:05:19.003Z</time></trkpt><trkpt lat="44.83249510720223" lon="9.49520432294594"><ele>330.0</ele><time>2026-04-18T12:05:21.003Z</time></trkpt><trkpt lat="44.83239455007609" lon="9.495319132993867"><ele>328.1666666666667</ele><time>2026-04-18T12:05:23.003Z</time></trkpt><trkpt lat="44.83233112065241" lon="9.4954007133932"><ele>326.3333333333333</ele><time>2026-04-18T12:05:24.003Z</time></trkpt><trkpt lat="44.832262111602205" lon="9.495493425211325"><ele>324.5</ele><time>2026-04-18T12:05:25.003Z</time></trkpt><trkpt lat="44.832189278994015" lon="9.4955691866502"><ele>322.66666666666663</ele><time>2026-04-18T12:05:26.003Z</time></trkpt><trkpt lat="44.83212574697407" lon="9.495642204650666"><ele>320.8333333333333</ele><time>2026-04-18T12:05:27.003Z</time></trkpt><trkpt lat="44.832059522278605" lon="9.495707652230298"><ele>319.0</ele><time>2026-04-18T12:05:27.998Z</time></trkpt><trkpt lat="44.83198121950855" lon="9.495773153332118"><ele>318.59999999999997</ele><time>2026-04-18T12:05:28.998Z</time></trkpt><trkpt lat="44.83190351288077" lon="9.495833211129762"><ele>318.2</ele><time>2026-04-18T12:05:29.998Z</time></trkpt><trkpt lat="44.83181289584578" lon="9.495858076336289"><ele>317.79999999999995</ele><time>2026-04-18T12:05:30.998Z</time></trkpt><trkpt lat="44.831725037338025" lon="9.495902502305245"><ele>317.4</ele><time>2026-04-18T12:05:31.998Z</time></trkpt><trkpt lat="44.83164086584221" lon="9.495946513857465"><ele>317.0</ele><time>2026-04-18T12:05:32.998Z</time></trkpt><trkpt lat="44.83156267507166" lon="9.496013488186767"><ele>315.1666666666667</ele><time>2026-04-18T12:05:33.998Z</time></trkpt><trkpt lat="44.831476905846536" lon="9.496057911499783"><ele>313.33333333333337</ele><time>2026-04-18T12:05:34.998Z</time></trkpt><trkpt lat="44.83139846629791" lon="9.496105209412105"><ele>311.5</ele><time>2026-04-18T12:05:35.999Z</time></trkpt><trkpt lat="44.831319604544184" lon="9.496147340347868"><ele>309.6666666666667</ele><time>2026-04-18T12:05:36.999Z</time></trkpt><trkpt lat="44.831245895819826" lon="9.49619025016039"><ele>307.8333333333333</ele><time>2026-04-18T12:05:37.999Z</time></trkpt><trkpt lat="44.83116874089592" lon="9.496235141546167"><ele>306.0</ele><time>2026-04-18T12:05:38.999Z</time></trkpt><trkpt lat="44.83108774908885" lon="9.496285221214967"><ele>305.3333333333333</ele><time>2026-04-18T12:05:39.999Z</time></trkpt><trkpt lat="44.83100545881776" lon="9.49632794842868"><ele>304.6666666666667</ele><time>2026-04-18T12:05:40.999Z</time></trkpt><trkpt lat="44.83092939839393" lon="9.496367888519414"><ele>304.0</ele><time>2026-04-18T12:05:41.999Z</time></trkpt><trkpt lat="44.830861662499295" lon="9.496410756064265"><ele>303.33333333333337</ele><time>2026-04-18T12:05:42.999Z</time></trkpt><trkpt lat="44.830794992622366" lon="9.496436110474098"><ele>302.6666666666667</ele><time>2026-04-18T12:05:43.999Z</time></trkpt><trkpt lat="44.83072941320269" lon="9.496450667827101"><ele>302.0</ele><time>2026-04-18T12:05:44.999Z</time></trkpt><trkpt lat="44.83060879839775" lon="9.496476434804736"><ele>301.0</ele><time>2026-04-18T12:05:46.999Z</time></trkpt><trkpt lat="44.83054776638188" lon="9.496508583867957"><ele>300.0</ele><time>2026-04-18T12:05:47.999Z</time></trkpt><trkpt lat="44.83045525047739" lon="9.496581304187663"><ele>299.0</ele><time>2026-04-18T12:05:50Z</time></trkpt><trkpt lat="44.830466037584266" lon="9.49671109526349"><ele>298.0</ele><time>2026-04-18T12:05:51Z</time></trkpt><trkpt lat="44.830465173930385" lon="9.496802784820323"><ele>297.0</ele><time>2026-04-18T12:05:52Z</time></trkpt><trkpt lat="44.83045905708609" lon="9.496896445495961"><ele>296.0</ele><time>2026-04-18T12:05:53Z</time></trkpt><trkpt lat="44.830443837242875" lon="9.496992987022889"><ele>296.0</ele><time>2026-04-18T12:05:54Z</time></trkpt><trkpt lat="44.8304105120232" lon="9.497081867242917"><ele>296.0</ele><time>2026-04-18T12:05:55Z</time></trkpt><trkpt lat="44.83036481686783" lon="9.49715883890602"><ele>296.0</ele><time>2026-04-18T12:05:56Z</time></trkpt><trkpt lat="44.83031023811646" lon="9.497233657323909"><ele>296.0</ele><time>2026-04-18T12:05:57Z</time></trkpt><trkpt lat="44.830233802060675" lon="9.497280376679855"><ele>296.0</ele><time>2026-04-18T12:05:58Z</time></trkpt><trkpt lat="44.83016864901413" lon="9.497362134952565"><ele>296.0</ele><time>2026-04-18T12:05:59Z</time></trkpt><trkpt lat="44.83009322865345" lon="9.497416851512199"><ele>293.2</ele><time>2026-04-18T12:06:00Z</time></trkpt><trkpt lat="44.830020885466496" lon="9.497462628975102"><ele>290.40000000000003</ele><time>2026-04-18T12:06:01Z</time></trkpt><trkpt lat="44.82993965479715" lon="9.497520838753147"><ele>287.6</ele><time>2026-04-18T12:06:02Z</time></trkpt><trkpt lat="44.829845596850184" lon="9.4975613889526"><ele>284.8</ele><time>2026-04-18T12:06:03Z</time></trkpt><trkpt lat="44.829757139528546" lon="9.497617879095749"><ele>282.0</ele><time>2026-04-18T12:06:04Z</time></trkpt><trkpt lat="44.8296754169764" lon="9.497670068230928"><ele>282.0</ele><time>2026-04-18T12:06:05Z</time></trkpt><trkpt lat="44.829600277685444" lon="9.497748742588728"><ele>282.0</ele><time>2026-04-18T12:06:06Z</time></trkpt><trkpt lat="44.82952190972017" lon="9.497805629910877"><ele>282.0</ele><time>2026-04-18T12:06:07Z</time></trkpt><trkpt lat="44.82944025519767" lon="9.497861301520217"><ele>282.0</ele><time>2026-04-18T12:06:08Z</time></trkpt><trkpt lat="44.829368675743666" lon="9.497917284295555"><ele>282.0</ele><time>2026-04-18T12:06:09.001Z</time></trkpt><trkpt lat="44.82930323934179" lon="9.49797007795176"><ele>282.0</ele><time>2026-04-18T12:06:10.001Z</time></trkpt><trkpt lat="44.82924449438542" lon="9.498010415292859"><ele>280.1666666666667</ele><time>2026-04-18T12:06:11.001Z</time></trkpt><trkpt lat="44.82913848999296" lon="9.498077053437289"><ele>278.3333333333333</ele><time>2026-04-18T12:06:13.001Z</time></trkpt><trkpt lat="44.82908351172537" lon="9.498122036945434"><ele>276.5</ele><time>2026-04-18T12:06:14.001Z</time></trkpt><trkpt lat="44.829016170883996" lon="9.498139464099271"><ele>274.66666666666663</ele><time>2026-04-18T12:06:15.001Z</time></trkpt><trkpt lat="44.82895988797894" lon="9.498191599930799"><ele>272.8333333333333</ele><time>2026-04-18T12:06:16.001Z</time></trkpt><trkpt lat="44.828836939408745" lon="9.49823379755616"><ele>271.0</ele><time>2026-04-18T12:06:18.001Z</time></trkpt><trkpt lat="44.82877278948771" lon="9.49823348921521"><ele>271.0</ele><time>2026-04-18T12:06:19.001Z</time></trkpt><trkpt lat="44.828710081886776" lon="9.498169237371222"><ele>271.0</ele><time>2026-04-18T12:06:20.001Z</time></trkpt><trkpt lat="44.82864433161515" lon="9.498113997618665"><ele>271.0</ele><time>2026-04-18T12:06:21.001Z</time></trkpt><trkpt lat="44.828579463041656" lon="9.498058170207699"><ele>271.0</ele><time>2026-04-18T12:06:22.001Z</time></trkpt><trkpt lat="44.828514571529404" lon="9.498004867767257"><ele>271.0</ele><time>2026-04-18T12:06:23.001Z</time></trkpt><trkpt lat="44.82845541739428" lon="9.49795594071645"><ele>271.0</ele><time>2026-04-18T12:06:24.001Z</time></trkpt><trkpt lat="44.82839301924069" lon="9.497924750341607"><ele>271.0</ele><time>2026-04-18T12:06:25.001Z</time></trkpt><trkpt lat="44.828365580603226" lon="9.497840876964021"><ele>270.3333333333333</ele><time>2026-04-18T12:06:26.001Z</time></trkpt><trkpt lat="44.82834231425145" lon="9.497753802333941"><ele>269.66666666666663</ele><time>2026-04-18T12:06:27.001Z</time></trkpt><trkpt lat="44.8283275266077" lon="9.497644708135466"><ele>269.0</ele><time>2026-04-18T12:06:28.001Z</time></trkpt><trkpt lat="44.828321393755914" lon="9.497539447359989"><ele>268.3333333333333</ele><time>2026-04-18T12:06:29.001Z</time></trkpt><trkpt lat="44.82830836788106" lon="9.497429122149864"><ele>267.6666666666667</ele><time>2026-04-18T12:06:30.001Z</time></trkpt><trkpt lat="44.828273534840505" lon="9.497330454921858"><ele>267.0</ele><time>2026-04-18T12:06:31.001Z</time></trkpt><trkpt lat="44.82824937161622" lon="9.497233504930662"><ele>267.0</ele><time>2026-04-18T12:06:32.001Z</time></trkpt><trkpt lat="44.82822188907081" lon="9.49713867991704"><ele>267.0</ele><time>2026-04-18T12:06:33.001Z</time></trkpt><trkpt lat="44.82819002955108" lon="9.49705464669478"><ele>267.0</ele><time>2026-04-18T12:06:34.001Z</time></trkpt><trkpt lat="44.82814630791336" lon="9.496986648936618"><ele>267.0</ele><time>2026-04-18T12:06:35.001Z</time></trkpt><trkpt lat="44.828037727002105" lon="9.496925520407071"><ele>267.0</ele><time>2026-04-18T12:06:37.002Z</time></trkpt><trkpt lat="44.827950937953396" lon="9.496946575848266"><ele>267.0</ele><time>2026-04-18T12:06:38.002Z</time></trkpt><trkpt lat="44.82785145228614" lon="9.496983764287833"><ele>266.6</ele><time>2026-04-18T12:06:39.002Z</time></trkpt><trkpt lat="44.82774692810576" lon="9.497015197237804"><ele>266.2</ele><time>2026-04-18T12:06:40.002Z</time></trkpt><trkpt lat="44.827652137871574" lon="9.497043219545102"><ele>265.8</ele><time>2026-04-18T12:06:41.002Z</time></trkpt><trkpt lat="44.82755951151626" lon="9.497072263633958"><ele>265.4</ele><time>2026-04-18T12:06:42.002Z</time></trkpt><trkpt lat="44.82747939264167" lon="9.497110536111647"><ele>265.0</ele><time>2026-04-18T12:06:43.002Z</time></trkpt><trkpt lat="44.82741662304673" lon="9.497169780173602"><ele>263.16666666666663</ele><time>2026-04-18T12:06:44.002Z</time></trkpt><trkpt lat="44.82736850396924" lon="9.49724697586163"><ele>261.3333333333333</ele><time>2026-04-18T12:06:45.002Z</time></trkpt><trkpt lat="44.82730364707528" lon="9.49732563275729"><ele>259.5</ele><time>2026-04-18T12:06:46.002Z</time></trkpt><trkpt lat="44.82726714161595" lon="9.497434700206592"><ele>257.6666666666667</ele><time>2026-04-18T12:06:47.002Z</time></trkpt><trkpt lat="44.82721093495847" lon="9.497522075772858"><ele>255.83333333333334</ele><time>2026-04-18T12:06:48.002Z</time></trkpt><trkpt lat="44.82714566834625" lon="9.497585061204607"><ele>254.0</ele><time>2026-04-18T12:06:49.002Z</time></trkpt><trkpt lat="44.82705953453323" lon="9.497596623598682"><ele>254.0</ele><time>2026-04-18T12:06:50.002Z</time></trkpt><trkpt lat="44.826971610444176" lon="9.497623464283134"><ele>253.99999999999997</ele><time>2026-04-18T12:06:51.002Z</time></trkpt><trkpt lat="44.82688789193356" lon="9.497671594962195"><ele>253.99999999999997</ele><time>2026-04-18T12:06:52.002Z</time></trkpt><trkpt lat="44.826803951284326" lon="9.49771037327862"><ele>254.0</ele><time>2026-04-18T12:06:53.002Z</time></trkpt><trkpt lat="44.82672395204586" lon="9.497771562870536"><ele>254.0</ele><time>2026-04-18T12:06:54.002Z</time></trkpt><trkpt lat="44.82663426652754" lon="9.497849347151984"><ele>252.6</ele><time>2026-04-18T12:06:55.002Z</time></trkpt><trkpt lat="44.82654288059772" lon="9.497933050970776"><ele>251.2</ele><time>2026-04-18T12:06:56.002Z</time></trkpt><trkpt lat="44.82645635122979" lon="9.498007728444863"><ele>249.79999999999998</ele><time>2026-04-18T12:06:57.002Z</time></trkpt><trkpt lat="44.82637278062987" lon="9.498069754069734"><ele>248.39999999999998</ele><time>2026-04-18T12:06:58.002Z</time></trkpt><trkpt lat="44.826290023527996" lon="9.498129043474206"><ele>247.0</ele><time>2026-04-18T12:06:59.002Z</time></trkpt><trkpt lat="44.826212882849816" lon="9.498169142986507"><ele>246.99999999999997</ele><time>2026-04-18T12:07:00.002Z</time></trkpt><trkpt lat="44.82614175823548" lon="9.498186596658782"><ele>247.0</ele><time>2026-04-18T12:07:01.002Z</time></trkpt><trkpt lat="44.82607192934228" lon="9.498188394713365"><ele>247.0</ele><time>2026-04-18T12:07:02.002Z</time></trkpt><trkpt lat="44.82600404510913" lon="9.49814134283494"><ele>247.0</ele><time>2026-04-18T12:07:03.002Z</time></trkpt><trkpt lat="44.82592994046125" lon="9.498111229591085"><ele>246.99999999999997</ele><time>2026-04-18T12:07:04.002Z</time></trkpt><trkpt lat="44.82584856057256" lon="9.498071311720869"><ele>247.0</ele><time>2026-04-18T12:07:05.002Z</time></trkpt><trkpt lat="44.82575741254012" lon="9.498019332139227"><ele>244.2</ele><time>2026-04-18T12:07:06.002Z</time></trkpt><trkpt lat="44.82566941728258" lon="9.497962897819745"><ele>241.39999999999998</ele><time>2026-04-18T12:07:07.002Z</time></trkpt><trkpt lat="44.82557606163165" lon="9.497916506125852"><ele>238.60000000000002</ele><time>2026-04-18T12:07:08.002Z</time></trkpt><trkpt lat="44.82548765042483" lon="9.497847191405155"><ele>235.8</ele><time>2026-04-18T12:07:09.002Z</time></trkpt><trkpt lat="44.82539967843393" lon="9.497785464224263"><ele>233.0</ele><time>2026-04-18T12:07:10.003Z</time></trkpt><trkpt lat="44.825315389124746" lon="9.49772494012868"><ele>232.57142857142858</ele><time>2026-04-18T12:07:11.003Z</time></trkpt><trkpt lat="44.82524010325012" lon="9.497669659555415"><ele>232.1428571428571</ele><time>2026-04-18T12:07:12.003Z</time></trkpt><trkpt lat="44.82518115653257" lon="9.497602523692592"><ele>231.7142857142857</ele><time>2026-04-18T12:07:13.003Z</time></trkpt><trkpt lat="44.82515339949439" lon="9.497503068981592"><ele>231.28571428571428</ele><time>2026-04-18T12:07:14.003Z</time></trkpt><trkpt lat="44.82514965394958" lon="9.49740526126903"><ele>230.85714285714283</ele><time>2026-04-18T12:07:15.003Z</time></trkpt><trkpt lat="44.82513076540872" lon="9.497316448938808"><ele>230.4285714285714</ele><time>2026-04-18T12:07:16.003Z</time></trkpt><trkpt lat="44.825094482695526" lon="9.497238431275095"><ele>229.99999999999997</ele><time>2026-04-18T12:07:17.003Z</time></trkpt><trkpt lat="44.825032117138974" lon="9.497212541500005"><ele>226.0</ele><time>2026-04-18T12:07:18.003Z</time></trkpt><trkpt lat="44.82493797469444" lon="9.49724083661492"><ele>222.0</ele><time>2026-04-18T12:07:20.003Z</time></trkpt><trkpt lat="44.824858170241434" lon="9.497287432804397"><ele>218.0</ele><time>2026-04-18T12:07:22.003Z</time></trkpt><trkpt lat="44.824791219867" lon="9.497323781249948"><ele>214.0</ele><time>2026-04-18T12:07:26.003Z</time></trkpt><trkpt lat="44.82458547784531" lon="9.497059729423391"><ele>213.49999999999997</ele><time>2026-04-18T12:07:38.998Z</time></trkpt><trkpt lat="44.824538599439634" lon="9.496997886603435"><ele>213.0</ele><time>2026-04-18T12:07:39.998Z</time></trkpt><trkpt lat="44.82448149314157" lon="9.496923105200315"><ele>212.5</ele><time>2026-04-18T12:07:40.998Z</time></trkpt><trkpt lat="44.82442651830687" lon="9.496848760082408"><ele>212.0</ele><time>2026-04-18T12:07:41.998Z</time></trkpt><trkpt lat="44.82435219846937" lon="9.496747867994712"><ele>211.49999999999997</ele><time>2026-04-18T12:07:42.998Z</time></trkpt><trkpt lat="44.82427212963467" lon="9.496637056321694"><ele>211.0</ele><time>2026-04-18T12:07:43.998Z</time></trkpt><trkpt lat="44.8241977033546" lon="9.49653574329514"><ele>209.0</ele><time>2026-04-18T12:07:44.998Z</time></trkpt><trkpt lat="44.8241237550346" lon="9.496445793690926"><ele>207.0</ele><time>2026-04-18T12:07:45.998Z</time></trkpt><trkpt lat="44.824053893927534" lon="9.496353623628092"><ele>205.0</ele><time>2026-04-18T12:07:46.999Z</time></trkpt><trkpt lat="44.82396698720761" lon="9.496295144532912"><ele>203.0</ele><time>2026-04-18T12:07:47.999Z</time></trkpt><trkpt lat="44.82388024125073" lon="9.496259574413441"><ele>201.0</ele><time>2026-04-18T12:07:48.999Z</time></trkpt><trkpt lat="44.82379308466823" lon="9.496250460344244"><ele>200.60000000000002</ele><time>2026-04-18T12:07:49.999Z</time></trkpt><trkpt lat="44.823707888450286" lon="9.496260121641447"><ele>200.2</ele><time>2026-04-18T12:07:50.999Z</time></trkpt><trkpt lat="44.823616624177525" lon="9.496293239780751"><ele>199.8</ele><time>2026-04-18T12:07:51.999Z</time></trkpt><trkpt lat="44.823509811985964" lon="9.49635127310825"><ele>199.39999999999998</ele><time>2026-04-18T12:07:52.999Z</time></trkpt><trkpt lat="44.823389549998495" lon="9.496424036299194"><ele>199.0</ele><time>2026-04-18T12:07:53.999Z</time></trkpt><trkpt lat="44.82326812034968" lon="9.496499957579688"><ele>197.75</ele><time>2026-04-18T12:07:54.999Z</time></trkpt><trkpt lat="44.82315139708366" lon="9.496560508824704"><ele>196.5</ele><time>2026-04-18T12:07:55.999Z</time></trkpt><trkpt lat="44.82303327585626" lon="9.496597626204098"><ele>195.25</ele><time>2026-04-18T12:07:56.999Z</time></trkpt><trkpt lat="44.822925321797186" lon="9.496631549995175"><ele>194.0</ele><time>2026-04-18T12:07:58Z</time></trkpt><trkpt lat="44.82282095029038" lon="9.496584253015834"><ele>194.0</ele><time>2026-04-18T12:07:59Z</time></trkpt><trkpt lat="44.82270682991461" lon="9.496541225085911"><ele>194.0</ele><time>2026-04-18T12:08:00Z</time></trkpt><trkpt lat="44.82257910357463" lon="9.496483545825116"><ele>194.0</ele><time>2026-04-18T12:08:01Z</time></trkpt><trkpt lat="44.82244480189726" lon="9.496416507530395"><ele>194.0</ele><time>2026-04-18T12:08:02Z</time></trkpt><trkpt lat="44.82231924449708" lon="9.49635269483503"><ele>194.0</ele><time>2026-04-18T12:08:03Z</time></trkpt><trkpt lat="44.82221005883498" lon="9.496297202847128"><ele>194.0</ele><time>2026-04-18T12:08:04Z</time></trkpt><trkpt lat="44.822112089018134" lon="9.496249929634168"><ele>194.0</ele><time>2026-04-18T12:08:05Z</time></trkpt><trkpt lat="44.82202746289159" lon="9.49621350628707"><ele>194.0</ele><time>2026-04-18T12:08:06Z</time></trkpt><trkpt lat="44.821951187149644" lon="9.496188639825926"><ele>194.0</ele><time>2026-04-18T12:08:07Z</time></trkpt><trkpt lat="44.821881655761544" lon="9.496189209710815"><ele>194.0</ele><time>2026-04-18T12:08:08Z</time></trkpt><trkpt lat="44.82177450904925" lon="9.496258528580642"><ele>194.0</ele><time>2026-04-18T12:08:10Z</time></trkpt><trkpt lat="44.821712772538376" lon="9.496295631129376"><ele>194.0</ele><time>2026-04-18T12:08:11Z</time></trkpt><trkpt lat="44.82162686398623" lon="9.496349704849353"><ele>194.0</ele><time>2026-04-18T12:08:12Z</time></trkpt><trkpt lat="44.8215261906216" lon="9.49641861163926"><ele>194.0</ele><time>2026-04-18T12:08:13Z</time></trkpt><trkpt lat="44.821418007036456" lon="9.496493702149117"><ele>194.0</ele><time>2026-04-18T12:08:14Z</time></trkpt><trkpt lat="44.82130731938463" lon="9.496568251452002"><ele>194.0</ele><time>2026-04-18T12:08:15.001Z</time></trkpt><trkpt lat="44.821197191991715" lon="9.496643385967571"><ele>194.0</ele><time>2026-04-18T12:08:16.001Z</time></trkpt><trkpt lat="44.8210891514757" lon="9.496712946930602"><ele>194.0</ele><time>2026-04-18T12:08:17.001Z</time></trkpt><trkpt lat="44.82097320069443" lon="9.496786394989048"><ele>193.39999999999998</ele><time>2026-04-18T12:08:18.001Z</time></trkpt><trkpt lat="44.82086453383311" lon="9.496858192769755"><ele>192.8</ele><time>2026-04-18T12:08:19.001Z</time></trkpt><trkpt lat="44.820759848078055" lon="9.49692696965549"><ele>192.2</ele><time>2026-04-18T12:08:20.001Z</time></trkpt><trkpt lat="44.82066406182578" lon="9.496990141280659"><ele>191.60000000000002</ele><time>2026-04-18T12:08:21.001Z</time></trkpt><trkpt lat="44.82058035097225" lon="9.497043567754103"><ele>191.0</ele><time>2026-04-18T12:08:22.001Z</time></trkpt><trkpt lat="44.82049822185118" lon="9.497093287932447"><ele>191.0</ele><time>2026-04-18T12:08:23.001Z</time></trkpt><trkpt lat="44.820422923762486" lon="9.497138277650292"><ele>191.0</ele><time>2026-04-18T12:08:24.001Z</time></trkpt><trkpt lat="44.82035409328307" lon="9.497173496025177"><ele>191.0</ele><time>2026-04-18T12:08:25.001Z</time></trkpt><trkpt lat="44.82029163865543" lon="9.497211729848493"><ele>191.0</ele><time>2026-04-18T12:08:26.001Z</time></trkpt><trkpt lat="44.82017450691472" lon="9.497114466970359"><ele>191.0</ele><time>2026-04-18T12:08:28.001Z</time></trkpt><trkpt lat="44.8201179835416" lon="9.497069623511745"><ele>191.0</ele><time>2026-04-18T12:08:29.001Z</time></trkpt><trkpt lat="44.82007849890221" lon="9.496976490517447"><ele>192.4</ele><time>2026-04-18T12:08:30.001Z</time></trkpt><trkpt lat="44.82004334726892" lon="9.496876008754075"><ele>193.8</ele><time>2026-04-18T12:08:31.001Z</time></trkpt><trkpt lat="44.82001775179131" lon="9.496788471791524"><ele>195.20000000000002</ele><time>2026-04-18T12:08:32.001Z</time></trkpt><trkpt lat="44.81999454634112" lon="9.496704102349295"><ele>196.60000000000002</ele><time>2026-04-18T12:08:33.001Z</time></trkpt><trkpt lat="44.8199565503568" lon="9.49655677832595"><ele>198.0</ele><time>2026-04-18T12:08:35.001Z</time></trkpt><trkpt lat="44.819897413770796" lon="9.496391128934047"><ele>198.0</ele><time>2026-04-18T12:08:37.001Z</time></trkpt><trkpt lat="44.81985967798458" lon="9.49630474244001"><ele>198.0</ele><time>2026-04-18T12:08:38.001Z</time></trkpt><trkpt lat="44.81982109058485" lon="9.4962144066529"><ele>198.0</ele><time>2026-04-18T12:08:39.001Z</time></trkpt><trkpt lat="44.81978684313765" lon="9.496125577149334"><ele>198.0</ele><time>2026-04-18T12:08:40.001Z</time></trkpt><trkpt lat="44.81973986051704" lon="9.496010886892883"><ele>198.0</ele><time>2026-04-18T12:08:41.002Z</time></trkpt><trkpt lat="44.81969072999371" lon="9.495865188643053"><ele>198.0</ele><time>2026-04-18T12:08:42.002Z</time></trkpt><trkpt lat="44.81963768542605" lon="9.495688992776905"><ele>196.75</ele><time>2026-04-18T12:08:43.002Z</time></trkpt><trkpt lat="44.819589008432665" lon="9.495524667737484"><ele>195.5</ele><time>2026-04-18T12:08:44.002Z</time></trkpt><trkpt lat="44.81954114233251" lon="9.495360535732468"><ele>194.25</ele><time>2026-04-18T12:08:45.002Z</time></trkpt><trkpt lat="44.81949118270031" lon="9.495187550423507"><ele>193.0</ele><time>2026-04-18T12:08:46.002Z</time></trkpt><trkpt lat="44.81944000159506" lon="9.495014210236478"><ele>192.25</ele><time>2026-04-18T12:08:47.002Z</time></trkpt><trkpt lat="44.81938772559113" lon="9.494839392830906"><ele>191.5</ele><time>2026-04-18T12:08:48.002Z</time></trkpt><trkpt lat="44.81934120309192" lon="9.494663583970677"><ele>190.75</ele><time>2026-04-18T12:08:49.002Z</time></trkpt><trkpt lat="44.8192969992273" lon="9.494481698048787"><ele>190.0</ele><time>2026-04-18T12:08:50.002Z</time></trkpt><trkpt lat="44.819246792706394" lon="9.49429708712696"><ele>191.0</ele><time>2026-04-18T12:08:51.002Z</time></trkpt><trkpt lat="44.819201969634186" lon="9.494111249390494"><ele>192.0</ele><time>2026-04-18T12:08:52.002Z</time></trkpt><trkpt lat="44.81916036871076" lon="9.493917864535856"><ele>193.0</ele><time>2026-04-18T12:08:53.002Z</time></trkpt><trkpt lat="44.81912169491583" lon="9.49371644308825"><ele>194.0</ele><time>2026-04-18T12:08:54.002Z</time></trkpt><trkpt lat="44.819084092402605" lon="9.493505455378175"><ele>194.0</ele><time>2026-04-18T12:08:55.002Z</time></trkpt><trkpt lat="44.81904659062923" lon="9.493280084366562"><ele>194.0</ele><time>2026-04-18T12:08:56.002Z</time></trkpt><trkpt lat="44.819012779216415" lon="9.493039446421175"><ele>194.0</ele><time>2026-04-18T12:08:57.002Z</time></trkpt><trkpt lat="44.81898060510287" lon="9.492788320723989"><ele>194.0</ele><time>2026-04-18T12:08:58.002Z</time></trkpt><trkpt lat="44.81895822139221" lon="9.492552802233218"><ele>194.0</ele><time>2026-04-18T12:08:59.002Z</time></trkpt><trkpt lat="44.81894487349231" lon="9.492301336261384"><ele>194.0</ele><time>2026-04-18T12:09:00.002Z</time></trkpt><trkpt lat="44.81893223407368" lon="9.492038450091357"><ele>194.0</ele><time>2026-04-18T12:09:01.002Z</time></trkpt><trkpt lat="44.81892480758427" lon="9.49176975962947"><ele>194.0</ele><time>2026-04-18T12:09:02.002Z</time></trkpt><trkpt lat="44.818917107857835" lon="9.491489615586817"><ele>194.0</ele><time>2026-04-18T12:09:03.002Z</time></trkpt><trkpt lat="44.81890532694496" lon="9.491205291229793"><ele>194.33333333333334</ele><time>2026-04-18T12:09:04.002Z</time></trkpt><trkpt lat="44.81889599522467" lon="9.490934074702082"><ele>194.66666666666669</ele><time>2026-04-18T12:09:05.002Z</time></trkpt><trkpt lat="44.81888839790978" lon="9.49066914145723"><ele>195.0</ele><time>2026-04-18T12:09:06.002Z</time></trkpt><trkpt lat="44.818883408642264" lon="9.490405451294402"><ele>195.0</ele><time>2026-04-18T12:09:07.002Z</time></trkpt><trkpt lat="44.81887795596208" lon="9.490144645139566"><ele>195.0</ele><time>2026-04-18T12:09:08.002Z</time></trkpt><trkpt lat="44.818870907273485" lon="9.489885711516093"><ele>195.0</ele><time>2026-04-18T12:09:09.002Z</time></trkpt><trkpt lat="44.81886544530497" lon="9.489625119436955"><ele>195.0</ele><time>2026-04-18T12:09:10.002Z</time></trkpt><trkpt lat="44.81886272057694" lon="9.489361599665761"><ele>195.0</ele><time>2026-04-18T12:09:11.002Z</time></trkpt><trkpt lat="44.818855770890806" lon="9.489095211791081"><ele>195.0</ele><time>2026-04-18T12:09:12.002Z</time></trkpt><trkpt lat="44.818847361798845" lon="9.488827293470493"><ele>194.66666666666669</ele><time>2026-04-18T12:09:13.003Z</time></trkpt><trkpt lat="44.81884056059775" lon="9.488555104804808"><ele>194.33333333333334</ele><time>2026-04-18T12:09:14.003Z</time></trkpt><trkpt lat="44.81883237426816" lon="9.488283049223567"><ele>194.0</ele><time>2026-04-18T12:09:15.003Z</time></trkpt><trkpt lat="44.818827378675124" lon="9.488010007147482"><ele>194.66666666666669</ele><time>2026-04-18T12:09:16.003Z</time></trkpt><trkpt lat="44.81881892248054" lon="9.487730352669594"><ele>195.33333333333331</ele><time>2026-04-18T12:09:17.003Z</time></trkpt><trkpt lat="44.81881057608959" lon="9.487452522220861"><ele>196.0</ele><time>2026-04-18T12:09:18.003Z</time></trkpt><trkpt lat="44.81881825103133" lon="9.48717240764387"><ele>196.66666666666666</ele><time>2026-04-18T12:09:19.003Z</time></trkpt><trkpt lat="44.81880443772036" lon="9.486892172914162"><ele>197.33333333333331</ele><time>2026-04-18T12:09:20.003Z</time></trkpt><trkpt lat="44.818778918155424" lon="9.486611187144222"><ele>198.0</ele><time>2026-04-18T12:09:21.003Z</time></trkpt><trkpt lat="44.818740346013094" lon="9.486341322626176"><ele>198.33333333333331</ele><time>2026-04-18T12:09:22.003Z</time></trkpt><trkpt lat="44.81868752043608" lon="9.486071021044904"><ele>198.66666666666666</ele><time>2026-04-18T12:09:23.003Z</time></trkpt><trkpt lat="44.81862074128298" lon="9.485801090507673"><ele>199.0</ele><time>2026-04-18T12:09:24.003Z</time></trkpt><trkpt lat="44.81853934282643" lon="9.485532087070451"><ele>205.0</ele><time>2026-04-18T12:09:25.003Z</time></trkpt><trkpt lat="44.81844452034692" lon="9.485256042769864"><ele>211.0</ele><time>2026-04-18T12:09:26.003Z</time></trkpt><trkpt lat="44.81834374178799" lon="9.48497787717708"><ele>217.0</ele><time>2026-04-18T12:09:27.003Z</time></trkpt><trkpt lat="44.8182380956818" lon="9.484695645829692"><ele>219.5</ele><time>2026-04-18T12:09:28.003Z</time></trkpt><trkpt lat="44.818129237766925" lon="9.484406278340849"><ele>222.0</ele><time>2026-04-18T12:09:29.011Z</time></trkpt><trkpt lat="44.81800595373795" lon="9.484128175078073"><ele>222.0</ele><time>2026-04-18T12:09:30.011Z</time></trkpt><trkpt lat="44.81790061086323" lon="9.483835443547882"><ele>222.0</ele><time>2026-04-18T12:09:31.01Z</time></trkpt><trkpt lat="44.81779757057818" lon="9.483543337684658"><ele>220.0</ele><time>2026-04-18T12:09:32.01Z</time></trkpt><trkpt lat="44.817691942120966" lon="9.48325384795459"><ele>218.0</ele><time>2026-04-18T12:09:33.01Z</time></trkpt><trkpt lat="44.817585192104325" lon="9.482971594799194"><ele>204.0</ele><time>2026-04-18T12:09:34.012Z</time></trkpt><trkpt lat="44.81721789114626" lon="9.481637198486814"><ele>204.0</ele><time>2026-04-18T12:09:39.003Z</time></trkpt><trkpt lat="44.81712665516573" lon="9.48138638806365"><ele>204.0</ele><time>2026-04-18T12:09:40.003Z</time></trkpt><trkpt lat="44.81702603614814" lon="9.481126484222461"><ele>204.0</ele><time>2026-04-18T12:09:41.003Z</time></trkpt><trkpt lat="44.816967377002996" lon="9.48085636625534"><ele>205.0</ele><time>2026-04-18T12:09:42.003Z</time></trkpt><trkpt lat="44.81689805287033" lon="9.480604415565912"><ele>206.0</ele><time>2026-04-18T12:09:43.003Z</time></trkpt><trkpt lat="44.816818214375644" lon="9.480328030411277"><ele>207.0</ele><time>2026-04-18T12:09:44.003Z</time></trkpt><trkpt lat="44.81671167488453" lon="9.480071924484347"><ele>207.0</ele><time>2026-04-18T12:09:44.996Z</time></trkpt><trkpt lat="44.81667662881422" lon="9.479795273988724"><ele>207.0</ele><time>2026-04-18T12:09:45.997Z</time></trkpt><trkpt lat="44.81666126635832" lon="9.479506816624928"><ele>207.0</ele><time>2026-04-18T12:09:46.997Z</time></trkpt><trkpt lat="44.81664348137032" lon="9.47922386049893"><ele>207.66666666666669</ele><time>2026-04-18T12:09:47.997Z</time></trkpt><trkpt lat="44.81663491301677" lon="9.478931538134395"><ele>208.33333333333334</ele><time>2026-04-18T12:09:48.997Z</time></trkpt><trkpt lat="44.81663380350691" lon="9.478646062758225"><ele>209.0</ele><time>2026-04-18T12:09:49.997Z</time></trkpt><trkpt lat="44.816633446885014" lon="9.478352317561887"><ele>209.33333333333334</ele><time>2026-04-18T12:09:50.997Z</time></trkpt><trkpt lat="44.816633917209366" lon="9.47805765037449"><ele>209.66666666666669</ele><time>2026-04-18T12:09:51.998Z</time></trkpt><trkpt lat="44.81663434687791" lon="9.477759925908973"><ele>210.0</ele><time>2026-04-18T12:09:52.998Z</time></trkpt><trkpt lat="44.816634346873954" lon="9.477461365020682"><ele>210.33333333333331</ele><time>2026-04-18T12:09:53.998Z</time></trkpt><trkpt lat="44.8166349233228" lon="9.477164108357393"><ele>210.66666666666666</ele><time>2026-04-18T12:09:54.998Z</time></trkpt><trkpt lat="44.81663561233975" lon="9.47687140460371"><ele>211.0</ele><time>2026-04-18T12:09:55.998Z</time></trkpt><trkpt lat="44.81663607547706" lon="9.476573913874384"><ele>212.66666666666666</ele><time>2026-04-18T12:09:56.998Z</time></trkpt><trkpt lat="44.81663624686131" lon="9.476277073015131"><ele>214.33333333333331</ele><time>2026-04-18T12:09:57.998Z</time></trkpt><trkpt lat="44.81663640661404" lon="9.475982932119097"><ele>216.0</ele><time>2026-04-18T12:09:58.998Z</time></trkpt><trkpt lat="44.81663678586333" lon="9.475691438251914"><ele>219.0</ele><time>2026-04-18T12:09:59.998Z</time></trkpt><trkpt lat="44.81663716596788" lon="9.475399287043908"><ele>222.0</ele><time>2026-04-18T12:10:00.999Z</time></trkpt><trkpt lat="44.816638012408845" lon="9.475108009629826"><ele>225.0</ele><time>2026-04-18T12:10:01.999Z</time></trkpt><trkpt lat="44.816638952374184" lon="9.474826662159765"><ele>226.0</ele><time>2026-04-18T12:10:02.999Z</time></trkpt><trkpt lat="44.81662540315484" lon="9.474566949215388"><ele>227.0</ele><time>2026-04-18T12:10:03.999Z</time></trkpt><trkpt lat="44.81663194329981" lon="9.474320917930969"><ele>228.0</ele><time>2026-04-18T12:10:04.999Z</time></trkpt><trkpt lat="44.8166544819134" lon="9.474080113849606"><ele>228.0</ele><time>2026-04-18T12:10:05.999Z</time></trkpt><trkpt lat="44.81666307479825" lon="9.473857511097602"><ele>228.0</ele><time>2026-04-18T12:10:06.999Z</time></trkpt><trkpt lat="44.816669776136266" lon="9.473648094347437"><ele>228.0</ele><time>2026-04-18T12:10:07.999Z</time></trkpt><trkpt lat="44.81666445816165" lon="9.47345207574948"><ele>228.0</ele><time>2026-04-18T12:10:08.999Z</time></trkpt><trkpt lat="44.816691611265" lon="9.473287645500678"><ele>228.0</ele><time>2026-04-18T12:10:09.999Z</time></trkpt><trkpt lat="44.816728007659314" lon="9.47313771994326"><ele>228.0</ele><time>2026-04-18T12:10:11Z</time></trkpt><trkpt lat="44.81677240604423" lon="9.472985154408631"><ele>228.0</ele><time>2026-04-18T12:10:12Z</time></trkpt><trkpt lat="44.816826686227216" lon="9.472821135836945"><ele>228.0</ele><time>2026-04-18T12:10:13Z</time></trkpt><trkpt lat="44.81688983264839" lon="9.472653975512745"><ele>226.33333333333331</ele><time>2026-04-18T12:10:14Z</time></trkpt><trkpt lat="44.816973429786785" lon="9.472486260836956"><ele>224.66666666666666</ele><time>2026-04-18T12:10:15Z</time></trkpt><trkpt lat="44.817071919059636" lon="9.47232621363698"><ele>223.0</ele><time>2026-04-18T12:10:16Z</time></trkpt><trkpt lat="44.81718562924655" lon="9.472178340994118"><ele>225.66666666666666</ele><time>2026-04-18T12:10:17Z</time></trkpt><trkpt lat="44.81729470064104" lon="9.472030055737362"><ele>228.33333333333331</ele><time>2026-04-18T12:10:18Z</time></trkpt><trkpt lat="44.81739303267228" lon="9.471862626665585"><ele>231.0</ele><time>2026-04-18T12:10:19Z</time></trkpt><trkpt lat="44.8174724936359" lon="9.471664095939085"><ele>231.0</ele><time>2026-04-18T12:10:20Z</time></trkpt><trkpt lat="44.81753132278764" lon="9.471443713346613"><ele>231.0</ele><time>2026-04-18T12:10:21Z</time></trkpt><trkpt lat="44.81758831465575" lon="9.471216053183602"><ele>231.0</ele><time>2026-04-18T12:10:22Z</time></trkpt><trkpt lat="44.81760492162993" lon="9.470978946544705"><ele>230.66666666666669</ele><time>2026-04-18T12:10:23Z</time></trkpt><trkpt lat="44.817592550893224" lon="9.470728399102684"><ele>230.33333333333334</ele><time>2026-04-18T12:10:24Z</time></trkpt><trkpt lat="44.81755344596058" lon="9.47048304069911"><ele>230.0</ele><time>2026-04-18T12:10:25Z</time></trkpt><trkpt lat="44.81750834954892" lon="9.47023028727159"><ele>230.0</ele><time>2026-04-18T12:10:26Z</time></trkpt><trkpt lat="44.81745832837117" lon="9.469968753854959"><ele>230.0</ele><time>2026-04-18T12:10:27Z</time></trkpt><trkpt lat="44.817404968663126" lon="9.469691863923272"><ele>230.0</ele><time>2026-04-18T12:10:28Z</time></trkpt><trkpt lat="44.81734903726936" lon="9.469405979282756"><ele>226.66666666666669</ele><time>2026-04-18T12:10:29.001Z</time></trkpt><trkpt lat="44.81727668961594" lon="9.469119857604746"><ele>223.33333333333331</ele><time>2026-04-18T12:10:30.001Z</time></trkpt><trkpt lat="44.81721899386605" lon="9.46882615533836"><ele>220.0</ele><time>2026-04-18T12:10:31.001Z</time></trkpt><trkpt lat="44.81716283016817" lon="9.468536016007661"><ele>219.33333333333331</ele><time>2026-04-18T12:10:32.001Z</time></trkpt><trkpt lat="44.81710656893021" lon="9.468247884785749"><ele>218.66666666666669</ele><time>2026-04-18T12:10:33.001Z</time></trkpt><trkpt lat="44.81704812087277" lon="9.467959159669803"><ele>218.0</ele><time>2026-04-18T12:10:34.001Z</time></trkpt><trkpt lat="44.816983533453325" lon="9.46767437727177"><ele>217.66666666666669</ele><time>2026-04-18T12:10:35.001Z</time></trkpt><trkpt lat="44.81692373901835" lon="9.467379064564799"><ele>217.33333333333331</ele><time>2026-04-18T12:10:36.001Z</time></trkpt><trkpt lat="44.81681582863437" lon="9.467102801453503"><ele>217.0</ele><time>2026-04-18T12:10:37.001Z</time></trkpt><trkpt lat="44.81670793103807" lon="9.466818401419873"><ele>218.0</ele><time>2026-04-18T12:10:38.001Z</time></trkpt><trkpt lat="44.81661089833717" lon="9.466517477253639"><ele>219.0</ele><time>2026-04-18T12:10:39.001Z</time></trkpt><trkpt lat="44.81649549271511" lon="9.466247565134582"><ele>219.0</ele><time>2026-04-18T12:10:40.001Z</time></trkpt><trkpt lat="44.816381902562" lon="9.465997632630547"><ele>219.0</ele><time>2026-04-18T12:10:41.001Z</time></trkpt><trkpt lat="44.81627118545581" lon="9.465767710960359"><ele>219.0</ele><time>2026-04-18T12:10:42.001Z</time></trkpt><trkpt lat="44.81618897938556" lon="9.465515317541659"><ele>217.0</ele><time>2026-04-18T12:10:43.001Z</time></trkpt><trkpt lat="44.81612780764705" lon="9.465246380688352"><ele>215.0</ele><time>2026-04-18T12:10:44.001Z</time></trkpt><trkpt lat="44.8160875066257" lon="9.464961325768646"><ele>213.0</ele><time>2026-04-18T12:10:45.001Z</time></trkpt><trkpt lat="44.81605979768882" lon="9.464656770664028"><ele>212.0</ele><time>2026-04-18T12:10:46.001Z</time></trkpt><trkpt lat="44.816036159976925" lon="9.464334851393573"><ele>211.0</ele><time>2026-04-18T12:10:47.001Z</time></trkpt><trkpt lat="44.81599585972912" lon="9.464010144850947"><ele>221.5</ele><time>2026-04-18T12:10:48.001Z</time></trkpt><trkpt lat="44.81595860482618" lon="9.463683887840903"><ele>232.0</ele><time>2026-04-18T12:10:49.001Z</time></trkpt><trkpt lat="44.8159163534785" lon="9.463351556336617"><ele>232.0</ele><time>2026-04-18T12:10:50.001Z</time></trkpt><trkpt lat="44.81586797798938" lon="9.463019053176339"><ele>232.0</ele><time>2026-04-18T12:10:51.001Z</time></trkpt><trkpt lat="44.815812702490994" lon="9.462681970824425"><ele>230.5</ele><time>2026-04-18T12:10:52.001Z</time></trkpt><trkpt lat="44.815758276821505" lon="9.462341040279401"><ele>229.0</ele><time>2026-04-18T12:10:53.001Z</time></trkpt><trkpt lat="44.81570011669788" lon="9.461988648833293"><ele>227.5</ele><time>2026-04-18T12:10:54.001Z</time></trkpt><trkpt lat="44.81564554926617" lon="9.461637470988887"><ele>226.0</ele><time>2026-04-18T12:10:55.001Z</time></trkpt><trkpt lat="44.81560303438781" lon="9.461297389762825"><ele>225.0</ele><time>2026-04-18T12:10:56.002Z</time></trkpt><trkpt lat="44.81557184730241" lon="9.460966306112535"><ele>224.0</ele><time>2026-04-18T12:10:57.002Z</time></trkpt><trkpt lat="44.8155462954523" lon="9.460646465628137"><ele>223.33333333333334</ele><time>2026-04-18T12:10:58.002Z</time></trkpt><trkpt lat="44.81552388351599" lon="9.460344785094994"><ele>222.66666666666669</ele><time>2026-04-18T12:10:59.002Z</time></trkpt><trkpt lat="44.815501802444146" lon="9.460062155822012"><ele>222.0</ele><time>2026-04-18T12:11:00.002Z</time></trkpt><trkpt lat="44.815477340409785" lon="9.45978725201336"><ele>222.33333333333331</ele><time>2026-04-18T12:11:01.002Z</time></trkpt><trkpt lat="44.81545181998878" lon="9.459530174709549"><ele>222.66666666666666</ele><time>2026-04-18T12:11:02.002Z</time></trkpt><trkpt lat="44.81542791310726" lon="9.4593002171183"><ele>223.0</ele><time>2026-04-18T12:11:03.002Z</time></trkpt><trkpt lat="44.815403057551784" lon="9.459101741414214"><ele>223.0</ele><time>2026-04-18T12:11:04.002Z</time></trkpt><trkpt lat="44.81537659074224" lon="9.458935160785728"><ele>223.0</ele><time>2026-04-18T12:11:05.002Z</time></trkpt><trkpt lat="44.81534797492869" lon="9.458806008401936"><ele>223.0</ele><time>2026-04-18T12:11:06.002Z</time></trkpt><trkpt lat="44.81532113614286" lon="9.45870736247781"><ele>223.0</ele><time>2026-04-18T12:11:07.002Z</time></trkpt><trkpt lat="44.81527922945301" lon="9.45856528183897"><ele>223.0</ele><time>2026-04-18T12:11:09.002Z</time></trkpt><trkpt lat="44.81526989225703" lon="9.458452580550976"><ele>222.83333333333331</ele><time>2026-04-18T12:11:12.002Z</time></trkpt><trkpt lat="44.81525636639505" lon="9.458346124099073"><ele>222.66666666666666</ele><time>2026-04-18T12:11:16.002Z</time></trkpt><trkpt lat="44.81521880872805" lon="9.458248467133322"><ele>222.5</ele><time>2026-04-18T12:11:19.002Z</time></trkpt><trkpt lat="44.815177425319874" lon="9.458137065643887"><ele>222.33333333333331</ele><time>2026-04-18T12:11:22.002Z</time></trkpt><trkpt lat="44.81514640840477" lon="9.458053557905137"><ele>222.16666666666666</ele><time>2026-04-18T12:11:26.002Z</time></trkpt><trkpt lat="44.8150988346343" lon="9.45798763927266"><ele>222.0</ele><time>2026-04-18T12:12:53.002Z</time></trkpt><trkpt lat="44.8150420791126" lon="9.45785565409201"><ele>222.8</ele><time>2026-04-18T12:12:55.002Z</time></trkpt><trkpt lat="44.81500461166141" lon="9.45776852243113"><ele>223.6</ele><time>2026-04-18T12:12:56.002Z</time></trkpt><trkpt lat="44.81495122780688" lon="9.45764843157684"><ele>224.40000000000003</ele><time>2026-04-18T12:12:57.002Z</time></trkpt><trkpt lat="44.814891045297365" lon="9.45751351331987"><ele>225.20000000000002</ele><time>2026-04-18T12:12:58.002Z</time></trkpt><trkpt lat="44.81482287608981" lon="9.457361132618237"><ele>226.0</ele><time>2026-04-18T12:12:59.002Z</time></trkpt><trkpt lat="44.814762304035014" lon="9.457225776760911"><ele>222.75</ele><time>2026-04-18T12:13:00.002Z</time></trkpt><trkpt lat="44.81469234647704" lon="9.457069448492469"><ele>219.5</ele><time>2026-04-18T12:13:01.002Z</time></trkpt><trkpt lat="44.81461641500999" lon="9.456899770189555"><ele>216.25</ele><time>2026-04-18T12:13:02.002Z</time></trkpt><trkpt lat="44.81453643977625" lon="9.456721055946524"><ele>213.0</ele><time>2026-04-18T12:13:03.002Z</time></trkpt><trkpt lat="44.814456512827654" lon="9.456542449524836"><ele>213.0</ele><time>2026-04-18T12:13:04.002Z</time></trkpt><trkpt lat="44.81437603498406" lon="9.456362660751193"><ele>213.0</ele><time>2026-04-18T12:13:05.002Z</time></trkpt><trkpt lat="44.81429269789966" lon="9.45617797289381"><ele>213.0</ele><time>2026-04-18T12:13:06.002Z</time></trkpt><trkpt lat="44.81420731387405" lon="9.455988748720703"><ele>213.66666666666669</ele><time>2026-04-18T12:13:07.002Z</time></trkpt><trkpt lat="44.81412126379567" lon="9.455795425928878"><ele>214.33333333333334</ele><time>2026-04-18T12:13:08.002Z</time></trkpt><trkpt lat="44.81403369681697" lon="9.455599079169186"><ele>215.0</ele><time>2026-04-18T12:13:09.002Z</time></trkpt><trkpt lat="44.813943466836974" lon="9.455397663146735"><ele>215.0</ele><time>2026-04-18T12:13:10.002Z</time></trkpt><trkpt lat="44.813851688108194" lon="9.455192789786441"><ele>215.0</ele><time>2026-04-18T12:13:11.002Z</time></trkpt><trkpt lat="44.81375883151471" lon="9.454985510317147"><ele>215.0</ele><time>2026-04-18T12:13:12.002Z</time></trkpt><trkpt lat="44.81366776751394" lon="9.454782232546366"><ele>213.66666666666669</ele><time>2026-04-18T12:13:13.002Z</time></trkpt><trkpt lat="44.813576748081495" lon="9.4545790540964"><ele>212.33333333333331</ele><time>2026-04-18T12:13:14.002Z</time></trkpt><trkpt lat="44.81348413793172" lon="9.4543723248164"><ele>211.0</ele><time>2026-04-18T12:13:15.002Z</time></trkpt><trkpt lat="44.81339016461106" lon="9.454162552687052"><ele>212.0</ele><time>2026-04-18T12:13:16.002Z</time></trkpt><trkpt lat="44.8132935508702" lon="9.453948513101867"><ele>213.0</ele><time>2026-04-18T12:13:17.002Z</time></trkpt><trkpt lat="44.81319502767911" lon="9.453730278564054"><ele>214.0</ele><time>2026-04-18T12:13:18.002Z</time></trkpt><trkpt lat="44.81309856981187" lon="9.453516618475549"><ele>214.0</ele><time>2026-04-18T12:13:19.002Z</time></trkpt><trkpt lat="44.813003903915366" lon="9.453306927853298"><ele>214.0</ele><time>2026-04-18T12:13:20.002Z</time></trkpt><trkpt lat="44.812912176272896" lon="9.453103745694248"><ele>214.0</ele><time>2026-04-18T12:13:21.002Z</time></trkpt><trkpt lat="44.8128206293699" lon="9.452900963805396"><ele>213.33333333333331</ele><time>2026-04-18T12:13:22.002Z</time></trkpt><trkpt lat="44.81273207474689" lon="9.45270481102958"><ele>212.66666666666669</ele><time>2026-04-18T12:13:23.002Z</time></trkpt><trkpt lat="44.81264994145539" lon="9.452519287402248"><ele>212.0</ele><time>2026-04-18T12:13:24.002Z</time></trkpt><trkpt lat="44.812572639904985" lon="9.452328061689037"><ele>215.33333333333334</ele><time>2026-04-18T12:13:25.003Z</time></trkpt><trkpt lat="44.812505797160306" lon="9.452121472370635"><ele>218.66666666666669</ele><time>2026-04-18T12:13:26.003Z</time></trkpt><trkpt lat="44.812443061049656" lon="9.45189215064208"><ele>222.0</ele><time>2026-04-18T12:13:27.003Z</time></trkpt><trkpt lat="44.81237758319268" lon="9.451619736771391"><ele>222.0</ele><time>2026-04-18T12:13:28.003Z</time></trkpt><trkpt lat="44.81233682700886" lon="9.451316561923523"><ele>222.0</ele><time>2026-04-18T12:13:29.003Z</time></trkpt><trkpt lat="44.81231234293064" lon="9.450995536298176"><ele>222.0</ele><time>2026-04-18T12:13:30.003Z</time></trkpt><trkpt lat="44.81227627677397" lon="9.450696573199833"><ele>220.5</ele><time>2026-04-18T12:13:31.003Z</time></trkpt><trkpt lat="44.81223704779164" lon="9.450384968529194"><ele>219.0</ele><time>2026-04-18T12:13:32.003Z</time></trkpt><trkpt lat="44.81219639793364" lon="9.450063989508731"><ele>219.0</ele><time>2026-04-18T12:13:33.003Z</time></trkpt><trkpt lat="44.81215782903869" lon="9.449739311111719"><ele>219.0</ele><time>2026-04-18T12:13:34.003Z</time></trkpt><trkpt lat="44.812120328572675" lon="9.449413341829281"><ele>217.0</ele><time>2026-04-18T12:13:35.003Z</time></trkpt><trkpt lat="44.81208065990868" lon="9.449080822724794"><ele>215.0</ele><time>2026-04-18T12:13:36.003Z</time></trkpt><trkpt lat="44.81203959545258" lon="9.448745398103128"><ele>214.5</ele><time>2026-04-18T12:13:37.003Z</time></trkpt><trkpt lat="44.811997774639266" lon="9.44840379532728"><ele>214.0</ele><time>2026-04-18T12:13:38.003Z</time></trkpt><trkpt lat="44.81195722950564" lon="9.44806771848594"><ele>213.5</ele><time>2026-04-18T12:13:39.003Z</time></trkpt><trkpt lat="44.811916413964056" lon="9.447724478820879"><ele>213.0</ele><time>2026-04-18T12:13:40.003Z</time></trkpt><trkpt lat="44.811874829737626" lon="9.447388967587738"><ele>214.0</ele><time>2026-04-18T12:13:41.003Z</time></trkpt><trkpt lat="44.81183344850623" lon="9.447050045191787"><ele>215.0</ele><time>2026-04-18T12:13:42.003Z</time></trkpt><trkpt lat="44.81179342099702" lon="9.446713464967319"><ele>217.5</ele><time>2026-04-18T12:13:43.003Z</time></trkpt><trkpt lat="44.81175237565486" lon="9.446379602848314"><ele>220.0</ele><time>2026-04-18T12:13:44.003Z</time></trkpt><trkpt lat="44.81169641749182" lon="9.446055736102517"><ele>220.0</ele><time>2026-04-18T12:13:45.003Z</time></trkpt><trkpt lat="44.81165815338652" lon="9.445727003422117"><ele>220.0</ele><time>2026-04-18T12:13:46.003Z</time></trkpt><trkpt lat="44.81161909013333" lon="9.445402089260686"><ele>221.0</ele><time>2026-04-18T12:13:47.003Z</time></trkpt><trkpt lat="44.81157963044765" lon="9.44507373392844"><ele>222.0</ele><time>2026-04-18T12:13:48.003Z</time></trkpt><trkpt lat="44.811539078717004" lon="9.444749694995252"><ele>222.0</ele><time>2026-04-18T12:13:49.003Z</time></trkpt><trkpt lat="44.81151576085872" lon="9.44442596852292"><ele>222.0</ele><time>2026-04-18T12:13:50.003Z</time></trkpt><trkpt lat="44.81147443598564" lon="9.44410748949299"><ele>221.5</ele><time>2026-04-18T12:13:51.003Z</time></trkpt><trkpt lat="44.81141955310738" lon="9.443795296873263"><ele>221.0</ele><time>2026-04-18T12:13:52.003Z</time></trkpt><trkpt lat="44.81138450592344" lon="9.443477890781134"><ele>221.0</ele><time>2026-04-18T12:13:53.003Z</time></trkpt><trkpt lat="44.81135105835762" lon="9.443163238792115"><ele>221.0</ele><time>2026-04-18T12:13:54.003Z</time></trkpt><trkpt lat="44.8113161878017" lon="9.442846572264543"><ele>221.0</ele><time>2026-04-18T12:13:55.003Z</time></trkpt><trkpt lat="44.81127772134216" lon="9.442533255952862"><ele>221.0</ele><time>2026-04-18T12:13:56.003Z</time></trkpt><trkpt lat="44.81123926238414" lon="9.4422243680113"><ele>221.0</ele><time>2026-04-18T12:13:57Z</time></trkpt><trkpt lat="44.8112027047368" lon="9.441914432241612"><ele>220.33333333333334</ele><time>2026-04-18T12:13:58Z</time></trkpt><trkpt lat="44.81116705900986" lon="9.441614758669237"><ele>219.66666666666669</ele><time>2026-04-18T12:13:59Z</time></trkpt><trkpt lat="44.81113022648504" lon="9.441315389659998"><ele>219.0</ele><time>2026-04-18T12:14:00Z</time></trkpt><trkpt lat="44.81108696318944" lon="9.441019673127537"><ele>218.33333333333331</ele><time>2026-04-18T12:14:01Z</time></trkpt><trkpt lat="44.81103044406367" lon="9.440727809092198"><ele>217.66666666666666</ele><time>2026-04-18T12:14:02Z</time></trkpt><trkpt lat="44.81095906966742" lon="9.440442012800002"><ele>217.0</ele><time>2026-04-18T12:14:03Z</time></trkpt><trkpt lat="44.81088748663458" lon="9.440154042612436"><ele>218.33333333333331</ele><time>2026-04-18T12:14:04Z</time></trkpt><trkpt lat="44.810772206467654" lon="9.439896624124833"><ele>219.66666666666669</ele><time>2026-04-18T12:14:05Z</time></trkpt><trkpt lat="44.81065583044384" lon="9.439639293524827"><ele>221.0</ele><time>2026-04-18T12:14:06Z</time></trkpt><trkpt lat="44.81052811931568" lon="9.439400647124412"><ele>221.0</ele><time>2026-04-18T12:14:07Z</time></trkpt><trkpt lat="44.810390563786896" lon="9.439175497300578"><ele>221.0</ele><time>2026-04-18T12:14:08Z</time></trkpt><trkpt lat="44.810249293068786" lon="9.438958191481293"><ele>221.0</ele><time>2026-04-18T12:14:09Z</time></trkpt><trkpt lat="44.81010804700952" lon="9.438739274251734"><ele>223.66666666666669</ele><time>2026-04-18T12:14:10Z</time></trkpt><trkpt lat="44.809964066988606" lon="9.438520257441807"><ele>226.33333333333331</ele><time>2026-04-18T12:14:11Z</time></trkpt><trkpt lat="44.809824386387334" lon="9.438298751758639"><ele>229.0</ele><time>2026-04-18T12:14:12Z</time></trkpt><trkpt lat="44.809681843875474" lon="9.438084485442337"><ele>230.0</ele><time>2026-04-18T12:14:13Z</time></trkpt><trkpt lat="44.80953742431934" lon="9.437869751321752"><ele>231.0</ele><time>2026-04-18T12:14:14Z</time></trkpt><trkpt lat="44.809393957965916" lon="9.437654253280108"><ele>232.0</ele><time>2026-04-18T12:14:15Z</time></trkpt><trkpt lat="44.80925090138192" lon="9.437433965805408"><ele>232.0</ele><time>2026-04-18T12:14:16Z</time></trkpt><trkpt lat="44.80911835088158" lon="9.43721191188892"><ele>232.0</ele><time>2026-04-18T12:14:17Z</time></trkpt><trkpt lat="44.80899739893161" lon="9.436972331186883"><ele>232.0</ele><time>2026-04-18T12:14:18Z</time></trkpt><trkpt lat="44.80889425222881" lon="9.436715790342785"><ele>228.66666666666666</ele><time>2026-04-18T12:14:19Z</time></trkpt><trkpt lat="44.8088047625698" lon="9.43645418627314"><ele>225.33333333333331</ele><time>2026-04-18T12:14:20Z</time></trkpt><trkpt lat="44.80871600763692" lon="9.436179300748691"><ele>222.0</ele><time>2026-04-18T12:14:21Z</time></trkpt><trkpt lat="44.80862056421059" lon="9.435905559989164"><ele>220.66666666666669</ele><time>2026-04-18T12:14:22Z</time></trkpt><trkpt lat="44.80852327298125" lon="9.435629384231692"><ele>219.33333333333334</ele><time>2026-04-18T12:14:23Z</time></trkpt><trkpt lat="44.808423728246716" lon="9.43535088038161"><ele>218.0</ele><time>2026-04-18T12:14:24Z</time></trkpt><trkpt lat="44.808321290647854" lon="9.435069147476572"><ele>218.0</ele><time>2026-04-18T12:14:25Z</time></trkpt><trkpt lat="44.808225265772606" lon="9.43479590371191"><ele>218.0</ele><time>2026-04-18T12:14:26Z</time></trkpt><trkpt lat="44.80812584754831" lon="9.434523354790255"><ele>218.0</ele><time>2026-04-18T12:14:27Z</time></trkpt><trkpt lat="44.80802811809019" lon="9.43424909056069"><ele>218.66666666666669</ele><time>2026-04-18T12:14:28Z</time></trkpt><trkpt lat="44.80793083348923" lon="9.433973774739478"><ele>219.33333333333331</ele><time>2026-04-18T12:14:29Z</time></trkpt><trkpt lat="44.807834881098884" lon="9.433702477925515"><ele>220.0</ele><time>2026-04-18T12:14:30Z</time></trkpt><trkpt lat="44.80774055083374" lon="9.433428530500397"><ele>220.33333333333331</ele><time>2026-04-18T12:14:31Z</time></trkpt><trkpt lat="44.80764462062686" lon="9.43315628560556"><ele>220.66666666666669</ele><time>2026-04-18T12:14:32.001Z</time></trkpt><trkpt lat="44.80754930029505" lon="9.432884753332926"><ele>221.0</ele><time>2026-04-18T12:14:33.001Z</time></trkpt><trkpt lat="44.807456344326816" lon="9.432615751384404"><ele>222.33333333333334</ele><time>2026-04-18T12:14:34.001Z</time></trkpt><trkpt lat="44.80736502598938" lon="9.432349790937646"><ele>223.66666666666669</ele><time>2026-04-18T12:14:35.001Z</time></trkpt><trkpt lat="44.807273932638424" lon="9.432089663643705"><ele>225.0</ele><time>2026-04-18T12:14:36.001Z</time></trkpt><trkpt lat="44.80717726748123" lon="9.43183213419065"><ele>228.0</ele><time>2026-04-18T12:14:37.001Z</time></trkpt><trkpt lat="44.80707602910984" lon="9.43157953720393"><ele>231.0</ele><time>2026-04-18T12:14:38.001Z</time></trkpt><trkpt lat="44.806966858989504" lon="9.431335926338205"><ele>234.0</ele><time>2026-04-18T12:14:39.001Z</time></trkpt><trkpt lat="44.80684728675271" lon="9.431095212731728"><ele>232.33333333333331</ele><time>2026-04-18T12:14:40.001Z</time></trkpt><trkpt lat="44.80672084521449" lon="9.430856003853139"><ele>230.66666666666666</ele><time>2026-04-18T12:14:41.001Z</time></trkpt><trkpt lat="44.806593105473304" lon="9.430615453458765"><ele>229.0</ele><time>2026-04-18T12:14:42.001Z</time></trkpt><trkpt lat="44.80645788682115" lon="9.43037533652874"><ele>229.0</ele><time>2026-04-18T12:14:43.001Z</time></trkpt><trkpt lat="44.806317568480615" lon="9.430141441296087"><ele>229.0</ele><time>2026-04-18T12:14:44.001Z</time></trkpt><trkpt lat="44.80616572252831" lon="9.429910734976728"><ele>229.0</ele><time>2026-04-18T12:14:45.001Z</time></trkpt><trkpt lat="44.80601059439724" lon="9.429685423492831"><ele>227.5</ele><time>2026-04-18T12:14:46.001Z</time></trkpt><trkpt lat="44.80584794872428" lon="9.429464618556768"><ele>226.0</ele><time>2026-04-18T12:14:47.001Z</time></trkpt><trkpt lat="44.805681722476656" lon="9.429248245289413"><ele>226.0</ele><time>2026-04-18T12:14:48.001Z</time></trkpt><trkpt lat="44.80551603376004" lon="9.429032027439893"><ele>226.0</ele><time>2026-04-18T12:14:49.001Z</time></trkpt><trkpt lat="44.805349290795334" lon="9.428814890870687"><ele>226.0</ele><time>2026-04-18T12:14:50.001Z</time></trkpt><trkpt lat="44.805184135776216" lon="9.428598261022502"><ele>226.0</ele><time>2026-04-18T12:14:51.001Z</time></trkpt><trkpt lat="44.80501797014696" lon="9.428381554153164"><ele>226.0</ele><time>2026-04-18T12:14:52.001Z</time></trkpt><trkpt lat="44.80484974081497" lon="9.428163632462818"><ele>226.0</ele><time>2026-04-18T12:14:53.001Z</time></trkpt><trkpt lat="44.804681583252915" lon="9.427941397144945"><ele>227.0</ele><time>2026-04-18T12:14:54.001Z</time></trkpt><trkpt lat="44.80451279033475" lon="9.427721530339724"><ele>228.0</ele><time>2026-04-18T12:14:55.001Z</time></trkpt><trkpt lat="44.8043432672753" lon="9.427499784927392"><ele>227.0</ele><time>2026-04-18T12:14:56.001Z</time></trkpt><trkpt lat="44.80417592023328" lon="9.42727758492851"><ele>226.0</ele><time>2026-04-18T12:14:57.001Z</time></trkpt><trkpt lat="44.80400496407014" lon="9.427055728898647"><ele>228.0</ele><time>2026-04-18T12:14:58.001Z</time></trkpt><trkpt lat="44.80383284725757" lon="9.426836166900792"><ele>230.0</ele><time>2026-04-18T12:14:59.001Z</time></trkpt><trkpt lat="44.80366041365352" lon="9.426618976798464"><ele>229.0</ele><time>2026-04-18T12:15:00.001Z</time></trkpt><trkpt lat="44.80348880457402" lon="9.426407586722942"><ele>228.0</ele><time>2026-04-18T12:15:01.001Z</time></trkpt><trkpt lat="44.803314977005094" lon="9.426201720345137"><ele>227.5</ele><time>2026-04-18T12:15:02.001Z</time></trkpt><trkpt lat="44.80313674008341" lon="9.42600366673416"><ele>227.0</ele><time>2026-04-18T12:15:03.001Z</time></trkpt><trkpt lat="44.80295181568599" lon="9.42581671491635"><ele>227.0</ele><time>2026-04-18T12:15:04.001Z</time></trkpt><trkpt lat="44.802762270107" lon="9.425643189945324"><ele>227.0</ele><time>2026-04-18T12:15:05.001Z</time></trkpt><trkpt lat="44.802565134509926" lon="9.42548555293117"><ele>229.0</ele><time>2026-04-18T12:15:06.001Z</time></trkpt><trkpt lat="44.80236358305331" lon="9.425331918277923"><ele>231.0</ele><time>2026-04-18T12:15:07.001Z</time></trkpt><trkpt lat="44.802160944540056" lon="9.425184563619313"><ele>231.0</ele><time>2026-04-18T12:15:08.001Z</time></trkpt><trkpt lat="44.801957680391865" lon="9.425037222510698"><ele>231.0</ele><time>2026-04-18T12:15:09.001Z</time></trkpt><trkpt lat="44.80175780273292" lon="9.424885804229461"><ele>229.66666666666669</ele><time>2026-04-18T12:15:10.001Z</time></trkpt><trkpt lat="44.80155843301614" lon="9.424738106320202"><ele>228.33333333333334</ele><time>2026-04-18T12:15:11.002Z</time></trkpt><trkpt lat="44.801359635781225" lon="9.424592299088216"><ele>227.0</ele><time>2026-04-18T12:15:12.002Z</time></trkpt><trkpt lat="44.80116345730287" lon="9.424448439536983"><ele>227.66666666666669</ele><time>2026-04-18T12:15:13.002Z</time></trkpt><trkpt lat="44.80096664250584" lon="9.424307184300025"><ele>228.33333333333331</ele><time>2026-04-18T12:15:14.002Z</time></trkpt><trkpt lat="44.80076987669567" lon="9.424165095447691"><ele>229.0</ele><time>2026-04-18T12:15:15.002Z</time></trkpt><trkpt lat="44.80057508468995" lon="9.424026501227441"><ele>229.0</ele><time>2026-04-18T12:15:16.002Z</time></trkpt><trkpt lat="44.80038144065506" lon="9.423887733322768"><ele>229.0</ele><time>2026-04-18T12:15:17.002Z</time></trkpt><trkpt lat="44.80018660795345" lon="9.42375120377635"><ele>229.0</ele><time>2026-04-18T12:15:18.002Z</time></trkpt><trkpt lat="44.79998924465357" lon="9.423633152673132"><ele>230.66666666666666</ele><time>2026-04-18T12:15:19.002Z</time></trkpt><trkpt lat="44.799784917513975" lon="9.423528392909413"><ele>232.33333333333331</ele><time>2026-04-18T12:15:20.002Z</time></trkpt><trkpt lat="44.79958214385443" lon="9.423440559739618"><ele>234.0</ele><time>2026-04-18T12:15:21.002Z</time></trkpt><trkpt lat="44.79937726339861" lon="9.423370371011648"><ele>234.66666666666669</ele><time>2026-04-18T12:15:22.002Z</time></trkpt><trkpt lat="44.79916938103585" lon="9.423317237681514"><ele>235.33333333333334</ele><time>2026-04-18T12:15:23.002Z</time></trkpt><trkpt lat="44.79895813743989" lon="9.423277058789147"><ele>236.0</ele><time>2026-04-18T12:15:24.002Z</time></trkpt><trkpt lat="44.79874774087292" lon="9.423244513071237"><ele>236.0</ele><time>2026-04-18T12:15:25.002Z</time></trkpt><trkpt lat="44.79853618008969" lon="9.423214204886408"><ele>236.0</ele><time>2026-04-18T12:15:26.002Z</time></trkpt><trkpt lat="44.798330808270286" lon="9.423186594801669"><ele>236.0</ele><time>2026-04-18T12:15:27.002Z</time></trkpt><trkpt lat="44.79812546802288" lon="9.423153547884016"><ele>237.66666666666669</ele><time>2026-04-18T12:15:28.002Z</time></trkpt><trkpt lat="44.79791949121547" lon="9.423113818780216"><ele>239.33333333333331</ele><time>2026-04-18T12:15:29.002Z</time></trkpt><trkpt lat="44.797715601778485" lon="9.423071534635783"><ele>241.0</ele><time>2026-04-18T12:15:30.002Z</time></trkpt><trkpt lat="44.7975140195238" lon="9.423025306171239"><ele>238.0</ele><time>2026-04-18T12:15:31.002Z</time></trkpt><trkpt lat="44.797315837570395" lon="9.422968468863486"><ele>235.0</ele><time>2026-04-18T12:15:32.002Z</time></trkpt><trkpt lat="44.7971237466721" lon="9.422893535210143"><ele>232.0</ele><time>2026-04-18T12:15:33.002Z</time></trkpt><trkpt lat="44.79693523992973" lon="9.422803587376993"><ele>234.66666666666666</ele><time>2026-04-18T12:15:34.002Z</time></trkpt><trkpt lat="44.796754799769595" lon="9.422694610680544"><ele>237.33333333333331</ele><time>2026-04-18T12:15:35.002Z</time></trkpt><trkpt lat="44.79659213320806" lon="9.422570846663152"><ele>240.0</ele><time>2026-04-18T12:15:36.002Z</time></trkpt><trkpt lat="44.796439272179185" lon="9.422434783349198"><ele>240.0</ele><time>2026-04-18T12:15:37.002Z</time></trkpt><trkpt lat="44.796285221873596" lon="9.42228962777379"><ele>240.0</ele><time>2026-04-18T12:15:38.002Z</time></trkpt><trkpt lat="44.79613333847684" lon="9.42213337540951"><ele>240.0</ele><time>2026-04-18T12:15:39.002Z</time></trkpt><trkpt lat="44.79598661150886" lon="9.421952784201165"><ele>242.33333333333331</ele><time>2026-04-18T12:15:40.002Z</time></trkpt><trkpt lat="44.795843082810315" lon="9.421754568438688"><ele>244.66666666666666</ele><time>2026-04-18T12:15:41.002Z</time></trkpt><trkpt lat="44.79569477622951" lon="9.421559902704479"><ele>247.0</ele><time>2026-04-18T12:15:42.002Z</time></trkpt><trkpt lat="44.795543781230755" lon="9.421364205819721"><ele>245.33333333333331</ele><time>2026-04-18T12:15:43.002Z</time></trkpt><trkpt lat="44.79539319076546" lon="9.42116505844997"><ele>243.66666666666669</ele><time>2026-04-18T12:15:44.002Z</time></trkpt><trkpt lat="44.79524255226641" lon="9.420967431142191"><ele>242.0</ele><time>2026-04-18T12:15:45.002Z</time></trkpt><trkpt lat="44.79508875239091" lon="9.420767499265393"><ele>253.66666666666669</ele><time>2026-04-18T12:15:46.002Z</time></trkpt><trkpt lat="44.79493289689809" lon="9.42056550361152"><ele>265.3333333333333</ele><time>2026-04-18T12:15:47.003Z</time></trkpt><trkpt lat="44.79477535145359" lon="9.420361903681028"><ele>277.0</ele><time>2026-04-18T12:15:48.011Z</time></trkpt><trkpt lat="44.79461650394058" lon="9.420158838723353"><ele>278.3333333333333</ele><time>2026-04-18T12:15:49.012Z</time></trkpt><trkpt lat="44.79446619770487" lon="9.419935217218576"><ele>279.6666666666667</ele><time>2026-04-18T12:15:50.016Z</time></trkpt><trkpt lat="44.79430516317957" lon="9.419724305498026"><ele>281.0</ele><time>2026-04-18T12:15:51.015Z</time></trkpt><trkpt lat="44.79352498569402" lon="9.418695737682663"><ele>309.33333333333337</ele><time>2026-04-18T12:15:55.889Z</time></trkpt><trkpt lat="44.79336504916676" lon="9.418484895460573"><ele>337.6666666666667</ele><time>2026-04-18T12:15:56.889Z</time></trkpt><trkpt lat="44.79320502756372" lon="9.418273941084173"><ele>366.0</ele><time>2026-04-18T12:15:57.889Z</time></trkpt><trkpt lat="44.79304505873761" lon="9.418063056282346"><ele>363.6666666666667</ele><time>2026-04-18T12:15:58.889Z</time></trkpt><trkpt lat="44.792884956672204" lon="9.417852156196043"><ele>361.33333333333337</ele><time>2026-04-18T12:15:59.889Z</time></trkpt><trkpt lat="44.79272396593552" lon="9.417643076090467"><ele>359.0</ele><time>2026-04-18T12:16:00.889Z</time></trkpt><trkpt lat="44.79255239807682" lon="9.417449834840617"><ele>368.6666666666667</ele><time>2026-04-18T12:16:01.889Z</time></trkpt><trkpt lat="44.79239212325105" lon="9.417239398395079"><ele>378.33333333333337</ele><time>2026-04-18T12:16:02.889Z</time></trkpt><trkpt lat="44.79224324075412" lon="9.417011914679282"><ele>388.0</ele><time>2026-04-18T12:16:03.889Z</time></trkpt><trkpt lat="44.79207158771645" lon="9.416818544039163"><ele>388.0</ele><time>2026-04-18T12:16:04.89Z</time></trkpt><trkpt lat="44.79192273950904" lon="9.416591105344422"><ele>388.0</ele><time>2026-04-18T12:16:05.889Z</time></trkpt><trkpt lat="44.791762421109624" lon="9.416380611688513"><ele>388.0</ele><time>2026-04-18T12:16:06.89Z</time></trkpt><trkpt lat="44.791590484049976" lon="9.41618774750763"><ele>367.6666666666667</ele><time>2026-04-18T12:16:07.89Z</time></trkpt><trkpt lat="44.791429871987795" lon="9.415978088836603"><ele>347.33333333333337</ele><time>2026-04-18T12:16:08.889Z</time></trkpt><trkpt lat="44.791281262194275" lon="9.415750334414948"><ele>327.0</ele><time>2026-04-18T12:16:09.89Z</time></trkpt><trkpt lat="44.79112129736059" lon="9.415539181842266"><ele>304.3333333333333</ele><time>2026-04-18T12:16:10.89Z</time></trkpt><trkpt lat="44.79096039000788" lon="9.4153298858825"><ele>281.66666666666663</ele><time>2026-04-18T12:16:11.889Z</time></trkpt><trkpt lat="44.7909" lon="9.4152832"><ele>259.0</ele><time>2026-04-18T12:16:12.89Z</time></trkpt><trkpt lat="44.78996564172654" lon="9.413922904068057"><ele>247.5</ele><time>2026-04-18T12:16:18.003Z</time></trkpt><trkpt lat="44.78980639340332" lon="9.41370735910864"><ele>236.0</ele><time>2026-04-18T12:16:19.003Z</time></trkpt><trkpt lat="44.78959573776287" lon="9.413469265748699"><ele>236.0</ele><time>2026-04-18T12:16:20.003Z</time></trkpt><trkpt lat="44.789432614859045" lon="9.413255663777116"><ele>236.0</ele><time>2026-04-18T12:16:21.003Z</time></trkpt><trkpt lat="44.789260015048484" lon="9.413028136461493"><ele>236.5</ele><time>2026-04-18T12:16:22.003Z</time></trkpt><trkpt lat="44.78908751893971" lon="9.41280992368148"><ele>237.0</ele><time>2026-04-18T12:16:23.003Z</time></trkpt><trkpt lat="44.78891356291913" lon="9.412591487169985"><ele>237.0</ele><time>2026-04-18T12:16:23.996Z</time></trkpt><trkpt lat="44.78874302664323" lon="9.412362779365198"><ele>237.0</ele><time>2026-04-18T12:16:24.997Z</time></trkpt><trkpt lat="44.78857582321695" lon="9.412139414840473"><ele>237.5</ele><time>2026-04-18T12:16:25.997Z</time></trkpt><trkpt lat="44.78840468920443" lon="9.411922267192404"><ele>238.0</ele><time>2026-04-18T12:16:26.997Z</time></trkpt><trkpt lat="44.7882380867978" lon="9.411704355891102"><ele>238.0</ele><time>2026-04-18T12:16:27.997Z</time></trkpt><trkpt lat="44.7880743947482" lon="9.411484686828228"><ele>238.0</ele><time>2026-04-18T12:16:28.997Z</time></trkpt><trkpt lat="44.78786999738152" lon="9.411276257159926"><ele>237.66666666666666</ele><time>2026-04-18T12:16:29.997Z</time></trkpt><trkpt lat="44.787705987054814" lon="9.411065275416425"><ele>237.33333333333331</ele><time>2026-04-18T12:16:30.997Z</time></trkpt><trkpt lat="44.787542953844174" lon="9.410850845346157"><ele>237.0</ele><time>2026-04-18T12:16:31.997Z</time></trkpt><trkpt lat="44.78738269942127" lon="9.410636296489926"><ele>237.0</ele><time>2026-04-18T12:16:32.997Z</time></trkpt><trkpt lat="44.78722562009834" lon="9.410423469634173"><ele>237.0</ele><time>2026-04-18T12:16:33.998Z</time></trkpt><trkpt lat="44.78706300679352" lon="9.410211084936934"><ele>237.0</ele><time>2026-04-18T12:16:34.998Z</time></trkpt><trkpt lat="44.78690216677041" lon="9.410001920570668"><ele>240.0</ele><time>2026-04-18T12:16:35.998Z</time></trkpt><trkpt lat="44.78673974537105" lon="9.409790248947187"><ele>243.0</ele><time>2026-04-18T12:16:36.998Z</time></trkpt><trkpt lat="44.78658058674001" lon="9.409578495381417"><ele>246.0</ele><time>2026-04-18T12:16:37.998Z</time></trkpt><trkpt lat="44.78641985003543" lon="9.40936834629054"><ele>246.0</ele><time>2026-04-18T12:16:38.998Z</time></trkpt><trkpt lat="44.78625682230044" lon="9.409156809097334"><ele>246.0</ele><time>2026-04-18T12:16:39.998Z</time></trkpt><trkpt lat="44.78609573078467" lon="9.408943896330952"><ele>246.0</ele><time>2026-04-18T12:16:40.998Z</time></trkpt><trkpt lat="44.78593435965757" lon="9.408733364238476"><ele>246.0</ele><time>2026-04-18T12:16:41.998Z</time></trkpt><trkpt lat="44.78577419558498" lon="9.408523612565764"><ele>246.0</ele><time>2026-04-18T12:16:42.999Z</time></trkpt><trkpt lat="44.78561646787499" lon="9.408316193629753"><ele>246.0</ele><time>2026-04-18T12:16:43.999Z</time></trkpt><trkpt lat="44.78545666328787" lon="9.408107943686465"><ele>246.66666666666669</ele><time>2026-04-18T12:16:44.999Z</time></trkpt><trkpt lat="44.785300409494724" lon="9.40789645038324"><ele>247.33333333333334</ele><time>2026-04-18T12:16:45.999Z</time></trkpt><trkpt lat="44.78514297500977" lon="9.407684542791122"><ele>248.0</ele><time>2026-04-18T12:16:46.999Z</time></trkpt><trkpt lat="44.784987330080035" lon="9.407472040705665"><ele>248.0</ele><time>2026-04-18T12:16:47.999Z</time></trkpt><trkpt lat="44.78483168029476" lon="9.407259500595238"><ele>248.0</ele><time>2026-04-18T12:16:48.999Z</time></trkpt><trkpt lat="44.78468178718114" lon="9.407041808655665"><ele>248.0</ele><time>2026-04-18T12:16:49.999Z</time></trkpt><trkpt lat="44.78452837034914" lon="9.406820614786268"><ele>247.33333333333334</ele><time>2026-04-18T12:16:50.999Z</time></trkpt><trkpt lat="44.784373479232535" lon="9.406602377827467"><ele>246.66666666666669</ele><time>2026-04-18T12:16:51.999Z</time></trkpt><trkpt lat="44.78421658786528" lon="9.406383275494901"><ele>246.0</ele><time>2026-04-18T12:16:52.999Z</time></trkpt><trkpt lat="44.784064790477636" lon="9.406159138510619"><ele>245.33333333333331</ele><time>2026-04-18T12:16:54Z</time></trkpt><trkpt lat="44.78391008009025" lon="9.405934966265882"><ele>244.66666666666666</ele><time>2026-04-18T12:16:55Z</time></trkpt><trkpt lat="44.78375560867632" lon="9.405712430059067"><ele>244.0</ele><time>2026-04-18T12:16:56Z</time></trkpt><trkpt lat="44.78359876151904" lon="9.405490532767569"><ele>243.0</ele><time>2026-04-18T12:16:57Z</time></trkpt><trkpt lat="44.78344052220516" lon="9.405266089393695"><ele>242.0</ele><time>2026-04-18T12:16:58Z</time></trkpt><trkpt lat="44.78328520096315" lon="9.40504117304638"><ele>241.0</ele><time>2026-04-18T12:16:59Z</time></trkpt><trkpt lat="44.7831278958276" lon="9.404813232600205"><ele>241.0</ele><time>2026-04-18T12:17:00Z</time></trkpt><trkpt lat="44.7829699089085" lon="9.404583643673426"><ele>241.0</ele><time>2026-04-18T12:17:01Z</time></trkpt><trkpt lat="44.78281156434258" lon="9.404351607279928"><ele>242.0</ele><time>2026-04-18T12:17:02Z</time></trkpt><trkpt lat="44.78265261186261" lon="9.40412226871744"><ele>243.0</ele><time>2026-04-18T12:17:03Z</time></trkpt><trkpt lat="44.782494224328126" lon="9.403892978573468"><ele>243.5</ele><time>2026-04-18T12:17:04Z</time></trkpt><trkpt lat="44.782335271012215" lon="9.403664250792325"><ele>244.0</ele><time>2026-04-18T12:17:05Z</time></trkpt><trkpt lat="44.78217663263311" lon="9.40343722049487"><ele>244.0</ele><time>2026-04-18T12:17:06Z</time></trkpt><trkpt lat="44.782017165343504" lon="9.403208698018483"><ele>244.0</ele><time>2026-04-18T12:17:07Z</time></trkpt><trkpt lat="44.78186041405718" lon="9.402985736666796"><ele>245.0</ele><time>2026-04-18T12:17:08Z</time></trkpt><trkpt lat="44.781705498630586" lon="9.402765284509387"><ele>246.0</ele><time>2026-04-18T12:17:09Z</time></trkpt><trkpt lat="44.78155373912014" lon="9.402549859414542"><ele>247.0</ele><time>2026-04-18T12:17:10Z</time></trkpt><trkpt lat="44.78140353220122" lon="9.402331449590198"><ele>247.33333333333331</ele><time>2026-04-18T12:17:11Z</time></trkpt><trkpt lat="44.78125440304786" lon="9.402116779435229"><ele>247.66666666666669</ele><time>2026-04-18T12:17:12Z</time></trkpt><trkpt lat="44.781109303157734" lon="9.401906991445099"><ele>248.0</ele><time>2026-04-18T12:17:13.001Z</time></trkpt><trkpt lat="44.78097433587771" lon="9.401706732592936"><ele>248.0</ele><time>2026-04-18T12:17:14.001Z</time></trkpt><trkpt lat="44.78084565762127" lon="9.401507791948285"><ele>248.0</ele><time>2026-04-18T12:17:15.001Z</time></trkpt><trkpt lat="44.78072018742749" lon="9.401310884357244"><ele>248.0</ele><time>2026-04-18T12:17:16.001Z</time></trkpt><trkpt lat="44.78059695707649" lon="9.401118766933017"><ele>250.33333333333334</ele><time>2026-04-18T12:17:17.001Z</time></trkpt><trkpt lat="44.780478269441105" lon="9.400922817044416"><ele>252.66666666666669</ele><time>2026-04-18T12:17:18.001Z</time></trkpt><trkpt lat="44.78038189471618" lon="9.400697101711396"><ele>255.0</ele><time>2026-04-18T12:17:19.001Z</time></trkpt><trkpt lat="44.7802841930016" lon="9.400463058426267"><ele>254.0</ele><time>2026-04-18T12:17:20.001Z</time></trkpt><trkpt lat="44.78017883877142" lon="9.400219422841213"><ele>253.0</ele><time>2026-04-18T12:17:21.001Z</time></trkpt><trkpt lat="44.78009252038614" lon="9.399954137990242"><ele>252.0</ele><time>2026-04-18T12:17:22.001Z</time></trkpt><trkpt lat="44.78001375563856" lon="9.399674173871357"><ele>253.66666666666669</ele><time>2026-04-18T12:17:23.001Z</time></trkpt><trkpt lat="44.77994787459407" lon="9.399385346767067"><ele>255.33333333333334</ele><time>2026-04-18T12:17:24.001Z</time></trkpt><trkpt lat="44.77989549715114" lon="9.39908505065156"><ele>257.0</ele><time>2026-04-18T12:17:25.001Z</time></trkpt><trkpt lat="44.779856037262526" lon="9.39878067653132"><ele>258.0</ele><time>2026-04-18T12:17:26.001Z</time></trkpt><trkpt lat="44.7798466182878" lon="9.398465909563825"><ele>259.0</ele><time>2026-04-18T12:17:27.001Z</time></trkpt><trkpt lat="44.77980962321021" lon="9.398153256790854"><ele>260.0</ele><time>2026-04-18T12:17:28.001Z</time></trkpt><trkpt lat="44.77978973065766" lon="9.397837709187941"><ele>260.5</ele><time>2026-04-18T12:17:29.001Z</time></trkpt><trkpt lat="44.779766662802764" lon="9.397519180227427"><ele>261.0</ele><time>2026-04-18T12:17:30.001Z</time></trkpt><trkpt lat="44.779757438161056" lon="9.397204676090197"><ele>263.0</ele><time>2026-04-18T12:17:31.001Z</time></trkpt><trkpt lat="44.77972957916742" lon="9.396893500136676"><ele>265.0</ele><time>2026-04-18T12:17:32.001Z</time></trkpt><trkpt lat="44.77967966966383" lon="9.39659167592227"><ele>267.0</ele><time>2026-04-18T12:17:33.001Z</time></trkpt><trkpt lat="44.779636419848906" lon="9.396290087964335"><ele>269.6666666666667</ele><time>2026-04-18T12:17:34.001Z</time></trkpt><trkpt lat="44.77958368322286" lon="9.395987631092826"><ele>272.33333333333337</ele><time>2026-04-18T12:17:35.001Z</time></trkpt><trkpt lat="44.77952331776982" lon="9.39568336772788"><ele>275.0</ele><time>2026-04-18T12:17:36.001Z</time></trkpt><trkpt lat="44.77945465012833" lon="9.395381898412506"><ele>276.6666666666667</ele><time>2026-04-18T12:17:37.001Z</time></trkpt><trkpt lat="44.77937971866469" lon="9.395086002282731"><ele>278.3333333333333</ele><time>2026-04-18T12:17:38.001Z</time></trkpt><trkpt lat="44.779299715312604" lon="9.394795855053275"><ele>280.0</ele><time>2026-04-18T12:17:39.001Z</time></trkpt><trkpt lat="44.7792137507244" lon="9.39450971836994"><ele>274.66666666666663</ele><time>2026-04-18T12:17:40.001Z</time></trkpt><trkpt lat="44.779116784684604" lon="9.394227419802245"><ele>269.3333333333333</ele><time>2026-04-18T12:17:41.002Z</time></trkpt><trkpt lat="44.779013486693344" lon="9.393954069156127"><ele>264.0</ele><time>2026-04-18T12:17:42.002Z</time></trkpt><trkpt lat="44.778903084811375" lon="9.393689817470747"><ele>264.0</ele><time>2026-04-18T12:17:43.002Z</time></trkpt><trkpt lat="44.77878690732701" lon="9.393432081699503"><ele>264.0</ele><time>2026-04-18T12:17:44.002Z</time></trkpt><trkpt lat="44.778667441610224" lon="9.393184464663138"><ele>264.0</ele><time>2026-04-18T12:17:45.002Z</time></trkpt><trkpt lat="44.77856406885519" lon="9.392932379282199"><ele>261.0</ele><time>2026-04-18T12:17:46.002Z</time></trkpt><trkpt lat="44.778453928701204" lon="9.39269479974663"><ele>258.0</ele><time>2026-04-18T12:17:47.002Z</time></trkpt><trkpt lat="44.77829097614884" lon="9.392509960598886"><ele>255.0</ele><time>2026-04-18T12:17:48.002Z</time></trkpt><trkpt lat="44.77815531281528" lon="9.392307005900095"><ele>263.3333333333333</ele><time>2026-04-18T12:17:49.002Z</time></trkpt><trkpt lat="44.77801443295535" lon="9.392109791497592"><ele>271.66666666666663</ele><time>2026-04-18T12:17:50.002Z</time></trkpt><trkpt lat="44.777864860602286" lon="9.391921341046658"><ele>280.0</ele><time>2026-04-18T12:17:51.002Z</time></trkpt><trkpt lat="44.77770854143467" lon="9.391740148919851"><ele>278.66666666666663</ele><time>2026-04-18T12:17:52.002Z</time></trkpt><trkpt lat="44.77754732153559" lon="9.391563201491543"><ele>277.3333333333333</ele><time>2026-04-18T12:17:53.002Z</time></trkpt><trkpt lat="44.77738087430554" lon="9.391390349228143"><ele>276.0</ele><time>2026-04-18T12:17:54.002Z</time></trkpt><trkpt lat="44.77720878827177" lon="9.391225328228122"><ele>276.0</ele><time>2026-04-18T12:17:55.002Z</time></trkpt><trkpt lat="44.77703648291494" lon="9.39106416099183"><ele>276.0</ele><time>2026-04-18T12:17:56.002Z</time></trkpt><trkpt lat="44.7768628465968" lon="9.390901548333995"><ele>276.0</ele><time>2026-04-18T12:17:57.002Z</time></trkpt><trkpt lat="44.776687019149385" lon="9.390737124099585"><ele>274.0</ele><time>2026-04-18T12:17:58.002Z</time></trkpt><trkpt lat="44.776513770790615" lon="9.39057288603542"><ele>272.0</ele><time>2026-04-18T12:17:59.002Z</time></trkpt><trkpt lat="44.77634118975203" lon="9.390407406470468"><ele>270.0</ele><time>2026-04-18T12:18:00.002Z</time></trkpt><trkpt lat="44.77616979254811" lon="9.39024043661021"><ele>264.6666666666667</ele><time>2026-04-18T12:18:01.002Z</time></trkpt><trkpt lat="44.77599894255458" lon="9.390078007588404"><ele>259.33333333333337</ele><time>2026-04-18T12:18:02.002Z</time></trkpt><trkpt lat="44.77582546720182" lon="9.38992816591305"><ele>254.0</ele><time>2026-04-18T12:18:03.002Z</time></trkpt><trkpt lat="44.775645638995435" lon="9.389801776833279"><ele>254.0</ele><time>2026-04-18T12:18:04.002Z</time></trkpt><trkpt lat="44.775459594541616" lon="9.3896923542921"><ele>254.0</ele><time>2026-04-18T12:18:05.002Z</time></trkpt><trkpt lat="44.7752666169262" lon="9.38959841380071"><ele>254.0</ele><time>2026-04-18T12:18:06.002Z</time></trkpt><trkpt lat="44.775067862682334" lon="9.389527279877086"><ele>254.33333333333334</ele><time>2026-04-18T12:18:07.002Z</time></trkpt><trkpt lat="44.77486330871259" lon="9.389476522055363"><ele>254.66666666666669</ele><time>2026-04-18T12:18:08.002Z</time></trkpt><trkpt lat="44.77465381371503" lon="9.389441169640707"><ele>255.0</ele><time>2026-04-18T12:18:09.002Z</time></trkpt><trkpt lat="44.77444128435176" lon="9.389425175274928"><ele>255.0</ele><time>2026-04-18T12:18:10.002Z</time></trkpt><trkpt lat="44.774227774599886" lon="9.389428437374274"><ele>255.0</ele><time>2026-04-18T12:18:11.002Z</time></trkpt><trkpt lat="44.774015867133485" lon="9.38944153316646"><ele>255.0</ele><time>2026-04-18T12:18:12.002Z</time></trkpt><trkpt lat="44.77380675421512" lon="9.389454065813142"><ele>255.0</ele><time>2026-04-18T12:18:13.002Z</time></trkpt><trkpt lat="44.77361090990392" lon="9.389463290976096"><ele>255.0</ele><time>2026-04-18T12:18:14.003Z</time></trkpt><trkpt lat="44.77342748780542" lon="9.38946703695134"><ele>255.0</ele><time>2026-04-18T12:18:15.003Z</time></trkpt><trkpt lat="44.773269952535024" lon="9.389464997750927"><ele>255.83333333333334</ele><time>2026-04-18T12:18:16.003Z</time></trkpt><trkpt lat="44.7731526814545" lon="9.389452854456497"><ele>256.6666666666667</ele><time>2026-04-18T12:18:17.003Z</time></trkpt><trkpt lat="44.77307051179637" lon="9.389421028811727"><ele>257.5</ele><time>2026-04-18T12:18:18.003Z</time></trkpt><trkpt lat="44.77300398269893" lon="9.389365308947784"><ele>258.33333333333337</ele><time>2026-04-18T12:18:19.003Z</time></trkpt><trkpt lat="44.77295483282826" lon="9.389290927989"><ele>259.1666666666667</ele><time>2026-04-18T12:18:20.003Z</time></trkpt><trkpt lat="44.77292380684009" lon="9.38920235732854"><ele>260.0</ele><time>2026-04-18T12:18:21.003Z</time></trkpt><trkpt lat="44.77290976747062" lon="9.389101161506268"><ele>260.0</ele><time>2026-04-18T12:18:22.003Z</time></trkpt><trkpt lat="44.77291204867255" lon="9.38898212522287"><ele>260.0</ele><time>2026-04-18T12:18:23.003Z</time></trkpt><trkpt lat="44.772924800576575" lon="9.388853663792476"><ele>260.0</ele><time>2026-04-18T12:18:24.003Z</time></trkpt><trkpt lat="44.772937479599875" lon="9.388731708123487"><ele>260.0</ele><time>2026-04-18T12:18:25.003Z</time></trkpt><trkpt lat="44.772947518936505" lon="9.38862500670633"><ele>260.0</ele><time>2026-04-18T12:18:26.003Z</time></trkpt><trkpt lat="44.772955600784485" lon="9.388532513647718"><ele>260.0</ele><time>2026-04-18T12:18:27.003Z</time></trkpt><trkpt lat="44.77297037047354" lon="9.388383838152555"><ele>260.42857142857144</ele><time>2026-04-18T12:18:29.003Z</time></trkpt><trkpt lat="44.772982231907726" lon="9.388296170796007"><ele>260.8571428571429</ele><time>2026-04-18T12:18:30.999Z</time></trkpt><trkpt lat="44.77298878468362" lon="9.388205495032846"><ele>261.2857142857143</ele><time>2026-04-18T12:18:37.999Z</time></trkpt><trkpt lat="44.77292866010293" lon="9.388170442491436"><ele>261.7142857142857</ele><time>2026-04-18T12:18:55Z</time></trkpt><trkpt lat="44.77294655051291" lon="9.388276857360077"><ele>262.1428571428571</ele><time>2026-04-18T12:19:25.001Z</time></trkpt><trkpt lat="44.773019071502254" lon="9.388196018801994"><ele>262.57142857142856</ele><time>2026-04-18T12:19:28.001Z</time></trkpt><trkpt lat="44.77303674743349" lon="9.388088407361435"><ele>263.0</ele><time>2026-04-18T12:19:30.001Z</time></trkpt><trkpt lat="44.77304086922116" lon="9.387987394091041"><ele>263.1666666666667</ele><time>2026-04-18T12:24:48.999Z</time></trkpt><trkpt lat="44.77305134878362" lon="9.38789351800153"><ele>263.33333333333337</ele><time>2026-04-18T12:24:57Z</time></trkpt><trkpt lat="44.77296773919691" lon="9.387772077141484"><ele>263.5</ele><time>2026-04-18T12:25:03Z</time></trkpt><trkpt lat="44.77289893724688" lon="9.387735120056146"><ele>263.6666666666667</ele><time>2026-04-18T12:25:12Z</time></trkpt><trkpt lat="44.772833118013004" lon="9.387717045403868"><ele>263.8333333333333</ele><time>2026-04-18T12:25:18Z</time></trkpt><trkpt lat="44.77277089595002" lon="9.38769629703894"><ele>264.0</ele><time>2026-04-18T12:25:25.001Z</time></trkpt><trkpt lat="44.7727822300479" lon="9.387586420004423"><ele>264.0</ele><time>2026-04-18T12:25:38.001Z</time></trkpt><trkpt lat="44.772772208091574" lon="9.387491699241604"><ele>264.0</ele><time>2026-04-18T12:25:43.001Z</time></trkpt><trkpt lat="44.77278772673697" lon="9.387581290096069"><ele>264.0</ele><time>2026-04-18T12:42:32Z</time></trkpt><trkpt lat="44.7727473363651" lon="9.387698335674772"><ele>264.0</ele><time>2026-04-18T12:43:07Z</time></trkpt><trkpt lat="44.77267810285152" lon="9.38772514809013"><ele>264.0</ele><time>2026-04-18T12:43:16Z</time></trkpt><trkpt lat="44.772674215758244" lon="9.387829366366661"><ele>264.0</ele><time>2026-04-18T12:44:37Z</time></trkpt><trkpt lat="44.772682435325635" lon="9.387922498942729"><ele>264.0</ele><time>2026-04-18T12:44:55.001Z</time></trkpt><trkpt lat="44.772613748102664" lon="9.387871101900277"><ele>264.57142857142856</ele><time>2026-04-18T13:02:18Z</time></trkpt><trkpt lat="44.77255155408376" lon="9.38790040137452"><ele>265.14285714285717</ele><time>2026-04-18T13:02:27Z</time></trkpt><trkpt lat="44.772482240915224" lon="9.387906597932306"><ele>265.7142857142857</ele><time>2026-04-18T13:02:36Z</time></trkpt><trkpt lat="44.77241870268547" lon="9.387906717114696"><ele>266.2857142857143</ele><time>2026-04-18T13:02:46Z</time></trkpt><trkpt lat="44.772351840193814" lon="9.387851807155647"><ele>266.85714285714283</ele><time>2026-04-18T13:04:00Z</time></trkpt><trkpt lat="44.7722698506658" lon="9.387871827154978"><ele>267.42857142857144</ele><time>2026-04-18T13:05:37Z</time></trkpt><trkpt lat="44.77220799810642" lon="9.387847690972603"><ele>268.0</ele><time>2026-04-18T13:06:36Z</time></trkpt><trkpt lat="44.77214758421428" lon="9.387812218477633"><ele>268.0</ele><time>2026-04-18T13:07:23Z</time></trkpt><trkpt lat="44.772077763794336" lon="9.38783016537786"><ele>268.0</ele><time>2026-04-18T13:07:53Z</time></trkpt><trkpt lat="44.77222147882814" lon="9.387797162387923"><ele>268.0</ele><time>2026-04-18T13:08:43Z</time></trkpt><trkpt lat="44.77227524945718" lon="9.387869364345903"><ele>268.0</ele><time>2026-04-18T13:12:50Z</time></trkpt><trkpt lat="44.77217967405597" lon="9.387859666998065"><ele>268.0</ele><time>2026-04-18T13:13:33Z</time></trkpt><trkpt lat="44.7720990058595" lon="9.387828529406619"><ele>268.0</ele><time>2026-04-18T13:15:53Z</time></trkpt><trkpt lat="44.772034610868516" lon="9.38780848054832"><ele>268.0</ele><time>2026-04-18T13:16:20Z</time></trkpt><trkpt lat="44.77196027396185" lon="9.387759742679222"><ele>268.0</ele><time>2026-04-18T13:17:04Z</time></trkpt><trkpt lat="44.77190161405272" lon="9.387716183668422"><ele>268.0</ele><time>2026-04-18T13:17:14Z</time></trkpt><trkpt lat="44.771894660570474" lon="9.38761730769192"><ele>268.0</ele><time>2026-04-18T13:17:21Z</time></trkpt><trkpt lat="44.77193833224846" lon="9.38753675567607"><ele>268.0</ele><time>2026-04-18T13:17:30Z</time></trkpt><trkpt lat="44.77200140873243" lon="9.387543270193682"><ele>268.0</ele><time>2026-04-18T13:18:40Z</time></trkpt><trkpt lat="44.77207138426894" lon="9.387563476877315"><ele>268.0</ele><time>2026-04-18T13:18:46Z</time></trkpt><trkpt lat="44.772137880797246" lon="9.387550423460613"><ele>268.0</ele><time>2026-04-18T13:18:54Z</time></trkpt><trkpt lat="44.77220816072773" lon="9.38757887518688"><ele>268.0</ele><time>2026-04-18T13:19:02Z</time></trkpt><trkpt lat="44.77227844108347" lon="9.387606108223052"><ele>268.0</ele><time>2026-04-18T13:19:09Z</time></trkpt><trkpt lat="44.77234980952868" lon="9.387612247744034"><ele>268.0</ele><time>2026-04-18T13:19:16Z</time></trkpt><trkpt lat="44.77242938970209" lon="9.387611665814577"><ele>268.0</ele><time>2026-04-18T13:19:30Z</time></trkpt><trkpt lat="44.77249065473846" lon="9.387684906734684"><ele>268.0</ele><time>2026-04-18T13:19:49Z</time></trkpt><trkpt lat="44.772552577090394" lon="9.387662228474857"><ele>268.0</ele><time>2026-04-18T13:20:04Z</time></trkpt><trkpt lat="44.77262262845781" lon="9.387668648113047"><ele>268.0</ele><time>2026-04-18T13:20:11Z</time></trkpt><trkpt lat="44.77269552410898" lon="9.387679723254175"><ele>268.0</ele><time>2026-04-18T13:20:21Z</time></trkpt><trkpt lat="44.77275907176323" lon="9.387698997444561"><ele>268.0</ele><time>2026-04-18T13:20:31Z</time></trkpt><trkpt lat="44.77276876106908" lon="9.387788155499543"><ele>268.0</ele><time>2026-04-18T13:20:37Z</time></trkpt><trkpt lat="44.77280929506051" lon="9.387711141015892"><ele>268.0</ele><time>2026-04-18T13:21:25Z</time></trkpt><trkpt lat="44.77294820896685" lon="9.387756508858459"><ele>267.3333333333333</ele><time>2026-04-18T13:21:39Z</time></trkpt><trkpt lat="44.772957657921474" lon="9.387853453898678"><ele>266.66666666666663</ele><time>2026-04-18T13:21:44Z</time></trkpt><trkpt lat="44.77299055966039" lon="9.387934702799162"><ele>266.0</ele><time>2026-04-18T13:21:51Z</time></trkpt><trkpt lat="44.77302704589043" lon="9.388020446628467"><ele>265.3333333333333</ele><time>2026-04-18T13:21:58Z</time></trkpt><trkpt lat="44.77293531864743" lon="9.388048904615053"><ele>264.6666666666667</ele><time>2026-04-18T13:42:58Z</time></trkpt><trkpt lat="44.7728633150866" lon="9.388064785566987"><ele>264.0</ele><time>2026-04-18T13:43:01Z</time></trkpt><trkpt lat="44.772949482808066" lon="9.38850295968331"><ele>263.8333333333333</ele><time>2026-04-18T13:43:03Z</time></trkpt><trkpt lat="44.77295335193751" lon="9.388595775640189"><ele>263.6666666666667</ele><time>2026-04-18T13:43:04.001Z</time></trkpt><trkpt lat="44.77294613178064" lon="9.388697196736816"><ele>263.5</ele><time>2026-04-18T13:43:05.001Z</time></trkpt><trkpt lat="44.77293331529615" lon="9.388803146823617"><ele>263.33333333333337</ele><time>2026-04-18T13:43:06.001Z</time></trkpt><trkpt lat="44.77292294775656" lon="9.388914253706263"><ele>263.1666666666667</ele><time>2026-04-18T13:43:07.001Z</time></trkpt><trkpt lat="44.77290860101763" lon="9.389011484574947"><ele>263.0</ele><time>2026-04-18T13:43:08.001Z</time></trkpt><trkpt lat="44.77288392960916" lon="9.389155796829417"><ele>262.5</ele><time>2026-04-18T13:43:10.001Z</time></trkpt><trkpt lat="44.77287035578803" lon="9.38927422503523"><ele>262.0</ele><time>2026-04-18T13:43:12.001Z</time></trkpt><trkpt lat="44.772862681933844" lon="9.389368338223138"><ele>261.5</ele><time>2026-04-18T13:43:14.001Z</time></trkpt><trkpt lat="44.7728573777556" lon="9.389482129639834"><ele>261.0</ele><time>2026-04-18T13:43:18.001Z</time></trkpt><trkpt lat="44.772956788631234" lon="9.389513922699576"><ele>260.5</ele><time>2026-04-18T13:43:19.001Z</time></trkpt><trkpt lat="44.77304000975813" lon="9.389523811773143"><ele>260.0</ele><time>2026-04-18T13:43:20.001Z</time></trkpt><trkpt lat="44.77311683636917" lon="9.389533475093966"><ele>260.0</ele><time>2026-04-18T13:43:21.001Z</time></trkpt><trkpt lat="44.7732132367729" lon="9.389541979511595"><ele>260.0</ele><time>2026-04-18T13:43:22.001Z</time></trkpt><trkpt lat="44.7733230129129" lon="9.389538162187602"><ele>260.0</ele><time>2026-04-18T13:43:23.001Z</time></trkpt><trkpt lat="44.77344367243704" lon="9.38953493043325"><ele>260.0</ele><time>2026-04-18T13:43:24.001Z</time></trkpt><trkpt lat="44.77356325444718" lon="9.389527003722622"><ele>260.0</ele><time>2026-04-18T13:43:25.001Z</time></trkpt><trkpt lat="44.7737057371872" lon="9.38951232733386"><ele>258.75</ele><time>2026-04-18T13:43:26.001Z</time></trkpt><trkpt lat="44.77383864557882" lon="9.389507451929857"><ele>257.5</ele><time>2026-04-18T13:43:27.001Z</time></trkpt><trkpt lat="44.773982992026816" lon="9.389497085771174"><ele>256.25</ele><time>2026-04-18T13:43:28.001Z</time></trkpt><trkpt lat="44.7741277852295" lon="9.38949073708916"><ele>255.0</ele><time>2026-04-18T13:43:29.001Z</time></trkpt><trkpt lat="44.77427577699048" lon="9.389496288541899"><ele>255.0</ele><time>2026-04-18T13:43:30.001Z</time></trkpt><trkpt lat="44.774392385821926" lon="9.389472530937255"><ele>255.0</ele><time>2026-04-18T13:43:31.001Z</time></trkpt><trkpt lat="44.77451706926708" lon="9.389474336603385"><ele>255.0</ele><time>2026-04-18T13:43:32.001Z</time></trkpt><trkpt lat="44.77464285138922" lon="9.389480506791683"><ele>255.0</ele><time>2026-04-18T13:43:33.001Z</time></trkpt><trkpt lat="44.77476454566281" lon="9.389496157916577"><ele>255.0</ele><time>2026-04-18T13:43:34.001Z</time></trkpt><trkpt lat="44.77488086137886" lon="9.389522184564147"><ele>255.0</ele><time>2026-04-18T13:43:35.002Z</time></trkpt><trkpt lat="44.775016268087676" lon="9.389565263977254"><ele>255.0</ele><time>2026-04-18T13:43:36.002Z</time></trkpt><trkpt lat="44.77515741025423" lon="9.389614742615153"><ele>255.0</ele><time>2026-04-18T13:43:37.002Z</time></trkpt><trkpt lat="44.77530284822999" lon="9.38966529944589"><ele>254.66666666666669</ele><time>2026-04-18T13:43:38.002Z</time></trkpt><trkpt lat="44.77544715181422" lon="9.389730954803543"><ele>254.33333333333334</ele><time>2026-04-18T13:43:39.002Z</time></trkpt><trkpt lat="44.77559210628781" lon="9.3898147009482"><ele>254.0</ele><time>2026-04-18T13:43:40.002Z</time></trkpt><trkpt lat="44.775733480995086" lon="9.389917840457011"><ele>254.0</ele><time>2026-04-18T13:43:41.002Z</time></trkpt><trkpt lat="44.77586880974497" lon="9.390026573086972"><ele>254.0</ele><time>2026-04-18T13:43:42.002Z</time></trkpt><trkpt lat="44.77600219592015" lon="9.390143319747233"><ele>254.0</ele><time>2026-04-18T13:43:43.002Z</time></trkpt><trkpt lat="44.7761293589465" lon="9.390267247698867"><ele>255.25</ele><time>2026-04-18T13:43:44.002Z</time></trkpt><trkpt lat="44.7762463736255" lon="9.390381022404771"><ele>256.5</ele><time>2026-04-18T13:43:45.002Z</time></trkpt><trkpt lat="44.77636321664191" lon="9.390491588778772"><ele>257.75</ele><time>2026-04-18T13:43:46.002Z</time></trkpt><trkpt lat="44.77646976121553" lon="9.3905928160233"><ele>259.0</ele><time>2026-04-18T13:43:47.002Z</time></trkpt><trkpt lat="44.77657389665965" lon="9.390693994979532"><ele>259.0</ele><time>2026-04-18T13:43:48.002Z</time></trkpt><trkpt lat="44.776682616909426" lon="9.390798044801889"><ele>259.0</ele><time>2026-04-18T13:43:49.002Z</time></trkpt><trkpt lat="44.77679991891507" lon="9.390909386080375"><ele>259.0</ele><time>2026-04-18T13:43:50.002Z</time></trkpt><trkpt lat="44.7769232517749" lon="9.391018772024392"><ele>259.0</ele><time>2026-04-18T13:43:51.002Z</time></trkpt><trkpt lat="44.777049222733794" lon="9.391134045845549"><ele>258.0</ele><time>2026-04-18T13:43:52.002Z</time></trkpt><trkpt lat="44.77717929046588" lon="9.391253255316768"><ele>257.0</ele><time>2026-04-18T13:43:53.002Z</time></trkpt><trkpt lat="44.77730578695392" lon="9.391380246559157"><ele>256.0</ele><time>2026-04-18T13:43:54.002Z</time></trkpt><trkpt lat="44.7774350329978" lon="9.391509977473637"><ele>256.0</ele><time>2026-04-18T13:43:55.002Z</time></trkpt><trkpt lat="44.77756443402015" lon="9.391643298135932"><ele>256.0</ele><time>2026-04-18T13:43:56.002Z</time></trkpt><trkpt lat="44.7776903948956" lon="9.39178339571465"><ele>256.0</ele><time>2026-04-18T13:43:57.002Z</time></trkpt><trkpt lat="44.777813089655496" lon="9.391930472400528"><ele>255.66666666666666</ele><time>2026-04-18T13:43:58.002Z</time></trkpt><trkpt lat="44.7779363947941" lon="9.392087793979115"><ele>255.33333333333331</ele><time>2026-04-18T13:43:59.002Z</time></trkpt><trkpt lat="44.778053623203725" lon="9.39224486350304"><ele>255.0</ele><time>2026-04-18T13:44:00.002Z</time></trkpt><trkpt lat="44.778168245227086" lon="9.39240804847457"><ele>255.0</ele><time>2026-04-18T13:44:01.002Z</time></trkpt><trkpt lat="44.77827941005123" lon="9.39258060786711"><ele>255.0</ele><time>2026-04-18T13:44:02.002Z</time></trkpt><trkpt lat="44.7783905824757" lon="9.392766770702483"><ele>255.0</ele><time>2026-04-18T13:44:03.002Z</time></trkpt><trkpt lat="44.77849639588934" lon="9.392953945071156"><ele>258.0</ele><time>2026-04-18T13:44:04.002Z</time></trkpt><trkpt lat="44.7785981819911" lon="9.393142837051217"><ele>261.0</ele><time>2026-04-18T13:44:05.002Z</time></trkpt><trkpt lat="44.77869703095425" lon="9.393340756017215"><ele>264.0</ele><time>2026-04-18T13:44:06.002Z</time></trkpt><trkpt lat="44.77879878782006" lon="9.393559511874205"><ele>264.0</ele><time>2026-04-18T13:44:07.002Z</time></trkpt><trkpt lat="44.77890755859082" lon="9.393797701001185"><ele>264.0</ele><time>2026-04-18T13:44:08.003Z</time></trkpt><trkpt lat="44.77901604887223" lon="9.394057523380622"><ele>264.0</ele><time>2026-04-18T13:44:09.003Z</time></trkpt><trkpt lat="44.7791260326611" lon="9.394361020889706"><ele>256.5</ele><time>2026-04-18T13:44:10.003Z</time></trkpt><trkpt lat="44.779234576565095" lon="9.394685661212007"><ele>249.0</ele><time>2026-04-18T13:44:11.003Z</time></trkpt><trkpt lat="44.77932794935515" lon="9.395008504218238"><ele>262.0</ele><time>2026-04-18T13:44:12.003Z</time></trkpt><trkpt lat="44.779407047764074" lon="9.395312616950626"><ele>275.0</ele><time>2026-04-18T13:44:13.003Z</time></trkpt><trkpt lat="44.779483016198085" lon="9.39562400361124"><ele>275.0</ele><time>2026-04-18T13:44:14.003Z</time></trkpt><trkpt lat="44.77955214661911" lon="9.395944081682279"><ele>275.0</ele><time>2026-04-18T13:44:15.003Z</time></trkpt><trkpt lat="44.779610445436866" lon="9.396266388965099"><ele>271.0</ele><time>2026-04-18T13:44:16.003Z</time></trkpt><trkpt lat="44.77965752842866" lon="9.396590242018311"><ele>267.0</ele><time>2026-04-18T13:44:17.003Z</time></trkpt><trkpt lat="44.77969289626363" lon="9.396910960361405"><ele>264.0</ele><time>2026-04-18T13:44:18.003Z</time></trkpt><trkpt lat="44.77972514311305" lon="9.397235514037424"><ele>261.0</ele><time>2026-04-18T13:44:19.003Z</time></trkpt><trkpt lat="44.77975076919154" lon="9.397560917199295"><ele>261.0</ele><time>2026-04-18T13:44:20.003Z</time></trkpt><trkpt lat="44.77976945326037" lon="9.39788169192635"><ele>261.0</ele><time>2026-04-18T13:44:21.003Z</time></trkpt><trkpt lat="44.77978515085162" lon="9.398200571531445"><ele>260.6666666666667</ele><time>2026-04-18T13:44:22.003Z</time></trkpt><trkpt lat="44.77980471850915" lon="9.398514248824625"><ele>260.33333333333337</ele><time>2026-04-18T13:44:23.003Z</time></trkpt><trkpt lat="44.77983325745442" lon="9.398816282837895"><ele>260.0</ele><time>2026-04-18T13:44:24.003Z</time></trkpt><trkpt lat="44.77987087492266" lon="9.399110256246855"><ele>259.0</ele><time>2026-04-18T13:44:25.003Z</time></trkpt><trkpt lat="44.77992027209903" lon="9.399400789837168"><ele>258.0</ele><time>2026-04-18T13:44:26.003Z</time></trkpt><trkpt lat="44.77998441897156" lon="9.399680383028336"><ele>257.0</ele><time>2026-04-18T13:44:27.003Z</time></trkpt><trkpt lat="44.780060223169194" lon="9.39994958393698"><ele>256.33333333333337</ele><time>2026-04-18T13:44:28.003Z</time></trkpt><trkpt lat="44.78014259391219" lon="9.400215533276397"><ele>255.66666666666669</ele><time>2026-04-18T13:44:29.003Z</time></trkpt><trkpt lat="44.78024062535154" lon="9.400474268422174"><ele>255.0</ele><time>2026-04-18T13:44:30.003Z</time></trkpt><trkpt lat="44.78034755195465" lon="9.40071995689708"><ele>255.0</ele><time>2026-04-18T13:44:31.003Z</time></trkpt><trkpt lat="44.780465022625165" lon="9.400952038837007"><ele>255.0</ele><time>2026-04-18T13:44:32.003Z</time></trkpt><trkpt lat="44.78058826924895" lon="9.401179727783616"><ele>255.0</ele><time>2026-04-18T13:44:33.003Z</time></trkpt><trkpt lat="44.78071925380468" lon="9.401401600094731"><ele>254.33333333333331</ele><time>2026-04-18T13:44:34.003Z</time></trkpt><trkpt lat="44.7808540650761" lon="9.401618108776534"><ele>253.66666666666666</ele><time>2026-04-18T13:44:35.003Z</time></trkpt><trkpt lat="44.78099631194378" lon="9.401821608926504"><ele>253.0</ele><time>2026-04-18T13:44:35.998Z</time></trkpt><trkpt lat="44.78114424212342" lon="9.402026404242834"><ele>251.0</ele><time>2026-04-18T13:44:36.998Z</time></trkpt><trkpt lat="44.78129194137662" lon="9.402234013260012"><ele>249.0</ele><time>2026-04-18T13:44:37.998Z</time></trkpt><trkpt lat="44.781438029271115" lon="9.402445630022731"><ele>247.0</ele><time>2026-04-18T13:44:38.998Z</time></trkpt><trkpt lat="44.78158299963097" lon="9.402655769220557"><ele>247.0</ele><time>2026-04-18T13:44:39.998Z</time></trkpt><trkpt lat="44.78173090270734" lon="9.40286998777274"><ele>247.0</ele><time>2026-04-18T13:44:40.998Z</time></trkpt><trkpt lat="44.78187568749285" lon="9.403079594484339"><ele>247.0</ele><time>2026-04-18T13:44:41.999Z</time></trkpt><trkpt lat="44.782024271864174" lon="9.403295541706548"><ele>246.0</ele><time>2026-04-18T13:44:42.999Z</time></trkpt><trkpt lat="44.78217014145333" lon="9.403505004102923"><ele>245.0</ele><time>2026-04-18T13:44:43.999Z</time></trkpt><trkpt lat="44.782321395672994" lon="9.403717639718762"><ele>244.0</ele><time>2026-04-18T13:44:44.999Z</time></trkpt><trkpt lat="44.782472239432444" lon="9.403931508065307"><ele>243.66666666666666</ele><time>2026-04-18T13:44:45.999Z</time></trkpt><trkpt lat="44.78261607363635" lon="9.40413923768784"><ele>243.33333333333331</ele><time>2026-04-18T13:44:46.999Z</time></trkpt><trkpt lat="44.7827557213569" lon="9.404340462407513"><ele>243.0</ele><time>2026-04-18T13:44:47.999Z</time></trkpt><trkpt lat="44.782892340945345" lon="9.404536243528419"><ele>242.33333333333331</ele><time>2026-04-18T13:44:48.999Z</time></trkpt><trkpt lat="44.783025801880676" lon="9.40472731270143"><ele>241.66666666666666</ele><time>2026-04-18T13:44:49.999Z</time></trkpt><trkpt lat="44.783155607329086" lon="9.404921987524904"><ele>241.0</ele><time>2026-04-18T13:44:50.999Z</time></trkpt><trkpt lat="44.783288922315805" lon="9.405109663823433"><ele>241.0</ele><time>2026-04-18T13:44:51.999Z</time></trkpt><trkpt lat="44.783416245120044" lon="9.405295847007226"><ele>241.0</ele><time>2026-04-18T13:44:52.999Z</time></trkpt><trkpt lat="44.783544052272156" lon="9.405482378821901"><ele>241.0</ele><time>2026-04-18T13:44:53.999Z</time></trkpt><trkpt lat="44.783668442188365" lon="9.405663224546418"><ele>242.0</ele><time>2026-04-18T13:44:54.999Z</time></trkpt><trkpt lat="44.783794147259414" lon="9.405843138072024"><ele>243.0</ele><time>2026-04-18T13:44:55.999Z</time></trkpt><trkpt lat="44.78392457090909" lon="9.406024362443999"><ele>244.0</ele><time>2026-04-18T13:44:56.999Z</time></trkpt><trkpt lat="44.78405270440952" lon="9.406208880580738"><ele>244.66666666666666</ele><time>2026-04-18T13:44:57.999Z</time></trkpt><trkpt lat="44.784177007732055" lon="9.406389264104844"><ele>245.33333333333331</ele><time>2026-04-18T13:44:58.999Z</time></trkpt><trkpt lat="44.784303950720044" lon="9.406574905227512"><ele>246.0</ele><time>2026-04-18T13:44:59.999Z</time></trkpt><trkpt lat="44.7844288361887" lon="9.406759789054059"><ele>246.0</ele><time>2026-04-18T13:45:00.999Z</time></trkpt><trkpt lat="44.78455524778443" lon="9.406937918293146"><ele>246.0</ele><time>2026-04-18T13:45:01.999Z</time></trkpt><trkpt lat="44.78468052688861" lon="9.40712198214893"><ele>246.0</ele><time>2026-04-18T13:45:02.999Z</time></trkpt><trkpt lat="44.78480942562058" lon="9.407313476734037"><ele>246.66666666666669</ele><time>2026-04-18T13:45:03.999Z</time></trkpt><trkpt lat="44.78493951639399" lon="9.407490916886186"><ele>247.33333333333334</ele><time>2026-04-18T13:45:04.999Z</time></trkpt><trkpt lat="44.785073381403706" lon="9.407674312796948"><ele>248.0</ele><time>2026-04-18T13:45:05.999Z</time></trkpt><trkpt lat="44.785217250756894" lon="9.40786930542326"><ele>247.33333333333334</ele><time>2026-04-18T13:45:06.999Z</time></trkpt><trkpt lat="44.78535286605595" lon="9.408052987623526"><ele>246.66666666666669</ele><time>2026-04-18T13:45:07.999Z</time></trkpt><trkpt lat="44.785494426974665" lon="9.408238292664395"><ele>246.0</ele><time>2026-04-18T13:45:08.999Z</time></trkpt><trkpt lat="44.7856322575158" lon="9.408415732774502"><ele>246.0</ele><time>2026-04-18T13:45:09.999Z</time></trkpt><trkpt lat="44.785768277986676" lon="9.408588093732705"><ele>246.0</ele><time>2026-04-18T13:45:10.999Z</time></trkpt><trkpt lat="44.78590822246248" lon="9.408765012651699"><ele>246.0</ele><time>2026-04-18T13:45:11.999Z</time></trkpt><trkpt lat="44.786045472348704" lon="9.408948107250515"><ele>246.0</ele><time>2026-04-18T13:45:12.999Z</time></trkpt><trkpt lat="44.786182161062335" lon="9.409130056173295"><ele>246.0</ele><time>2026-04-18T13:45:13.999Z</time></trkpt><trkpt lat="44.78632246742632" lon="9.40930455801377"><ele>246.0</ele><time>2026-04-18T13:45:14.999Z</time></trkpt><trkpt lat="44.78645879632499" lon="9.409486512698757"><ele>246.0</ele><time>2026-04-18T13:45:15.999Z</time></trkpt><trkpt lat="44.78658718253195" lon="9.409658474409184"><ele>246.0</ele><time>2026-04-18T13:45:16.999Z</time></trkpt><trkpt lat="44.786718036891486" lon="9.409826817135889"><ele>246.0</ele><time>2026-04-18T13:45:17.999Z</time></trkpt><trkpt lat="44.78684204539683" lon="9.409988699577342"><ele>243.0</ele><time>2026-04-18T13:45:18.999Z</time></trkpt><trkpt lat="44.78697050832433" lon="9.410158130536171"><ele>240.0</ele><time>2026-04-18T13:45:19.999Z</time></trkpt><trkpt lat="44.78709252287618" lon="9.41032543875912"><ele>237.0</ele><time>2026-04-18T13:45:20.999Z</time></trkpt><trkpt lat="44.78721685111741" lon="9.41048444003872"><ele>238.0</ele><time>2026-04-18T13:45:21.999Z</time></trkpt><trkpt lat="44.787338447055376" lon="9.410643831807471"><ele>239.0</ele><time>2026-04-18T13:45:22.999Z</time></trkpt><trkpt lat="44.787466265269906" lon="9.410810488801697"><ele>240.0</ele><time>2026-04-18T13:45:23.999Z</time></trkpt><trkpt lat="44.7875877999975" lon="9.410970333853196"><ele>239.33333333333331</ele><time>2026-04-18T13:45:24.999Z</time></trkpt><trkpt lat="44.787712643821976" lon="9.411131402279791"><ele>238.66666666666666</ele><time>2026-04-18T13:45:26Z</time></trkpt><trkpt lat="44.78783142841565" lon="9.411282643096754"><ele>238.0</ele><time>2026-04-18T13:45:27Z</time></trkpt><trkpt lat="44.787956204321596" lon="9.41144423998683"><ele>238.0</ele><time>2026-04-18T13:45:28Z</time></trkpt><trkpt lat="44.78807875930259" lon="9.411610264651312"><ele>238.0</ele><time>2026-04-18T13:45:29Z</time></trkpt><trkpt lat="44.78820350225937" lon="9.411776491075495"><ele>238.0</ele><time>2026-04-18T13:45:30Z</time></trkpt><trkpt lat="44.788337136045975" lon="9.41194817980961"><ele>238.0</ele><time>2026-04-18T13:45:31Z</time></trkpt><trkpt lat="44.78847320293517" lon="9.412125017204078"><ele>238.0</ele><time>2026-04-18T13:45:32Z</time></trkpt><trkpt lat="44.78860816981917" lon="9.412305402342435"><ele>238.0</ele><time>2026-04-18T13:45:33Z</time></trkpt><trkpt lat="44.78874633048343" lon="9.41248771703027"><ele>237.66666666666666</ele><time>2026-04-18T13:45:34Z</time></trkpt><trkpt lat="44.78888213064968" lon="9.412667949877417"><ele>237.33333333333331</ele><time>2026-04-18T13:45:35Z</time></trkpt><trkpt lat="44.789018242746515" lon="9.412842982554828"><ele>237.0</ele><time>2026-04-18T13:45:36Z</time></trkpt><trkpt lat="44.78914651484247" lon="9.413011536988773"><ele>237.0</ele><time>2026-04-18T13:45:37Z</time></trkpt><trkpt lat="44.78927351809751" lon="9.413180561802013"><ele>237.0</ele><time>2026-04-18T13:45:38Z</time></trkpt><trkpt lat="44.78939916523594" lon="9.413344130726372"><ele>237.0</ele><time>2026-04-18T13:45:39Z</time></trkpt><trkpt lat="44.78951967095624" lon="9.4135016138669"><ele>236.66666666666669</ele><time>2026-04-18T13:45:40Z</time></trkpt><trkpt lat="44.789643769317564" lon="9.413665219355321"><ele>236.33333333333334</ele><time>2026-04-18T13:45:41Z</time></trkpt><trkpt lat="44.78977392564625" lon="9.413829431419453"><ele>236.0</ele><time>2026-04-18T13:45:42Z</time></trkpt><trkpt lat="44.78989892655579" lon="9.41399131214297"><ele>237.0</ele><time>2026-04-18T13:45:43Z</time></trkpt><trkpt lat="44.790020215366134" lon="9.414149415629952"><ele>238.0</ele><time>2026-04-18T13:45:44Z</time></trkpt><trkpt lat="44.79014236296579" lon="9.414306603842089"><ele>239.0</ele><time>2026-04-18T13:45:45Z</time></trkpt><trkpt lat="44.790264644499295" lon="9.414463985503467"><ele>239.0</ele><time>2026-04-18T13:45:46Z</time></trkpt><trkpt lat="44.790384435689845" lon="9.414623405887424"><ele>239.0</ele><time>2026-04-18T13:45:47Z</time></trkpt><trkpt lat="44.790508217026115" lon="9.41478586898653"><ele>239.0</ele><time>2026-04-18T13:45:48Z</time></trkpt><trkpt lat="44.79064319973496" lon="9.414955188371437"><ele>245.66666666666669</ele><time>2026-04-18T13:45:49Z</time></trkpt><trkpt lat="44.79077396017219" lon="9.415120039855292"><ele>252.33333333333331</ele><time>2026-04-18T13:45:50Z</time></trkpt><trkpt lat="44.79088855912006" lon="9.415273262089597"><ele>259.0</ele><time>2026-04-18T13:45:51.018Z</time></trkpt><trkpt lat="44.7909899727071" lon="9.415419970171468"><ele>276.0</ele><time>2026-04-18T13:45:52.016Z</time></trkpt><trkpt lat="44.791084010473575" lon="9.415557295920031"><ele>293.0</ele><time>2026-04-18T13:45:53.014Z</time></trkpt><trkpt lat="44.791168871973916" lon="9.415682030128846"><ele>310.0</ele><time>2026-04-18T13:45:54.016Z</time></trkpt><trkpt lat="44.79124288543664" lon="9.415797258852285"><ele>327.0</ele><time>2026-04-18T13:45:55.017Z</time></trkpt><trkpt lat="44.79130858249919" lon="9.415902409963467"><ele>327.0</ele><time>2026-04-18T13:45:56.016Z</time></trkpt><trkpt lat="44.791366866885234" lon="9.41599638978218"><ele>327.0</ele><time>2026-04-18T13:45:57.02Z</time></trkpt><trkpt lat="44.79142075237952" lon="9.416080354723473"><ele>327.0</ele><time>2026-04-18T13:45:58.015Z</time></trkpt><trkpt lat="44.79147319937993" lon="9.416164642360274"><ele>327.0</ele><time>2026-04-18T13:45:59.019Z</time></trkpt><trkpt lat="44.79281357101928" lon="9.417791290414124"><ele>346.5</ele><time>2026-04-18T13:46:02.956Z</time></trkpt><trkpt lat="44.79314218240767" lon="9.418223158706278"><ele>366.0</ele><time>2026-04-18T13:46:03.956Z</time></trkpt><trkpt lat="44.79347011729348" lon="9.41865547095676"><ele>345.0</ele><time>2026-04-18T13:46:04.956Z</time></trkpt><trkpt lat="44.79379837220803" lon="9.419087526537503"><ele>324.0</ele><time>2026-04-18T13:46:05.956Z</time></trkpt><trkpt lat="44.79412550629804" lon="9.419520971766298"><ele>302.5</ele><time>2026-04-18T13:46:06.955Z</time></trkpt><trkpt lat="44.79445475913471" lon="9.419952204026506"><ele>281.0</ele><time>2026-04-18T13:46:07.956Z</time></trkpt><trkpt lat="44.794782803031474" lon="9.420384419463835"><ele>279.0</ele><time>2026-04-18T13:46:08.956Z</time></trkpt><trkpt lat="44.79511235530264" lon="9.420814447113518"><ele>277.0</ele><time>2026-04-18T13:46:09.956Z</time></trkpt><trkpt lat="44.7953365" lon="9.421111"><ele>247.0</ele><time>2026-04-18T13:46:10.956Z</time></trkpt><trkpt lat="44.79567933366149" lon="9.421635428452324"><ele>247.0</ele><time>2026-04-18T13:46:28.001Z</time></trkpt><trkpt lat="44.79580810853769" lon="9.421807617706863"><ele>247.0</ele><time>2026-04-18T13:46:29.001Z</time></trkpt><trkpt lat="44.79594125541337" lon="9.422000292408583"><ele>247.0</ele><time>2026-04-18T13:46:30.001Z</time></trkpt><trkpt lat="44.796077187463794" lon="9.422171005618853"><ele>244.66666666666666</ele><time>2026-04-18T13:46:31.001Z</time></trkpt><trkpt lat="44.79621427218758" lon="9.422328345939597"><ele>242.33333333333331</ele><time>2026-04-18T13:46:32.001Z</time></trkpt><trkpt lat="44.79636391753816" lon="9.422474542270187"><ele>240.0</ele><time>2026-04-18T13:46:33.001Z</time></trkpt><trkpt lat="44.79652404902581" lon="9.422602043185242"><ele>240.0</ele><time>2026-04-18T13:46:34.001Z</time></trkpt><trkpt lat="44.79668317198845" lon="9.422717915922975"><ele>240.0</ele><time>2026-04-18T13:46:35.002Z</time></trkpt><trkpt lat="44.79685439816641" lon="9.422828778029025"><ele>240.0</ele><time>2026-04-18T13:46:36.002Z</time></trkpt><trkpt lat="44.79702945504073" lon="9.422930313734293"><ele>240.66666666666669</ele><time>2026-04-18T13:46:37.002Z</time></trkpt><trkpt lat="44.79721333230251" lon="9.423022722613272"><ele>241.33333333333334</ele><time>2026-04-18T13:46:38.002Z</time></trkpt><trkpt lat="44.79740290158077" lon="9.423089729561134"><ele>242.0</ele><time>2026-04-18T13:46:39.002Z</time></trkpt><trkpt lat="44.797604275063286" lon="9.423136121524697"><ele>241.66666666666669</ele><time>2026-04-18T13:46:40.002Z</time></trkpt><trkpt lat="44.79780069598817" lon="9.423188748353999"><ele>241.33333333333331</ele><time>2026-04-18T13:46:41.002Z</time></trkpt><trkpt lat="44.797999414620136" lon="9.423225266004886"><ele>241.0</ele><time>2026-04-18T13:46:41.997Z</time></trkpt><trkpt lat="44.79820024984002" lon="9.42324999097803"><ele>241.0</ele><time>2026-04-18T13:46:42.998Z</time></trkpt><trkpt lat="44.798397657686266" lon="9.42328176579757"><ele>241.0</ele><time>2026-04-18T13:46:43.998Z</time></trkpt><trkpt lat="44.79858659790074" lon="9.423305885449416"><ele>241.0</ele><time>2026-04-18T13:46:44.998Z</time></trkpt><trkpt lat="44.79877479935656" lon="9.423319112221645"><ele>239.33333333333331</ele><time>2026-04-18T13:46:45.998Z</time></trkpt><trkpt lat="44.79895882407373" lon="9.423335486102452"><ele>237.66666666666669</ele><time>2026-04-18T13:46:46.998Z</time></trkpt><trkpt lat="44.79914790633428" lon="9.423366863569797"><ele>236.0</ele><time>2026-04-18T13:46:47.998Z</time></trkpt><trkpt lat="44.799330070268965" lon="9.423407463283215"><ele>235.33333333333334</ele><time>2026-04-18T13:46:48.998Z</time></trkpt><trkpt lat="44.79951302096304" lon="9.423458988403233"><ele>234.66666666666669</ele><time>2026-04-18T13:46:49.999Z</time></trkpt><trkpt lat="44.79969757139994" lon="9.423528832776197"><ele>234.0</ele><time>2026-04-18T13:46:50.999Z</time></trkpt><trkpt lat="44.79988676155176" lon="9.423611004750146"><ele>234.0</ele><time>2026-04-18T13:46:51.999Z</time></trkpt><trkpt lat="44.80007529587149" lon="9.423714257717068"><ele>234.0</ele><time>2026-04-18T13:46:52.999Z</time></trkpt><trkpt lat="44.80025415641261" lon="9.423873911101538"><ele>234.0</ele><time>2026-04-18T13:46:53.999Z</time></trkpt><trkpt lat="44.80043317013232" lon="9.424001352586801"><ele>232.33333333333331</ele><time>2026-04-18T13:46:54.999Z</time></trkpt><trkpt lat="44.800614985292334" lon="9.424130613126701"><ele>230.66666666666666</ele><time>2026-04-18T13:46:55.999Z</time></trkpt><trkpt lat="44.80079572638461" lon="9.424261348118133"><ele>229.0</ele><time>2026-04-18T13:46:56.999Z</time></trkpt><trkpt lat="44.80097829569762" lon="9.424391692147681"><ele>228.33333333333331</ele><time>2026-04-18T13:46:57.999Z</time></trkpt><trkpt lat="44.80115914400154" lon="9.424522355730032"><ele>227.66666666666669</ele><time>2026-04-18T13:46:58.999Z</time></trkpt><trkpt lat="44.80133902706951" lon="9.424649840223086"><ele>227.0</ele><time>2026-04-18T13:46:59.999Z</time></trkpt><trkpt lat="44.80152247199503" lon="9.424777448998816"><ele>226.0</ele><time>2026-04-18T13:47:00.999Z</time></trkpt><trkpt lat="44.80169903786322" lon="9.424903762881549"><ele>225.0</ele><time>2026-04-18T13:47:02Z</time></trkpt><trkpt lat="44.80187821202887" lon="9.425029394293357"><ele>224.0</ele><time>2026-04-18T13:47:03Z</time></trkpt><trkpt lat="44.80205676658821" lon="9.425155706089866"><ele>224.66666666666669</ele><time>2026-04-18T13:47:04Z</time></trkpt><trkpt lat="44.80223495035723" lon="9.42528131702115"><ele>225.33333333333331</ele><time>2026-04-18T13:47:05Z</time></trkpt><trkpt lat="44.80240862069062" lon="9.425409329474391"><ele>226.0</ele><time>2026-04-18T13:47:06Z</time></trkpt><trkpt lat="44.80258561906489" lon="9.425542267711352"><ele>226.33333333333331</ele><time>2026-04-18T13:47:07Z</time></trkpt><trkpt lat="44.80275755047699" lon="9.42568638614557"><ele>226.66666666666669</ele><time>2026-04-18T13:47:08Z</time></trkpt><trkpt lat="44.80292647119097" lon="9.42584118324223"><ele>227.0</ele><time>2026-04-18T13:47:09Z</time></trkpt><trkpt lat="44.803087975505136" lon="9.426006143499846"><ele>227.0</ele><time>2026-04-18T13:47:10Z</time></trkpt><trkpt lat="44.80324543180372" lon="9.426178101732107"><ele>227.0</ele><time>2026-04-18T13:47:11Z</time></trkpt><trkpt lat="44.803404575438975" lon="9.426357018477155"><ele>227.0</ele><time>2026-04-18T13:47:12Z</time></trkpt><trkpt lat="44.80355749369448" lon="9.426549565566397"><ele>226.66666666666669</ele><time>2026-04-18T13:47:13Z</time></trkpt><trkpt lat="44.80370440744064" lon="9.426742251624876"><ele>226.33333333333331</ele><time>2026-04-18T13:47:14Z</time></trkpt><trkpt lat="44.803854058431405" lon="9.426944059021036"><ele>226.0</ele><time>2026-04-18T13:47:15Z</time></trkpt><trkpt lat="44.804014656742375" lon="9.42715096087953"><ele>226.0</ele><time>2026-04-18T13:47:16Z</time></trkpt><trkpt lat="44.80417465986216" lon="9.427355850483893"><ele>226.0</ele><time>2026-04-18T13:47:17Z</time></trkpt><trkpt lat="44.804342355226616" lon="9.427569278335055"><ele>226.0</ele><time>2026-04-18T13:47:18Z</time></trkpt><trkpt lat="44.80451972062629" lon="9.427793079239722"><ele>226.0</ele><time>2026-04-18T13:47:19.001Z</time></trkpt><trkpt lat="44.80468797053695" lon="9.42802160314231"><ele>226.0</ele><time>2026-04-18T13:47:20.001Z</time></trkpt><trkpt lat="44.80486040790325" lon="9.428246616839822"><ele>226.0</ele><time>2026-04-18T13:47:21.001Z</time></trkpt><trkpt lat="44.805036545701356" lon="9.42847199238633"><ele>226.0</ele><time>2026-04-18T13:47:22.001Z</time></trkpt><trkpt lat="44.805210904103795" lon="9.428696432599393"><ele>226.0</ele><time>2026-04-18T13:47:23.001Z</time></trkpt><trkpt lat="44.80538590575791" lon="9.428928202231159"><ele>226.0</ele><time>2026-04-18T13:47:24.001Z</time></trkpt><trkpt lat="44.80556112380864" lon="9.429141698499093"><ele>226.0</ele><time>2026-04-18T13:47:25.001Z</time></trkpt><trkpt lat="44.8057201794077" lon="9.429355929307686"><ele>226.0</ele><time>2026-04-18T13:47:26.001Z</time></trkpt><trkpt lat="44.80588144009857" lon="9.429568595594308"><ele>226.0</ele><time>2026-04-18T13:47:27.001Z</time></trkpt><trkpt lat="44.80603424067096" lon="9.429784439234316"><ele>227.0</ele><time>2026-04-18T13:47:28.001Z</time></trkpt><trkpt lat="44.80617800762854" lon="9.430007946461807"><ele>228.0</ele><time>2026-04-18T13:47:29.001Z</time></trkpt><trkpt lat="44.806321401502295" lon="9.430230775944016"><ele>229.0</ele><time>2026-04-18T13:47:30.001Z</time></trkpt><trkpt lat="44.80646293088816" lon="9.430453442086705"><ele>229.0</ele><time>2026-04-18T13:47:31.001Z</time></trkpt><trkpt lat="44.80659293823946" lon="9.430684241222727"><ele>229.0</ele><time>2026-04-18T13:47:32.001Z</time></trkpt><trkpt lat="44.80671199299827" lon="9.430926005642377"><ele>229.0</ele><time>2026-04-18T13:47:33.001Z</time></trkpt><trkpt lat="44.806823336898525" lon="9.431178910990447"><ele>230.66666666666666</ele><time>2026-04-18T13:47:34.001Z</time></trkpt><trkpt lat="44.806939028314645" lon="9.431443226627815"><ele>232.33333333333331</ele><time>2026-04-18T13:47:35.001Z</time></trkpt><trkpt lat="44.807054651587876" lon="9.431707633509284"><ele>234.0</ele><time>2026-04-18T13:47:36.001Z</time></trkpt><trkpt lat="44.80717077653653" lon="9.431969172845255"><ele>231.0</ele><time>2026-04-18T13:47:37.001Z</time></trkpt><trkpt lat="44.80727972356407" lon="9.432223081775332"><ele>228.0</ele><time>2026-04-18T13:47:38.001Z</time></trkpt><trkpt lat="44.807383832119825" lon="9.432487035987746"><ele>225.0</ele><time>2026-04-18T13:47:39.001Z</time></trkpt><trkpt lat="44.807477398773216" lon="9.432761676180732"><ele>223.66666666666669</ele><time>2026-04-18T13:47:40.001Z</time></trkpt><trkpt lat="44.80756863361318" lon="9.43303198647039"><ele>222.33333333333334</ele><time>2026-04-18T13:47:41.001Z</time></trkpt><trkpt lat="44.80766278857328" lon="9.433305486623002"><ele>221.0</ele><time>2026-04-18T13:47:42.001Z</time></trkpt><trkpt lat="44.80775497813004" lon="9.433572294221175"><ele>221.0</ele><time>2026-04-18T13:47:43.001Z</time></trkpt><trkpt lat="44.80784645545605" lon="9.433837895712976"><ele>221.0</ele><time>2026-04-18T13:47:44.001Z</time></trkpt><trkpt lat="44.80793749861925" lon="9.434098372114411"><ele>221.0</ele><time>2026-04-18T13:47:45.001Z</time></trkpt><trkpt lat="44.808030282623704" lon="9.434362274368816"><ele>219.5</ele><time>2026-04-18T13:47:46.002Z</time></trkpt><trkpt lat="44.808129544102584" lon="9.434646701108932"><ele>218.0</ele><time>2026-04-18T13:47:47.002Z</time></trkpt><trkpt lat="44.808241714727906" lon="9.434955584555906"><ele>218.0</ele><time>2026-04-18T13:47:48.002Z</time></trkpt><trkpt lat="44.8083540332792" lon="9.435266722067034"><ele>218.0</ele><time>2026-04-18T13:47:49.002Z</time></trkpt><trkpt lat="44.80845979920085" lon="9.43557617634329"><ele>217.5</ele><time>2026-04-18T13:47:50.002Z</time></trkpt><trkpt lat="44.80856349237285" lon="9.435879303435327"><ele>217.0</ele><time>2026-04-18T13:47:51.002Z</time></trkpt><trkpt lat="44.80866275200922" lon="9.436170915715403"><ele>218.66666666666666</ele><time>2026-04-18T13:47:52.002Z</time></trkpt><trkpt lat="44.808758917054156" lon="9.436449742879024"><ele>220.33333333333331</ele><time>2026-04-18T13:47:53.002Z</time></trkpt><trkpt lat="44.80885091809987" lon="9.436715038125717"><ele>222.0</ele><time>2026-04-18T13:47:54.002Z</time></trkpt><trkpt lat="44.808946111796246" lon="9.436971607409536"><ele>222.0</ele><time>2026-04-18T13:47:55.002Z</time></trkpt><trkpt lat="44.80906065940951" lon="9.43722058970547"><ele>222.0</ele><time>2026-04-18T13:47:56.002Z</time></trkpt><trkpt lat="44.80919644204029" lon="9.437462844525845"><ele>222.0</ele><time>2026-04-18T13:47:57.002Z</time></trkpt><trkpt lat="44.809354978486255" lon="9.437689254800887"><ele>222.0</ele><time>2026-04-18T13:47:58.002Z</time></trkpt><trkpt lat="44.809512612091034" lon="9.437911276532107"><ele>222.0</ele><time>2026-04-18T13:47:59.002Z</time></trkpt><trkpt lat="44.809665311229935" lon="9.438139587186374"><ele>222.0</ele><time>2026-04-18T13:48:00.002Z</time></trkpt><trkpt lat="44.80980871632149" lon="9.43836650438739"><ele>221.66666666666669</ele><time>2026-04-18T13:48:01.002Z</time></trkpt><trkpt lat="44.80995405113344" lon="9.438585809111958"><ele>221.33333333333334</ele><time>2026-04-18T13:48:02.002Z</time></trkpt><trkpt lat="44.81009970008698" lon="9.43880120692152"><ele>221.0</ele><time>2026-04-18T13:48:03.002Z</time></trkpt><trkpt lat="44.81024347381489" lon="9.439018183891086"><ele>221.0</ele><time>2026-04-18T13:48:04.002Z</time></trkpt><trkpt lat="44.81039037429045" lon="9.439234093391907"><ele>221.0</ele><time>2026-04-18T13:48:05.002Z</time></trkpt><trkpt lat="44.81053396801284" lon="9.439457200711194"><ele>221.0</ele><time>2026-04-18T13:48:06.002Z</time></trkpt><trkpt lat="44.81065934306743" lon="9.439695763880161"><ele>222.33333333333334</ele><time>2026-04-18T13:48:07.002Z</time></trkpt><trkpt lat="44.81077357192828" lon="9.43995348513454"><ele>223.66666666666669</ele><time>2026-04-18T13:48:08.002Z</time></trkpt><trkpt lat="44.810877078062525" lon="9.440220228403758"><ele>225.0</ele><time>2026-04-18T13:48:09.002Z</time></trkpt><trkpt lat="44.81095616530401" lon="9.440493800209584"><ele>223.0</ele><time>2026-04-18T13:48:10.002Z</time></trkpt><trkpt lat="44.81101754433003" lon="9.440778728665675"><ele>221.0</ele><time>2026-04-18T13:48:11.002Z</time></trkpt><trkpt lat="44.81106362277937" lon="9.441069469753993"><ele>219.0</ele><time>2026-04-18T13:48:12.002Z</time></trkpt><trkpt lat="44.81109410743993" lon="9.441360886827376"><ele>219.0</ele><time>2026-04-18T13:48:13.002Z</time></trkpt><trkpt lat="44.81112063780761" lon="9.4416542590202"><ele>219.0</ele><time>2026-04-18T13:48:14.002Z</time></trkpt><trkpt lat="44.81115211780733" lon="9.441943312643199"><ele>219.0</ele><time>2026-04-18T13:48:15.002Z</time></trkpt><trkpt lat="44.81118605495256" lon="9.442232696380424"><ele>219.66666666666669</ele><time>2026-04-18T13:48:16.002Z</time></trkpt><trkpt lat="44.811224043295034" lon="9.442527122987356"><ele>220.33333333333334</ele><time>2026-04-18T13:48:17.002Z</time></trkpt><trkpt lat="44.811263562932986" lon="9.442825127599372"><ele>221.0</ele><time>2026-04-18T13:48:18.003Z</time></trkpt><trkpt lat="44.81130329836933" lon="9.443126248086106"><ele>221.0</ele><time>2026-04-18T13:48:19.003Z</time></trkpt><trkpt lat="44.81134332554929" lon="9.443427224535132"><ele>221.0</ele><time>2026-04-18T13:48:20.003Z</time></trkpt><trkpt lat="44.81138264216308" lon="9.443730210507104"><ele>221.0</ele><time>2026-04-18T13:48:21.003Z</time></trkpt><trkpt lat="44.81142683730518" lon="9.444033853479773"><ele>221.33333333333334</ele><time>2026-04-18T13:48:22.003Z</time></trkpt><trkpt lat="44.811467939693486" lon="9.444334385585249"><ele>221.66666666666669</ele><time>2026-04-18T13:48:23.003Z</time></trkpt><trkpt lat="44.811505548566224" lon="9.444634835272677"><ele>222.0</ele><time>2026-04-18T13:48:24.003Z</time></trkpt><trkpt lat="44.81154148794289" lon="9.444932752888757"><ele>222.0</ele><time>2026-04-18T13:48:25.003Z</time></trkpt><trkpt lat="44.811575615864825" lon="9.445227405096638"><ele>222.0</ele><time>2026-04-18T13:48:26.003Z</time></trkpt><trkpt lat="44.81161261033175" lon="9.445519002189362"><ele>222.0</ele><time>2026-04-18T13:48:27.003Z</time></trkpt><trkpt lat="44.81165112181824" lon="9.445807834465738"><ele>221.66666666666669</ele><time>2026-04-18T13:48:28.003Z</time></trkpt><trkpt lat="44.8116872853991" lon="9.446099667411463"><ele>221.33333333333334</ele><time>2026-04-18T13:48:29.003Z</time></trkpt><trkpt lat="44.81172425089531" lon="9.446387967346427"><ele>221.0</ele><time>2026-04-18T13:48:30.003Z</time></trkpt><trkpt lat="44.81176223586701" lon="9.44667770578864"><ele>221.0</ele><time>2026-04-18T13:48:31.003Z</time></trkpt><trkpt lat="44.811796094496934" lon="9.446965608781111"><ele>221.0</ele><time>2026-04-18T13:48:32.003Z</time></trkpt><trkpt lat="44.81182873975011" lon="9.447236996682609"><ele>221.0</ele><time>2026-04-18T13:48:33.003Z</time></trkpt><trkpt lat="44.811861141846514" lon="9.447490413907957"><ele>218.66666666666669</ele><time>2026-04-18T13:48:34.003Z</time></trkpt><trkpt lat="44.81189386407065" lon="9.447737099350546"><ele>216.33333333333331</ele><time>2026-04-18T13:48:35.003Z</time></trkpt><trkpt lat="44.811922050041915" lon="9.447973076622388"><ele>214.0</ele><time>2026-04-18T13:48:36.003Z</time></trkpt><trkpt lat="44.81194930285054" lon="9.448195352816448"><ele>214.0</ele><time>2026-04-18T13:48:37.003Z</time></trkpt><trkpt lat="44.8119756383987" lon="9.448413422170283"><ele>214.0</ele><time>2026-04-18T13:48:38.003Z</time></trkpt><trkpt lat="44.81200219728188" lon="9.448625966973415"><ele>214.0</ele><time>2026-04-18T13:48:39.003Z</time></trkpt><trkpt lat="44.812029268622716" lon="9.448824856200943"><ele>214.25</ele><time>2026-04-18T13:48:40.003Z</time></trkpt><trkpt lat="44.81203918948611" lon="9.449018026122996"><ele>214.5</ele><time>2026-04-18T13:48:41.003Z</time></trkpt><trkpt lat="44.812062507886296" lon="9.449208496682527"><ele>214.75</ele><time>2026-04-18T13:48:42.003Z</time></trkpt><trkpt lat="44.812084384072215" lon="9.449394055618727"><ele>215.0</ele><time>2026-04-18T13:48:43.003Z</time></trkpt><trkpt lat="44.8121051793551" lon="9.449574816503215"><ele>216.0</ele><time>2026-04-18T13:48:44.003Z</time></trkpt><trkpt lat="44.81212536561262" lon="9.449750283970952"><ele>217.0</ele><time>2026-04-18T13:48:45.003Z</time></trkpt><trkpt lat="44.812145621173805" lon="9.449926352609682"><ele>218.0</ele><time>2026-04-18T13:48:46.003Z</time></trkpt><trkpt lat="44.81217646554197" lon="9.450088524628516"><ele>219.0</ele><time>2026-04-18T13:48:47.003Z</time></trkpt><trkpt lat="44.81219252424899" lon="9.450240291366159"><ele>219.0</ele><time>2026-04-18T13:48:48Z</time></trkpt><trkpt lat="44.812210875383705" lon="9.450385777901378"><ele>219.0</ele><time>2026-04-18T13:48:49Z</time></trkpt><trkpt lat="44.81222524153816" lon="9.450512717074067"><ele>219.0</ele><time>2026-04-18T13:48:50Z</time></trkpt><trkpt lat="44.81223793587039" lon="9.450619398790868"><ele>219.0</ele><time>2026-04-18T13:48:51Z</time></trkpt><trkpt lat="44.81225239804567" lon="9.450722391064325"><ele>219.0</ele><time>2026-04-18T13:48:52Z</time></trkpt><trkpt lat="44.81226821248139" lon="9.450817478972311"><ele>219.0</ele><time>2026-04-18T13:48:53Z</time></trkpt><trkpt lat="44.81227897343636" lon="9.45091169358915"><ele>219.0</ele><time>2026-04-18T13:48:54Z</time></trkpt><trkpt lat="44.81229932483357" lon="9.45108728721178"><ele>219.0</ele><time>2026-04-18T13:48:56Z</time></trkpt><trkpt lat="44.81231157945709" lon="9.451177030563326"><ele>219.0</ele><time>2026-04-18T13:48:57Z</time></trkpt><trkpt lat="44.81232867849735" lon="9.451318963453119"><ele>219.0</ele><time>2026-04-18T13:48:59Z</time></trkpt><trkpt lat="44.812334658798555" lon="9.451407326334897"><ele>219.0</ele><time>2026-04-18T13:49:01Z</time></trkpt><trkpt lat="44.812353967575966" lon="9.451518814607878"><ele>219.0</ele><time>2026-04-18T13:49:05Z</time></trkpt><trkpt lat="44.812368924364776" lon="9.451617729540132"><ele>219.6</ele><time>2026-04-18T13:49:15Z</time></trkpt><trkpt lat="44.812386330871384" lon="9.451731212991607"><ele>220.2</ele><time>2026-04-18T13:49:41.001Z</time></trkpt><trkpt lat="44.81240634964565" lon="9.45185906671245"><ele>220.79999999999998</ele><time>2026-04-18T13:49:44.001Z</time></trkpt><trkpt lat="44.812435226370006" lon="9.451977579278472"><ele>221.39999999999998</ele><time>2026-04-18T13:49:46.001Z</time></trkpt><trkpt lat="44.81247412200322" lon="9.452135415522239"><ele>222.0</ele><time>2026-04-18T13:49:48.001Z</time></trkpt><trkpt lat="44.812516200651956" lon="9.452277174537127"><ele>222.2</ele><time>2026-04-18T13:49:50.001Z</time></trkpt><trkpt lat="44.812570444794055" lon="9.452443621455847"><ele>222.39999999999998</ele><time>2026-04-18T13:49:52.001Z</time></trkpt><trkpt lat="44.812608487849886" lon="9.452548676218273"><ele>222.60000000000002</ele><time>2026-04-18T13:49:53.001Z</time></trkpt><trkpt lat="44.81265659942707" lon="9.452666473300148"><ele>222.8</ele><time>2026-04-18T13:49:54.002Z</time></trkpt><trkpt lat="44.812710271066436" lon="9.452790611107119"><ele>223.0</ele><time>2026-04-18T13:49:55.002Z</time></trkpt><trkpt lat="44.812767913794545" lon="9.452917086850409"><ele>220.75</ele><time>2026-04-18T13:49:56.002Z</time></trkpt><trkpt lat="44.81282606685246" lon="9.453044801089359"><ele>218.5</ele><time>2026-04-18T13:49:57.002Z</time></trkpt><trkpt lat="44.81288922887929" lon="9.453183543560147"><ele>216.25</ele><time>2026-04-18T13:49:58.002Z</time></trkpt><trkpt lat="44.812948836455305" lon="9.453320005768502"><ele>214.0</ele><time>2026-04-18T13:49:59.002Z</time></trkpt><trkpt lat="44.8130134678554" lon="9.453462355528616"><ele>214.0</ele><time>2026-04-18T13:50:00.002Z</time></trkpt><trkpt lat="44.81307705001458" lon="9.45360509207845"><ele>214.0</ele><time>2026-04-18T13:50:01.002Z</time></trkpt><trkpt lat="44.813142602624495" lon="9.453751765062666"><ele>214.0</ele><time>2026-04-18T13:50:02.002Z</time></trkpt><trkpt lat="44.813210809050815" lon="9.453902790695041"><ele>214.0</ele><time>2026-04-18T13:50:03.002Z</time></trkpt><trkpt lat="44.81328020579551" lon="9.454056552248915"><ele>214.25</ele><time>2026-04-18T13:50:04.002Z</time></trkpt><trkpt lat="44.81334774299554" lon="9.454209334009775"><ele>214.5</ele><time>2026-04-18T13:50:05.002Z</time></trkpt><trkpt lat="44.813413451339" lon="9.454358843237097"><ele>214.75</ele><time>2026-04-18T13:50:06.002Z</time></trkpt><trkpt lat="44.813478653318086" lon="9.454505532321942"><ele>215.0</ele><time>2026-04-18T13:50:07.002Z</time></trkpt><trkpt lat="44.8135443425179" lon="9.454651155378402"><ele>215.0</ele><time>2026-04-18T13:50:08.002Z</time></trkpt><trkpt lat="44.81360917525021" lon="9.45479464910168"><ele>215.0</ele><time>2026-04-18T13:50:09.002Z</time></trkpt><trkpt lat="44.81367429321396" lon="9.45493939337723"><ele>215.0</ele><time>2026-04-18T13:50:10.002Z</time></trkpt><trkpt lat="44.81373860836473" lon="9.455085215976153"><ele>215.0</ele><time>2026-04-18T13:50:11.002Z</time></trkpt><trkpt lat="44.8138037802762" lon="9.455233304796932"><ele>215.0</ele><time>2026-04-18T13:50:12.002Z</time></trkpt><trkpt lat="44.81387138654153" lon="9.455384076901563"><ele>215.0</ele><time>2026-04-18T13:50:13.002Z</time></trkpt><trkpt lat="44.813942296012414" lon="9.455539431047427"><ele>215.0</ele><time>2026-04-18T13:50:14.002Z</time></trkpt><trkpt lat="44.81402011658442" lon="9.455708547415679"><ele>215.0</ele><time>2026-04-18T13:50:15.002Z</time></trkpt><trkpt lat="44.81409668210275" lon="9.455880080770497"><ele>214.5</ele><time>2026-04-18T13:50:16.002Z</time></trkpt><trkpt lat="44.81416948817542" lon="9.456042942321726"><ele>214.0</ele><time>2026-04-18T13:50:17.002Z</time></trkpt><trkpt lat="44.81424770202213" lon="9.456216262766828"><ele>213.5</ele><time>2026-04-18T13:50:18.002Z</time></trkpt><trkpt lat="44.814326544463555" lon="9.45639188369654"><ele>213.0</ele><time>2026-04-18T13:50:19.002Z</time></trkpt><trkpt lat="44.814406580166086" lon="9.456567953304456"><ele>213.0</ele><time>2026-04-18T13:50:20.002Z</time></trkpt><trkpt lat="44.81448314567448" lon="9.45674085358747"><ele>213.0</ele><time>2026-04-18T13:50:21.002Z</time></trkpt><trkpt lat="44.81455306820913" lon="9.456901435015421"><ele>213.0</ele><time>2026-04-18T13:50:22.002Z</time></trkpt><trkpt lat="44.814621617842285" lon="9.457053089228452"><ele>213.0</ele><time>2026-04-18T13:50:23.002Z</time></trkpt><trkpt lat="44.81468605367636" lon="9.457194533762774"><ele>215.60000000000002</ele><time>2026-04-18T13:50:24.002Z</time></trkpt><trkpt lat="44.81474532737482" lon="9.457324937516157"><ele>218.20000000000002</ele><time>2026-04-18T13:50:25.002Z</time></trkpt><trkpt lat="44.81480163703124" lon="9.457449463936095"><ele>220.8</ele><time>2026-04-18T13:50:26.002Z</time></trkpt><trkpt lat="44.814860513119235" lon="9.457576264154877"><ele>223.4</ele><time>2026-04-18T13:50:27.003Z</time></trkpt><trkpt lat="44.81492052694062" lon="9.457704268767486"><ele>226.0</ele><time>2026-04-18T13:50:28.003Z</time></trkpt><trkpt lat="44.81498314335945" lon="9.457837481147253"><ele>225.0</ele><time>2026-04-18T13:50:29.003Z</time></trkpt><trkpt lat="44.81504088930775" lon="9.457972800790953"><ele>224.0</ele><time>2026-04-18T13:50:30.003Z</time></trkpt><trkpt lat="44.81510052086806" lon="9.458117166027067"><ele>223.0</ele><time>2026-04-18T13:50:31.003Z</time></trkpt><trkpt lat="44.81515996958154" lon="9.458273945735336"><ele>222.0</ele><time>2026-04-18T13:50:32.003Z</time></trkpt><trkpt lat="44.81521586121705" lon="9.458445702156716"><ele>222.0</ele><time>2026-04-18T13:50:33.003Z</time></trkpt><trkpt lat="44.81526734646203" lon="9.458629077628718"><ele>222.0</ele><time>2026-04-18T13:50:34.003Z</time></trkpt><trkpt lat="44.81531184325457" lon="9.458826010837258"><ele>222.0</ele><time>2026-04-18T13:50:35.003Z</time></trkpt><trkpt lat="44.815351297051336" lon="9.459035578419122"><ele>222.0</ele><time>2026-04-18T13:50:36.003Z</time></trkpt><trkpt lat="44.81538697115569" lon="9.459259672208134"><ele>222.0</ele><time>2026-04-18T13:50:37.003Z</time></trkpt><trkpt lat="44.81541226264731" lon="9.459499454343751"><ele>222.0</ele><time>2026-04-18T13:50:38.003Z</time></trkpt><trkpt lat="44.81542986081523" lon="9.45975217116846"><ele>222.0</ele><time>2026-04-18T13:50:39.003Z</time></trkpt><trkpt lat="44.8154487697665" lon="9.460014568508367"><ele>222.0</ele><time>2026-04-18T13:50:40.003Z</time></trkpt><trkpt lat="44.81547200147931" lon="9.460284578478682"><ele>222.0</ele><time>2026-04-18T13:50:41.003Z</time></trkpt><trkpt lat="44.81549447108477" lon="9.460561966408374"><ele>222.0</ele><time>2026-04-18T13:50:42.003Z</time></trkpt><trkpt lat="44.81551707705984" lon="9.460846012296406"><ele>222.66666666666669</ele><time>2026-04-18T13:50:43.003Z</time></trkpt><trkpt lat="44.81554692468255" lon="9.461135509107153"><ele>223.33333333333334</ele><time>2026-04-18T13:50:44.003Z</time></trkpt><trkpt lat="44.815581650320254" lon="9.461428754299142"><ele>224.0</ele><time>2026-04-18T13:50:45.003Z</time></trkpt><trkpt lat="44.81562155705207" lon="9.461716888932866"><ele>224.66666666666669</ele><time>2026-04-18T13:50:46.003Z</time></trkpt><trkpt lat="44.81566776736717" lon="9.46200733951715"><ele>225.33333333333331</ele><time>2026-04-18T13:50:47.003Z</time></trkpt><trkpt lat="44.81571509107401" lon="9.462297897515237"><ele>226.0</ele><time>2026-04-18T13:50:48.003Z</time></trkpt><trkpt lat="44.815763578871945" lon="9.462592061491137"><ele>227.0</ele><time>2026-04-18T13:50:49.003Z</time></trkpt><trkpt lat="44.81581033603997" lon="9.462898393939897"><ele>228.0</ele><time>2026-04-18T13:50:50.003Z</time></trkpt><trkpt lat="44.81585507270583" lon="9.463211027156614"><ele>229.0</ele><time>2026-04-18T13:50:51.003Z</time></trkpt><trkpt lat="44.815897302531695" lon="9.463528561872105"><ele>229.5</ele><time>2026-04-18T13:50:52.003Z</time></trkpt><trkpt lat="44.81594024365039" lon="9.463847592082058"><ele>230.0</ele><time>2026-04-18T13:50:53.003Z</time></trkpt><trkpt lat="44.81597559232922" lon="9.464166175589153"><ele>221.5</ele><time>2026-04-18T13:50:54Z</time></trkpt><trkpt lat="44.81600381210979" lon="9.464485491649535"><ele>213.0</ele><time>2026-04-18T13:50:55Z</time></trkpt><trkpt lat="44.81603517982479" lon="9.464803035201546"><ele>213.0</ele><time>2026-04-18T13:50:56Z</time></trkpt><trkpt lat="44.81607331088946" lon="9.465112859934562"><ele>213.0</ele><time>2026-04-18T13:50:57Z</time></trkpt><trkpt lat="44.81612674625591" lon="9.465410579222828"><ele>213.0</ele><time>2026-04-18T13:50:58Z</time></trkpt><trkpt lat="44.816205019396016" lon="9.46569495746107"><ele>215.0</ele><time>2026-04-18T13:50:59Z</time></trkpt><trkpt lat="44.81630456754378" lon="9.465963937439781"><ele>217.0</ele><time>2026-04-18T13:51:00Z</time></trkpt><trkpt lat="44.81642314364868" lon="9.466226774003093"><ele>219.0</ele><time>2026-04-18T13:51:01Z</time></trkpt><trkpt lat="44.81654190252382" lon="9.466490432668664"><ele>218.33333333333331</ele><time>2026-04-18T13:51:02Z</time></trkpt><trkpt lat="44.81665730626258" lon="9.46676040729302"><ele>217.66666666666666</ele><time>2026-04-18T13:51:03Z</time></trkpt><trkpt lat="44.81676257856732" lon="9.467030092752735"><ele>217.0</ele><time>2026-04-18T13:51:04Z</time></trkpt><trkpt lat="44.81685784246161" lon="9.467311313827668"><ele>217.0</ele><time>2026-04-18T13:51:05Z</time></trkpt><trkpt lat="44.81693616937646" lon="9.467596136092453"><ele>217.0</ele><time>2026-04-18T13:51:06Z</time></trkpt><trkpt lat="44.81700705644674" lon="9.467888087450524"><ele>217.0</ele><time>2026-04-18T13:51:07Z</time></trkpt><trkpt lat="44.81706192354494" lon="9.46818449403941"><ele>217.33333333333331</ele><time>2026-04-18T13:51:08Z</time></trkpt><trkpt lat="44.81711647406385" lon="9.468475024266832"><ele>217.66666666666669</ele><time>2026-04-18T13:51:09Z</time></trkpt><trkpt lat="44.81717794060399" lon="9.468764744819042"><ele>218.0</ele><time>2026-04-18T13:51:10Z</time></trkpt><trkpt lat="44.81723503077422" lon="9.469043145260843"><ele>218.66666666666669</ele><time>2026-04-18T13:51:11Z</time></trkpt><trkpt lat="44.81729011480441" lon="9.469321590754353"><ele>219.33333333333331</ele><time>2026-04-18T13:51:12Z</time></trkpt><trkpt lat="44.81734296063775" lon="9.46959682728245"><ele>220.0</ele><time>2026-04-18T13:51:13Z</time></trkpt><trkpt lat="44.81739538395864" lon="9.469867550143805"><ele>223.33333333333331</ele><time>2026-04-18T13:51:14Z</time></trkpt><trkpt lat="44.817444517489456" lon="9.470122635875361"><ele>226.66666666666669</ele><time>2026-04-18T13:51:15Z</time></trkpt><trkpt lat="44.81749018303136" lon="9.470361881562113"><ele>230.0</ele><time>2026-04-18T13:51:16Z</time></trkpt><trkpt lat="44.81753405206069" lon="9.470586869020366"><ele>230.33333333333334</ele><time>2026-04-18T13:51:17Z</time></trkpt><trkpt lat="44.81756239401739" lon="9.470812253796128"><ele>230.66666666666669</ele><time>2026-04-18T13:51:18Z</time></trkpt><trkpt lat="44.817564879178555" lon="9.471049017618403"><ele>231.0</ele><time>2026-04-18T13:51:19Z</time></trkpt><trkpt lat="44.817535525767596" lon="9.471280943155017"><ele>231.0</ele><time>2026-04-18T13:51:20Z</time></trkpt><trkpt lat="44.8174849434344" lon="9.47149645826324"><ele>231.0</ele><time>2026-04-18T13:51:21Z</time></trkpt><trkpt lat="44.817415350593635" lon="9.47170404686047"><ele>231.0</ele><time>2026-04-18T13:51:22Z</time></trkpt><trkpt lat="44.817321109000304" lon="9.47189293250988"><ele>231.0</ele><time>2026-04-18T13:51:23Z</time></trkpt><trkpt lat="44.817209400035324" lon="9.472054477061828"><ele>231.0</ele><time>2026-04-18T13:51:24Z</time></trkpt><trkpt lat="44.81709895119664" lon="9.472195341097517"><ele>231.0</ele><time>2026-04-18T13:51:25.001Z</time></trkpt><trkpt lat="44.81699265904835" lon="9.472327476509877"><ele>232.0</ele><time>2026-04-18T13:51:26.001Z</time></trkpt><trkpt lat="44.81689697170084" lon="9.47243610564108"><ele>233.0</ele><time>2026-04-18T13:51:27.001Z</time></trkpt><trkpt lat="44.81679829423629" lon="9.472514516044802"><ele>234.0</ele><time>2026-04-18T13:51:28.001Z</time></trkpt><trkpt lat="44.81669410557676" lon="9.472554166963086"><ele>235.0</ele><time>2026-04-18T13:51:29.001Z</time></trkpt><trkpt lat="44.81658716286078" lon="9.472571824868286"><ele>234.99999999999997</ele><time>2026-04-18T13:51:30.001Z</time></trkpt><trkpt lat="44.81650249327558" lon="9.472623362939476"><ele>235.0</ele><time>2026-04-18T13:51:31.001Z</time></trkpt><trkpt lat="44.81645155220197" lon="9.472723536929715"><ele>235.0</ele><time>2026-04-18T13:51:32.001Z</time></trkpt><trkpt lat="44.81643611439921" lon="9.472843577289416"><ele>235.0</ele><time>2026-04-18T13:51:33.001Z</time></trkpt><trkpt lat="44.81645823726065" lon="9.47295643370915"><ele>234.99999999999997</ele><time>2026-04-18T13:51:34.001Z</time></trkpt><trkpt lat="44.816510681017796" lon="9.473063855380868"><ele>235.0</ele><time>2026-04-18T13:51:35.001Z</time></trkpt><trkpt lat="44.81657972351006" lon="9.473169666082262"><ele>233.25</ele><time>2026-04-18T13:51:36.001Z</time></trkpt><trkpt lat="44.81662485969068" lon="9.473313768185168"><ele>231.5</ele><time>2026-04-18T13:51:37.001Z</time></trkpt><trkpt lat="44.81664307312483" lon="9.473490374982212"><ele>229.75</ele><time>2026-04-18T13:51:38.001Z</time></trkpt><trkpt lat="44.81663249779147" lon="9.473687975942415"><ele>228.0</ele><time>2026-04-18T13:51:39.001Z</time></trkpt><trkpt lat="44.81661546669001" lon="9.473907146625816"><ele>228.0</ele><time>2026-04-18T13:51:40.001Z</time></trkpt><trkpt lat="44.81660439083923" lon="9.474141055468815"><ele>228.0</ele><time>2026-04-18T13:51:41.001Z</time></trkpt><trkpt lat="44.816591219599424" lon="9.474389237822312"><ele>228.0</ele><time>2026-04-18T13:51:42.001Z</time></trkpt><trkpt lat="44.816584773932675" lon="9.474653115676801"><ele>227.0</ele><time>2026-04-18T13:51:43.001Z</time></trkpt><trkpt lat="44.81658528597092" lon="9.47492241061284"><ele>226.0</ele><time>2026-04-18T13:51:44.001Z</time></trkpt><trkpt lat="44.816587673219075" lon="9.475192921559577"><ele>225.0</ele><time>2026-04-18T13:51:45.001Z</time></trkpt><trkpt lat="44.81658993615636" lon="9.47547331182031"><ele>223.66666666666669</ele><time>2026-04-18T13:51:46.001Z</time></trkpt><trkpt lat="44.81659113632783" lon="9.475756517719535"><ele>222.33333333333334</ele><time>2026-04-18T13:51:47.001Z</time></trkpt><trkpt lat="44.81659304721474" lon="9.476044057196248"><ele>221.0</ele><time>2026-04-18T13:51:48.001Z</time></trkpt><trkpt lat="44.81659146599379" lon="9.476333900425118"><ele>219.33333333333334</ele><time>2026-04-18T13:51:49.001Z</time></trkpt><trkpt lat="44.81658936857686" lon="9.476620307287144"><ele>217.66666666666669</ele><time>2026-04-18T13:51:50.001Z</time></trkpt><trkpt lat="44.816587202874864" lon="9.476901290260892"><ele>216.0</ele><time>2026-04-18T13:51:51.001Z</time></trkpt><trkpt lat="44.81658645202211" lon="9.477183565981404"><ele>214.33333333333331</ele><time>2026-04-18T13:51:52.001Z</time></trkpt><trkpt lat="44.81658466630187" lon="9.477464778691607"><ele>212.66666666666666</ele><time>2026-04-18T13:51:53.001Z</time></trkpt><trkpt lat="44.816579549981455" lon="9.477749631551601"><ele>211.0</ele><time>2026-04-18T13:51:54.001Z</time></trkpt><trkpt lat="44.816577900586395" lon="9.478033518868093"><ele>210.66666666666666</ele><time>2026-04-18T13:51:55.001Z</time></trkpt><trkpt lat="44.81657881671839" lon="9.478307275807625"><ele>210.33333333333331</ele><time>2026-04-18T13:51:56.001Z</time></trkpt><trkpt lat="44.81658002526071" lon="9.478583974229155"><ele>210.0</ele><time>2026-04-18T13:51:57.001Z</time></trkpt><trkpt lat="44.81657606381579" lon="9.478858294981949"><ele>209.66666666666669</ele><time>2026-04-18T13:51:58.001Z</time></trkpt><trkpt lat="44.81658134179452" lon="9.479138562816054"><ele>209.33333333333334</ele><time>2026-04-18T13:51:59.001Z</time></trkpt><trkpt lat="44.816593980893046" lon="9.479418558824866"><ele>209.0</ele><time>2026-04-18T13:52:00.001Z</time></trkpt><trkpt lat="44.81661705399868" lon="9.479705282076896"><ele>208.33333333333334</ele><time>2026-04-18T13:52:01.001Z</time></trkpt><trkpt lat="44.81665362367759" lon="9.479989090063844"><ele>207.66666666666669</ele><time>2026-04-18T13:52:02.002Z</time></trkpt><trkpt lat="44.8166958892377" lon="9.480275135507034"><ele>207.0</ele><time>2026-04-18T13:52:03.002Z</time></trkpt><trkpt lat="44.8167499800954" lon="9.480564766296023"><ele>206.0</ele><time>2026-04-18T13:52:04.002Z</time></trkpt><trkpt lat="44.81681483145926" lon="9.480854469577423"><ele>205.0</ele><time>2026-04-18T13:52:05.002Z</time></trkpt><trkpt lat="44.81689180092472" lon="9.48113819365856"><ele>204.0</ele><time>2026-04-18T13:52:06.002Z</time></trkpt><trkpt lat="44.8169783434999" lon="9.481420411526813"><ele>204.0</ele><time>2026-04-18T13:52:07.002Z</time></trkpt><trkpt lat="44.81707293658303" lon="9.481699291302444"><ele>204.0</ele><time>2026-04-18T13:52:08.002Z</time></trkpt><trkpt lat="44.81717986398936" lon="9.481981223096811"><ele>204.0</ele><time>2026-04-18T13:52:09.002Z</time></trkpt><trkpt lat="44.817289581963195" lon="9.482259847576728"><ele>209.5</ele><time>2026-04-18T13:52:10.002Z</time></trkpt><trkpt lat="44.81739731420813" lon="9.482542140231162"><ele>215.0</ele><time>2026-04-18T13:52:11.002Z</time></trkpt><trkpt lat="44.81750716197577" lon="9.482829088513263"><ele>216.5</ele><time>2026-04-18T13:52:12.002Z</time></trkpt><trkpt lat="44.81761755542605" lon="9.483125119025255"><ele>218.0</ele><time>2026-04-18T13:52:13.015Z</time></trkpt><trkpt lat="44.8177261798087" lon="9.48342169547155"><ele>218.0</ele><time>2026-04-18T13:52:14.013Z</time></trkpt><trkpt lat="44.81783641216892" lon="9.483724456919424"><ele>218.0</ele><time>2026-04-18T13:52:15.016Z</time></trkpt><trkpt lat="44.8179494465587" lon="9.48402901619411"><ele>217.5</ele><time>2026-04-18T13:52:16.013Z</time></trkpt><trkpt lat="44.818064592137226" lon="9.484338470035901"><ele>217.0</ele><time>2026-04-18T13:52:17.017Z</time></trkpt><trkpt lat="44.8181789690853" lon="9.48464863657979"><ele>217.0</ele><time>2026-04-18T13:52:18.012Z</time></trkpt><trkpt lat="44.81829465891176" lon="9.484960173282547"><ele>217.0</ele><time>2026-04-18T13:52:19.014Z</time></trkpt><trkpt lat="44.81863422323467" lon="9.485933091500295"><ele>208.0</ele><time>2026-04-18T13:52:23.002Z</time></trkpt><trkpt lat="44.81868589152612" lon="9.486229064237289"><ele>199.0</ele><time>2026-04-18T13:52:24.002Z</time></trkpt><trkpt lat="44.81873724191376" lon="9.486550141844234"><ele>198.66666666666666</ele><time>2026-04-18T13:52:25.002Z</time></trkpt><trkpt lat="44.81875783652434" lon="9.486845444256092"><ele>198.33333333333331</ele><time>2026-04-18T13:52:26.002Z</time></trkpt><trkpt lat="44.81876817984344" lon="9.487157651384749"><ele>198.0</ele><time>2026-04-18T13:52:27.002Z</time></trkpt><trkpt lat="44.81878088684837" lon="9.487504961349721"><ele>197.0</ele><time>2026-04-18T13:52:28.002Z</time></trkpt><trkpt lat="44.818780974494864" lon="9.48782499872443"><ele>196.0</ele><time>2026-04-18T13:52:29.002Z</time></trkpt><trkpt lat="44.81878340238678" lon="9.488147943958607"><ele>195.5</ele><time>2026-04-18T13:52:30.002Z</time></trkpt><trkpt lat="44.81878625448593" lon="9.48847318047336"><ele>195.0</ele><time>2026-04-18T13:52:31.002Z</time></trkpt><trkpt lat="44.818789312196444" lon="9.488793212067147"><ele>195.0</ele><time>2026-04-18T13:52:32.002Z</time></trkpt><trkpt lat="44.81879781151368" lon="9.489114291100535"><ele>195.0</ele><time>2026-04-18T13:52:33.002Z</time></trkpt><trkpt lat="44.81880835097991" lon="9.489438554636834"><ele>195.0</ele><time>2026-04-18T13:52:34.002Z</time></trkpt><trkpt lat="44.81881928180266" lon="9.489756670509962"><ele>195.0</ele><time>2026-04-18T13:52:35.002Z</time></trkpt><trkpt lat="44.81882775189265" lon="9.490069629562207"><ele>195.0</ele><time>2026-04-18T13:52:36.002Z</time></trkpt><trkpt lat="44.81883690185296" lon="9.490380831236802"><ele>195.0</ele><time>2026-04-18T13:52:37.002Z</time></trkpt><trkpt lat="44.81884532952149" lon="9.49068581162886"><ele>195.0</ele><time>2026-04-18T13:52:38.003Z</time></trkpt><trkpt lat="44.81885269679919" lon="9.49099007408382"><ele>195.0</ele><time>2026-04-18T13:52:39.003Z</time></trkpt><trkpt lat="44.818859428781636" lon="9.491295228337417"><ele>194.66666666666669</ele><time>2026-04-18T13:52:40.003Z</time></trkpt><trkpt lat="44.818868105231466" lon="9.49160053990838"><ele>194.33333333333334</ele><time>2026-04-18T13:52:41.003Z</time></trkpt><trkpt lat="44.81887673964821" lon="9.491909815685924"><ele>194.0</ele><time>2026-04-18T13:52:42.003Z</time></trkpt><trkpt lat="44.81889302726665" lon="9.49221956128076"><ele>194.0</ele><time>2026-04-18T13:52:43.003Z</time></trkpt><trkpt lat="44.818915955683266" lon="9.492529682791346"><ele>194.0</ele><time>2026-04-18T13:52:44.003Z</time></trkpt><trkpt lat="44.8189460281412" lon="9.492840386655946"><ele>194.0</ele><time>2026-04-18T13:52:45.003Z</time></trkpt><trkpt lat="44.81898329308612" lon="9.493147554388374"><ele>194.0</ele><time>2026-04-18T13:52:46.003Z</time></trkpt><trkpt lat="44.81902552731847" lon="9.493451362250653"><ele>194.0</ele><time>2026-04-18T13:52:47.003Z</time></trkpt><trkpt lat="44.81907508319048" lon="9.493753004277556"><ele>194.0</ele><time>2026-04-18T13:52:48.003Z</time></trkpt><trkpt lat="44.819136285557406" lon="9.494055190203172"><ele>195.33333333333334</ele><time>2026-04-18T13:52:49.003Z</time></trkpt><trkpt lat="44.8192077218753" lon="9.494354602563188"><ele>196.66666666666669</ele><time>2026-04-18T13:52:50.003Z</time></trkpt><trkpt lat="44.819287723737645" lon="9.494651051732886"><ele>198.0</ele><time>2026-04-18T13:52:51.003Z</time></trkpt><trkpt lat="44.819375475012976" lon="9.494947984909029"><ele>195.5</ele><time>2026-04-18T13:52:52.003Z</time></trkpt><trkpt lat="44.81946545117077" lon="9.495241426115246"><ele>193.0</ele><time>2026-04-18T13:52:53.003Z</time></trkpt><trkpt lat="44.81955099976289" lon="9.495536488105545"><ele>193.0</ele><time>2026-04-18T13:52:54.003Z</time></trkpt><trkpt lat="44.819633848664274" lon="9.495834308333134"><ele>193.0</ele><time>2026-04-18T13:52:55.003Z</time></trkpt><trkpt lat="44.81972094540138" lon="9.496131650618127"><ele>195.5</ele><time>2026-04-18T13:52:56.003Z</time></trkpt><trkpt lat="44.81981440793095" lon="9.496422740507427"><ele>198.0</ele><time>2026-04-18T13:52:57.003Z</time></trkpt><trkpt lat="44.81990448859652" lon="9.49672362259034"><ele>198.0</ele><time>2026-04-18T13:52:58.003Z</time></trkpt><trkpt lat="44.819999294149596" lon="9.497020250201347"><ele>198.0</ele><time>2026-04-18T13:52:59.003Z</time></trkpt><trkpt lat="44.820093618416585" lon="9.497308141922543"><ele>194.5</ele><time>2026-04-18T13:52:59.997Z</time></trkpt><trkpt lat="44.820190353696084" lon="9.49759373997876"><ele>191.0</ele><time>2026-04-18T13:53:00.997Z</time></trkpt><trkpt lat="44.820289338888344" lon="9.497886189444865"><ele>191.5</ele><time>2026-04-18T13:53:01.997Z</time></trkpt><trkpt lat="44.820386365620834" lon="9.498178337157064"><ele>192.0</ele><time>2026-04-18T13:53:02.998Z</time></trkpt><trkpt lat="44.82047953105657" lon="9.49847483121777"><ele>192.5</ele><time>2026-04-18T13:53:03.998Z</time></trkpt><trkpt lat="44.82055963697608" lon="9.49877388352159"><ele>193.0</ele><time>2026-04-18T13:53:04.998Z</time></trkpt><trkpt lat="44.82063337451769" lon="9.499073907203625"><ele>193.0</ele><time>2026-04-18T13:53:05.998Z</time></trkpt><trkpt lat="44.82070968237822" lon="9.499374941676919"><ele>193.0</ele><time>2026-04-18T13:53:06.998Z</time></trkpt><trkpt lat="44.8207860045591" lon="9.499675594641413"><ele>193.0</ele><time>2026-04-18T13:53:07.998Z</time></trkpt><trkpt lat="44.82086593245801" lon="9.499971516919702"><ele>193.0</ele><time>2026-04-18T13:53:08.998Z</time></trkpt><trkpt lat="44.82095872341273" lon="9.500262136407729"><ele>191.66666666666666</ele><time>2026-04-18T13:53:09.998Z</time></trkpt><trkpt lat="44.82106220940531" lon="9.500540220375031"><ele>190.33333333333331</ele><time>2026-04-18T13:53:10.998Z</time></trkpt><trkpt lat="44.82117621122694" lon="9.50081157760791"><ele>189.0</ele><time>2026-04-18T13:53:11.998Z</time></trkpt><trkpt lat="44.821297378328865" lon="9.501073302909417"><ele>190.0</ele><time>2026-04-18T13:53:12.998Z</time></trkpt><trkpt lat="44.82142128057012" lon="9.501316975263464"><ele>191.0</ele><time>2026-04-18T13:53:13.998Z</time></trkpt><trkpt lat="44.82154445325283" lon="9.501534760381194"><ele>192.0</ele><time>2026-04-18T13:53:14.999Z</time></trkpt><trkpt lat="44.82166689535765" lon="9.501724031405981"><ele>192.0</ele><time>2026-04-18T13:53:15.999Z</time></trkpt><trkpt lat="44.8218044579512" lon="9.501905708738617"><ele>192.0</ele><time>2026-04-18T13:53:16.999Z</time></trkpt><trkpt lat="44.82194953591062" lon="9.502079547627723"><ele>192.0</ele><time>2026-04-18T13:53:17.999Z</time></trkpt><trkpt lat="44.82210833247988" lon="9.50225512006863"><ele>190.33333333333334</ele><time>2026-04-18T13:53:18.999Z</time></trkpt><trkpt lat="44.82227639055063" lon="9.50242872375992"><ele>188.66666666666669</ele><time>2026-04-18T13:53:19.999Z</time></trkpt><trkpt lat="44.822450189154935" lon="9.502608511404057"><ele>187.0</ele><time>2026-04-18T13:53:20.999Z</time></trkpt><trkpt lat="44.8226288502247" lon="9.502798345659782"><ele>188.0</ele><time>2026-04-18T13:53:21.999Z</time></trkpt><trkpt lat="44.8228069620606" lon="9.502993567201841"><ele>189.0</ele><time>2026-04-18T13:53:22.999Z</time></trkpt><trkpt lat="44.822982508695404" lon="9.503194229080522"><ele>189.0</ele><time>2026-04-18T13:53:23.999Z</time></trkpt><trkpt lat="44.82315454214187" lon="9.503401614318642"><ele>189.0</ele><time>2026-04-18T13:53:24.999Z</time></trkpt><trkpt lat="44.82332392304494" lon="9.503620071311511"><ele>188.5</ele><time>2026-04-18T13:53:25.999Z</time></trkpt><trkpt lat="44.823489335379975" lon="9.503849852792479"><ele>188.0</ele><time>2026-04-18T13:53:27Z</time></trkpt><trkpt lat="44.823647722617565" lon="9.504090929139611"><ele>188.0</ele><time>2026-04-18T13:53:28Z</time></trkpt><trkpt lat="44.82380366067147" lon="9.504345109070142"><ele>188.0</ele><time>2026-04-18T13:53:29Z</time></trkpt><trkpt lat="44.823954088587776" lon="9.504614338430398"><ele>188.5</ele><time>2026-04-18T13:53:30Z</time></trkpt><trkpt lat="44.824097456776876" lon="9.504893225694444"><ele>189.0</ele><time>2026-04-18T13:53:31Z</time></trkpt><trkpt lat="44.82423831750313" lon="9.50518546148353"><ele>188.5</ele><time>2026-04-18T13:53:32Z</time></trkpt><trkpt lat="44.82437875407251" lon="9.505488462981544"><ele>188.0</ele><time>2026-04-18T13:53:33Z</time></trkpt><trkpt lat="44.82451557311825" lon="9.505794981653674"><ele>188.0</ele><time>2026-04-18T13:53:34Z</time></trkpt><trkpt lat="44.824652536021794" lon="9.506098330639773"><ele>188.0</ele><time>2026-04-18T13:53:35Z</time></trkpt><trkpt lat="44.82479508803639" lon="9.506401967974641"><ele>188.5</ele><time>2026-04-18T13:53:36Z</time></trkpt><trkpt lat="44.824943682357166" lon="9.506714319853705"><ele>189.0</ele><time>2026-04-18T13:53:37Z</time></trkpt><trkpt lat="44.82508828982515" lon="9.50702492482045"><ele>188.5</ele><time>2026-04-18T13:53:38Z</time></trkpt><trkpt lat="44.82523450471504" lon="9.507342119461265"><ele>188.0</ele><time>2026-04-18T13:53:39Z</time></trkpt><trkpt lat="44.825382793275914" lon="9.507661966603674"><ele>190.5</ele><time>2026-04-18T13:53:40Z</time></trkpt><trkpt lat="44.82553491898168" lon="9.507979504981968"><ele>193.0</ele><time>2026-04-18T13:53:41Z</time></trkpt><trkpt lat="44.82568454581284" lon="9.508286143964769"><ele>193.0</ele><time>2026-04-18T13:53:42Z</time></trkpt><trkpt lat="44.825834518158835" lon="9.508592852779339"><ele>193.0</ele><time>2026-04-18T13:53:43Z</time></trkpt><trkpt lat="44.8259858311312" lon="9.508893552705915"><ele>190.0</ele><time>2026-04-18T13:53:44Z</time></trkpt><trkpt lat="44.82613665964192" lon="9.509199759650329"><ele>187.0</ele><time>2026-04-18T13:53:45Z</time></trkpt><trkpt lat="44.82628766879395" lon="9.509507923750114"><ele>187.5</ele><time>2026-04-18T13:53:46Z</time></trkpt><trkpt lat="44.826441441782954" lon="9.509814525845462"><ele>188.0</ele><time>2026-04-18T13:53:47.001Z</time></trkpt><trkpt lat="44.82660021900615" lon="9.510115122107733"><ele>188.0</ele><time>2026-04-18T13:53:48.001Z</time></trkpt><trkpt lat="44.826766400064855" lon="9.510406989528049"><ele>188.0</ele><time>2026-04-18T13:53:49.001Z</time></trkpt><trkpt lat="44.82693816780025" lon="9.510681271623188"><ele>188.5</ele><time>2026-04-18T13:53:50.001Z</time></trkpt><trkpt lat="44.82711443500972" lon="9.51094709649196"><ele>189.0</ele><time>2026-04-18T13:53:51.001Z</time></trkpt><trkpt lat="44.827288084898804" lon="9.511214867475722"><ele>195.0</ele><time>2026-04-18T13:53:52.001Z</time></trkpt><trkpt lat="44.827457870239556" lon="9.511491691239003"><ele>201.0</ele><time>2026-04-18T13:53:53.001Z</time></trkpt><trkpt lat="44.827613488475926" lon="9.511773360576187"><ele>196.0</ele><time>2026-04-18T13:53:54.001Z</time></trkpt><trkpt lat="44.827751312079776" lon="9.512059832519418"><ele>191.0</ele><time>2026-04-18T13:53:55.001Z</time></trkpt><trkpt lat="44.827873449465606" lon="9.512356807952546"><ele>191.0</ele><time>2026-04-18T13:53:56.001Z</time></trkpt><trkpt lat="44.82798195474904" lon="9.512656975204944"><ele>191.0</ele><time>2026-04-18T13:53:57.001Z</time></trkpt><trkpt lat="44.82808320585383" lon="9.5129631021662"><ele>196.5</ele><time>2026-04-18T13:53:58.001Z</time></trkpt><trkpt lat="44.82818991710269" lon="9.513263367807493"><ele>202.0</ele><time>2026-04-18T13:53:59.001Z</time></trkpt><trkpt lat="44.82831292906766" lon="9.513541324846477"><ele>199.66666666666666</ele><time>2026-04-18T13:54:00.001Z</time></trkpt><trkpt lat="44.828446735938975" lon="9.513790026998462"><ele>197.33333333333331</ele><time>2026-04-18T13:54:01.001Z</time></trkpt><trkpt lat="44.82859208678456" lon="9.51400794166653"><ele>195.0</ele><time>2026-04-18T13:54:02.001Z</time></trkpt><trkpt lat="44.82874867755098" lon="9.51421412600554"><ele>195.0</ele><time>2026-04-18T13:54:03.001Z</time></trkpt><trkpt lat="44.82891803081467" lon="9.514397288064668"><ele>195.0</ele><time>2026-04-18T13:54:04.001Z</time></trkpt><trkpt lat="44.829084415262315" lon="9.514593504441907"><ele>195.0</ele><time>2026-04-18T13:54:05.001Z</time></trkpt><trkpt lat="44.829286306359826" lon="9.514741096966507"><ele>194.66666666666669</ele><time>2026-04-18T13:54:06.001Z</time></trkpt><trkpt lat="44.82947099557456" lon="9.514913365079455"><ele>194.33333333333334</ele><time>2026-04-18T13:54:07.001Z</time></trkpt><trkpt lat="44.82965320916618" lon="9.515082630375337"><ele>194.0</ele><time>2026-04-18T13:54:08.001Z</time></trkpt><trkpt lat="44.829820246243955" lon="9.515236097117374"><ele>194.0</ele><time>2026-04-18T13:54:09.001Z</time></trkpt><trkpt lat="44.82996364941752" lon="9.515368786192969"><ele>194.0</ele><time>2026-04-18T13:54:10.001Z</time></trkpt><trkpt lat="44.83007392111333" lon="9.51548030235364"><ele>194.0</ele><time>2026-04-18T13:54:11.001Z</time></trkpt><trkpt lat="44.83017033150126" lon="9.515591817243603"><ele>194.0</ele><time>2026-04-18T13:54:12.001Z</time></trkpt><trkpt lat="44.83025490186001" lon="9.515712053442964"><ele>194.50000000000003</ele><time>2026-04-18T13:54:13.001Z</time></trkpt><trkpt lat="44.830312386338164" lon="9.515822330298063"><ele>195.0</ele><time>2026-04-18T13:54:14.001Z</time></trkpt><trkpt lat="44.83033878289112" lon="9.515921044288364"><ele>195.5</ele><time>2026-04-18T13:54:15.001Z</time></trkpt><trkpt lat="44.83033134081961" lon="9.51601784954701"><ele>196.0</ele><time>2026-04-18T13:54:16.002Z</time></trkpt><trkpt lat="44.8303058431747" lon="9.51613318765619"><ele>196.50000000000003</ele><time>2026-04-18T13:54:17.002Z</time></trkpt><trkpt lat="44.830332696991476" lon="9.516217369576097"><ele>197.0</ele><time>2026-04-18T13:54:18.002Z</time></trkpt><trkpt lat="44.830392969855865" lon="9.516268397259463"><ele>198.6</ele><time>2026-04-18T13:54:19.002Z</time></trkpt><trkpt lat="44.830482878930916" lon="9.51626960210384"><ele>200.2</ele><time>2026-04-18T13:54:20.002Z</time></trkpt><trkpt lat="44.830572734079375" lon="9.516250261277305"><ele>201.8</ele><time>2026-04-18T13:54:21.002Z</time></trkpt><trkpt lat="44.8306564980857" lon="9.516286577053908"><ele>203.4</ele><time>2026-04-18T13:54:22.002Z</time></trkpt><trkpt lat="44.83072666561366" lon="9.51638337016293"><ele>205.0</ele><time>2026-04-18T13:54:23.002Z</time></trkpt><trkpt lat="44.83076619763589" lon="9.516536278862208"><ele>205.0</ele><time>2026-04-18T13:54:24.002Z</time></trkpt><trkpt lat="44.830788197677094" lon="9.516712695169904"><ele>205.0</ele><time>2026-04-18T13:54:25.002Z</time></trkpt><trkpt lat="44.830810253272084" lon="9.516922279859996"><ele>205.0</ele><time>2026-04-18T13:54:26.002Z</time></trkpt><trkpt lat="44.83083197289456" lon="9.517123490248824"><ele>205.0</ele><time>2026-04-18T13:54:27.002Z</time></trkpt><trkpt lat="44.83081550765476" lon="9.517306281374905"><ele>205.33333333333331</ele><time>2026-04-18T13:54:28.002Z</time></trkpt><trkpt lat="44.830758227904" lon="9.517492964884173"><ele>205.66666666666669</ele><time>2026-04-18T13:54:29.002Z</time></trkpt><trkpt lat="44.830671815768966" lon="9.517692710362976"><ele>206.0</ele><time>2026-04-18T13:54:30.002Z</time></trkpt><trkpt lat="44.830592713187265" lon="9.517894947069793"><ele>204.5</ele><time>2026-04-18T13:54:31.002Z</time></trkpt><trkpt lat="44.8305283738009" lon="9.518092446149108"><ele>203.0</ele><time>2026-04-18T13:54:32.002Z</time></trkpt><trkpt lat="44.830490846622205" lon="9.518276828109592"><ele>201.5</ele><time>2026-04-18T13:54:33.002Z</time></trkpt><trkpt lat="44.830484516917124" lon="9.518447364996941"><ele>200.0</ele><time>2026-04-18T13:54:34.002Z</time></trkpt><trkpt lat="44.83051835452082" lon="9.518597180333348"><ele>200.66666666666669</ele><time>2026-04-18T13:54:35.002Z</time></trkpt><trkpt lat="44.830593634911615" lon="9.518756044718831"><ele>201.33333333333331</ele><time>2026-04-18T13:54:36.002Z</time></trkpt><trkpt lat="44.83069700146412" lon="9.518923050673532"><ele>202.0</ele><time>2026-04-18T13:54:37.002Z</time></trkpt><trkpt lat="44.830806461958794" lon="9.519086434040075"><ele>202.0</ele><time>2026-04-18T13:54:38.002Z</time></trkpt><trkpt lat="44.83091594672691" lon="9.519252814092981"><ele>202.0</ele><time>2026-04-18T13:54:39.002Z</time></trkpt><trkpt lat="44.8310288724094" lon="9.5194232808267"><ele>202.0</ele><time>2026-04-18T13:54:40.002Z</time></trkpt><trkpt lat="44.831147123295125" lon="9.51959994901561"><ele>203.0</ele><time>2026-04-18T13:54:41.002Z</time></trkpt><trkpt lat="44.83126168952974" lon="9.519770045223478"><ele>204.0</ele><time>2026-04-18T13:54:42.002Z</time></trkpt><trkpt lat="44.831372533939415" lon="9.519919640907997"><ele>205.0</ele><time>2026-04-18T13:54:43.002Z</time></trkpt><trkpt lat="44.831496341916996" lon="9.520042446637746"><ele>205.0</ele><time>2026-04-18T13:54:44.002Z</time></trkpt><trkpt lat="44.83163158679604" lon="9.52012248847877"><ele>205.0</ele><time>2026-04-18T13:54:45.002Z</time></trkpt><trkpt lat="44.83177170240215" lon="9.520156769481128"><ele>205.0</ele><time>2026-04-18T13:54:46.002Z</time></trkpt><trkpt lat="44.83192269668542" lon="9.52014725497776"><ele>205.0</ele><time>2026-04-18T13:54:47.002Z</time></trkpt><trkpt lat="44.832076328834084" lon="9.520094799188335"><ele>206.33333333333331</ele><time>2026-04-18T13:54:48.003Z</time></trkpt><trkpt lat="44.83223327498957" lon="9.52002826417495"><ele>207.66666666666669</ele><time>2026-04-18T13:54:49.003Z</time></trkpt><trkpt lat="44.832393362736" lon="9.51995607133032"><ele>209.0</ele><time>2026-04-18T13:54:50.003Z</time></trkpt><trkpt lat="44.832549595447325" lon="9.519881799449477"><ele>210.0</ele><time>2026-04-18T13:54:51.003Z</time></trkpt><trkpt lat="44.832707060021335" lon="9.51981104781458"><ele>211.0</ele><time>2026-04-18T13:54:52.003Z</time></trkpt><trkpt lat="44.832862913044536" lon="9.519743230363758"><ele>212.0</ele><time>2026-04-18T13:54:53.003Z</time></trkpt><trkpt lat="44.83301563580217" lon="9.519678922021566"><ele>212.0</ele><time>2026-04-18T13:54:54.003Z</time></trkpt><trkpt lat="44.83316546478773" lon="9.519631766380176"><ele>212.0</ele><time>2026-04-18T13:54:55.003Z</time></trkpt><trkpt lat="44.833309837465414" lon="9.51961693990022"><ele>212.0</ele><time>2026-04-18T13:54:56.003Z</time></trkpt><trkpt lat="44.83344506888282" lon="9.519644449243604"><ele>212.0</ele><time>2026-04-18T13:54:57.003Z</time></trkpt><trkpt lat="44.83358602259662" lon="9.519708190998758"><ele>210.33333333333334</ele><time>2026-04-18T13:54:58.003Z</time></trkpt><trkpt lat="44.833728511834266" lon="9.519800326381082"><ele>208.66666666666669</ele><time>2026-04-18T13:54:59.003Z</time></trkpt><trkpt lat="44.83386954686368" lon="9.519907177761134"><ele>207.0</ele><time>2026-04-18T13:55:00.003Z</time></trkpt><trkpt lat="44.834005132756445" lon="9.520027459785169"><ele>207.0</ele><time>2026-04-18T13:55:01.003Z</time></trkpt><trkpt lat="44.8341263190034" lon="9.520148013131063"><ele>207.0</ele><time>2026-04-18T13:55:02.003Z</time></trkpt><trkpt lat="44.83423424513475" lon="9.520261311662027"><ele>207.0</ele><time>2026-04-18T13:55:03.003Z</time></trkpt><trkpt lat="44.834340801572935" lon="9.520344427783156"><ele>207.0</ele><time>2026-04-18T13:55:04.003Z</time></trkpt><trkpt lat="44.834435659012314" lon="9.520384372942965"><ele>208.0</ele><time>2026-04-18T13:55:05.003Z</time></trkpt><trkpt lat="44.83452827773456" lon="9.520382542876947"><ele>209.0</ele><time>2026-04-18T13:55:05.999Z</time></trkpt><trkpt lat="44.834617537014715" lon="9.520323414605814"><ele>210.0</ele><time>2026-04-18T13:55:06.999Z</time></trkpt><trkpt lat="44.83471775541294" lon="9.520213078627693"><ele>211.0</ele><time>2026-04-18T13:55:07.999Z</time></trkpt><trkpt lat="44.834814814135775" lon="9.520090766001518"><ele>212.0</ele><time>2026-04-18T13:55:08.999Z</time></trkpt><trkpt lat="44.83491824260539" lon="9.51999644774112"><ele>212.0</ele><time>2026-04-18T13:55:09.999Z</time></trkpt><trkpt lat="44.83503831541601" lon="9.519939017676974"><ele>212.0</ele><time>2026-04-18T13:55:11Z</time></trkpt><trkpt lat="44.83516641512257" lon="9.51992476026419"><ele>212.0</ele><time>2026-04-18T13:55:12Z</time></trkpt><trkpt lat="44.83530386744861" lon="9.519952574536209"><ele>212.0</ele><time>2026-04-18T13:55:13Z</time></trkpt><trkpt lat="44.83543544788379" lon="9.520017946550164"><ele>210.0</ele><time>2026-04-18T13:55:14Z</time></trkpt><trkpt lat="44.83556406177767" lon="9.520099363132092"><ele>208.0</ele><time>2026-04-18T13:55:15Z</time></trkpt><trkpt lat="44.83569691047833" lon="9.520172293211884"><ele>206.0</ele><time>2026-04-18T13:55:16Z</time></trkpt><trkpt lat="44.83583215681294" lon="9.520246879111951"><ele>204.0</ele><time>2026-04-18T13:55:17Z</time></trkpt><trkpt lat="44.835967189120716" lon="9.520329163332486"><ele>205.0</ele><time>2026-04-18T13:55:18Z</time></trkpt><trkpt lat="44.8360936686206" lon="9.520427006930051"><ele>206.0</ele><time>2026-04-18T13:55:19Z</time></trkpt><trkpt lat="44.83620420628844" lon="9.520555795362949"><ele>207.0</ele><time>2026-04-18T13:55:20Z</time></trkpt><trkpt lat="44.83630596571831" lon="9.52069119357799"><ele>208.0</ele><time>2026-04-18T13:55:21Z</time></trkpt><trkpt lat="44.83640532243582" lon="9.52084488911125"><ele>208.0</ele><time>2026-04-18T13:55:22Z</time></trkpt><trkpt lat="44.83651010958728" lon="9.521003323411291"><ele>208.0</ele><time>2026-04-18T13:55:23Z</time></trkpt><trkpt lat="44.836622859123125" lon="9.52115768733031"><ele>208.0</ele><time>2026-04-18T13:55:24Z</time></trkpt><trkpt lat="44.83673251690075" lon="9.521318125727285"><ele>206.33333333333331</ele><time>2026-04-18T13:55:25Z</time></trkpt><trkpt lat="44.836844579980514" lon="9.52148369222802"><ele>204.66666666666669</ele><time>2026-04-18T13:55:26Z</time></trkpt><trkpt lat="44.83695919167258" lon="9.521637582793204"><ele>203.0</ele><time>2026-04-18T13:55:27Z</time></trkpt><trkpt lat="44.837082891306615" lon="9.521781249765466"><ele>203.0</ele><time>2026-04-18T13:55:28Z</time></trkpt><trkpt lat="44.83720965081469" lon="9.521906203270229"><ele>203.0</ele><time>2026-04-18T13:55:29Z</time></trkpt><trkpt lat="44.83733878325632" lon="9.522024833846462"><ele>203.0</ele><time>2026-04-18T13:55:30Z</time></trkpt><trkpt lat="44.83746912225101" lon="9.522158159388432"><ele>203.0</ele><time>2026-04-18T13:55:31Z</time></trkpt><trkpt lat="44.83760369283592" lon="9.522302005647136"><ele>203.0</ele><time>2026-04-18T13:55:32Z</time></trkpt><trkpt lat="44.83773425851229" lon="9.522441246974259"><ele>203.0</ele><time>2026-04-18T13:55:33Z</time></trkpt><trkpt lat="44.83786533118641" lon="9.522576898462253"><ele>203.0</ele><time>2026-04-18T13:55:34Z</time></trkpt><trkpt lat="44.83799213250703" lon="9.522710643784196"><ele>203.0</ele><time>2026-04-18T13:55:35Z</time></trkpt><trkpt lat="44.83810532599819" lon="9.52283133925159"><ele>203.0</ele><time>2026-04-18T13:55:36Z</time></trkpt><trkpt lat="44.83821145836064" lon="9.5229534869864"><ele>203.0</ele><time>2026-04-18T13:55:37Z</time></trkpt><trkpt lat="44.83832045846948" lon="9.523081725016382"><ele>204.25</ele><time>2026-04-18T13:55:38Z</time></trkpt><trkpt lat="44.83841704645325" lon="9.523203808057483"><ele>205.5</ele><time>2026-04-18T13:55:39Z</time></trkpt><trkpt lat="44.83850182165614" lon="9.523350060062231"><ele>206.75</ele><time>2026-04-18T13:55:40.001Z</time></trkpt><trkpt lat="44.83858873469205" lon="9.523543633417253"><ele>208.0</ele><time>2026-04-18T13:55:41.001Z</time></trkpt><trkpt lat="44.838697827479294" lon="9.523743400986453"><ele>208.0</ele><time>2026-04-18T13:55:42.001Z</time></trkpt><trkpt lat="44.838786607154134" lon="9.523924529967848"><ele>208.0</ele><time>2026-04-18T13:55:43.001Z</time></trkpt><trkpt lat="44.83885190200466" lon="9.524109227313511"><ele>208.0</ele><time>2026-04-18T13:55:44.001Z</time></trkpt><trkpt lat="44.83889758836095" lon="9.524304398133427"><ele>208.0</ele><time>2026-04-18T13:55:45.001Z</time></trkpt><trkpt lat="44.8389361762929" lon="9.52451065410917"><ele>210.0</ele><time>2026-04-18T13:55:46.001Z</time></trkpt><trkpt lat="44.83897391237846" lon="9.524710860733654"><ele>212.0</ele><time>2026-04-18T13:55:47.001Z</time></trkpt><trkpt lat="44.83901770217843" lon="9.524912370726705"><ele>214.0</ele><time>2026-04-18T13:55:48.001Z</time></trkpt><trkpt lat="44.8390822498129" lon="9.525115947832509"><ele>214.0</ele><time>2026-04-18T13:55:49.001Z</time></trkpt><trkpt lat="44.839169550780476" lon="9.525320352946709"><ele>214.0</ele><time>2026-04-18T13:55:50.001Z</time></trkpt><trkpt lat="44.83928208976707" lon="9.525543228006665"><ele>214.0</ele><time>2026-04-18T13:55:51.001Z</time></trkpt><trkpt lat="44.83938774960514" lon="9.525776570909567"><ele>211.33333333333331</ele><time>2026-04-18T13:55:52.001Z</time></trkpt><trkpt lat="44.83947824491061" lon="9.526014996787348"><ele>208.66666666666669</ele><time>2026-04-18T13:55:53.001Z</time></trkpt><trkpt lat="44.83956789292237" lon="9.526246947099235"><ele>206.0</ele><time>2026-04-18T13:55:54.001Z</time></trkpt><trkpt lat="44.83965561064214" lon="9.526482551523143"><ele>206.0</ele><time>2026-04-18T13:55:55.001Z</time></trkpt><trkpt lat="44.83974181322628" lon="9.526716268222842"><ele>206.0</ele><time>2026-04-18T13:55:56.001Z</time></trkpt><trkpt lat="44.83982889057494" lon="9.526952736383578"><ele>206.0</ele><time>2026-04-18T13:55:57.001Z</time></trkpt><trkpt lat="44.83991770249836" lon="9.527183168338832"><ele>205.0</ele><time>2026-04-18T13:55:58.001Z</time></trkpt><trkpt lat="44.840007447297616" lon="9.527419802314858"><ele>204.0</ele><time>2026-04-18T13:55:59.001Z</time></trkpt><trkpt lat="44.84009522769814" lon="9.52766169674085"><ele>203.0</ele><time>2026-04-18T13:56:00.001Z</time></trkpt><trkpt lat="44.84019281609424" lon="9.527905744123396"><ele>203.0</ele><time>2026-04-18T13:56:01.001Z</time></trkpt><trkpt lat="44.840294070429024" lon="9.52815042093325"><ele>203.0</ele><time>2026-04-18T13:56:02.001Z</time></trkpt><trkpt lat="44.84040161791533" lon="9.528395451346668"><ele>203.0</ele><time>2026-04-18T13:56:03.001Z</time></trkpt><trkpt lat="44.840522454278904" lon="9.52863150256695"><ele>204.66666666666669</ele><time>2026-04-18T13:56:04.001Z</time></trkpt><trkpt lat="44.84065700866842" lon="9.528853163918527"><ele>206.33333333333331</ele><time>2026-04-18T13:56:05.001Z</time></trkpt><trkpt lat="44.840789667924845" lon="9.529053882791809"><ele>208.0</ele><time>2026-04-18T13:56:06.001Z</time></trkpt><trkpt lat="44.840919766296906" lon="9.529251292319072"><ele>206.0</ele><time>2026-04-18T13:56:07.001Z</time></trkpt><trkpt lat="44.841042416290215" lon="9.529450251165981"><ele>204.0</ele><time>2026-04-18T13:56:08.001Z</time></trkpt><trkpt lat="44.84115822427076" lon="9.529646903015196"><ele>202.0</ele><time>2026-04-18T13:56:09.001Z</time></trkpt><trkpt lat="44.8412592761404" lon="9.529841604401252"><ele>202.0</ele><time>2026-04-18T13:56:10.001Z</time></trkpt><trkpt lat="44.84134581711636" lon="9.530033396352486"><ele>202.0</ele><time>2026-04-18T13:56:11.001Z</time></trkpt><trkpt lat="44.841421909378084" lon="9.530231850668072"><ele>202.0</ele><time>2026-04-18T13:56:12.002Z</time></trkpt><trkpt lat="44.84149644711201" lon="9.53044146426567"><ele>205.0</ele><time>2026-04-18T13:56:13.002Z</time></trkpt><trkpt lat="44.841582569108006" lon="9.530662225463933"><ele>208.0</ele><time>2026-04-18T13:56:14.002Z</time></trkpt><trkpt lat="44.84166358489756" lon="9.530865918099902"><ele>211.0</ele><time>2026-04-18T13:56:15.002Z</time></trkpt><trkpt lat="44.84175135351024" lon="9.531049104722511"><ele>210.0</ele><time>2026-04-18T13:56:16.002Z</time></trkpt><trkpt lat="44.84185712433759" lon="9.531210872069385"><ele>209.0</ele><time>2026-04-18T13:56:17.002Z</time></trkpt><trkpt lat="44.84198476507702" lon="9.531348305892879"><ele>208.0</ele><time>2026-04-18T13:56:18.002Z</time></trkpt><trkpt lat="44.84212601362141" lon="9.531468961854557"><ele>208.0</ele><time>2026-04-18T13:56:19.002Z</time></trkpt><trkpt lat="44.84227106161124" lon="9.53156464556162"><ele>208.0</ele><time>2026-04-18T13:56:20.002Z</time></trkpt><trkpt lat="44.84241505777229" lon="9.531647296620417"><ele>208.0</ele><time>2026-04-18T13:56:21.002Z</time></trkpt><trkpt lat="44.84255266329626" lon="9.53173340884787"><ele>203.0</ele><time>2026-04-18T13:56:22.002Z</time></trkpt><trkpt lat="44.842671587278176" lon="9.53184030849453"><ele>198.0</ele><time>2026-04-18T13:56:23.002Z</time></trkpt><trkpt lat="44.84275627771459" lon="9.531955341157598"><ele>193.0</ele><time>2026-04-18T13:56:24.002Z</time></trkpt><trkpt lat="44.84281841817531" lon="9.532104650287586"><ele>188.0</ele><time>2026-04-18T13:56:25.002Z</time></trkpt><trkpt lat="44.84286399781123" lon="9.532283482913066"><ele>188.0</ele><time>2026-04-18T13:56:26.002Z</time></trkpt><trkpt lat="44.842898173872754" lon="9.53246559383167"><ele>188.0</ele><time>2026-04-18T13:56:27.002Z</time></trkpt><trkpt lat="44.84292978656046" lon="9.532633703810937"><ele>188.0</ele><time>2026-04-18T13:56:28.002Z</time></trkpt><trkpt lat="44.842965235257" lon="9.532787858751783"><ele>188.0</ele><time>2026-04-18T13:56:29.002Z</time></trkpt><trkpt lat="44.84300139559078" lon="9.532931848937311"><ele>189.8</ele><time>2026-04-18T13:56:30.002Z</time></trkpt><trkpt lat="44.8430352377874" lon="9.533073239489392"><ele>191.60000000000002</ele><time>2026-04-18T13:56:31.002Z</time></trkpt><trkpt lat="44.84306819676022" lon="9.533222869513837"><ele>193.39999999999998</ele><time>2026-04-18T13:56:32.002Z</time></trkpt><trkpt lat="44.8431012511013" lon="9.533372880460204"><ele>195.2</ele><time>2026-04-18T13:56:33.002Z</time></trkpt><trkpt lat="44.8431322722044" lon="9.533525352900687"><ele>197.0</ele><time>2026-04-18T13:56:34.002Z</time></trkpt><trkpt lat="44.84315805553021" lon="9.53368181440049"><ele>197.8</ele><time>2026-04-18T13:56:35.002Z</time></trkpt><trkpt lat="44.84318126613392" lon="9.533844032047421"><ele>198.6</ele><time>2026-04-18T13:56:36.002Z</time></trkpt><trkpt lat="44.843197055895686" lon="9.533997624952304"><ele>199.4</ele><time>2026-04-18T13:56:37.002Z</time></trkpt><trkpt lat="44.84320932427115" lon="9.534145047608707"><ele>200.20000000000002</ele><time>2026-04-18T13:56:38.002Z</time></trkpt><trkpt lat="44.84322274754707" lon="9.534286025630857"><ele>201.0</ele><time>2026-04-18T13:56:39.002Z</time></trkpt><trkpt lat="44.843236167239986" lon="9.534431196493413"><ele>202.0</ele><time>2026-04-18T13:56:40.002Z</time></trkpt><trkpt lat="44.84324893948958" lon="9.534583236168837"><ele>203.0</ele><time>2026-04-18T13:56:41.002Z</time></trkpt><trkpt lat="44.843262337896775" lon="9.534740613550776"><ele>204.0</ele><time>2026-04-18T13:56:42.002Z</time></trkpt><trkpt lat="44.8432779267425" lon="9.534896338897177"><ele>205.0</ele><time>2026-04-18T13:56:43.002Z</time></trkpt><trkpt lat="44.84329435042814" lon="9.535051216706606"><ele>206.0</ele><time>2026-04-18T13:56:44.002Z</time></trkpt><trkpt lat="44.84330833275258" lon="9.535199971159962"><ele>206.0</ele><time>2026-04-18T13:56:45.003Z</time></trkpt><trkpt lat="44.843324911971735" lon="9.535341029145911"><ele>206.0</ele><time>2026-04-18T13:56:46.003Z</time></trkpt><trkpt lat="44.843339608790046" lon="9.535473895856956"><ele>206.0</ele><time>2026-04-18T13:56:47.003Z</time></trkpt><trkpt lat="44.843365387214185" lon="9.535588362004711"><ele>206.0</ele><time>2026-04-18T13:56:48.003Z</time></trkpt><trkpt lat="44.843408755654586" lon="9.535686241335432"><ele>206.0</ele><time>2026-04-18T13:56:49.003Z</time></trkpt><trkpt lat="44.8434721428307" lon="9.535780846491855"><ele>204.4</ele><time>2026-04-18T13:56:50.003Z</time></trkpt><trkpt lat="44.84354990939412" lon="9.53585716622242"><ele>202.8</ele><time>2026-04-18T13:56:51.003Z</time></trkpt><trkpt lat="44.84363270366184" lon="9.535923890197948"><ele>201.20000000000002</ele><time>2026-04-18T13:56:52.003Z</time></trkpt><trkpt lat="44.8437224318143" lon="9.535975083152385"><ele>199.60000000000002</ele><time>2026-04-18T13:56:53.003Z</time></trkpt><trkpt lat="44.84381947769153" lon="9.53599895680962"><ele>198.0</ele><time>2026-04-18T13:56:54.003Z</time></trkpt><trkpt lat="44.84392311416166" lon="9.535993383888128"><ele>198.0</ele><time>2026-04-18T13:56:55.003Z</time></trkpt><trkpt lat="44.84401468597382" lon="9.535964513171164"><ele>198.0</ele><time>2026-04-18T13:56:56.003Z</time></trkpt><trkpt lat="44.84410369006154" lon="9.535939764727981"><ele>198.0</ele><time>2026-04-18T13:56:57.003Z</time></trkpt><trkpt lat="44.84419493990937" lon="9.535935789235975"><ele>198.0</ele><time>2026-04-18T13:56:58.003Z</time></trkpt><trkpt lat="44.844291095284625" lon="9.535960741104002"><ele>198.0</ele><time>2026-04-18T13:56:59.003Z</time></trkpt><trkpt lat="44.84437928338527" lon="9.536008898390175"><ele>197.8</ele><time>2026-04-18T13:57:00.003Z</time></trkpt><trkpt lat="44.84446290661192" lon="9.53608247852526"><ele>197.60000000000002</ele><time>2026-04-18T13:57:01.003Z</time></trkpt><trkpt lat="44.84453378319391" lon="9.536181072492647"><ele>197.39999999999998</ele><time>2026-04-18T13:57:02.003Z</time></trkpt><trkpt lat="44.8445967694232" lon="9.536297013778498"><ele>197.2</ele><time>2026-04-18T13:57:03.003Z</time></trkpt><trkpt lat="44.84465632438763" lon="9.536416630337676"><ele>197.0</ele><time>2026-04-18T13:57:04.003Z</time></trkpt><trkpt lat="44.844723733173005" lon="9.536527911243658"><ele>197.0</ele><time>2026-04-18T13:57:05.003Z</time></trkpt><trkpt lat="44.844810062017736" lon="9.536619286922097"><ele>197.0</ele><time>2026-04-18T13:57:06.003Z</time></trkpt><trkpt lat="44.84490770443919" lon="9.53669053098228"><ele>197.0</ele><time>2026-04-18T13:57:07.003Z</time></trkpt><trkpt lat="44.8450070350289" lon="9.536744870287015"><ele>197.0</ele><time>2026-04-18T13:57:08.003Z</time></trkpt><trkpt lat="44.84509892205621" lon="9.536789037319604"><ele>197.0</ele><time>2026-04-18T13:57:09.003Z</time></trkpt><trkpt lat="44.845192777010595" lon="9.536835037148983"><ele>196.0</ele><time>2026-04-18T13:57:10.003Z</time></trkpt><trkpt lat="44.84527940222047" lon="9.536889048554869"><ele>195.0</ele><time>2026-04-18T13:57:11.003Z</time></trkpt><trkpt lat="44.845356851434694" lon="9.536951168506869"><ele>194.0</ele><time>2026-04-18T13:57:11.999Z</time></trkpt><trkpt lat="44.84542983129904" lon="9.537030564021535"><ele>193.0</ele><time>2026-04-18T13:57:12.999Z</time></trkpt><trkpt lat="44.84549751896345" lon="9.53712241127844"><ele>192.0</ele><time>2026-04-18T13:57:13.999Z</time></trkpt><trkpt lat="44.845556747848214" lon="9.537229883546585"><ele>192.0</ele><time>2026-04-18T13:57:14.999Z</time></trkpt><trkpt lat="44.84561243586462" lon="9.53734674990738"><ele>192.0</ele><time>2026-04-18T13:57:15.999Z</time></trkpt><trkpt lat="44.84566327852957" lon="9.53745895292696"><ele>192.0</ele><time>2026-04-18T13:57:16.999Z</time></trkpt><trkpt lat="44.8457127065775" lon="9.537570076744277"><ele>192.0</ele><time>2026-04-18T13:57:18Z</time></trkpt><trkpt lat="44.84575680381224" lon="9.537674509036334"><ele>192.0</ele><time>2026-04-18T13:57:19Z</time></trkpt><trkpt lat="44.8458003555489" lon="9.537779452981685"><ele>191.2</ele><time>2026-04-18T13:57:20Z</time></trkpt><trkpt lat="44.84584784971671" lon="9.537889341793552"><ele>190.39999999999998</ele><time>2026-04-18T13:57:21Z</time></trkpt><trkpt lat="44.8459113789261" lon="9.537986989396114"><ele>189.60000000000002</ele><time>2026-04-18T13:57:22Z</time></trkpt><trkpt lat="44.84599207786002" lon="9.538068631948475"><ele>188.8</ele><time>2026-04-18T13:57:23Z</time></trkpt><trkpt lat="44.846085953737514" lon="9.538131752272616"><ele>188.0</ele><time>2026-04-18T13:57:24Z</time></trkpt><trkpt lat="44.84618715477209" lon="9.538190937677472"><ele>188.0</ele><time>2026-04-18T13:57:25Z</time></trkpt><trkpt lat="44.84628614443198" lon="9.538243648442513"><ele>188.0</ele><time>2026-04-18T13:57:26Z</time></trkpt><trkpt lat="44.846378382972" lon="9.538293885840224"><ele>188.0</ele><time>2026-04-18T13:57:27Z</time></trkpt><trkpt lat="44.84646466029125" lon="9.538345183138077"><ele>188.0</ele><time>2026-04-18T13:57:28Z</time></trkpt><trkpt lat="44.84654655004867" lon="9.5383955516586"><ele>188.0</ele><time>2026-04-18T13:57:29Z</time></trkpt><trkpt lat="44.84662683052335" lon="9.53844956284192"><ele>188.0</ele><time>2026-04-18T13:57:30Z</time></trkpt><trkpt lat="44.846706714406814" lon="9.538502203816881"><ele>188.0</ele><time>2026-04-18T13:57:31Z</time></trkpt><trkpt lat="44.846784059029794" lon="9.53855412866241"><ele>188.0</ele><time>2026-04-18T13:57:32Z</time></trkpt><trkpt lat="44.84685881893965" lon="9.53861129414111"><ele>188.0</ele><time>2026-04-18T13:57:33Z</time></trkpt><trkpt lat="44.846929821413205" lon="9.538678111393779"><ele>188.0</ele><time>2026-04-18T13:57:34Z</time></trkpt><trkpt lat="44.84699815514566" lon="9.53875249881739"><ele>188.0</ele><time>2026-04-18T13:57:35Z</time></trkpt><trkpt lat="44.8470627938251" lon="9.538831432320064"><ele>188.2</ele><time>2026-04-18T13:57:36Z</time></trkpt><trkpt lat="44.847129009420705" lon="9.538919268581102"><ele>188.4</ele><time>2026-04-18T13:57:37Z</time></trkpt><trkpt lat="44.84720024668436" lon="9.539023202297097"><ele>188.6</ele><time>2026-04-18T13:57:38Z</time></trkpt><trkpt lat="44.84727345637539" lon="9.539138132210283"><ele>188.79999999999998</ele><time>2026-04-18T13:57:39Z</time></trkpt><trkpt lat="44.84735425532326" lon="9.539262509977984"><ele>189.0</ele><time>2026-04-18T13:57:40Z</time></trkpt><trkpt lat="44.847441925600954" lon="9.539393877228147"><ele>189.0</ele><time>2026-04-18T13:57:41Z</time></trkpt><trkpt lat="44.84753252819954" lon="9.539527703801125"><ele>189.0</ele><time>2026-04-18T13:57:42Z</time></trkpt><trkpt lat="44.847622635690264" lon="9.539659316448551"><ele>189.0</ele><time>2026-04-18T13:57:43Z</time></trkpt><trkpt lat="44.84771011564203" lon="9.539787939242531"><ele>189.0</ele><time>2026-04-18T13:57:44Z</time></trkpt><trkpt lat="44.847795356231195" lon="9.539915960586326"><ele>189.2</ele><time>2026-04-18T13:57:45.001Z</time></trkpt><trkpt lat="44.847877022551394" lon="9.540041119997777"><ele>189.39999999999998</ele><time>2026-04-18T13:57:46.001Z</time></trkpt><trkpt lat="44.847955238869034" lon="9.540158099388922"><ele>189.6</ele><time>2026-04-18T13:57:47.001Z</time></trkpt><trkpt lat="44.84802963741207" lon="9.540266273120283"><ele>189.8</ele><time>2026-04-18T13:57:48.001Z</time></trkpt><trkpt lat="44.84810609751345" lon="9.540367745244565"><ele>190.0</ele><time>2026-04-18T13:57:49.001Z</time></trkpt><trkpt lat="44.84818888366036" lon="9.540454842528309"><ele>190.0</ele><time>2026-04-18T13:57:50.001Z</time></trkpt><trkpt lat="44.84827543972377" lon="9.540526353153702"><ele>190.0</ele><time>2026-04-18T13:57:51.001Z</time></trkpt><trkpt lat="44.8483640568641" lon="9.540578028778746"><ele>190.0</ele><time>2026-04-18T13:57:52.001Z</time></trkpt><trkpt lat="44.848443913299" lon="9.54060742594538"><ele>190.0</ele><time>2026-04-18T13:57:53.001Z</time></trkpt><trkpt lat="44.84851002206539" lon="9.540617964287803"><ele>190.0</ele><time>2026-04-18T13:57:54.001Z</time></trkpt><trkpt lat="44.848612132940545" lon="9.540626659925387"><ele>190.0</ele><time>2026-04-18T13:57:56.001Z</time></trkpt><trkpt lat="44.84869360636118" lon="9.540632637821851"><ele>190.5</ele><time>2026-04-18T13:57:59.001Z</time></trkpt><trkpt lat="44.84879483544161" lon="9.540650569567307"><ele>191.0</ele><time>2026-04-18T13:58:07.001Z</time></trkpt><trkpt lat="44.84891584827663" lon="9.540669985389048"><ele>191.5</ele><time>2026-04-18T13:58:09.001Z</time></trkpt><trkpt lat="44.8489824619035" lon="9.540677291905512"><ele>192.0</ele><time>2026-04-18T13:58:10.001Z</time></trkpt><trkpt lat="44.8490457478396" lon="9.540684309657511"><ele>192.49999999999997</ele><time>2026-04-18T13:58:11.001Z</time></trkpt><trkpt lat="44.84911242464159" lon="9.54069110921417"><ele>193.0</ele><time>2026-04-18T13:58:12.001Z</time></trkpt><trkpt lat="44.84919094118706" lon="9.540699948320402"><ele>192.99999999999997</ele><time>2026-04-18T13:58:13.001Z</time></trkpt><trkpt lat="44.84927531226386" lon="9.540710603814004"><ele>193.0</ele><time>2026-04-18T13:58:14.001Z</time></trkpt><trkpt lat="44.84935538990171" lon="9.540721724871155"><ele>193.0</ele><time>2026-04-18T13:58:15.001Z</time></trkpt><trkpt lat="44.84943550311507" lon="9.540731656069678"><ele>193.0</ele><time>2026-04-18T13:58:16.002Z</time></trkpt><trkpt lat="44.8495209582296" lon="9.540742311696631"><ele>192.99999999999997</ele><time>2026-04-18T13:58:17.002Z</time></trkpt><trkpt lat="44.84961062677795" lon="9.54075059651036"><ele>193.0</ele><time>2026-04-18T13:58:18.002Z</time></trkpt><trkpt lat="44.849703882156156" lon="9.540758821585667"><ele>192.75</ele><time>2026-04-18T13:58:19.002Z</time></trkpt><trkpt lat="44.84978994819758" lon="9.540766777000764"><ele>192.5</ele><time>2026-04-18T13:58:20.002Z</time></trkpt><trkpt lat="44.84990318432361" lon="9.540771099604374"><ele>192.25</ele><time>2026-04-18T13:58:21.002Z</time></trkpt><trkpt lat="44.850030125964" lon="9.540802462348635"><ele>192.0</ele><time>2026-04-18T13:58:22.002Z</time></trkpt><trkpt lat="44.85016992357344" lon="9.540818772888814"><ele>192.0</ele><time>2026-04-18T13:58:23.002Z</time></trkpt><trkpt lat="44.8502933863651" lon="9.540833177611969"><ele>192.0</ele><time>2026-04-18T13:58:24.002Z</time></trkpt><trkpt lat="44.85041701175432" lon="9.540831097331369"><ele>192.0</ele><time>2026-04-18T13:58:25.002Z</time></trkpt><trkpt lat="44.8505311439251" lon="9.540851759082951"><ele>192.0</ele><time>2026-04-18T13:58:26.002Z</time></trkpt><trkpt lat="44.85064450405139" lon="9.540865934762952"><ele>192.0</ele><time>2026-04-18T13:58:27.002Z</time></trkpt><trkpt lat="44.85074696621026" lon="9.540879018413369"><ele>192.0</ele><time>2026-04-18T13:58:28.002Z</time></trkpt><trkpt lat="44.85085800448615" lon="9.540897814242937"><ele>192.0</ele><time>2026-04-18T13:58:29.002Z</time></trkpt><trkpt lat="44.85097705752825" lon="9.540914747974924"><ele>192.0</ele><time>2026-04-18T13:58:30.002Z</time></trkpt><trkpt lat="44.85110394928042" lon="9.540942379656755"><ele>191.5</ele><time>2026-04-18T13:58:31.002Z</time></trkpt><trkpt lat="44.851230641035734" lon="9.540988166995724"><ele>191.0</ele><time>2026-04-18T13:58:32.002Z</time></trkpt><trkpt lat="44.85136410613211" lon="9.541051317361024"><ele>190.5</ele><time>2026-04-18T13:58:33.002Z</time></trkpt><trkpt lat="44.85149172919633" lon="9.541123978263744"><ele>190.0</ele><time>2026-04-18T13:58:34.002Z</time></trkpt><trkpt lat="44.85160998774221" lon="9.5411839637667"><ele>191.0</ele><time>2026-04-18T13:58:35.002Z</time></trkpt><trkpt lat="44.85175547971866" lon="9.541286653073549"><ele>192.0</ele><time>2026-04-18T13:58:36.002Z</time></trkpt><trkpt lat="44.851944037295866" lon="9.541403549209052"><ele>193.0</ele><time>2026-04-18T13:58:37.002Z</time></trkpt><trkpt lat="44.85211876936922" lon="9.54151294890645"><ele>193.0</ele><time>2026-04-18T13:58:38.002Z</time></trkpt><trkpt lat="44.85231506099934" lon="9.541638352965252"><ele>193.0</ele><time>2026-04-18T13:58:39.002Z</time></trkpt><trkpt lat="44.8524879389193" lon="9.541744667860959"><ele>193.0</ele><time>2026-04-18T13:58:40.002Z</time></trkpt><trkpt lat="44.85264557365124" lon="9.541860162841642"><ele>192.33333333333331</ele><time>2026-04-18T13:58:41.002Z</time></trkpt><trkpt lat="44.852796560962965" lon="9.541968583836338"><ele>191.66666666666666</ele><time>2026-04-18T13:58:42.002Z</time></trkpt><trkpt lat="44.8529342903471" lon="9.54206331275827"><ele>191.0</ele><time>2026-04-18T13:58:43.002Z</time></trkpt><trkpt lat="44.85305784683761" lon="9.542151206050097"><ele>191.0</ele><time>2026-04-18T13:58:44.002Z</time></trkpt><trkpt lat="44.85316507255214" lon="9.54222929049261"><ele>191.0</ele><time>2026-04-18T13:58:45.002Z</time></trkpt><trkpt lat="44.853263870493706" lon="9.542309485176782"><ele>191.0</ele><time>2026-04-18T13:58:46.002Z</time></trkpt><trkpt lat="44.853347370688574" lon="9.542393481074203"><ele>191.0</ele><time>2026-04-18T13:58:47.002Z</time></trkpt><trkpt lat="44.85342699212882" lon="9.54248931243057"><ele>191.0</ele><time>2026-04-18T13:58:48.002Z</time></trkpt><trkpt lat="44.85350446820341" lon="9.542603021197882"><ele>188.8</ele><time>2026-04-18T13:58:49.003Z</time></trkpt><trkpt lat="44.853569460453556" lon="9.542720549064432"><ele>186.60000000000002</ele><time>2026-04-18T13:58:50.003Z</time></trkpt><trkpt lat="44.85362088423248" lon="9.542854292479026"><ele>184.4</ele><time>2026-04-18T13:58:51.003Z</time></trkpt><trkpt lat="44.85366834990098" lon="9.54299444812108"><ele>182.2</ele><time>2026-04-18T13:58:52.003Z</time></trkpt><trkpt lat="44.85370525108489" lon="9.543130748150402"><ele>180.0</ele><time>2026-04-18T13:58:53.003Z</time></trkpt><trkpt lat="44.85374036515962" lon="9.543282280104249"><ele>180.0</ele><time>2026-04-18T13:58:54.003Z</time></trkpt><trkpt lat="44.85377085568509" lon="9.54344036990123"><ele>180.0</ele><time>2026-04-18T13:58:55.003Z</time></trkpt><trkpt lat="44.85379126675729" lon="9.5436011799396"><ele>180.0</ele><time>2026-04-18T13:58:56.003Z</time></trkpt><trkpt lat="44.853817172658054" lon="9.543765288706048"><ele>180.0</ele><time>2026-04-18T13:58:57.003Z</time></trkpt><trkpt lat="44.853844514361036" lon="9.54392784093456"><ele>180.5</ele><time>2026-04-18T13:58:58.003Z</time></trkpt><trkpt lat="44.85387244853372" lon="9.544086098967812"><ele>181.0</ele><time>2026-04-18T13:58:59.003Z</time></trkpt><trkpt lat="44.85390002613419" lon="9.544245451171921"><ele>181.5</ele><time>2026-04-18T13:59:00.003Z</time></trkpt><trkpt lat="44.853928133587864" lon="9.544407944886578"><ele>182.0</ele><time>2026-04-18T13:59:01.003Z</time></trkpt><trkpt lat="44.85397754578752" lon="9.544566407085716"><ele>183.75</ele><time>2026-04-18T13:59:02.003Z</time></trkpt><trkpt lat="44.85404603773267" lon="9.544714415772368"><ele>185.5</ele><time>2026-04-18T13:59:03.003Z</time></trkpt><trkpt lat="44.85412322123577" lon="9.54488474261598"><ele>187.25</ele><time>2026-04-18T13:59:04.003Z</time></trkpt><trkpt lat="44.854220508182905" lon="9.545068687927179"><ele>189.0</ele><time>2026-04-18T13:59:05.003Z</time></trkpt><trkpt lat="44.854320416958835" lon="9.545257589295959"><ele>187.0</ele><time>2026-04-18T13:59:06.003Z</time></trkpt><trkpt lat="44.854420373226105" lon="9.545446580495764"><ele>185.0</ele><time>2026-04-18T13:59:07.003Z</time></trkpt><trkpt lat="44.854525399955754" lon="9.54563866629171"><ele>183.0</ele><time>2026-04-18T13:59:08.003Z</time></trkpt><trkpt lat="44.85464028472747" lon="9.545809619735842"><ele>183.0</ele><time>2026-04-18T13:59:09.003Z</time></trkpt><trkpt lat="44.85477281067802" lon="9.54598238434834"><ele>183.0</ele><time>2026-04-18T13:59:10.003Z</time></trkpt><trkpt lat="44.85489718261129" lon="9.546139221399965"><ele>183.0</ele><time>2026-04-18T13:59:11.003Z</time></trkpt><trkpt lat="44.85500149295937" lon="9.546270873182303"><ele>183.0</ele><time>2026-04-18T13:59:12.003Z</time></trkpt><trkpt lat="44.85510273465263" lon="9.546396247605403"><ele>183.0</ele><time>2026-04-18T13:59:13.003Z</time></trkpt><trkpt lat="44.85519630750751" lon="9.546512579828905"><ele>183.0</ele><time>2026-04-18T13:59:14.003Z</time></trkpt><trkpt lat="44.855293206700345" lon="9.546602307534847"><ele>183.0</ele><time>2026-04-18T13:59:15.003Z</time></trkpt><trkpt lat="44.8553807862684" lon="9.546714930835739"><ele>183.0</ele><time>2026-04-18T13:59:16.003Z</time></trkpt><trkpt lat="44.85547355063814" lon="9.546838137051157"><ele>183.0</ele><time>2026-04-18T13:59:17.003Z</time></trkpt><trkpt lat="44.855557378498574" lon="9.546943391706481"><ele>183.0</ele><time>2026-04-18T13:59:18Z</time></trkpt><trkpt lat="44.85564161591272" lon="9.547044826714874"><ele>183.0</ele><time>2026-04-18T13:59:19Z</time></trkpt><trkpt lat="44.85573546436767" lon="9.547161848441858"><ele>182.2</ele><time>2026-04-18T13:59:20Z</time></trkpt><trkpt lat="44.855823894930445" lon="9.547273806033658"><ele>181.4</ele><time>2026-04-18T13:59:21Z</time></trkpt><trkpt lat="44.85590381500226" lon="9.547373814151243"><ele>180.6</ele><time>2026-04-18T13:59:22Z</time></trkpt><trkpt lat="44.85597650698928" lon="9.547469419561535"><ele>179.79999999999998</ele><time>2026-04-18T13:59:23Z</time></trkpt><trkpt lat="44.85605695839386" lon="9.54756703925005"><ele>179.0</ele><time>2026-04-18T13:59:24Z</time></trkpt><trkpt lat="44.85615444947717" lon="9.547661359013892"><ele>179.0</ele><time>2026-04-18T13:59:25Z</time></trkpt><trkpt lat="44.85627667274445" lon="9.547772152353698"><ele>179.0</ele><time>2026-04-18T13:59:26Z</time></trkpt><trkpt lat="44.856438987972055" lon="9.547855707923718"><ele>179.0</ele><time>2026-04-18T13:59:27Z</time></trkpt><trkpt lat="44.856626676748085" lon="9.54790808244957"><ele>181.0</ele><time>2026-04-18T13:59:28Z</time></trkpt><trkpt lat="44.85679997247965" lon="9.547999522548778"><ele>183.0</ele><time>2026-04-18T13:59:29Z</time></trkpt><trkpt lat="44.85698287970777" lon="9.548110912273943"><ele>185.0</ele><time>2026-04-18T13:59:30Z</time></trkpt><trkpt lat="44.857172849128986" lon="9.548215895975481"><ele>185.0</ele><time>2026-04-18T13:59:31Z</time></trkpt><trkpt lat="44.85735255144808" lon="9.548300056871472"><ele>185.0</ele><time>2026-04-18T13:59:32Z</time></trkpt><trkpt lat="44.85753486076635" lon="9.548387739877892"><ele>185.0</ele><time>2026-04-18T13:59:33Z</time></trkpt><trkpt lat="44.85770949011244" lon="9.548474735815137"><ele>182.0</ele><time>2026-04-18T13:59:34Z</time></trkpt><trkpt lat="44.85786901163032" lon="9.548560495681953"><ele>179.0</ele><time>2026-04-18T13:59:35Z</time></trkpt><trkpt lat="44.85801737628193" lon="9.548649770127426"><ele>176.0</ele><time>2026-04-18T13:59:36Z</time></trkpt><trkpt lat="44.85816319676413" lon="9.548780408691792"><ele>174.66666666666666</ele><time>2026-04-18T13:59:37Z</time></trkpt><trkpt lat="44.8583055697673" lon="9.548943077191671"><ele>173.33333333333334</ele><time>2026-04-18T13:59:38Z</time></trkpt><trkpt lat="44.858455502658046" lon="9.549109513463627"><ele>172.0</ele><time>2026-04-18T13:59:39Z</time></trkpt><trkpt lat="44.85860175567894" lon="9.549258432756604"><ele>172.0</ele><time>2026-04-18T13:59:40Z</time></trkpt><trkpt lat="44.85875419997918" lon="9.549411847518892"><ele>172.0</ele><time>2026-04-18T13:59:41Z</time></trkpt><trkpt lat="44.85891579436298" lon="9.549562195358106"><ele>172.0</ele><time>2026-04-18T13:59:42Z</time></trkpt><trkpt lat="44.859070115668615" lon="9.549720975181184"><ele>172.66666666666669</ele><time>2026-04-18T13:59:43Z</time></trkpt><trkpt lat="44.85923368292853" lon="9.549886124002906"><ele>173.33333333333334</ele><time>2026-04-18T13:59:44Z</time></trkpt><trkpt lat="44.859401114846534" lon="9.550051114091183"><ele>174.0</ele><time>2026-04-18T13:59:45Z</time></trkpt><trkpt lat="44.85956520298594" lon="9.550212149746407"><ele>174.0</ele><time>2026-04-18T13:59:46Z</time></trkpt><trkpt lat="44.85972035047997" lon="9.55036775262858"><ele>174.0</ele><time>2026-04-18T13:59:47Z</time></trkpt><trkpt lat="44.85987144820567" lon="9.550537500928282"><ele>174.0</ele><time>2026-04-18T13:59:48Z</time></trkpt><trkpt lat="44.86002133467952" lon="9.550737864639187"><ele>172.33333333333334</ele><time>2026-04-18T13:59:49Z</time></trkpt><trkpt lat="44.86016909813444" lon="9.550949444607385"><ele>170.66666666666669</ele><time>2026-04-18T13:59:50Z</time></trkpt><trkpt lat="44.86032024902059" lon="9.551158316384534"><ele>169.0</ele><time>2026-04-18T13:59:51Z</time></trkpt><trkpt lat="44.86048249178204" lon="9.551351987098508"><ele>168.33333333333334</ele><time>2026-04-18T13:59:52Z</time></trkpt><trkpt lat="44.860652236509004" lon="9.551529582164216"><ele>167.66666666666666</ele><time>2026-04-18T13:59:53.001Z</time></trkpt><trkpt lat="44.86081163580604" lon="9.551688796893592"><ele>167.0</ele><time>2026-04-18T13:59:54.001Z</time></trkpt><trkpt lat="44.86096184437274" lon="9.551837951606931"><ele>167.0</ele><time>2026-04-18T13:59:55.001Z</time></trkpt><trkpt lat="44.86110248059874" lon="9.551986675560393"><ele>167.0</ele><time>2026-04-18T13:59:56.001Z</time></trkpt><trkpt lat="44.86123152634798" lon="9.55214162572825"><ele>167.0</ele><time>2026-04-18T13:59:57.001Z</time></trkpt><trkpt lat="44.8613445298005" lon="9.552329183364845"><ele>173.0</ele><time>2026-04-18T13:59:58.001Z</time></trkpt><trkpt lat="44.86144704561771" lon="9.552549945352823"><ele>179.0</ele><time>2026-04-18T13:59:59.001Z</time></trkpt><trkpt lat="44.861552195712065" lon="9.552781438794439"><ele>185.0</ele><time>2026-04-18T14:00:00.001Z</time></trkpt><trkpt lat="44.861648497857004" lon="9.55299373014705"><ele>183.75</ele><time>2026-04-18T14:00:01.001Z</time></trkpt><trkpt lat="44.86175179947736" lon="9.553176913987945"><ele>182.5</ele><time>2026-04-18T14:00:02.001Z</time></trkpt><trkpt lat="44.86185744803744" lon="9.55333205261824"><ele>181.25</ele><time>2026-04-18T14:00:03.001Z</time></trkpt><trkpt lat="44.86195130257779" lon="9.553451296938434"><ele>180.0</ele><time>2026-04-18T14:00:04.001Z</time></trkpt><trkpt lat="44.862047821757876" lon="9.553505577148853"><ele>180.0</ele><time>2026-04-18T14:00:05.001Z</time></trkpt><trkpt lat="44.86212175643603" lon="9.553518804406693"><ele>180.0</ele><time>2026-04-18T14:00:06.001Z</time></trkpt><trkpt lat="44.862203036613586" lon="9.553578077082477"><ele>180.0</ele><time>2026-04-18T14:00:07.001Z</time></trkpt><trkpt lat="44.862284834358164" lon="9.553671846215998"><ele>180.0</ele><time>2026-04-18T14:00:08.001Z</time></trkpt><trkpt lat="44.8623742991089" lon="9.553727689433716"><ele>180.0</ele><time>2026-04-18T14:00:09.001Z</time></trkpt><trkpt lat="44.8624491678441" lon="9.553802813734375"><ele>180.0</ele><time>2026-04-18T14:00:10.001Z</time></trkpt><trkpt lat="44.86252156859967" lon="9.553880490319917"><ele>180.0</ele><time>2026-04-18T14:00:11.001Z</time></trkpt><trkpt lat="44.86259128001106" lon="9.5539708405987"><ele>180.0</ele><time>2026-04-18T14:00:12.001Z</time></trkpt><trkpt lat="44.862657384386836" lon="9.55408167971092"><ele>180.0</ele><time>2026-04-18T14:00:13.001Z</time></trkpt><trkpt lat="44.8627150974268" lon="9.554202228815706"><ele>180.0</ele><time>2026-04-18T14:00:14.001Z</time></trkpt><trkpt lat="44.86276723199039" lon="9.554330328818898"><ele>180.0</ele><time>2026-04-18T14:00:15.001Z</time></trkpt><trkpt lat="44.86281914911849" lon="9.554464090179762"><ele>180.0</ele><time>2026-04-18T14:00:16.001Z</time></trkpt><trkpt lat="44.86287143732773" lon="9.554594328261015"><ele>180.0</ele><time>2026-04-18T14:00:17.001Z</time></trkpt><trkpt lat="44.86292859187432" lon="9.554717048283498"><ele>180.0</ele><time>2026-04-18T14:00:18.001Z</time></trkpt><trkpt lat="44.86299659278628" lon="9.55483660028706"><ele>180.0</ele><time>2026-04-18T14:00:19.001Z</time></trkpt><trkpt lat="44.86307257471866" lon="9.554950588685548"><ele>181.6</ele><time>2026-04-18T14:00:20.001Z</time></trkpt><trkpt lat="44.86315867879086" lon="9.555047416917667"><ele>183.2</ele><time>2026-04-18T14:00:21.001Z</time></trkpt><trkpt lat="44.8632545698594" lon="9.555123918135951"><ele>184.8</ele><time>2026-04-18T14:00:22.001Z</time></trkpt><trkpt lat="44.8633590361609" lon="9.555184098209974"><ele>186.4</ele><time>2026-04-18T14:00:23.001Z</time></trkpt><trkpt lat="44.86346927652363" lon="9.555231316641896"><ele>188.0</ele><time>2026-04-18T14:00:24.001Z</time></trkpt><trkpt lat="44.86358504082635" lon="9.555262786728301"><ele>188.0</ele><time>2026-04-18T14:00:25.001Z</time></trkpt><trkpt lat="44.8637056494628" lon="9.555269714804025"><ele>188.0</ele><time>2026-04-18T14:00:26.002Z</time></trkpt><trkpt lat="44.86384203568654" lon="9.555243880661669"><ele>188.0</ele><time>2026-04-18T14:00:27.002Z</time></trkpt><trkpt lat="44.86399614866593" lon="9.555197531932127"><ele>188.0</ele><time>2026-04-18T14:00:28.002Z</time></trkpt><trkpt lat="44.86416658382197" lon="9.555142099995212"><ele>189.66666666666666</ele><time>2026-04-18T14:00:29.002Z</time></trkpt><trkpt lat="44.864349094365664" lon="9.55510025315312"><ele>191.33333333333331</ele><time>2026-04-18T14:00:30.002Z</time></trkpt><trkpt lat="44.86452504968893" lon="9.555044432180152"><ele>193.0</ele><time>2026-04-18T14:00:31.002Z</time></trkpt><trkpt lat="44.864701573897" lon="9.554991483255735"><ele>193.0</ele><time>2026-04-18T14:00:32.002Z</time></trkpt><trkpt lat="44.86487231522836" lon="9.554940268918786"><ele>193.0</ele><time>2026-04-18T14:00:33.002Z</time></trkpt><trkpt lat="44.865033861443465" lon="9.554880242848483"><ele>193.0</ele><time>2026-04-18T14:00:34.002Z</time></trkpt><trkpt lat="44.86519149402389" lon="9.554847022501429"><ele>193.5</ele><time>2026-04-18T14:00:35.002Z</time></trkpt><trkpt lat="44.86532609557623" lon="9.55481185194355"><ele>194.0</ele><time>2026-04-18T14:00:36.002Z</time></trkpt><trkpt lat="44.865450354613905" lon="9.554774546588543"><ele>194.5</ele><time>2026-04-18T14:00:37.002Z</time></trkpt><trkpt lat="44.86557073595441" lon="9.554741825474395"><ele>195.0</ele><time>2026-04-18T14:00:38.002Z</time></trkpt><trkpt lat="44.86568298254518" lon="9.554717196488978"><ele>195.0</ele><time>2026-04-18T14:00:39.002Z</time></trkpt><trkpt lat="44.86579091085488" lon="9.554701063749679"><ele>195.0</ele><time>2026-04-18T14:00:40.002Z</time></trkpt><trkpt lat="44.86589751541597" lon="9.554695045369144"><ele>195.0</ele><time>2026-04-18T14:00:41.002Z</time></trkpt><trkpt lat="44.866000381752954" lon="9.554712780978628"><ele>195.0</ele><time>2026-04-18T14:00:42.002Z</time></trkpt><trkpt lat="44.86610103909225" lon="9.554757184410004"><ele>195.0</ele><time>2026-04-18T14:00:43.002Z</time></trkpt><trkpt lat="44.866200498731914" lon="9.554836725122177"><ele>192.75</ele><time>2026-04-18T14:00:44.002Z</time></trkpt><trkpt lat="44.86629225601931" lon="9.554943671652547"><ele>190.5</ele><time>2026-04-18T14:00:45.002Z</time></trkpt><trkpt lat="44.86637635593039" lon="9.55505598417674"><ele>188.25</ele><time>2026-04-18T14:00:46.002Z</time></trkpt><trkpt lat="44.866460355208524" lon="9.555168367149085"><ele>186.0</ele><time>2026-04-18T14:00:47.002Z</time></trkpt><trkpt lat="44.86654280551063" lon="9.555278736305334"><ele>186.0</ele><time>2026-04-18T14:00:48.002Z</time></trkpt><trkpt lat="44.8666248110968" lon="9.555386916403057"><ele>186.0</ele><time>2026-04-18T14:00:49.002Z</time></trkpt><trkpt lat="44.86671067854531" lon="9.555498743844288"><ele>186.0</ele><time>2026-04-18T14:00:50.002Z</time></trkpt><trkpt lat="44.86679680846393" lon="9.555613468962951"><ele>186.0</ele><time>2026-04-18T14:00:51.002Z</time></trkpt><trkpt lat="44.86688202298315" lon="9.555726527251029"><ele>186.0</ele><time>2026-04-18T14:00:52.002Z</time></trkpt><trkpt lat="44.866966703994535" lon="9.555836678605159"><ele>186.0</ele><time>2026-04-18T14:00:53.002Z</time></trkpt><trkpt lat="44.867061536559" lon="9.55593157246737"><ele>186.0</ele><time>2026-04-18T14:00:54.002Z</time></trkpt><trkpt lat="44.86717446673798" lon="9.556005329089922"><ele>186.0</ele><time>2026-04-18T14:00:55.002Z</time></trkpt><trkpt lat="44.86730712701671" lon="9.556062613024352"><ele>186.0</ele><time>2026-04-18T14:00:56.002Z</time></trkpt><trkpt lat="44.86745094453673" lon="9.556112609590947"><ele>186.0</ele><time>2026-04-18T14:00:57.002Z</time></trkpt><trkpt lat="44.867591898160136" lon="9.556154726034112"><ele>186.0</ele><time>2026-04-18T14:00:58.002Z</time></trkpt><trkpt lat="44.86772198205187" lon="9.55618799108151"><ele>186.0</ele><time>2026-04-18T14:00:59.003Z</time></trkpt><trkpt lat="44.86784452302319" lon="9.556223668908178"><ele>186.5</ele><time>2026-04-18T14:01:00.003Z</time></trkpt><trkpt lat="44.8679626420664" lon="9.556265718467822"><ele>187.0</ele><time>2026-04-18T14:01:01.003Z</time></trkpt><trkpt lat="44.86807442454534" lon="9.556320159529632"><ele>187.5</ele><time>2026-04-18T14:01:02.003Z</time></trkpt><trkpt lat="44.86817145562185" lon="9.556401537107305"><ele>188.0</ele><time>2026-04-18T14:01:03.003Z</time></trkpt><trkpt lat="44.86825463204201" lon="9.556503379394163"><ele>188.0</ele><time>2026-04-18T14:01:04.003Z</time></trkpt><trkpt lat="44.86833171693766" lon="9.556629466022729"><ele>188.0</ele><time>2026-04-18T14:01:05.003Z</time></trkpt><trkpt lat="44.868396539621045" lon="9.556766273705783"><ele>188.0</ele><time>2026-04-18T14:01:06.003Z</time></trkpt><trkpt lat="44.86846072909595" lon="9.556912728701661"><ele>188.0</ele><time>2026-04-18T14:01:07.003Z</time></trkpt><trkpt lat="44.8685188618631" lon="9.557055982662725"><ele>187.4</ele><time>2026-04-18T14:01:08.003Z</time></trkpt><trkpt lat="44.86857053673209" lon="9.557190888634096"><ele>186.8</ele><time>2026-04-18T14:01:09.003Z</time></trkpt><trkpt lat="44.868626840894336" lon="9.557323735294359"><ele>186.2</ele><time>2026-04-18T14:01:10.003Z</time></trkpt><trkpt lat="44.868690659391625" lon="9.557457277722483"><ele>185.6</ele><time>2026-04-18T14:01:11.003Z</time></trkpt><trkpt lat="44.86876091867986" lon="9.557579060294856"><ele>185.0</ele><time>2026-04-18T14:01:12.003Z</time></trkpt><trkpt lat="44.86884751884324" lon="9.557683414239014"><ele>185.0</ele><time>2026-04-18T14:01:13.003Z</time></trkpt><trkpt lat="44.86895632720546" lon="9.557763955178936"><ele>185.0</ele><time>2026-04-18T14:01:14.003Z</time></trkpt><trkpt lat="44.86909258862732" lon="9.557846250256063"><ele>185.0</ele><time>2026-04-18T14:01:15.003Z</time></trkpt><trkpt lat="44.86926147830111" lon="9.557895761145813"><ele>185.0</ele><time>2026-04-18T14:01:16.003Z</time></trkpt><trkpt lat="44.869431668595446" lon="9.557938443556301"><ele>188.66666666666666</ele><time>2026-04-18T14:01:17.003Z</time></trkpt><trkpt lat="44.86959396636104" lon="9.557950414795512"><ele>192.33333333333331</ele><time>2026-04-18T14:01:18.003Z</time></trkpt><trkpt lat="44.86973715195171" lon="9.5579692483421"><ele>196.0</ele><time>2026-04-18T14:01:19.003Z</time></trkpt><trkpt lat="44.86990122401036" lon="9.557935999507029"><ele>196.0</ele><time>2026-04-18T14:01:20.003Z</time></trkpt><trkpt lat="44.87008782373706" lon="9.557873193821825"><ele>196.0</ele><time>2026-04-18T14:01:21.003Z</time></trkpt><trkpt lat="44.87029337666088" lon="9.557832156352898"><ele>196.0</ele><time>2026-04-18T14:01:22.003Z</time></trkpt><trkpt lat="44.8704894051108" lon="9.557775634411438"><ele>192.66666666666666</ele><time>2026-04-18T14:01:23.003Z</time></trkpt><trkpt lat="44.87067549756117" lon="9.557721499314571"><ele>189.33333333333331</ele><time>2026-04-18T14:01:23.999Z</time></trkpt><trkpt lat="44.87084566509626" lon="9.55764872161777"><ele>186.0</ele><time>2026-04-18T14:01:24.999Z</time></trkpt><trkpt lat="44.87100380737782" lon="9.55762087211693"><ele>184.0</ele><time>2026-04-18T14:01:25.999Z</time></trkpt><trkpt lat="44.87115646392248" lon="9.557618204332597"><ele>182.0</ele><time>2026-04-18T14:01:26.999Z</time></trkpt><trkpt lat="44.87130279673565" lon="9.557644519417597"><ele>180.0</ele><time>2026-04-18T14:01:27.999Z</time></trkpt><trkpt lat="44.87143640195175" lon="9.557706370692669"><ele>178.0</ele><time>2026-04-18T14:01:28.999Z</time></trkpt><trkpt lat="44.87156783819777" lon="9.557804421865674"><ele>176.66666666666669</ele><time>2026-04-18T14:01:29.999Z</time></trkpt><trkpt lat="44.871691846842666" lon="9.557933316998394"><ele>175.33333333333334</ele><time>2026-04-18T14:01:30.999Z</time></trkpt><trkpt lat="44.871803308330314" lon="9.558092649078956"><ele>174.0</ele><time>2026-04-18T14:01:32Z</time></trkpt><trkpt lat="44.87189170313805" lon="9.558277060090816"><ele>174.0</ele><time>2026-04-18T14:01:33Z</time></trkpt><trkpt lat="44.871962971767026" lon="9.55849128993473"><ele>174.0</ele><time>2026-04-18T14:01:34Z</time></trkpt><trkpt lat="44.87203267651919" lon="9.558718785377712"><ele>174.0</ele><time>2026-04-18T14:01:35Z</time></trkpt><trkpt lat="44.87210522337625" lon="9.558933772387046"><ele>175.33333333333334</ele><time>2026-04-18T14:01:36Z</time></trkpt><trkpt lat="44.87218939040831" lon="9.559125800032952"><ele>176.66666666666669</ele><time>2026-04-18T14:01:37Z</time></trkpt><trkpt lat="44.87229706762242" lon="9.559284526941692"><ele>178.0</ele><time>2026-04-18T14:01:38Z</time></trkpt><trkpt lat="44.87244025342361" lon="9.559426227038168"><ele>179.0</ele><time>2026-04-18T14:01:39Z</time></trkpt><trkpt lat="44.87260581890472" lon="9.55955061758517"><ele>180.0</ele><time>2026-04-18T14:01:40Z</time></trkpt><trkpt lat="44.87278990837073" lon="9.559673353830041"><ele>181.0</ele><time>2026-04-18T14:01:41Z</time></trkpt><trkpt lat="44.87296847719613" lon="9.559818875228853"><ele>181.0</ele><time>2026-04-18T14:01:42Z</time></trkpt><trkpt lat="44.87314384146418" lon="9.559946852805119"><ele>181.0</ele><time>2026-04-18T14:01:43Z</time></trkpt><trkpt lat="44.873319011694385" lon="9.560075409804913"><ele>181.0</ele><time>2026-04-18T14:01:44Z</time></trkpt><trkpt lat="44.873490176371405" lon="9.560200413360288"><ele>180.33333333333334</ele><time>2026-04-18T14:01:45Z</time></trkpt><trkpt lat="44.8736686102353" lon="9.560330114478054"><ele>179.66666666666666</ele><time>2026-04-18T14:01:46Z</time></trkpt><trkpt lat="44.87385672962828" lon="9.560445699580706"><ele>179.0</ele><time>2026-04-18T14:01:47Z</time></trkpt><trkpt lat="44.874038461516044" lon="9.56058457337897"><ele>179.0</ele><time>2026-04-18T14:01:48Z</time></trkpt><trkpt lat="44.87421273522738" lon="9.560713251169583"><ele>179.0</ele><time>2026-04-18T14:01:49Z</time></trkpt><trkpt lat="44.87437317237472" lon="9.560833183838197"><ele>179.0</ele><time>2026-04-18T14:01:50Z</time></trkpt><trkpt lat="44.874522860051115" lon="9.560938030617287"><ele>178.5</ele><time>2026-04-18T14:01:51Z</time></trkpt><trkpt lat="44.87465531078659" lon="9.561030021284015"><ele>178.0</ele><time>2026-04-18T14:01:52Z</time></trkpt><trkpt lat="44.874784705686366" lon="9.56109369093563"><ele>177.5</ele><time>2026-04-18T14:01:53Z</time></trkpt><trkpt lat="44.87492606488367" lon="9.561112824807642"><ele>177.0</ele><time>2026-04-18T14:01:54Z</time></trkpt><trkpt lat="44.875088311436166" lon="9.561090964324725"><ele>176.66666666666666</ele><time>2026-04-18T14:01:55Z</time></trkpt><trkpt lat="44.87526311003036" lon="9.56104300544567"><ele>176.33333333333331</ele><time>2026-04-18T14:01:56Z</time></trkpt><trkpt lat="44.87545227679253" lon="9.56099053336066"><ele>176.0</ele><time>2026-04-18T14:01:57Z</time></trkpt><trkpt lat="44.87562234773854" lon="9.560955439490328"><ele>176.0</ele><time>2026-04-18T14:01:58Z</time></trkpt><trkpt lat="44.87578948148896" lon="9.560923859715782"><ele>176.0</ele><time>2026-04-18T14:01:59.001Z</time></trkpt><trkpt lat="44.875948710436106" lon="9.560910270403134"><ele>176.0</ele><time>2026-04-18T14:02:00.001Z</time></trkpt><trkpt lat="44.87610210632372" lon="9.560926973673126"><ele>175.66666666666666</ele><time>2026-04-18T14:02:01.001Z</time></trkpt><trkpt lat="44.87626027853579" lon="9.560974276733296"><ele>175.33333333333334</ele><time>2026-04-18T14:02:02.001Z</time></trkpt><trkpt lat="44.8764261762513" lon="9.561043587907072"><ele>175.0</ele><time>2026-04-18T14:02:03.001Z</time></trkpt><trkpt lat="44.876586507571616" lon="9.561133379086987"><ele>175.0</ele><time>2026-04-18T14:02:04.001Z</time></trkpt><trkpt lat="44.87674594732422" lon="9.561253535045932"><ele>175.0</ele><time>2026-04-18T14:02:05.001Z</time></trkpt><trkpt lat="44.87690607336072" lon="9.561398959508914"><ele>175.0</ele><time>2026-04-18T14:02:06.001Z</time></trkpt><trkpt lat="44.87706830218553" lon="9.561559263266492"><ele>175.0</ele><time>2026-04-18T14:02:07.001Z</time></trkpt><trkpt lat="44.877230612986324" lon="9.561724222790367"><ele>175.0</ele><time>2026-04-18T14:02:08.001Z</time></trkpt><trkpt lat="44.877388230674065" lon="9.561882612927434"><ele>175.0</ele><time>2026-04-18T14:02:09.001Z</time></trkpt><trkpt lat="44.87753763990614" lon="9.562036990548526"><ele>174.66666666666669</ele><time>2026-04-18T14:02:10.001Z</time></trkpt><trkpt lat="44.87768905968382" lon="9.562196303883843"><ele>174.33333333333334</ele><time>2026-04-18T14:02:11.001Z</time></trkpt><trkpt lat="44.87783762408717" lon="9.562358144170624"><ele>174.0</ele><time>2026-04-18T14:02:12.001Z</time></trkpt><trkpt lat="44.877987772043475" lon="9.56252113958459"><ele>174.0</ele><time>2026-04-18T14:02:13.001Z</time></trkpt><trkpt lat="44.87814268895693" lon="9.56268469050811"><ele>174.0</ele><time>2026-04-18T14:02:14.001Z</time></trkpt><trkpt lat="44.878296291663524" lon="9.562852503255"><ele>174.0</ele><time>2026-04-18T14:02:15.001Z</time></trkpt><trkpt lat="44.87844887449385" lon="9.563025059740326"><ele>171.33333333333334</ele><time>2026-04-18T14:02:16.001Z</time></trkpt><trkpt lat="44.87859765223273" lon="9.563207636805595"><ele>168.66666666666669</ele><time>2026-04-18T14:02:17.001Z</time></trkpt><trkpt lat="44.87874188907418" lon="9.563398510052613"><ele>166.0</ele><time>2026-04-18T14:02:18.001Z</time></trkpt><trkpt lat="44.878888098494684" lon="9.563593183948406"><ele>163.66666666666669</ele><time>2026-04-18T14:02:19.001Z</time></trkpt><trkpt lat="44.87903763061689" lon="9.563786421949057"><ele>161.33333333333334</ele><time>2026-04-18T14:02:20.001Z</time></trkpt><trkpt lat="44.87918827824581" lon="9.563987716718373"><ele>159.0</ele><time>2026-04-18T14:02:21.001Z</time></trkpt><trkpt lat="44.87933630280001" lon="9.564203266553614"><ele>159.0</ele><time>2026-04-18T14:02:22.001Z</time></trkpt><trkpt lat="44.87948071016861" lon="9.564423395354327"><ele>159.0</ele><time>2026-04-18T14:02:23.001Z</time></trkpt><trkpt lat="44.87963125608582" lon="9.564633895971234"><ele>159.0</ele><time>2026-04-18T14:02:24.001Z</time></trkpt><trkpt lat="44.87978565244961" lon="9.564839216703218"><ele>162.33333333333334</ele><time>2026-04-18T14:02:25.001Z</time></trkpt><trkpt lat="44.87994017363344" lon="9.565045358063564"><ele>165.66666666666669</ele><time>2026-04-18T14:02:26.001Z</time></trkpt><trkpt lat="44.88009449350549" lon="9.565251751710543"><ele>169.0</ele><time>2026-04-18T14:02:27.001Z</time></trkpt><trkpt lat="44.88024999760928" lon="9.565458060828625"><ele>169.0</ele><time>2026-04-18T14:02:28.001Z</time></trkpt><trkpt lat="44.88040431138448" lon="9.565662083751526"><ele>169.0</ele><time>2026-04-18T14:02:29.001Z</time></trkpt><trkpt lat="44.88055830986619" lon="9.565871497670308"><ele>169.0</ele><time>2026-04-18T14:02:30.002Z</time></trkpt><trkpt lat="44.880714592914615" lon="9.566075424001435"><ele>169.0</ele><time>2026-04-18T14:02:31.002Z</time></trkpt><trkpt lat="44.88086998085473" lon="9.5662783319751"><ele>169.0</ele><time>2026-04-18T14:02:32.002Z</time></trkpt><trkpt lat="44.88102498958281" lon="9.566481895565147"><ele>169.0</ele><time>2026-04-18T14:02:33.002Z</time></trkpt><trkpt lat="44.88117690575263" lon="9.566686049755713"><ele>169.0</ele><time>2026-04-18T14:02:34.002Z</time></trkpt><trkpt lat="44.881317788460436" lon="9.566875114863505"><ele>169.0</ele><time>2026-04-18T14:02:35.002Z</time></trkpt><trkpt lat="44.88144926130639" lon="9.567055729804395"><ele>169.0</ele><time>2026-04-18T14:02:36.002Z</time></trkpt><trkpt lat="44.88157298313928" lon="9.567243415850383"><ele>168.33333333333334</ele><time>2026-04-18T14:02:37.002Z</time></trkpt><trkpt lat="44.88168834652558" lon="9.567451644343759"><ele>167.66666666666666</ele><time>2026-04-18T14:02:38.002Z</time></trkpt><trkpt lat="44.88179080656788" lon="9.567681027968494"><ele>167.0</ele><time>2026-04-18T14:02:39.002Z</time></trkpt><trkpt lat="44.881885143723416" lon="9.56793407332946"><ele>167.0</ele><time>2026-04-18T14:02:40.002Z</time></trkpt><trkpt lat="44.881975426893284" lon="9.568202195855974"><ele>167.0</ele><time>2026-04-18T14:02:41.002Z</time></trkpt><trkpt lat="44.88207244527723" lon="9.568478945473732"><ele>167.0</ele><time>2026-04-18T14:02:42.002Z</time></trkpt><trkpt lat="44.882174258060964" lon="9.56875484617566"><ele>168.33333333333331</ele><time>2026-04-18T14:02:43.002Z</time></trkpt><trkpt lat="44.882275658695136" lon="9.569036936021899"><ele>169.66666666666666</ele><time>2026-04-18T14:02:44.002Z</time></trkpt><trkpt lat="44.882375165518035" lon="9.569319218707376"><ele>171.0</ele><time>2026-04-18T14:02:45.002Z</time></trkpt><trkpt lat="44.882473937003965" lon="9.569601032536433"><ele>173.5</ele><time>2026-04-18T14:02:46.002Z</time></trkpt><trkpt lat="44.8825735725696" lon="9.569884901887457"><ele>176.0</ele><time>2026-04-18T14:02:47.002Z</time></trkpt><trkpt lat="44.8826727434851" lon="9.570170534651876"><ele>172.33333333333331</ele><time>2026-04-18T14:02:48.002Z</time></trkpt><trkpt lat="44.88277237021734" lon="9.570451021453675"><ele>168.66666666666666</ele><time>2026-04-18T14:02:49.002Z</time></trkpt><trkpt lat="44.88287346378064" lon="9.57073582010934"><ele>165.0</ele><time>2026-04-18T14:02:50.002Z</time></trkpt><trkpt lat="44.88297532040517" lon="9.571020594888141"><ele>166.33333333333334</ele><time>2026-04-18T14:02:51.002Z</time></trkpt><trkpt lat="44.883075244360796" lon="9.571299214094507"><ele>167.66666666666669</ele><time>2026-04-18T14:02:52.002Z</time></trkpt><trkpt lat="44.88317386883588" lon="9.571576810004787"><ele>169.0</ele><time>2026-04-18T14:02:53.002Z</time></trkpt><trkpt lat="44.88326628321744" lon="9.57185395863025"><ele>167.66666666666669</ele><time>2026-04-18T14:02:54.002Z</time></trkpt><trkpt lat="44.88335700369147" lon="9.572119720920833"><ele>166.33333333333334</ele><time>2026-04-18T14:02:55.002Z</time></trkpt><trkpt lat="44.883442936618586" lon="9.572365666174305"><ele>165.0</ele><time>2026-04-18T14:02:56.002Z</time></trkpt><trkpt lat="44.88352683585631" lon="9.572608926169664"><ele>165.0</ele><time>2026-04-18T14:02:57.002Z</time></trkpt><trkpt lat="44.88360630675491" lon="9.57284186077385"><ele>165.0</ele><time>2026-04-18T14:02:58.002Z</time></trkpt><trkpt lat="44.88368574129495" lon="9.573060385990463"><ele>165.0</ele><time>2026-04-18T14:02:59.002Z</time></trkpt><trkpt lat="44.88376116159758" lon="9.573275569403036"><ele>166.0</ele><time>2026-04-18T14:03:00.002Z</time></trkpt><trkpt lat="44.8838302679926" lon="9.573479142143125"><ele>167.0</ele><time>2026-04-18T14:03:01.002Z</time></trkpt><trkpt lat="44.8838883888956" lon="9.573690547638439"><ele>168.0</ele><time>2026-04-18T14:03:02.002Z</time></trkpt><trkpt lat="44.8839135167894" lon="9.57390014369404"><ele>168.0</ele><time>2026-04-18T14:03:03.003Z</time></trkpt><trkpt lat="44.88390779837793" lon="9.574110940614956"><ele>168.0</ele><time>2026-04-18T14:03:04.003Z</time></trkpt><trkpt lat="44.88387346531207" lon="9.574343187239094"><ele>168.0</ele><time>2026-04-18T14:03:05.003Z</time></trkpt><trkpt lat="44.88389372387282" lon="9.574569536505647"><ele>167.66666666666666</ele><time>2026-04-18T14:03:06.003Z</time></trkpt><trkpt lat="44.88380143543495" lon="9.574830775476173"><ele>167.33333333333331</ele><time>2026-04-18T14:03:07.003Z</time></trkpt><trkpt lat="44.88379918702868" lon="9.57507460541805"><ele>167.0</ele><time>2026-04-18T14:03:08.003Z</time></trkpt><trkpt lat="44.883814733012656" lon="9.575297503977534"><ele>168.5</ele><time>2026-04-18T14:03:09.003Z</time></trkpt><trkpt lat="44.88383809040999" lon="9.575506890264059"><ele>170.0</ele><time>2026-04-18T14:03:10.003Z</time></trkpt><trkpt lat="44.88388410288403" lon="9.575677785271143"><ele>171.5</ele><time>2026-04-18T14:03:11.003Z</time></trkpt><trkpt lat="44.88395211341908" lon="9.575814381386268"><ele>173.0</ele><time>2026-04-18T14:03:12.003Z</time></trkpt><trkpt lat="44.88405212625101" lon="9.575934384255941"><ele>173.0</ele><time>2026-04-18T14:03:13.003Z</time></trkpt><trkpt lat="44.88417220243417" lon="9.576033716159781"><ele>173.0</ele><time>2026-04-18T14:03:14.003Z</time></trkpt><trkpt lat="44.88430086678531" lon="9.576129897091521"><ele>173.0</ele><time>2026-04-18T14:03:15.003Z</time></trkpt><trkpt lat="44.88442351183619" lon="9.57623027707433"><ele>173.0</ele><time>2026-04-18T14:03:16.003Z</time></trkpt><trkpt lat="44.884519629575955" lon="9.57633280313157"><ele>172.25</ele><time>2026-04-18T14:03:17.003Z</time></trkpt><trkpt lat="44.88459520853962" lon="9.576463634763801"><ele>171.5</ele><time>2026-04-18T14:03:18.003Z</time></trkpt><trkpt lat="44.88464078234601" lon="9.576618488423282"><ele>170.75</ele><time>2026-04-18T14:03:19.003Z</time></trkpt><trkpt lat="44.88465225221764" lon="9.576808847721603"><ele>170.0</ele><time>2026-04-18T14:03:20.003Z</time></trkpt><trkpt lat="44.88465388169353" lon="9.577019770174944"><ele>170.0</ele><time>2026-04-18T14:03:21.003Z</time></trkpt><trkpt lat="44.884657332551974" lon="9.577235867127825"><ele>170.0</ele><time>2026-04-18T14:03:22.003Z</time></trkpt><trkpt lat="44.884664232064154" lon="9.577456656463905"><ele>170.0</ele><time>2026-04-18T14:03:23.003Z</time></trkpt><trkpt lat="44.88467639250162" lon="9.577687181300856"><ele>172.33333333333331</ele><time>2026-04-18T14:03:24.003Z</time></trkpt><trkpt lat="44.8846989782157" lon="9.577934511012728"><ele>174.66666666666666</ele><time>2026-04-18T14:03:25.003Z</time></trkpt><trkpt lat="44.88473498073856" lon="9.578194806662095"><ele>177.0</ele><time>2026-04-18T14:03:26.003Z</time></trkpt><trkpt lat="44.88478054395703" lon="9.578461216980372"><ele>177.66666666666666</ele><time>2026-04-18T14:03:27.003Z</time></trkpt><trkpt lat="44.884823370680756" lon="9.57872946807074"><ele>178.33333333333331</ele><time>2026-04-18T14:03:28.003Z</time></trkpt><trkpt lat="44.8848635717634" lon="9.578985390718222"><ele>179.0</ele><time>2026-04-18T14:03:29.003Z</time></trkpt><trkpt lat="44.88490783156284" lon="9.579229613103657"><ele>179.0</ele><time>2026-04-18T14:03:29.999Z</time></trkpt><trkpt lat="44.88495517076625" lon="9.579474633952291"><ele>179.0</ele><time>2026-04-18T14:03:30.999Z</time></trkpt><trkpt lat="44.88501050765271" lon="9.579716834323607"><ele>179.0</ele><time>2026-04-18T14:03:32Z</time></trkpt><trkpt lat="44.88508357422317" lon="9.579950431286766"><ele>176.66666666666666</ele><time>2026-04-18T14:03:33Z</time></trkpt><trkpt lat="44.88516567552031" lon="9.580189896244404"><ele>174.33333333333334</ele><time>2026-04-18T14:03:34Z</time></trkpt><trkpt lat="44.88526350148505" lon="9.580422607275075"><ele>172.0</ele><time>2026-04-18T14:03:35Z</time></trkpt><trkpt lat="44.88535151843208" lon="9.580660107105798"><ele>172.0</ele><time>2026-04-18T14:03:36Z</time></trkpt><trkpt lat="44.8854224461809" lon="9.58091001027311"><ele>172.0</ele><time>2026-04-18T14:03:37Z</time></trkpt><trkpt lat="44.8854668843715" lon="9.581172417431286"><ele>172.0</ele><time>2026-04-18T14:03:38Z</time></trkpt><trkpt lat="44.88548655334714" lon="9.581431042373982"><ele>172.66666666666669</ele><time>2026-04-18T14:03:39Z</time></trkpt><trkpt lat="44.8855081526555" lon="9.58166680011878"><ele>173.33333333333334</ele><time>2026-04-18T14:03:40Z</time></trkpt><trkpt lat="44.88554520024842" lon="9.581894048941836"><ele>174.0</ele><time>2026-04-18T14:03:41Z</time></trkpt><trkpt lat="44.88561171157469" lon="9.582095668424248"><ele>176.0</ele><time>2026-04-18T14:03:42Z</time></trkpt><trkpt lat="44.88570635374905" lon="9.582296243551747"><ele>178.0</ele><time>2026-04-18T14:03:43Z</time></trkpt><trkpt lat="44.88581076047497" lon="9.58249813537578"><ele>180.0</ele><time>2026-04-18T14:03:44Z</time></trkpt><trkpt lat="44.88591520474735" lon="9.582710693025044"><ele>179.66666666666666</ele><time>2026-04-18T14:03:45Z</time></trkpt><trkpt lat="44.88600483296261" lon="9.582909415088679"><ele>179.33333333333331</ele><time>2026-04-18T14:03:46Z</time></trkpt><trkpt lat="44.88609404902045" lon="9.583093645383638"><ele>179.0</ele><time>2026-04-18T14:03:47Z</time></trkpt><trkpt lat="44.88618076959714" lon="9.583240519418323"><ele>179.0</ele><time>2026-04-18T14:03:48Z</time></trkpt><trkpt lat="44.886277744498784" lon="9.58336023027212"><ele>179.0</ele><time>2026-04-18T14:03:49Z</time></trkpt><trkpt lat="44.88639297697307" lon="9.583430619097873"><ele>179.0</ele><time>2026-04-18T14:03:50Z</time></trkpt><trkpt lat="44.8865257728931" lon="9.583445186276563"><ele>179.0</ele><time>2026-04-18T14:03:51Z</time></trkpt><trkpt lat="44.886647620221446" lon="9.583417241314196"><ele>179.25</ele><time>2026-04-18T14:03:52Z</time></trkpt><trkpt lat="44.88679257080911" lon="9.583376302657475"><ele>179.5</ele><time>2026-04-18T14:03:53Z</time></trkpt><trkpt lat="44.88694014265382" lon="9.583352729286595"><ele>179.75</ele><time>2026-04-18T14:03:54Z</time></trkpt><trkpt lat="44.88707927406454" lon="9.583376752773304"><ele>180.0</ele><time>2026-04-18T14:03:55Z</time></trkpt><trkpt lat="44.8872094158937" lon="9.583429608709"><ele>180.0</ele><time>2026-04-18T14:03:56Z</time></trkpt><trkpt lat="44.88732576218053" lon="9.583526112687574"><ele>180.0</ele><time>2026-04-18T14:03:57Z</time></trkpt><trkpt lat="44.887428746514466" lon="9.58366312772374"><ele>180.0</ele><time>2026-04-18T14:03:58Z</time></trkpt><trkpt lat="44.88751539229943" lon="9.583825124064088"><ele>180.0</ele><time>2026-04-18T14:03:59Z</time></trkpt><trkpt lat="44.887594122205165" lon="9.583985359493466"><ele>181.0</ele><time>2026-04-18T14:04:00Z</time></trkpt><trkpt lat="44.88769781175268" lon="9.584112107843204"><ele>182.0</ele><time>2026-04-18T14:04:01Z</time></trkpt><trkpt lat="44.88781827638989" lon="9.584174484805885"><ele>183.0</ele><time>2026-04-18T14:04:02Z</time></trkpt><trkpt lat="44.88794687912873" lon="9.584185480818268"><ele>184.0</ele><time>2026-04-18T14:04:03Z</time></trkpt><trkpt lat="44.88808488857796" lon="9.584159895054919"><ele>184.0</ele><time>2026-04-18T14:04:04.001Z</time></trkpt><trkpt lat="44.888227268406105" lon="9.584123091197295"><ele>184.0</ele><time>2026-04-18T14:04:05.001Z</time></trkpt><trkpt lat="44.888372086642384" lon="9.58410263304508"><ele>184.0</ele><time>2026-04-18T14:04:06.001Z</time></trkpt><trkpt lat="44.88850979243578" lon="9.584122027955694"><ele>184.0</ele><time>2026-04-18T14:04:07.001Z</time></trkpt><trkpt lat="44.88862755043191" lon="9.58418433739558"><ele>183.25</ele><time>2026-04-18T14:04:08.001Z</time></trkpt><trkpt lat="44.888737749531536" lon="9.584280343802986"><ele>182.5</ele><time>2026-04-18T14:04:09.001Z</time></trkpt><trkpt lat="44.888833542149506" lon="9.584407538982461"><ele>181.75</ele><time>2026-04-18T14:04:10.001Z</time></trkpt><trkpt lat="44.888921309680825" lon="9.584554487100528"><ele>181.0</ele><time>2026-04-18T14:04:11.001Z</time></trkpt><trkpt lat="44.88900321263346" lon="9.58471223174608"><ele>181.0</ele><time>2026-04-18T14:04:12.001Z</time></trkpt><trkpt lat="44.88907987179855" lon="9.584870903033126"><ele>181.0</ele><time>2026-04-18T14:04:13.001Z</time></trkpt><trkpt lat="44.88916033074442" lon="9.585022018293902"><ele>181.0</ele><time>2026-04-18T14:04:14.001Z</time></trkpt><trkpt lat="44.889245779390464" lon="9.585165319257042"><ele>181.0</ele><time>2026-04-18T14:04:15.001Z</time></trkpt><trkpt lat="44.8893432763173" lon="9.585300874561701"><ele>184.0</ele><time>2026-04-18T14:04:16.001Z</time></trkpt><trkpt lat="44.88944437824365" lon="9.58541755226441"><ele>187.0</ele><time>2026-04-18T14:04:17.001Z</time></trkpt><trkpt lat="44.8895522116096" lon="9.585513131852158"><ele>190.0</ele><time>2026-04-18T14:04:18.001Z</time></trkpt><trkpt lat="44.889670938532895" lon="9.58557707685703"><ele>193.0</ele><time>2026-04-18T14:04:19.001Z</time></trkpt><trkpt lat="44.889804580529876" lon="9.58559563327776"><ele>193.0</ele><time>2026-04-18T14:04:20.001Z</time></trkpt><trkpt lat="44.889940830376105" lon="9.585581121290522"><ele>193.0</ele><time>2026-04-18T14:04:21.001Z</time></trkpt><trkpt lat="44.890072314950075" lon="9.585545932777078"><ele>193.0</ele><time>2026-04-18T14:04:22.001Z</time></trkpt><trkpt lat="44.89020177689795" lon="9.585504880163901"><ele>193.0</ele><time>2026-04-18T14:04:23.001Z</time></trkpt><trkpt lat="44.89032358215759" lon="9.585463198967163"><ele>192.5</ele><time>2026-04-18T14:04:24.001Z</time></trkpt><trkpt lat="44.890448393903625" lon="9.585440767867102"><ele>192.0</ele><time>2026-04-18T14:04:25.001Z</time></trkpt><trkpt lat="44.89058103122303" lon="9.58542471285581"><ele>191.5</ele><time>2026-04-18T14:04:26.001Z</time></trkpt><trkpt lat="44.89071437682494" lon="9.585411484601028"><ele>191.0</ele><time>2026-04-18T14:04:27.001Z</time></trkpt><trkpt lat="44.89084874295121" lon="9.58540048018673"><ele>191.33333333333331</ele><time>2026-04-18T14:04:28.001Z</time></trkpt><trkpt lat="44.8909984846766" lon="9.585389598690782"><ele>191.66666666666666</ele><time>2026-04-18T14:04:29.001Z</time></trkpt><trkpt lat="44.8911534311062" lon="9.585382448933782"><ele>192.0</ele><time>2026-04-18T14:04:30.001Z</time></trkpt><trkpt lat="44.89131570990728" lon="9.58537776499064"><ele>192.0</ele><time>2026-04-18T14:04:31.001Z</time></trkpt><trkpt lat="44.89146762538511" lon="9.585377443765596"><ele>192.0</ele><time>2026-04-18T14:04:32.001Z</time></trkpt><trkpt lat="44.89160367160977" lon="9.585369342381648"><ele>192.0</ele><time>2026-04-18T14:04:33.001Z</time></trkpt><trkpt lat="44.891735726767834" lon="9.585365279163254"><ele>192.0</ele><time>2026-04-18T14:04:34.001Z</time></trkpt><trkpt lat="44.89188287409683" lon="9.585358812521498"><ele>192.0</ele><time>2026-04-18T14:04:35.002Z</time></trkpt><trkpt lat="44.89205023663174" lon="9.585366858424996"><ele>192.0</ele><time>2026-04-18T14:04:36.002Z</time></trkpt><trkpt lat="44.892232478639755" lon="9.58536072879857"><ele>192.0</ele><time>2026-04-18T14:04:37.002Z</time></trkpt><trkpt lat="44.89243533433146" lon="9.58535458981562"><ele>189.66666666666666</ele><time>2026-04-18T14:04:38.002Z</time></trkpt><trkpt lat="44.892638904336835" lon="9.58533194693663"><ele>187.33333333333331</ele><time>2026-04-18T14:04:39.002Z</time></trkpt><trkpt lat="44.89283119541267" lon="9.585340819836322"><ele>185.0</ele><time>2026-04-18T14:04:40.002Z</time></trkpt><trkpt lat="44.89303531888592" lon="9.585335969979544"><ele>185.0</ele><time>2026-04-18T14:04:41.002Z</time></trkpt><trkpt lat="44.893244557453414" lon="9.585326547421113"><ele>185.0</ele><time>2026-04-18T14:04:42.002Z</time></trkpt><trkpt lat="44.89345498063119" lon="9.585319678041975"><ele>185.0</ele><time>2026-04-18T14:04:43.002Z</time></trkpt><trkpt lat="44.893651210953315" lon="9.58531489455837"><ele>184.33333333333331</ele><time>2026-04-18T14:04:44.002Z</time></trkpt><trkpt lat="44.893848486976005" lon="9.585306535215329"><ele>183.66666666666666</ele><time>2026-04-18T14:04:45.002Z</time></trkpt><trkpt lat="44.89404005538449" lon="9.58530142428512"><ele>183.0</ele><time>2026-04-18T14:04:46.002Z</time></trkpt><trkpt lat="44.894225026971384" lon="9.585300369143615"><ele>183.0</ele><time>2026-04-18T14:04:47.002Z</time></trkpt><trkpt lat="44.89441034852535" lon="9.585297592761787"><ele>183.0</ele><time>2026-04-18T14:04:48.002Z</time></trkpt><trkpt lat="44.894592899060605" lon="9.585289876827826"><ele>183.0</ele><time>2026-04-18T14:04:49.002Z</time></trkpt><trkpt lat="44.894777634301704" lon="9.585269995515283"><ele>183.0</ele><time>2026-04-18T14:04:50.002Z</time></trkpt><trkpt lat="44.894963233016256" lon="9.585231621607615"><ele>183.0</ele><time>2026-04-18T14:04:51.002Z</time></trkpt><trkpt lat="44.895150814067186" lon="9.58517906134754"><ele>183.0</ele><time>2026-04-18T14:04:52.002Z</time></trkpt><trkpt lat="44.89532960568196" lon="9.58512713909538"><ele>182.0</ele><time>2026-04-18T14:04:53.002Z</time></trkpt><trkpt lat="44.89549859017871" lon="9.58508364973892"><ele>181.0</ele><time>2026-04-18T14:04:54.002Z</time></trkpt><trkpt lat="44.89566107673924" lon="9.585051735943528"><ele>180.0</ele><time>2026-04-18T14:04:55.002Z</time></trkpt><trkpt lat="44.895824863743584" lon="9.585048363795375"><ele>177.66666666666666</ele><time>2026-04-18T14:04:56.002Z</time></trkpt><trkpt lat="44.89600006488389" lon="9.58508514874649"><ele>175.33333333333331</ele><time>2026-04-18T14:04:57.002Z</time></trkpt><trkpt lat="44.89617975597352" lon="9.585140165672598"><ele>173.0</ele><time>2026-04-18T14:04:58.002Z</time></trkpt><trkpt lat="44.89635983559314" lon="9.58520293578637"><ele>173.0</ele><time>2026-04-18T14:04:59.002Z</time></trkpt><trkpt lat="44.896541593820665" lon="9.585280719622732"><ele>173.0</ele><time>2026-04-18T14:05:00.002Z</time></trkpt><trkpt lat="44.896723351385695" lon="9.58538032711969"><ele>173.0</ele><time>2026-04-18T14:05:01.002Z</time></trkpt><trkpt lat="44.896903646550264" lon="9.585492405375124"><ele>175.0</ele><time>2026-04-18T14:05:02.002Z</time></trkpt><trkpt lat="44.89708007385419" lon="9.585599870787785"><ele>177.0</ele><time>2026-04-18T14:05:03.002Z</time></trkpt><trkpt lat="44.89724879400316" lon="9.585701053822111"><ele>179.0</ele><time>2026-04-18T14:05:04.002Z</time></trkpt><trkpt lat="44.897403015318915" lon="9.585799001750738"><ele>179.0</ele><time>2026-04-18T14:05:05.002Z</time></trkpt><trkpt lat="44.89754521147696" lon="9.585882221088388"><ele>179.0</ele><time>2026-04-18T14:05:06.002Z</time></trkpt><trkpt lat="44.897685473481005" lon="9.585934957479262"><ele>179.0</ele><time>2026-04-18T14:05:07.002Z</time></trkpt><trkpt lat="44.897828619916616" lon="9.585938817215958"><ele>179.0</ele><time>2026-04-18T14:05:08.003Z</time></trkpt><trkpt lat="44.897975942014156" lon="9.585888937313442"><ele>177.33333333333331</ele><time>2026-04-18T14:05:09.003Z</time></trkpt><trkpt lat="44.89812731473338" lon="9.585808495099135"><ele>175.66666666666666</ele><time>2026-04-18T14:05:10.003Z</time></trkpt><trkpt lat="44.898277775082335" lon="9.585707852037217"><ele>174.0</ele><time>2026-04-18T14:05:11.003Z</time></trkpt><trkpt lat="44.898422175643375" lon="9.585638164128728"><ele>172.33333333333334</ele><time>2026-04-18T14:05:12.003Z</time></trkpt><trkpt lat="44.89857307737753" lon="9.585611065914462"><ele>170.66666666666669</ele><time>2026-04-18T14:05:13.003Z</time></trkpt><trkpt lat="44.89872931092255" lon="9.585632351513445"><ele>169.0</ele><time>2026-04-18T14:05:14.003Z</time></trkpt><trkpt lat="44.89890084886893" lon="9.585686276658347"><ele>169.0</ele><time>2026-04-18T14:05:15.003Z</time></trkpt><trkpt lat="44.89908453088958" lon="9.585756840526871"><ele>169.0</ele><time>2026-04-18T14:05:16.003Z</time></trkpt><trkpt lat="44.899278935382334" lon="9.585827350967255"><ele>169.0</ele><time>2026-04-18T14:05:17.003Z</time></trkpt><trkpt lat="44.89947657370685" lon="9.585889270087876"><ele>167.0</ele><time>2026-04-18T14:05:18.003Z</time></trkpt><trkpt lat="44.89967428206412" lon="9.585944101186941"><ele>165.0</ele><time>2026-04-18T14:05:19.003Z</time></trkpt><trkpt lat="44.899864111417784" lon="9.585998027529739"><ele>163.0</ele><time>2026-04-18T14:05:20.003Z</time></trkpt><trkpt lat="44.9000428732285" lon="9.586054572180023"><ele>164.0</ele><time>2026-04-18T14:05:21.003Z</time></trkpt><trkpt lat="44.900218009849866" lon="9.586118781203426"><ele>165.0</ele><time>2026-04-18T14:05:22.003Z</time></trkpt><trkpt lat="44.900387273764885" lon="9.586187294552452"><ele>166.0</ele><time>2026-04-18T14:05:23.003Z</time></trkpt><trkpt lat="44.90055385978195" lon="9.58626043534153"><ele>166.0</ele><time>2026-04-18T14:05:24.003Z</time></trkpt><trkpt lat="44.90071648510398" lon="9.586349085097039"><ele>166.0</ele><time>2026-04-18T14:05:25.003Z</time></trkpt><trkpt lat="44.90086631908242" lon="9.586440964988988"><ele>166.0</ele><time>2026-04-18T14:05:26.003Z</time></trkpt><trkpt lat="44.90102704564624" lon="9.586543809985622"><ele>163.66666666666669</ele><time>2026-04-18T14:05:27.003Z</time></trkpt><trkpt lat="44.90119826951798" lon="9.586662963617362"><ele>161.33333333333334</ele><time>2026-04-18T14:05:28.003Z</time></trkpt><trkpt lat="44.90136983736265" lon="9.586797857932952"><ele>159.0</ele><time>2026-04-18T14:05:29.003Z</time></trkpt><trkpt lat="44.901533371323154" lon="9.586937460096202"><ele>159.0</ele><time>2026-04-18T14:05:30.003Z</time></trkpt><trkpt lat="44.90169121925242" lon="9.587069494982796"><ele>159.0</ele><time>2026-04-18T14:05:31.003Z</time></trkpt><trkpt lat="44.90184416903364" lon="9.587196087282859"><ele>159.0</ele><time>2026-04-18T14:05:32.003Z</time></trkpt><trkpt lat="44.90199763951281" lon="9.587326125782486"><ele>159.0</ele><time>2026-04-18T14:05:33.003Z</time></trkpt><trkpt lat="44.9021459249075" lon="9.587456550708039"><ele>159.0</ele><time>2026-04-18T14:05:34.003Z</time></trkpt><trkpt lat="44.90229886601147" lon="9.58759405081852"><ele>159.0</ele><time>2026-04-18T14:05:35.003Z</time></trkpt><trkpt lat="44.902457044501794" lon="9.587742863800763"><ele>156.66666666666666</ele><time>2026-04-18T14:05:36Z</time></trkpt><trkpt lat="44.9026218550657" lon="9.587884992472377"><ele>154.33333333333331</ele><time>2026-04-18T14:05:37Z</time></trkpt><trkpt lat="44.90279339021749" lon="9.588025046490893"><ele>152.0</ele><time>2026-04-18T14:05:38Z</time></trkpt><trkpt lat="44.902971082105196" lon="9.588163872548776"><ele>152.0</ele><time>2026-04-18T14:05:39Z</time></trkpt><trkpt lat="44.90314967404349" lon="9.588307779274137"><ele>152.0</ele><time>2026-04-18T14:05:40Z</time></trkpt><trkpt lat="44.90332897561037" lon="9.58845567538212"><ele>152.0</ele><time>2026-04-18T14:05:41Z</time></trkpt><trkpt lat="44.90350795553554" lon="9.588601680069731"><ele>152.0</ele><time>2026-04-18T14:05:42Z</time></trkpt><trkpt lat="44.90368537107266" lon="9.588745933440714"><ele>152.0</ele><time>2026-04-18T14:05:43Z</time></trkpt><trkpt lat="44.903857547355265" lon="9.588885917560209"><ele>152.0</ele><time>2026-04-18T14:05:44Z</time></trkpt><trkpt lat="44.904029221619744" lon="9.589030456103503"><ele>152.0</ele><time>2026-04-18T14:05:45Z</time></trkpt><trkpt lat="44.90420252608844" lon="9.589175831063123"><ele>152.0</ele><time>2026-04-18T14:05:46Z</time></trkpt><trkpt lat="44.90437892814479" lon="9.589322424783882"><ele>152.0</ele><time>2026-04-18T14:05:47Z</time></trkpt><trkpt lat="44.904558560983844" lon="9.589470125476346"><ele>150.33333333333331</ele><time>2026-04-18T14:05:48Z</time></trkpt><trkpt lat="44.90474041843927" lon="9.589617551843538"><ele>148.66666666666666</ele><time>2026-04-18T14:05:49Z</time></trkpt><trkpt lat="44.904922401910824" lon="9.589766562097447"><ele>147.0</ele><time>2026-04-18T14:05:50Z</time></trkpt><trkpt lat="44.90510350536441" lon="9.589915795895529"><ele>147.66666666666666</ele><time>2026-04-18T14:05:51Z</time></trkpt><trkpt lat="44.905288818699894" lon="9.59006897195886"><ele>148.33333333333331</ele><time>2026-04-18T14:05:52Z</time></trkpt><trkpt lat="44.90547557789839" lon="9.59022281387078"><ele>149.0</ele><time>2026-04-18T14:05:53Z</time></trkpt><trkpt lat="44.90566278112824" lon="9.59037542966467"><ele>149.0</ele><time>2026-04-18T14:05:54Z</time></trkpt><trkpt lat="44.90584838404813" lon="9.590531253680414"><ele>149.0</ele><time>2026-04-18T14:05:55Z</time></trkpt><trkpt lat="44.90603274542759" lon="9.590684704354308"><ele>149.0</ele><time>2026-04-18T14:05:56Z</time></trkpt><trkpt lat="44.90622063776874" lon="9.590840795688065"><ele>146.0</ele><time>2026-04-18T14:05:57Z</time></trkpt><trkpt lat="44.90640938408583" lon="9.590998087978154"><ele>143.0</ele><time>2026-04-18T14:05:58Z</time></trkpt><trkpt lat="44.906602168678624" lon="9.591154290243683"><ele>140.0</ele><time>2026-04-18T14:05:59Z</time></trkpt><trkpt lat="44.90679738850023" lon="9.591314069527709"><ele>137.5</ele><time>2026-04-18T14:06:00Z</time></trkpt><trkpt lat="44.90699716016658" lon="9.591478811736808"><ele>135.0</ele><time>2026-04-18T14:06:01Z</time></trkpt><trkpt lat="44.90719965072042" lon="9.591643010192756"><ele>135.0</ele><time>2026-04-18T14:06:02Z</time></trkpt><trkpt lat="44.907401452165885" lon="9.591809519930043"><ele>135.0</ele><time>2026-04-18T14:06:03Z</time></trkpt><trkpt lat="44.9076002415626" lon="9.591973196966235"><ele>134.66666666666666</ele><time>2026-04-18T14:06:04Z</time></trkpt><trkpt lat="44.90778610011598" lon="9.592126626563946"><ele>134.33333333333331</ele><time>2026-04-18T14:06:05Z</time></trkpt><trkpt lat="44.907965430039965" lon="9.592275422680622"><ele>134.0</ele><time>2026-04-18T14:06:06Z</time></trkpt><trkpt lat="44.90814073873301" lon="9.59242811610121"><ele>134.0</ele><time>2026-04-18T14:06:07.001Z</time></trkpt><trkpt lat="44.90830469174643" lon="9.592591826694338"><ele>134.0</ele><time>2026-04-18T14:06:08.001Z</time></trkpt><trkpt lat="44.90845348620903" lon="9.592772016352837"><ele>134.0</ele><time>2026-04-18T14:06:09.001Z</time></trkpt><trkpt lat="44.90858961395271" lon="9.592966635430729"><ele>134.0</ele><time>2026-04-18T14:06:10.001Z</time></trkpt><trkpt lat="44.9087165306215" lon="9.593167600986773"><ele>134.0</ele><time>2026-04-18T14:06:11.001Z</time></trkpt><trkpt lat="44.90884685408231" lon="9.593372434554848"><ele>134.0</ele><time>2026-04-18T14:06:12.001Z</time></trkpt><trkpt lat="44.90898492002894" lon="9.593586817039242"><ele>134.66666666666666</ele><time>2026-04-18T14:06:13.001Z</time></trkpt><trkpt lat="44.909128913599304" lon="9.59381447255827"><ele>135.33333333333334</ele><time>2026-04-18T14:06:14.001Z</time></trkpt><trkpt lat="44.909277488881884" lon="9.594049907124413"><ele>136.0</ele><time>2026-04-18T14:06:15.001Z</time></trkpt><trkpt lat="44.90943125439391" lon="9.594287589598656"><ele>134.66666666666669</ele><time>2026-04-18T14:06:16.001Z</time></trkpt><trkpt lat="44.909584505378874" lon="9.594524726084497"><ele>133.33333333333334</ele><time>2026-04-18T14:06:17.001Z</time></trkpt><trkpt lat="44.90973184361063" lon="9.594748259314576"><ele>132.0</ele><time>2026-04-18T14:06:18.001Z</time></trkpt><trkpt lat="44.90987395411633" lon="9.594952405749087"><ele>132.0</ele><time>2026-04-18T14:06:19.001Z</time></trkpt><trkpt lat="44.910017637926025" lon="9.59513852141455"><ele>132.0</ele><time>2026-04-18T14:06:20.001Z</time></trkpt><trkpt lat="44.91017280236329" lon="9.595301372033417"><ele>132.0</ele><time>2026-04-18T14:06:21.001Z</time></trkpt><trkpt lat="44.91032871550157" lon="9.59546528404353"><ele>132.0</ele><time>2026-04-18T14:06:22.001Z</time></trkpt><trkpt lat="44.91048980212213" lon="9.595636810670884"><ele>132.0</ele><time>2026-04-18T14:06:23.001Z</time></trkpt><trkpt lat="44.910722856249365" lon="9.595683376274678"><ele>132.0</ele><time>2026-04-18T14:06:24.001Z</time></trkpt><trkpt lat="44.91092901704981" lon="9.595796502232641"><ele>132.0</ele><time>2026-04-18T14:06:25.001Z</time></trkpt><trkpt lat="44.911138747819045" lon="9.59590441614522"><ele>132.0</ele><time>2026-04-18T14:06:26.001Z</time></trkpt><trkpt lat="44.911341559968754" lon="9.596012447607144"><ele>132.0</ele><time>2026-04-18T14:06:27.001Z</time></trkpt><trkpt lat="44.91154003422924" lon="9.596123450464043"><ele>134.33333333333334</ele><time>2026-04-18T14:06:28.001Z</time></trkpt><trkpt lat="44.91173392079869" lon="9.596227699420261"><ele>136.66666666666669</ele><time>2026-04-18T14:06:29.001Z</time></trkpt><trkpt lat="44.91192234672993" lon="9.59632340756377"><ele>139.0</ele><time>2026-04-18T14:06:30.001Z</time></trkpt><trkpt lat="44.91210011850397" lon="9.596419226101837"><ele>139.0</ele><time>2026-04-18T14:06:31.001Z</time></trkpt><trkpt lat="44.91225902062227" lon="9.596517262506149"><ele>139.0</ele><time>2026-04-18T14:06:32.001Z</time></trkpt><trkpt lat="44.91240090284965" lon="9.596626134962278"><ele>139.0</ele><time>2026-04-18T14:06:33.001Z</time></trkpt><trkpt lat="44.91252334275777" lon="9.596741734137234"><ele>138.75</ele><time>2026-04-18T14:06:34.001Z</time></trkpt><trkpt lat="44.91263398147509" lon="9.596862374619588"><ele>138.5</ele><time>2026-04-18T14:06:35.001Z</time></trkpt><trkpt lat="44.912732809292486" lon="9.596985323358526"><ele>138.25</ele><time>2026-04-18T14:06:36.001Z</time></trkpt><trkpt lat="44.912823079174466" lon="9.597110734916946"><ele>138.0</ele><time>2026-04-18T14:06:37.001Z</time></trkpt><trkpt lat="44.9129042338388" lon="9.597247746055276"><ele>138.0</ele><time>2026-04-18T14:06:38.001Z</time></trkpt><trkpt lat="44.91298234895133" lon="9.59739364717942"><ele>138.0</ele><time>2026-04-18T14:06:39.002Z</time></trkpt><trkpt lat="44.91305447742142" lon="9.59754223089221"><ele>138.0</ele><time>2026-04-18T14:06:40.002Z</time></trkpt><trkpt lat="44.91312402514025" lon="9.59769477255826"><ele>138.0</ele><time>2026-04-18T14:06:41.002Z</time></trkpt><trkpt lat="44.91318819103227" lon="9.597849752986471"><ele>138.0</ele><time>2026-04-18T14:06:42.002Z</time></trkpt><trkpt lat="44.91325097703808" lon="9.598005858962042"><ele>138.0</ele><time>2026-04-18T14:06:43.002Z</time></trkpt><trkpt lat="44.91331031759602" lon="9.598154589206262"><ele>138.0</ele><time>2026-04-18T14:06:44.002Z</time></trkpt><trkpt lat="44.913367699104704" lon="9.598299454915486"><ele>138.0</ele><time>2026-04-18T14:06:45.002Z</time></trkpt><trkpt lat="44.913427929801976" lon="9.598453257869087"><ele>138.0</ele><time>2026-04-18T14:06:46.002Z</time></trkpt><trkpt lat="44.91349540462622" lon="9.598619209630513"><ele>138.0</ele><time>2026-04-18T14:06:47.002Z</time></trkpt><trkpt lat="44.91357078010004" lon="9.598798368257524"><ele>138.0</ele><time>2026-04-18T14:06:48.002Z</time></trkpt><trkpt lat="44.91365739274246" lon="9.599001588149362"><ele>137.66666666666666</ele><time>2026-04-18T14:06:49.002Z</time></trkpt><trkpt lat="44.91376291124428" lon="9.599238357352702"><ele>137.33333333333331</ele><time>2026-04-18T14:06:50.002Z</time></trkpt><trkpt lat="44.913862735661034" lon="9.599477490367995"><ele>137.0</ele><time>2026-04-18T14:06:51.002Z</time></trkpt><trkpt lat="44.9139636574083" lon="9.59972862705375"><ele>136.5</ele><time>2026-04-18T14:06:52.002Z</time></trkpt><trkpt lat="44.914073597710335" lon="9.600001562899918"><ele>136.0</ele><time>2026-04-18T14:06:53.002Z</time></trkpt><trkpt lat="44.91418560165503" lon="9.6002882339463"><ele>135.0</ele><time>2026-04-18T14:06:54.002Z</time></trkpt><trkpt lat="44.91430488599136" lon="9.600594633156295"><ele>134.0</ele><time>2026-04-18T14:06:55.002Z</time></trkpt><trkpt lat="44.91442716696752" lon="9.60091364536035"><ele>134.5</ele><time>2026-04-18T14:06:56.002Z</time></trkpt><trkpt lat="44.914547631605366" lon="9.60124277074236"><ele>135.0</ele><time>2026-04-18T14:06:57.002Z</time></trkpt><trkpt lat="44.91467057011194" lon="9.601572821194065"><ele>135.0</ele><time>2026-04-18T14:06:58.002Z</time></trkpt><trkpt lat="44.91480507365926" lon="9.601912362260254"><ele>135.0</ele><time>2026-04-18T14:06:59.002Z</time></trkpt><trkpt lat="44.91493252132075" lon="9.602227331258568"><ele>136.0</ele><time>2026-04-18T14:07:00.002Z</time></trkpt><trkpt lat="44.915048326763554" lon="9.602519035902167"><ele>137.0</ele><time>2026-04-18T14:07:01.002Z</time></trkpt><trkpt lat="44.91515386232348" lon="9.602785282196324"><ele>138.33333333333331</ele><time>2026-04-18T14:07:02.002Z</time></trkpt><trkpt lat="44.915253099823744" lon="9.603036270923921"><ele>139.66666666666666</ele><time>2026-04-18T14:07:03.002Z</time></trkpt><trkpt lat="44.915348083370276" lon="9.60327087627491"><ele>141.0</ele><time>2026-04-18T14:07:04.002Z</time></trkpt><trkpt lat="44.91544120541253" lon="9.603503492784037"><ele>141.66666666666666</ele><time>2026-04-18T14:07:05.002Z</time></trkpt><trkpt lat="44.91553029285026" lon="9.603741132114457"><ele>142.33333333333331</ele><time>2026-04-18T14:07:06.002Z</time></trkpt><trkpt lat="44.9156137499722" lon="9.603967161693877"><ele>143.0</ele><time>2026-04-18T14:07:07.002Z</time></trkpt><trkpt lat="44.915697484383045" lon="9.604191135988765"><ele>143.0</ele><time>2026-04-18T14:07:08.002Z</time></trkpt><trkpt lat="44.91578125806069" lon="9.604399079001887"><ele>143.0</ele><time>2026-04-18T14:07:09.002Z</time></trkpt><trkpt lat="44.915867842974976" lon="9.604598726378736"><ele>143.0</ele><time>2026-04-18T14:07:10.002Z</time></trkpt><trkpt lat="44.915962670646614" lon="9.604803372282559"><ele>142.33333333333331</ele><time>2026-04-18T14:07:11.002Z</time></trkpt><trkpt lat="44.91606595606047" lon="9.604990171223927"><ele>141.66666666666666</ele><time>2026-04-18T14:07:12.003Z</time></trkpt><trkpt lat="44.91618001726643" lon="9.605167585106463"><ele>141.0</ele><time>2026-04-18T14:07:13.003Z</time></trkpt><trkpt lat="44.916302698100594" lon="9.605348120612097"><ele>141.0</ele><time>2026-04-18T14:07:14.003Z</time></trkpt><trkpt lat="44.9164259789589" lon="9.605514659207888"><ele>141.0</ele><time>2026-04-18T14:07:15.003Z</time></trkpt><trkpt lat="44.91656162372188" lon="9.605678668182545"><ele>141.0</ele><time>2026-04-18T14:07:16.003Z</time></trkpt><trkpt lat="44.91670851204635" lon="9.605842611583558"><ele>141.0</ele><time>2026-04-18T14:07:17.003Z</time></trkpt><trkpt lat="44.916848088573715" lon="9.605989813490295"><ele>141.0</ele><time>2026-04-18T14:07:18.003Z</time></trkpt><trkpt lat="44.91697194277695" lon="9.606116066080165"><ele>141.0</ele><time>2026-04-18T14:07:19.003Z</time></trkpt><trkpt lat="44.91709483252581" lon="9.606257081439452"><ele>141.0</ele><time>2026-04-18T14:07:20.003Z</time></trkpt><trkpt lat="44.91721749151424" lon="9.606385317194798"><ele>141.0</ele><time>2026-04-18T14:07:21.003Z</time></trkpt><trkpt lat="44.91733468241834" lon="9.606507815852666"><ele>141.0</ele><time>2026-04-18T14:07:22.003Z</time></trkpt><trkpt lat="44.917441787454635" lon="9.606616079509328"><ele>141.0</ele><time>2026-04-18T14:07:23.003Z</time></trkpt><trkpt lat="44.91754295735478" lon="9.60671676496729"><ele>140.5</ele><time>2026-04-18T14:07:24.003Z</time></trkpt><trkpt lat="44.91764863245339" lon="9.606805670538586"><ele>140.0</ele><time>2026-04-18T14:07:25.003Z</time></trkpt><trkpt lat="44.91778271035178" lon="9.60689906372698"><ele>139.5</ele><time>2026-04-18T14:07:26.003Z</time></trkpt><trkpt lat="44.9179331761446" lon="9.606994730935295"><ele>139.0</ele><time>2026-04-18T14:07:27.003Z</time></trkpt><trkpt lat="44.91810696389154" lon="9.607103814898275"><ele>139.0</ele><time>2026-04-18T14:07:28.003Z</time></trkpt><trkpt lat="44.91828384936449" lon="9.60727576495669"><ele>139.0</ele><time>2026-04-18T14:07:29.003Z</time></trkpt><trkpt lat="44.918475284832645" lon="9.607403727184542"><ele>139.0</ele><time>2026-04-18T14:07:30.003Z</time></trkpt><trkpt lat="44.918688042185124" lon="9.6075105449629"><ele>138.33333333333334</ele><time>2026-04-18T14:07:31.003Z</time></trkpt><trkpt lat="44.918877381585844" lon="9.607649554764608"><ele>137.66666666666666</ele><time>2026-04-18T14:07:32.003Z</time></trkpt><trkpt lat="44.919086462488146" lon="9.607788360695235"><ele>137.0</ele><time>2026-04-18T14:07:33.003Z</time></trkpt><trkpt lat="44.91917360210162" lon="9.607879485071315"><ele>136.33333333333331</ele><time>2026-04-18T14:07:34.003Z</time></trkpt><trkpt lat="44.91936304965159" lon="9.608003557446391"><ele>135.66666666666666</ele><time>2026-04-18T14:07:35.003Z</time></trkpt><trkpt lat="44.91955425481301" lon="9.608128741626484"><ele>135.0</ele><time>2026-04-18T14:07:36.003Z</time></trkpt><trkpt lat="44.919742863327045" lon="9.608256797243941"><ele>135.0</ele><time>2026-04-18T14:07:37.003Z</time></trkpt><trkpt lat="44.91992805060672" lon="9.608391945568437"><ele>135.0</ele><time>2026-04-18T14:07:38.003Z</time></trkpt><trkpt lat="44.92011146036522" lon="9.608537388480677"><ele>135.0</ele><time>2026-04-18T14:07:39.003Z</time></trkpt><trkpt lat="44.92028651069816" lon="9.608697333257282"><ele>134.66666666666666</ele><time>2026-04-18T14:07:40.003Z</time></trkpt><trkpt lat="44.92046071445821" lon="9.608870606837502"><ele>134.33333333333331</ele><time>2026-04-18T14:07:41.003Z</time></trkpt><trkpt lat="44.92062538819532" lon="9.609050361513788"><ele>134.0</ele><time>2026-04-18T14:07:41.998Z</time></trkpt><trkpt lat="44.920790878564944" lon="9.609230921511072"><ele>133.33333333333331</ele><time>2026-04-18T14:07:42.998Z</time></trkpt><trkpt lat="44.9209434009363" lon="9.609401589349917"><ele>132.66666666666666</ele><time>2026-04-18T14:07:43.998Z</time></trkpt><trkpt lat="44.92108514627037" lon="9.609561928674545"><ele>132.0</ele><time>2026-04-18T14:07:44.998Z</time></trkpt><trkpt lat="44.92123510009862" lon="9.609732975338929"><ele>132.0</ele><time>2026-04-18T14:07:45.998Z</time></trkpt><trkpt lat="44.92139149594117" lon="9.609903667353649"><ele>132.0</ele><time>2026-04-18T14:07:46.998Z</time></trkpt><trkpt lat="44.92155359059317" lon="9.610077592454138"><ele>132.0</ele><time>2026-04-18T14:07:47.998Z</time></trkpt><trkpt lat="44.92171615636513" lon="9.610266044668887"><ele>131.5</ele><time>2026-04-18T14:07:48.998Z</time></trkpt><trkpt lat="44.921889282726106" lon="9.610465382670613"><ele>131.0</ele><time>2026-04-18T14:07:49.998Z</time></trkpt><trkpt lat="44.92206798730792" lon="9.61066635237503"><ele>131.0</ele><time>2026-04-18T14:07:50.998Z</time></trkpt><trkpt lat="44.92225086656544" lon="9.61086677837929"><ele>131.0</ele><time>2026-04-18T14:07:51.998Z</time></trkpt><trkpt lat="44.92243226307292" lon="9.611069626965294"><ele>132.0</ele><time>2026-04-18T14:07:52.999Z</time></trkpt><trkpt lat="44.92261639708257" lon="9.611269450727823"><ele>133.0</ele><time>2026-04-18T14:07:53.999Z</time></trkpt><trkpt lat="44.92280271889815" lon="9.611474265113676"><ele>133.0</ele><time>2026-04-18T14:07:54.999Z</time></trkpt><trkpt lat="44.92299931465269" lon="9.611673676294247"><ele>133.0</ele><time>2026-04-18T14:07:55.999Z</time></trkpt><trkpt lat="44.92319355469631" lon="9.61186439709321"><ele>133.5</ele><time>2026-04-18T14:07:56.999Z</time></trkpt><trkpt lat="44.92339376772182" lon="9.612054759239227"><ele>134.0</ele><time>2026-04-18T14:07:57.999Z</time></trkpt><trkpt lat="44.92360305371747" lon="9.612240560379524"><ele>132.5</ele><time>2026-04-18T14:07:58.999Z</time></trkpt><trkpt lat="44.923811548193" lon="9.61242601299447"><ele>131.0</ele><time>2026-04-18T14:07:59.999Z</time></trkpt><trkpt lat="44.92402407313824" lon="9.612614175003356"><ele>130.0</ele><time>2026-04-18T14:08:00.999Z</time></trkpt><trkpt lat="44.92424006529984" lon="9.61279909674126"><ele>129.0</ele><time>2026-04-18T14:08:01.999Z</time></trkpt><trkpt lat="44.92446093663359" lon="9.612985045674913"><ele>131.0</ele><time>2026-04-18T14:08:02.999Z</time></trkpt><trkpt lat="44.92467930429266" lon="9.613166794467372"><ele>133.0</ele><time>2026-04-18T14:08:04Z</time></trkpt><trkpt lat="44.92488390106957" lon="9.613376025178692"><ele>132.5</ele><time>2026-04-18T14:08:05Z</time></trkpt><trkpt lat="44.92510012291612" lon="9.613567277167173"><ele>132.0</ele><time>2026-04-18T14:08:06Z</time></trkpt><trkpt lat="44.925311656886365" lon="9.613752531428132"><ele>133.0</ele><time>2026-04-18T14:08:07Z</time></trkpt><trkpt lat="44.92553001105741" lon="9.613923108046947"><ele>134.0</ele><time>2026-04-18T14:08:08Z</time></trkpt><trkpt lat="44.92573417213914" lon="9.614113567974083"><ele>134.5</ele><time>2026-04-18T14:08:09Z</time></trkpt><trkpt lat="44.92592648997536" lon="9.614290341435188"><ele>135.0</ele><time>2026-04-18T14:08:10Z</time></trkpt><trkpt lat="44.926111936091644" lon="9.614457913137269"><ele>134.66666666666666</ele><time>2026-04-18T14:08:11Z</time></trkpt><trkpt lat="44.92629296704225" lon="9.614630248188714"><ele>134.33333333333331</ele><time>2026-04-18T14:08:12Z</time></trkpt><trkpt lat="44.92646726829492" lon="9.614811320085357"><ele>134.0</ele><time>2026-04-18T14:08:13Z</time></trkpt><trkpt lat="44.92663740081037" lon="9.615001132778849"><ele>134.0</ele><time>2026-04-18T14:08:14Z</time></trkpt><trkpt lat="44.92680395900941" lon="9.615204444349638"><ele>134.0</ele><time>2026-04-18T14:08:15Z</time></trkpt><trkpt lat="44.926969432224546" lon="9.615418376342236"><ele>134.0</ele><time>2026-04-18T14:08:16Z</time></trkpt><trkpt lat="44.92712534889433" lon="9.615643225227755"><ele>134.0</ele><time>2026-04-18T14:08:17Z</time></trkpt><trkpt lat="44.927269440629274" lon="9.615876114753126"><ele>134.0</ele><time>2026-04-18T14:08:18Z</time></trkpt><trkpt lat="44.92741272145952" lon="9.616108380312088"><ele>134.0</ele><time>2026-04-18T14:08:19Z</time></trkpt><trkpt lat="44.927557026690565" lon="9.616341294517232"><ele>134.0</ele><time>2026-04-18T14:08:20Z</time></trkpt><trkpt lat="44.927698699071414" lon="9.616569062241712"><ele>134.0</ele><time>2026-04-18T14:08:21.001Z</time></trkpt><trkpt lat="44.927843264372505" lon="9.616796619656593"><ele>134.0</ele><time>2026-04-18T14:08:22.001Z</time></trkpt><trkpt lat="44.9279842753187" lon="9.61701527268982"><ele>134.33333333333331</ele><time>2026-04-18T14:08:23.001Z</time></trkpt><trkpt lat="44.92812808141594" lon="9.617237364803078"><ele>134.66666666666666</ele><time>2026-04-18T14:08:24.001Z</time></trkpt><trkpt lat="44.92827798919473" lon="9.61745453356502"><ele>135.0</ele><time>2026-04-18T14:08:25.001Z</time></trkpt><trkpt lat="44.92843998162204" lon="9.617654689398082"><ele>135.33333333333334</ele><time>2026-04-18T14:08:26.001Z</time></trkpt><trkpt lat="44.92860245433721" lon="9.61784848561257"><ele>135.66666666666669</ele><time>2026-04-18T14:08:27.001Z</time></trkpt><trkpt lat="44.92876635754913" lon="9.618021942549747"><ele>136.0</ele><time>2026-04-18T14:08:28.001Z</time></trkpt><trkpt lat="44.9289382964105" lon="9.618191806220489"><ele>136.0</ele><time>2026-04-18T14:08:29.001Z</time></trkpt><trkpt lat="44.92910626114064" lon="9.618363051220454"><ele>136.0</ele><time>2026-04-18T14:08:30.001Z</time></trkpt><trkpt lat="44.92927843327643" lon="9.618541683809026"><ele>136.0</ele><time>2026-04-18T14:08:31.001Z</time></trkpt><trkpt lat="44.92944983740942" lon="9.618718961437482"><ele>135.33333333333334</ele><time>2026-04-18T14:08:32.001Z</time></trkpt><trkpt lat="44.92962388914148" lon="9.618894376382807"><ele>134.66666666666666</ele><time>2026-04-18T14:08:33.001Z</time></trkpt><trkpt lat="44.92980429230008" lon="9.6190785061627"><ele>134.0</ele><time>2026-04-18T14:08:34.001Z</time></trkpt><trkpt lat="44.92998446640907" lon="9.619265016019657"><ele>133.33333333333331</ele><time>2026-04-18T14:08:35.001Z</time></trkpt><trkpt lat="44.930161207183225" lon="9.619452313749832"><ele>132.66666666666666</ele><time>2026-04-18T14:08:36.001Z</time></trkpt><trkpt lat="44.9303422476186" lon="9.619641695056748"><ele>132.0</ele><time>2026-04-18T14:08:37.001Z</time></trkpt><trkpt lat="44.93052046079924" lon="9.619832121334035"><ele>131.5</ele><time>2026-04-18T14:08:38.001Z</time></trkpt><trkpt lat="44.93070575007873" lon="9.620027691858565"><ele>131.0</ele><time>2026-04-18T14:08:39.001Z</time></trkpt><trkpt lat="44.93089148796106" lon="9.62021763686562"><ele>132.0</ele><time>2026-04-18T14:08:40.001Z</time></trkpt><trkpt lat="44.931067417874736" lon="9.620401149090059"><ele>133.0</ele><time>2026-04-18T14:08:41.001Z</time></trkpt><trkpt lat="44.93124705441727" lon="9.620595314359715"><ele>134.0</ele><time>2026-04-18T14:08:42.001Z</time></trkpt><trkpt lat="44.93142619768198" lon="9.620791495146138"><ele>134.0</ele><time>2026-04-18T14:08:43.001Z</time></trkpt><trkpt lat="44.93159830781303" lon="9.620980164087753"><ele>134.0</ele><time>2026-04-18T14:08:44.001Z</time></trkpt><trkpt lat="44.9317668547651" lon="9.621172896051569"><ele>134.0</ele><time>2026-04-18T14:08:45.001Z</time></trkpt><trkpt lat="44.931927396311494" lon="9.621366920752658"><ele>134.33333333333331</ele><time>2026-04-18T14:08:46.001Z</time></trkpt><trkpt lat="44.932092167624276" lon="9.621553400502727"><ele>134.66666666666666</ele><time>2026-04-18T14:08:47.001Z</time></trkpt><trkpt lat="44.932258206368466" lon="9.621742610258561"><ele>135.0</ele><time>2026-04-18T14:08:48.002Z</time></trkpt><trkpt lat="44.93242548508107" lon="9.621927622409569"><ele>135.0</ele><time>2026-04-18T14:08:49.002Z</time></trkpt><trkpt lat="44.93259265783234" lon="9.622118463273948"><ele>135.0</ele><time>2026-04-18T14:08:50.002Z</time></trkpt><trkpt lat="44.93276169319612" lon="9.622305902322935"><ele>135.0</ele><time>2026-04-18T14:08:51.002Z</time></trkpt><trkpt lat="44.932930555198844" lon="9.622495970104149"><ele>135.0</ele><time>2026-04-18T14:08:52.002Z</time></trkpt><trkpt lat="44.93309885722314" lon="9.622690577442127"><ele>135.0</ele><time>2026-04-18T14:08:53.002Z</time></trkpt><trkpt lat="44.93326534025182" lon="9.622879412380332"><ele>135.0</ele><time>2026-04-18T14:08:54.002Z</time></trkpt><trkpt lat="44.93343546607983" lon="9.623068989197872"><ele>134.66666666666666</ele><time>2026-04-18T14:08:55.002Z</time></trkpt><trkpt lat="44.93361180414418" lon="9.623260884842498"><ele>134.33333333333331</ele><time>2026-04-18T14:08:56.002Z</time></trkpt><trkpt lat="44.93378530740999" lon="9.623456412384332"><ele>134.0</ele><time>2026-04-18T14:08:57.002Z</time></trkpt><trkpt lat="44.93395786754912" lon="9.623647079731635"><ele>134.0</ele><time>2026-04-18T14:08:58.002Z</time></trkpt><trkpt lat="44.93413036095267" lon="9.623839190521966"><ele>134.0</ele><time>2026-04-18T14:08:59.002Z</time></trkpt><trkpt lat="44.9343037543759" lon="9.624036500381308"><ele>134.0</ele><time>2026-04-18T14:09:00.002Z</time></trkpt><trkpt lat="44.934476821077695" lon="9.624232372328878"><ele>133.66666666666666</ele><time>2026-04-18T14:09:01.002Z</time></trkpt><trkpt lat="44.93465229067205" lon="9.62442808498461"><ele>133.33333333333334</ele><time>2026-04-18T14:09:02.002Z</time></trkpt><trkpt lat="44.93482788022253" lon="9.624620291322678"><ele>133.0</ele><time>2026-04-18T14:09:03.002Z</time></trkpt><trkpt lat="44.93500602637395" lon="9.624809938075446"><ele>133.33333333333334</ele><time>2026-04-18T14:09:04.002Z</time></trkpt><trkpt lat="44.935178702873785" lon="9.62499649933555"><ele>133.66666666666666</ele><time>2026-04-18T14:09:05.002Z</time></trkpt><trkpt lat="44.93535606761602" lon="9.625180044987111"><ele>134.0</ele><time>2026-04-18T14:09:06.002Z</time></trkpt><trkpt lat="44.93553128741186" lon="9.625366790422856"><ele>134.0</ele><time>2026-04-18T14:09:07.002Z</time></trkpt><trkpt lat="44.93570504413858" lon="9.625553405132429"><ele>134.0</ele><time>2026-04-18T14:09:08.002Z</time></trkpt><trkpt lat="44.93587221071" lon="9.625733868628094"><ele>134.0</ele><time>2026-04-18T14:09:09.002Z</time></trkpt><trkpt lat="44.93604589513493" lon="9.625915732588405"><ele>134.33333333333331</ele><time>2026-04-18T14:09:10.002Z</time></trkpt><trkpt lat="44.936205884022115" lon="9.626080300112966"><ele>134.66666666666666</ele><time>2026-04-18T14:09:11.002Z</time></trkpt><trkpt lat="44.93635250729987" lon="9.62624056636355"><ele>135.0</ele><time>2026-04-18T14:09:12.002Z</time></trkpt><trkpt lat="44.93649509436789" lon="9.626398709314769"><ele>135.0</ele><time>2026-04-18T14:09:13.002Z</time></trkpt><trkpt lat="44.936634780400674" lon="9.626553832376326"><ele>135.0</ele><time>2026-04-18T14:09:14.002Z</time></trkpt><trkpt lat="44.936778161315324" lon="9.626705980576892"><ele>135.0</ele><time>2026-04-18T14:09:15.002Z</time></trkpt><trkpt lat="44.93692217839725" lon="9.626861823164136"><ele>134.0</ele><time>2026-04-18T14:09:16.002Z</time></trkpt><trkpt lat="44.93707326655235" lon="9.627023743655586"><ele>133.0</ele><time>2026-04-18T14:09:17.002Z</time></trkpt><trkpt lat="44.937226924300305" lon="9.627186859615277"><ele>132.0</ele><time>2026-04-18T14:09:18.002Z</time></trkpt><trkpt lat="44.937384745848654" lon="9.627353316541555"><ele>132.0</ele><time>2026-04-18T14:09:19.002Z</time></trkpt><trkpt lat="44.937548016658106" lon="9.627521991072491"><ele>132.0</ele><time>2026-04-18T14:09:20.003Z</time></trkpt><trkpt lat="44.937708436969274" lon="9.627693871737488"><ele>132.0</ele><time>2026-04-18T14:09:21.003Z</time></trkpt><trkpt lat="44.93787179251622" lon="9.627865409557673"><ele>132.0</ele><time>2026-04-18T14:09:22.003Z</time></trkpt><trkpt lat="44.93803353385304" lon="9.628038649150769"><ele>132.0</ele><time>2026-04-18T14:09:23.003Z</time></trkpt><trkpt lat="44.93819557700321" lon="9.628219434346581"><ele>132.0</ele><time>2026-04-18T14:09:24.003Z</time></trkpt><trkpt lat="44.93835698465253" lon="9.628404813806394"><ele>131.66666666666666</ele><time>2026-04-18T14:09:25.003Z</time></trkpt><trkpt lat="44.93851100823649" lon="9.628606248665898"><ele>131.33333333333331</ele><time>2026-04-18T14:09:26.003Z</time></trkpt><trkpt lat="44.938661531640165" lon="9.628813307202813"><ele>131.0</ele><time>2026-04-18T14:09:27.003Z</time></trkpt><trkpt lat="44.938807840125016" lon="9.629033595068938"><ele>131.0</ele><time>2026-04-18T14:09:28.003Z</time></trkpt><trkpt lat="44.93895508858873" lon="9.62926262712783"><ele>131.0</ele><time>2026-04-18T14:09:29.003Z</time></trkpt><trkpt lat="44.93909421286853" lon="9.62948810400093"><ele>131.0</ele><time>2026-04-18T14:09:30.003Z</time></trkpt><trkpt lat="44.939234906036596" lon="9.629717968816824"><ele>130.66666666666666</ele><time>2026-04-18T14:09:31.003Z</time></trkpt><trkpt lat="44.93937676207793" lon="9.62994984444935"><ele>130.33333333333334</ele><time>2026-04-18T14:09:32.003Z</time></trkpt><trkpt lat="44.939519009932" lon="9.6301785558281"><ele>130.0</ele><time>2026-04-18T14:09:33.003Z</time></trkpt><trkpt lat="44.93966717109358" lon="9.630408285393266"><ele>130.0</ele><time>2026-04-18T14:09:34.003Z</time></trkpt><trkpt lat="44.93981743644277" lon="9.630635504568955"><ele>130.0</ele><time>2026-04-18T14:09:35.003Z</time></trkpt><trkpt lat="44.939977044974874" lon="9.630855893666128"><ele>130.0</ele><time>2026-04-18T14:09:36.003Z</time></trkpt><trkpt lat="44.940125408367464" lon="9.631062670765996"><ele>128.66666666666669</ele><time>2026-04-18T14:09:37.003Z</time></trkpt><trkpt lat="44.9402696912184" lon="9.631253300093205"><ele>127.33333333333334</ele><time>2026-04-18T14:09:38.003Z</time></trkpt><trkpt lat="44.94041144426639" lon="9.631432175497132"><ele>126.0</ele><time>2026-04-18T14:09:39.003Z</time></trkpt><trkpt lat="44.940549250706255" lon="9.631596261589479"><ele>126.0</ele><time>2026-04-18T14:09:40.003Z</time></trkpt><trkpt lat="44.94068476206225" lon="9.631745570667372"><ele>126.0</ele><time>2026-04-18T14:09:41.003Z</time></trkpt><trkpt lat="44.94080250333435" lon="9.631875210203132"><ele>126.0</ele><time>2026-04-18T14:09:42.003Z</time></trkpt><trkpt lat="44.94091039739673" lon="9.631985989057528"><ele>126.0</ele><time>2026-04-18T14:09:43.003Z</time></trkpt><trkpt lat="44.94101441516526" lon="9.63209870980022"><ele>126.0</ele><time>2026-04-18T14:09:44.003Z</time></trkpt><trkpt lat="44.94112808888372" lon="9.632218510914948"><ele>126.0</ele><time>2026-04-18T14:09:45.003Z</time></trkpt><trkpt lat="44.94124851361104" lon="9.632346836656497"><ele>126.0</ele><time>2026-04-18T14:09:46.003Z</time></trkpt><trkpt lat="44.941372975750916" lon="9.632477745748858"><ele>126.0</ele><time>2026-04-18T14:09:47.003Z</time></trkpt><trkpt lat="44.94148946938196" lon="9.632600808031162"><ele>126.0</ele><time>2026-04-18T14:09:47.999Z</time></trkpt><trkpt lat="44.941616521161436" lon="9.632733086219126"><ele>126.0</ele><time>2026-04-18T14:09:48.999Z</time></trkpt><trkpt lat="44.94174616369357" lon="9.632856854559373"><ele>125.25</ele><time>2026-04-18T14:09:49.999Z</time></trkpt><trkpt lat="44.941872924518265" lon="9.63297727732258"><ele>124.5</ele><time>2026-04-18T14:09:50.999Z</time></trkpt><trkpt lat="44.94199390829476" lon="9.633091335857017"><ele>123.75</ele><time>2026-04-18T14:09:51.999Z</time></trkpt><trkpt lat="44.94211505492858" lon="9.633205230204242"><ele>123.0</ele><time>2026-04-18T14:09:52.999Z</time></trkpt><trkpt lat="44.94222906630122" lon="9.633312810248524"><ele>123.0</ele><time>2026-04-18T14:09:53.999Z</time></trkpt><trkpt lat="44.94234351233769" lon="9.633427881978777"><ele>123.0</ele><time>2026-04-18T14:09:54.999Z</time></trkpt><trkpt lat="44.94246332085406" lon="9.633540784135004"><ele>123.0</ele><time>2026-04-18T14:09:55.999Z</time></trkpt><trkpt lat="44.94257507056689" lon="9.633657218129429"><ele>123.0</ele><time>2026-04-18T14:09:56.999Z</time></trkpt><trkpt lat="44.94269271268086" lon="9.633772968685076"><ele>122.5</ele><time>2026-04-18T14:09:57.999Z</time></trkpt><trkpt lat="44.942809403296195" lon="9.633886081650422"><ele>122.0</ele><time>2026-04-18T14:09:58.999Z</time></trkpt><trkpt lat="44.94292926074586" lon="9.634001103198102"><ele>121.5</ele><time>2026-04-18T14:09:59.999Z</time></trkpt><trkpt lat="44.94304760226817" lon="9.634122133127244"><ele>121.0</ele><time>2026-04-18T14:10:00.999Z</time></trkpt><trkpt lat="44.94317034567043" lon="9.634230604785122"><ele>121.0</ele><time>2026-04-18T14:10:01.999Z</time></trkpt><trkpt lat="44.94329184640084" lon="9.634345077811039"><ele>121.0</ele><time>2026-04-18T14:10:02.999Z</time></trkpt><trkpt lat="44.94341581175459" lon="9.634456165418062"><ele>121.0</ele><time>2026-04-18T14:10:04Z</time></trkpt><trkpt lat="44.94355139177622" lon="9.634555427129829"><ele>121.0</ele><time>2026-04-18T14:10:05Z</time></trkpt><trkpt lat="44.94370928766534" lon="9.634669248777952"><ele>121.0</ele><time>2026-04-18T14:10:06Z</time></trkpt><trkpt lat="44.94389070015059" lon="9.634792956593438"><ele>121.0</ele><time>2026-04-18T14:10:07Z</time></trkpt><trkpt lat="44.94407900677527" lon="9.634922233313132"><ele>121.0</ele><time>2026-04-18T14:10:08Z</time></trkpt><trkpt lat="44.94427703973019" lon="9.635062526542484"><ele>121.0</ele><time>2026-04-18T14:10:09Z</time></trkpt><trkpt lat="44.94448431651403" lon="9.635209997381184"><ele>121.0</ele><time>2026-04-18T14:10:10Z</time></trkpt><trkpt lat="44.94469896531306" lon="9.6353576609629"><ele>121.0</ele><time>2026-04-18T14:10:11Z</time></trkpt><trkpt lat="44.944914771722885" lon="9.635508879498323"><ele>121.0</ele><time>2026-04-18T14:10:12Z</time></trkpt><trkpt lat="44.94512259318626" lon="9.635656328365538"><ele>121.0</ele><time>2026-04-18T14:10:13Z</time></trkpt><trkpt lat="44.945335444185716" lon="9.635812373091357"><ele>121.0</ele><time>2026-04-18T14:10:14Z</time></trkpt><trkpt lat="44.94554765062996" lon="9.635969583482522"><ele>121.0</ele><time>2026-04-18T14:10:15Z</time></trkpt><trkpt lat="44.94576355457731" lon="9.636125977686026"><ele>121.0</ele><time>2026-04-18T14:10:16Z</time></trkpt><trkpt lat="44.94597789622523" lon="9.636275115002174"><ele>121.5</ele><time>2026-04-18T14:10:17Z</time></trkpt><trkpt lat="44.946194172260036" lon="9.636425715398623"><ele>122.0</ele><time>2026-04-18T14:10:18Z</time></trkpt><trkpt lat="44.946406447419946" lon="9.636574298848593"><ele>122.0</ele><time>2026-04-18T14:10:19Z</time></trkpt><trkpt lat="44.94661743256254" lon="9.636722008667059"><ele>122.0</ele><time>2026-04-18T14:10:20Z</time></trkpt><trkpt lat="44.94682815505754" lon="9.63686969270158"><ele>120.5</ele><time>2026-04-18T14:10:21Z</time></trkpt><trkpt lat="44.94703737570109" lon="9.6370153552616"><ele>119.0</ele><time>2026-04-18T14:10:22Z</time></trkpt><trkpt lat="44.94724047515617" lon="9.637157346310227"><ele>119.0</ele><time>2026-04-18T14:10:23Z</time></trkpt><trkpt lat="44.94744044299038" lon="9.637300630305146"><ele>119.0</ele><time>2026-04-18T14:10:24Z</time></trkpt><trkpt lat="44.947639839491075" lon="9.637443671642927"><ele>119.0</ele><time>2026-04-18T14:10:25.001Z</time></trkpt><trkpt lat="44.94784152865442" lon="9.63758649954971"><ele>119.0</ele><time>2026-04-18T14:10:26.001Z</time></trkpt><trkpt lat="44.94804262169203" lon="9.63772741004778"><ele>119.0</ele><time>2026-04-18T14:10:27.001Z</time></trkpt><trkpt lat="44.94824490030085" lon="9.637870767408078"><ele>119.0</ele><time>2026-04-18T14:10:28.001Z</time></trkpt><trkpt lat="44.948445553220175" lon="9.63801230519219"><ele>119.0</ele><time>2026-04-18T14:10:29.001Z</time></trkpt><trkpt lat="44.94864576459426" lon="9.638154894346329"><ele>119.0</ele><time>2026-04-18T14:10:30.001Z</time></trkpt><trkpt lat="44.94884515125281" lon="9.6382963955193"><ele>119.0</ele><time>2026-04-18T14:10:31.001Z</time></trkpt><trkpt lat="44.94903849373284" lon="9.638434311780255"><ele>119.0</ele><time>2026-04-18T14:10:32.001Z</time></trkpt><trkpt lat="44.94923188147164" lon="9.638571663508896"><ele>119.0</ele><time>2026-04-18T14:10:33.001Z</time></trkpt><trkpt lat="44.949425068499266" lon="9.638698524007697"><ele>118.66666666666666</ele><time>2026-04-18T14:10:34.001Z</time></trkpt><trkpt lat="44.949619123464394" lon="9.63884758732796"><ele>118.33333333333334</ele><time>2026-04-18T14:10:35.001Z</time></trkpt><trkpt lat="44.94981033334078" lon="9.638987141914786"><ele>118.0</ele><time>2026-04-18T14:10:36.001Z</time></trkpt><trkpt lat="44.950008435668" lon="9.639134496959974"><ele>117.5</ele><time>2026-04-18T14:10:37.001Z</time></trkpt><trkpt lat="44.95020773727128" lon="9.639284607297709"><ele>117.0</ele><time>2026-04-18T14:10:38.001Z</time></trkpt><trkpt lat="44.95040540952381" lon="9.63944175793697"><ele>116.5</ele><time>2026-04-18T14:10:39.001Z</time></trkpt><trkpt lat="44.95060396662939" lon="9.639604660682453"><ele>116.0</ele><time>2026-04-18T14:10:40.001Z</time></trkpt><trkpt lat="44.95080342896662" lon="9.639770785231162"><ele>115.0</ele><time>2026-04-18T14:10:41.001Z</time></trkpt><trkpt lat="44.95100579783169" lon="9.639942465794077"><ele>114.0</ele><time>2026-04-18T14:10:42.001Z</time></trkpt><trkpt lat="44.951208293294634" lon="9.640127151109565"><ele>114.5</ele><time>2026-04-18T14:10:43.001Z</time></trkpt><trkpt lat="44.951410584382124" lon="9.640312751424338"><ele>115.0</ele><time>2026-04-18T14:10:44.001Z</time></trkpt><trkpt lat="44.95161277828709" lon="9.640500853398583"><ele>114.5</ele><time>2026-04-18T14:10:45.001Z</time></trkpt><trkpt lat="44.9518130915074" lon="9.640691476238702"><ele>114.0</ele><time>2026-04-18T14:10:46.001Z</time></trkpt><trkpt lat="44.952013287188485" lon="9.640890489820396"><ele>114.0</ele><time>2026-04-18T14:10:47.001Z</time></trkpt><trkpt lat="44.95221058273982" lon="9.641094447288802"><ele>114.0</ele><time>2026-04-18T14:10:48.001Z</time></trkpt><trkpt lat="44.95240898058116" lon="9.641307404481491"><ele>113.5</ele><time>2026-04-18T14:10:49.001Z</time></trkpt><trkpt lat="44.95260271877991" lon="9.641519203937543"><ele>113.0</ele><time>2026-04-18T14:10:50.001Z</time></trkpt><trkpt lat="44.95279967317148" lon="9.641738139001571"><ele>113.0</ele><time>2026-04-18T14:10:51.001Z</time></trkpt><trkpt lat="44.952989950268126" lon="9.641959309053739"><ele>113.0</ele><time>2026-04-18T14:10:52.001Z</time></trkpt><trkpt lat="44.95317677339785" lon="9.64218745003208"><ele>113.0</ele><time>2026-04-18T14:10:53.001Z</time></trkpt><trkpt lat="44.953356509599814" lon="9.642419977496377"><ele>113.0</ele><time>2026-04-18T14:10:54.002Z</time></trkpt><trkpt lat="44.95352918276246" lon="9.642654858397353"><ele>113.0</ele><time>2026-04-18T14:10:55.002Z</time></trkpt><trkpt lat="44.95370391486553" lon="9.64288240405331"><ele>113.0</ele><time>2026-04-18T14:10:56.002Z</time></trkpt><trkpt lat="44.95387290028099" lon="9.643095347355581"><ele>113.0</ele><time>2026-04-18T14:10:57.002Z</time></trkpt><trkpt lat="44.954044296292075" lon="9.643329509464829"><ele>113.0</ele><time>2026-04-18T14:10:58.002Z</time></trkpt><trkpt lat="44.954214552790184" lon="9.643555888714817"><ele>111.5</ele><time>2026-04-18T14:10:59.002Z</time></trkpt><trkpt lat="44.95438984804612" lon="9.643786748802242"><ele>110.0</ele><time>2026-04-18T14:11:00.002Z</time></trkpt><trkpt lat="44.95456680094595" lon="9.64401424724486"><ele>110.0</ele><time>2026-04-18T14:11:01.002Z</time></trkpt><trkpt lat="44.95474166568184" lon="9.644242827741563"><ele>110.0</ele><time>2026-04-18T14:11:02.002Z</time></trkpt><trkpt lat="44.95491471582911" lon="9.6444705588665"><ele>110.0</ele><time>2026-04-18T14:11:03.002Z</time></trkpt><trkpt lat="44.95509025112596" lon="9.644702795451225"><ele>110.0</ele><time>2026-04-18T14:11:04.002Z</time></trkpt><trkpt lat="44.95526727013326" lon="9.644940549246762"><ele>110.0</ele><time>2026-04-18T14:11:05.002Z</time></trkpt><trkpt lat="44.95544288471882" lon="9.645171397381624"><ele>110.0</ele><time>2026-04-18T14:11:06.002Z</time></trkpt><trkpt lat="44.95562203212001" lon="9.645396075081218"><ele>109.5</ele><time>2026-04-18T14:11:07.002Z</time></trkpt><trkpt lat="44.95579810274259" lon="9.645607569538422"><ele>109.0</ele><time>2026-04-18T14:11:08.002Z</time></trkpt><trkpt lat="44.9559796019002" lon="9.64580534557054"><ele>108.5</ele><time>2026-04-18T14:11:09.002Z</time></trkpt><trkpt lat="44.95616556300771" lon="9.645997670507716"><ele>108.0</ele><time>2026-04-18T14:11:10.002Z</time></trkpt><trkpt lat="44.956350329563364" lon="9.646182067246034"><ele>108.0</ele><time>2026-04-18T14:11:11.002Z</time></trkpt><trkpt lat="44.95652793720139" lon="9.646351132405876"><ele>108.0</ele><time>2026-04-18T14:11:12.002Z</time></trkpt><trkpt lat="44.956696331986485" lon="9.646511480460326"><ele>108.0</ele><time>2026-04-18T14:11:13.002Z</time></trkpt><trkpt lat="44.956867168846784" lon="9.646659938403985"><ele>107.66666666666666</ele><time>2026-04-18T14:11:14.002Z</time></trkpt><trkpt lat="44.957040517735074" lon="9.646801454238485"><ele>107.33333333333333</ele><time>2026-04-18T14:11:15.002Z</time></trkpt><trkpt lat="44.95721194204295" lon="9.646931895913958"><ele>107.0</ele><time>2026-04-18T14:11:16.002Z</time></trkpt><trkpt lat="44.95737918486395" lon="9.647062823078622"><ele>106.33333333333333</ele><time>2026-04-18T14:11:17.002Z</time></trkpt><trkpt lat="44.9575436142662" lon="9.647192104840558"><ele>105.66666666666666</ele><time>2026-04-18T14:11:18.002Z</time></trkpt><trkpt lat="44.957707660194934" lon="9.64731758799376"><ele>105.0</ele><time>2026-04-18T14:11:19.002Z</time></trkpt><trkpt lat="44.957866154064284" lon="9.647443802356683"><ele>105.0</ele><time>2026-04-18T14:11:20.002Z</time></trkpt><trkpt lat="44.958023149305646" lon="9.647568849472085"><ele>105.0</ele><time>2026-04-18T14:11:21.002Z</time></trkpt><trkpt lat="44.95817938784602" lon="9.647692855803644"><ele>105.0</ele><time>2026-04-18T14:11:22.002Z</time></trkpt><trkpt lat="44.95833509475849" lon="9.647812767890558"><ele>105.0</ele><time>2026-04-18T14:11:23.002Z</time></trkpt><trkpt lat="44.95849193014207" lon="9.647932910349462"><ele>105.0</ele><time>2026-04-18T14:11:24.002Z</time></trkpt><trkpt lat="44.95864616353989" lon="9.648053020149247"><ele>105.0</ele><time>2026-04-18T14:11:25.002Z</time></trkpt><trkpt lat="44.95880447763854" lon="9.648174687759939"><ele>105.0</ele><time>2026-04-18T14:11:26.003Z</time></trkpt><trkpt lat="44.95895829810667" lon="9.648293116137017"><ele>105.0</ele><time>2026-04-18T14:11:27.003Z</time></trkpt><trkpt lat="44.95911137304708" lon="9.648413266810174"><ele>105.0</ele><time>2026-04-18T14:11:28.003Z</time></trkpt><trkpt lat="44.95925739883838" lon="9.648530888334248"><ele>104.66666666666666</ele><time>2026-04-18T14:11:29.003Z</time></trkpt><trkpt lat="44.95939586398662" lon="9.648641213653283"><ele>104.33333333333333</ele><time>2026-04-18T14:11:30.003Z</time></trkpt><trkpt lat="44.95953642500238" lon="9.648749878137604"><ele>104.0</ele><time>2026-04-18T14:11:31.003Z</time></trkpt><trkpt lat="44.95968107766608" lon="9.648864887483109"><ele>104.0</ele><time>2026-04-18T14:11:32.003Z</time></trkpt><trkpt lat="44.959823053325806" lon="9.648976954691214"><ele>104.0</ele><time>2026-04-18T14:11:33.003Z</time></trkpt><trkpt lat="44.95996377844712" lon="9.649089136290224"><ele>104.0</ele><time>2026-04-18T14:11:34.003Z</time></trkpt><trkpt lat="44.960104969579525" lon="9.649199587689875"><ele>103.33333333333333</ele><time>2026-04-18T14:11:35.003Z</time></trkpt><trkpt lat="44.96024571398478" lon="9.649305996108092"><ele>102.66666666666666</ele><time>2026-04-18T14:11:36.003Z</time></trkpt><trkpt lat="44.96038006100243" lon="9.649410258009132"><ele>102.0</ele><time>2026-04-18T14:11:37.003Z</time></trkpt><trkpt lat="44.960514548361964" lon="9.649514097465635"><ele>102.0</ele><time>2026-04-18T14:11:38.003Z</time></trkpt><trkpt lat="44.960648289050404" lon="9.649620466442052"><ele>102.0</ele><time>2026-04-18T14:11:39.003Z</time></trkpt><trkpt lat="44.96078284217376" lon="9.649727702677023"><ele>102.0</ele><time>2026-04-18T14:11:40.003Z</time></trkpt><trkpt lat="44.960917554181286" lon="9.649835824715428"><ele>101.75</ele><time>2026-04-18T14:11:41.003Z</time></trkpt><trkpt lat="44.96105031666744" lon="9.649942120760382"><ele>101.5</ele><time>2026-04-18T14:11:42.003Z</time></trkpt><trkpt lat="44.96117599567889" lon="9.65004169444276"><ele>101.25</ele><time>2026-04-18T14:11:43.003Z</time></trkpt><trkpt lat="44.961296524447825" lon="9.650136375267296"><ele>101.0</ele><time>2026-04-18T14:11:44.003Z</time></trkpt><trkpt lat="44.96141562467715" lon="9.650230283366117"><ele>101.25</ele><time>2026-04-18T14:11:45.003Z</time></trkpt><trkpt lat="44.96153117990865" lon="9.650320953843387"><ele>101.5</ele><time>2026-04-18T14:11:46.003Z</time></trkpt><trkpt lat="44.96165386755746" lon="9.65041467538211"><ele>101.75</ele><time>2026-04-18T14:11:47.003Z</time></trkpt><trkpt lat="44.96178254585331" lon="9.65052311633886"><ele>102.0</ele><time>2026-04-18T14:11:48.003Z</time></trkpt><trkpt lat="44.96191964360686" lon="9.650638650955935"><ele>102.0</ele><time>2026-04-18T14:11:49.003Z</time></trkpt><trkpt lat="44.9620602226111" lon="9.650753164520296"><ele>102.0</ele><time>2026-04-18T14:11:50.003Z</time></trkpt><trkpt lat="44.96220578416496" lon="9.650870137431784"><ele>102.0</ele><time>2026-04-18T14:11:51.003Z</time></trkpt><trkpt lat="44.96235209898069" lon="9.650986420688357"><ele>102.0</ele><time>2026-04-18T14:11:52.003Z</time></trkpt><trkpt lat="44.96249814423336" lon="9.651101662237247"><ele>102.0</ele><time>2026-04-18T14:11:53.003Z</time></trkpt><trkpt lat="44.96264220117811" lon="9.651214265849697"><ele>102.0</ele><time>2026-04-18T14:11:53.999Z</time></trkpt><trkpt lat="44.96278338391258" lon="9.65132578716699"><ele>101.66666666666666</ele><time>2026-04-18T14:11:54.999Z</time></trkpt><trkpt lat="44.962925896665546" lon="9.651437131482718"><ele>101.33333333333333</ele><time>2026-04-18T14:11:55.999Z</time></trkpt><trkpt lat="44.96306890264641" lon="9.651548898159572"><ele>101.0</ele><time>2026-04-18T14:11:56.999Z</time></trkpt><trkpt lat="44.963211877103575" lon="9.651661309729318"><ele>101.0</ele><time>2026-04-18T14:11:57.999Z</time></trkpt><trkpt lat="44.963360661368924" lon="9.651778910163726"><ele>101.0</ele><time>2026-04-18T14:11:58.999Z</time></trkpt><trkpt lat="44.9635075058662" lon="9.65189701759256"><ele>101.0</ele><time>2026-04-18T14:11:59.999Z</time></trkpt><trkpt lat="44.96365526753311" lon="9.652017620772039"><ele>101.33333333333333</ele><time>2026-04-18T14:12:00.999Z</time></trkpt><trkpt lat="44.96380171000845" lon="9.652141434631453"><ele>101.66666666666666</ele><time>2026-04-18T14:12:01.999Z</time></trkpt><trkpt lat="44.96396333245313" lon="9.652264730309746"><ele>102.0</ele><time>2026-04-18T14:12:02.999Z</time></trkpt><trkpt lat="44.9641203176117" lon="9.65238490698337"><ele>101.66666666666666</ele><time>2026-04-18T14:12:03.999Z</time></trkpt><trkpt lat="44.964288536849" lon="9.65250591115482"><ele>101.33333333333333</ele><time>2026-04-18T14:12:04.999Z</time></trkpt><trkpt lat="44.9644603673565" lon="9.652630925875409"><ele>101.0</ele><time>2026-04-18T14:12:05.999Z</time></trkpt><trkpt lat="44.96463649472049" lon="9.652749620314093"><ele>101.0</ele><time>2026-04-18T14:12:06.999Z</time></trkpt><trkpt lat="44.964815878401225" lon="9.652863173934861"><ele>101.0</ele><time>2026-04-18T14:12:08Z</time></trkpt><trkpt lat="44.964992610813034" lon="9.652965841431275"><ele>101.0</ele><time>2026-04-18T14:12:09Z</time></trkpt><trkpt lat="44.9651704490014" lon="9.653059396256571"><ele>100.66666666666666</ele><time>2026-04-18T14:12:10Z</time></trkpt><trkpt lat="44.96535245616885" lon="9.653156935163503"><ele>100.33333333333334</ele><time>2026-04-18T14:12:11Z</time></trkpt><trkpt lat="44.96553901353685" lon="9.653254281222432"><ele>100.0</ele><time>2026-04-18T14:12:12Z</time></trkpt><trkpt lat="44.96572639819608" lon="9.653352351290035"><ele>99.66666666666667</ele><time>2026-04-18T14:12:13Z</time></trkpt><trkpt lat="44.96592169240511" lon="9.653455389173313"><ele>99.33333333333334</ele><time>2026-04-18T14:12:14Z</time></trkpt><trkpt lat="44.96612056164104" lon="9.653560998304558"><ele>99.0</ele><time>2026-04-18T14:12:15Z</time></trkpt><trkpt lat="44.966323956315925" lon="9.653669148584243"><ele>99.0</ele><time>2026-04-18T14:12:16Z</time></trkpt><trkpt lat="44.966527356862656" lon="9.653775908210488"><ele>99.0</ele><time>2026-04-18T14:12:17Z</time></trkpt><trkpt lat="44.96673576068263" lon="9.65388496662516"><ele>99.0</ele><time>2026-04-18T14:12:18Z</time></trkpt><trkpt lat="44.96695414779203" lon="9.65399668175722"><ele>99.0</ele><time>2026-04-18T14:12:19Z</time></trkpt><trkpt lat="44.96717828550746" lon="9.654111399349793"><ele>99.0</ele><time>2026-04-18T14:12:20Z</time></trkpt><trkpt lat="44.96740281700335" lon="9.654226339089332"><ele>98.5</ele><time>2026-04-18T14:12:21Z</time></trkpt><trkpt lat="44.967630161448255" lon="9.654341874557574"><ele>98.0</ele><time>2026-04-18T14:12:22Z</time></trkpt><trkpt lat="44.96785771445505" lon="9.654456830727671"><ele>97.5</ele><time>2026-04-18T14:12:23Z</time></trkpt><trkpt lat="44.96808494858147" lon="9.654572331032034"><ele>97.0</ele><time>2026-04-18T14:12:24Z</time></trkpt><trkpt lat="44.968305714035864" lon="9.654686876821366"><ele>97.0</ele><time>2026-04-18T14:12:25Z</time></trkpt><trkpt lat="44.96852282465783" lon="9.654797001072472"><ele>97.0</ele><time>2026-04-18T14:12:26Z</time></trkpt><trkpt lat="44.968727955063976" lon="9.654901160360835"><ele>97.0</ele><time>2026-04-18T14:12:27Z</time></trkpt><trkpt lat="44.96892279106025" lon="9.655000225915291"><ele>97.0</ele><time>2026-04-18T14:12:28Z</time></trkpt><trkpt lat="44.96911451108027" lon="9.655097725171087"><ele>97.0</ele><time>2026-04-18T14:12:29.001Z</time></trkpt><trkpt lat="44.96931118797033" lon="9.655197861498687"><ele>97.0</ele><time>2026-04-18T14:12:30.001Z</time></trkpt><trkpt lat="44.96950468372715" lon="9.65529774680865"><ele>96.66666666666667</ele><time>2026-04-18T14:12:31.001Z</time></trkpt><trkpt lat="44.96969632725936" lon="9.65539810498658"><ele>96.33333333333334</ele><time>2026-04-18T14:12:32.001Z</time></trkpt><trkpt lat="44.96989473734506" lon="9.655497868572343"><ele>96.0</ele><time>2026-04-18T14:12:33.001Z</time></trkpt><trkpt lat="44.97009515563461" lon="9.655596763104603"><ele>96.0</ele><time>2026-04-18T14:12:34.001Z</time></trkpt><trkpt lat="44.97030301086456" lon="9.655700606779817"><ele>96.0</ele><time>2026-04-18T14:12:35.001Z</time></trkpt><trkpt lat="44.97051607226131" lon="9.655806793417389"><ele>96.0</ele><time>2026-04-18T14:12:36.001Z</time></trkpt><trkpt lat="44.97073609868107" lon="9.655915358849208"><ele>96.0</ele><time>2026-04-18T14:12:37.001Z</time></trkpt><trkpt lat="44.97095692137453" lon="9.65602481014497"><ele>96.0</ele><time>2026-04-18T14:12:38.001Z</time></trkpt><trkpt lat="44.97117437498963" lon="9.656161577779915"><ele>96.5</ele><time>2026-04-18T14:12:39.001Z</time></trkpt><trkpt lat="44.97139865753505" lon="9.65627720201537"><ele>97.0</ele><time>2026-04-18T14:12:40.001Z</time></trkpt><trkpt lat="44.97162425263617" lon="9.656393630887983"><ele>96.5</ele><time>2026-04-18T14:12:41.001Z</time></trkpt><trkpt lat="44.971855707235484" lon="9.656473128411449"><ele>96.0</ele><time>2026-04-18T14:12:42.001Z</time></trkpt><trkpt lat="44.97208161157149" lon="9.656588071374665"><ele>96.0</ele><time>2026-04-18T14:12:43.001Z</time></trkpt><trkpt lat="44.972312736919584" lon="9.656708042075305"><ele>96.0</ele><time>2026-04-18T14:12:44.001Z</time></trkpt><trkpt lat="44.97254083763331" lon="9.656829567021592"><ele>95.5</ele><time>2026-04-18T14:12:45.001Z</time></trkpt><trkpt lat="44.97276723298801" lon="9.656959786295332"><ele>95.0</ele><time>2026-04-18T14:12:46.001Z</time></trkpt><trkpt lat="44.972996373344905" lon="9.657094413327696"><ele>95.0</ele><time>2026-04-18T14:12:47.001Z</time></trkpt><trkpt lat="44.973223825765544" lon="9.65722552809015"><ele>95.0</ele><time>2026-04-18T14:12:48.001Z</time></trkpt><trkpt lat="44.97345456635981" lon="9.657352718238881"><ele>94.0</ele><time>2026-04-18T14:12:49.001Z</time></trkpt><trkpt lat="44.97368802048467" lon="9.657477690246317"><ele>93.0</ele><time>2026-04-18T14:12:50.001Z</time></trkpt><trkpt lat="44.97392301743761" lon="9.657599983661228"><ele>93.0</ele><time>2026-04-18T14:12:51.001Z</time></trkpt><trkpt lat="44.97415861641385" lon="9.657719274643652"><ele>93.0</ele><time>2026-04-18T14:12:52.001Z</time></trkpt><trkpt lat="44.97439500359971" lon="9.657840882029172"><ele>93.5</ele><time>2026-04-18T14:12:53.001Z</time></trkpt><trkpt lat="44.97462970899056" lon="9.657961519015705"><ele>94.0</ele><time>2026-04-18T14:12:54.001Z</time></trkpt><trkpt lat="44.97486593146429" lon="9.658086988778894"><ele>93.5</ele><time>2026-04-18T14:12:55.001Z</time></trkpt><trkpt lat="44.97510533035908" lon="9.658210687998501"><ele>93.0</ele><time>2026-04-18T14:12:56.001Z</time></trkpt><trkpt lat="44.97534710965454" lon="9.658331380110981"><ele>93.0</ele><time>2026-04-18T14:12:57.001Z</time></trkpt><trkpt lat="44.97559128566223" lon="9.658442504843146"><ele>93.0</ele><time>2026-04-18T14:12:58.002Z</time></trkpt><trkpt lat="44.97583856154277" lon="9.658537158621264"><ele>92.5</ele><time>2026-04-18T14:12:59.002Z</time></trkpt><trkpt lat="44.976092159671126" lon="9.658618410442507"><ele>92.0</ele><time>2026-04-18T14:13:00.002Z</time></trkpt><trkpt lat="44.97634884248322" lon="9.658690444973196"><ele>92.0</ele><time>2026-04-18T14:13:01.002Z</time></trkpt><trkpt lat="44.97661103458657" lon="9.658756528598316"><ele>92.0</ele><time>2026-04-18T14:13:02.002Z</time></trkpt><trkpt lat="44.97687852289732" lon="9.658828064755024"><ele>91.5</ele><time>2026-04-18T14:13:03.002Z</time></trkpt><trkpt lat="44.97715143959871" lon="9.65890328625115"><ele>91.0</ele><time>2026-04-18T14:13:04.002Z</time></trkpt><trkpt lat="44.97742267124274" lon="9.658981272840055"><ele>90.5</ele><time>2026-04-18T14:13:05.002Z</time></trkpt><trkpt lat="44.977696317954134" lon="9.65905925931645"><ele>90.0</ele><time>2026-04-18T14:13:06.002Z</time></trkpt><trkpt lat="44.977967470365286" lon="9.659135504212934"><ele>90.0</ele><time>2026-04-18T14:13:07.002Z</time></trkpt><trkpt lat="44.978236719201156" lon="9.659210173531594"><ele>90.0</ele><time>2026-04-18T14:13:08.002Z</time></trkpt><trkpt lat="44.97850120076654" lon="9.659280573255252"><ele>91.0</ele><time>2026-04-18T14:13:09.002Z</time></trkpt><trkpt lat="44.9787613827128" lon="9.659355621944716"><ele>92.0</ele><time>2026-04-18T14:13:10.002Z</time></trkpt><trkpt lat="44.979019788489225" lon="9.65942704627846"><ele>90.5</ele><time>2026-04-18T14:13:11.002Z</time></trkpt><trkpt lat="44.979279573467906" lon="9.659499279611063"><ele>89.0</ele><time>2026-04-18T14:13:12.002Z</time></trkpt><trkpt lat="44.97953723444194" lon="9.659571244136453"><ele>89.0</ele><time>2026-04-18T14:13:13.002Z</time></trkpt><trkpt lat="44.97979852392537" lon="9.65964310853039"><ele>89.0</ele><time>2026-04-18T14:13:14.002Z</time></trkpt><trkpt lat="44.980059430299924" lon="9.65971286517868"><ele>89.0</ele><time>2026-04-18T14:13:15.002Z</time></trkpt><trkpt lat="44.980319327591154" lon="9.659783028557223"><ele>89.0</ele><time>2026-04-18T14:13:16.002Z</time></trkpt><trkpt lat="44.98058033361889" lon="9.659853778083065"><ele>89.0</ele><time>2026-04-18T14:13:17.002Z</time></trkpt><trkpt lat="44.980839086367425" lon="9.659926054000602"><ele>89.0</ele><time>2026-04-18T14:13:18.002Z</time></trkpt><trkpt lat="44.98109693478822" lon="9.659998733340013"><ele>89.0</ele><time>2026-04-18T14:13:19.002Z</time></trkpt><trkpt lat="44.981358781420255" lon="9.660072935497686"><ele>89.0</ele><time>2026-04-18T14:13:20.002Z</time></trkpt><trkpt lat="44.98162208256091" lon="9.660145171639261"><ele>89.0</ele><time>2026-04-18T14:13:21.002Z</time></trkpt><trkpt lat="44.98188787791824" lon="9.660217268742574"><ele>89.0</ele><time>2026-04-18T14:13:22.002Z</time></trkpt><trkpt lat="44.98214913220159" lon="9.660288845256968"><ele>89.0</ele><time>2026-04-18T14:13:23.002Z</time></trkpt><trkpt lat="44.98241415974327" lon="9.66036112570091"><ele>89.0</ele><time>2026-04-18T14:13:24.002Z</time></trkpt><trkpt lat="44.98268522568837" lon="9.660435049955288"><ele>89.0</ele><time>2026-04-18T14:13:25.002Z</time></trkpt><trkpt lat="44.98295528383276" lon="9.66050765832634"><ele>89.0</ele><time>2026-04-18T14:13:26.002Z</time></trkpt><trkpt lat="44.98322648214243" lon="9.660580769455262"><ele>88.0</ele><time>2026-04-18T14:13:27.002Z</time></trkpt><trkpt lat="44.98349449893654" lon="9.660655294489802"><ele>87.0</ele><time>2026-04-18T14:13:28.002Z</time></trkpt><trkpt lat="44.98376463281685" lon="9.660731339493493"><ele>87.0</ele><time>2026-04-18T14:13:29.002Z</time></trkpt><trkpt lat="44.98403192099361" lon="9.660807053929275"><ele>87.0</ele><time>2026-04-18T14:13:30.002Z</time></trkpt><trkpt lat="44.98429092992803" lon="9.660880429808346"><ele>87.5</ele><time>2026-04-18T14:13:31.003Z</time></trkpt><trkpt lat="44.98455557819817" lon="9.660954932783705"><ele>88.0</ele><time>2026-04-18T14:13:32.003Z</time></trkpt><trkpt lat="44.98481672660852" lon="9.66102734006136"><ele>88.0</ele><time>2026-04-18T14:13:33.003Z</time></trkpt><trkpt lat="44.985069729692086" lon="9.661096920223674"><ele>88.0</ele><time>2026-04-18T14:13:34.003Z</time></trkpt><trkpt lat="44.98530991339039" lon="9.661162488014087"><ele>87.66666666666666</ele><time>2026-04-18T14:13:35.003Z</time></trkpt><trkpt lat="44.985531137976274" lon="9.661227991046633"><ele>87.33333333333333</ele><time>2026-04-18T14:13:36.003Z</time></trkpt><trkpt lat="44.985742710857984" lon="9.661296712380373"><ele>87.0</ele><time>2026-04-18T14:13:37.003Z</time></trkpt><trkpt lat="44.98595902149537" lon="9.661375882256422"><ele>87.0</ele><time>2026-04-18T14:13:38.003Z</time></trkpt><trkpt lat="44.98617480295667" lon="9.661467776926228"><ele>87.0</ele><time>2026-04-18T14:13:39.003Z</time></trkpt><trkpt lat="44.98638814388131" lon="9.66158019063456"><ele>87.0</ele><time>2026-04-18T14:13:40.003Z</time></trkpt><trkpt lat="44.98659922216428" lon="9.661699516386642"><ele>87.0</ele><time>2026-04-18T14:13:41.003Z</time></trkpt><trkpt lat="44.98681457962044" lon="9.661821417927422"><ele>86.5</ele><time>2026-04-18T14:13:42.003Z</time></trkpt><trkpt lat="44.987032602569414" lon="9.661939433000697"><ele>86.0</ele><time>2026-04-18T14:13:43.003Z</time></trkpt><trkpt lat="44.98724972483396" lon="9.662056894086463"><ele>85.5</ele><time>2026-04-18T14:13:44.003Z</time></trkpt><trkpt lat="44.987466687795134" lon="9.662171998940599"><ele>85.0</ele><time>2026-04-18T14:13:45.003Z</time></trkpt><trkpt lat="44.98768529160083" lon="9.662287515407149"><ele>85.0</ele><time>2026-04-18T14:13:46.003Z</time></trkpt><trkpt lat="44.98790339398632" lon="9.662403222179679"><ele>85.0</ele><time>2026-04-18T14:13:47.003Z</time></trkpt><trkpt lat="44.988116954526376" lon="9.6625206684863"><ele>85.0</ele><time>2026-04-18T14:13:48.003Z</time></trkpt><trkpt lat="44.98832963317568" lon="9.66264100599157"><ele>85.0</ele><time>2026-04-18T14:13:49.003Z</time></trkpt><trkpt lat="44.98854304580613" lon="9.662756600000243"><ele>84.5</ele><time>2026-04-18T14:13:50.003Z</time></trkpt><trkpt lat="44.98875655611393" lon="9.662865091215478"><ele>84.0</ele><time>2026-04-18T14:13:51.003Z</time></trkpt><trkpt lat="44.988970753589506" lon="9.662964837778878"><ele>83.33333333333333</ele><time>2026-04-18T14:13:52.003Z</time></trkpt><trkpt lat="44.98917770427628" lon="9.663051113356051"><ele>82.66666666666666</ele><time>2026-04-18T14:13:53.003Z</time></trkpt><trkpt lat="44.98939132123938" lon="9.663130884330585"><ele>82.0</ele><time>2026-04-18T14:13:54.003Z</time></trkpt><trkpt lat="44.98960204489607" lon="9.663207258543729"><ele>82.0</ele><time>2026-04-18T14:13:55.003Z</time></trkpt><trkpt lat="44.98981146055805" lon="9.663284259183692"><ele>82.0</ele><time>2026-04-18T14:13:56.003Z</time></trkpt><trkpt lat="44.990016653826146" lon="9.663356792099542"><ele>82.0</ele><time>2026-04-18T14:13:57.003Z</time></trkpt><trkpt lat="44.99021732037172" lon="9.663427195577528"><ele>82.0</ele><time>2026-04-18T14:13:58.003Z</time></trkpt><trkpt lat="44.99041292627891" lon="9.663500641168573"><ele>82.0</ele><time>2026-04-18T14:13:59.003Z</time></trkpt><trkpt lat="44.990605289074615" lon="9.663569739195845"><ele>82.0</ele><time>2026-04-18T14:13:59.999Z</time></trkpt><trkpt lat="44.99081084318299" lon="9.663638497410744"><ele>83.0</ele><time>2026-04-18T14:14:00.999Z</time></trkpt><trkpt lat="44.99102059681994" lon="9.663709331451471"><ele>84.0</ele><time>2026-04-18T14:14:01.999Z</time></trkpt><trkpt lat="44.99123034530125" lon="9.663781988741926"><ele>85.0</ele><time>2026-04-18T14:14:02.999Z</time></trkpt><trkpt lat="44.991442808576075" lon="9.663858718331127"><ele>85.0</ele><time>2026-04-18T14:14:03.999Z</time></trkpt><trkpt lat="44.991657300759584" lon="9.663933049038443"><ele>85.0</ele><time>2026-04-18T14:14:04.999Z</time></trkpt><trkpt lat="44.99186820127836" lon="9.664010341068671"><ele>85.0</ele><time>2026-04-18T14:14:05.999Z</time></trkpt><trkpt lat="44.992072811917986" lon="9.664085643400274"><ele>85.0</ele><time>2026-04-18T14:14:06.999Z</time></trkpt><trkpt lat="44.99226833626279" lon="9.664156907325234"><ele>85.0</ele><time>2026-04-18T14:14:07.999Z</time></trkpt><trkpt lat="44.99245410598438" lon="9.66422499466197"><ele>85.0</ele><time>2026-04-18T14:14:08.999Z</time></trkpt><trkpt lat="44.99263090216088" lon="9.664290938643001"><ele>85.0</ele><time>2026-04-18T14:14:09.999Z</time></trkpt><trkpt lat="44.992798329200824" lon="9.664351241679423"><ele>85.0</ele><time>2026-04-18T14:14:10.999Z</time></trkpt><trkpt lat="44.992958017402216" lon="9.664410583440727"><ele>85.0</ele><time>2026-04-18T14:14:11.999Z</time></trkpt><trkpt lat="44.993114432292415" lon="9.664470525204392"><ele>85.0</ele><time>2026-04-18T14:14:12.999Z</time></trkpt><trkpt lat="44.993272879713146" lon="9.664533697240003"><ele>85.0</ele><time>2026-04-18T14:14:13.999Z</time></trkpt><trkpt lat="44.9934356126942" lon="9.664604142969937"><ele>85.0</ele><time>2026-04-18T14:14:14.999Z</time></trkpt><trkpt lat="44.99359379084296" lon="9.66467412129082"><ele>85.0</ele><time>2026-04-18T14:14:16Z</time></trkpt><trkpt lat="44.99374027816515" lon="9.664742179304564"><ele>85.0</ele><time>2026-04-18T14:14:17Z</time></trkpt><trkpt lat="44.99388577934845" lon="9.66481141665"><ele>85.0</ele><time>2026-04-18T14:14:18Z</time></trkpt><trkpt lat="44.99403629609888" lon="9.664881310937634"><ele>85.0</ele><time>2026-04-18T14:14:19Z</time></trkpt><trkpt lat="44.99418607490238" lon="9.664948591364471"><ele>85.0</ele><time>2026-04-18T14:14:20Z</time></trkpt><trkpt lat="44.99433843904628" lon="9.665013216192762"><ele>85.0</ele><time>2026-04-18T14:14:21Z</time></trkpt><trkpt lat="44.99448098270919" lon="9.665080483556036"><ele>85.0</ele><time>2026-04-18T14:14:22Z</time></trkpt><trkpt lat="44.99462602076495" lon="9.6651504453896"><ele>85.0</ele><time>2026-04-18T14:14:23Z</time></trkpt><trkpt lat="44.9947714054314" lon="9.66521956689872"><ele>85.0</ele><time>2026-04-18T14:14:24Z</time></trkpt><trkpt lat="44.99491753810558" lon="9.665289310291659"><ele>84.75</ele><time>2026-04-18T14:14:25Z</time></trkpt><trkpt lat="44.995064519555754" lon="9.665357464579968"><ele>84.5</ele><time>2026-04-18T14:14:26Z</time></trkpt><trkpt lat="44.99520575919228" lon="9.66542160325779"><ele>84.25</ele><time>2026-04-18T14:14:27Z</time></trkpt><trkpt lat="44.99534159995551" lon="9.665482122057831"><ele>84.0</ele><time>2026-04-18T14:14:28Z</time></trkpt><trkpt lat="44.99547840551737" lon="9.665539995741538"><ele>84.0</ele><time>2026-04-18T14:14:29Z</time></trkpt><trkpt lat="44.995613164714456" lon="9.665591576692991"><ele>84.0</ele><time>2026-04-18T14:14:30Z</time></trkpt><trkpt lat="44.99574678590427" lon="9.665643993635255"><ele>84.0</ele><time>2026-04-18T14:14:31Z</time></trkpt><trkpt lat="44.99588166570903" lon="9.665694605751113"><ele>84.0</ele><time>2026-04-18T14:14:32Z</time></trkpt><trkpt lat="44.996012687964125" lon="9.665746363300935"><ele>84.25</ele><time>2026-04-18T14:14:33Z</time></trkpt><trkpt lat="44.99614300539508" lon="9.665804549179935"><ele>84.5</ele><time>2026-04-18T14:14:34Z</time></trkpt><trkpt lat="44.996271863198196" lon="9.665866866321327"><ele>84.75</ele><time>2026-04-18T14:14:35.001Z</time></trkpt><trkpt lat="44.99639146770411" lon="9.665926170568952"><ele>85.0</ele><time>2026-04-18T14:14:36.001Z</time></trkpt><trkpt lat="44.99650586645262" lon="9.66598039422837"><ele>85.0</ele><time>2026-04-18T14:14:37.001Z</time></trkpt><trkpt lat="44.996616836424955" lon="9.66603364383308"><ele>85.0</ele><time>2026-04-18T14:14:38.001Z</time></trkpt><trkpt lat="44.99673546486774" lon="9.66609128740609"><ele>85.0</ele><time>2026-04-18T14:14:39.001Z</time></trkpt><trkpt lat="44.99686463668673" lon="9.666159312033086"><ele>85.0</ele><time>2026-04-18T14:14:40.001Z</time></trkpt><trkpt lat="44.99700338879076" lon="9.666237763284236"><ele>84.33333333333333</ele><time>2026-04-18T14:14:41.001Z</time></trkpt><trkpt lat="44.99715661324842" lon="9.66632625485152"><ele>83.66666666666667</ele><time>2026-04-18T14:14:42.001Z</time></trkpt><trkpt lat="44.997316592815174" lon="9.666427116274674"><ele>83.0</ele><time>2026-04-18T14:14:43.001Z</time></trkpt><trkpt lat="44.99747880567834" lon="9.666536338205251"><ele>82.33333333333334</ele><time>2026-04-18T14:14:44.001Z</time></trkpt><trkpt lat="44.997639942228886" lon="9.666639609352814"><ele>81.66666666666667</ele><time>2026-04-18T14:14:45.001Z</time></trkpt><trkpt lat="44.99780361716119" lon="9.666734136314723"><ele>81.0</ele><time>2026-04-18T14:14:46.001Z</time></trkpt><trkpt lat="44.99797648629517" lon="9.666836590729847"><ele>81.0</ele><time>2026-04-18T14:14:47.001Z</time></trkpt><trkpt lat="44.99815890533568" lon="9.666936275106996"><ele>81.0</ele><time>2026-04-18T14:14:48.001Z</time></trkpt><trkpt lat="44.99834195453779" lon="9.667035635204698"><ele>81.0</ele><time>2026-04-18T14:14:49.001Z</time></trkpt><trkpt lat="44.9985369718583" lon="9.667137731891218"><ele>80.66666666666667</ele><time>2026-04-18T14:14:50.001Z</time></trkpt><trkpt lat="44.998737457394654" lon="9.667238404292908"><ele>80.33333333333334</ele><time>2026-04-18T14:14:51.001Z</time></trkpt><trkpt lat="44.99893088208092" lon="9.667334244482374"><ele>80.0</ele><time>2026-04-18T14:14:52.001Z</time></trkpt><trkpt lat="44.99912137867685" lon="9.667431386422024"><ele>79.66666666666667</ele><time>2026-04-18T14:14:53.001Z</time></trkpt><trkpt lat="44.99931497061649" lon="9.667528097151326"><ele>79.33333333333333</ele><time>2026-04-18T14:14:54.001Z</time></trkpt><trkpt lat="44.99951015528741" lon="9.667625305634196"><ele>79.0</ele><time>2026-04-18T14:14:55.001Z</time></trkpt><trkpt lat="44.999708943733395" lon="9.66772262268727"><ele>79.33333333333333</ele><time>2026-04-18T14:14:56.001Z</time></trkpt><trkpt lat="44.999907422940474" lon="9.66781781515084"><ele>79.66666666666667</ele><time>2026-04-18T14:14:57.001Z</time></trkpt><trkpt lat="45.00010784942512" lon="9.667913655117344"><ele>80.0</ele><time>2026-04-18T14:14:58.001Z</time></trkpt><trkpt lat="45.0003099074291" lon="9.668012069528485"><ele>80.0</ele><time>2026-04-18T14:14:59.001Z</time></trkpt><trkpt lat="45.000516782636076" lon="9.668111172053026"><ele>80.0</ele><time>2026-04-18T14:15:00.001Z</time></trkpt><trkpt lat="45.000726330458065" lon="9.668210195272957"><ele>80.0</ele><time>2026-04-18T14:15:01.001Z</time></trkpt><trkpt lat="45.00093658821421" lon="9.66831007319131"><ele>80.0</ele><time>2026-04-18T14:15:02.001Z</time></trkpt><trkpt lat="45.00114274374081" lon="9.668408096204313"><ele>80.0</ele><time>2026-04-18T14:15:03.001Z</time></trkpt><trkpt lat="45.00133899041414" lon="9.66850196418407"><ele>80.0</ele><time>2026-04-18T14:15:04.002Z</time></trkpt><trkpt lat="45.00153676367838" lon="9.668598028334312"><ele>80.33333333333334</ele><time>2026-04-18T14:15:05.002Z</time></trkpt><trkpt lat="45.00173975572548" lon="9.668694346056938"><ele>80.66666666666667</ele><time>2026-04-18T14:15:06.002Z</time></trkpt><trkpt lat="45.00194078942813" lon="9.668790624589368"><ele>81.0</ele><time>2026-04-18T14:15:07.002Z</time></trkpt><trkpt lat="45.0021424430187" lon="9.668887988326356"><ele>81.0</ele><time>2026-04-18T14:15:08.002Z</time></trkpt><trkpt lat="45.0023468198793" lon="9.668986247994054"><ele>81.0</ele><time>2026-04-18T14:15:09.002Z</time></trkpt><trkpt lat="45.00254684224839" lon="9.66908043462507"><ele>81.0</ele><time>2026-04-18T14:15:10.002Z</time></trkpt><trkpt lat="45.00273996180631" lon="9.669173913036046"><ele>80.66666666666667</ele><time>2026-04-18T14:15:11.002Z</time></trkpt><trkpt lat="45.0029211289725" lon="9.669255101007124"><ele>80.33333333333334</ele><time>2026-04-18T14:15:12.002Z</time></trkpt><trkpt lat="45.003092449186234" lon="9.669332447845049"><ele>80.0</ele><time>2026-04-18T14:15:13.002Z</time></trkpt><trkpt lat="45.00325747028911" lon="9.669411213016566"><ele>79.66666666666667</ele><time>2026-04-18T14:15:14.002Z</time></trkpt><trkpt lat="45.003429045947314" lon="9.6694955949346"><ele>79.33333333333333</ele><time>2026-04-18T14:15:15.002Z</time></trkpt><trkpt lat="45.00361212520579" lon="9.669584162794665"><ele>79.0</ele><time>2026-04-18T14:15:16.002Z</time></trkpt><trkpt lat="45.003802750455115" lon="9.669675814934708"><ele>79.0</ele><time>2026-04-18T14:15:17.002Z</time></trkpt><trkpt lat="45.00399802631016" lon="9.669773932286512"><ele>79.0</ele><time>2026-04-18T14:15:18.002Z</time></trkpt><trkpt lat="45.00419866675219" lon="9.66988082941387"><ele>79.0</ele><time>2026-04-18T14:15:19.002Z</time></trkpt><trkpt lat="45.00440189257814" lon="9.66998861857714"><ele>79.0</ele><time>2026-04-18T14:15:20.002Z</time></trkpt><trkpt lat="45.0046096419414" lon="9.670094773087177"><ele>79.0</ele><time>2026-04-18T14:15:21.002Z</time></trkpt><trkpt lat="45.004820706729916" lon="9.670199243300374"><ele>79.0</ele><time>2026-04-18T14:15:22.002Z</time></trkpt><trkpt lat="45.00503424737172" lon="9.670302475963455"><ele>78.0</ele><time>2026-04-18T14:15:23.002Z</time></trkpt><trkpt lat="45.00524989044718" lon="9.670405276010767"><ele>77.0</ele><time>2026-04-18T14:15:24.002Z</time></trkpt><trkpt lat="45.00546532502639" lon="9.670507076468834"><ele>77.0</ele><time>2026-04-18T14:15:25.002Z</time></trkpt><trkpt lat="45.00568025325531" lon="9.6706065468936"><ele>77.0</ele><time>2026-04-18T14:15:26.002Z</time></trkpt><trkpt lat="45.00589311570281" lon="9.670701117825711"><ele>77.0</ele><time>2026-04-18T14:15:27.002Z</time></trkpt><trkpt lat="45.00610284921125" lon="9.670793468141003"><ele>77.0</ele><time>2026-04-18T14:15:28.002Z</time></trkpt><trkpt lat="45.006313015827295" lon="9.67088769856848"><ele>77.0</ele><time>2026-04-18T14:15:29.002Z</time></trkpt><trkpt lat="45.00651976638493" lon="9.670981186308643"><ele>77.0</ele><time>2026-04-18T14:15:30.002Z</time></trkpt><trkpt lat="45.00672566514998" lon="9.671072796629302"><ele>77.0</ele><time>2026-04-18T14:15:31.002Z</time></trkpt><trkpt lat="45.00692689179182" lon="9.671159846195275"><ele>77.0</ele><time>2026-04-18T14:15:32.002Z</time></trkpt><trkpt lat="45.00712446939776" lon="9.671245932418046"><ele>77.0</ele><time>2026-04-18T14:15:33.002Z</time></trkpt><trkpt lat="45.00731658480457" lon="9.671332753211958"><ele>77.0</ele><time>2026-04-18T14:15:34.002Z</time></trkpt><trkpt lat="45.007509447412964" lon="9.67141950332931"><ele>77.0</ele><time>2026-04-18T14:15:35.002Z</time></trkpt><trkpt lat="45.007695505688" lon="9.671505197936613"><ele>77.0</ele><time>2026-04-18T14:15:36.002Z</time></trkpt><trkpt lat="45.007872747434774" lon="9.671587550448622"><ele>77.0</ele><time>2026-04-18T14:15:37.003Z</time></trkpt><trkpt lat="45.008042910547985" lon="9.671669802979979"><ele>77.0</ele><time>2026-04-18T14:15:38.003Z</time></trkpt><trkpt lat="45.00821222127094" lon="9.671751645320041"><ele>77.0</ele><time>2026-04-18T14:15:39.003Z</time></trkpt><trkpt lat="45.00837407597624" lon="9.67183337870697"><ele>77.0</ele><time>2026-04-18T14:15:40.003Z</time></trkpt><trkpt lat="45.00853108945017" lon="9.671914917983573"><ele>77.0</ele><time>2026-04-18T14:15:41.003Z</time></trkpt><trkpt lat="45.00868652574452" lon="9.671996583773156"><ele>77.0</ele><time>2026-04-18T14:15:42.003Z</time></trkpt><trkpt lat="45.00884075272794" lon="9.672080330912342"><ele>77.0</ele><time>2026-04-18T14:15:43.003Z</time></trkpt><trkpt lat="45.00899436051068" lon="9.672164528941112"><ele>77.0</ele><time>2026-04-18T14:15:44.003Z</time></trkpt><trkpt lat="45.00916072062152" lon="9.672246238227423"><ele>77.0</ele><time>2026-04-18T14:15:45.003Z</time></trkpt><trkpt lat="45.009325730766854" lon="9.672330073808077"><ele>76.0</ele><time>2026-04-18T14:15:46.003Z</time></trkpt><trkpt lat="45.009485113955435" lon="9.672405861671495"><ele>75.0</ele><time>2026-04-18T14:15:47.003Z</time></trkpt><trkpt lat="45.009633238011105" lon="9.672478053940754"><ele>74.0</ele><time>2026-04-18T14:15:48.003Z</time></trkpt><trkpt lat="45.009774011087536" lon="9.672549887302974"><ele>74.0</ele><time>2026-04-18T14:15:49.003Z</time></trkpt><trkpt lat="45.009903854493636" lon="9.672623616405977"><ele>74.0</ele><time>2026-04-18T14:15:50.003Z</time></trkpt><trkpt lat="45.01001308765262" lon="9.672695485765807"><ele>74.0</ele><time>2026-04-18T14:15:51.003Z</time></trkpt><trkpt lat="45.010096836144804" lon="9.672765303933398"><ele>74.0</ele><time>2026-04-18T14:15:52.003Z</time></trkpt><trkpt lat="45.01015332701736" lon="9.672816502405235"><ele>74.0</ele><time>2026-04-18T14:15:53.003Z</time></trkpt><trkpt lat="45.01022225205831" lon="9.67289567643162"><ele>73.75</ele><time>2026-04-18T14:15:55.003Z</time></trkpt><trkpt lat="45.01028926024428" lon="9.673038939475637"><ele>73.5</ele><time>2026-04-18T14:15:57.003Z</time></trkpt><trkpt lat="45.01032649699775" lon="9.673115338181146"><ele>73.25</ele><time>2026-04-18T14:15:58.003Z</time></trkpt><trkpt lat="45.01043325103287" lon="9.673188542054795"><ele>73.0</ele><time>2026-04-18T14:16:00.003Z</time></trkpt><trkpt lat="45.01062689901321" lon="9.673086521837067"><ele>73.0</ele><time>2026-04-18T14:16:03.003Z</time></trkpt><trkpt lat="45.01071736577722" lon="9.673069079464053"><ele>73.0</ele><time>2026-04-18T14:16:04.003Z</time></trkpt><trkpt lat="45.010813110838065" lon="9.673081963964917"><ele>73.0</ele><time>2026-04-18T14:16:05.003Z</time></trkpt><trkpt lat="45.01091363560152" lon="9.673119329060205"><ele>73.0</ele><time>2026-04-18T14:16:05.999Z</time></trkpt><trkpt lat="45.01103217925627" lon="9.673170127521544"><ele>73.0</ele><time>2026-04-18T14:16:06.999Z</time></trkpt><trkpt lat="45.01114528991872" lon="9.673226262955364"><ele>73.75</ele><time>2026-04-18T14:16:07.999Z</time></trkpt><trkpt lat="45.0112570544525" lon="9.673284484089537"><ele>74.5</ele><time>2026-04-18T14:16:08.999Z</time></trkpt><trkpt lat="45.01137863600737" lon="9.673345052345322"><ele>75.25</ele><time>2026-04-18T14:16:09.999Z</time></trkpt><trkpt lat="45.011511232344716" lon="9.673407961595732"><ele>76.0</ele><time>2026-04-18T14:16:10.999Z</time></trkpt><trkpt lat="45.011656783237974" lon="9.673476322440042"><ele>75.66666666666666</ele><time>2026-04-18T14:16:11.999Z</time></trkpt><trkpt lat="45.01181854211245" lon="9.673552452205398"><ele>75.33333333333333</ele><time>2026-04-18T14:16:12.999Z</time></trkpt><trkpt lat="45.011997161957844" lon="9.673640620498041"><ele>75.0</ele><time>2026-04-18T14:16:13.999Z</time></trkpt><trkpt lat="45.01216154271478" lon="9.673724664489608"><ele>74.66666666666667</ele><time>2026-04-18T14:16:14.999Z</time></trkpt><trkpt lat="45.012334399200014" lon="9.673813116587608"><ele>74.33333333333334</ele><time>2026-04-18T14:16:15.999Z</time></trkpt><trkpt lat="45.01252005053294" lon="9.67390972109035"><ele>74.0</ele><time>2026-04-18T14:16:16.999Z</time></trkpt><trkpt lat="45.01272442648771" lon="9.67401240814165"><ele>74.0</ele><time>2026-04-18T14:16:17.999Z</time></trkpt><trkpt lat="45.01293413933257" lon="9.674117016918784"><ele>74.0</ele><time>2026-04-18T14:16:18.999Z</time></trkpt><trkpt lat="45.01313598611823" lon="9.674218746430633"><ele>74.0</ele><time>2026-04-18T14:16:19.999Z</time></trkpt><trkpt lat="45.013326619028234" lon="9.674313288087445"><ele>74.0</ele><time>2026-04-18T14:16:20.999Z</time></trkpt><trkpt lat="45.013522497325795" lon="9.674405438939496"><ele>74.0</ele><time>2026-04-18T14:16:22Z</time></trkpt><trkpt lat="45.01371852566101" lon="9.674495776169767"><ele>74.0</ele><time>2026-04-18T14:16:23Z</time></trkpt><trkpt lat="45.013909142431984" lon="9.67458775155767"><ele>74.0</ele><time>2026-04-18T14:16:24Z</time></trkpt><trkpt lat="45.01410281510961" lon="9.674678961671782"><ele>74.0</ele><time>2026-04-18T14:16:25Z</time></trkpt><trkpt lat="45.014299082396974" lon="9.674770869161197"><ele>74.0</ele><time>2026-04-18T14:16:26Z</time></trkpt><trkpt lat="45.01449418781986" lon="9.674861015595077"><ele>73.66666666666667</ele><time>2026-04-18T14:16:27Z</time></trkpt><trkpt lat="45.01467920346394" lon="9.674951032985964"><ele>73.33333333333333</ele><time>2026-04-18T14:16:28Z</time></trkpt><trkpt lat="45.014867029001174" lon="9.6750406774054"><ele>73.0</ele><time>2026-04-18T14:16:29Z</time></trkpt><trkpt lat="45.01505172930912" lon="9.675126611156776"><ele>72.33333333333333</ele><time>2026-04-18T14:16:30Z</time></trkpt><trkpt lat="45.015232121827" lon="9.675210575932677"><ele>71.66666666666667</ele><time>2026-04-18T14:16:31Z</time></trkpt><trkpt lat="45.01541108241618" lon="9.675291769014922"><ele>71.0</ele><time>2026-04-18T14:16:32Z</time></trkpt><trkpt lat="45.015584300746916" lon="9.67537052695116"><ele>70.66666666666667</ele><time>2026-04-18T14:16:33Z</time></trkpt><trkpt lat="45.015747843175625" lon="9.675444223214239"><ele>70.33333333333333</ele><time>2026-04-18T14:16:34Z</time></trkpt><trkpt lat="45.01590172465737" lon="9.67551350544887"><ele>70.0</ele><time>2026-04-18T14:16:35Z</time></trkpt><trkpt lat="45.016039672796325" lon="9.67557976971858"><ele>71.0</ele><time>2026-04-18T14:16:36Z</time></trkpt><trkpt lat="45.01617118912861" lon="9.675646046627312"><ele>72.0</ele><time>2026-04-18T14:16:37Z</time></trkpt><trkpt lat="45.016307698716304" lon="9.675713416637688"><ele>73.0</ele><time>2026-04-18T14:16:38Z</time></trkpt><trkpt lat="45.0164451946224" lon="9.675778453719838"><ele>74.0</ele><time>2026-04-18T14:16:39Z</time></trkpt><trkpt lat="45.01657962117623" lon="9.675845150691678"><ele>73.66666666666667</ele><time>2026-04-18T14:16:40Z</time></trkpt><trkpt lat="45.01671310966222" lon="9.675925648618696"><ele>73.33333333333333</ele><time>2026-04-18T14:16:41Z</time></trkpt><trkpt lat="45.016862316528474" lon="9.675990581767918"><ele>73.0</ele><time>2026-04-18T14:16:42Z</time></trkpt><trkpt lat="45.017014250167705" lon="9.676076221735036"><ele>73.0</ele><time>2026-04-18T14:16:43Z</time></trkpt><trkpt lat="45.01711322400229" lon="9.676139740275792"><ele>73.0</ele><time>2026-04-18T14:16:44.001Z</time></trkpt><trkpt lat="45.017497459784934" lon="9.676281866485642"><ele>73.0</ele><time>2026-04-18T14:16:45.001Z</time></trkpt><trkpt lat="45.0176260465408" lon="9.676357601615642"><ele>73.0</ele><time>2026-04-18T14:16:46.001Z</time></trkpt><trkpt lat="45.017745242982855" lon="9.676422093468512"><ele>73.0</ele><time>2026-04-18T14:16:47.001Z</time></trkpt><trkpt lat="45.01786314707623" lon="9.67649138349365"><ele>73.0</ele><time>2026-04-18T14:16:48.001Z</time></trkpt><trkpt lat="45.01798889271851" lon="9.676565222196805"><ele>73.0</ele><time>2026-04-18T14:16:49.001Z</time></trkpt><trkpt lat="45.018123892290184" lon="9.676634045208212"><ele>73.0</ele><time>2026-04-18T14:16:50.001Z</time></trkpt><trkpt lat="45.01826223326958" lon="9.676712055605108"><ele>73.0</ele><time>2026-04-18T14:16:51.001Z</time></trkpt><trkpt lat="45.01840848385249" lon="9.676791720197109"><ele>73.0</ele><time>2026-04-18T14:16:52.001Z</time></trkpt><trkpt lat="45.01855571583144" lon="9.676871160999376"><ele>73.0</ele><time>2026-04-18T14:16:53.001Z</time></trkpt><trkpt lat="45.018710418877326" lon="9.676953876611746"><ele>73.0</ele><time>2026-04-18T14:16:54.001Z</time></trkpt><trkpt lat="45.01886852230125" lon="9.677035307769323"><ele>73.0</ele><time>2026-04-18T14:16:55.001Z</time></trkpt><trkpt lat="45.01901529264272" lon="9.677117248968157"><ele>73.0</ele><time>2026-04-18T14:16:56.001Z</time></trkpt><trkpt lat="45.01914950756475" lon="9.677199518821569"><ele>73.0</ele><time>2026-04-18T14:16:57.001Z</time></trkpt><trkpt lat="45.01928279995728" lon="9.677277149063"><ele>73.0</ele><time>2026-04-18T14:16:58.001Z</time></trkpt><trkpt lat="45.01941219629901" lon="9.677349682585998"><ele>73.0</ele><time>2026-04-18T14:16:59.001Z</time></trkpt><trkpt lat="45.01954346079711" lon="9.677424852356829"><ele>73.0</ele><time>2026-04-18T14:17:00.001Z</time></trkpt><trkpt lat="45.01967780902193" lon="9.67749399767717"><ele>73.0</ele><time>2026-04-18T14:17:01.001Z</time></trkpt><trkpt lat="45.01981559388385" lon="9.677571068418688"><ele>73.0</ele><time>2026-04-18T14:17:02.001Z</time></trkpt><trkpt lat="45.0199693374655" lon="9.677656063338187"><ele>72.66666666666666</ele><time>2026-04-18T14:17:03.001Z</time></trkpt><trkpt lat="45.020119717453134" lon="9.677746054363974"><ele>72.33333333333333</ele><time>2026-04-18T14:17:04.001Z</time></trkpt><trkpt lat="45.02027410686589" lon="9.677830184554827"><ele>72.0</ele><time>2026-04-18T14:17:05.001Z</time></trkpt><trkpt lat="45.020426321131254" lon="9.677915192911378"><ele>72.0</ele><time>2026-04-18T14:17:06.001Z</time></trkpt><trkpt lat="45.020579891499175" lon="9.67801321305024"><ele>72.0</ele><time>2026-04-18T14:17:07.001Z</time></trkpt><trkpt lat="45.02073721349183" lon="9.678104369812186"><ele>72.0</ele><time>2026-04-18T14:17:08.001Z</time></trkpt><trkpt lat="45.020885625693026" lon="9.678191343457648"><ele>72.0</ele><time>2026-04-18T14:17:09.001Z</time></trkpt><trkpt lat="45.02103430332713" lon="9.678290704276185"><ele>72.0</ele><time>2026-04-18T14:17:10.001Z</time></trkpt><trkpt lat="45.021197703278126" lon="9.678371314655976"><ele>72.0</ele><time>2026-04-18T14:17:11.001Z</time></trkpt><trkpt lat="45.02135949480677" lon="9.678451500448604"><ele>72.0</ele><time>2026-04-18T14:17:12.001Z</time></trkpt><trkpt lat="45.021517592567896" lon="9.678538421438935"><ele>72.0</ele><time>2026-04-18T14:17:13.001Z</time></trkpt><trkpt lat="45.02167042915133" lon="9.67862378550669"><ele>72.0</ele><time>2026-04-18T14:17:14.001Z</time></trkpt><trkpt lat="45.02181250827774" lon="9.678701717123825"><ele>71.66666666666667</ele><time>2026-04-18T14:17:15.002Z</time></trkpt><trkpt lat="45.02196135798507" lon="9.678777244960314"><ele>71.33333333333334</ele><time>2026-04-18T14:17:16.002Z</time></trkpt><trkpt lat="45.02210515578228" lon="9.678849045615095"><ele>71.0</ele><time>2026-04-18T14:17:17.002Z</time></trkpt><trkpt lat="45.02224373398195" lon="9.678913015980736"><ele>71.0</ele><time>2026-04-18T14:17:18.002Z</time></trkpt><trkpt lat="45.02238226216011" lon="9.67896049790671"><ele>71.0</ele><time>2026-04-18T14:17:19.002Z</time></trkpt><trkpt lat="45.022526059436906" lon="9.679002293696136"><ele>71.0</ele><time>2026-04-18T14:17:20.002Z</time></trkpt><trkpt lat="45.02266868176063" lon="9.679037942350414"><ele>71.0</ele><time>2026-04-18T14:17:21.002Z</time></trkpt><trkpt lat="45.02281972574644" lon="9.679087180782863"><ele>71.0</ele><time>2026-04-18T14:17:22.002Z</time></trkpt><trkpt lat="45.02297723305435" lon="9.679132236386941"><ele>71.0</ele><time>2026-04-18T14:17:23.002Z</time></trkpt><trkpt lat="45.02313485888793" lon="9.679181313966511"><ele>71.0</ele><time>2026-04-18T14:17:24.002Z</time></trkpt><trkpt lat="45.023286306851126" lon="9.679230541623518"><ele>70.33333333333334</ele><time>2026-04-18T14:17:25.002Z</time></trkpt><trkpt lat="45.02342457924902" lon="9.679288446874269"><ele>69.66666666666667</ele><time>2026-04-18T14:17:26.002Z</time></trkpt><trkpt lat="45.023576561757125" lon="9.679357851384545"><ele>69.0</ele><time>2026-04-18T14:17:27.002Z</time></trkpt><trkpt lat="45.02372457593637" lon="9.679430355875933"><ele>69.0</ele><time>2026-04-18T14:17:28.002Z</time></trkpt><trkpt lat="45.02387372965453" lon="9.679509774804915"><ele>69.0</ele><time>2026-04-18T14:17:29.002Z</time></trkpt><trkpt lat="45.02402870085757" lon="9.679598292761783"><ele>69.0</ele><time>2026-04-18T14:17:30.002Z</time></trkpt><trkpt lat="45.02418570727025" lon="9.679680087331407"><ele>68.66666666666667</ele><time>2026-04-18T14:17:31.002Z</time></trkpt><trkpt lat="45.02435114516631" lon="9.679765993145091"><ele>68.33333333333334</ele><time>2026-04-18T14:17:32.002Z</time></trkpt><trkpt lat="45.024522711436504" lon="9.679843409450285"><ele>68.0</ele><time>2026-04-18T14:17:33.002Z</time></trkpt><trkpt lat="45.02469477906183" lon="9.679922594670211"><ele>68.0</ele><time>2026-04-18T14:17:34.002Z</time></trkpt><trkpt lat="45.02486813895028" lon="9.680008372154875"><ele>68.0</ele><time>2026-04-18T14:17:35.002Z</time></trkpt><trkpt lat="45.0250452838942" lon="9.680091226915419"><ele>68.0</ele><time>2026-04-18T14:17:36.002Z</time></trkpt><trkpt lat="45.025223092154555" lon="9.680175666324462"><ele>68.33333333333334</ele><time>2026-04-18T14:17:37.002Z</time></trkpt><trkpt lat="45.025399293584464" lon="9.680258516556943"><ele>68.66666666666667</ele><time>2026-04-18T14:17:38.002Z</time></trkpt><trkpt lat="45.02557554346018" lon="9.68034361757625"><ele>69.0</ele><time>2026-04-18T14:17:39.002Z</time></trkpt><trkpt lat="45.02574985361997" lon="9.680426407951694"><ele>68.33333333333333</ele><time>2026-04-18T14:17:40.002Z</time></trkpt><trkpt lat="45.02591837012511" lon="9.680506593542415"><ele>67.66666666666666</ele><time>2026-04-18T14:17:41.002Z</time></trkpt><trkpt lat="45.026076518870894" lon="9.680582848890058"><ele>67.0</ele><time>2026-04-18T14:17:42.002Z</time></trkpt><trkpt lat="45.02623627024618" lon="9.680652571662659"><ele>67.0</ele><time>2026-04-18T14:17:43.002Z</time></trkpt><trkpt lat="45.026387816424844" lon="9.680730895278028"><ele>67.0</ele><time>2026-04-18T14:17:44.002Z</time></trkpt><trkpt lat="45.02653369891956" lon="9.680818846671261"><ele>67.0</ele><time>2026-04-18T14:17:45.002Z</time></trkpt><trkpt lat="45.02667864992017" lon="9.680927029831274"><ele>66.66666666666666</ele><time>2026-04-18T14:17:46.002Z</time></trkpt><trkpt lat="45.02680799112829" lon="9.681052440902887"><ele>66.33333333333333</ele><time>2026-04-18T14:17:47.003Z</time></trkpt><trkpt lat="45.02692123947607" lon="9.681189677280306"><ele>66.0</ele><time>2026-04-18T14:17:48.003Z</time></trkpt><trkpt lat="45.02702506482856" lon="9.681341003020846"><ele>65.75</ele><time>2026-04-18T14:17:49.003Z</time></trkpt><trkpt lat="45.027114868657165" lon="9.681494607188258"><ele>65.5</ele><time>2026-04-18T14:17:50.003Z</time></trkpt><trkpt lat="45.027198769453086" lon="9.681648301600768"><ele>65.25</ele><time>2026-04-18T14:17:51.003Z</time></trkpt><trkpt lat="45.027262313591635" lon="9.681793036868795"><ele>65.0</ele><time>2026-04-18T14:17:52.003Z</time></trkpt><trkpt lat="45.02732110784077" lon="9.681921588861336"><ele>64.6</ele><time>2026-04-18T14:17:53.003Z</time></trkpt><trkpt lat="45.027376763966934" lon="9.68203197186118"><ele>64.2</ele><time>2026-04-18T14:17:54.003Z</time></trkpt><trkpt lat="45.02742305217271" lon="9.682130291622713"><ele>63.8</ele><time>2026-04-18T14:17:55.003Z</time></trkpt><trkpt lat="45.02747742066368" lon="9.682257038208892"><ele>63.4</ele><time>2026-04-18T14:17:57.003Z</time></trkpt><trkpt lat="45.02752481351648" lon="9.682391391939346"><ele>63.0</ele><time>2026-04-18T14:18:01.003Z</time></trkpt><trkpt lat="45.02752590325734" lon="9.682549897570473"><ele>63.0</ele><time>2026-04-18T14:18:03.003Z</time></trkpt><trkpt lat="45.02752353243057" lon="9.682683138058895"><ele>63.0</ele><time>2026-04-18T14:18:04.003Z</time></trkpt><trkpt lat="45.02752408884375" lon="9.68283889200506"><ele>63.0</ele><time>2026-04-18T14:18:05.003Z</time></trkpt><trkpt lat="45.02754505350008" lon="9.683028685277884"><ele>63.0</ele><time>2026-04-18T14:18:06.003Z</time></trkpt><trkpt lat="45.0275747803361" lon="9.683218121390686"><ele>63.0</ele><time>2026-04-18T14:18:07.003Z</time></trkpt><trkpt lat="45.027608575717416" lon="9.683406658472956"><ele>63.0</ele><time>2026-04-18T14:18:08.003Z</time></trkpt><trkpt lat="45.027634996521286" lon="9.683602689712599"><ele>63.0</ele><time>2026-04-18T14:18:09.003Z</time></trkpt><trkpt lat="45.02764121367545" lon="9.683826688770548"><ele>63.0</ele><time>2026-04-18T14:18:10.003Z</time></trkpt><trkpt lat="45.02763297561351" lon="9.68405602296537"><ele>63.0</ele><time>2026-04-18T14:18:11.003Z</time></trkpt><trkpt lat="45.027620304846074" lon="9.684287958932556"><ele>63.0</ele><time>2026-04-18T14:18:11.997Z</time></trkpt><trkpt lat="45.02760148547722" lon="9.68452092920911"><ele>63.0</ele><time>2026-04-18T14:18:12.998Z</time></trkpt><trkpt lat="45.02757903550112" lon="9.684748092932429"><ele>63.0</ele><time>2026-04-18T14:18:13.998Z</time></trkpt><trkpt lat="45.02755617174032" lon="9.684973036128643"><ele>63.0</ele><time>2026-04-18T14:18:14.998Z</time></trkpt><trkpt lat="45.0275365562635" lon="9.685197020538956"><ele>63.0</ele><time>2026-04-18T14:18:15.998Z</time></trkpt><trkpt lat="45.02751526064014" lon="9.68543071929335"><ele>63.0</ele><time>2026-04-18T14:18:16.998Z</time></trkpt><trkpt lat="45.02749352899412" lon="9.685675791821446"><ele>63.0</ele><time>2026-04-18T14:18:17.998Z</time></trkpt><trkpt lat="45.02747127855345" lon="9.685930845463092"><ele>63.0</ele><time>2026-04-18T14:18:18.998Z</time></trkpt><trkpt lat="45.027447177335965" lon="9.68619645149645"><ele>63.0</ele><time>2026-04-18T14:18:19.998Z</time></trkpt><trkpt lat="45.02742031679448" lon="9.686481278211255"><ele>63.0</ele><time>2026-04-18T14:18:20.998Z</time></trkpt><trkpt lat="45.02739668894976" lon="9.686763016415195"><ele>63.0</ele><time>2026-04-18T14:18:21.998Z</time></trkpt><trkpt lat="45.02737488202005" lon="9.687045813525058"><ele>63.33333333333333</ele><time>2026-04-18T14:18:22.998Z</time></trkpt><trkpt lat="45.02735041201292" lon="9.687338875336348"><ele>63.666666666666664</ele><time>2026-04-18T14:18:23.998Z</time></trkpt><trkpt lat="45.02732496351818" lon="9.687636289306704"><ele>64.0</ele><time>2026-04-18T14:18:24.999Z</time></trkpt><trkpt lat="45.027296354629264" lon="9.687952801477168"><ele>63.0</ele><time>2026-04-18T14:18:25.999Z</time></trkpt><trkpt lat="45.027271813434055" lon="9.688275818344767"><ele>62.0</ele><time>2026-04-18T14:18:26.999Z</time></trkpt><trkpt lat="45.02724623229862" lon="9.688590502874685"><ele>62.0</ele><time>2026-04-18T14:18:27.999Z</time></trkpt><trkpt lat="45.02721880250373" lon="9.688900461255503"><ele>62.0</ele><time>2026-04-18T14:18:28.999Z</time></trkpt><trkpt lat="45.02718902116355" lon="9.689222672784112"><ele>62.0</ele><time>2026-04-18T14:18:29.999Z</time></trkpt><trkpt lat="45.02715933204388" lon="9.689547723220652"><ele>62.0</ele><time>2026-04-18T14:18:30.999Z</time></trkpt><trkpt lat="45.02713000455264" lon="9.689880194646456"><ele>62.0</ele><time>2026-04-18T14:18:31.999Z</time></trkpt><trkpt lat="45.02710112519411" lon="9.690218939671244"><ele>62.0</ele><time>2026-04-18T14:18:32.999Z</time></trkpt><trkpt lat="45.027074260191426" lon="9.69056173707594"><ele>62.5</ele><time>2026-04-18T14:18:33.999Z</time></trkpt><trkpt lat="45.027048441632026" lon="9.690903571423775"><ele>63.0</ele><time>2026-04-18T14:18:34.999Z</time></trkpt><trkpt lat="45.027020084191726" lon="9.691247644469318"><ele>63.0</ele><time>2026-04-18T14:18:36Z</time></trkpt><trkpt lat="45.02699287837579" lon="9.691593477939877"><ele>63.0</ele><time>2026-04-18T14:18:37Z</time></trkpt><trkpt lat="45.02696208022555" lon="9.69192361760975"><ele>64.0</ele><time>2026-04-18T14:18:38Z</time></trkpt><trkpt lat="45.02693140204218" lon="9.692251279670213"><ele>65.0</ele><time>2026-04-18T14:18:39Z</time></trkpt><trkpt lat="45.026901126870754" lon="9.692581037424395"><ele>65.5</ele><time>2026-04-18T14:18:40Z</time></trkpt><trkpt lat="45.02687041735108" lon="9.692915821254312"><ele>66.0</ele><time>2026-04-18T14:18:41.011Z</time></trkpt><trkpt lat="45.02684209153831" lon="9.69324750350709"><ele>66.0</ele><time>2026-04-18T14:18:42.016Z</time></trkpt><trkpt lat="45.02681028895997" lon="9.693577665564922"><ele>66.0</ele><time>2026-04-18T14:18:43.012Z</time></trkpt><trkpt lat="45.02677411768023" lon="9.693909141372023"><ele>66.0</ele><time>2026-04-18T14:18:44.019Z</time></trkpt><trkpt lat="45.02672392037602" lon="9.69428752631431"><ele>66.0</ele><time>2026-04-18T14:18:45Z</time></trkpt><trkpt lat="45.02677080685938" lon="9.694723236723837"><ele>64.0</ele><time>2026-04-18T14:18:46Z</time></trkpt><trkpt lat="45.02675678225383" lon="9.695085719032893"><ele>62.0</ele><time>2026-04-18T14:18:47Z</time></trkpt><trkpt lat="45.02675627344796" lon="9.695440684568798"><ele>61.5</ele><time>2026-04-18T14:18:48Z</time></trkpt><trkpt lat="45.02676486103754" lon="9.695796786413657"><ele>61.0</ele><time>2026-04-18T14:18:49Z</time></trkpt><trkpt lat="45.02678400439072" lon="9.696154276387585"><ele>62.5</ele><time>2026-04-18T14:18:50Z</time></trkpt><trkpt lat="45.026812043597324" lon="9.696515065074648"><ele>64.0</ele><time>2026-04-18T14:18:51Z</time></trkpt><trkpt lat="45.026853167475316" lon="9.696881597953158"><ele>64.5</ele><time>2026-04-18T14:18:52Z</time></trkpt><trkpt lat="45.02689990948083" lon="9.69724194607617"><ele>65.0</ele><time>2026-04-18T14:18:53.001Z</time></trkpt><trkpt lat="45.026957197029894" lon="9.697610384831878"><ele>62.5</ele><time>2026-04-18T14:18:54.001Z</time></trkpt><trkpt lat="45.027026371703236" lon="9.697970585126345"><ele>60.0</ele><time>2026-04-18T14:18:55.001Z</time></trkpt><trkpt lat="45.02710415645046" lon="9.698330707584972"><ele>59.0</ele><time>2026-04-18T14:18:56.001Z</time></trkpt><trkpt lat="45.02719151869069" lon="9.698684632177102"><ele>58.0</ele><time>2026-04-18T14:18:57.001Z</time></trkpt><trkpt lat="45.027288126573595" lon="9.699034202477517"><ele>58.0</ele><time>2026-04-18T14:18:58.001Z</time></trkpt><trkpt lat="45.027393925917465" lon="9.699374563627156"><ele>58.0</ele><time>2026-04-18T14:18:59.001Z</time></trkpt><trkpt lat="45.02750845071696" lon="9.699720358213774"><ele>58.5</ele><time>2026-04-18T14:19:00.001Z</time></trkpt><trkpt lat="45.0276271608337" lon="9.700075866980294"><ele>59.0</ele><time>2026-04-18T14:19:01.001Z</time></trkpt><trkpt lat="45.027746105094884" lon="9.700434916807207"><ele>59.0</ele><time>2026-04-18T14:19:02.001Z</time></trkpt><trkpt lat="45.02786378383376" lon="9.700793657750326"><ele>59.0</ele><time>2026-04-18T14:19:03.001Z</time></trkpt><trkpt lat="45.02797940743703" lon="9.701151383335278"><ele>58.5</ele><time>2026-04-18T14:19:04.001Z</time></trkpt><trkpt lat="45.02808933703904" lon="9.701508468750971"><ele>58.0</ele><time>2026-04-18T14:19:05.001Z</time></trkpt><trkpt lat="45.02819966367323" lon="9.701862541144896"><ele>59.5</ele><time>2026-04-18T14:19:06.001Z</time></trkpt><trkpt lat="45.028304413222365" lon="9.702213827559843"><ele>61.0</ele><time>2026-04-18T14:19:07.001Z</time></trkpt><trkpt lat="45.0284078310058" lon="9.702558555911098"><ele>62.0</ele><time>2026-04-18T14:19:08.001Z</time></trkpt><trkpt lat="45.02851102276452" lon="9.702896078844029"><ele>63.0</ele><time>2026-04-18T14:19:09.001Z</time></trkpt><trkpt lat="45.02861748242144" lon="9.703228717118296"><ele>63.0</ele><time>2026-04-18T14:19:10.001Z</time></trkpt><trkpt lat="45.02872191645095" lon="9.70355614332451"><ele>63.0</ele><time>2026-04-18T14:19:11.001Z</time></trkpt><trkpt lat="45.02882719515899" lon="9.703886037589715"><ele>62.0</ele><time>2026-04-18T14:19:12.001Z</time></trkpt><trkpt lat="45.02893268756451" lon="9.70421921372334"><ele>61.0</ele><time>2026-04-18T14:19:13.001Z</time></trkpt><trkpt lat="45.02903095976208" lon="9.704551494489955"><ele>61.0</ele><time>2026-04-18T14:19:14.001Z</time></trkpt><trkpt lat="45.02912497851401" lon="9.704886695534267"><ele>61.0</ele><time>2026-04-18T14:19:15.001Z</time></trkpt><trkpt lat="45.029215838624104" lon="9.705220607859893"><ele>59.0</ele><time>2026-04-18T14:19:16.001Z</time></trkpt><trkpt lat="45.029299268365385" lon="9.705560101059124"><ele>57.0</ele><time>2026-04-18T14:19:17.001Z</time></trkpt><trkpt lat="45.029374895094" lon="9.70589355829406"><ele>56.5</ele><time>2026-04-18T14:19:18.001Z</time></trkpt><trkpt lat="45.02945249581928" lon="9.70622935134872"><ele>56.0</ele><time>2026-04-18T14:19:19.001Z</time></trkpt><trkpt lat="45.02952257297477" lon="9.706563491725795"><ele>56.0</ele><time>2026-04-18T14:19:20.001Z</time></trkpt><trkpt lat="45.02958866084679" lon="9.706901003011547"><ele>56.0</ele><time>2026-04-18T14:19:21.002Z</time></trkpt><trkpt lat="45.0296495779715" lon="9.70724006722837"><ele>56.5</ele><time>2026-04-18T14:19:22.002Z</time></trkpt><trkpt lat="45.0297064076442" lon="9.707579778918484"><ele>57.0</ele><time>2026-04-18T14:19:23.002Z</time></trkpt><trkpt lat="45.02975834290017" lon="9.707919287476335"><ele>58.0</ele><time>2026-04-18T14:19:24.002Z</time></trkpt><trkpt lat="45.02980459801208" lon="9.7082632297774"><ele>59.0</ele><time>2026-04-18T14:19:25.002Z</time></trkpt><trkpt lat="45.02984646022015" lon="9.708608967606986"><ele>59.0</ele><time>2026-04-18T14:19:26.002Z</time></trkpt><trkpt lat="45.02988420201638" lon="9.708956224574708"><ele>59.0</ele><time>2026-04-18T14:19:27.002Z</time></trkpt><trkpt lat="45.029919297285666" lon="9.709306445643298"><ele>58.0</ele><time>2026-04-18T14:19:28.002Z</time></trkpt><trkpt lat="45.02994877557345" lon="9.70966050903696"><ele>57.0</ele><time>2026-04-18T14:19:29.002Z</time></trkpt><trkpt lat="45.02997277890321" lon="9.710017581110868"><ele>55.0</ele><time>2026-04-18T14:19:30.002Z</time></trkpt><trkpt lat="45.02999238496081" lon="9.7103754568703"><ele>53.0</ele><time>2026-04-18T14:19:31.002Z</time></trkpt><trkpt lat="45.03000951967403" lon="9.710735139113817"><ele>53.0</ele><time>2026-04-18T14:19:32.002Z</time></trkpt><trkpt lat="45.03002370443528" lon="9.7111044019691"><ele>53.0</ele><time>2026-04-18T14:19:33.002Z</time></trkpt><trkpt lat="45.0300352794412" lon="9.711479067238914"><ele>53.0</ele><time>2026-04-18T14:19:34.002Z</time></trkpt><trkpt lat="45.030050582133406" lon="9.711864117098404"><ele>53.0</ele><time>2026-04-18T14:19:35.002Z</time></trkpt><trkpt lat="45.03006121961515" lon="9.712232878440375"><ele>53.0</ele><time>2026-04-18T14:19:36.002Z</time></trkpt><trkpt lat="45.03007686060832" lon="9.712612958489007"><ele>53.0</ele><time>2026-04-18T14:19:37.002Z</time></trkpt><trkpt lat="45.03008125022783" lon="9.712965728695705"><ele>54.0</ele><time>2026-04-18T14:19:38.002Z</time></trkpt><trkpt lat="45.03008471435772" lon="9.71333060097883"><ele>55.0</ele><time>2026-04-18T14:19:39.002Z</time></trkpt><trkpt lat="45.03008791091373" lon="9.713700236143458"><ele>55.5</ele><time>2026-04-18T14:19:40.002Z</time></trkpt><trkpt lat="45.03008300882348" lon="9.714077214661323"><ele>56.0</ele><time>2026-04-18T14:19:41.002Z</time></trkpt><trkpt lat="45.030082340487056" lon="9.714453772382425"><ele>56.0</ele><time>2026-04-18T14:19:42.002Z</time></trkpt><trkpt lat="45.03007634932823" lon="9.714830782408503"><ele>56.0</ele><time>2026-04-18T14:19:43.002Z</time></trkpt><trkpt lat="45.03007537794499" lon="9.71520406343933"><ele>55.0</ele><time>2026-04-18T14:19:44.002Z</time></trkpt><trkpt lat="45.03010347563784" lon="9.715554815973443"><ele>54.0</ele><time>2026-04-18T14:19:45.002Z</time></trkpt><trkpt lat="45.03011622677524" lon="9.715906512763022"><ele>53.0</ele><time>2026-04-18T14:19:46.002Z</time></trkpt><trkpt lat="45.0301117196097" lon="9.716237569509778"><ele>52.0</ele><time>2026-04-18T14:19:47.002Z</time></trkpt><trkpt lat="45.03008396356462" lon="9.716567158615897"><ele>52.5</ele><time>2026-04-18T14:19:48.002Z</time></trkpt><trkpt lat="45.03006173761451" lon="9.716907110770421"><ele>53.0</ele><time>2026-04-18T14:19:49.002Z</time></trkpt><trkpt lat="45.03003795126333" lon="9.717249623599821"><ele>53.0</ele><time>2026-04-18T14:19:50.002Z</time></trkpt><trkpt lat="45.03001386236802" lon="9.717589510493573"><ele>53.0</ele><time>2026-04-18T14:19:51.002Z</time></trkpt><trkpt lat="45.02995449494688" lon="9.717899650244945"><ele>55.0</ele><time>2026-04-18T14:19:52.002Z</time></trkpt><trkpt lat="45.03016917830069" lon="9.718460794032907"><ele>55.0</ele><time>2026-04-18T14:19:53.003Z</time></trkpt><trkpt lat="45.03016904282675" lon="9.718822238942199"><ele>55.0</ele><time>2026-04-18T14:19:54.003Z</time></trkpt><trkpt lat="45.03016198106209" lon="9.719188843569356"><ele>56.0</ele><time>2026-04-18T14:19:55.003Z</time></trkpt><trkpt lat="45.03014775193835" lon="9.71955327026001"><ele>57.0</ele><time>2026-04-18T14:19:56.003Z</time></trkpt><trkpt lat="45.030126387297685" lon="9.719915724813534"><ele>55.5</ele><time>2026-04-18T14:19:57.003Z</time></trkpt><trkpt lat="45.030095919504824" lon="9.720278029631004"><ele>54.0</ele><time>2026-04-18T14:19:58.003Z</time></trkpt><trkpt lat="45.03005449123827" lon="9.720636002520546"><ele>54.0</ele><time>2026-04-18T14:19:59.003Z</time></trkpt><trkpt lat="45.02999781516893" lon="9.720983507225338"><ele>54.0</ele><time>2026-04-18T14:20:00.003Z</time></trkpt><trkpt lat="45.0299286142708" lon="9.721327136126511"><ele>54.5</ele><time>2026-04-18T14:20:01.003Z</time></trkpt><trkpt lat="45.0298460366217" lon="9.721665264874517"><ele>55.0</ele><time>2026-04-18T14:20:02.003Z</time></trkpt><trkpt lat="45.02974802831204" lon="9.721995313334553"><ele>55.5</ele><time>2026-04-18T14:20:03.003Z</time></trkpt><trkpt lat="45.0296359955712" lon="9.722317484696035"><ele>56.0</ele><time>2026-04-18T14:20:04.003Z</time></trkpt><trkpt lat="45.02951308139676" lon="9.7226291481377"><ele>55.0</ele><time>2026-04-18T14:20:05.003Z</time></trkpt><trkpt lat="45.02937754150524" lon="9.72293275041181"><ele>54.0</ele><time>2026-04-18T14:20:06.003Z</time></trkpt><trkpt lat="45.02922865623974" lon="9.723227467729814"><ele>55.0</ele><time>2026-04-18T14:20:07.003Z</time></trkpt><trkpt lat="45.029070723154256" lon="9.72351184508552"><ele>56.0</ele><time>2026-04-18T14:20:08.003Z</time></trkpt><trkpt lat="45.02890053111974" lon="9.723782777446592"><ele>56.0</ele><time>2026-04-18T14:20:09.003Z</time></trkpt><trkpt lat="45.028720346558586" lon="9.72404575142869"><ele>56.0</ele><time>2026-04-18T14:20:10.003Z</time></trkpt><trkpt lat="45.028536726079146" lon="9.724309055004124"><ele>56.0</ele><time>2026-04-18T14:20:11.003Z</time></trkpt><trkpt lat="45.02835260016134" lon="9.724570683804915"><ele>56.0</ele><time>2026-04-18T14:20:12.003Z</time></trkpt><trkpt lat="45.02816965846965" lon="9.724837495463406"><ele>56.0</ele><time>2026-04-18T14:20:13.003Z</time></trkpt><trkpt lat="45.02799034989807" lon="9.725100674369019"><ele>56.0</ele><time>2026-04-18T14:20:14.003Z</time></trkpt><trkpt lat="45.027810609114574" lon="9.725358886489955"><ele>57.0</ele><time>2026-04-18T14:20:15.003Z</time></trkpt><trkpt lat="45.02764876930064" lon="9.725628260529799"><ele>58.0</ele><time>2026-04-18T14:20:16.003Z</time></trkpt><trkpt lat="45.027494747374696" lon="9.725905980055018"><ele>57.0</ele><time>2026-04-18T14:20:17.003Z</time></trkpt><trkpt lat="45.027346279888356" lon="9.726198667195943"><ele>56.0</ele><time>2026-04-18T14:20:17.996Z</time></trkpt><trkpt lat="45.02721424747706" lon="9.726498728433892"><ele>56.0</ele><time>2026-04-18T14:20:18.997Z</time></trkpt><trkpt lat="45.02708756188984" lon="9.726813568532734"><ele>56.0</ele><time>2026-04-18T14:20:19.997Z</time></trkpt><trkpt lat="45.02696760063471" lon="9.727137829103167"><ele>56.0</ele><time>2026-04-18T14:20:20.997Z</time></trkpt><trkpt lat="45.02686007003418" lon="9.727462348019976"><ele>56.0</ele><time>2026-04-18T14:20:21.997Z</time></trkpt><trkpt lat="45.02675884418356" lon="9.727802556474405"><ele>56.5</ele><time>2026-04-18T14:20:22.997Z</time></trkpt><trkpt lat="45.02666643893641" lon="9.728147865800562"><ele>57.0</ele><time>2026-04-18T14:20:23.997Z</time></trkpt><trkpt lat="45.02657635184884" lon="9.72849794280035"><ele>57.5</ele><time>2026-04-18T14:20:24.998Z</time></trkpt><trkpt lat="45.02648931901002" lon="9.728846008769242"><ele>58.0</ele><time>2026-04-18T14:20:25.998Z</time></trkpt><trkpt lat="45.02640127977447" lon="9.729190432665233"><ele>58.0</ele><time>2026-04-18T14:20:26.998Z</time></trkpt><trkpt lat="45.026314105897185" lon="9.729534245381753"><ele>58.0</ele><time>2026-04-18T14:20:27.998Z</time></trkpt><trkpt lat="45.026232507473296" lon="9.729867381054486"><ele>58.0</ele><time>2026-04-18T14:20:28.998Z</time></trkpt><trkpt lat="45.026152129613834" lon="9.73020767353812"><ele>58.0</ele><time>2026-04-18T14:20:29.998Z</time></trkpt><trkpt lat="45.026072252640425" lon="9.730545073887845"><ele>57.5</ele><time>2026-04-18T14:20:30.998Z</time></trkpt><trkpt lat="45.02598854627665" lon="9.730884105618264"><ele>57.0</ele><time>2026-04-18T14:20:31.998Z</time></trkpt><trkpt lat="45.02590012984358" lon="9.731221992576206"><ele>57.0</ele><time>2026-04-18T14:20:32.999Z</time></trkpt><trkpt lat="45.025811028728015" lon="9.731561112379964"><ele>57.0</ele><time>2026-04-18T14:20:33.999Z</time></trkpt><trkpt lat="45.025721224202634" lon="9.731901506410484"><ele>57.0</ele><time>2026-04-18T14:20:34.999Z</time></trkpt><trkpt lat="45.025628745235785" lon="9.73223950977914"><ele>57.0</ele><time>2026-04-18T14:20:35.999Z</time></trkpt><trkpt lat="45.02553531338501" lon="9.732576141878692"><ele>57.0</ele><time>2026-04-18T14:20:36.999Z</time></trkpt><trkpt lat="45.02543946998502" lon="9.73290708072434"><ele>57.0</ele><time>2026-04-18T14:20:37.999Z</time></trkpt><trkpt lat="45.025342889644676" lon="9.73323705489247"><ele>56.5</ele><time>2026-04-18T14:20:38.999Z</time></trkpt><trkpt lat="45.02525285811309" lon="9.733571189246906"><ele>56.0</ele><time>2026-04-18T14:20:39.999Z</time></trkpt><trkpt lat="45.025171451351234" lon="9.733907603133833"><ele>56.0</ele><time>2026-04-18T14:20:40.999Z</time></trkpt><trkpt lat="45.02510659042209" lon="9.734250344884952"><ele>56.0</ele><time>2026-04-18T14:20:41.999Z</time></trkpt><trkpt lat="45.02505562523947" lon="9.734599870505473"><ele>56.0</ele><time>2026-04-18T14:20:42.999Z</time></trkpt><trkpt lat="45.02501967428228" lon="9.734948935306079"><ele>56.0</ele><time>2026-04-18T14:20:44Z</time></trkpt><trkpt lat="45.02500040982759" lon="9.735295987225964"><ele>56.0</ele><time>2026-04-18T14:20:45Z</time></trkpt><trkpt lat="45.024998631118095" lon="9.735644192946578"><ele>56.0</ele><time>2026-04-18T14:20:46Z</time></trkpt><trkpt lat="45.0250150684522" lon="9.735986932954656"><ele>55.5</ele><time>2026-04-18T14:20:47Z</time></trkpt><trkpt lat="45.025049374929964" lon="9.736324524404065"><ele>55.0</ele><time>2026-04-18T14:20:48Z</time></trkpt><trkpt lat="45.02509803639647" lon="9.736656981223636"><ele>55.5</ele><time>2026-04-18T14:20:49Z</time></trkpt><trkpt lat="45.02515818349519" lon="9.736990561022356"><ele>56.0</ele><time>2026-04-18T14:20:50Z</time></trkpt><trkpt lat="45.02523389290858" lon="9.737317667581362"><ele>56.0</ele><time>2026-04-18T14:20:51Z</time></trkpt><trkpt lat="45.025328094045236" lon="9.737634284428498"><ele>56.0</ele><time>2026-04-18T14:20:52Z</time></trkpt><trkpt lat="45.02544263599567" lon="9.737948081351433"><ele>56.5</ele><time>2026-04-18T14:20:53Z</time></trkpt><trkpt lat="45.0255701387783" lon="9.738251679201348"><ele>57.0</ele><time>2026-04-18T14:20:54Z</time></trkpt><trkpt lat="45.025712306434464" lon="9.738541557445519"><ele>58.5</ele><time>2026-04-18T14:20:55Z</time></trkpt><trkpt lat="45.025867894110434" lon="9.738816715149621"><ele>60.0</ele><time>2026-04-18T14:20:56Z</time></trkpt><trkpt lat="45.02603416406662" lon="9.739081288008583"><ele>60.0</ele><time>2026-04-18T14:20:57Z</time></trkpt><trkpt lat="45.02621124124277" lon="9.739332589767912"><ele>60.0</ele><time>2026-04-18T14:20:58Z</time></trkpt><trkpt lat="45.02639585456785" lon="9.739574263343606"><ele>60.0</ele><time>2026-04-18T14:20:59Z</time></trkpt><trkpt lat="45.02659164012353" lon="9.739808241509186"><ele>60.0</ele><time>2026-04-18T14:21:00.001Z</time></trkpt><trkpt lat="45.02678391815118" lon="9.740034334904722"><ele>59.5</ele><time>2026-04-18T14:21:01.001Z</time></trkpt><trkpt lat="45.026965398605356" lon="9.740255890503333"><ele>59.0</ele><time>2026-04-18T14:21:02.001Z</time></trkpt><trkpt lat="45.02713521106884" lon="9.740467905259823"><ele>59.0</ele><time>2026-04-18T14:21:03.001Z</time></trkpt><trkpt lat="45.02729137275064" lon="9.740660937563858"><ele>59.0</ele><time>2026-04-18T14:21:04.001Z</time></trkpt><trkpt lat="45.02744154637517" lon="9.740847750606676"><ele>59.0</ele><time>2026-04-18T14:21:05.001Z</time></trkpt><trkpt lat="45.02759528353259" lon="9.741025458430208"><ele>59.66666666666667</ele><time>2026-04-18T14:21:06.001Z</time></trkpt><trkpt lat="45.02776027128585" lon="9.741186822535523"><ele>60.33333333333333</ele><time>2026-04-18T14:21:07.001Z</time></trkpt><trkpt lat="45.02794268803175" lon="9.741328642371155"><ele>61.0</ele><time>2026-04-18T14:21:08.001Z</time></trkpt><trkpt lat="45.02813336976948" lon="9.741457542724461"><ele>60.0</ele><time>2026-04-18T14:21:09.001Z</time></trkpt><trkpt lat="45.02833369748324" lon="9.741570677979153"><ele>59.0</ele><time>2026-04-18T14:21:10.001Z</time></trkpt><trkpt lat="45.02854300491776" lon="9.741667100183149"><ele>58.0</ele><time>2026-04-18T14:21:11.001Z</time></trkpt><trkpt lat="45.02875985620365" lon="9.741737482389073"><ele>58.0</ele><time>2026-04-18T14:21:12.001Z</time></trkpt><trkpt lat="45.02898111833009" lon="9.74178491145929"><ele>58.0</ele><time>2026-04-18T14:21:13.001Z</time></trkpt><trkpt lat="45.029207128208185" lon="9.741805854298693"><ele>57.0</ele><time>2026-04-18T14:21:14.001Z</time></trkpt><trkpt lat="45.02943479953419" lon="9.741814252111354"><ele>56.0</ele><time>2026-04-18T14:21:15.001Z</time></trkpt><trkpt lat="45.029658732509965" lon="9.741825001602201"><ele>56.0</ele><time>2026-04-18T14:21:16.001Z</time></trkpt><trkpt lat="45.029871914121884" lon="9.741843341139223"><ele>56.0</ele><time>2026-04-18T14:21:17.001Z</time></trkpt><trkpt lat="45.030078770146815" lon="9.74186968551203"><ele>56.0</ele><time>2026-04-18T14:21:18.001Z</time></trkpt><trkpt lat="45.030285330426295" lon="9.741907121845204"><ele>56.0</ele><time>2026-04-18T14:21:19.001Z</time></trkpt><trkpt lat="45.03049045444769" lon="9.741958376723849"><ele>56.0</ele><time>2026-04-18T14:21:20.001Z</time></trkpt><trkpt lat="45.0306942161019" lon="9.74203071836914"><ele>56.0</ele><time>2026-04-18T14:21:21.001Z</time></trkpt><trkpt lat="45.03090378212037" lon="9.74212081982318"><ele>56.0</ele><time>2026-04-18T14:21:22.001Z</time></trkpt><trkpt lat="45.03111804148463" lon="9.742213672658355"><ele>56.0</ele><time>2026-04-18T14:21:23.001Z</time></trkpt><trkpt lat="45.03133256851185" lon="9.742303170733166"><ele>56.0</ele><time>2026-04-18T14:21:24.001Z</time></trkpt><trkpt lat="45.031555222727825" lon="9.742391591898066"><ele>56.5</ele><time>2026-04-18T14:21:25.001Z</time></trkpt><trkpt lat="45.03177815650607" lon="9.74248156164999"><ele>57.0</ele><time>2026-04-18T14:21:26.002Z</time></trkpt><trkpt lat="45.0320001785148" lon="9.742574227712609"><ele>57.0</ele><time>2026-04-18T14:21:27.002Z</time></trkpt><trkpt lat="45.03222944511994" lon="9.742665744987958"><ele>57.0</ele><time>2026-04-18T14:21:28.002Z</time></trkpt><trkpt lat="45.03246082986132" lon="9.74275618398236"><ele>56.5</ele><time>2026-04-18T14:21:29.002Z</time></trkpt><trkpt lat="45.03269156941575" lon="9.742848040407091"><ele>56.0</ele><time>2026-04-18T14:21:30.002Z</time></trkpt><trkpt lat="45.032928995814196" lon="9.742944433536875"><ele>56.0</ele><time>2026-04-18T14:21:31.002Z</time></trkpt><trkpt lat="45.03317034097639" lon="9.743038627522605"><ele>56.0</ele><time>2026-04-18T14:21:32.002Z</time></trkpt><trkpt lat="45.03341125732241" lon="9.74313223626856"><ele>57.0</ele><time>2026-04-18T14:21:33.002Z</time></trkpt><trkpt lat="45.033648129799445" lon="9.74322944246133"><ele>58.0</ele><time>2026-04-18T14:21:34.002Z</time></trkpt><trkpt lat="45.033892152143984" lon="9.743329007263686"><ele>58.0</ele><time>2026-04-18T14:21:35.002Z</time></trkpt><trkpt lat="45.034130583078316" lon="9.743425534435735"><ele>58.0</ele><time>2026-04-18T14:21:36.002Z</time></trkpt><trkpt lat="45.03436666794999" lon="9.743519353805466"><ele>57.5</ele><time>2026-04-18T14:21:37.002Z</time></trkpt><trkpt lat="45.034603907828604" lon="9.74361371725901"><ele>57.0</ele><time>2026-04-18T14:21:38.002Z</time></trkpt><trkpt lat="45.03483687555865" lon="9.743706724993507"><ele>56.0</ele><time>2026-04-18T14:21:39.002Z</time></trkpt><trkpt lat="45.03507140408081" lon="9.74379695867227"><ele>55.0</ele><time>2026-04-18T14:21:40.002Z</time></trkpt><trkpt lat="45.03530720648965" lon="9.743888213302698"><ele>55.0</ele><time>2026-04-18T14:21:41.002Z</time></trkpt><trkpt lat="45.035538979743464" lon="9.74397976292965"><ele>55.0</ele><time>2026-04-18T14:21:42.002Z</time></trkpt><trkpt lat="45.035766707817544" lon="9.744070959686034"><ele>55.5</ele><time>2026-04-18T14:21:43.002Z</time></trkpt><trkpt lat="45.03599622649672" lon="9.744162084942014"><ele>56.0</ele><time>2026-04-18T14:21:44.002Z</time></trkpt><trkpt lat="45.03622431066539" lon="9.744254187540937"><ele>56.0</ele><time>2026-04-18T14:21:45.002Z</time></trkpt><trkpt lat="45.03644946445779" lon="9.744346603456794"><ele>56.0</ele><time>2026-04-18T14:21:46.002Z</time></trkpt><trkpt lat="45.03667569760371" lon="9.744438008651528"><ele>55.5</ele><time>2026-04-18T14:21:47.002Z</time></trkpt><trkpt lat="45.0368931702021" lon="9.744527584202432"><ele>55.0</ele><time>2026-04-18T14:21:48.002Z</time></trkpt><trkpt lat="45.03711348573944" lon="9.744614807431343"><ele>55.0</ele><time>2026-04-18T14:21:49.002Z</time></trkpt><trkpt lat="45.03733132851069" lon="9.744701509286116"><ele>55.0</ele><time>2026-04-18T14:21:50.002Z</time></trkpt><trkpt lat="45.03753997062788" lon="9.744785234965253"><ele>55.0</ele><time>2026-04-18T14:21:51.002Z</time></trkpt><trkpt lat="45.03774664830893" lon="9.744868159301882"><ele>54.666666666666664</ele><time>2026-04-18T14:21:52.002Z</time></trkpt><trkpt lat="45.037956496732946" lon="9.744952675106177"><ele>54.33333333333333</ele><time>2026-04-18T14:21:53.002Z</time></trkpt><trkpt lat="45.03816683522105" lon="9.745037265243543"><ele>54.0</ele><time>2026-04-18T14:21:54.002Z</time></trkpt><trkpt lat="45.038386080430044" lon="9.745121197378353"><ele>54.0</ele><time>2026-04-18T14:21:55.002Z</time></trkpt><trkpt lat="45.038600400750575" lon="9.745206239356111"><ele>54.0</ele><time>2026-04-18T14:21:56.002Z</time></trkpt><trkpt lat="45.03882143864759" lon="9.745292070602853"><ele>53.5</ele><time>2026-04-18T14:21:57.002Z</time></trkpt><trkpt lat="45.03904846921317" lon="9.745377982679237"><ele>53.0</ele><time>2026-04-18T14:21:58.003Z</time></trkpt><trkpt lat="45.03927268234071" lon="9.745468337366233"><ele>53.0</ele><time>2026-04-18T14:21:59.003Z</time></trkpt><trkpt lat="45.039500190821215" lon="9.745562533478092"><ele>53.0</ele><time>2026-04-18T14:22:00.003Z</time></trkpt><trkpt lat="45.03972597049899" lon="9.745657375420599"><ele>53.0</ele><time>2026-04-18T14:22:01.003Z</time></trkpt><trkpt lat="45.039951686302096" lon="9.745751331851714"><ele>53.0</ele><time>2026-04-18T14:22:02.003Z</time></trkpt><trkpt lat="45.04017467858395" lon="9.745840951538943"><ele>53.5</ele><time>2026-04-18T14:22:03.003Z</time></trkpt><trkpt lat="45.04039729940941" lon="9.745928535120559"><ele>54.0</ele><time>2026-04-18T14:22:04.003Z</time></trkpt><trkpt lat="45.040613278639555" lon="9.746015449385517"><ele>52.5</ele><time>2026-04-18T14:22:05.003Z</time></trkpt><trkpt lat="45.04083323576616" lon="9.746100775693003"><ele>51.0</ele><time>2026-04-18T14:22:06.003Z</time></trkpt><trkpt lat="45.04104632394626" lon="9.746186689295618"><ele>51.0</ele><time>2026-04-18T14:22:07.003Z</time></trkpt><trkpt lat="45.04126237338559" lon="9.746270215784302"><ele>51.0</ele><time>2026-04-18T14:22:08.003Z</time></trkpt><trkpt lat="45.04147074003737" lon="9.746352464370007"><ele>51.0</ele><time>2026-04-18T14:22:09.003Z</time></trkpt><trkpt lat="45.04167639878115" lon="9.746436901245914"><ele>51.0</ele><time>2026-04-18T14:22:10.003Z</time></trkpt><trkpt lat="45.041883186884505" lon="9.746519948852862"><ele>51.0</ele><time>2026-04-18T14:22:11.003Z</time></trkpt><trkpt lat="45.042087397308265" lon="9.746600845095063"><ele>51.0</ele><time>2026-04-18T14:22:12.003Z</time></trkpt><trkpt lat="45.04228673303223" lon="9.746680270726031"><ele>51.0</ele><time>2026-04-18T14:22:13.003Z</time></trkpt><trkpt lat="45.04248465482395" lon="9.746760213845016"><ele>51.0</ele><time>2026-04-18T14:22:14.003Z</time></trkpt><trkpt lat="45.04267573867001" lon="9.74683652485896"><ele>51.0</ele><time>2026-04-18T14:22:15.003Z</time></trkpt><trkpt lat="45.04285969309905" lon="9.746907566930798"><ele>50.33333333333333</ele><time>2026-04-18T14:22:16.003Z</time></trkpt><trkpt lat="45.04304682880857" lon="9.746967439354592"><ele>49.666666666666664</ele><time>2026-04-18T14:22:17.003Z</time></trkpt><trkpt lat="45.04324303094608" lon="9.7470074078203"><ele>49.0</ele><time>2026-04-18T14:22:18.003Z</time></trkpt><trkpt lat="45.04344187198668" lon="9.747024159898386"><ele>48.666666666666664</ele><time>2026-04-18T14:22:19.003Z</time></trkpt><trkpt lat="45.04363956711319" lon="9.747019846298562"><ele>48.33333333333333</ele><time>2026-04-18T14:22:20.003Z</time></trkpt><trkpt lat="45.043837688786795" lon="9.74699388411813"><ele>48.0</ele><time>2026-04-18T14:22:21.003Z</time></trkpt><trkpt lat="45.04403585010263" lon="9.746946583624986"><ele>48.33333333333333</ele><time>2026-04-18T14:22:22.003Z</time></trkpt><trkpt lat="45.04423168693946" lon="9.746883092779424"><ele>48.666666666666664</ele><time>2026-04-18T14:22:23.003Z</time></trkpt><trkpt lat="45.04442523216889" lon="9.746797556407078"><ele>49.0</ele><time>2026-04-18T14:22:23.998Z</time></trkpt><trkpt lat="45.04461484732714" lon="9.746690720895701"><ele>49.0</ele><time>2026-04-18T14:22:24.998Z</time></trkpt><trkpt lat="45.04480087838867" lon="9.746567258153432"><ele>49.0</ele><time>2026-04-18T14:22:25.998Z</time></trkpt><trkpt lat="45.04498630383204" lon="9.746435989565088"><ele>49.0</ele><time>2026-04-18T14:22:26.998Z</time></trkpt><trkpt lat="45.04516762111012" lon="9.746300039817616"><ele>49.0</ele><time>2026-04-18T14:22:27.998Z</time></trkpt><trkpt lat="45.04534365836253" lon="9.746158847102032"><ele>49.0</ele><time>2026-04-18T14:22:28.998Z</time></trkpt><trkpt lat="45.045517264102855" lon="9.746019070019024"><ele>49.0</ele><time>2026-04-18T14:22:29.998Z</time></trkpt><trkpt lat="45.04569230265051" lon="9.745896807361152"><ele>49.0</ele><time>2026-04-18T14:22:30.998Z</time></trkpt><trkpt lat="45.04586842928146" lon="9.745808827537447"><ele>49.0</ele><time>2026-04-18T14:22:31.999Z</time></trkpt><trkpt lat="45.04604618150546" lon="9.745765686886829"><ele>49.0</ele><time>2026-04-18T14:22:32.999Z</time></trkpt><trkpt lat="45.046222625391195" lon="9.745745662721657"><ele>49.0</ele><time>2026-04-18T14:22:33.999Z</time></trkpt><trkpt lat="45.046398907650484" lon="9.745739981209853"><ele>49.0</ele><time>2026-04-18T14:22:34.999Z</time></trkpt><trkpt lat="45.04657027622165" lon="9.745760251400348"><ele>49.0</ele><time>2026-04-18T14:22:35.999Z</time></trkpt><trkpt lat="45.04674047596343" lon="9.745790750850398"><ele>48.33333333333333</ele><time>2026-04-18T14:22:36.999Z</time></trkpt><trkpt lat="45.04689536136813" lon="9.745845751321342"><ele>47.666666666666664</ele><time>2026-04-18T14:22:37.999Z</time></trkpt><trkpt lat="45.04704748211761" lon="9.745911020239182"><ele>47.0</ele><time>2026-04-18T14:22:38.999Z</time></trkpt><trkpt lat="45.04719425520713" lon="9.745980109752539"><ele>47.25</ele><time>2026-04-18T14:22:39.999Z</time></trkpt><trkpt lat="45.047334948755335" lon="9.746051018174066"><ele>47.5</ele><time>2026-04-18T14:22:40.999Z</time></trkpt><trkpt lat="45.047457527626285" lon="9.74612267652028"><ele>47.75</ele><time>2026-04-18T14:22:41.999Z</time></trkpt><trkpt lat="45.047551256582345" lon="9.746200183319463"><ele>48.0</ele><time>2026-04-18T14:22:42.999Z</time></trkpt><trkpt lat="45.04761811326955" lon="9.746298865337028"><ele>48.0</ele><time>2026-04-18T14:22:43.999Z</time></trkpt><trkpt lat="45.047660331499294" lon="9.746415023879733"><ele>48.0</ele><time>2026-04-18T14:22:44.999Z</time></trkpt><trkpt lat="45.04767615980931" lon="9.746520803660848"><ele>48.0</ele><time>2026-04-18T14:22:46Z</time></trkpt><trkpt lat="45.04766515843738" lon="9.746627039066258"><ele>48.0</ele><time>2026-04-18T14:22:47Z</time></trkpt><trkpt lat="45.04762592914917" lon="9.746724686615432"><ele>48.0</ele><time>2026-04-18T14:22:48Z</time></trkpt><trkpt lat="45.04756083353568" lon="9.746838706752724"><ele>48.0</ele><time>2026-04-18T14:22:49Z</time></trkpt><trkpt lat="45.04748679720217" lon="9.746957342457485"><ele>47.25</ele><time>2026-04-18T14:22:50Z</time></trkpt><trkpt lat="45.0473928799814" lon="9.747056699084801"><ele>46.5</ele><time>2026-04-18T14:22:51Z</time></trkpt><trkpt lat="45.047274786902" lon="9.747142246867591"><ele>45.75</ele><time>2026-04-18T14:22:52Z</time></trkpt><trkpt lat="45.047141360675816" lon="9.747230799639961"><ele>45.0</ele><time>2026-04-18T14:22:53Z</time></trkpt><trkpt lat="45.047004085514786" lon="9.74732772183065"><ele>45.0</ele><time>2026-04-18T14:22:54Z</time></trkpt><trkpt lat="45.04687983703738" lon="9.74742641566657"><ele>45.0</ele><time>2026-04-18T14:22:55Z</time></trkpt><trkpt lat="45.04675211157208" lon="9.747536325521438"><ele>45.0</ele><time>2026-04-18T14:22:56Z</time></trkpt><trkpt lat="45.04661800996964" lon="9.747650903673572"><ele>45.0</ele><time>2026-04-18T14:22:57Z</time></trkpt><trkpt lat="45.04647480171587" lon="9.747776321917156"><ele>46.33333333333333</ele><time>2026-04-18T14:22:58Z</time></trkpt><trkpt lat="45.0463297487094" lon="9.747905384294683"><ele>47.666666666666664</ele><time>2026-04-18T14:22:59Z</time></trkpt><trkpt lat="45.04618519020132" lon="9.74803147538443"><ele>49.0</ele><time>2026-04-18T14:23:00Z</time></trkpt><trkpt lat="45.046045232718825" lon="9.74815695649757"><ele>49.0</ele><time>2026-04-18T14:23:01Z</time></trkpt><trkpt lat="45.04591671088673" lon="9.748279942911587"><ele>49.0</ele><time>2026-04-18T14:23:02Z</time></trkpt><trkpt lat="45.04579436671198" lon="9.748399967527662"><ele>49.0</ele><time>2026-04-18T14:23:03Z</time></trkpt><trkpt lat="45.0456722999184" lon="9.748523644697368"><ele>48.75</ele><time>2026-04-18T14:23:04Z</time></trkpt><trkpt lat="45.045557813823926" lon="9.748647006541884"><ele>48.5</ele><time>2026-04-18T14:23:05.001Z</time></trkpt><trkpt lat="45.04546405492833" lon="9.74879082960133"><ele>48.25</ele><time>2026-04-18T14:23:06.001Z</time></trkpt><trkpt lat="45.04537620420813" lon="9.748932011422415"><ele>48.0</ele><time>2026-04-18T14:23:07.001Z</time></trkpt><trkpt lat="45.04529380749293" lon="9.749071362675986"><ele>48.0</ele><time>2026-04-18T14:23:08.001Z</time></trkpt><trkpt lat="45.045213285434215" lon="9.749209856682375"><ele>48.0</ele><time>2026-04-18T14:23:09.001Z</time></trkpt><trkpt lat="45.045128591964996" lon="9.749347307058526"><ele>48.0</ele><time>2026-04-18T14:23:10.001Z</time></trkpt><trkpt lat="45.04504583098298" lon="9.749483058648078"><ele>48.0</ele><time>2026-04-18T14:23:11.001Z</time></trkpt><trkpt lat="45.04496770083922" lon="9.7496149061472"><ele>47.8</ele><time>2026-04-18T14:23:12.001Z</time></trkpt><trkpt lat="45.0448922968151" lon="9.749742735341872"><ele>47.599999999999994</ele><time>2026-04-18T14:23:13.001Z</time></trkpt><trkpt lat="45.04483416654265" lon="9.749848747520442"><ele>47.400000000000006</ele><time>2026-04-18T14:23:14.001Z</time></trkpt><trkpt lat="45.044783127977134" lon="9.7499595789542"><ele>47.2</ele><time>2026-04-18T14:23:15.001Z</time></trkpt><trkpt lat="45.044739086536175" lon="9.750079345632289"><ele>47.0</ele><time>2026-04-18T14:23:16.001Z</time></trkpt><trkpt lat="45.044697025044044" lon="9.750173959816031"><ele>47.0</ele><time>2026-04-18T14:23:17.001Z</time></trkpt><trkpt lat="45.044658938505414" lon="9.75026594246034"><ele>47.0</ele><time>2026-04-18T14:23:18.001Z</time></trkpt><trkpt lat="45.04460947429737" lon="9.750385413083126"><ele>47.0</ele><time>2026-04-18T14:23:19.001Z</time></trkpt><trkpt lat="45.04455591339973" lon="9.750514052122483"><ele>47.0</ele><time>2026-04-18T14:23:20.001Z</time></trkpt><trkpt lat="45.04450686107458" lon="9.750645180758697"><ele>47.0</ele><time>2026-04-18T14:23:21.001Z</time></trkpt><trkpt lat="45.04446232266151" lon="9.750793559302032"><ele>47.0</ele><time>2026-04-18T14:23:22.001Z</time></trkpt><trkpt lat="45.044419673105466" lon="9.750956148049573"><ele>47.0</ele><time>2026-04-18T14:23:23.001Z</time></trkpt><trkpt lat="45.04437525637523" lon="9.75113611632466"><ele>47.0</ele><time>2026-04-18T14:23:24.001Z</time></trkpt><trkpt lat="45.044327196747474" lon="9.751316639374437"><ele>47.0</ele><time>2026-04-18T14:23:25.001Z</time></trkpt><trkpt lat="45.04424066273906" lon="9.751505297592619"><ele>47.33333333333333</ele><time>2026-04-18T14:23:26.001Z</time></trkpt><trkpt lat="45.044187809743214" lon="9.751721483715956"><ele>47.666666666666664</ele><time>2026-04-18T14:23:27.001Z</time></trkpt><trkpt lat="45.04412517992805" lon="9.751946262816233"><ele>48.0</ele><time>2026-04-18T14:23:28.001Z</time></trkpt><trkpt lat="45.04406579520417" lon="9.752158876934276"><ele>47.0</ele><time>2026-04-18T14:23:29.001Z</time></trkpt><trkpt lat="45.04401264041456" lon="9.752369819054195"><ele>46.0</ele><time>2026-04-18T14:23:30.001Z</time></trkpt><trkpt lat="45.043961612810214" lon="9.752586931416065"><ele>45.0</ele><time>2026-04-18T14:23:31.001Z</time></trkpt><trkpt lat="45.043925514504" lon="9.752809013142237"><ele>44.666666666666664</ele><time>2026-04-18T14:23:32.001Z</time></trkpt><trkpt lat="45.043909894144434" lon="9.75303863557323"><ele>44.33333333333333</ele><time>2026-04-18T14:23:33.002Z</time></trkpt><trkpt lat="45.04391362102498" lon="9.753272851880277"><ele>44.0</ele><time>2026-04-18T14:23:34.002Z</time></trkpt><trkpt lat="45.0439362208359" lon="9.75350501575206"><ele>44.0</ele><time>2026-04-18T14:23:35.002Z</time></trkpt><trkpt lat="45.04397486689344" lon="9.75373436217787"><ele>44.0</ele><time>2026-04-18T14:23:36.002Z</time></trkpt><trkpt lat="45.04403335122259" lon="9.753959997366522"><ele>44.0</ele><time>2026-04-18T14:23:37.002Z</time></trkpt><trkpt lat="45.0441094258689" lon="9.75418321532562"><ele>44.666666666666664</ele><time>2026-04-18T14:23:38.002Z</time></trkpt><trkpt lat="45.044202224962916" lon="9.754406896083813"><ele>45.333333333333336</ele><time>2026-04-18T14:23:39.002Z</time></trkpt><trkpt lat="45.044304399644666" lon="9.754630688335103"><ele>46.0</ele><time>2026-04-18T14:23:40.002Z</time></trkpt><trkpt lat="45.0444117247951" lon="9.754851332796411"><ele>46.0</ele><time>2026-04-18T14:23:41.002Z</time></trkpt><trkpt lat="45.044515292008974" lon="9.755067456696818"><ele>46.0</ele><time>2026-04-18T14:23:42.002Z</time></trkpt><trkpt lat="45.04461365709798" lon="9.755274255465267"><ele>46.0</ele><time>2026-04-18T14:23:43.002Z</time></trkpt><trkpt lat="45.04471059338915" lon="9.755477082606733"><ele>45.66666666666667</ele><time>2026-04-18T14:23:44.002Z</time></trkpt><trkpt lat="45.04480670210816" lon="9.75566759826636"><ele>45.333333333333336</ele><time>2026-04-18T14:23:45.002Z</time></trkpt><trkpt lat="45.044911223395054" lon="9.75584720907393"><ele>45.0</ele><time>2026-04-18T14:23:46.002Z</time></trkpt><trkpt lat="45.04503266548118" lon="9.756015058159466"><ele>46.0</ele><time>2026-04-18T14:23:47.002Z</time></trkpt><trkpt lat="45.04516668292669" lon="9.75616666230821"><ele>47.0</ele><time>2026-04-18T14:23:48.002Z</time></trkpt><trkpt lat="45.04530479125802" lon="9.756297658324979"><ele>48.0</ele><time>2026-04-18T14:23:49.002Z</time></trkpt><trkpt lat="45.04544153001454" lon="9.756405484698476"><ele>48.0</ele><time>2026-04-18T14:23:50.002Z</time></trkpt><trkpt lat="45.04557731949781" lon="9.756493213838038"><ele>48.0</ele><time>2026-04-18T14:23:51.002Z</time></trkpt><trkpt lat="45.045712736943734" lon="9.756554301302796"><ele>48.0</ele><time>2026-04-18T14:23:52.002Z</time></trkpt><trkpt lat="45.04584765724068" lon="9.756581686404708"><ele>48.0</ele><time>2026-04-18T14:23:53.002Z</time></trkpt><trkpt lat="45.04598292461887" lon="9.7565832083909"><ele>47.5</ele><time>2026-04-18T14:23:54.002Z</time></trkpt><trkpt lat="45.04611550230286" lon="9.756530716179391"><ele>47.0</ele><time>2026-04-18T14:23:55.002Z</time></trkpt><trkpt lat="45.04624063585672" lon="9.75644246576291"><ele>46.5</ele><time>2026-04-18T14:23:56.002Z</time></trkpt><trkpt lat="45.046356891656814" lon="9.756323984279057"><ele>46.0</ele><time>2026-04-18T14:23:57.002Z</time></trkpt><trkpt lat="45.04645514442144" lon="9.756174387891845"><ele>46.0</ele><time>2026-04-18T14:23:58.002Z</time></trkpt><trkpt lat="45.04653186722658" lon="9.755996063674012"><ele>46.0</ele><time>2026-04-18T14:23:59.002Z</time></trkpt><trkpt lat="45.04658778468226" lon="9.755790911435046"><ele>46.0</ele><time>2026-04-18T14:24:00.002Z</time></trkpt><trkpt lat="45.04663151377666" lon="9.755565664229225"><ele>46.0</ele><time>2026-04-18T14:24:01.002Z</time></trkpt><trkpt lat="45.04667108719677" lon="9.755327638735011"><ele>46.0</ele><time>2026-04-18T14:24:02.002Z</time></trkpt><trkpt lat="45.04670003023911" lon="9.755081278907445"><ele>46.0</ele><time>2026-04-18T14:24:03.002Z</time></trkpt><trkpt lat="45.046717665944435" lon="9.754824276959079"><ele>46.0</ele><time>2026-04-18T14:24:04.002Z</time></trkpt><trkpt lat="45.04673584217358" lon="9.754565422574789"><ele>46.0</ele><time>2026-04-18T14:24:05.003Z</time></trkpt><trkpt lat="45.046763571297014" lon="9.75431464430792"><ele>46.0</ele><time>2026-04-18T14:24:06.003Z</time></trkpt><trkpt lat="45.04680594629818" lon="9.75406788043784"><ele>46.0</ele><time>2026-04-18T14:24:07.003Z</time></trkpt><trkpt lat="45.046862514154014" lon="9.75382949499264"><ele>46.0</ele><time>2026-04-18T14:24:08.003Z</time></trkpt><trkpt lat="45.046930901994706" lon="9.753613775117728"><ele>46.0</ele><time>2026-04-18T14:24:09.003Z</time></trkpt><trkpt lat="45.04701529396064" lon="9.753399591266078"><ele>45.66666666666667</ele><time>2026-04-18T14:24:10.003Z</time></trkpt><trkpt lat="45.0471074606314" lon="9.753197422183824"><ele>45.333333333333336</ele><time>2026-04-18T14:24:11.003Z</time></trkpt><trkpt lat="45.047209459725764" lon="9.753004762301703"><ele>45.0</ele><time>2026-04-18T14:24:12.003Z</time></trkpt><trkpt lat="45.04731644125323" lon="9.752832959541644"><ele>45.0</ele><time>2026-04-18T14:24:13.003Z</time></trkpt><trkpt lat="45.04744083039311" lon="9.752672616123315"><ele>45.0</ele><time>2026-04-18T14:24:14.003Z</time></trkpt><trkpt lat="45.0475832386413" lon="9.752518347420745"><ele>45.0</ele><time>2026-04-18T14:24:15.003Z</time></trkpt><trkpt lat="45.047738730162784" lon="9.752364264893922"><ele>45.333333333333336</ele><time>2026-04-18T14:24:16.003Z</time></trkpt><trkpt lat="45.04790282690983" lon="9.752199468635565"><ele>45.66666666666667</ele><time>2026-04-18T14:24:17.003Z</time></trkpt><trkpt lat="45.048076392995746" lon="9.75202402282962"><ele>46.0</ele><time>2026-04-18T14:24:18.003Z</time></trkpt><trkpt lat="45.04825684518179" lon="9.751844319541915"><ele>46.66666666666667</ele><time>2026-04-18T14:24:19.003Z</time></trkpt><trkpt lat="45.04843346072249" lon="9.75166962389098"><ele>47.333333333333336</ele><time>2026-04-18T14:24:20.003Z</time></trkpt><trkpt lat="45.048609007750144" lon="9.751495944387903"><ele>48.0</ele><time>2026-04-18T14:24:21.003Z</time></trkpt><trkpt lat="45.048784313581805" lon="9.751314020196181"><ele>48.0</ele><time>2026-04-18T14:24:22.003Z</time></trkpt><trkpt lat="45.04896078219281" lon="9.7511305923068"><ele>48.0</ele><time>2026-04-18T14:24:23.003Z</time></trkpt><trkpt lat="45.04913818088246" lon="9.750945259062302"><ele>48.0</ele><time>2026-04-18T14:24:24.003Z</time></trkpt><trkpt lat="45.04931702355706" lon="9.750765159510694"><ele>47.0</ele><time>2026-04-18T14:24:25.003Z</time></trkpt><trkpt lat="45.04949710490148" lon="9.75058730586867"><ele>46.0</ele><time>2026-04-18T14:24:26.003Z</time></trkpt><trkpt lat="45.04967644613792" lon="9.750411154540403"><ele>45.0</ele><time>2026-04-18T14:24:27.003Z</time></trkpt><trkpt lat="45.04985182379638" lon="9.750240325378082"><ele>45.333333333333336</ele><time>2026-04-18T14:24:28.003Z</time></trkpt><trkpt lat="45.05002401888442" lon="9.750070289480595"><ele>45.66666666666667</ele><time>2026-04-18T14:24:29.003Z</time></trkpt><trkpt lat="45.05019170190098" lon="9.749903359895079"><ele>46.0</ele><time>2026-04-18T14:24:29.998Z</time></trkpt><trkpt lat="45.05035945015007" lon="9.749736730725447"><ele>46.0</ele><time>2026-04-18T14:24:30.998Z</time></trkpt><trkpt lat="45.05052635007561" lon="9.749572679290932"><ele>46.0</ele><time>2026-04-18T14:24:31.998Z</time></trkpt><trkpt lat="45.0506966185031" lon="9.749409614588094"><ele>46.0</ele><time>2026-04-18T14:24:32.998Z</time></trkpt><trkpt lat="45.0508693105902" lon="9.749254673058436"><ele>46.333333333333336</ele><time>2026-04-18T14:24:33.998Z</time></trkpt><trkpt lat="45.05104576181634" lon="9.749113675590777"><ele>46.666666666666664</ele><time>2026-04-18T14:24:34.998Z</time></trkpt><trkpt lat="45.05122772152844" lon="9.748983957837003"><ele>47.0</ele><time>2026-04-18T14:24:35.999Z</time></trkpt><trkpt lat="45.05140872038431" lon="9.748861284505443"><ele>47.0</ele><time>2026-04-18T14:24:36.999Z</time></trkpt><trkpt lat="45.05158808630899" lon="9.748731299421502"><ele>47.0</ele><time>2026-04-18T14:24:37.999Z</time></trkpt><trkpt lat="45.051766021304836" lon="9.748585540487719"><ele>47.0</ele><time>2026-04-18T14:24:38.999Z</time></trkpt><trkpt lat="45.051941439009724" lon="9.7484292676958"><ele>47.0</ele><time>2026-04-18T14:24:39.999Z</time></trkpt><trkpt lat="45.05211413738424" lon="9.748264511008301"><ele>47.0</ele><time>2026-04-18T14:24:40.999Z</time></trkpt><trkpt lat="45.05228188475061" lon="9.74808966160442"><ele>47.0</ele><time>2026-04-18T14:24:41.999Z</time></trkpt><trkpt lat="45.052443928136796" lon="9.747899938515586"><ele>47.33333333333333</ele><time>2026-04-18T14:24:42.999Z</time></trkpt><trkpt lat="45.052607007055016" lon="9.747690323773432"><ele>47.666666666666664</ele><time>2026-04-18T14:24:43.999Z</time></trkpt><trkpt lat="45.052759764142884" lon="9.747477639949931"><ele>48.0</ele><time>2026-04-18T14:24:44.999Z</time></trkpt><trkpt lat="45.05291370082063" lon="9.747261510990699"><ele>48.0</ele><time>2026-04-18T14:24:45.999Z</time></trkpt><trkpt lat="45.053073353302" lon="9.747052652193123"><ele>48.0</ele><time>2026-04-18T14:24:46.999Z</time></trkpt><trkpt lat="45.05324584547285" lon="9.746858665416488"><ele>48.0</ele><time>2026-04-18T14:24:47.999Z</time></trkpt><trkpt lat="45.05343163589858" lon="9.74668032342137"><ele>47.5</ele><time>2026-04-18T14:24:48.999Z</time></trkpt><trkpt lat="45.05362277262678" lon="9.746505945261847"><ele>47.0</ele><time>2026-04-18T14:24:50Z</time></trkpt><trkpt lat="45.05381460079306" lon="9.74632558528812"><ele>47.0</ele><time>2026-04-18T14:24:51Z</time></trkpt><trkpt lat="45.05400863828127" lon="9.746136022173731"><ele>47.0</ele><time>2026-04-18T14:24:52Z</time></trkpt><trkpt lat="45.0542025514814" lon="9.745948777994709"><ele>46.5</ele><time>2026-04-18T14:24:53Z</time></trkpt><trkpt lat="45.054397722811494" lon="9.745759402007536"><ele>46.0</ele><time>2026-04-18T14:24:54Z</time></trkpt><trkpt lat="45.054590471747865" lon="9.745568497049309"><ele>46.0</ele><time>2026-04-18T14:24:55Z</time></trkpt><trkpt lat="45.05478245468745" lon="9.745377498563878"><ele>46.0</ele><time>2026-04-18T14:24:56Z</time></trkpt><trkpt lat="45.05497552376895" lon="9.745183806183793"><ele>46.0</ele><time>2026-04-18T14:24:57Z</time></trkpt><trkpt lat="45.055170430603646" lon="9.744987022632323"><ele>46.0</ele><time>2026-04-18T14:24:58Z</time></trkpt><trkpt lat="45.05536528295983" lon="9.744788488424701"><ele>46.0</ele><time>2026-04-18T14:24:59Z</time></trkpt><trkpt lat="45.05556448499949" lon="9.744582261217511"><ele>46.0</ele><time>2026-04-18T14:25:00Z</time></trkpt><trkpt lat="45.05576435631379" lon="9.744389453729132"><ele>46.0</ele><time>2026-04-18T14:25:01Z</time></trkpt><trkpt lat="45.05596444798886" lon="9.744191910285997"><ele>46.0</ele><time>2026-04-18T14:25:02Z</time></trkpt><trkpt lat="45.056163642983805" lon="9.743994980676026"><ele>46.0</ele><time>2026-04-18T14:25:03Z</time></trkpt><trkpt lat="45.05636662889033" lon="9.743796034801392"><ele>46.0</ele><time>2026-04-18T14:25:04Z</time></trkpt><trkpt lat="45.0565681333018" lon="9.743599717389724"><ele>45.5</ele><time>2026-04-18T14:25:05Z</time></trkpt><trkpt lat="45.056766357353744" lon="9.74340498359862"><ele>45.0</ele><time>2026-04-18T14:25:06Z</time></trkpt><trkpt lat="45.056963194636786" lon="9.743211885767574"><ele>45.0</ele><time>2026-04-18T14:25:07Z</time></trkpt><trkpt lat="45.05716140855404" lon="9.743019465112287"><ele>45.0</ele><time>2026-04-18T14:25:08Z</time></trkpt><trkpt lat="45.05735450709054" lon="9.742828445526072"><ele>46.5</ele><time>2026-04-18T14:25:09.001Z</time></trkpt><trkpt lat="45.05755190233902" lon="9.74263542177982"><ele>48.0</ele><time>2026-04-18T14:25:10.001Z</time></trkpt><trkpt lat="45.05774451855438" lon="9.742454773073295"><ele>48.0</ele><time>2026-04-18T14:25:11.001Z</time></trkpt><trkpt lat="45.05793774500495" lon="9.742269896542375"><ele>48.0</ele><time>2026-04-18T14:25:12.001Z</time></trkpt><trkpt lat="45.058131326542636" lon="9.742063106357946"><ele>47.0</ele><time>2026-04-18T14:25:13.001Z</time></trkpt><trkpt lat="45.05831659520456" lon="9.74187820508627"><ele>46.0</ele><time>2026-04-18T14:25:14.001Z</time></trkpt><trkpt lat="45.058501859008054" lon="9.741691198684352"><ele>46.0</ele><time>2026-04-18T14:25:15.001Z</time></trkpt><trkpt lat="45.058690498910636" lon="9.741508396391634"><ele>46.0</ele><time>2026-04-18T14:25:16.001Z</time></trkpt><trkpt lat="45.05888501368912" lon="9.741324112053098"><ele>46.0</ele><time>2026-04-18T14:25:17.001Z</time></trkpt><trkpt lat="45.05908262604506" lon="9.74114078938867"><ele>46.0</ele><time>2026-04-18T14:25:18.001Z</time></trkpt><trkpt lat="45.05928176623136" lon="9.740956486141103"><ele>46.0</ele><time>2026-04-18T14:25:19.001Z</time></trkpt><trkpt lat="45.05947934814453" lon="9.740770054809747"><ele>46.0</ele><time>2026-04-18T14:25:20.001Z</time></trkpt><trkpt lat="45.05967431074192" lon="9.74058198467828"><ele>46.0</ele><time>2026-04-18T14:25:21.001Z</time></trkpt><trkpt lat="45.059866889078435" lon="9.74039100097306"><ele>46.0</ele><time>2026-04-18T14:25:22.001Z</time></trkpt><trkpt lat="45.060055627227484" lon="9.74019624353025"><ele>46.5</ele><time>2026-04-18T14:25:23.001Z</time></trkpt><trkpt lat="45.06024239204001" lon="9.740002234599709"><ele>47.0</ele><time>2026-04-18T14:25:24.001Z</time></trkpt><trkpt lat="45.060431058048366" lon="9.739808990066852"><ele>47.0</ele><time>2026-04-18T14:25:25.001Z</time></trkpt><trkpt lat="45.06061958362328" lon="9.739619784766626"><ele>47.0</ele><time>2026-04-18T14:25:26.001Z</time></trkpt><trkpt lat="45.060802395215525" lon="9.739434583445952"><ele>48.666666666666664</ele><time>2026-04-18T14:25:27.001Z</time></trkpt><trkpt lat="45.06097889334617" lon="9.739247568455841"><ele>50.33333333333333</ele><time>2026-04-18T14:25:28.001Z</time></trkpt><trkpt lat="45.06115365861169" lon="9.739061514140053"><ele>52.0</ele><time>2026-04-18T14:25:29.001Z</time></trkpt><trkpt lat="45.061330288238054" lon="9.738874713085632"><ele>52.0</ele><time>2026-04-18T14:25:30.001Z</time></trkpt><trkpt lat="45.0615089526493" lon="9.738691089640739"><ele>52.0</ele><time>2026-04-18T14:25:31.001Z</time></trkpt><trkpt lat="45.06169088831854" lon="9.738503981430403"><ele>52.0</ele><time>2026-04-18T14:25:32.001Z</time></trkpt><trkpt lat="45.06187689883854" lon="9.73831386803474"><ele>53.5</ele><time>2026-04-18T14:25:33.001Z</time></trkpt><trkpt lat="45.0620643104298" lon="9.738120825397546"><ele>55.0</ele><time>2026-04-18T14:25:34.001Z</time></trkpt><trkpt lat="45.06225532946478" lon="9.73792597644096"><ele>53.5</ele><time>2026-04-18T14:25:35.001Z</time></trkpt><trkpt lat="45.06245343551613" lon="9.737718325918962"><ele>52.0</ele><time>2026-04-18T14:25:36.001Z</time></trkpt><trkpt lat="45.062658233687664" lon="9.737506491143918"><ele>52.0</ele><time>2026-04-18T14:25:37.001Z</time></trkpt><trkpt lat="45.06286878365185" lon="9.73729477884954"><ele>52.0</ele><time>2026-04-18T14:25:38.002Z</time></trkpt><trkpt lat="45.063081875175584" lon="9.73708388525008"><ele>50.5</ele><time>2026-04-18T14:25:39.002Z</time></trkpt><trkpt lat="45.06330421496049" lon="9.736870305385292"><ele>49.0</ele><time>2026-04-18T14:25:40.002Z</time></trkpt><trkpt lat="45.063530570021335" lon="9.736655710528982"><ele>49.0</ele><time>2026-04-18T14:25:41.002Z</time></trkpt><trkpt lat="45.06376094079287" lon="9.736441857595988"><ele>49.0</ele><time>2026-04-18T14:25:42.002Z</time></trkpt><trkpt lat="45.063996812565385" lon="9.736218761759307"><ele>48.5</ele><time>2026-04-18T14:25:43.002Z</time></trkpt><trkpt lat="45.0642342161259" lon="9.735991310008231"><ele>48.0</ele><time>2026-04-18T14:25:44.002Z</time></trkpt><trkpt lat="45.06446899425344" lon="9.735763281596821"><ele>48.0</ele><time>2026-04-18T14:25:45.002Z</time></trkpt><trkpt lat="45.06470380724041" lon="9.735536498877739"><ele>48.0</ele><time>2026-04-18T14:25:46.002Z</time></trkpt><trkpt lat="45.064938983339296" lon="9.735306474006837"><ele>44.5</ele><time>2026-04-18T14:25:47.002Z</time></trkpt><trkpt lat="45.06516964944634" lon="9.735077135826737"><ele>41.0</ele><time>2026-04-18T14:25:48.002Z</time></trkpt><trkpt lat="45.06539784863579" lon="9.734850469522815"><ele>41.0</ele><time>2026-04-18T14:25:49.002Z</time></trkpt><trkpt lat="45.06562461540452" lon="9.734626489440409"><ele>41.0</ele><time>2026-04-18T14:25:50.002Z</time></trkpt><trkpt lat="45.065840984607576" lon="9.7344127818667"><ele>41.0</ele><time>2026-04-18T14:25:51.002Z</time></trkpt><trkpt lat="45.06605676887519" lon="9.734199397241904"><ele>41.0</ele><time>2026-04-18T14:25:52.002Z</time></trkpt><trkpt lat="45.06626935826999" lon="9.733993099137956"><ele>41.0</ele><time>2026-04-18T14:25:53.002Z</time></trkpt><trkpt lat="45.066481450089036" lon="9.733785837023115"><ele>41.0</ele><time>2026-04-18T14:25:54.002Z</time></trkpt><trkpt lat="45.066696006797564" lon="9.733574939721823"><ele>42.0</ele><time>2026-04-18T14:25:55.002Z</time></trkpt><trkpt lat="45.06690672181557" lon="9.73336624694101"><ele>43.0</ele><time>2026-04-18T14:25:56.002Z</time></trkpt><trkpt lat="45.067120157760506" lon="9.733157002253986"><ele>43.0</ele><time>2026-04-18T14:25:57.002Z</time></trkpt><trkpt lat="45.067332252533696" lon="9.73294744244564"><ele>43.0</ele><time>2026-04-18T14:25:58.002Z</time></trkpt><trkpt lat="45.0675443952254" lon="9.732736870502785"><ele>47.0</ele><time>2026-04-18T14:25:59.002Z</time></trkpt><trkpt lat="45.06775482659112" lon="9.732529940899617"><ele>51.0</ele><time>2026-04-18T14:26:00.002Z</time></trkpt><trkpt lat="45.067969553149624" lon="9.73231828778756"><ele>51.0</ele><time>2026-04-18T14:26:01.002Z</time></trkpt><trkpt lat="45.06818212728651" lon="9.732104644334198"><ele>51.0</ele><time>2026-04-18T14:26:02.002Z</time></trkpt><trkpt lat="45.06839333544904" lon="9.731891978799469"><ele>49.5</ele><time>2026-04-18T14:26:03.002Z</time></trkpt><trkpt lat="45.06860832745543" lon="9.731681048359823"><ele>48.0</ele><time>2026-04-18T14:26:04.002Z</time></trkpt><trkpt lat="45.06882492615893" lon="9.73146845151174"><ele>48.0</ele><time>2026-04-18T14:26:05.002Z</time></trkpt><trkpt lat="45.06904024939323" lon="9.73125641135374"><ele>48.0</ele><time>2026-04-18T14:26:06.002Z</time></trkpt><trkpt lat="45.069255006643424" lon="9.731046067360596"><ele>48.0</ele><time>2026-04-18T14:26:07.002Z</time></trkpt><trkpt lat="45.069472116201396" lon="9.73083395164945"><ele>48.0</ele><time>2026-04-18T14:26:08.002Z</time></trkpt><trkpt lat="45.069688205608834" lon="9.73062206927044"><ele>48.0</ele><time>2026-04-18T14:26:09.002Z</time></trkpt><trkpt lat="45.06990423998391" lon="9.730410337022445"><ele>48.0</ele><time>2026-04-18T14:26:10.002Z</time></trkpt><trkpt lat="45.07011942279921" lon="9.730199334101243"><ele>47.5</ele><time>2026-04-18T14:26:11.003Z</time></trkpt><trkpt lat="45.07033454198202" lon="9.729984559043656"><ele>47.0</ele><time>2026-04-18T14:26:12.003Z</time></trkpt><trkpt lat="45.07054897831142" lon="9.729770463614132"><ele>47.0</ele><time>2026-04-18T14:26:13.003Z</time></trkpt><trkpt lat="45.07076307684328" lon="9.729557701035036"><ele>47.0</ele><time>2026-04-18T14:26:14.003Z</time></trkpt><trkpt lat="45.07097809257922" lon="9.7293473286599"><ele>48.0</ele><time>2026-04-18T14:26:15.003Z</time></trkpt><trkpt lat="45.07119284793686" lon="9.7291377872734"><ele>49.0</ele><time>2026-04-18T14:26:16.003Z</time></trkpt><trkpt lat="45.07140812509296" lon="9.728925573662778"><ele>49.0</ele><time>2026-04-18T14:26:17.003Z</time></trkpt><trkpt lat="45.07161889635931" lon="9.728715613130547"><ele>49.0</ele><time>2026-04-18T14:26:18.003Z</time></trkpt><trkpt lat="45.07182527131836" lon="9.72850654231719"><ele>49.5</ele><time>2026-04-18T14:26:19.003Z</time></trkpt><trkpt lat="45.07203943186289" lon="9.728289132282274"><ele>50.0</ele><time>2026-04-18T14:26:20.003Z</time></trkpt><trkpt lat="45.07225741308907" lon="9.728063488810179"><ele>49.5</ele><time>2026-04-18T14:26:21.003Z</time></trkpt><trkpt lat="45.07247656468168" lon="9.727834265338057"><ele>49.0</ele><time>2026-04-18T14:26:22.003Z</time></trkpt><trkpt lat="45.07269226675319" lon="9.727605455689304"><ele>49.0</ele><time>2026-04-18T14:26:23.003Z</time></trkpt><trkpt lat="45.07290609974166" lon="9.727381952961265"><ele>49.0</ele><time>2026-04-18T14:26:24.003Z</time></trkpt><trkpt lat="45.073138833372646" lon="9.727141277603602"><ele>48.0</ele><time>2026-04-18T14:26:25.003Z</time></trkpt><trkpt lat="45.07338088953549" lon="9.726895847879987"><ele>47.0</ele><time>2026-04-18T14:26:26.003Z</time></trkpt><trkpt lat="45.07363306114242" lon="9.726646492788834"><ele>47.0</ele><time>2026-04-18T14:26:27.003Z</time></trkpt><trkpt lat="45.07389443590601" lon="9.726392127777796"><ele>47.0</ele><time>2026-04-18T14:26:28.003Z</time></trkpt><trkpt lat="45.07397954467408" lon="9.72627435953763"><ele>47.0</ele><time>2026-04-18T14:26:29.003Z</time></trkpt><trkpt lat="45.07417143856306" lon="9.726083051211953"><ele>48.0</ele><time>2026-04-18T14:26:30.003Z</time></trkpt><trkpt lat="45.07438148633593" lon="9.725881563468516"><ele>49.0</ele><time>2026-04-18T14:26:31.003Z</time></trkpt><trkpt lat="45.074593264716405" lon="9.725682132106366"><ele>49.0</ele><time>2026-04-18T14:26:32.003Z</time></trkpt><trkpt lat="45.07480106039995" lon="9.725476142994946"><ele>49.0</ele><time>2026-04-18T14:26:33.003Z</time></trkpt><trkpt lat="45.075014116892184" lon="9.725262629526526"><ele>48.5</ele><time>2026-04-18T14:26:34.003Z</time></trkpt><trkpt lat="45.07522560048942" lon="9.725052762314451"><ele>48.0</ele><time>2026-04-18T14:26:35.003Z</time></trkpt><trkpt lat="45.07543710152083" lon="9.724839120700983"><ele>48.0</ele><time>2026-04-18T14:26:35.998Z</time></trkpt><trkpt lat="45.07565295162997" lon="9.724628243461698"><ele>48.0</ele><time>2026-04-18T14:26:36.998Z</time></trkpt><trkpt lat="45.07586863671772" lon="9.724418068089054"><ele>47.5</ele><time>2026-04-18T14:26:37.999Z</time></trkpt><trkpt lat="45.076085220968245" lon="9.724206160066297"><ele>47.0</ele><time>2026-04-18T14:26:38.999Z</time></trkpt><trkpt lat="45.07629752545133" lon="9.7239956451452"><ele>47.0</ele><time>2026-04-18T14:26:39.999Z</time></trkpt><trkpt lat="45.07651263166642" lon="9.723782240957501"><ele>47.0</ele><time>2026-04-18T14:26:40.999Z</time></trkpt><trkpt lat="45.07672594503047" lon="9.72357165075975"><ele>46.5</ele><time>2026-04-18T14:26:41.999Z</time></trkpt><trkpt lat="45.07693911055392" lon="9.723360354684967"><ele>46.0</ele><time>2026-04-18T14:26:42.999Z</time></trkpt><trkpt lat="45.07715282762962" lon="9.723149768307616"><ele>46.0</ele><time>2026-04-18T14:26:43.999Z</time></trkpt><trkpt lat="45.077367177011716" lon="9.72293813740048"><ele>46.0</ele><time>2026-04-18T14:26:44.999Z</time></trkpt><trkpt lat="45.07758320251039" lon="9.722724283494166"><ele>46.5</ele><time>2026-04-18T14:26:45.999Z</time></trkpt><trkpt lat="45.077798768569494" lon="9.72250949776934"><ele>47.0</ele><time>2026-04-18T14:26:46.999Z</time></trkpt><trkpt lat="45.07801608232609" lon="9.722291716507389"><ele>47.0</ele><time>2026-04-18T14:26:47.999Z</time></trkpt><trkpt lat="45.078233424125635" lon="9.722069673764954"><ele>47.0</ele><time>2026-04-18T14:26:48.999Z</time></trkpt><trkpt lat="45.078452941653545" lon="9.721846412191562"><ele>47.0</ele><time>2026-04-18T14:26:49.999Z</time></trkpt><trkpt lat="45.078670023133434" lon="9.721623264271404"><ele>47.0</ele><time>2026-04-18T14:26:50.999Z</time></trkpt><trkpt lat="45.078886829237554" lon="9.721397589886301"><ele>47.5</ele><time>2026-04-18T14:26:51.999Z</time></trkpt><trkpt lat="45.07910385729498" lon="9.721172368061284"><ele>48.0</ele><time>2026-04-18T14:26:52.999Z</time></trkpt><trkpt lat="45.07931890944197" lon="9.72094584010334"><ele>48.0</ele><time>2026-04-18T14:26:54Z</time></trkpt><trkpt lat="45.079534267755086" lon="9.720714883994475"><ele>48.0</ele><time>2026-04-18T14:26:55Z</time></trkpt><trkpt lat="45.07975025143451" lon="9.72048262810766"><ele>47.5</ele><time>2026-04-18T14:26:56Z</time></trkpt><trkpt lat="45.07996597046588" lon="9.720249771448623"><ele>47.0</ele><time>2026-04-18T14:26:57Z</time></trkpt><trkpt lat="45.08018377686074" lon="9.720019478239726"><ele>47.0</ele><time>2026-04-18T14:26:58Z</time></trkpt><trkpt lat="45.08040083185131" lon="9.719790871499475"><ele>47.0</ele><time>2026-04-18T14:26:59Z</time></trkpt><trkpt lat="45.08061486713335" lon="9.719561126793304"><ele>47.0</ele><time>2026-04-18T14:27:00Z</time></trkpt><trkpt lat="45.080828736147126" lon="9.719331066568635"><ele>47.0</ele><time>2026-04-18T14:27:01Z</time></trkpt><trkpt lat="45.08104224178667" lon="9.719101872810757"><ele>47.0</ele><time>2026-04-18T14:27:02Z</time></trkpt><trkpt lat="45.081255065613306" lon="9.718873304050678"><ele>47.0</ele><time>2026-04-18T14:27:03Z</time></trkpt><trkpt lat="45.08146796640143" lon="9.718645326887499"><ele>48.0</ele><time>2026-04-18T14:27:04Z</time></trkpt><trkpt lat="45.08168111075023" lon="9.718418510914306"><ele>49.0</ele><time>2026-04-18T14:27:05Z</time></trkpt><trkpt lat="45.08189333355963" lon="9.718189655518547"><ele>49.0</ele><time>2026-04-18T14:27:06Z</time></trkpt><trkpt lat="45.082102818402696" lon="9.717963807427703"><ele>49.0</ele><time>2026-04-18T14:27:07Z</time></trkpt><trkpt lat="45.08231322327011" lon="9.717739749089018"><ele>49.0</ele><time>2026-04-18T14:27:08Z</time></trkpt><trkpt lat="45.082522109279985" lon="9.717515965087102"><ele>49.0</ele><time>2026-04-18T14:27:09Z</time></trkpt><trkpt lat="45.082730685652116" lon="9.7172892031517"><ele>49.0</ele><time>2026-04-18T14:27:10Z</time></trkpt><trkpt lat="45.082937042533985" lon="9.717066354557073"><ele>49.0</ele><time>2026-04-18T14:27:11Z</time></trkpt><trkpt lat="45.083146153117944" lon="9.716840832721342"><ele>50.5</ele><time>2026-04-18T14:27:12Z</time></trkpt><trkpt lat="45.083354913187435" lon="9.716617140019126"><ele>52.0</ele><time>2026-04-18T14:27:13.001Z</time></trkpt><trkpt lat="45.083566044374535" lon="9.716390948835754"><ele>52.0</ele><time>2026-04-18T14:27:14.001Z</time></trkpt><trkpt lat="45.08377523087307" lon="9.716164984684628"><ele>52.0</ele><time>2026-04-18T14:27:15.001Z</time></trkpt><trkpt lat="45.083985163690336" lon="9.715938419759034"><ele>50.0</ele><time>2026-04-18T14:27:16.001Z</time></trkpt><trkpt lat="45.08419545457079" lon="9.715713291122615"><ele>48.0</ele><time>2026-04-18T14:27:17.001Z</time></trkpt><trkpt lat="45.08441122748821" lon="9.715481578745173"><ele>48.0</ele><time>2026-04-18T14:27:18.001Z</time></trkpt><trkpt lat="45.08462332593951" lon="9.715253430738114"><ele>48.0</ele><time>2026-04-18T14:27:19.001Z</time></trkpt><trkpt lat="45.08483832457868" lon="9.71502277359539"><ele>48.5</ele><time>2026-04-18T14:27:20.001Z</time></trkpt><trkpt lat="45.085051809237214" lon="9.71479153802638"><ele>49.0</ele><time>2026-04-18T14:27:21.001Z</time></trkpt><trkpt lat="45.085266191017965" lon="9.714560432026877"><ele>48.0</ele><time>2026-04-18T14:27:22.001Z</time></trkpt><trkpt lat="45.085480613246986" lon="9.714328319446077"><ele>47.0</ele><time>2026-04-18T14:27:23.001Z</time></trkpt><trkpt lat="45.08569735873457" lon="9.71409568932761"><ele>47.5</ele><time>2026-04-18T14:27:24.001Z</time></trkpt><trkpt lat="45.08591609178468" lon="9.713862298625054"><ele>48.0</ele><time>2026-04-18T14:27:25.001Z</time></trkpt><trkpt lat="45.08613574631704" lon="9.713627745219542"><ele>47.5</ele><time>2026-04-18T14:27:26.001Z</time></trkpt><trkpt lat="45.08635502838198" lon="9.713394180344503"><ele>47.0</ele><time>2026-04-18T14:27:27.001Z</time></trkpt><trkpt lat="45.086572318405594" lon="9.713162075271399"><ele>47.0</ele><time>2026-04-18T14:27:28.001Z</time></trkpt><trkpt lat="45.08678673532716" lon="9.712928703111427"><ele>47.0</ele><time>2026-04-18T14:27:29.001Z</time></trkpt><trkpt lat="45.08700415659983" lon="9.712693232913827"><ele>46.5</ele><time>2026-04-18T14:27:30.001Z</time></trkpt><trkpt lat="45.08721981786041" lon="9.712460996227462"><ele>46.0</ele><time>2026-04-18T14:27:31.001Z</time></trkpt><trkpt lat="45.08743395079299" lon="9.712229375015879"><ele>46.0</ele><time>2026-04-18T14:27:32.001Z</time></trkpt><trkpt lat="45.08764783334587" lon="9.711994468129985"><ele>46.0</ele><time>2026-04-18T14:27:33.001Z</time></trkpt><trkpt lat="45.08786270445361" lon="9.71176109910657"><ele>46.0</ele><time>2026-04-18T14:27:34.001Z</time></trkpt><trkpt lat="45.08807880192056" lon="9.711531202982298"><ele>46.0</ele><time>2026-04-18T14:27:35.001Z</time></trkpt><trkpt lat="45.088295030603724" lon="9.711303485783924"><ele>46.0</ele><time>2026-04-18T14:27:36.001Z</time></trkpt><trkpt lat="45.08851170977132" lon="9.711073119446471"><ele>46.0</ele><time>2026-04-18T14:27:37.001Z</time></trkpt><trkpt lat="45.08872642177029" lon="9.710846630790734"><ele>46.0</ele><time>2026-04-18T14:27:38.001Z</time></trkpt><trkpt lat="45.088938327394416" lon="9.710620872494085"><ele>46.0</ele><time>2026-04-18T14:27:39.001Z</time></trkpt><trkpt lat="45.08914943895295" lon="9.710391629870006"><ele>45.5</ele><time>2026-04-18T14:27:40.001Z</time></trkpt><trkpt lat="45.089361783629776" lon="9.710161209129996"><ele>45.0</ele><time>2026-04-18T14:27:41.002Z</time></trkpt><trkpt lat="45.08957270680649" lon="9.709932837358565"><ele>45.0</ele><time>2026-04-18T14:27:42.002Z</time></trkpt><trkpt lat="45.08978535941898" lon="9.709706989107008"><ele>45.0</ele><time>2026-04-18T14:27:43.002Z</time></trkpt><trkpt lat="45.089995432636925" lon="9.709481595634788"><ele>43.5</ele><time>2026-04-18T14:27:44.002Z</time></trkpt><trkpt lat="45.090203497851384" lon="9.709253578615117"><ele>42.0</ele><time>2026-04-18T14:27:45.002Z</time></trkpt><trkpt lat="45.09040774352424" lon="9.709025954834168"><ele>42.0</ele><time>2026-04-18T14:27:46.002Z</time></trkpt><trkpt lat="45.09061198640373" lon="9.70879754989086"><ele>42.0</ele><time>2026-04-18T14:27:47.002Z</time></trkpt><trkpt lat="45.090816851086394" lon="9.708571004616983"><ele>42.5</ele><time>2026-04-18T14:27:48.002Z</time></trkpt><trkpt lat="45.091017832072296" lon="9.708349025842463"><ele>43.0</ele><time>2026-04-18T14:27:49.002Z</time></trkpt><trkpt lat="45.091225783159665" lon="9.708124111174595"><ele>43.0</ele><time>2026-04-18T14:27:50.002Z</time></trkpt><trkpt lat="45.091436195262666" lon="9.707899144647227"><ele>43.0</ele><time>2026-04-18T14:27:51.002Z</time></trkpt><trkpt lat="45.09164689508306" lon="9.70767479551326"><ele>45.0</ele><time>2026-04-18T14:27:52.002Z</time></trkpt><trkpt lat="45.09185905282496" lon="9.707447222079608"><ele>47.0</ele><time>2026-04-18T14:27:53.002Z</time></trkpt><trkpt lat="45.092074298205084" lon="9.707219609084303"><ele>47.0</ele><time>2026-04-18T14:27:54.002Z</time></trkpt><trkpt lat="45.092281307829396" lon="9.70699213841111"><ele>47.0</ele><time>2026-04-18T14:27:55.002Z</time></trkpt><trkpt lat="45.09249518690617" lon="9.706761870920728"><ele>45.5</ele><time>2026-04-18T14:27:56.002Z</time></trkpt><trkpt lat="45.09270885609722" lon="9.7065317402505"><ele>44.0</ele><time>2026-04-18T14:27:57.002Z</time></trkpt><trkpt lat="45.092923642138295" lon="9.706301201134284"><ele>44.0</ele><time>2026-04-18T14:27:58.002Z</time></trkpt><trkpt lat="45.09313773338483" lon="9.706070488301998"><ele>44.0</ele><time>2026-04-18T14:27:59.002Z</time></trkpt><trkpt lat="45.0933540182759" lon="9.70583972230806"><ele>44.0</ele><time>2026-04-18T14:28:00.002Z</time></trkpt><trkpt lat="45.09356897781861" lon="9.705611745131138"><ele>44.0</ele><time>2026-04-18T14:28:01.002Z</time></trkpt><trkpt lat="45.093785765420854" lon="9.705381003268315"><ele>44.0</ele><time>2026-04-18T14:28:02.002Z</time></trkpt><trkpt lat="45.09400023649211" lon="9.705150426575461"><ele>44.0</ele><time>2026-04-18T14:28:03.002Z</time></trkpt><trkpt lat="45.094216740635574" lon="9.704916442041574"><ele>44.0</ele><time>2026-04-18T14:28:04.002Z</time></trkpt><trkpt lat="45.09443257768763" lon="9.704682047678775"><ele>44.0</ele><time>2026-04-18T14:28:05.002Z</time></trkpt><trkpt lat="45.09464893735592" lon="9.704450080728634"><ele>44.5</ele><time>2026-04-18T14:28:06.002Z</time></trkpt><trkpt lat="45.09486753994543" lon="9.704217075774189"><ele>45.0</ele><time>2026-04-18T14:28:07.002Z</time></trkpt><trkpt lat="45.09508433869413" lon="9.70398136732417"><ele>45.0</ele><time>2026-04-18T14:28:08.002Z</time></trkpt><trkpt lat="45.09529877607912" lon="9.703747679501395"><ele>45.0</ele><time>2026-04-18T14:28:09.002Z</time></trkpt><trkpt lat="45.095515352749736" lon="9.703511732198034"><ele>44.5</ele><time>2026-04-18T14:28:10.002Z</time></trkpt><trkpt lat="45.09573023023732" lon="9.70327929561783"><ele>44.0</ele><time>2026-04-18T14:28:11.002Z</time></trkpt><trkpt lat="45.09594795567484" lon="9.703046814547411"><ele>44.0</ele><time>2026-04-18T14:28:12.002Z</time></trkpt><trkpt lat="45.096163578023656" lon="9.702816758515338"><ele>44.0</ele><time>2026-04-18T14:28:13.002Z</time></trkpt><trkpt lat="45.09637913282695" lon="9.702584592454718"><ele>44.5</ele><time>2026-04-18T14:28:14.003Z</time></trkpt><trkpt lat="45.0965973215719" lon="9.70235298812988"><ele>45.0</ele><time>2026-04-18T14:28:15.003Z</time></trkpt><trkpt lat="45.0968095627756" lon="9.702125068254539"><ele>45.0</ele><time>2026-04-18T14:28:16.003Z</time></trkpt><trkpt lat="45.097025193276416" lon="9.701893872779529"><ele>45.0</ele><time>2026-04-18T14:28:17.003Z</time></trkpt><trkpt lat="45.097241146879156" lon="9.701661959662287"><ele>45.0</ele><time>2026-04-18T14:28:18.003Z</time></trkpt><trkpt lat="45.097455728388475" lon="9.701429656832655"><ele>45.0</ele><time>2026-04-18T14:28:19.003Z</time></trkpt><trkpt lat="45.09767039770325" lon="9.701196065714175"><ele>44.0</ele><time>2026-04-18T14:28:20.003Z</time></trkpt><trkpt lat="45.097885462070856" lon="9.700961479440274"><ele>43.0</ele><time>2026-04-18T14:28:21.003Z</time></trkpt><trkpt lat="45.09810050229354" lon="9.700726713968118"><ele>43.0</ele><time>2026-04-18T14:28:22.003Z</time></trkpt><trkpt lat="45.098316991055995" lon="9.700490242394851"><ele>43.0</ele><time>2026-04-18T14:28:23.003Z</time></trkpt><trkpt lat="45.09853188618747" lon="9.700258745443334"><ele>43.0</ele><time>2026-04-18T14:28:24.003Z</time></trkpt><trkpt lat="45.09874851236684" lon="9.700024364940347"><ele>43.0</ele><time>2026-04-18T14:28:25.003Z</time></trkpt><trkpt lat="45.09896396218098" lon="9.69979210389868"><ele>43.0</ele><time>2026-04-18T14:28:26.003Z</time></trkpt><trkpt lat="45.09917898404383" lon="9.699558641895182"><ele>43.0</ele><time>2026-04-18T14:28:27.003Z</time></trkpt><trkpt lat="45.09939248890745" lon="9.699325781042445"><ele>44.0</ele><time>2026-04-18T14:28:28.003Z</time></trkpt><trkpt lat="45.09960408331594" lon="9.699093268562367"><ele>45.0</ele><time>2026-04-18T14:28:29.003Z</time></trkpt><trkpt lat="45.099813520507425" lon="9.698861512513352"><ele>44.5</ele><time>2026-04-18T14:28:30.003Z</time></trkpt><trkpt lat="45.10002643640357" lon="9.698628769064497"><ele>44.0</ele><time>2026-04-18T14:28:31.003Z</time></trkpt><trkpt lat="45.10024118472311" lon="9.69839503874101"><ele>46.0</ele><time>2026-04-18T14:28:32.003Z</time></trkpt><trkpt lat="45.100455056910334" lon="9.698162136504136"><ele>48.0</ele><time>2026-04-18T14:28:33.003Z</time></trkpt><trkpt lat="45.100670459330786" lon="9.697928768082424"><ele>47.0</ele><time>2026-04-18T14:28:34.003Z</time></trkpt><trkpt lat="45.10088100657319" lon="9.69769270418479"><ele>46.0</ele><time>2026-04-18T14:28:35.003Z</time></trkpt><trkpt lat="45.10109412603524" lon="9.697454036954507"><ele>46.0</ele><time>2026-04-18T14:28:36.003Z</time></trkpt><trkpt lat="45.101309239419706" lon="9.697217157124426"><ele>46.0</ele><time>2026-04-18T14:28:37.003Z</time></trkpt><trkpt lat="45.101524687074324" lon="9.696984868819973"><ele>45.0</ele><time>2026-04-18T14:28:38.003Z</time></trkpt><trkpt lat="45.10174418110057" lon="9.696748298198628"><ele>44.0</ele><time>2026-04-18T14:28:39.003Z</time></trkpt><trkpt lat="45.10196576962465" lon="9.696510208526677"><ele>44.0</ele><time>2026-04-18T14:28:40.003Z</time></trkpt><trkpt lat="45.10218690583731" lon="9.696274233049166"><ele>44.0</ele><time>2026-04-18T14:28:41.003Z</time></trkpt><trkpt lat="45.10240697092568" lon="9.696039710055686"><ele>44.5</ele><time>2026-04-18T14:28:41.999Z</time></trkpt><trkpt lat="45.102630360356805" lon="9.695804793800514"><ele>45.0</ele><time>2026-04-18T14:28:42.999Z</time></trkpt><trkpt lat="45.102851251381516" lon="9.695571100610861"><ele>45.0</ele><time>2026-04-18T14:28:43.999Z</time></trkpt><trkpt lat="45.10307507148668" lon="9.695337946301306"><ele>45.0</ele><time>2026-04-18T14:28:44.999Z</time></trkpt><trkpt lat="45.10329867113333" lon="9.695107759654261"><ele>45.0</ele><time>2026-04-18T14:28:45.999Z</time></trkpt><trkpt lat="45.10352470090645" lon="9.694875541936803"><ele>45.0</ele><time>2026-04-18T14:28:46.999Z</time></trkpt><trkpt lat="45.103747055156866" lon="9.694644322361608"><ele>45.5</ele><time>2026-04-18T14:28:47.999Z</time></trkpt><trkpt lat="45.10396525490757" lon="9.694411409349096"><ele>46.0</ele><time>2026-04-18T14:28:48.999Z</time></trkpt><trkpt lat="45.10418000479349" lon="9.694179879182782"><ele>46.0</ele><time>2026-04-18T14:28:50Z</time></trkpt><trkpt lat="45.10439829195134" lon="9.693945209346266"><ele>46.0</ele><time>2026-04-18T14:28:51Z</time></trkpt><trkpt lat="45.10461451387664" lon="9.693711427201228"><ele>45.5</ele><time>2026-04-18T14:28:52Z</time></trkpt><trkpt lat="45.10483207530381" lon="9.693480313870841"><ele>45.0</ele><time>2026-04-18T14:28:53Z</time></trkpt><trkpt lat="45.105046795007794" lon="9.693252680142837"><ele>45.0</ele><time>2026-04-18T14:28:54Z</time></trkpt><trkpt lat="45.10526175521404" lon="9.693025129026116"><ele>45.0</ele><time>2026-04-18T14:28:55Z</time></trkpt><trkpt lat="45.10547566992982" lon="9.69279667369634"><ele>45.0</ele><time>2026-04-18T14:28:56Z</time></trkpt><trkpt lat="45.10569083464663" lon="9.69256617103983"><ele>45.0</ele><time>2026-04-18T14:28:57Z</time></trkpt><trkpt lat="45.105903796972235" lon="9.69233815682617"><ele>46.5</ele><time>2026-04-18T14:28:58Z</time></trkpt><trkpt lat="45.106116832116854" lon="9.69211023092927"><ele>48.0</ele><time>2026-04-18T14:28:59Z</time></trkpt><trkpt lat="45.106328355353746" lon="9.691882206014169"><ele>48.0</ele><time>2026-04-18T14:29:00Z</time></trkpt><trkpt lat="45.10654293810926" lon="9.691657625513326"><ele>48.0</ele><time>2026-04-18T14:29:01Z</time></trkpt><trkpt lat="45.106749541220886" lon="9.691428449022997"><ele>48.0</ele><time>2026-04-18T14:29:02Z</time></trkpt><trkpt lat="45.10695735982855" lon="9.691201405293317"><ele>48.0</ele><time>2026-04-18T14:29:03Z</time></trkpt><trkpt lat="45.10716380395758" lon="9.690974680658435"><ele>47.0</ele><time>2026-04-18T14:29:04Z</time></trkpt><trkpt lat="45.10737258007065" lon="9.690747101103351"><ele>46.0</ele><time>2026-04-18T14:29:05Z</time></trkpt><trkpt lat="45.10758189421634" lon="9.6905188572158"><ele>46.0</ele><time>2026-04-18T14:29:06Z</time></trkpt><trkpt lat="45.10778819170134" lon="9.690296416430643"><ele>46.0</ele><time>2026-04-18T14:29:07Z</time></trkpt><trkpt lat="45.107997751178814" lon="9.690071071043821"><ele>46.5</ele><time>2026-04-18T14:29:08Z</time></trkpt><trkpt lat="45.10820664711982" lon="9.689844973055207"><ele>47.0</ele><time>2026-04-18T14:29:09Z</time></trkpt><trkpt lat="45.10841538388141" lon="9.689614881825776"><ele>47.5</ele><time>2026-04-18T14:29:10Z</time></trkpt><trkpt lat="45.108623731259804" lon="9.689378026677936"><ele>48.0</ele><time>2026-04-18T14:29:11Z</time></trkpt><trkpt lat="45.108825190410805" lon="9.689141095851765"><ele>48.0</ele><time>2026-04-18T14:29:12Z</time></trkpt><trkpt lat="45.10903468618031" lon="9.688905473834867"><ele>48.0</ele><time>2026-04-18T14:29:13Z</time></trkpt><trkpt lat="45.109244896217994" lon="9.688672651049949"><ele>47.0</ele><time>2026-04-18T14:29:14Z</time></trkpt><trkpt lat="45.10945185164619" lon="9.688436226577203"><ele>46.0</ele><time>2026-04-18T14:29:15Z</time></trkpt><trkpt lat="45.10965518372079" lon="9.688196423397565"><ele>46.0</ele><time>2026-04-18T14:29:16.001Z</time></trkpt><trkpt lat="45.109859919217726" lon="9.687947692267565"><ele>46.0</ele><time>2026-04-18T14:29:17.001Z</time></trkpt><trkpt lat="45.110060930696264" lon="9.687700248312343"><ele>46.5</ele><time>2026-04-18T14:29:18.001Z</time></trkpt><trkpt lat="45.1102608339328" lon="9.687453344854038"><ele>47.0</ele><time>2026-04-18T14:29:19.001Z</time></trkpt><trkpt lat="45.11046223915084" lon="9.68720561267916"><ele>47.0</ele><time>2026-04-18T14:29:20.001Z</time></trkpt><trkpt lat="45.110661908154164" lon="9.686957661705712"><ele>47.0</ele><time>2026-04-18T14:29:21.001Z</time></trkpt><trkpt lat="45.11085838439659" lon="9.686708271577706"><ele>47.0</ele><time>2026-04-18T14:29:22.001Z</time></trkpt><trkpt lat="45.111052218279355" lon="9.686457363031973"><ele>47.0</ele><time>2026-04-18T14:29:23.001Z</time></trkpt><trkpt lat="45.11125121292196" lon="9.686199721025414"><ele>47.5</ele><time>2026-04-18T14:29:24.001Z</time></trkpt><trkpt lat="45.11143419928229" lon="9.685949518945247"><ele>48.0</ele><time>2026-04-18T14:29:25.001Z</time></trkpt><trkpt lat="45.111620991477224" lon="9.685703333973345"><ele>47.0</ele><time>2026-04-18T14:29:26.001Z</time></trkpt><trkpt lat="45.11180712208063" lon="9.68545700926691"><ele>46.0</ele><time>2026-04-18T14:29:27.001Z</time></trkpt><trkpt lat="45.1119983640533" lon="9.685193475944637"><ele>46.0</ele><time>2026-04-18T14:29:28.001Z</time></trkpt><trkpt lat="45.112186154123606" lon="9.684936755110389"><ele>46.0</ele><time>2026-04-18T14:29:29.001Z</time></trkpt><trkpt lat="45.112371871851046" lon="9.68468106334132"><ele>45.5</ele><time>2026-04-18T14:29:30.001Z</time></trkpt><trkpt lat="45.11255786634386" lon="9.684422057594364"><ele>45.0</ele><time>2026-04-18T14:29:31.001Z</time></trkpt><trkpt lat="45.11274231878613" lon="9.684163089086123"><ele>45.0</ele><time>2026-04-18T14:29:32.001Z</time></trkpt><trkpt lat="45.11292336945482" lon="9.683899239016295"><ele>45.0</ele><time>2026-04-18T14:29:33.001Z</time></trkpt><trkpt lat="45.113097613742916" lon="9.683644682527126"><ele>44.0</ele><time>2026-04-18T14:29:34.001Z</time></trkpt><trkpt lat="45.1132752708915" lon="9.683387954265676"><ele>43.0</ele><time>2026-04-18T14:29:35.001Z</time></trkpt><trkpt lat="45.11345523620776" lon="9.683129212969947"><ele>43.0</ele><time>2026-04-18T14:29:36.001Z</time></trkpt><trkpt lat="45.11363494755225" lon="9.682870665165865"><ele>43.0</ele><time>2026-04-18T14:29:37.001Z</time></trkpt><trkpt lat="45.113814226899905" lon="9.68261399603029"><ele>43.0</ele><time>2026-04-18T14:29:38.001Z</time></trkpt><trkpt lat="45.11399007029051" lon="9.682359872090435"><ele>43.0</ele><time>2026-04-18T14:29:39.001Z</time></trkpt><trkpt lat="45.11416665584668" lon="9.682105463956555"><ele>43.0</ele><time>2026-04-18T14:29:40.001Z</time></trkpt><trkpt lat="45.11434420400658" lon="9.681851169087514"><ele>43.0</ele><time>2026-04-18T14:29:41.001Z</time></trkpt><trkpt lat="45.11452155775871" lon="9.681595587389296"><ele>43.0</ele><time>2026-04-18T14:29:42.001Z</time></trkpt><trkpt lat="45.114698385737256" lon="9.68133844998769"><ele>43.0</ele><time>2026-04-18T14:29:43.001Z</time></trkpt><trkpt lat="45.114875693684226" lon="9.68108573262215"><ele>44.0</ele><time>2026-04-18T14:29:44.001Z</time></trkpt><trkpt lat="45.11505359256473" lon="9.68083121594645"><ele>45.0</ele><time>2026-04-18T14:29:45.001Z</time></trkpt><trkpt lat="45.11522982672686" lon="9.68057753899127"><ele>45.0</ele><time>2026-04-18T14:29:46.002Z</time></trkpt><trkpt lat="45.11540862732857" lon="9.680323183241246"><ele>45.0</ele><time>2026-04-18T14:29:47.002Z</time></trkpt><trkpt lat="45.11558496442088" lon="9.680069648294332"><ele>44.5</ele><time>2026-04-18T14:29:48.002Z</time></trkpt><trkpt lat="45.11576348226703" lon="9.679812906133412"><ele>44.0</ele><time>2026-04-18T14:29:49.002Z</time></trkpt><trkpt lat="45.11594078468119" lon="9.679559716842645"><ele>44.5</ele><time>2026-04-18T14:29:50.002Z</time></trkpt><trkpt lat="45.116117566677026" lon="9.679306152261482"><ele>45.0</ele><time>2026-04-18T14:29:51.002Z</time></trkpt><trkpt lat="45.11629428131587" lon="9.679050162246186"><ele>45.0</ele><time>2026-04-18T14:29:52.002Z</time></trkpt><trkpt lat="45.116471803928775" lon="9.678790997404603"><ele>45.0</ele><time>2026-04-18T14:29:53.002Z</time></trkpt><trkpt lat="45.11665243201231" lon="9.678525923188854"><ele>44.5</ele><time>2026-04-18T14:29:54.002Z</time></trkpt><trkpt lat="45.116834601996906" lon="9.678270599255825"><ele>44.0</ele><time>2026-04-18T14:29:55.002Z</time></trkpt><trkpt lat="45.117019068807" lon="9.678007642354661"><ele>44.0</ele><time>2026-04-18T14:29:56.002Z</time></trkpt><trkpt lat="45.11719902178222" lon="9.677748737369603"><ele>44.0</ele><time>2026-04-18T14:29:57.002Z</time></trkpt><trkpt lat="45.117381809850386" lon="9.677483092832933"><ele>44.0</ele><time>2026-04-18T14:29:58.002Z</time></trkpt><trkpt lat="45.11756285441409" lon="9.67722226107191"><ele>44.0</ele><time>2026-04-18T14:29:59.002Z</time></trkpt><trkpt lat="45.11774674419638" lon="9.676956582726365"><ele>45.5</ele><time>2026-04-18T14:30:00.002Z</time></trkpt><trkpt lat="45.11793118502498" lon="9.676691072403644"><ele>47.0</ele><time>2026-04-18T14:30:01.002Z</time></trkpt><trkpt lat="45.118114709669754" lon="9.676429182677918"><ele>46.5</ele><time>2026-04-18T14:30:02.002Z</time></trkpt><trkpt lat="45.1183009025942" lon="9.676160283121382"><ele>46.0</ele><time>2026-04-18T14:30:03.002Z</time></trkpt><trkpt lat="45.11848442906227" lon="9.675893516471955"><ele>45.5</ele><time>2026-04-18T14:30:04.002Z</time></trkpt><trkpt lat="45.11866794398931" lon="9.675625599968953"><ele>45.0</ele><time>2026-04-18T14:30:05.002Z</time></trkpt><trkpt lat="45.11885033101991" lon="9.675362933158718"><ele>45.0</ele><time>2026-04-18T14:30:06.002Z</time></trkpt><trkpt lat="45.119033227123765" lon="9.675100912459428"><ele>45.0</ele><time>2026-04-18T14:30:07.002Z</time></trkpt><trkpt lat="45.11921663162957" lon="9.674836723144274"><ele>44.5</ele><time>2026-04-18T14:30:08.002Z</time></trkpt><trkpt lat="45.11940166055746" lon="9.674574671803631"><ele>44.0</ele><time>2026-04-18T14:30:09.002Z</time></trkpt><trkpt lat="45.11958768112696" lon="9.674314919344638"><ele>44.0</ele><time>2026-04-18T14:30:10.002Z</time></trkpt><trkpt lat="45.119774968748224" lon="9.67405262491659"><ele>44.0</ele><time>2026-04-18T14:30:11.002Z</time></trkpt><trkpt lat="45.11995962722307" lon="9.673789781646011"><ele>45.5</ele><time>2026-04-18T14:30:12.002Z</time></trkpt><trkpt lat="45.120143838538795" lon="9.673524672969108"><ele>47.0</ele><time>2026-04-18T14:30:13.002Z</time></trkpt><trkpt lat="45.120328270864015" lon="9.673255986770092"><ele>47.0</ele><time>2026-04-18T14:30:14.002Z</time></trkpt><trkpt lat="45.12051078389138" lon="9.672991638193617"><ele>47.0</ele><time>2026-04-18T14:30:15.002Z</time></trkpt><trkpt lat="45.120685239759105" lon="9.672740184136337"><ele>46.5</ele><time>2026-04-18T14:30:16.002Z</time></trkpt><trkpt lat="45.120875987634335" lon="9.67246828515179"><ele>46.0</ele><time>2026-04-18T14:30:17.002Z</time></trkpt><trkpt lat="45.12105961385355" lon="9.67220483152939"><ele>46.0</ele><time>2026-04-18T14:30:18.002Z</time></trkpt><trkpt lat="45.121243639835534" lon="9.671943828037184"><ele>46.0</ele><time>2026-04-18T14:30:19.003Z</time></trkpt><trkpt lat="45.12142544624243" lon="9.67168092429155"><ele>44.5</ele><time>2026-04-18T14:30:20.003Z</time></trkpt><trkpt lat="45.12160903169017" lon="9.671418318831927"><ele>43.0</ele><time>2026-04-18T14:30:21.003Z</time></trkpt><trkpt lat="45.12178799236558" lon="9.671161544614161"><ele>44.0</ele><time>2026-04-18T14:30:22.003Z</time></trkpt><trkpt lat="45.121972614534585" lon="9.670894572346661"><ele>45.0</ele><time>2026-04-18T14:30:23.003Z</time></trkpt><trkpt lat="45.12215616280015" lon="9.670631581546262"><ele>45.0</ele><time>2026-04-18T14:30:24.003Z</time></trkpt><trkpt lat="45.122340383344174" lon="9.670364441876762"><ele>45.0</ele><time>2026-04-18T14:30:25.003Z</time></trkpt><trkpt lat="45.122525129469444" lon="9.670100384508574"><ele>44.5</ele><time>2026-04-18T14:30:26.003Z</time></trkpt><trkpt lat="45.122711550665045" lon="9.669830939008074"><ele>44.0</ele><time>2026-04-18T14:30:27.003Z</time></trkpt><trkpt lat="45.122896682660894" lon="9.669561062385586"><ele>44.0</ele><time>2026-04-18T14:30:28.003Z</time></trkpt><trkpt lat="45.12308218612861" lon="9.669293193613091"><ele>44.0</ele><time>2026-04-18T14:30:29.003Z</time></trkpt><trkpt lat="45.12326675721633" lon="9.669026957960563"><ele>44.5</ele><time>2026-04-18T14:30:30.003Z</time></trkpt><trkpt lat="45.12345236820216" lon="9.668757802795588"><ele>45.0</ele><time>2026-04-18T14:30:31.003Z</time></trkpt><trkpt lat="45.12363827286082" lon="9.668493085787683"><ele>45.0</ele><time>2026-04-18T14:30:32.003Z</time></trkpt><trkpt lat="45.12382631591895" lon="9.668221948107371"><ele>45.0</ele><time>2026-04-18T14:30:33.003Z</time></trkpt><trkpt lat="45.12401082987579" lon="9.667958792790149"><ele>44.5</ele><time>2026-04-18T14:30:34.003Z</time></trkpt><trkpt lat="45.12419915058166" lon="9.667688843852154"><ele>44.0</ele><time>2026-04-18T14:30:35.003Z</time></trkpt><trkpt lat="45.12438388972172" lon="9.667426475152476"><ele>44.0</ele><time>2026-04-18T14:30:36.003Z</time></trkpt><trkpt lat="45.12456882140191" lon="9.667159912473664"><ele>44.0</ele><time>2026-04-18T14:30:37.003Z</time></trkpt><trkpt lat="45.12475338525885" lon="9.666894823360531"><ele>45.0</ele><time>2026-04-18T14:30:38.003Z</time></trkpt><trkpt lat="45.12493712134885" lon="9.666627283537236"><ele>46.0</ele><time>2026-04-18T14:30:39.003Z</time></trkpt><trkpt lat="45.12511932475917" lon="9.666357026798032"><ele>46.5</ele><time>2026-04-18T14:30:40.003Z</time></trkpt><trkpt lat="45.12530082575168" lon="9.666090636579773"><ele>47.0</ele><time>2026-04-18T14:30:41.003Z</time></trkpt><trkpt lat="45.1254847901255" lon="9.665821205901324"><ele>47.0</ele><time>2026-04-18T14:30:42.003Z</time></trkpt><trkpt lat="45.12566793370394" lon="9.665554599581185"><ele>47.0</ele><time>2026-04-18T14:30:43.003Z</time></trkpt><trkpt lat="45.12585083705056" lon="9.665282973470548"><ele>47.0</ele><time>2026-04-18T14:30:44.003Z</time></trkpt><trkpt lat="45.126032446920696" lon="9.665010134925772"><ele>47.0</ele><time>2026-04-18T14:30:45.003Z</time></trkpt><trkpt lat="45.12621393522646" lon="9.66473504753464"><ele>47.0</ele><time>2026-04-18T14:30:46.003Z</time></trkpt><trkpt lat="45.12639460190052" lon="9.664456852574093"><ele>47.0</ele><time>2026-04-18T14:30:47.003Z</time></trkpt><trkpt lat="45.12657065331312" lon="9.664180753283675"><ele>47.0</ele><time>2026-04-18T14:30:47.999Z</time></trkpt><trkpt lat="45.12674730561839" lon="9.66389659888728"><ele>47.0</ele><time>2026-04-18T14:30:48.999Z</time></trkpt><trkpt lat="45.12692070932602" lon="9.663613186743293"><ele>47.0</ele><time>2026-04-18T14:30:49.999Z</time></trkpt><trkpt lat="45.127093242755784" lon="9.663331885726473"><ele>47.0</ele><time>2026-04-18T14:30:50.999Z</time></trkpt><trkpt lat="45.127264639580446" lon="9.663052313252546"><ele>47.5</ele><time>2026-04-18T14:30:51.999Z</time></trkpt><trkpt lat="45.12743789976871" lon="9.662768223260239"><ele>48.0</ele><time>2026-04-18T14:30:52.999Z</time></trkpt><trkpt lat="45.12760829093473" lon="9.66248434909474"><ele>48.0</ele><time>2026-04-18T14:30:53.999Z</time></trkpt><trkpt lat="45.127776099247235" lon="9.662196452249809"><ele>48.0</ele><time>2026-04-18T14:30:54.999Z</time></trkpt><trkpt lat="45.127943364104745" lon="9.66191307421594"><ele>47.5</ele><time>2026-04-18T14:30:55.999Z</time></trkpt><trkpt lat="45.12810361877409" lon="9.661624664893171"><ele>47.0</ele><time>2026-04-18T14:30:56.999Z</time></trkpt><trkpt lat="45.12826363088776" lon="9.66133893339574"><ele>47.5</ele><time>2026-04-18T14:30:58Z</time></trkpt><trkpt lat="45.12842385636993" lon="9.661047284046704"><ele>48.0</ele><time>2026-04-18T14:30:59Z</time></trkpt><trkpt lat="45.12858341458893" lon="9.660762041659996"><ele>48.0</ele><time>2026-04-18T14:31:00Z</time></trkpt><trkpt lat="45.12874238789253" lon="9.66047067289603"><ele>48.0</ele><time>2026-04-18T14:31:01Z</time></trkpt><trkpt lat="45.12889791655166" lon="9.660181198823755"><ele>47.0</ele><time>2026-04-18T14:31:02Z</time></trkpt><trkpt lat="45.12905012697755" lon="9.659898617567803"><ele>46.0</ele><time>2026-04-18T14:31:03Z</time></trkpt><trkpt lat="45.129203684225054" lon="9.659607134586746"><ele>46.5</ele><time>2026-04-18T14:31:04Z</time></trkpt><trkpt lat="45.12935723806585" lon="9.659312775723832"><ele>47.0</ele><time>2026-04-18T14:31:05Z</time></trkpt><trkpt lat="45.129508389917625" lon="9.65902301826217"><ele>47.0</ele><time>2026-04-18T14:31:06Z</time></trkpt><trkpt lat="45.12965974743374" lon="9.658728681781328"><ele>47.0</ele><time>2026-04-18T14:31:07Z</time></trkpt><trkpt lat="45.12980935119446" lon="9.658435193882076"><ele>48.5</ele><time>2026-04-18T14:31:08Z</time></trkpt><trkpt lat="45.1299620339309" lon="9.658138154044583"><ele>50.0</ele><time>2026-04-18T14:31:09Z</time></trkpt><trkpt lat="45.13011243145971" lon="9.657846378269241"><ele>50.0</ele><time>2026-04-18T14:31:10Z</time></trkpt><trkpt lat="45.13026305989505" lon="9.657551962686476"><ele>50.0</ele><time>2026-04-18T14:31:11Z</time></trkpt><trkpt lat="45.13041363241687" lon="9.65725830388817"><ele>50.0</ele><time>2026-04-18T14:31:12Z</time></trkpt><trkpt lat="45.1305618862061" lon="9.656968521606393"><ele>50.0</ele><time>2026-04-18T14:31:13Z</time></trkpt><trkpt lat="45.130710638699554" lon="9.65667924645082"><ele>48.5</ele><time>2026-04-18T14:31:14Z</time></trkpt><trkpt lat="45.13085875998468" lon="9.656391663538239"><ele>47.0</ele><time>2026-04-18T14:31:15Z</time></trkpt><trkpt lat="45.131004808779004" lon="9.656107470099174"><ele>47.0</ele><time>2026-04-18T14:31:16Z</time></trkpt><trkpt lat="45.131153193989306" lon="9.655818229133642"><ele>47.0</ele><time>2026-04-18T14:31:17Z</time></trkpt><trkpt lat="45.131300238557486" lon="9.655531136682754"><ele>47.0</ele><time>2026-04-18T14:31:18Z</time></trkpt><trkpt lat="45.131444886410364" lon="9.655246387658401"><ele>47.0</ele><time>2026-04-18T14:31:19Z</time></trkpt><trkpt lat="45.13158934779603" lon="9.654960061384323"><ele>47.0</ele><time>2026-04-18T14:31:20Z</time></trkpt><trkpt lat="45.13173436612254" lon="9.654676988735467"><ele>47.0</ele><time>2026-04-18T14:31:21Z</time></trkpt><trkpt lat="45.13187905149075" lon="9.654394653252648"><ele>47.5</ele><time>2026-04-18T14:31:22Z</time></trkpt><trkpt lat="45.13202449370319" lon="9.654106339732493"><ele>48.0</ele><time>2026-04-18T14:31:23Z</time></trkpt><trkpt lat="45.13216956121102" lon="9.653820895972274"><ele>48.0</ele><time>2026-04-18T14:31:24.001Z</time></trkpt><trkpt lat="45.13231335857299" lon="9.653539432394348"><ele>48.0</ele><time>2026-04-18T14:31:25.001Z</time></trkpt><trkpt lat="45.132459517149016" lon="9.653255279052072"><ele>48.0</ele><time>2026-04-18T14:31:26.001Z</time></trkpt><trkpt lat="45.1326043877977" lon="9.652978599189122"><ele>48.0</ele><time>2026-04-18T14:31:27.001Z</time></trkpt><trkpt lat="45.132749510268894" lon="9.652699107157662"><ele>48.0</ele><time>2026-04-18T14:31:28.001Z</time></trkpt><trkpt lat="45.13289434226332" lon="9.652418957822277"><ele>48.0</ele><time>2026-04-18T14:31:29.001Z</time></trkpt><trkpt lat="45.13304006524292" lon="9.652140992759659"><ele>47.5</ele><time>2026-04-18T14:31:30.001Z</time></trkpt><trkpt lat="45.13318350024426" lon="9.651863342393979"><ele>47.0</ele><time>2026-04-18T14:31:31.001Z</time></trkpt><trkpt lat="45.13332621171555" lon="9.651584731736508"><ele>47.0</ele><time>2026-04-18T14:31:32.001Z</time></trkpt><trkpt lat="45.13346928647776" lon="9.651307009125855"><ele>47.0</ele><time>2026-04-18T14:31:33.001Z</time></trkpt><trkpt lat="45.13361313090877" lon="9.651029705515517"><ele>46.5</ele><time>2026-04-18T14:31:34.001Z</time></trkpt><trkpt lat="45.13375598471098" lon="9.650753078878338"><ele>46.0</ele><time>2026-04-18T14:31:35.001Z</time></trkpt><trkpt lat="45.13389990498998" lon="9.650469075750358"><ele>46.5</ele><time>2026-04-18T14:31:36.001Z</time></trkpt><trkpt lat="45.13404384974362" lon="9.65018646858333"><ele>47.0</ele><time>2026-04-18T14:31:37.001Z</time></trkpt><trkpt lat="45.13418780383859" lon="9.64990440011032"><ele>47.0</ele><time>2026-04-18T14:31:38.001Z</time></trkpt><trkpt lat="45.13433086042958" lon="9.649622735431024"><ele>47.0</ele><time>2026-04-18T14:31:39.001Z</time></trkpt><trkpt lat="45.13447440720235" lon="9.649337446224846"><ele>46.5</ele><time>2026-04-18T14:31:40.001Z</time></trkpt><trkpt lat="45.13462028364022" lon="9.649053965871799"><ele>46.0</ele><time>2026-04-18T14:31:41.001Z</time></trkpt><trkpt lat="45.13476491934184" lon="9.648768536454215"><ele>46.5</ele><time>2026-04-18T14:31:42.001Z</time></trkpt><trkpt lat="45.13490975782384" lon="9.648488072650151"><ele>47.0</ele><time>2026-04-18T14:31:43.001Z</time></trkpt><trkpt lat="45.13505474007045" lon="9.648205933136685"><ele>47.0</ele><time>2026-04-18T14:31:44.001Z</time></trkpt><trkpt lat="45.13520030868947" lon="9.64792339632135"><ele>47.0</ele><time>2026-04-18T14:31:45.001Z</time></trkpt><trkpt lat="45.135344378758106" lon="9.647647417370028"><ele>47.5</ele><time>2026-04-18T14:31:46.001Z</time></trkpt><trkpt lat="45.13548888998184" lon="9.64736492451141"><ele>48.0</ele><time>2026-04-18T14:31:47.001Z</time></trkpt><trkpt lat="45.135632734736305" lon="9.647085185114117"><ele>47.0</ele><time>2026-04-18T14:31:48.001Z</time></trkpt><trkpt lat="45.13577682862298" lon="9.646806236089223"><ele>46.0</ele><time>2026-04-18T14:31:49.001Z</time></trkpt><trkpt lat="45.13591914759165" lon="9.646524798188675"><ele>46.0</ele><time>2026-04-18T14:31:50.001Z</time></trkpt><trkpt lat="45.13606277422881" lon="9.64624609478252"><ele>46.0</ele><time>2026-04-18T14:31:51.001Z</time></trkpt><trkpt lat="45.136206018943554" lon="9.645964727580068"><ele>46.0</ele><time>2026-04-18T14:31:52.001Z</time></trkpt><trkpt lat="45.13635044661385" lon="9.64568578099338"><ele>46.0</ele><time>2026-04-18T14:31:53.001Z</time></trkpt><trkpt lat="45.13649423755085" lon="9.645401063727524"><ele>47.0</ele><time>2026-04-18T14:31:54.001Z</time></trkpt><trkpt lat="45.13663856357443" lon="9.645119448390298"><ele>48.0</ele><time>2026-04-18T14:31:55.002Z</time></trkpt><trkpt lat="45.136783014063" lon="9.644836606999947"><ele>48.0</ele><time>2026-04-18T14:31:56.002Z</time></trkpt><trkpt lat="45.13692838164735" lon="9.64454945950507"><ele>48.0</ele><time>2026-04-18T14:31:57.002Z</time></trkpt><trkpt lat="45.137073503464116" lon="9.644271712291852"><ele>48.0</ele><time>2026-04-18T14:31:58.002Z</time></trkpt><trkpt lat="45.13721815233512" lon="9.643991069964256"><ele>48.0</ele><time>2026-04-18T14:31:59.002Z</time></trkpt><trkpt lat="45.13736258919563" lon="9.64370631481206"><ele>48.0</ele><time>2026-04-18T14:32:00.002Z</time></trkpt><trkpt lat="45.137507523689" lon="9.64342398494579"><ele>48.0</ele><time>2026-04-18T14:32:01.002Z</time></trkpt><trkpt lat="45.13765232607845" lon="9.64313951969104"><ele>48.0</ele><time>2026-04-18T14:32:02.002Z</time></trkpt><trkpt lat="45.137796293815406" lon="9.64285590632223"><ele>48.0</ele><time>2026-04-18T14:32:03.002Z</time></trkpt><trkpt lat="45.1379412827661" lon="9.642573727297776"><ele>49.0</ele><time>2026-04-18T14:32:04.002Z</time></trkpt><trkpt lat="45.13809961459892" lon="9.642285848035298"><ele>50.0</ele><time>2026-04-18T14:32:05.002Z</time></trkpt><trkpt lat="45.13837876041553" lon="9.641718702150515"><ele>50.0</ele><time>2026-04-18T14:32:07.002Z</time></trkpt><trkpt lat="45.13852171694672" lon="9.641440688102996"><ele>50.0</ele><time>2026-04-18T14:32:08.002Z</time></trkpt><trkpt lat="45.13866627363272" lon="9.64115870360233"><ele>49.0</ele><time>2026-04-18T14:32:09.002Z</time></trkpt><trkpt lat="45.13894442714141" lon="9.64061416261121"><ele>49.0</ele><time>2026-04-18T14:32:11.002Z</time></trkpt><trkpt lat="45.13908187589852" lon="9.640337329509391"><ele>49.0</ele><time>2026-04-18T14:32:12.002Z</time></trkpt><trkpt lat="45.1392226888975" lon="9.64006594299195"><ele>49.0</ele><time>2026-04-18T14:32:13.002Z</time></trkpt><trkpt lat="45.13936654356457" lon="9.63979117822049"><ele>49.0</ele><time>2026-04-18T14:32:14.002Z</time></trkpt><trkpt lat="45.13951104501564" lon="9.63951033760942"><ele>48.5</ele><time>2026-04-18T14:32:15.002Z</time></trkpt><trkpt lat="45.13965482935238" lon="9.639233148711684"><ele>48.0</ele><time>2026-04-18T14:32:16.002Z</time></trkpt><trkpt lat="45.13979782386422" lon="9.638951767952022"><ele>48.0</ele><time>2026-04-18T14:32:17.002Z</time></trkpt><trkpt lat="45.1399414163537" lon="9.63866967014969"><ele>48.0</ele><time>2026-04-18T14:32:18.002Z</time></trkpt><trkpt lat="45.14008526257903" lon="9.63838505048728"><ele>48.5</ele><time>2026-04-18T14:32:19.002Z</time></trkpt><trkpt lat="45.14023289125667" lon="9.638102766913667"><ele>49.0</ele><time>2026-04-18T14:32:20.002Z</time></trkpt><trkpt lat="45.14038122821772" lon="9.637819798838883"><ele>48.5</ele><time>2026-04-18T14:32:21.002Z</time></trkpt><trkpt lat="45.140530558998286" lon="9.637532132214677"><ele>48.0</ele><time>2026-04-18T14:32:22.002Z</time></trkpt><trkpt lat="45.14068226434751" lon="9.637242559013407"><ele>48.0</ele><time>2026-04-18T14:32:23.002Z</time></trkpt><trkpt lat="45.14083900595471" lon="9.636954386952109"><ele>48.0</ele><time>2026-04-18T14:32:24.002Z</time></trkpt><trkpt lat="45.14099878216817" lon="9.636671111335747"><ele>48.0</ele><time>2026-04-18T14:32:25.002Z</time></trkpt><trkpt lat="45.14116349949912" lon="9.636388978304838"><ele>48.0</ele><time>2026-04-18T14:32:26.002Z</time></trkpt><trkpt lat="45.14133120556776" lon="9.63611071230937"><ele>48.0</ele><time>2026-04-18T14:32:27.002Z</time></trkpt><trkpt lat="45.14150385061575" lon="9.635835208991743"><ele>48.0</ele><time>2026-04-18T14:32:28.003Z</time></trkpt><trkpt lat="45.14168011671048" lon="9.635565925526771"><ele>49.5</ele><time>2026-04-18T14:32:29.003Z</time></trkpt><trkpt lat="45.14185879408452" lon="9.635300649765998"><ele>51.0</ele><time>2026-04-18T14:32:30.003Z</time></trkpt><trkpt lat="45.142039173674526" lon="9.635035000246754"><ele>51.0</ele><time>2026-04-18T14:32:31.003Z</time></trkpt><trkpt lat="45.142222920047416" lon="9.634773148267227"><ele>51.0</ele><time>2026-04-18T14:32:32.003Z</time></trkpt><trkpt lat="45.14240826268085" lon="9.634516756027606"><ele>53.0</ele><time>2026-04-18T14:32:33.003Z</time></trkpt><trkpt lat="45.14259588812146" lon="9.634263795639091"><ele>55.0</ele><time>2026-04-18T14:32:34.003Z</time></trkpt><trkpt lat="45.142782770074156" lon="9.63400803550781"><ele>55.0</ele><time>2026-04-18T14:32:35.003Z</time></trkpt><trkpt lat="45.14296445939075" lon="9.633748390092743"><ele>55.0</ele><time>2026-04-18T14:32:36.003Z</time></trkpt><trkpt lat="45.14314537198737" lon="9.633493325269795"><ele>55.0</ele><time>2026-04-18T14:32:37.003Z</time></trkpt><trkpt lat="45.14332668349901" lon="9.633244278384167"><ele>55.0</ele><time>2026-04-18T14:32:38.003Z</time></trkpt><trkpt lat="45.14350723011319" lon="9.632992580053024"><ele>56.0</ele><time>2026-04-18T14:32:39.003Z</time></trkpt><trkpt lat="45.14368615629198" lon="9.632742489563366"><ele>57.0</ele><time>2026-04-18T14:32:40.003Z</time></trkpt><trkpt lat="45.14386206413609" lon="9.632493651179141"><ele>57.0</ele><time>2026-04-18T14:32:41.003Z</time></trkpt><trkpt lat="45.14403866526291" lon="9.632241293724107"><ele>57.0</ele><time>2026-04-18T14:32:42.003Z</time></trkpt><trkpt lat="45.14421570272377" lon="9.63199331662963"><ele>56.5</ele><time>2026-04-18T14:32:43.003Z</time></trkpt><trkpt lat="45.144393585210665" lon="9.631745742501822"><ele>56.0</ele><time>2026-04-18T14:32:44.003Z</time></trkpt><trkpt lat="45.14457350098847" lon="9.631493114221437"><ele>56.0</ele><time>2026-04-18T14:32:45.003Z</time></trkpt><trkpt lat="45.144753194048064" lon="9.631242336560232"><ele>56.0</ele><time>2026-04-18T14:32:46.003Z</time></trkpt><trkpt lat="45.144932635040725" lon="9.630993604031175"><ele>56.5</ele><time>2026-04-18T14:32:47.003Z</time></trkpt><trkpt lat="45.145114953114806" lon="9.630739364686109"><ele>57.0</ele><time>2026-04-18T14:32:48.003Z</time></trkpt><trkpt lat="45.145298645198444" lon="9.630483868673299"><ele>56.5</ele><time>2026-04-18T14:32:49.003Z</time></trkpt><trkpt lat="45.145483417218465" lon="9.630224325567797"><ele>56.0</ele><time>2026-04-18T14:32:50.003Z</time></trkpt><trkpt lat="45.14567029129384" lon="9.62996509840597"><ele>56.5</ele><time>2026-04-18T14:32:51.003Z</time></trkpt><trkpt lat="45.145856186247464" lon="9.629703889069669"><ele>57.0</ele><time>2026-04-18T14:32:52.003Z</time></trkpt><trkpt lat="45.1460450443515" lon="9.629435886049926"><ele>57.0</ele><time>2026-04-18T14:32:53.003Z</time></trkpt><trkpt lat="45.14623437327077" lon="9.629172317593607"><ele>57.0</ele><time>2026-04-18T14:32:53.999Z</time></trkpt><trkpt lat="45.146426748180474" lon="9.6289038258521"><ele>56.5</ele><time>2026-04-18T14:32:54.999Z</time></trkpt><trkpt lat="45.14661950870774" lon="9.628637011720015"><ele>56.0</ele><time>2026-04-18T14:32:55.999Z</time></trkpt><trkpt lat="45.14681111882551" lon="9.628367921881901"><ele>56.0</ele><time>2026-04-18T14:32:56.999Z</time></trkpt><trkpt lat="45.14700509390155" lon="9.628094348047869"><ele>56.0</ele><time>2026-04-18T14:32:57.999Z</time></trkpt><trkpt lat="45.147197531042636" lon="9.627824203773178"><ele>56.5</ele><time>2026-04-18T14:32:58.999Z</time></trkpt><trkpt lat="45.14738877720866" lon="9.627559362980616"><ele>57.0</ele><time>2026-04-18T14:32:59.999Z</time></trkpt><trkpt lat="45.147580187549636" lon="9.627291359533638"><ele>57.0</ele><time>2026-04-18T14:33:00.999Z</time></trkpt><trkpt lat="45.14776828800368" lon="9.627029595061453"><ele>57.0</ele><time>2026-04-18T14:33:01.999Z</time></trkpt><trkpt lat="45.147957191108105" lon="9.626768559310012"><ele>57.5</ele><time>2026-04-18T14:33:02.999Z</time></trkpt><trkpt lat="45.14814572545042" lon="9.626506167371652"><ele>58.0</ele><time>2026-04-18T14:33:03.999Z</time></trkpt><trkpt lat="45.148333749691766" lon="9.626244539774085"><ele>59.5</ele><time>2026-04-18T14:33:04.999Z</time></trkpt><trkpt lat="45.14851826300628" lon="9.625984372140701"><ele>61.0</ele><time>2026-04-18T14:33:05.999Z</time></trkpt><trkpt lat="45.14870630068218" lon="9.625723226697254"><ele>61.0</ele><time>2026-04-18T14:33:06.999Z</time></trkpt><trkpt lat="45.148893495569304" lon="9.625449893693007"><ele>61.0</ele><time>2026-04-18T14:33:08Z</time></trkpt><trkpt lat="45.149081237233794" lon="9.625199803141106"><ele>60.0</ele><time>2026-04-18T14:33:09Z</time></trkpt><trkpt lat="45.14926428889037" lon="9.624941349939142"><ele>59.0</ele><time>2026-04-18T14:33:10Z</time></trkpt><trkpt lat="45.14944753717514" lon="9.624685400131407"><ele>59.0</ele><time>2026-04-18T14:33:11Z</time></trkpt><trkpt lat="45.14963217942922" lon="9.62442412328653"><ele>59.0</ele><time>2026-04-18T14:33:12Z</time></trkpt><trkpt lat="45.1498153435402" lon="9.624169392097668"><ele>59.0</ele><time>2026-04-18T14:33:13Z</time></trkpt><trkpt lat="45.15000107059882" lon="9.623913703797662"><ele>59.0</ele><time>2026-04-18T14:33:14Z</time></trkpt><trkpt lat="45.150185176721315" lon="9.623660028105917"><ele>59.0</ele><time>2026-04-18T14:33:15Z</time></trkpt><trkpt lat="45.150370075607974" lon="9.62340348282258"><ele>59.0</ele><time>2026-04-18T14:33:16Z</time></trkpt><trkpt lat="45.150554684015155" lon="9.623146545323763"><ele>59.0</ele><time>2026-04-18T14:33:17Z</time></trkpt><trkpt lat="45.15074007333684" lon="9.622882554172506"><ele>59.0</ele><time>2026-04-18T14:33:18Z</time></trkpt><trkpt lat="45.1509257316323" lon="9.622625085137624"><ele>59.0</ele><time>2026-04-18T14:33:19Z</time></trkpt><trkpt lat="45.151112670962874" lon="9.622365703537623"><ele>59.0</ele><time>2026-04-18T14:33:20Z</time></trkpt><trkpt lat="45.15129764572214" lon="9.622108022080768"><ele>59.0</ele><time>2026-04-18T14:33:21Z</time></trkpt><trkpt lat="45.15148349143296" lon="9.621845495459487"><ele>59.0</ele><time>2026-04-18T14:33:22Z</time></trkpt><trkpt lat="45.151668733441795" lon="9.621583218557301"><ele>59.0</ele><time>2026-04-18T14:33:23Z</time></trkpt><trkpt lat="45.15185504157203" lon="9.621311182025906"><ele>59.0</ele><time>2026-04-18T14:33:24Z</time></trkpt><trkpt lat="45.15204739163871" lon="9.621035671417946"><ele>59.5</ele><time>2026-04-18T14:33:25Z</time></trkpt><trkpt lat="45.1522421956291" lon="9.620750879274507"><ele>60.0</ele><time>2026-04-18T14:33:26Z</time></trkpt><trkpt lat="45.152439005496134" lon="9.620466990450346"><ele>60.0</ele><time>2026-04-18T14:33:27Z</time></trkpt><trkpt lat="45.15263879701958" lon="9.6201837348091"><ele>60.0</ele><time>2026-04-18T14:33:28Z</time></trkpt><trkpt lat="45.15284028436304" lon="9.619899103444329"><ele>60.0</ele><time>2026-04-18T14:33:29.001Z</time></trkpt><trkpt lat="45.15303960049621" lon="9.619616567136713"><ele>60.0</ele><time>2026-04-18T14:33:30.001Z</time></trkpt><trkpt lat="45.15323961894859" lon="9.619334068220116"><ele>60.0</ele><time>2026-04-18T14:33:31.001Z</time></trkpt><trkpt lat="45.15343923417743" lon="9.619050613813714"><ele>60.0</ele><time>2026-04-18T14:33:32.001Z</time></trkpt><trkpt lat="45.15363832160156" lon="9.618770376066593"><ele>61.0</ele><time>2026-04-18T14:33:33.001Z</time></trkpt><trkpt lat="45.15383631659535" lon="9.618496631957143"><ele>62.0</ele><time>2026-04-18T14:33:34.001Z</time></trkpt><trkpt lat="45.15403243068139" lon="9.618222125988387"><ele>61.0</ele><time>2026-04-18T14:33:35.001Z</time></trkpt><trkpt lat="45.15422725850282" lon="9.617943992197922"><ele>60.0</ele><time>2026-04-18T14:33:36.001Z</time></trkpt><trkpt lat="45.154422084685116" lon="9.617669700737663"><ele>59.5</ele><time>2026-04-18T14:33:37.001Z</time></trkpt><trkpt lat="45.15461744286813" lon="9.617399843392311"><ele>59.0</ele><time>2026-04-18T14:33:38.001Z</time></trkpt><trkpt lat="45.15481461177475" lon="9.617123856502973"><ele>59.0</ele><time>2026-04-18T14:33:39.001Z</time></trkpt><trkpt lat="45.155011215442656" lon="9.616846178433537"><ele>59.0</ele><time>2026-04-18T14:33:40.001Z</time></trkpt><trkpt lat="45.155205799993325" lon="9.616574650299082"><ele>59.0</ele><time>2026-04-18T14:33:41.001Z</time></trkpt><trkpt lat="45.15540119699775" lon="9.616297968776312"><ele>59.0</ele><time>2026-04-18T14:33:42.001Z</time></trkpt><trkpt lat="45.15559858087263" lon="9.616020401275943"><ele>59.5</ele><time>2026-04-18T14:33:43.001Z</time></trkpt><trkpt lat="45.155797540810084" lon="9.61574290192675"><ele>60.0</ele><time>2026-04-18T14:33:44.001Z</time></trkpt><trkpt lat="45.155996063663245" lon="9.6154636885352"><ele>60.5</ele><time>2026-04-18T14:33:45.001Z</time></trkpt><trkpt lat="45.15619490766157" lon="9.615190945218936"><ele>61.0</ele><time>2026-04-18T14:33:46.001Z</time></trkpt><trkpt lat="45.15639612655925" lon="9.614914307759536"><ele>60.0</ele><time>2026-04-18T14:33:47.001Z</time></trkpt><trkpt lat="45.15659630807498" lon="9.614638837623033"><ele>59.0</ele><time>2026-04-18T14:33:48.001Z</time></trkpt><trkpt lat="45.156795961417444" lon="9.614357834072667"><ele>59.0</ele><time>2026-04-18T14:33:49.001Z</time></trkpt><trkpt lat="45.15699483569286" lon="9.614075879544139"><ele>59.0</ele><time>2026-04-18T14:33:50.001Z</time></trkpt><trkpt lat="45.157191557127135" lon="9.613799699504312"><ele>59.5</ele><time>2026-04-18T14:33:51.001Z</time></trkpt><trkpt lat="45.15738962927865" lon="9.613525825606926"><ele>60.0</ele><time>2026-04-18T14:33:52.001Z</time></trkpt><trkpt lat="45.15758920999768" lon="9.61325523658927"><ele>60.0</ele><time>2026-04-18T14:33:53.001Z</time></trkpt><trkpt lat="45.15778995435057" lon="9.61298901690836"><ele>60.0</ele><time>2026-04-18T14:33:54.001Z</time></trkpt><trkpt lat="45.15798870941876" lon="9.612725421562024"><ele>60.0</ele><time>2026-04-18T14:33:55.001Z</time></trkpt><trkpt lat="45.15818500823629" lon="9.612461326258373"><ele>60.0</ele><time>2026-04-18T14:33:56.001Z</time></trkpt><trkpt lat="45.158382714755724" lon="9.612194334095847"><ele>60.0</ele><time>2026-04-18T14:33:57.001Z</time></trkpt><trkpt lat="45.158578544203515" lon="9.611925588792205"><ele>60.0</ele><time>2026-04-18T14:33:58.001Z</time></trkpt><trkpt lat="45.15877111025187" lon="9.611655273625058"><ele>60.0</ele><time>2026-04-18T14:33:59.002Z</time></trkpt><trkpt lat="45.15896174653084" lon="9.611387172498118"><ele>60.0</ele><time>2026-04-18T14:34:00.002Z</time></trkpt><trkpt lat="45.15915010464564" lon="9.611119617511749"><ele>60.5</ele><time>2026-04-18T14:34:01.002Z</time></trkpt><trkpt lat="45.159331375336016" lon="9.610859222353945"><ele>61.0</ele><time>2026-04-18T14:34:02.002Z</time></trkpt><trkpt lat="45.15951770118773" lon="9.61059776533762"><ele>61.0</ele><time>2026-04-18T14:34:03.002Z</time></trkpt><trkpt lat="45.15970505160968" lon="9.610339824742448"><ele>61.0</ele><time>2026-04-18T14:34:04.002Z</time></trkpt><trkpt lat="45.15989338866584" lon="9.61008153716888"><ele>60.5</ele><time>2026-04-18T14:34:05.002Z</time></trkpt><trkpt lat="45.16007790864976" lon="9.609825751852908"><ele>60.0</ele><time>2026-04-18T14:34:06.002Z</time></trkpt><trkpt lat="45.160260703671646" lon="9.609573497470395"><ele>61.0</ele><time>2026-04-18T14:34:07.002Z</time></trkpt><trkpt lat="45.16044197635539" lon="9.609321281285665"><ele>62.0</ele><time>2026-04-18T14:34:08.002Z</time></trkpt><trkpt lat="45.16062287309622" lon="9.609069610093323"><ele>62.0</ele><time>2026-04-18T14:34:09.002Z</time></trkpt><trkpt lat="45.1608002965924" lon="9.608818482646608"><ele>62.0</ele><time>2026-04-18T14:34:10.002Z</time></trkpt><trkpt lat="45.16098033278719" lon="9.608562634479869"><ele>62.0</ele><time>2026-04-18T14:34:11.002Z</time></trkpt><trkpt lat="45.16116061499202" lon="9.608307368423377"><ele>62.0</ele><time>2026-04-18T14:34:12.002Z</time></trkpt><trkpt lat="45.161341399157386" lon="9.608050926979"><ele>62.0</ele><time>2026-04-18T14:34:13.002Z</time></trkpt><trkpt lat="45.16153093920262" lon="9.607787159131044"><ele>62.0</ele><time>2026-04-18T14:34:14.002Z</time></trkpt><trkpt lat="45.16172114084761" lon="9.607521234958114"><ele>62.0</ele><time>2026-04-18T14:34:15.002Z</time></trkpt><trkpt lat="45.16191557388383" lon="9.607252416681131"><ele>62.0</ele><time>2026-04-18T14:34:16.002Z</time></trkpt><trkpt lat="45.16211129567667" lon="9.60698269866836"><ele>62.0</ele><time>2026-04-18T14:34:17.002Z</time></trkpt><trkpt lat="45.16230460718191" lon="9.606712899535921"><ele>62.0</ele><time>2026-04-18T14:34:18.002Z</time></trkpt><trkpt lat="45.162497101806125" lon="9.606443429748285"><ele>62.0</ele><time>2026-04-18T14:34:19.002Z</time></trkpt><trkpt lat="45.16268890143975" lon="9.60617236638374"><ele>62.0</ele><time>2026-04-18T14:34:20.002Z</time></trkpt><trkpt lat="45.16288167720084" lon="9.605903265686996"><ele>61.5</ele><time>2026-04-18T14:34:21.002Z</time></trkpt><trkpt lat="45.16307359282097" lon="9.60563588696534"><ele>61.0</ele><time>2026-04-18T14:34:22.002Z</time></trkpt><trkpt lat="45.16326698842645" lon="9.605365294959494"><ele>63.0</ele><time>2026-04-18T14:34:23.002Z</time></trkpt><trkpt lat="45.163458901964034" lon="9.605096085803472"><ele>65.0</ele><time>2026-04-18T14:34:24.002Z</time></trkpt><trkpt lat="45.163650714618434" lon="9.60482546888828"><ele>65.0</ele><time>2026-04-18T14:34:25.002Z</time></trkpt><trkpt lat="45.16384363472913" lon="9.604553525554726"><ele>65.0</ele><time>2026-04-18T14:34:26.002Z</time></trkpt><trkpt lat="45.16403294860304" lon="9.604279782269007"><ele>63.0</ele><time>2026-04-18T14:34:27.002Z</time></trkpt><trkpt lat="45.16422653177425" lon="9.604011937470803"><ele>61.0</ele><time>2026-04-18T14:34:28.002Z</time></trkpt><trkpt lat="45.164418753541206" lon="9.603743658073013"><ele>61.0</ele><time>2026-04-18T14:34:29.002Z</time></trkpt><trkpt lat="45.164611214168524" lon="9.603472665743721"><ele>61.0</ele><time>2026-04-18T14:34:30.002Z</time></trkpt><trkpt lat="45.164804411041715" lon="9.60320122550467"><ele>60.5</ele><time>2026-04-18T14:34:31.003Z</time></trkpt><trkpt lat="45.16499521327722" lon="9.602930828376541"><ele>60.0</ele><time>2026-04-18T14:34:32.003Z</time></trkpt><trkpt lat="45.16518651998292" lon="9.602659454119305"><ele>60.0</ele><time>2026-04-18T14:34:33.003Z</time></trkpt><trkpt lat="45.165371846357424" lon="9.602393549194963"><ele>60.0</ele><time>2026-04-18T14:34:34.003Z</time></trkpt><trkpt lat="45.16555928450079" lon="9.602124537656197"><ele>60.0</ele><time>2026-04-18T14:34:35.003Z</time></trkpt><trkpt lat="45.16574387719288" lon="9.60185933160383"><ele>60.0</ele><time>2026-04-18T14:34:36.003Z</time></trkpt><trkpt lat="45.165930029085374" lon="9.601592067566758"><ele>60.0</ele><time>2026-04-18T14:34:37.003Z</time></trkpt><trkpt lat="45.16611709132025" lon="9.601321072561477"><ele>60.0</ele><time>2026-04-18T14:34:38.003Z</time></trkpt><trkpt lat="45.1663026119073" lon="9.601046737630002"><ele>60.5</ele><time>2026-04-18T14:34:39.003Z</time></trkpt><trkpt lat="45.16648459861252" lon="9.600777550679108"><ele>61.0</ele><time>2026-04-18T14:34:40.003Z</time></trkpt><trkpt lat="45.16666962248929" lon="9.600501327006938"><ele>61.5</ele><time>2026-04-18T14:34:41.003Z</time></trkpt><trkpt lat="45.166854171338265" lon="9.60022465630591"><ele>62.0</ele><time>2026-04-18T14:34:42.003Z</time></trkpt><trkpt lat="45.167040268314516" lon="9.599944524349288"><ele>62.0</ele><time>2026-04-18T14:34:43.003Z</time></trkpt><trkpt lat="45.16722389400365" lon="9.59966453252283"><ele>62.0</ele><time>2026-04-18T14:34:44.003Z</time></trkpt><trkpt lat="45.16740403918751" lon="9.599387964086402"><ele>61.0</ele><time>2026-04-18T14:34:45.003Z</time></trkpt><trkpt lat="45.16758298219057" lon="9.599108027438419"><ele>60.0</ele><time>2026-04-18T14:34:46.003Z</time></trkpt><trkpt lat="45.167761897199846" lon="9.59883296915015"><ele>60.0</ele><time>2026-04-18T14:34:47.003Z</time></trkpt><trkpt lat="45.1679389286543" lon="9.59855546852676"><ele>60.0</ele><time>2026-04-18T14:34:48.003Z</time></trkpt><trkpt lat="45.16811317108851" lon="9.59827226659112"><ele>60.5</ele><time>2026-04-18T14:34:49.003Z</time></trkpt><trkpt lat="45.168286851573775" lon="9.59798138766799"><ele>61.0</ele><time>2026-04-18T14:34:50.003Z</time></trkpt><trkpt lat="45.16846060497051" lon="9.597688213414193"><ele>61.0</ele><time>2026-04-18T14:34:51.003Z</time></trkpt><trkpt lat="45.168637989880864" lon="9.59739649079223"><ele>61.0</ele><time>2026-04-18T14:34:52.003Z</time></trkpt><trkpt lat="45.16881890719433" lon="9.597104160088199"><ele>61.5</ele><time>2026-04-18T14:34:53.003Z</time></trkpt><trkpt lat="45.169000526447654" lon="9.596813132346487"><ele>62.0</ele><time>2026-04-18T14:34:54.003Z</time></trkpt><trkpt lat="45.16918285881477" lon="9.596522317248139"><ele>62.5</ele><time>2026-04-18T14:34:55.003Z</time></trkpt><trkpt lat="45.16936631095916" lon="9.596232934945961"><ele>63.0</ele><time>2026-04-18T14:34:56.003Z</time></trkpt><trkpt lat="45.16955036306486" lon="9.59594674772065"><ele>63.0</ele><time>2026-04-18T14:34:57.003Z</time></trkpt><trkpt lat="45.16973616187198" lon="9.59566356794334"><ele>63.0</ele><time>2026-04-18T14:34:58.003Z</time></trkpt><trkpt lat="45.16992210998074" lon="9.595369763291188"><ele>65.0</ele><time>2026-04-18T14:34:59.003Z</time></trkpt><trkpt lat="45.170105555615315" lon="9.595082499764938"><ele>67.0</ele><time>2026-04-18T14:34:59.999Z</time></trkpt><trkpt lat="45.17028959196941" lon="9.594794210469722"><ele>65.5</ele><time>2026-04-18T14:35:00.999Z</time></trkpt><trkpt lat="45.170474649946954" lon="9.594503372175202"><ele>64.0</ele><time>2026-04-18T14:35:01.999Z</time></trkpt><trkpt lat="45.17065909720429" lon="9.594212734009155"><ele>65.0</ele><time>2026-04-18T14:35:02.999Z</time></trkpt><trkpt lat="45.17084550182187" lon="9.593920774755315"><ele>66.0</ele><time>2026-04-18T14:35:03.999Z</time></trkpt><trkpt lat="45.171029725792685" lon="9.593628853244386"><ele>66.0</ele><time>2026-04-18T14:35:04.999Z</time></trkpt><trkpt lat="45.17121382058431" lon="9.593341274777933"><ele>66.0</ele><time>2026-04-18T14:35:05.999Z</time></trkpt><trkpt lat="45.17139891712517" lon="9.59305962261054"><ele>66.0</ele><time>2026-04-18T14:35:06.999Z</time></trkpt><trkpt lat="45.17158553789763" lon="9.59277786232076"><ele>66.0</ele><time>2026-04-18T14:35:07.999Z</time></trkpt><trkpt lat="45.17177387835277" lon="9.59249620575156"><ele>66.0</ele><time>2026-04-18T14:35:08.999Z</time></trkpt><trkpt lat="45.1719615998167" lon="9.592215712323501"><ele>66.0</ele><time>2026-04-18T14:35:09.999Z</time></trkpt><trkpt lat="45.17214844371024" lon="9.591930617499795"><ele>65.0</ele><time>2026-04-18T14:35:11Z</time></trkpt><trkpt lat="45.172330838744" lon="9.59165237368922"><ele>64.0</ele><time>2026-04-18T14:35:12Z</time></trkpt><trkpt lat="45.172514025762986" lon="9.59136716661425"><ele>64.5</ele><time>2026-04-18T14:35:13Z</time></trkpt><trkpt lat="45.17269434656686" lon="9.591089782337091"><ele>65.0</ele><time>2026-04-18T14:35:14Z</time></trkpt><trkpt lat="45.1728758958797" lon="9.590810968453178"><ele>65.0</ele><time>2026-04-18T14:35:15Z</time></trkpt><trkpt lat="45.17305610090681" lon="9.59053121092217"><ele>65.0</ele><time>2026-04-18T14:35:16Z</time></trkpt><trkpt lat="45.17323604012844" lon="9.590250773891094"><ele>65.0</ele><time>2026-04-18T14:35:17Z</time></trkpt><trkpt lat="45.173414130533686" lon="9.589969786565005"><ele>65.0</ele><time>2026-04-18T14:35:18Z</time></trkpt><trkpt lat="45.17359313849851" lon="9.589689685297456"><ele>64.5</ele><time>2026-04-18T14:35:19Z</time></trkpt><trkpt lat="45.17377404713288" lon="9.58941103506149"><ele>64.0</ele><time>2026-04-18T14:35:20Z</time></trkpt><trkpt lat="45.17395157142797" lon="9.589135409169744"><ele>63.0</ele><time>2026-04-18T14:35:21Z</time></trkpt><trkpt lat="45.17413019452588" lon="9.588856694378626"><ele>62.0</ele><time>2026-04-18T14:35:22Z</time></trkpt><trkpt lat="45.17430675484778" lon="9.588583872824511"><ele>62.0</ele><time>2026-04-18T14:35:23Z</time></trkpt><trkpt lat="45.17448318849033" lon="9.588306044895473"><ele>62.0</ele><time>2026-04-18T14:35:24Z</time></trkpt><trkpt lat="45.174655610127346" lon="9.588034378358085"><ele>62.5</ele><time>2026-04-18T14:35:25Z</time></trkpt><trkpt lat="45.174829392756564" lon="9.587758805937412"><ele>63.0</ele><time>2026-04-18T14:35:26Z</time></trkpt><trkpt lat="45.17500234088713" lon="9.587488733351497"><ele>63.0</ele><time>2026-04-18T14:35:27Z</time></trkpt><trkpt lat="45.17517490444086" lon="9.587216524957093"><ele>63.0</ele><time>2026-04-18T14:35:28Z</time></trkpt><trkpt lat="45.175345314895935" lon="9.58694972388502"><ele>63.5</ele><time>2026-04-18T14:35:29Z</time></trkpt><trkpt lat="45.17551749842013" lon="9.586677674272945"><ele>64.0</ele><time>2026-04-18T14:35:30Z</time></trkpt><trkpt lat="45.175688274201036" lon="9.586411310799798"><ele>64.0</ele><time>2026-04-18T14:35:31Z</time></trkpt><trkpt lat="45.175859476205225" lon="9.586145405570884"><ele>64.0</ele><time>2026-04-18T14:35:32.001Z</time></trkpt><trkpt lat="45.17603246167048" lon="9.58587675656568"><ele>64.0</ele><time>2026-04-18T14:35:33.001Z</time></trkpt><trkpt lat="45.176205749163245" lon="9.585608556466607"><ele>64.0</ele><time>2026-04-18T14:35:34.001Z</time></trkpt><trkpt lat="45.17637896571013" lon="9.585340339902775"><ele>63.0</ele><time>2026-04-18T14:35:35.001Z</time></trkpt><trkpt lat="45.176553653960305" lon="9.585065021102384"><ele>62.0</ele><time>2026-04-18T14:35:36.001Z</time></trkpt><trkpt lat="45.176728510611404" lon="9.584789909200754"><ele>62.0</ele><time>2026-04-18T14:35:37.001Z</time></trkpt><trkpt lat="45.176904469531905" lon="9.584515716721905"><ele>62.0</ele><time>2026-04-18T14:35:38.001Z</time></trkpt><trkpt lat="45.17708010213067" lon="9.584241616041767"><ele>62.5</ele><time>2026-04-18T14:35:39.001Z</time></trkpt><trkpt lat="45.177255562808185" lon="9.583968376211274"><ele>63.0</ele><time>2026-04-18T14:35:40.001Z</time></trkpt><trkpt lat="45.17743023252771" lon="9.583694755867453"><ele>64.5</ele><time>2026-04-18T14:35:41.001Z</time></trkpt><trkpt lat="45.177603982416954" lon="9.583415289335537"><ele>66.0</ele><time>2026-04-18T14:35:42.001Z</time></trkpt><trkpt lat="45.17777580813823" lon="9.583140624068207"><ele>66.0</ele><time>2026-04-18T14:35:43.001Z</time></trkpt><trkpt lat="45.177947903556344" lon="9.58286476174191"><ele>66.0</ele><time>2026-04-18T14:35:44.001Z</time></trkpt><trkpt lat="45.178120486884524" lon="9.582593461243354"><ele>64.0</ele><time>2026-04-18T14:35:45.001Z</time></trkpt><trkpt lat="45.17828799961187" lon="9.582320351906004"><ele>62.0</ele><time>2026-04-18T14:35:46.001Z</time></trkpt><trkpt lat="45.17846920389062" lon="9.582057838187415"><ele>62.5</ele><time>2026-04-18T14:35:47.001Z</time></trkpt><trkpt lat="45.17864275439774" lon="9.581792724394829"><ele>63.0</ele><time>2026-04-18T14:35:48.001Z</time></trkpt><trkpt lat="45.178813705367965" lon="9.5815301292315"><ele>63.0</ele><time>2026-04-18T14:35:49.001Z</time></trkpt><trkpt lat="45.178980903120205" lon="9.581266319503747"><ele>63.0</ele><time>2026-04-18T14:35:50.001Z</time></trkpt><trkpt lat="45.17914907906057" lon="9.58100444769234"><ele>62.5</ele><time>2026-04-18T14:35:51.001Z</time></trkpt><trkpt lat="45.179316006912806" lon="9.5807483904943"><ele>62.0</ele><time>2026-04-18T14:35:52.001Z</time></trkpt><trkpt lat="45.17948165754432" lon="9.580490672609509"><ele>62.5</ele><time>2026-04-18T14:35:53.001Z</time></trkpt><trkpt lat="45.17964401209179" lon="9.58023342795588"><ele>63.0</ele><time>2026-04-18T14:35:54.001Z</time></trkpt><trkpt lat="45.17981951912171" lon="9.579973772305355"><ele>63.0</ele><time>2026-04-18T14:35:55.001Z</time></trkpt><trkpt lat="45.17998103533213" lon="9.579725756561368"><ele>63.0</ele><time>2026-04-18T14:35:56.001Z</time></trkpt><trkpt lat="45.18013415276166" lon="9.57947496658815"><ele>64.0</ele><time>2026-04-18T14:35:57.001Z</time></trkpt><trkpt lat="45.18029106015513" lon="9.57922538497348"><ele>65.0</ele><time>2026-04-18T14:35:58.001Z</time></trkpt><trkpt lat="45.18044703814731" lon="9.578968087987702"><ele>65.0</ele><time>2026-04-18T14:35:59.001Z</time></trkpt><trkpt lat="45.18060883563999" lon="9.578723335582012"><ele>65.0</ele><time>2026-04-18T14:36:00.001Z</time></trkpt><trkpt lat="45.18076875250503" lon="9.578476867222847"><ele>63.5</ele><time>2026-04-18T14:36:01.001Z</time></trkpt><trkpt lat="45.18092533679824" lon="9.578231087136823"><ele>62.0</ele><time>2026-04-18T14:36:02.002Z</time></trkpt><trkpt lat="45.18108124266368" lon="9.57798355764393"><ele>62.5</ele><time>2026-04-18T14:36:03.002Z</time></trkpt><trkpt lat="45.181234882213246" lon="9.57773711134251"><ele>63.0</ele><time>2026-04-18T14:36:04.002Z</time></trkpt><trkpt lat="45.18138933599538" lon="9.577494850403404"><ele>63.0</ele><time>2026-04-18T14:36:05.002Z</time></trkpt><trkpt lat="45.18154423542328" lon="9.577258149515067"><ele>63.0</ele><time>2026-04-18T14:36:06.002Z</time></trkpt><trkpt lat="45.18169855783562" lon="9.577018353322755"><ele>63.0</ele><time>2026-04-18T14:36:07.002Z</time></trkpt><trkpt lat="45.18185298298009" lon="9.576774030941387"><ele>63.0</ele><time>2026-04-18T14:36:08.002Z</time></trkpt><trkpt lat="45.18200831959695" lon="9.576525309878036"><ele>63.0</ele><time>2026-04-18T14:36:09.002Z</time></trkpt><trkpt lat="45.182165250893014" lon="9.576276711676801"><ele>63.0</ele><time>2026-04-18T14:36:10.002Z</time></trkpt><trkpt lat="45.182322955420865" lon="9.576027542321121"><ele>62.0</ele><time>2026-04-18T14:36:11.002Z</time></trkpt><trkpt lat="45.18248288691767" lon="9.575778075496828"><ele>61.0</ele><time>2026-04-18T14:36:12.002Z</time></trkpt><trkpt lat="45.18264167360484" lon="9.575531163919896"><ele>61.5</ele><time>2026-04-18T14:36:13.002Z</time></trkpt><trkpt lat="45.18280043873794" lon="9.575284283297336"><ele>62.0</ele><time>2026-04-18T14:36:14.002Z</time></trkpt><trkpt lat="45.18295967161897" lon="9.575033596420377"><ele>62.0</ele><time>2026-04-18T14:36:15.002Z</time></trkpt><trkpt lat="45.183119047583546" lon="9.57478158104877"><ele>62.0</ele><time>2026-04-18T14:36:16.002Z</time></trkpt><trkpt lat="45.183279046346144" lon="9.574528776102492"><ele>62.0</ele><time>2026-04-18T14:36:17.002Z</time></trkpt><trkpt lat="45.18344141264067" lon="9.574277400204208"><ele>62.0</ele><time>2026-04-18T14:36:18.002Z</time></trkpt><trkpt lat="45.18360563290404" lon="9.574028317848866"><ele>62.0</ele><time>2026-04-18T14:36:19.002Z</time></trkpt><trkpt lat="45.18376921577663" lon="9.573775648549558"><ele>62.0</ele><time>2026-04-18T14:36:20.002Z</time></trkpt><trkpt lat="45.18393363963156" lon="9.573519106466577"><ele>62.0</ele><time>2026-04-18T14:36:21.002Z</time></trkpt><trkpt lat="45.18410061323084" lon="9.573256812206676"><ele>62.0</ele><time>2026-04-18T14:36:22.002Z</time></trkpt><trkpt lat="45.184265355104905" lon="9.572998658607121"><ele>62.0</ele><time>2026-04-18T14:36:23.002Z</time></trkpt><trkpt lat="45.18443194315862" lon="9.572736434172102"><ele>62.0</ele><time>2026-04-18T14:36:24.002Z</time></trkpt><trkpt lat="45.18459862516188" lon="9.572473797525493"><ele>62.0</ele><time>2026-04-18T14:36:25.002Z</time></trkpt><trkpt lat="45.184766445826035" lon="9.572211450033715"><ele>62.0</ele><time>2026-04-18T14:36:26.002Z</time></trkpt><trkpt lat="45.18493521301845" lon="9.571949421949746"><ele>61.0</ele><time>2026-04-18T14:36:27.002Z</time></trkpt><trkpt lat="45.1851060897693" lon="9.571688896468048"><ele>60.0</ele><time>2026-04-18T14:36:28.002Z</time></trkpt><trkpt lat="45.185275767064994" lon="9.57142947750392"><ele>61.0</ele><time>2026-04-18T14:36:29.002Z</time></trkpt><trkpt lat="45.18544480976654" lon="9.571164722826431"><ele>62.0</ele><time>2026-04-18T14:36:30.002Z</time></trkpt><trkpt lat="45.185612096889315" lon="9.570901218238877"><ele>61.0</ele><time>2026-04-18T14:36:31.002Z</time></trkpt><trkpt lat="45.18578023070759" lon="9.570636645824218"><ele>60.0</ele><time>2026-04-18T14:36:32.002Z</time></trkpt><trkpt lat="45.18594851276108" lon="9.570370413369249"><ele>61.5</ele><time>2026-04-18T14:36:33.002Z</time></trkpt><trkpt lat="45.18611851763303" lon="9.570103980711085"><ele>63.0</ele><time>2026-04-18T14:36:34.002Z</time></trkpt><trkpt lat="45.18628889290928" lon="9.569834228396562"><ele>63.0</ele><time>2026-04-18T14:36:35.003Z</time></trkpt><trkpt lat="45.18645814892633" lon="9.56956479891268"><ele>63.0</ele><time>2026-04-18T14:36:36.003Z</time></trkpt><trkpt lat="45.18662917495246" lon="9.569295162916683"><ele>62.5</ele><time>2026-04-18T14:36:37.003Z</time></trkpt><trkpt lat="45.18679997098928" lon="9.569027294424446"><ele>62.0</ele><time>2026-04-18T14:36:38.003Z</time></trkpt><trkpt lat="45.18697062278566" lon="9.56875811267065"><ele>62.5</ele><time>2026-04-18T14:36:39.003Z</time></trkpt><trkpt lat="45.18713996934926" lon="9.5684912842324"><ele>63.0</ele><time>2026-04-18T14:36:40.003Z</time></trkpt><trkpt lat="45.18730986081124" lon="9.56822510492921"><ele>62.5</ele><time>2026-04-18T14:36:41.003Z</time></trkpt><trkpt lat="45.187483549749246" lon="9.567956354331876"><ele>62.0</ele><time>2026-04-18T14:36:42.003Z</time></trkpt><trkpt lat="45.18765986114718" lon="9.5676853409739"><ele>62.0</ele><time>2026-04-18T14:36:43.003Z</time></trkpt><trkpt lat="45.18783320857573" lon="9.5674146321406"><ele>62.0</ele><time>2026-04-18T14:36:44.003Z</time></trkpt><trkpt lat="45.18800745431468" lon="9.567142898106587"><ele>62.5</ele><time>2026-04-18T14:36:45.003Z</time></trkpt><trkpt lat="45.188178085394384" lon="9.566873585671663"><ele>63.0</ele><time>2026-04-18T14:36:46.003Z</time></trkpt><trkpt lat="45.18834940669881" lon="9.566606899150383"><ele>63.0</ele><time>2026-04-18T14:36:47.003Z</time></trkpt><trkpt lat="45.18852426590555" lon="9.566337387779251"><ele>63.0</ele><time>2026-04-18T14:36:48.003Z</time></trkpt><trkpt lat="45.1886949417358" lon="9.56606934691842"><ele>63.5</ele><time>2026-04-18T14:36:49.003Z</time></trkpt><trkpt lat="45.188866283803065" lon="9.565800636824056"><ele>64.0</ele><time>2026-04-18T14:36:50.003Z</time></trkpt><trkpt lat="45.18904051649293" lon="9.565529727488832"><ele>63.0</ele><time>2026-04-18T14:36:51.003Z</time></trkpt><trkpt lat="45.189210435902964" lon="9.56525998525464"><ele>62.0</ele><time>2026-04-18T14:36:52.003Z</time></trkpt><trkpt lat="45.1893774727454" lon="9.564992268425774"><ele>62.0</ele><time>2026-04-18T14:36:53.003Z</time></trkpt><trkpt lat="45.18954713665005" lon="9.564726145429734"><ele>62.0</ele><time>2026-04-18T14:36:54.003Z</time></trkpt><trkpt lat="45.18971214928854" lon="9.564466882436026"><ele>61.5</ele><time>2026-04-18T14:36:55.003Z</time></trkpt><trkpt lat="45.189912672369076" lon="9.56416829112714"><ele>61.0</ele><time>2026-04-18T14:36:56.003Z</time></trkpt><trkpt lat="45.19008660196888" lon="9.563896580642643"><ele>61.5</ele><time>2026-04-18T14:36:57.003Z</time></trkpt><trkpt lat="45.190258066861276" lon="9.563625447664597"><ele>62.0</ele><time>2026-04-18T14:36:58.003Z</time></trkpt><trkpt lat="45.19043153926572" lon="9.563353044867613"><ele>62.0</ele><time>2026-04-18T14:36:59.003Z</time></trkpt><trkpt lat="45.19060350069702" lon="9.563087169258464"><ele>62.0</ele><time>2026-04-18T14:37:00.003Z</time></trkpt><trkpt lat="45.190777307336866" lon="9.562817690962147"><ele>62.0</ele><time>2026-04-18T14:37:01.003Z</time></trkpt><trkpt lat="45.19095221541671" lon="9.562550617104154"><ele>62.0</ele><time>2026-04-18T14:37:02.003Z</time></trkpt><trkpt lat="45.1911265732144" lon="9.562287760245852"><ele>62.5</ele><time>2026-04-18T14:37:03.003Z</time></trkpt><trkpt lat="45.19130124830538" lon="9.56202576411023"><ele>63.0</ele><time>2026-04-18T14:37:04.003Z</time></trkpt><trkpt lat="45.19147676427246" lon="9.561764402891468"><ele>62.5</ele><time>2026-04-18T14:37:05.003Z</time></trkpt><trkpt lat="45.19165424012532" lon="9.561504786037618"><ele>62.0</ele><time>2026-04-18T14:37:06Z</time></trkpt><trkpt lat="45.191833330328535" lon="9.561240395535561"><ele>61.5</ele><time>2026-04-18T14:37:07Z</time></trkpt><trkpt lat="45.19201412626911" lon="9.560978349378193"><ele>61.0</ele><time>2026-04-18T14:37:08Z</time></trkpt><trkpt lat="45.19219240394066" lon="9.560715507835047"><ele>61.5</ele><time>2026-04-18T14:37:09Z</time></trkpt><trkpt lat="45.19237459361677" lon="9.560453106106461"><ele>62.0</ele><time>2026-04-18T14:37:10Z</time></trkpt><trkpt lat="45.19255598576299" lon="9.560191780919014"><ele>61.0</ele><time>2026-04-18T14:37:11Z</time></trkpt><trkpt lat="45.1927361533137" lon="9.55992883865778"><ele>60.0</ele><time>2026-04-18T14:37:12Z</time></trkpt><trkpt lat="45.192921507357376" lon="9.559663470257156"><ele>61.0</ele><time>2026-04-18T14:37:13Z</time></trkpt><trkpt lat="45.193105817328686" lon="9.55940094074893"><ele>62.0</ele><time>2026-04-18T14:37:14Z</time></trkpt><trkpt lat="45.19329355242307" lon="9.559140631256408"><ele>62.0</ele><time>2026-04-18T14:37:15Z</time></trkpt><trkpt lat="45.19348376557562" lon="9.558876156742723"><ele>62.0</ele><time>2026-04-18T14:37:16Z</time></trkpt><trkpt lat="45.19367021251467" lon="9.558608364506071"><ele>62.5</ele><time>2026-04-18T14:37:17Z</time></trkpt><trkpt lat="45.19386513074596" lon="9.558347298971354"><ele>63.0</ele><time>2026-04-18T14:37:18Z</time></trkpt><trkpt lat="45.194056765365325" lon="9.558083764547831"><ele>63.0</ele><time>2026-04-18T14:37:19Z</time></trkpt><trkpt lat="45.19424889734748" lon="9.557825344359781"><ele>63.0</ele><time>2026-04-18T14:37:20Z</time></trkpt><trkpt lat="45.194441813874754" lon="9.557567128225637"><ele>63.0</ele><time>2026-04-18T14:37:21Z</time></trkpt><trkpt lat="45.194634752689474" lon="9.557310467952112"><ele>63.0</ele><time>2026-04-18T14:37:22Z</time></trkpt><trkpt lat="45.19482988564794" lon="9.557048500608746"><ele>62.5</ele><time>2026-04-18T14:37:23Z</time></trkpt><trkpt lat="45.19502452556777" lon="9.55679003664149"><ele>62.0</ele><time>2026-04-18T14:37:24Z</time></trkpt><trkpt lat="45.19521977320962" lon="9.556537928583927"><ele>62.0</ele><time>2026-04-18T14:37:25Z</time></trkpt><trkpt lat="45.19541543614079" lon="9.556281472312545"><ele>62.0</ele><time>2026-04-18T14:37:26Z</time></trkpt><trkpt lat="45.195612180856294" lon="9.556022623159071"><ele>61.5</ele><time>2026-04-18T14:37:27Z</time></trkpt><trkpt lat="45.19580719971041" lon="9.555768289882552"><ele>61.0</ele><time>2026-04-18T14:37:28Z</time></trkpt><trkpt lat="45.196007002976735" lon="9.555514438690228"><ele>62.0</ele><time>2026-04-18T14:37:29Z</time></trkpt><trkpt lat="45.19620861244393" lon="9.555254315866474"><ele>63.0</ele><time>2026-04-18T14:37:30Z</time></trkpt><trkpt lat="45.19640548552702" lon="9.554989220469368"><ele>63.0</ele><time>2026-04-18T14:37:31Z</time></trkpt><trkpt lat="45.196601421548834" lon="9.554727144538493"><ele>63.0</ele><time>2026-04-18T14:37:32Z</time></trkpt><trkpt lat="45.19679979483314" lon="9.55446670099784"><ele>63.0</ele><time>2026-04-18T14:37:33Z</time></trkpt><trkpt lat="45.196994698618546" lon="9.554205254878903"><ele>63.0</ele><time>2026-04-18T14:37:34Z</time></trkpt><trkpt lat="45.197190234537466" lon="9.55394187737585"><ele>62.5</ele><time>2026-04-18T14:37:35Z</time></trkpt><trkpt lat="45.19738547419155" lon="9.553685602170118"><ele>62.0</ele><time>2026-04-18T14:37:36Z</time></trkpt><trkpt lat="45.1975820274983" lon="9.553428265531986"><ele>62.0</ele><time>2026-04-18T14:37:37Z</time></trkpt><trkpt lat="45.19777829809574" lon="9.553168483747491"><ele>62.0</ele><time>2026-04-18T14:37:38.001Z</time></trkpt><trkpt lat="45.197973080128705" lon="9.55290734272931"><ele>62.0</ele><time>2026-04-18T14:37:39.001Z</time></trkpt><trkpt lat="45.198166435972006" lon="9.552645024650635"><ele>62.0</ele><time>2026-04-18T14:37:40.001Z</time></trkpt><trkpt lat="45.19836201794513" lon="9.552376732980402"><ele>63.5</ele><time>2026-04-18T14:37:41.001Z</time></trkpt><trkpt lat="45.198557836958436" lon="9.552113297402224"><ele>65.0</ele><time>2026-04-18T14:37:42.001Z</time></trkpt><trkpt lat="45.19875813847875" lon="9.551851130467828"><ele>65.0</ele><time>2026-04-18T14:37:43.001Z</time></trkpt><trkpt lat="45.198952629734016" lon="9.551583203861496"><ele>65.0</ele><time>2026-04-18T14:37:44.001Z</time></trkpt><trkpt lat="45.19914839027816" lon="9.551324205883047"><ele>63.5</ele><time>2026-04-18T14:37:45.001Z</time></trkpt><trkpt lat="45.19934345786228" lon="9.551054489433993"><ele>62.0</ele><time>2026-04-18T14:37:46.001Z</time></trkpt><trkpt lat="45.19953533111185" lon="9.550797710576205"><ele>62.0</ele><time>2026-04-18T14:37:47.001Z</time></trkpt><trkpt lat="45.19972793276366" lon="9.550536572958674"><ele>62.0</ele><time>2026-04-18T14:37:48.001Z</time></trkpt><trkpt lat="45.19992873702258" lon="9.550290241708371"><ele>62.0</ele><time>2026-04-18T14:37:49.001Z</time></trkpt><trkpt lat="45.2001297921036" lon="9.550048089954492"><ele>62.0</ele><time>2026-04-18T14:37:50.001Z</time></trkpt><trkpt lat="45.20033657551529" lon="9.549808655537527"><ele>62.0</ele><time>2026-04-18T14:37:51.001Z</time></trkpt><trkpt lat="45.20053638388629" lon="9.549558208263118"><ele>62.0</ele><time>2026-04-18T14:37:52.001Z</time></trkpt><trkpt lat="45.200726902814566" lon="9.549298270627073"><ele>62.5</ele><time>2026-04-18T14:37:53.001Z</time></trkpt><trkpt lat="45.20092250594458" lon="9.549038016226799"><ele>63.0</ele><time>2026-04-18T14:37:54.001Z</time></trkpt><trkpt lat="45.20111609778795" lon="9.548782413152324"><ele>63.0</ele><time>2026-04-18T14:37:55.001Z</time></trkpt><trkpt lat="45.20131475268904" lon="9.54852503017426"><ele>63.0</ele><time>2026-04-18T14:37:56.001Z</time></trkpt><trkpt lat="45.20151179292866" lon="9.548266143843263"><ele>62.5</ele><time>2026-04-18T14:37:57.001Z</time></trkpt><trkpt lat="45.201708498732316" lon="9.548005459559837"><ele>62.0</ele><time>2026-04-18T14:37:58.001Z</time></trkpt><trkpt lat="45.201904969900134" lon="9.5477493746496"><ele>62.0</ele><time>2026-04-18T14:37:59.001Z</time></trkpt><trkpt lat="45.20210135634562" lon="9.547491319176867"><ele>62.0</ele><time>2026-04-18T14:38:00.001Z</time></trkpt><trkpt lat="45.20229652428329" lon="9.54723799563103"><ele>63.0</ele><time>2026-04-18T14:38:01.001Z</time></trkpt><trkpt lat="45.20249123075894" lon="9.54697786167301"><ele>64.0</ele><time>2026-04-18T14:38:02.001Z</time></trkpt><trkpt lat="45.20268453158375" lon="9.546718913428894"><ele>64.0</ele><time>2026-04-18T14:38:03.001Z</time></trkpt><trkpt lat="45.202878411841255" lon="9.546471430388982"><ele>64.0</ele><time>2026-04-18T14:38:04.001Z</time></trkpt><trkpt lat="45.20307332558007" lon="9.546210103229196"><ele>64.0</ele><time>2026-04-18T14:38:05.001Z</time></trkpt><trkpt lat="45.20326884056452" lon="9.545953357223636"><ele>64.0</ele><time>2026-04-18T14:38:06.001Z</time></trkpt><trkpt lat="45.203468321528234" lon="9.545696787402333"><ele>64.0</ele><time>2026-04-18T14:38:07.001Z</time></trkpt><trkpt lat="45.203661364461354" lon="9.545439654976661"><ele>64.0</ele><time>2026-04-18T14:38:08.001Z</time></trkpt><trkpt lat="45.20385976322305" lon="9.545180242090291"><ele>63.0</ele><time>2026-04-18T14:38:09.001Z</time></trkpt><trkpt lat="45.20405895510312" lon="9.544925236511638"><ele>62.0</ele><time>2026-04-18T14:38:10.001Z</time></trkpt><trkpt lat="45.20426000281804" lon="9.544665934459491"><ele>62.0</ele><time>2026-04-18T14:38:11.002Z</time></trkpt><trkpt lat="45.204456841964536" lon="9.544407452521613"><ele>62.0</ele><time>2026-04-18T14:38:12.002Z</time></trkpt><trkpt lat="45.20465844894416" lon="9.544145578647361"><ele>62.5</ele><time>2026-04-18T14:38:13.002Z</time></trkpt><trkpt lat="45.204855534972815" lon="9.543881501676807"><ele>63.0</ele><time>2026-04-18T14:38:14.002Z</time></trkpt><trkpt lat="45.20505404395978" lon="9.54361777028717"><ele>63.0</ele><time>2026-04-18T14:38:15.002Z</time></trkpt><trkpt lat="45.20525353284228" lon="9.543355055728558"><ele>63.0</ele><time>2026-04-18T14:38:16.002Z</time></trkpt><trkpt lat="45.205454728945824" lon="9.543088533677405"><ele>64.0</ele><time>2026-04-18T14:38:17.002Z</time></trkpt><trkpt lat="45.20565708400096" lon="9.542828035568444"><ele>65.0</ele><time>2026-04-18T14:38:18.002Z</time></trkpt><trkpt lat="45.20585736341401" lon="9.542566764360746"><ele>65.0</ele><time>2026-04-18T14:38:19.002Z</time></trkpt><trkpt lat="45.20606204012408" lon="9.542301618426103"><ele>65.0</ele><time>2026-04-18T14:38:20.002Z</time></trkpt><trkpt lat="45.20626288546421" lon="9.542053541374663"><ele>65.0</ele><time>2026-04-18T14:38:21.002Z</time></trkpt><trkpt lat="45.206463290490284" lon="9.54176880774668"><ele>65.0</ele><time>2026-04-18T14:38:22.002Z</time></trkpt><trkpt lat="45.206665577929705" lon="9.541503021811693"><ele>64.0</ele><time>2026-04-18T14:38:23.002Z</time></trkpt><trkpt lat="45.20686872026534" lon="9.5412477751218"><ele>63.0</ele><time>2026-04-18T14:38:24.002Z</time></trkpt><trkpt lat="45.2070689996313" lon="9.540985251567381"><ele>63.0</ele><time>2026-04-18T14:38:25.002Z</time></trkpt><trkpt lat="45.20727028368789" lon="9.540718841723656"><ele>63.0</ele><time>2026-04-18T14:38:26.002Z</time></trkpt><trkpt lat="45.207468674412425" lon="9.540452657664696"><ele>64.0</ele><time>2026-04-18T14:38:27.002Z</time></trkpt><trkpt lat="45.20766621947111" lon="9.540181787441167"><ele>65.0</ele><time>2026-04-18T14:38:28.002Z</time></trkpt><trkpt lat="45.20786243113497" lon="9.539919860201092"><ele>65.0</ele><time>2026-04-18T14:38:29.002Z</time></trkpt><trkpt lat="45.208065286020926" lon="9.539662503560276"><ele>65.0</ele><time>2026-04-18T14:38:30.002Z</time></trkpt><trkpt lat="45.208268945808754" lon="9.53939985990548"><ele>64.5</ele><time>2026-04-18T14:38:31.002Z</time></trkpt><trkpt lat="45.20846831707973" lon="9.539136306612892"><ele>64.0</ele><time>2026-04-18T14:38:32.002Z</time></trkpt><trkpt lat="45.20866974145763" lon="9.538873718898712"><ele>64.0</ele><time>2026-04-18T14:38:33.002Z</time></trkpt><trkpt lat="45.20887013875083" lon="9.538606079647845"><ele>64.0</ele><time>2026-04-18T14:38:34.002Z</time></trkpt><trkpt lat="45.20907087189587" lon="9.53834473222059"><ele>64.5</ele><time>2026-04-18T14:38:35.002Z</time></trkpt><trkpt lat="45.20926743584397" lon="9.538084496750646"><ele>65.0</ele><time>2026-04-18T14:38:36.002Z</time></trkpt><trkpt lat="45.20946735343796" lon="9.53782056236998"><ele>65.0</ele><time>2026-04-18T14:38:37.002Z</time></trkpt><trkpt lat="45.20966745061169" lon="9.537554681991013"><ele>65.0</ele><time>2026-04-18T14:38:38.002Z</time></trkpt><trkpt lat="45.2098685250623" lon="9.537296978097457"><ele>64.5</ele><time>2026-04-18T14:38:39.002Z</time></trkpt><trkpt lat="45.2100658406084" lon="9.537031922848605"><ele>64.0</ele><time>2026-04-18T14:38:40.002Z</time></trkpt><trkpt lat="45.21026731977129" lon="9.536765042703582"><ele>64.0</ele><time>2026-04-18T14:38:41.002Z</time></trkpt><trkpt lat="45.21046670517418" lon="9.53650224059215"><ele>64.0</ele><time>2026-04-18T14:38:42.002Z</time></trkpt><trkpt lat="45.210666854436546" lon="9.536240410186329"><ele>64.0</ele><time>2026-04-18T14:38:43.002Z</time></trkpt><trkpt lat="45.21087238883632" lon="9.5359805608541"><ele>64.0</ele><time>2026-04-18T14:38:44.002Z</time></trkpt><trkpt lat="45.21106940952821" lon="9.535714228269086"><ele>64.0</ele><time>2026-04-18T14:38:45.003Z</time></trkpt><trkpt lat="45.211274126408384" lon="9.535452345001088"><ele>64.0</ele><time>2026-04-18T14:38:46.003Z</time></trkpt><trkpt lat="45.21147234383632" lon="9.535189894121354"><ele>64.5</ele><time>2026-04-18T14:38:47.003Z</time></trkpt><trkpt lat="45.21167030205689" lon="9.534930359411348"><ele>65.0</ele><time>2026-04-18T14:38:48.003Z</time></trkpt><trkpt lat="45.21187205118786" lon="9.534668278487285"><ele>65.0</ele><time>2026-04-18T14:38:49.003Z</time></trkpt><trkpt lat="45.212068665387854" lon="9.534401230935522"><ele>65.0</ele><time>2026-04-18T14:38:50.003Z</time></trkpt><trkpt lat="45.212263751438385" lon="9.534140593618135"><ele>65.0</ele><time>2026-04-18T14:38:51.003Z</time></trkpt><trkpt lat="45.21246065499338" lon="9.533885804785593"><ele>65.0</ele><time>2026-04-18T14:38:52.003Z</time></trkpt><trkpt lat="45.21265460606265" lon="9.533632253533916"><ele>65.0</ele><time>2026-04-18T14:38:53.003Z</time></trkpt><trkpt lat="45.212849471032555" lon="9.53336840527875"><ele>65.0</ele><time>2026-04-18T14:38:54.003Z</time></trkpt><trkpt lat="45.21305131421431" lon="9.533114729492533"><ele>64.5</ele><time>2026-04-18T14:38:55.003Z</time></trkpt><trkpt lat="45.213244946368846" lon="9.532857696905692"><ele>64.0</ele><time>2026-04-18T14:38:56.003Z</time></trkpt><trkpt lat="45.21344218517779" lon="9.532602498935356"><ele>64.0</ele><time>2026-04-18T14:38:57.003Z</time></trkpt><trkpt lat="45.21363435102419" lon="9.53234901110597"><ele>64.0</ele><time>2026-04-18T14:38:58.003Z</time></trkpt><trkpt lat="45.213827192543896" lon="9.532099241818685"><ele>63.5</ele><time>2026-04-18T14:38:59.003Z</time></trkpt><trkpt lat="45.21401568209574" lon="9.531844439093513"><ele>63.0</ele><time>2026-04-18T14:39:00.003Z</time></trkpt><trkpt lat="45.214205523510515" lon="9.531591764779748"><ele>63.0</ele><time>2026-04-18T14:39:01.003Z</time></trkpt><trkpt lat="45.214393320730515" lon="9.531341001100834"><ele>63.0</ele><time>2026-04-18T14:39:02.003Z</time></trkpt><trkpt lat="45.214580609333964" lon="9.531091445014775"><ele>63.0</ele><time>2026-04-18T14:39:03.003Z</time></trkpt><trkpt lat="45.21476873871986" lon="9.530843146648207"><ele>63.0</ele><time>2026-04-18T14:39:04.003Z</time></trkpt><trkpt lat="45.21496048105161" lon="9.530599333405615"><ele>63.5</ele><time>2026-04-18T14:39:05.003Z</time></trkpt><trkpt lat="45.215148312080245" lon="9.530350599284128"><ele>64.0</ele><time>2026-04-18T14:39:06.003Z</time></trkpt><trkpt lat="45.215335135954334" lon="9.530103460010968"><ele>64.0</ele><time>2026-04-18T14:39:07.003Z</time></trkpt><trkpt lat="45.21552382691378" lon="9.529860575765417"><ele>64.0</ele><time>2026-04-18T14:39:08.003Z</time></trkpt><trkpt lat="45.21571286179385" lon="9.529619618409559"><ele>66.0</ele><time>2026-04-18T14:39:09.003Z</time></trkpt><trkpt lat="45.21589965783514" lon="9.529373936646435"><ele>68.0</ele><time>2026-04-18T14:39:10.003Z</time></trkpt><trkpt lat="45.216084372552" lon="9.52912594290716"><ele>68.0</ele><time>2026-04-18T14:39:11.003Z</time></trkpt><trkpt lat="45.21627053532877" lon="9.528878889815314"><ele>68.0</ele><time>2026-04-18T14:39:11.999Z</time></trkpt><trkpt lat="45.216458043989284" lon="9.528637771323185"><ele>66.5</ele><time>2026-04-18T14:39:12.999Z</time></trkpt><trkpt lat="45.21664945552103" lon="9.528387103918574"><ele>65.0</ele><time>2026-04-18T14:39:13.999Z</time></trkpt><trkpt lat="45.21683650878843" lon="9.528138362146873"><ele>65.0</ele><time>2026-04-18T14:39:15Z</time></trkpt><trkpt lat="45.21702996649723" lon="9.527885868939475"><ele>65.0</ele><time>2026-04-18T14:39:16Z</time></trkpt><trkpt lat="45.217224003000034" lon="9.527637450026038"><ele>65.0</ele><time>2026-04-18T14:39:17Z</time></trkpt><trkpt lat="45.21741638722038" lon="9.52738731841492"><ele>65.0</ele><time>2026-04-18T14:39:18Z</time></trkpt><trkpt lat="45.21760922829077" lon="9.527132678338342"><ele>65.0</ele><time>2026-04-18T14:39:19Z</time></trkpt><trkpt lat="45.217801805286065" lon="9.526879826125942"><ele>65.0</ele><time>2026-04-18T14:39:20Z</time></trkpt><trkpt lat="45.21799570209981" lon="9.526623458480667"><ele>65.5</ele><time>2026-04-18T14:39:21Z</time></trkpt><trkpt lat="45.21818885325745" lon="9.52636820857608"><ele>66.0</ele><time>2026-04-18T14:39:22Z</time></trkpt><trkpt lat="45.21838383095606" lon="9.526112364005582"><ele>66.0</ele><time>2026-04-18T14:39:23Z</time></trkpt><trkpt lat="45.21857681846559" lon="9.525857750080275"><ele>66.0</ele><time>2026-04-18T14:39:24Z</time></trkpt><trkpt lat="45.21876992472755" lon="9.525607128987613"><ele>65.5</ele><time>2026-04-18T14:39:25Z</time></trkpt><trkpt lat="45.2189629464978" lon="9.525353823595493"><ele>65.0</ele><time>2026-04-18T14:39:26Z</time></trkpt><trkpt lat="45.219151666552044" lon="9.52509811438395"><ele>65.0</ele><time>2026-04-18T14:39:27Z</time></trkpt><trkpt lat="45.2193459268938" lon="9.5248484690687"><ele>65.0</ele><time>2026-04-18T14:39:28Z</time></trkpt><trkpt lat="45.219537504090276" lon="9.52459777367379"><ele>65.0</ele><time>2026-04-18T14:39:29Z</time></trkpt><trkpt lat="45.2197252784989" lon="9.524340755584134"><ele>65.0</ele><time>2026-04-18T14:39:30Z</time></trkpt><trkpt lat="45.21991637636731" lon="9.524095561464607"><ele>65.0</ele><time>2026-04-18T14:39:31Z</time></trkpt><trkpt lat="45.22010435144774" lon="9.523846428328662"><ele>65.0</ele><time>2026-04-18T14:39:32Z</time></trkpt><trkpt lat="45.220296088493065" lon="9.523599875380706"><ele>65.0</ele><time>2026-04-18T14:39:33Z</time></trkpt><trkpt lat="45.22048686162823" lon="9.523346334274079"><ele>65.0</ele><time>2026-04-18T14:39:34Z</time></trkpt><trkpt lat="45.22067777956702" lon="9.523094612458506"><ele>65.5</ele><time>2026-04-18T14:39:35Z</time></trkpt><trkpt lat="45.22086622562628" lon="9.522842092167114"><ele>66.0</ele><time>2026-04-18T14:39:36Z</time></trkpt><trkpt lat="45.22105872568069" lon="9.522590687233544"><ele>66.0</ele><time>2026-04-18T14:39:37Z</time></trkpt><trkpt lat="45.22125240333196" lon="9.522340686307947"><ele>66.0</ele><time>2026-04-18T14:39:38Z</time></trkpt><trkpt lat="45.221445234659654" lon="9.522088918653992"><ele>66.5</ele><time>2026-04-18T14:39:39Z</time></trkpt><trkpt lat="45.221638762313546" lon="9.52183548230045"><ele>67.0</ele><time>2026-04-18T14:39:40Z</time></trkpt><trkpt lat="45.2218313559855" lon="9.521579699277583"><ele>67.0</ele><time>2026-04-18T14:39:41Z</time></trkpt><trkpt lat="45.222023582871955" lon="9.521322272070538"><ele>67.0</ele><time>2026-04-18T14:39:42Z</time></trkpt><trkpt lat="45.222218537479456" lon="9.521068621558872"><ele>66.5</ele><time>2026-04-18T14:39:43Z</time></trkpt><trkpt lat="45.22241167256215" lon="9.520813526469459"><ele>66.0</ele><time>2026-04-18T14:39:44.001Z</time></trkpt><trkpt lat="45.222605371088136" lon="9.520558486072519"><ele>65.5</ele><time>2026-04-18T14:39:45.001Z</time></trkpt><trkpt lat="45.22279951325437" lon="9.520302214340921"><ele>65.0</ele><time>2026-04-18T14:39:46.001Z</time></trkpt><trkpt lat="45.22299469970734" lon="9.52004672139432"><ele>65.0</ele><time>2026-04-18T14:39:47.001Z</time></trkpt><trkpt lat="45.223189722251405" lon="9.519790157882671"><ele>65.0</ele><time>2026-04-18T14:39:48.001Z</time></trkpt><trkpt lat="45.223384461780434" lon="9.519533004363076"><ele>66.0</ele><time>2026-04-18T14:39:49.001Z</time></trkpt><trkpt lat="45.22357991265455" lon="9.519278003845697"><ele>67.0</ele><time>2026-04-18T14:39:50.001Z</time></trkpt><trkpt lat="45.22377351214218" lon="9.519024647444718"><ele>67.0</ele><time>2026-04-18T14:39:51.001Z</time></trkpt><trkpt lat="45.223964649479846" lon="9.51877095660238"><ele>67.0</ele><time>2026-04-18T14:39:52.001Z</time></trkpt><trkpt lat="45.22415798774565" lon="9.51851877213672"><ele>67.5</ele><time>2026-04-18T14:39:53.001Z</time></trkpt><trkpt lat="45.22434679624314" lon="9.518252246750219"><ele>68.0</ele><time>2026-04-18T14:39:54.001Z</time></trkpt><trkpt lat="45.224542395311" lon="9.518000969472359"><ele>66.5</ele><time>2026-04-18T14:39:55.001Z</time></trkpt><trkpt lat="45.22473561530692" lon="9.517749081590358"><ele>65.0</ele><time>2026-04-18T14:39:56.001Z</time></trkpt><trkpt lat="45.224928236836966" lon="9.517494594185298"><ele>65.0</ele><time>2026-04-18T14:39:57.001Z</time></trkpt><trkpt lat="45.22512250916763" lon="9.517237548228923"><ele>65.0</ele><time>2026-04-18T14:39:58.001Z</time></trkpt><trkpt lat="45.22531624582503" lon="9.516982996449487"><ele>65.0</ele><time>2026-04-18T14:39:59.001Z</time></trkpt><trkpt lat="45.225507965300686" lon="9.51672953388785"><ele>65.0</ele><time>2026-04-18T14:40:00.001Z</time></trkpt><trkpt lat="45.225699953227796" lon="9.516472795967003"><ele>66.0</ele><time>2026-04-18T14:40:01.001Z</time></trkpt><trkpt lat="45.225891726305626" lon="9.516219310794503"><ele>67.0</ele><time>2026-04-18T14:40:02.001Z</time></trkpt><trkpt lat="45.22608612692741" lon="9.51596860714906"><ele>67.0</ele><time>2026-04-18T14:40:03.001Z</time></trkpt><trkpt lat="45.22628067524258" lon="9.515719471893469"><ele>67.0</ele><time>2026-04-18T14:40:04.001Z</time></trkpt><trkpt lat="45.226470962365205" lon="9.515470632268936"><ele>66.5</ele><time>2026-04-18T14:40:05.001Z</time></trkpt><trkpt lat="45.226659108987896" lon="9.515224919136744"><ele>66.0</ele><time>2026-04-18T14:40:06.001Z</time></trkpt><trkpt lat="45.2268447543413" lon="9.51497838745559"><ele>66.0</ele><time>2026-04-18T14:40:07.001Z</time></trkpt><trkpt lat="45.227032581536136" lon="9.514733753501714"><ele>66.0</ele><time>2026-04-18T14:40:08.001Z</time></trkpt><trkpt lat="45.22721762088516" lon="9.514487081263907"><ele>66.0</ele><time>2026-04-18T14:40:09.001Z</time></trkpt><trkpt lat="45.22740338505452" lon="9.514241093830133"><ele>66.0</ele><time>2026-04-18T14:40:10.001Z</time></trkpt><trkpt lat="45.227585695529015" lon="9.514000918876327"><ele>66.0</ele><time>2026-04-18T14:40:11.001Z</time></trkpt><trkpt lat="45.22776836690359" lon="9.513757443532272"><ele>66.0</ele><time>2026-04-18T14:40:12.001Z</time></trkpt><trkpt lat="45.227953517640884" lon="9.513518230535844"><ele>66.0</ele><time>2026-04-18T14:40:13.001Z</time></trkpt><trkpt lat="45.228138661747074" lon="9.513270240314512"><ele>66.0</ele><time>2026-04-18T14:40:14.001Z</time></trkpt><trkpt lat="45.228327370860825" lon="9.513023769103892"><ele>67.5</ele><time>2026-04-18T14:40:15.002Z</time></trkpt><trkpt lat="45.22851422105811" lon="9.512778915515295"><ele>69.0</ele><time>2026-04-18T14:40:16.002Z</time></trkpt><trkpt lat="45.228703461265695" lon="9.512527983691669"><ele>69.0</ele><time>2026-04-18T14:40:17.002Z</time></trkpt><trkpt lat="45.22889186934409" lon="9.512278419391707"><ele>69.0</ele><time>2026-04-18T14:40:18.002Z</time></trkpt><trkpt lat="45.22908218965596" lon="9.512034316222723"><ele>68.5</ele><time>2026-04-18T14:40:19.002Z</time></trkpt><trkpt lat="45.22927396178696" lon="9.511778002997923"><ele>68.0</ele><time>2026-04-18T14:40:20.002Z</time></trkpt><trkpt lat="45.22946470810168" lon="9.511531461107223"><ele>68.0</ele><time>2026-04-18T14:40:21.002Z</time></trkpt><trkpt lat="45.22965562372228" lon="9.511288739039008"><ele>68.0</ele><time>2026-04-18T14:40:22.002Z</time></trkpt><trkpt lat="45.2298476068681" lon="9.511037539825233"><ele>68.0</ele><time>2026-04-18T14:40:23.002Z</time></trkpt><trkpt lat="45.23003865557534" lon="9.510784431460552"><ele>68.0</ele><time>2026-04-18T14:40:24.002Z</time></trkpt><trkpt lat="45.230227771644195" lon="9.51053272815141"><ele>68.0</ele><time>2026-04-18T14:40:25.002Z</time></trkpt><trkpt lat="45.230416158958626" lon="9.510280070857329"><ele>68.0</ele><time>2026-04-18T14:40:26.002Z</time></trkpt><trkpt lat="45.23060776984626" lon="9.510028160764316"><ele>67.5</ele><time>2026-04-18T14:40:27.002Z</time></trkpt><trkpt lat="45.23079676431063" lon="9.509787998854812"><ele>67.0</ele><time>2026-04-18T14:40:28.002Z</time></trkpt><trkpt lat="45.230984878511556" lon="9.509538846781764"><ele>67.0</ele><time>2026-04-18T14:40:29.002Z</time></trkpt><trkpt lat="45.23117148004578" lon="9.509292544207279"><ele>67.0</ele><time>2026-04-18T14:40:30.002Z</time></trkpt><trkpt lat="45.231359704559324" lon="9.509048114424797"><ele>67.0</ele><time>2026-04-18T14:40:31.002Z</time></trkpt><trkpt lat="45.231544401305456" lon="9.50880788782271"><ele>67.0</ele><time>2026-04-18T14:40:32.002Z</time></trkpt><trkpt lat="45.23172801893339" lon="9.50857058100238"><ele>67.0</ele><time>2026-04-18T14:40:33.002Z</time></trkpt><trkpt lat="45.23191197372375" lon="9.50833350030712"><ele>67.0</ele><time>2026-04-18T14:40:34.002Z</time></trkpt><trkpt lat="45.23209424385388" lon="9.50809639686539"><ele>67.5</ele><time>2026-04-18T14:40:35.002Z</time></trkpt><trkpt lat="45.232276514628424" lon="9.507858731461655"><ele>68.0</ele><time>2026-04-18T14:40:36.002Z</time></trkpt><trkpt lat="45.23245192126639" lon="9.507626253717278"><ele>69.0</ele><time>2026-04-18T14:40:37.002Z</time></trkpt><trkpt lat="45.23262574206541" lon="9.507393094321237"><ele>70.0</ele><time>2026-04-18T14:40:38.002Z</time></trkpt><trkpt lat="45.232818624608576" lon="9.507149318723036"><ele>69.0</ele><time>2026-04-18T14:40:39.002Z</time></trkpt><trkpt lat="45.232986787602215" lon="9.506923288239305"><ele>68.0</ele><time>2026-04-18T14:40:40.002Z</time></trkpt><trkpt lat="45.233162452963946" lon="9.506690110688773"><ele>68.0</ele><time>2026-04-18T14:40:41.002Z</time></trkpt><trkpt lat="45.233336331753165" lon="9.506456669142995"><ele>68.0</ele><time>2026-04-18T14:40:42.002Z</time></trkpt><trkpt lat="45.23351354895901" lon="9.506220702431806"><ele>68.0</ele><time>2026-04-18T14:40:43.002Z</time></trkpt><trkpt lat="45.233687805387774" lon="9.505989490717242"><ele>68.0</ele><time>2026-04-18T14:40:44.002Z</time></trkpt><trkpt lat="45.233864435349254" lon="9.505760113172588"><ele>68.0</ele><time>2026-04-18T14:40:45.002Z</time></trkpt><trkpt lat="45.2340422444908" lon="9.505530288135574"><ele>68.0</ele><time>2026-04-18T14:40:46.002Z</time></trkpt><trkpt lat="45.234217431434885" lon="9.505300045322818"><ele>68.0</ele><time>2026-04-18T14:40:47.002Z</time></trkpt><trkpt lat="45.23439201086171" lon="9.50506855319889"><ele>68.0</ele><time>2026-04-18T14:40:48.003Z</time></trkpt><trkpt lat="45.23456665393966" lon="9.504837928976956"><ele>68.0</ele><time>2026-04-18T14:40:49.003Z</time></trkpt><trkpt lat="45.23473746432185" lon="9.50460958569671"><ele>68.0</ele><time>2026-04-18T14:40:50.003Z</time></trkpt><trkpt lat="45.23491374243169" lon="9.504375402488284"><ele>68.0</ele><time>2026-04-18T14:40:51.003Z</time></trkpt><trkpt lat="45.23508668505877" lon="9.50414867189063"><ele>68.0</ele><time>2026-04-18T14:40:52.003Z</time></trkpt><trkpt lat="45.23526213747038" lon="9.503921198696462"><ele>68.5</ele><time>2026-04-18T14:40:53.003Z</time></trkpt><trkpt lat="45.235435369448" lon="9.503695070633105"><ele>69.0</ele><time>2026-04-18T14:40:54.003Z</time></trkpt><trkpt lat="45.235609106882634" lon="9.503469178895719"><ele>70.0</ele><time>2026-04-18T14:40:55.003Z</time></trkpt><trkpt lat="45.23578029943803" lon="9.5032451556295"><ele>71.0</ele><time>2026-04-18T14:40:56.003Z</time></trkpt><trkpt lat="45.235952787888294" lon="9.503020070750761"><ele>71.0</ele><time>2026-04-18T14:40:57.003Z</time></trkpt><trkpt lat="45.236123032728436" lon="9.502793000856407"><ele>71.0</ele><time>2026-04-18T14:40:58.003Z</time></trkpt><trkpt lat="45.23629419973575" lon="9.50256697645555"><ele>71.0</ele><time>2026-04-18T14:40:59.003Z</time></trkpt><trkpt lat="45.23646104864399" lon="9.502345369039052"><ele>71.0</ele><time>2026-04-18T14:41:00.003Z</time></trkpt><trkpt lat="45.23663382755907" lon="9.502116763504805"><ele>71.0</ele><time>2026-04-18T14:41:01.003Z</time></trkpt><trkpt lat="45.23680212742738" lon="9.501892441289412"><ele>71.0</ele><time>2026-04-18T14:41:02.003Z</time></trkpt><trkpt lat="45.23697173768234" lon="9.50166658934388"><ele>71.0</ele><time>2026-04-18T14:41:03.003Z</time></trkpt><trkpt lat="45.23714333595748" lon="9.501442284160378"><ele>71.0</ele><time>2026-04-18T14:41:04.003Z</time></trkpt><trkpt lat="45.23731531388646" lon="9.501213817160078"><ele>70.5</ele><time>2026-04-18T14:41:05.003Z</time></trkpt><trkpt lat="45.237483579539045" lon="9.50099165526799"><ele>70.0</ele><time>2026-04-18T14:41:06.003Z</time></trkpt><trkpt lat="45.237652715517584" lon="9.500769914625817"><ele>70.0</ele><time>2026-04-18T14:41:07.003Z</time></trkpt><trkpt lat="45.23782183226732" lon="9.500548141088869"><ele>70.0</ele><time>2026-04-18T14:41:08.003Z</time></trkpt><trkpt lat="45.237987717070716" lon="9.500332174869994"><ele>70.5</ele><time>2026-04-18T14:41:09.003Z</time></trkpt><trkpt lat="45.23815933493824" lon="9.500106688862388"><ele>71.0</ele><time>2026-04-18T14:41:10.003Z</time></trkpt><trkpt lat="45.238325791625" lon="9.499889365738998"><ele>71.0</ele><time>2026-04-18T14:41:11.003Z</time></trkpt><trkpt lat="45.23849766343973" lon="9.499664551419388"><ele>71.0</ele><time>2026-04-18T14:41:12.003Z</time></trkpt><trkpt lat="45.23866881258039" lon="9.499444349966058"><ele>70.5</ele><time>2026-04-18T14:41:13.003Z</time></trkpt><trkpt lat="45.238839827717165" lon="9.499212290680212"><ele>70.0</ele><time>2026-04-18T14:41:14.003Z</time></trkpt><trkpt lat="45.239017231891" lon="9.49897806844597"><ele>70.0</ele><time>2026-04-18T14:41:15.003Z</time></trkpt><trkpt lat="45.239193929837576" lon="9.498747452446558"><ele>70.0</ele><time>2026-04-18T14:41:16.003Z</time></trkpt><trkpt lat="45.23937124734461" lon="9.4985169757113"><ele>70.0</ele><time>2026-04-18T14:41:17.003Z</time></trkpt><trkpt lat="45.23954483975033" lon="9.498287297717933"><ele>70.0</ele><time>2026-04-18T14:41:18Z</time></trkpt><trkpt lat="45.23972509544392" lon="9.498049227585517"><ele>70.0</ele><time>2026-04-18T14:41:19Z</time></trkpt><trkpt lat="45.23990605311577" lon="9.497809749429663"><ele>70.0</ele><time>2026-04-18T14:41:20Z</time></trkpt><trkpt lat="45.24008080381383" lon="9.497577126771061"><ele>70.0</ele><time>2026-04-18T14:41:21Z</time></trkpt><trkpt lat="45.24026009942604" lon="9.497336334547692"><ele>70.0</ele><time>2026-04-18T14:41:22Z</time></trkpt><trkpt lat="45.24044120807098" lon="9.497102877478158"><ele>69.5</ele><time>2026-04-18T14:41:23Z</time></trkpt><trkpt lat="45.240621934762075" lon="9.496872868813336"><ele>69.0</ele><time>2026-04-18T14:41:24Z</time></trkpt><trkpt lat="45.24079582565155" lon="9.49664024135484"><ele>69.0</ele><time>2026-04-18T14:41:25Z</time></trkpt><trkpt lat="45.24097124654018" lon="9.49640265553031"><ele>69.0</ele><time>2026-04-18T14:41:26Z</time></trkpt><trkpt lat="45.24114670218158" lon="9.496166556242075"><ele>69.0</ele><time>2026-04-18T14:41:27Z</time></trkpt><trkpt lat="45.24132168665789" lon="9.49593358177937"><ele>69.0</ele><time>2026-04-18T14:41:28Z</time></trkpt><trkpt lat="45.241493720316754" lon="9.495707004960488"><ele>69.0</ele><time>2026-04-18T14:41:29Z</time></trkpt><trkpt lat="45.24166065953314" lon="9.495478841654496"><ele>69.0</ele><time>2026-04-18T14:41:30Z</time></trkpt><trkpt lat="45.24183463054607" lon="9.495248419393182"><ele>69.0</ele><time>2026-04-18T14:41:31Z</time></trkpt><trkpt lat="45.24200883250828" lon="9.49502384348531"><ele>69.0</ele><time>2026-04-18T14:41:32Z</time></trkpt><trkpt lat="45.242183931954344" lon="9.494803042084563"><ele>69.0</ele><time>2026-04-18T14:41:33Z</time></trkpt><trkpt lat="45.24236228890613" lon="9.494574619005178"><ele>69.0</ele><time>2026-04-18T14:41:34Z</time></trkpt><trkpt lat="45.24253277519119" lon="9.494351587730897"><ele>69.0</ele><time>2026-04-18T14:41:35Z</time></trkpt><trkpt lat="45.24270570035463" lon="9.49413153738295"><ele>69.0</ele><time>2026-04-18T14:41:36Z</time></trkpt><trkpt lat="45.242878926613585" lon="9.493905573351025"><ele>69.5</ele><time>2026-04-18T14:41:37Z</time></trkpt><trkpt lat="45.243051639622074" lon="9.493677159489076"><ele>70.0</ele><time>2026-04-18T14:41:38Z</time></trkpt><trkpt lat="45.24322265853482" lon="9.49345203204595"><ele>70.0</ele><time>2026-04-18T14:41:39Z</time></trkpt><trkpt lat="45.24339373591593" lon="9.493228715080718"><ele>70.0</ele><time>2026-04-18T14:41:40Z</time></trkpt><trkpt lat="45.24356701376688" lon="9.492998532904995"><ele>71.0</ele><time>2026-04-18T14:41:41Z</time></trkpt><trkpt lat="45.24373760295965" lon="9.49277414441145"><ele>72.0</ele><time>2026-04-18T14:41:42Z</time></trkpt><trkpt lat="45.243911492235085" lon="9.492544326810009"><ele>71.5</ele><time>2026-04-18T14:41:43Z</time></trkpt><trkpt lat="45.2440857349212" lon="9.49231846945188"><ele>71.0</ele><time>2026-04-18T14:41:44Z</time></trkpt><trkpt lat="45.24425773524382" lon="9.49208942296398"><ele>70.5</ele><time>2026-04-18T14:41:45Z</time></trkpt><trkpt lat="45.24443455928524" lon="9.491855935222901"><ele>70.0</ele><time>2026-04-18T14:41:46Z</time></trkpt><trkpt lat="45.24460854439454" lon="9.491624131747631"><ele>70.0</ele><time>2026-04-18T14:41:47Z</time></trkpt><trkpt lat="45.244778906151616" lon="9.491404501374236"><ele>70.0</ele><time>2026-04-18T14:41:48.001Z</time></trkpt><trkpt lat="45.24495894736596" lon="9.49116694411632"><ele>69.5</ele><time>2026-04-18T14:41:49.001Z</time></trkpt><trkpt lat="45.24513694553174" lon="9.490932836930545"><ele>69.0</ele><time>2026-04-18T14:41:50.001Z</time></trkpt><trkpt lat="45.24531651745079" lon="9.490695981758165"><ele>69.0</ele><time>2026-04-18T14:41:51.001Z</time></trkpt><trkpt lat="45.24549540874919" lon="9.490457372700556"><ele>69.0</ele><time>2026-04-18T14:41:52.001Z</time></trkpt><trkpt lat="45.24567626912867" lon="9.490215709080887"><ele>69.5</ele><time>2026-04-18T14:41:53.001Z</time></trkpt><trkpt lat="45.245857389250226" lon="9.489976192740428"><ele>70.0</ele><time>2026-04-18T14:41:54.001Z</time></trkpt><trkpt lat="45.24604227946594" lon="9.489734355886286"><ele>70.5</ele><time>2026-04-18T14:41:55.001Z</time></trkpt><trkpt lat="45.246231123459495" lon="9.489488384980685"><ele>71.0</ele><time>2026-04-18T14:41:56.001Z</time></trkpt><trkpt lat="45.246419799713806" lon="9.489240864561838"><ele>71.5</ele><time>2026-04-18T14:41:57.001Z</time></trkpt><trkpt lat="45.24661344477068" lon="9.488993527907295"><ele>72.0</ele><time>2026-04-18T14:41:58.001Z</time></trkpt><trkpt lat="45.24680688796221" lon="9.48874014344814"><ele>72.0</ele><time>2026-04-18T14:41:59.001Z</time></trkpt><trkpt lat="45.24700436434935" lon="9.4884792334995"><ele>72.0</ele><time>2026-04-18T14:42:00.001Z</time></trkpt><trkpt lat="45.24719384019424" lon="9.488231075501028"><ele>71.0</ele><time>2026-04-18T14:42:01.001Z</time></trkpt><trkpt lat="45.24738566205484" lon="9.487978400519657"><ele>70.0</ele><time>2026-04-18T14:42:02.001Z</time></trkpt><trkpt lat="45.24757661173365" lon="9.48772952160872"><ele>70.0</ele><time>2026-04-18T14:42:03.001Z</time></trkpt><trkpt lat="45.24776979904029" lon="9.487473584139558"><ele>70.0</ele><time>2026-04-18T14:42:04.001Z</time></trkpt><trkpt lat="45.24796029820304" lon="9.487228711907267"><ele>69.5</ele><time>2026-04-18T14:42:05.001Z</time></trkpt><trkpt lat="45.248153460341385" lon="9.486970696711635"><ele>69.0</ele><time>2026-04-18T14:42:06.001Z</time></trkpt><trkpt lat="45.248344310476796" lon="9.486722517136203"><ele>69.0</ele><time>2026-04-18T14:42:07.001Z</time></trkpt><trkpt lat="45.248534520683144" lon="9.486467194732846"><ele>69.0</ele><time>2026-04-18T14:42:08.001Z</time></trkpt><trkpt lat="45.24872329712175" lon="9.486218929172878"><ele>69.0</ele><time>2026-04-18T14:42:09.001Z</time></trkpt><trkpt lat="45.248914869867306" lon="9.485966081130098"><ele>69.0</ele><time>2026-04-18T14:42:10.001Z</time></trkpt><trkpt lat="45.249104593116506" lon="9.485719472930672"><ele>69.0</ele><time>2026-04-18T14:42:11.001Z</time></trkpt><trkpt lat="45.249295903049884" lon="9.485466208486892"><ele>69.0</ele><time>2026-04-18T14:42:12.001Z</time></trkpt><trkpt lat="45.249487568575745" lon="9.4852140337019"><ele>69.0</ele><time>2026-04-18T14:42:13.001Z</time></trkpt><trkpt lat="45.249676351210454" lon="9.48496494618368"><ele>69.0</ele><time>2026-04-18T14:42:14.001Z</time></trkpt><trkpt lat="45.24986619712223" lon="9.484716463678675"><ele>69.5</ele><time>2026-04-18T14:42:15.001Z</time></trkpt><trkpt lat="45.250053725235695" lon="9.48447431090527"><ele>70.0</ele><time>2026-04-18T14:42:16.001Z</time></trkpt><trkpt lat="45.25024213464387" lon="9.484228807305712"><ele>70.0</ele><time>2026-04-18T14:42:17.001Z</time></trkpt><trkpt lat="45.25042965456366" lon="9.483982901991249"><ele>70.0</ele><time>2026-04-18T14:42:18.001Z</time></trkpt><trkpt lat="45.25062100774534" lon="9.483729381394733"><ele>70.5</ele><time>2026-04-18T14:42:19.001Z</time></trkpt><trkpt lat="45.25081131353543" lon="9.483479183368836"><ele>71.0</ele><time>2026-04-18T14:42:20.001Z</time></trkpt><trkpt lat="45.251000283427736" lon="9.48323077354191"><ele>71.0</ele><time>2026-04-18T14:42:21.002Z</time></trkpt><trkpt lat="45.25118997283477" lon="9.482981467888647"><ele>71.0</ele><time>2026-04-18T14:42:22.002Z</time></trkpt><trkpt lat="45.25137662568812" lon="9.482736141024406"><ele>70.5</ele><time>2026-04-18T14:42:23.002Z</time></trkpt><trkpt lat="45.251565119540636" lon="9.482487515968819"><ele>70.0</ele><time>2026-04-18T14:42:24.002Z</time></trkpt><trkpt lat="45.251752679066755" lon="9.482241791705368"><ele>70.5</ele><time>2026-04-18T14:42:25.002Z</time></trkpt><trkpt lat="45.25194047020757" lon="9.481992757880722"><ele>71.0</ele><time>2026-04-18T14:42:26.002Z</time></trkpt><trkpt lat="45.2521244257786" lon="9.481752865708643"><ele>70.5</ele><time>2026-04-18T14:42:27.002Z</time></trkpt><trkpt lat="45.252311020153485" lon="9.481509869004132"><ele>70.0</ele><time>2026-04-18T14:42:28.002Z</time></trkpt><trkpt lat="45.25249771916494" lon="9.481265912576744"><ele>70.5</ele><time>2026-04-18T14:42:29.002Z</time></trkpt><trkpt lat="45.252682861736346" lon="9.48102137029091"><ele>71.0</ele><time>2026-04-18T14:42:30.002Z</time></trkpt><trkpt lat="45.25286933611326" lon="9.48077546784722"><ele>71.0</ele><time>2026-04-18T14:42:31.002Z</time></trkpt><trkpt lat="45.25305574461619" lon="9.480529199387153"><ele>71.0</ele><time>2026-04-18T14:42:32.002Z</time></trkpt><trkpt lat="45.253241262704414" lon="9.480279580734502"><ele>71.0</ele><time>2026-04-18T14:42:33.002Z</time></trkpt><trkpt lat="45.253426251839485" lon="9.480035979579386"><ele>71.0</ele><time>2026-04-18T14:42:34.002Z</time></trkpt><trkpt lat="45.25361335170869" lon="9.479790035473235"><ele>71.0</ele><time>2026-04-18T14:42:35.002Z</time></trkpt><trkpt lat="45.25380095965542" lon="9.479542350619766"><ele>71.0</ele><time>2026-04-18T14:42:36.002Z</time></trkpt><trkpt lat="45.253987808253434" lon="9.479294480912921"><ele>71.5</ele><time>2026-04-18T14:42:37.002Z</time></trkpt><trkpt lat="45.254173310088" lon="9.479050101536592"><ele>72.0</ele><time>2026-04-18T14:42:38.002Z</time></trkpt><trkpt lat="45.25436109286168" lon="9.478800960976548"><ele>72.0</ele><time>2026-04-18T14:42:39.002Z</time></trkpt><trkpt lat="45.25454965690479" lon="9.478553530676988"><ele>72.0</ele><time>2026-04-18T14:42:40.002Z</time></trkpt><trkpt lat="45.25473914597403" lon="9.478306223559587"><ele>72.0</ele><time>2026-04-18T14:42:41.002Z</time></trkpt><trkpt lat="45.254927565600696" lon="9.478061187347473"><ele>72.0</ele><time>2026-04-18T14:42:42.002Z</time></trkpt><trkpt lat="45.2551148703746" lon="9.47781531239888"><ele>72.0</ele><time>2026-04-18T14:42:43.002Z</time></trkpt><trkpt lat="45.25529762989022" lon="9.477573203893296"><ele>72.0</ele><time>2026-04-18T14:42:44.002Z</time></trkpt><trkpt lat="45.25549030245271" lon="9.477321633348259"><ele>71.0</ele><time>2026-04-18T14:42:45.002Z</time></trkpt><trkpt lat="45.25567697179698" lon="9.47707440203973"><ele>70.0</ele><time>2026-04-18T14:42:46.002Z</time></trkpt><trkpt lat="45.25586696269006" lon="9.476827361444007"><ele>70.0</ele><time>2026-04-18T14:42:47.002Z</time></trkpt><trkpt lat="45.25605493416778" lon="9.476582270145983"><ele>70.0</ele><time>2026-04-18T14:42:48.002Z</time></trkpt><trkpt lat="45.25624509642899" lon="9.47633138400966"><ele>70.0</ele><time>2026-04-18T14:42:49.002Z</time></trkpt><trkpt lat="45.256430246549485" lon="9.476084156157222"><ele>70.0</ele><time>2026-04-18T14:42:50.002Z</time></trkpt><trkpt lat="45.2566189368324" lon="9.475833746092919"><ele>70.0</ele><time>2026-04-18T14:42:51.002Z</time></trkpt><trkpt lat="45.256807295085046" lon="9.475586693494707"><ele>70.0</ele><time>2026-04-18T14:42:52.002Z</time></trkpt><trkpt lat="45.256995688558014" lon="9.475340798291157"><ele>70.0</ele><time>2026-04-18T14:42:53.002Z</time></trkpt><trkpt lat="45.257185155921476" lon="9.475093244759119"><ele>70.0</ele><time>2026-04-18T14:42:54.003Z</time></trkpt><trkpt lat="45.25737634305677" lon="9.474841992405304"><ele>70.0</ele><time>2026-04-18T14:42:55.003Z</time></trkpt><trkpt lat="45.257566554712845" lon="9.47459181007807"><ele>70.0</ele><time>2026-04-18T14:42:56.003Z</time></trkpt><trkpt lat="45.25775974877679" lon="9.474338872940132"><ele>70.0</ele><time>2026-04-18T14:42:57.003Z</time></trkpt><trkpt lat="45.2579532433447" lon="9.474087211623672"><ele>70.0</ele><time>2026-04-18T14:42:58.003Z</time></trkpt><trkpt lat="45.258145566451915" lon="9.47383714326295"><ele>70.5</ele><time>2026-04-18T14:42:59.003Z</time></trkpt><trkpt lat="45.258337929262176" lon="9.473584623583589"><ele>71.0</ele><time>2026-04-18T14:43:00.003Z</time></trkpt><trkpt lat="45.25853074562467" lon="9.473332792024072"><ele>71.0</ele><time>2026-04-18T14:43:01.003Z</time></trkpt><trkpt lat="45.2587232177014" lon="9.473080862027349"><ele>71.0</ele><time>2026-04-18T14:43:02.003Z</time></trkpt><trkpt lat="45.258916193209295" lon="9.472827580631236"><ele>70.0</ele><time>2026-04-18T14:43:03.003Z</time></trkpt><trkpt lat="45.25910827845586" lon="9.47257338053789"><ele>69.0</ele><time>2026-04-18T14:43:04.003Z</time></trkpt><trkpt lat="45.25930120515203" lon="9.472318671482721"><ele>69.0</ele><time>2026-04-18T14:43:05.003Z</time></trkpt><trkpt lat="45.25949315827376" lon="9.472066452953415"><ele>69.0</ele><time>2026-04-18T14:43:06.003Z</time></trkpt><trkpt lat="45.259684294161055" lon="9.471814975438933"><ele>69.5</ele><time>2026-04-18T14:43:07.003Z</time></trkpt><trkpt lat="45.259875690032764" lon="9.471563343972532"><ele>70.0</ele><time>2026-04-18T14:43:08.003Z</time></trkpt><trkpt lat="45.26006499451931" lon="9.471312954643246"><ele>70.5</ele><time>2026-04-18T14:43:09.003Z</time></trkpt><trkpt lat="45.260256175069095" lon="9.47105916589821"><ele>71.0</ele><time>2026-04-18T14:43:10.003Z</time></trkpt><trkpt lat="45.2604467431228" lon="9.47080901849144"><ele>71.0</ele><time>2026-04-18T14:43:11.003Z</time></trkpt><trkpt lat="45.26063539393331" lon="9.470561889682989"><ele>71.0</ele><time>2026-04-18T14:43:12.003Z</time></trkpt><trkpt lat="45.26082525607631" lon="9.470314122529896"><ele>71.0</ele><time>2026-04-18T14:43:13.003Z</time></trkpt><trkpt lat="45.26101861555801" lon="9.470055695807675"><ele>71.0</ele><time>2026-04-18T14:43:14.003Z</time></trkpt><trkpt lat="45.26120786855134" lon="9.469805751284358"><ele>71.5</ele><time>2026-04-18T14:43:15.003Z</time></trkpt><trkpt lat="45.26139343416919" lon="9.469558646917553"><ele>72.0</ele><time>2026-04-18T14:43:16.003Z</time></trkpt><trkpt lat="45.26158049650603" lon="9.469311598537072"><ele>72.0</ele><time>2026-04-18T14:43:17.003Z</time></trkpt><trkpt lat="45.2617686483818" lon="9.469063102902153"><ele>72.0</ele><time>2026-04-18T14:43:18.003Z</time></trkpt><trkpt lat="45.26195576378909" lon="9.468815613422816"><ele>72.5</ele><time>2026-04-18T14:43:19.003Z</time></trkpt><trkpt lat="45.26214455871244" lon="9.468568988419868"><ele>73.0</ele><time>2026-04-18T14:43:20.003Z</time></trkpt><trkpt lat="45.262334988667625" lon="9.468318335158193"><ele>73.0</ele><time>2026-04-18T14:43:21.003Z</time></trkpt><trkpt lat="45.262522883441854" lon="9.468071077524854"><ele>73.0</ele><time>2026-04-18T14:43:22.003Z</time></trkpt><trkpt lat="45.26271096681897" lon="9.467819556187834"><ele>73.0</ele><time>2026-04-18T14:43:23.003Z</time></trkpt><trkpt lat="45.26290150045039" lon="9.467564343635603"><ele>73.0</ele><time>2026-04-18T14:43:24Z</time></trkpt><trkpt lat="45.26308647425385" lon="9.467323116968904"><ele>74.0</ele><time>2026-04-18T14:43:25Z</time></trkpt><trkpt lat="45.26327672327471" lon="9.467075188197473"><ele>75.0</ele><time>2026-04-18T14:43:26Z</time></trkpt><trkpt lat="45.26346439640622" lon="9.466830041497031"><ele>75.0</ele><time>2026-04-18T14:43:27Z</time></trkpt><trkpt lat="45.26365797401436" lon="9.466576501735997"><ele>75.0</ele><time>2026-04-18T14:43:28Z</time></trkpt><trkpt lat="45.263855192802005" lon="9.466335591286509"><ele>73.5</ele><time>2026-04-18T14:43:29Z</time></trkpt><trkpt lat="45.26403856292032" lon="9.466078935394664"><ele>72.0</ele><time>2026-04-18T14:43:30Z</time></trkpt><trkpt lat="45.26422577170693" lon="9.465832899892744"><ele>72.0</ele><time>2026-04-18T14:43:31Z</time></trkpt><trkpt lat="45.26441428765663" lon="9.465585329869365"><ele>72.0</ele><time>2026-04-18T14:43:32Z</time></trkpt><trkpt lat="45.26460412175612" lon="9.465339110047564"><ele>71.5</ele><time>2026-04-18T14:43:33Z</time></trkpt><trkpt lat="45.2647978120377" lon="9.465084935965297"><ele>71.0</ele><time>2026-04-18T14:43:34Z</time></trkpt><trkpt lat="45.264985765756364" lon="9.464839375650548"><ele>72.0</ele><time>2026-04-18T14:43:35Z</time></trkpt><trkpt lat="45.26517484324642" lon="9.464591366796189"><ele>73.0</ele><time>2026-04-18T14:43:36Z</time></trkpt><trkpt lat="45.26536177767232" lon="9.464343677646545"><ele>73.0</ele><time>2026-04-18T14:43:37Z</time></trkpt><trkpt lat="45.26554697141474" lon="9.464094828699947"><ele>73.0</ele><time>2026-04-18T14:43:38Z</time></trkpt><trkpt lat="45.26573108376987" lon="9.463848340370324"><ele>72.5</ele><time>2026-04-18T14:43:39Z</time></trkpt><trkpt lat="45.26591430049415" lon="9.463604062809699"><ele>72.0</ele><time>2026-04-18T14:43:40Z</time></trkpt><trkpt lat="45.26609735974884" lon="9.46336238542532"><ele>72.0</ele><time>2026-04-18T14:43:41Z</time></trkpt><trkpt lat="45.266284395435235" lon="9.463121183426603"><ele>72.0</ele><time>2026-04-18T14:43:42Z</time></trkpt><trkpt lat="45.26646940625437" lon="9.462883741225795"><ele>72.5</ele><time>2026-04-18T14:43:43Z</time></trkpt><trkpt lat="45.26664841810801" lon="9.462645663650534"><ele>73.0</ele><time>2026-04-18T14:43:44Z</time></trkpt><trkpt lat="45.26682865693346" lon="9.462404335379754"><ele>73.0</ele><time>2026-04-18T14:43:45Z</time></trkpt><trkpt lat="45.26700990272355" lon="9.46216316703579"><ele>73.0</ele><time>2026-04-18T14:43:46Z</time></trkpt><trkpt lat="45.267190541753905" lon="9.461926383882076"><ele>72.5</ele><time>2026-04-18T14:43:47Z</time></trkpt><trkpt lat="45.267369124907624" lon="9.461691748945698"><ele>72.0</ele><time>2026-04-18T14:43:48Z</time></trkpt><trkpt lat="45.26754642132982" lon="9.461456317501684"><ele>72.5</ele><time>2026-04-18T14:43:49Z</time></trkpt><trkpt lat="45.26772256515492" lon="9.461220953520371"><ele>73.0</ele><time>2026-04-18T14:43:50Z</time></trkpt><trkpt lat="45.26789829272795" lon="9.460985701181494"><ele>73.0</ele><time>2026-04-18T14:43:51Z</time></trkpt><trkpt lat="45.26807552277672" lon="9.460750188599087"><ele>73.0</ele><time>2026-04-18T14:43:52Z</time></trkpt><trkpt lat="45.26824764679739" lon="9.460521058828302"><ele>73.5</ele><time>2026-04-18T14:43:53Z</time></trkpt><trkpt lat="45.268422400769694" lon="9.460283553235477"><ele>74.0</ele><time>2026-04-18T14:43:54Z</time></trkpt><trkpt lat="45.26859870618325" lon="9.460045528026928"><ele>74.0</ele><time>2026-04-18T14:43:55.001Z</time></trkpt><trkpt lat="45.26877247573101" lon="9.459804453808728"><ele>74.0</ele><time>2026-04-18T14:43:56.001Z</time></trkpt><trkpt lat="45.26894410912805" lon="9.45956212110229"><ele>73.0</ele><time>2026-04-18T14:43:57.001Z</time></trkpt><trkpt lat="45.26911670554783" lon="9.459323189053004"><ele>72.0</ele><time>2026-04-18T14:43:58.001Z</time></trkpt><trkpt lat="45.2692902002946" lon="9.459082002744001"><ele>72.0</ele><time>2026-04-18T14:43:59.001Z</time></trkpt><trkpt lat="45.269462296325074" lon="9.458840886742685"><ele>72.0</ele><time>2026-04-18T14:44:00.001Z</time></trkpt><trkpt lat="45.269633350519626" lon="9.458601061457372"><ele>72.0</ele><time>2026-04-18T14:44:01.001Z</time></trkpt><trkpt lat="45.269804660382476" lon="9.458357518603373"><ele>72.0</ele><time>2026-04-18T14:44:02.001Z</time></trkpt><trkpt lat="45.2699743168074" lon="9.458112392920398"><ele>73.5</ele><time>2026-04-18T14:44:03.001Z</time></trkpt><trkpt lat="45.2701415707764" lon="9.457866090000097"><ele>75.0</ele><time>2026-04-18T14:44:04.001Z</time></trkpt><trkpt lat="45.27030928201589" lon="9.45761969847066"><ele>75.0</ele><time>2026-04-18T14:44:05.001Z</time></trkpt><trkpt lat="45.27047724284791" lon="9.457375227328436"><ele>75.0</ele><time>2026-04-18T14:44:06.001Z</time></trkpt><trkpt lat="45.270646241274754" lon="9.457126572640446"><ele>74.0</ele><time>2026-04-18T14:44:07.001Z</time></trkpt><trkpt lat="45.270815767528916" lon="9.456877991308538"><ele>73.0</ele><time>2026-04-18T14:44:08.001Z</time></trkpt><trkpt lat="45.27098674238251" lon="9.456629787194494"><ele>73.0</ele><time>2026-04-18T14:44:09.001Z</time></trkpt><trkpt lat="45.2711511037645" lon="9.456382563550944"><ele>73.0</ele><time>2026-04-18T14:44:10.001Z</time></trkpt><trkpt lat="45.27131702137341" lon="9.456131444495957"><ele>73.0</ele><time>2026-04-18T14:44:11.001Z</time></trkpt><trkpt lat="45.271483865158814" lon="9.455881092791056"><ele>73.0</ele><time>2026-04-18T14:44:12.001Z</time></trkpt><trkpt lat="45.27165096985377" lon="9.45563237094002"><ele>73.5</ele><time>2026-04-18T14:44:13.001Z</time></trkpt><trkpt lat="45.27181421282051" lon="9.455384969847994"><ele>74.0</ele><time>2026-04-18T14:44:14.001Z</time></trkpt><trkpt lat="45.27197820099439" lon="9.455133475226164"><ele>74.0</ele><time>2026-04-18T14:44:15.001Z</time></trkpt><trkpt lat="45.27214116264448" lon="9.454881614896259"><ele>74.0</ele><time>2026-04-18T14:44:16.001Z</time></trkpt><trkpt lat="45.27230404094642" lon="9.454627733618441"><ele>73.5</ele><time>2026-04-18T14:44:17.001Z</time></trkpt><trkpt lat="45.27246575706248" lon="9.454373254820535"><ele>73.0</ele><time>2026-04-18T14:44:18.001Z</time></trkpt><trkpt lat="45.27262280463552" lon="9.45412153290085"><ele>73.0</ele><time>2026-04-18T14:44:19.001Z</time></trkpt><trkpt lat="45.272783378884185" lon="9.45386442444212"><ele>73.0</ele><time>2026-04-18T14:44:20.001Z</time></trkpt><trkpt lat="45.27294307903738" lon="9.45360806683876"><ele>74.0</ele><time>2026-04-18T14:44:21.001Z</time></trkpt><trkpt lat="45.27310175905565" lon="9.453353320633942"><ele>75.0</ele><time>2026-04-18T14:44:22.001Z</time></trkpt><trkpt lat="45.273266027217254" lon="9.45309073724623"><ele>74.5</ele><time>2026-04-18T14:44:23.001Z</time></trkpt><trkpt lat="45.27342944140174" lon="9.452830641970795"><ele>74.0</ele><time>2026-04-18T14:44:24.001Z</time></trkpt><trkpt lat="45.273592361234726" lon="9.452571798009798"><ele>74.0</ele><time>2026-04-18T14:44:25.001Z</time></trkpt><trkpt lat="45.27375853274688" lon="9.452307397539146"><ele>74.0</ele><time>2026-04-18T14:44:26.001Z</time></trkpt><trkpt lat="45.27392267927818" lon="9.452043340093553"><ele>74.5</ele><time>2026-04-18T14:44:27.001Z</time></trkpt><trkpt lat="45.27408156729562" lon="9.451777975507728"><ele>75.0</ele><time>2026-04-18T14:44:28.002Z</time></trkpt><trkpt lat="45.274247180393445" lon="9.451502233485279"><ele>75.0</ele><time>2026-04-18T14:44:29.002Z</time></trkpt><trkpt lat="45.27441255775018" lon="9.451226900274854"><ele>75.0</ele><time>2026-04-18T14:44:30.002Z</time></trkpt><trkpt lat="45.27457513112246" lon="9.450953004285134"><ele>75.0</ele><time>2026-04-18T14:44:31.002Z</time></trkpt><trkpt lat="45.27473812733154" lon="9.450680565265563"><ele>75.0</ele><time>2026-04-18T14:44:32.002Z</time></trkpt><trkpt lat="45.27490409763402" lon="9.450405025239125"><ele>76.0</ele><time>2026-04-18T14:44:33.002Z</time></trkpt><trkpt lat="45.275071628605644" lon="9.45012601680521"><ele>77.0</ele><time>2026-04-18T14:44:34.002Z</time></trkpt><trkpt lat="45.275242871465245" lon="9.449844846235248"><ele>76.0</ele><time>2026-04-18T14:44:35.002Z</time></trkpt><trkpt lat="45.27541623070539" lon="9.44955787096304"><ele>75.0</ele><time>2026-04-18T14:44:36.002Z</time></trkpt><trkpt lat="45.27558912577381" lon="9.449270989179286"><ele>75.5</ele><time>2026-04-18T14:44:37.002Z</time></trkpt><trkpt lat="45.275762234983866" lon="9.448979448743332"><ele>76.0</ele><time>2026-04-18T14:44:38.002Z</time></trkpt><trkpt lat="45.27593466602668" lon="9.448691175553694"><ele>77.0</ele><time>2026-04-18T14:44:39.002Z</time></trkpt><trkpt lat="45.276107518377415" lon="9.448403028642758"><ele>78.0</ele><time>2026-04-18T14:44:40.002Z</time></trkpt><trkpt lat="45.27628028080389" lon="9.448114154497329"><ele>76.0</ele><time>2026-04-18T14:44:41.002Z</time></trkpt><trkpt lat="45.276451551512466" lon="9.447823286407717"><ele>74.0</ele><time>2026-04-18T14:44:42.002Z</time></trkpt><trkpt lat="45.27662076390694" lon="9.447537021119292"><ele>74.0</ele><time>2026-04-18T14:44:43.002Z</time></trkpt><trkpt lat="45.27679057874531" lon="9.447253194981865"><ele>74.0</ele><time>2026-04-18T14:44:44.002Z</time></trkpt><trkpt lat="45.276964124807456" lon="9.446969439969873"><ele>74.0</ele><time>2026-04-18T14:44:45.002Z</time></trkpt><trkpt lat="45.277137794790214" lon="9.446688773438265"><ele>74.0</ele><time>2026-04-18T14:44:46.002Z</time></trkpt><trkpt lat="45.27730838838854" lon="9.44640992776217"><ele>73.5</ele><time>2026-04-18T14:44:47.002Z</time></trkpt><trkpt lat="45.27747532095124" lon="9.446131236529776"><ele>73.0</ele><time>2026-04-18T14:44:48.002Z</time></trkpt><trkpt lat="45.27764112155294" lon="9.445851932032529"><ele>73.0</ele><time>2026-04-18T14:44:49.002Z</time></trkpt><trkpt lat="45.2778085914516" lon="9.445573830140845"><ele>73.0</ele><time>2026-04-18T14:44:50.002Z</time></trkpt><trkpt lat="45.277976674952974" lon="9.445296033352259"><ele>73.0</ele><time>2026-04-18T14:44:51.002Z</time></trkpt><trkpt lat="45.27814175389301" lon="9.445021825461497"><ele>73.0</ele><time>2026-04-18T14:44:52.002Z</time></trkpt><trkpt lat="45.278311303342804" lon="9.4447364600522"><ele>73.5</ele><time>2026-04-18T14:44:53.002Z</time></trkpt><trkpt lat="45.27847782904282" lon="9.44446129171572"><ele>74.0</ele><time>2026-04-18T14:44:54.002Z</time></trkpt><trkpt lat="45.27864438897984" lon="9.444186815316137"><ele>74.0</ele><time>2026-04-18T14:44:55.002Z</time></trkpt><trkpt lat="45.27881636546097" lon="9.443912644272476"><ele>74.0</ele><time>2026-04-18T14:44:56.002Z</time></trkpt><trkpt lat="45.278981509127064" lon="9.443626078658866"><ele>73.5</ele><time>2026-04-18T14:44:57.002Z</time></trkpt><trkpt lat="45.279151085657986" lon="9.443352058009873"><ele>73.0</ele><time>2026-04-18T14:44:58.002Z</time></trkpt><trkpt lat="45.27932081163537" lon="9.443066848346628"><ele>73.0</ele><time>2026-04-18T14:44:59.002Z</time></trkpt><trkpt lat="45.279490305830905" lon="9.442781494791143"><ele>73.0</ele><time>2026-04-18T14:45:00.002Z</time></trkpt><trkpt lat="45.279659787018886" lon="9.442497501801546"><ele>73.0</ele><time>2026-04-18T14:45:01.003Z</time></trkpt><trkpt lat="45.27983035824724" lon="9.44221505260152"><ele>73.0</ele><time>2026-04-18T14:45:02.003Z</time></trkpt><trkpt lat="45.280003692028714" lon="9.441926808668043"><ele>73.0</ele><time>2026-04-18T14:45:03.003Z</time></trkpt><trkpt lat="45.2801747579417" lon="9.441640808373597"><ele>73.0</ele><time>2026-04-18T14:45:04.003Z</time></trkpt><trkpt lat="45.28034518793039" lon="9.44135408396617"><ele>73.0</ele><time>2026-04-18T14:45:05.003Z</time></trkpt><trkpt lat="45.28051625099996" lon="9.441067854878655"><ele>73.0</ele><time>2026-04-18T14:45:06.003Z</time></trkpt><trkpt lat="45.280688755297305" lon="9.440783915301214"><ele>73.0</ele><time>2026-04-18T14:45:07.003Z</time></trkpt><trkpt lat="45.2808613296" lon="9.440501198629335"><ele>73.0</ele><time>2026-04-18T14:45:08.003Z</time></trkpt><trkpt lat="45.28103365677804" lon="9.440212868453148"><ele>73.0</ele><time>2026-04-18T14:45:09.003Z</time></trkpt><trkpt lat="45.28120488154223" lon="9.43992682575566"><ele>73.0</ele><time>2026-04-18T14:45:10.003Z</time></trkpt><trkpt lat="45.281375734978596" lon="9.43964309501644"><ele>73.0</ele><time>2026-04-18T14:45:11.003Z</time></trkpt><trkpt lat="45.28154847143591" lon="9.439354679788979"><ele>73.0</ele><time>2026-04-18T14:45:12.003Z</time></trkpt><trkpt lat="45.28172203251474" lon="9.43906714750804"><ele>73.0</ele><time>2026-04-18T14:45:13.003Z</time></trkpt><trkpt lat="45.2818944549998" lon="9.438783104259496"><ele>73.0</ele><time>2026-04-18T14:45:14.003Z</time></trkpt><trkpt lat="45.28206598340767" lon="9.438502334513133"><ele>73.0</ele><time>2026-04-18T14:45:15.003Z</time></trkpt><trkpt lat="45.28223960808928" lon="9.438217262637682"><ele>73.0</ele><time>2026-04-18T14:45:16.003Z</time></trkpt><trkpt lat="45.282409862075156" lon="9.437935307028637"><ele>73.5</ele><time>2026-04-18T14:45:17.003Z</time></trkpt><trkpt lat="45.28258112086283" lon="9.437648980934933"><ele>74.0</ele><time>2026-04-18T14:45:18.003Z</time></trkpt><trkpt lat="45.28274941331546" lon="9.4373692810501"><ele>74.0</ele><time>2026-04-18T14:45:19.003Z</time></trkpt><trkpt lat="45.28291702871859" lon="9.43709241700635"><ele>74.0</ele><time>2026-04-18T14:45:20.003Z</time></trkpt><trkpt lat="45.283087282661896" lon="9.436810476676351"><ele>74.5</ele><time>2026-04-18T14:45:21.003Z</time></trkpt><trkpt lat="45.283252692701424" lon="9.43653663678197"><ele>75.0</ele><time>2026-04-18T14:45:22.003Z</time></trkpt><trkpt lat="45.283420562048065" lon="9.436259020432813"><ele>75.0</ele><time>2026-04-18T14:45:23.003Z</time></trkpt><trkpt lat="45.283588070577075" lon="9.435980502397499"><ele>75.0</ele><time>2026-04-18T14:45:24.003Z</time></trkpt><trkpt lat="45.28375293442166" lon="9.435702062962166"><ele>75.0</ele><time>2026-04-18T14:45:25.003Z</time></trkpt><trkpt lat="45.28391613972479" lon="9.435425414729153"><ele>75.0</ele><time>2026-04-18T14:45:26.003Z</time></trkpt><trkpt lat="45.284080187021836" lon="9.435147881696539"><ele>74.5</ele><time>2026-04-18T14:45:27.003Z</time></trkpt><trkpt lat="45.28424545644403" lon="9.434871355795465"><ele>74.0</ele><time>2026-04-18T14:45:28.003Z</time></trkpt><trkpt lat="45.28441173999264" lon="9.434594949677397"><ele>73.5</ele><time>2026-04-18T14:45:29.003Z</time></trkpt><trkpt lat="45.284577783291766" lon="9.434314118881597"><ele>73.0</ele><time>2026-04-18T14:45:30Z</time></trkpt><trkpt lat="45.28474298267073" lon="9.434036808831058"><ele>74.5</ele><time>2026-04-18T14:45:31Z</time></trkpt><trkpt lat="45.28491038705822" lon="9.433752496752614"><ele>76.0</ele><time>2026-04-18T14:45:32Z</time></trkpt><trkpt lat="45.28507724086467" lon="9.433462230508137"><ele>76.0</ele><time>2026-04-18T14:45:33Z</time></trkpt><trkpt lat="45.28524181011176" lon="9.433176606982475"><ele>76.0</ele><time>2026-04-18T14:45:34Z</time></trkpt><trkpt lat="45.28540570550916" lon="9.43289369542971"><ele>76.0</ele><time>2026-04-18T14:45:35Z</time></trkpt><trkpt lat="45.28557150118074" lon="9.432610081967361"><ele>76.0</ele><time>2026-04-18T14:45:36Z</time></trkpt><trkpt lat="45.28573771929744" lon="9.43233226951568"><ele>75.5</ele><time>2026-04-18T14:45:37Z</time></trkpt><trkpt lat="45.28590939175625" lon="9.432049066109322"><ele>75.0</ele><time>2026-04-18T14:45:38Z</time></trkpt><trkpt lat="45.28607827488006" lon="9.431770266388478"><ele>75.0</ele><time>2026-04-18T14:45:39Z</time></trkpt><trkpt lat="45.28624797941349" lon="9.431493826556467"><ele>75.0</ele><time>2026-04-18T14:45:40Z</time></trkpt><trkpt lat="45.28641733665266" lon="9.431219004376292"><ele>74.5</ele><time>2026-04-18T14:45:41Z</time></trkpt><trkpt lat="45.28658821413688" lon="9.430938322410165"><ele>74.0</ele><time>2026-04-18T14:45:42Z</time></trkpt><trkpt lat="45.28675893715908" lon="9.43065535320459"><ele>75.5</ele><time>2026-04-18T14:45:43Z</time></trkpt><trkpt lat="45.28692513346843" lon="9.430368866977135"><ele>77.0</ele><time>2026-04-18T14:45:44Z</time></trkpt><trkpt lat="45.28708599270267" lon="9.430079559729252"><ele>77.0</ele><time>2026-04-18T14:45:45Z</time></trkpt><trkpt lat="45.28724532691679" lon="9.429790765966866"><ele>77.0</ele><time>2026-04-18T14:45:46Z</time></trkpt><trkpt lat="45.287406055706676" lon="9.429498599173085"><ele>78.5</ele><time>2026-04-18T14:45:47Z</time></trkpt><trkpt lat="45.28756773888496" lon="9.42920937061622"><ele>80.0</ele><time>2026-04-18T14:45:48Z</time></trkpt><trkpt lat="45.28772871766483" lon="9.428921581004575"><ele>79.0</ele><time>2026-04-18T14:45:49Z</time></trkpt><trkpt lat="45.287891916813116" lon="9.428621263690605"><ele>78.0</ele><time>2026-04-18T14:45:50Z</time></trkpt><trkpt lat="45.288053040918605" lon="9.428333745054099"><ele>77.5</ele><time>2026-04-18T14:45:51Z</time></trkpt><trkpt lat="45.28821297644564" lon="9.428044600106203"><ele>77.0</ele><time>2026-04-18T14:45:52Z</time></trkpt><trkpt lat="45.28837499239096" lon="9.427754138941633"><ele>77.0</ele><time>2026-04-18T14:45:53Z</time></trkpt><trkpt lat="45.28854068081747" lon="9.42746770845814"><ele>77.0</ele><time>2026-04-18T14:45:54Z</time></trkpt><trkpt lat="45.288704680434975" lon="9.427179635670408"><ele>77.0</ele><time>2026-04-18T14:45:55Z</time></trkpt><trkpt lat="45.28886687068772" lon="9.426889445930165"><ele>77.0</ele><time>2026-04-18T14:45:56Z</time></trkpt><trkpt lat="45.28902806222528" lon="9.426597829025965"><ele>77.0</ele><time>2026-04-18T14:45:57Z</time></trkpt><trkpt lat="45.2891894611215" lon="9.426307503707921"><ele>77.0</ele><time>2026-04-18T14:45:58Z</time></trkpt><trkpt lat="45.28935015846479" lon="9.426017132365374"><ele>77.0</ele><time>2026-04-18T14:45:59Z</time></trkpt><trkpt lat="45.28950968477091" lon="9.425730766945774"><ele>77.0</ele><time>2026-04-18T14:46:00Z</time></trkpt><trkpt lat="45.28967457620448" lon="9.425440035931407"><ele>76.5</ele><time>2026-04-18T14:46:01Z</time></trkpt><trkpt lat="45.289834340235686" lon="9.425158639748963"><ele>76.0</ele><time>2026-04-18T14:46:02Z</time></trkpt><trkpt lat="45.28999609327446" lon="9.42487200818363"><ele>76.0</ele><time>2026-04-18T14:46:03.001Z</time></trkpt><trkpt lat="45.29016026973916" lon="9.424579371201267"><ele>76.0</ele><time>2026-04-18T14:46:04.001Z</time></trkpt><trkpt lat="45.290325578314" lon="9.424282753137884"><ele>76.0</ele><time>2026-04-18T14:46:05.001Z</time></trkpt><trkpt lat="45.29048981955891" lon="9.423987449043663"><ele>76.0</ele><time>2026-04-18T14:46:06.001Z</time></trkpt><trkpt lat="45.290652820742906" lon="9.423693903901043"><ele>76.0</ele><time>2026-04-18T14:46:07.001Z</time></trkpt><trkpt lat="45.2908179439089" lon="9.423400553181377"><ele>76.0</ele><time>2026-04-18T14:46:08.001Z</time></trkpt><trkpt lat="45.29098321172581" lon="9.423106159169892"><ele>76.0</ele><time>2026-04-18T14:46:09.001Z</time></trkpt><trkpt lat="45.29114806070797" lon="9.422810573359229"><ele>76.0</ele><time>2026-04-18T14:46:10.001Z</time></trkpt><trkpt lat="45.29131350680199" lon="9.422514424047412"><ele>76.0</ele><time>2026-04-18T14:46:11.001Z</time></trkpt><trkpt lat="45.291481328559016" lon="9.422215748562774"><ele>76.0</ele><time>2026-04-18T14:46:12.001Z</time></trkpt><trkpt lat="45.29164802291125" lon="9.421920998616155"><ele>76.0</ele><time>2026-04-18T14:46:13.001Z</time></trkpt><trkpt lat="45.29181304586952" lon="9.421626145114015"><ele>76.0</ele><time>2026-04-18T14:46:14.001Z</time></trkpt><trkpt lat="45.29197920693329" lon="9.421331081399211"><ele>76.0</ele><time>2026-04-18T14:46:15.001Z</time></trkpt><trkpt lat="45.29214426587255" lon="9.421036261936415"><ele>76.0</ele><time>2026-04-18T14:46:16.001Z</time></trkpt><trkpt lat="45.2923089285177" lon="9.42073964528776"><ele>75.5</ele><time>2026-04-18T14:46:17.001Z</time></trkpt><trkpt lat="45.292472784533985" lon="9.42044105327705"><ele>75.0</ele><time>2026-04-18T14:46:18.001Z</time></trkpt><trkpt lat="45.2926366008245" lon="9.420141757013246"><ele>75.0</ele><time>2026-04-18T14:46:19.001Z</time></trkpt><trkpt lat="45.29280334382091" lon="9.419845592646633"><ele>75.0</ele><time>2026-04-18T14:46:20.001Z</time></trkpt><trkpt lat="45.292971797248256" lon="9.419550319313778"><ele>75.5</ele><time>2026-04-18T14:46:21.001Z</time></trkpt><trkpt lat="45.29314004574388" lon="9.419256961502143"><ele>76.0</ele><time>2026-04-18T14:46:22.001Z</time></trkpt><trkpt lat="45.29330656234811" lon="9.418966037710987"><ele>75.5</ele><time>2026-04-18T14:46:23.001Z</time></trkpt><trkpt lat="45.29347320373077" lon="9.418675937076225"><ele>75.0</ele><time>2026-04-18T14:46:24.001Z</time></trkpt><trkpt lat="45.293639131335965" lon="9.418390459154779"><ele>75.0</ele><time>2026-04-18T14:46:25.001Z</time></trkpt><trkpt lat="45.293804300425506" lon="9.418104344721012"><ele>75.0</ele><time>2026-04-18T14:46:26.001Z</time></trkpt><trkpt lat="45.29397003449065" lon="9.417816653121733"><ele>76.0</ele><time>2026-04-18T14:46:27.001Z</time></trkpt><trkpt lat="45.294136221314695" lon="9.417528896652167"><ele>77.0</ele><time>2026-04-18T14:46:28.001Z</time></trkpt><trkpt lat="45.29430241252335" lon="9.417243807571554"><ele>76.5</ele><time>2026-04-18T14:46:29.001Z</time></trkpt><trkpt lat="45.29446630277737" lon="9.416964154226543"><ele>76.0</ele><time>2026-04-18T14:46:30.001Z</time></trkpt><trkpt lat="45.29463630587838" lon="9.4166809790323"><ele>76.0</ele><time>2026-04-18T14:46:31.001Z</time></trkpt><trkpt lat="45.29480602167759" lon="9.41640167121877"><ele>76.0</ele><time>2026-04-18T14:46:32.001Z</time></trkpt><trkpt lat="45.294971869899484" lon="9.416128349528671"><ele>76.5</ele><time>2026-04-18T14:46:33.001Z</time></trkpt><trkpt lat="45.29514105534049" lon="9.415852228943717"><ele>77.0</ele><time>2026-04-18T14:46:34.001Z</time></trkpt><trkpt lat="45.295308379797405" lon="9.415576944277783"><ele>76.5</ele><time>2026-04-18T14:46:35.002Z</time></trkpt><trkpt lat="45.295474767099186" lon="9.415303613374416"><ele>76.0</ele><time>2026-04-18T14:46:36.002Z</time></trkpt><trkpt lat="45.295641115983855" lon="9.415032680900838"><ele>76.0</ele><time>2026-04-18T14:46:37.002Z</time></trkpt><trkpt lat="45.295807350715755" lon="9.414761195202772"><ele>76.0</ele><time>2026-04-18T14:46:38.002Z</time></trkpt><trkpt lat="45.29597427749398" lon="9.4144895482696"><ele>76.0</ele><time>2026-04-18T14:46:39.002Z</time></trkpt><trkpt lat="45.2961415467098" lon="9.414219651335411"><ele>76.0</ele><time>2026-04-18T14:46:40.002Z</time></trkpt><trkpt lat="45.29630974569246" lon="9.413952179018906"><ele>77.0</ele><time>2026-04-18T14:46:41.002Z</time></trkpt><trkpt lat="45.29647783126228" lon="9.413687515810151"><ele>78.0</ele><time>2026-04-18T14:46:42.002Z</time></trkpt><trkpt lat="45.29664609373783" lon="9.413424549447788"><ele>78.0</ele><time>2026-04-18T14:46:43.002Z</time></trkpt><trkpt lat="45.29681495930061" lon="9.413160580114706"><ele>78.0</ele><time>2026-04-18T14:46:44.002Z</time></trkpt><trkpt lat="45.296984251850795" lon="9.412898781583207"><ele>78.5</ele><time>2026-04-18T14:46:45.002Z</time></trkpt><trkpt lat="45.29715502437771" lon="9.412637401887697"><ele>79.0</ele><time>2026-04-18T14:46:46.002Z</time></trkpt><trkpt lat="45.297324452608706" lon="9.41237667036279"><ele>78.0</ele><time>2026-04-18T14:46:47.002Z</time></trkpt><trkpt lat="45.2974923603475" lon="9.41211696288747"><ele>77.0</ele><time>2026-04-18T14:46:48.002Z</time></trkpt><trkpt lat="45.29766068941561" lon="9.411858924646744"><ele>77.0</ele><time>2026-04-18T14:46:49.002Z</time></trkpt><trkpt lat="45.29782947386241" lon="9.41160314643324"><ele>77.0</ele><time>2026-04-18T14:46:50.002Z</time></trkpt><trkpt lat="45.29800151449607" lon="9.411344765338276"><ele>78.0</ele><time>2026-04-18T14:46:51.002Z</time></trkpt><trkpt lat="45.298174353360714" lon="9.411087948279421"><ele>79.0</ele><time>2026-04-18T14:46:52.002Z</time></trkpt><trkpt lat="45.29834785555363" lon="9.410831082171745"><ele>79.0</ele><time>2026-04-18T14:46:53.002Z</time></trkpt><trkpt lat="45.29852105873695" lon="9.410576087070519"><ele>79.0</ele><time>2026-04-18T14:46:54.002Z</time></trkpt><trkpt lat="45.29869637560961" lon="9.41031928930036"><ele>78.0</ele><time>2026-04-18T14:46:55.002Z</time></trkpt><trkpt lat="45.298870903767884" lon="9.410066589188768"><ele>77.0</ele><time>2026-04-18T14:46:56.002Z</time></trkpt><trkpt lat="45.29904702586121" lon="9.40981492949779"><ele>77.5</ele><time>2026-04-18T14:46:57.002Z</time></trkpt><trkpt lat="45.299222449857766" lon="9.40956480896617"><ele>78.0</ele><time>2026-04-18T14:46:58.002Z</time></trkpt><trkpt lat="45.29939852297656" lon="9.409312450533132"><ele>78.0</ele><time>2026-04-18T14:46:59.002Z</time></trkpt><trkpt lat="45.29957508935769" lon="9.409057670971775"><ele>78.0</ele><time>2026-04-18T14:47:00.002Z</time></trkpt><trkpt lat="45.29975322811441" lon="9.408802194266688"><ele>79.0</ele><time>2026-04-18T14:47:01.002Z</time></trkpt><trkpt lat="45.29993028232656" lon="9.408548389694914"><ele>80.0</ele><time>2026-04-18T14:47:02.002Z</time></trkpt><trkpt lat="45.30010963353394" lon="9.408296230312708"><ele>80.0</ele><time>2026-04-18T14:47:03.002Z</time></trkpt><trkpt lat="45.300287086049785" lon="9.408046903775587"><ele>80.0</ele><time>2026-04-18T14:47:04.002Z</time></trkpt><trkpt lat="45.300469114008074" lon="9.407792862729705"><ele>80.0</ele><time>2026-04-18T14:47:05.002Z</time></trkpt><trkpt lat="45.30065053463563" lon="9.407541535457892"><ele>80.0</ele><time>2026-04-18T14:47:06.002Z</time></trkpt><trkpt lat="45.300831732647445" lon="9.407290097606529"><ele>80.0</ele><time>2026-04-18T14:47:07.002Z</time></trkpt><trkpt lat="45.30101416780709" lon="9.407037513890113"><ele>80.0</ele><time>2026-04-18T14:47:08.002Z</time></trkpt><trkpt lat="45.30119557544302" lon="9.406785251660068"><ele>80.0</ele><time>2026-04-18T14:47:09.003Z</time></trkpt><trkpt lat="45.30137786278492" lon="9.406534280382978"><ele>80.0</ele><time>2026-04-18T14:47:10.003Z</time></trkpt><trkpt lat="45.30156435646981" lon="9.406281276275784"><ele>79.5</ele><time>2026-04-18T14:47:11.003Z</time></trkpt><trkpt lat="45.30175095545448" lon="9.406026023179676"><ele>79.0</ele><time>2026-04-18T14:47:12.003Z</time></trkpt><trkpt lat="45.30193546963011" lon="9.405771419659397"><ele>79.0</ele><time>2026-04-18T14:47:13.003Z</time></trkpt><trkpt lat="45.302120573858716" lon="9.405520332875184"><ele>79.0</ele><time>2026-04-18T14:47:14.003Z</time></trkpt><trkpt lat="45.302313328707456" lon="9.405263121970474"><ele>79.5</ele><time>2026-04-18T14:47:15.003Z</time></trkpt><trkpt lat="45.30250299161936" lon="9.405003012685674"><ele>80.0</ele><time>2026-04-18T14:47:16.003Z</time></trkpt><trkpt lat="45.30268417562701" lon="9.404744344679353"><ele>79.5</ele><time>2026-04-18T14:47:17.003Z</time></trkpt><trkpt lat="45.302854025784676" lon="9.404496259165825"><ele>79.0</ele><time>2026-04-18T14:47:18.003Z</time></trkpt><trkpt lat="45.30301725147646" lon="9.404252916039407"><ele>79.0</ele><time>2026-04-18T14:47:19.003Z</time></trkpt><trkpt lat="45.303150516488586" lon="9.404036465585556"><ele>79.0</ele><time>2026-04-18T14:47:20.003Z</time></trkpt><trkpt lat="45.30325930227607" lon="9.403836057348911"><ele>79.0</ele><time>2026-04-18T14:47:21.003Z</time></trkpt><trkpt lat="45.30359920941287" lon="9.403468880665162"><ele>79.0</ele><time>2026-04-18T14:47:22.003Z</time></trkpt><trkpt lat="45.303782629205045" lon="9.40320804787245"><ele>79.0</ele><time>2026-04-18T14:47:23.003Z</time></trkpt><trkpt lat="45.303964784561224" lon="9.40294530522619"><ele>79.0</ele><time>2026-04-18T14:47:24.003Z</time></trkpt><trkpt lat="45.30414861052968" lon="9.402680690689593"><ele>79.0</ele><time>2026-04-18T14:47:25.003Z</time></trkpt><trkpt lat="45.30433064214589" lon="9.402418793762497"><ele>80.0</ele><time>2026-04-18T14:47:26.003Z</time></trkpt><trkpt lat="45.304511087436495" lon="9.402152836857097"><ele>81.0</ele><time>2026-04-18T14:47:27.003Z</time></trkpt><trkpt lat="45.304690921289115" lon="9.40188454847112"><ele>80.0</ele><time>2026-04-18T14:47:28.003Z</time></trkpt><trkpt lat="45.304874156338734" lon="9.401614010236944"><ele>79.0</ele><time>2026-04-18T14:47:29.003Z</time></trkpt><trkpt lat="45.305054932446254" lon="9.401340309355284"><ele>80.0</ele><time>2026-04-18T14:47:30.003Z</time></trkpt><trkpt lat="45.305234247790146" lon="9.401063710442301"><ele>81.0</ele><time>2026-04-18T14:47:31.003Z</time></trkpt><trkpt lat="45.30541211360659" lon="9.400789173451768"><ele>81.0</ele><time>2026-04-18T14:47:32.003Z</time></trkpt><trkpt lat="45.30559047741041" lon="9.400515011918914"><ele>81.0</ele><time>2026-04-18T14:47:33.003Z</time></trkpt><trkpt lat="45.30576819329746" lon="9.400240065098291"><ele>81.0</ele><time>2026-04-18T14:47:34.003Z</time></trkpt><trkpt lat="45.30594941100198" lon="9.399967302261901"><ele>81.0</ele><time>2026-04-18T14:47:35.003Z</time></trkpt><trkpt lat="45.306127756057386" lon="9.399690668322386"><ele>81.0</ele><time>2026-04-18T14:47:35.999Z</time></trkpt><trkpt lat="45.306308343062334" lon="9.399414753350325"><ele>81.0</ele><time>2026-04-18T14:47:36.999Z</time></trkpt><trkpt lat="45.30649056917633" lon="9.399141301826791"><ele>81.5</ele><time>2026-04-18T14:47:38Z</time></trkpt><trkpt lat="45.306670628335546" lon="9.398870395581026"><ele>82.0</ele><time>2026-04-18T14:47:39Z</time></trkpt><trkpt lat="45.306849058732034" lon="9.398596212086899"><ele>82.0</ele><time>2026-04-18T14:47:40Z</time></trkpt><trkpt lat="45.307026313882446" lon="9.398314552332096"><ele>82.0</ele><time>2026-04-18T14:47:41Z</time></trkpt><trkpt lat="45.307208434162995" lon="9.398044460241481"><ele>81.0</ele><time>2026-04-18T14:47:42Z</time></trkpt><trkpt lat="45.30738764271628" lon="9.397770270859986"><ele>80.0</ele><time>2026-04-18T14:47:43Z</time></trkpt><trkpt lat="45.307568905187416" lon="9.397493274238846"><ele>80.0</ele><time>2026-04-18T14:47:44Z</time></trkpt><trkpt lat="45.30775011808986" lon="9.397218710236814"><ele>80.0</ele><time>2026-04-18T14:47:45Z</time></trkpt><trkpt lat="45.30792874998917" lon="9.396944148730025"><ele>80.5</ele><time>2026-04-18T14:47:46Z</time></trkpt><trkpt lat="45.30811057092928" lon="9.396668121461671"><ele>81.0</ele><time>2026-04-18T14:47:47Z</time></trkpt><trkpt lat="45.308289799411455" lon="9.396389445312547"><ele>81.0</ele><time>2026-04-18T14:47:48Z</time></trkpt><trkpt lat="45.30846714431616" lon="9.396113182688167"><ele>81.0</ele><time>2026-04-18T14:47:49Z</time></trkpt><trkpt lat="45.30864884556553" lon="9.395833701699413"><ele>81.0</ele><time>2026-04-18T14:47:50Z</time></trkpt><trkpt lat="45.308830620803484" lon="9.395558644644058"><ele>81.0</ele><time>2026-04-18T14:47:51Z</time></trkpt><trkpt lat="45.30901007243842" lon="9.395285038963458"><ele>80.5</ele><time>2026-04-18T14:47:52Z</time></trkpt><trkpt lat="45.30918792252107" lon="9.39500905970069"><ele>80.0</ele><time>2026-04-18T14:47:53Z</time></trkpt><trkpt lat="45.30936653000253" lon="9.394736620980872"><ele>80.5</ele><time>2026-04-18T14:47:54Z</time></trkpt><trkpt lat="45.30954523479431" lon="9.394464127505216"><ele>81.0</ele><time>2026-04-18T14:47:55Z</time></trkpt><trkpt lat="45.30972785816416" lon="9.394187434180873"><ele>81.0</ele><time>2026-04-18T14:47:56Z</time></trkpt><trkpt lat="45.30990485350392" lon="9.393916801109633"><ele>81.0</ele><time>2026-04-18T14:47:57Z</time></trkpt><trkpt lat="45.31008121981031" lon="9.393643125479581"><ele>81.0</ele><time>2026-04-18T14:47:58Z</time></trkpt><trkpt lat="45.310261639100965" lon="9.39337554604472"><ele>81.0</ele><time>2026-04-18T14:47:59Z</time></trkpt><trkpt lat="45.31043825061935" lon="9.393096887723003"><ele>81.0</ele><time>2026-04-18T14:48:00Z</time></trkpt><trkpt lat="45.31061293350261" lon="9.392823337063936"><ele>81.0</ele><time>2026-04-18T14:48:01Z</time></trkpt><trkpt lat="45.310798032656116" lon="9.392545545180338"><ele>81.0</ele><time>2026-04-18T14:48:02Z</time></trkpt><trkpt lat="45.31098180328086" lon="9.392263033952078"><ele>81.0</ele><time>2026-04-18T14:48:03Z</time></trkpt><trkpt lat="45.311162680593306" lon="9.391982650538711"><ele>80.5</ele><time>2026-04-18T14:48:04Z</time></trkpt><trkpt lat="45.31134000263398" lon="9.391707560866976"><ele>80.0</ele><time>2026-04-18T14:48:05Z</time></trkpt><trkpt lat="45.311523137887825" lon="9.391425710562908"><ele>80.0</ele><time>2026-04-18T14:48:06Z</time></trkpt><trkpt lat="45.311705865760885" lon="9.391151049181193"><ele>80.0</ele><time>2026-04-18T14:48:07Z</time></trkpt><trkpt lat="45.311891447500074" lon="9.390867113349765"><ele>80.0</ele><time>2026-04-18T14:48:08Z</time></trkpt><trkpt lat="45.31207406648027" lon="9.39058840200828"><ele>80.0</ele><time>2026-04-18T14:48:09.001Z</time></trkpt><trkpt lat="45.31225572194821" lon="9.390307716680404"><ele>80.0</ele><time>2026-04-18T14:48:10.001Z</time></trkpt><trkpt lat="45.3124382086697" lon="9.390033681093644"><ele>80.0</ele><time>2026-04-18T14:48:11.001Z</time></trkpt><trkpt lat="45.312616045569804" lon="9.389753954768922"><ele>80.5</ele><time>2026-04-18T14:48:12.001Z</time></trkpt><trkpt lat="45.31279407196005" lon="9.389476798709985"><ele>81.0</ele><time>2026-04-18T14:48:13.001Z</time></trkpt><trkpt lat="45.31297618306133" lon="9.389196779374664"><ele>80.5</ele><time>2026-04-18T14:48:14.001Z</time></trkpt><trkpt lat="45.31315862224616" lon="9.388919901664439"><ele>80.0</ele><time>2026-04-18T14:48:15.001Z</time></trkpt><trkpt lat="45.31333874418036" lon="9.388648270765295"><ele>81.0</ele><time>2026-04-18T14:48:16.001Z</time></trkpt><trkpt lat="45.31351911874916" lon="9.388372632257152"><ele>82.0</ele><time>2026-04-18T14:48:17.001Z</time></trkpt><trkpt lat="45.31369601324766" lon="9.388098295161457"><ele>81.5</ele><time>2026-04-18T14:48:18.001Z</time></trkpt><trkpt lat="45.313874094949014" lon="9.387821678963752"><ele>81.0</ele><time>2026-04-18T14:48:19.001Z</time></trkpt><trkpt lat="45.31405065742325" lon="9.387554296986375"><ele>81.0</ele><time>2026-04-18T14:48:20.001Z</time></trkpt><trkpt lat="45.31422597278364" lon="9.38727844559202"><ele>81.0</ele><time>2026-04-18T14:48:21.001Z</time></trkpt><trkpt lat="45.314403461632544" lon="9.387010033782985"><ele>80.5</ele><time>2026-04-18T14:48:22.001Z</time></trkpt><trkpt lat="45.314581667655105" lon="9.386742840778329"><ele>80.0</ele><time>2026-04-18T14:48:23.001Z</time></trkpt><trkpt lat="45.31475493270446" lon="9.386471974980177"><ele>80.0</ele><time>2026-04-18T14:48:24.001Z</time></trkpt><trkpt lat="45.31492732939253" lon="9.386175234042234"><ele>80.0</ele><time>2026-04-18T14:48:25.001Z</time></trkpt><trkpt lat="45.31510248788121" lon="9.385929577470556"><ele>80.0</ele><time>2026-04-18T14:48:26.001Z</time></trkpt><trkpt lat="45.31528287313913" lon="9.385663943913135"><ele>80.0</ele><time>2026-04-18T14:48:27.001Z</time></trkpt><trkpt lat="45.315455956194896" lon="9.385398795384665"><ele>80.5</ele><time>2026-04-18T14:48:28.001Z</time></trkpt><trkpt lat="45.315633733460466" lon="9.385126083539252"><ele>81.0</ele><time>2026-04-18T14:48:29.001Z</time></trkpt><trkpt lat="45.31580848446379" lon="9.384859661475234"><ele>81.0</ele><time>2026-04-18T14:48:30.001Z</time></trkpt><trkpt lat="45.31598227265609" lon="9.384592261311589"><ele>81.0</ele><time>2026-04-18T14:48:31.001Z</time></trkpt><trkpt lat="45.31616138857557" lon="9.38432552354247"><ele>81.0</ele><time>2026-04-18T14:48:32.001Z</time></trkpt><trkpt lat="45.316336814135" lon="9.384053352533153"><ele>81.0</ele><time>2026-04-18T14:48:33.001Z</time></trkpt><trkpt lat="45.31651275152466" lon="9.383778821763123"><ele>81.5</ele><time>2026-04-18T14:48:34.001Z</time></trkpt><trkpt lat="45.31668887671162" lon="9.383508223212045"><ele>82.0</ele><time>2026-04-18T14:48:35.001Z</time></trkpt><trkpt lat="45.31687953201188" lon="9.383242437763524"><ele>82.0</ele><time>2026-04-18T14:48:36.001Z</time></trkpt><trkpt lat="45.31707585465954" lon="9.382985757384407"><ele>82.0</ele><time>2026-04-18T14:48:37.001Z</time></trkpt><trkpt lat="45.31723227761093" lon="9.38269278375973"><ele>82.0</ele><time>2026-04-18T14:48:38.001Z</time></trkpt><trkpt lat="45.31740946407042" lon="9.382418319072801"><ele>82.0</ele><time>2026-04-18T14:48:39.002Z</time></trkpt><trkpt lat="45.31758525902387" lon="9.382148714981216"><ele>82.0</ele><time>2026-04-18T14:48:40.002Z</time></trkpt><trkpt lat="45.31776135580635" lon="9.381875922322791"><ele>82.0</ele><time>2026-04-18T14:48:41.002Z</time></trkpt><trkpt lat="45.31793877821973" lon="9.381603615162277"><ele>82.5</ele><time>2026-04-18T14:48:42.002Z</time></trkpt><trkpt lat="45.31811542190336" lon="9.381334859718336"><ele>83.0</ele><time>2026-04-18T14:48:43.002Z</time></trkpt><trkpt lat="45.318293613576685" lon="9.381061967424717"><ele>83.0</ele><time>2026-04-18T14:48:44.002Z</time></trkpt><trkpt lat="45.31846409699441" lon="9.380798457283118"><ele>83.0</ele><time>2026-04-18T14:48:45.002Z</time></trkpt><trkpt lat="45.318631827642854" lon="9.380529803939936"><ele>82.5</ele><time>2026-04-18T14:48:46.002Z</time></trkpt><trkpt lat="45.31881252814053" lon="9.380264536975313"><ele>82.0</ele><time>2026-04-18T14:48:47.002Z</time></trkpt><trkpt lat="45.318984098095505" lon="9.379998772938052"><ele>83.0</ele><time>2026-04-18T14:48:48.002Z</time></trkpt><trkpt lat="45.319158244255" lon="9.379733299609299"><ele>84.0</ele><time>2026-04-18T14:48:49.002Z</time></trkpt><trkpt lat="45.31933159398521" lon="9.379464319902931"><ele>84.0</ele><time>2026-04-18T14:48:50.002Z</time></trkpt><trkpt lat="45.3195046016331" lon="9.379197024861833"><ele>84.0</ele><time>2026-04-18T14:48:51.002Z</time></trkpt><trkpt lat="45.31967548822929" lon="9.37893112287442"><ele>84.0</ele><time>2026-04-18T14:48:52.002Z</time></trkpt><trkpt lat="45.319850828466464" lon="9.378665089813754"><ele>84.0</ele><time>2026-04-18T14:48:53.002Z</time></trkpt><trkpt lat="45.32002297061437" lon="9.378397409292349"><ele>84.0</ele><time>2026-04-18T14:48:54.002Z</time></trkpt><trkpt lat="45.32019604110157" lon="9.378134222439924"><ele>84.0</ele><time>2026-04-18T14:48:55.002Z</time></trkpt><trkpt lat="45.3203728913954" lon="9.377871269420817"><ele>84.0</ele><time>2026-04-18T14:48:56.002Z</time></trkpt><trkpt lat="45.32054696309254" lon="9.377606593294516"><ele>84.0</ele><time>2026-04-18T14:48:57.002Z</time></trkpt><trkpt lat="45.32072208964373" lon="9.377335400294175"><ele>84.5</ele><time>2026-04-18T14:48:58.002Z</time></trkpt><trkpt lat="45.32089845638405" lon="9.377065235357316"><ele>85.0</ele><time>2026-04-18T14:48:59.002Z</time></trkpt><trkpt lat="45.32107205848205" lon="9.376803828433497"><ele>85.0</ele><time>2026-04-18T14:49:00.002Z</time></trkpt><trkpt lat="45.32124901021132" lon="9.376537075173283"><ele>85.0</ele><time>2026-04-18T14:49:01.002Z</time></trkpt><trkpt lat="45.32141804653486" lon="9.376270110442961"><ele>84.5</ele><time>2026-04-18T14:49:02.002Z</time></trkpt><trkpt lat="45.32159288911336" lon="9.375998392378026"><ele>84.0</ele><time>2026-04-18T14:49:03.002Z</time></trkpt><trkpt lat="45.321768313950564" lon="9.375729681311817"><ele>84.0</ele><time>2026-04-18T14:49:04.002Z</time></trkpt><trkpt lat="45.32194508972369" lon="9.375460475136977"><ele>84.0</ele><time>2026-04-18T14:49:05.002Z</time></trkpt><trkpt lat="45.32212054157962" lon="9.375192729787594"><ele>84.0</ele><time>2026-04-18T14:49:06.002Z</time></trkpt><trkpt lat="45.32229383576565" lon="9.374924507566812"><ele>84.0</ele><time>2026-04-18T14:49:07.002Z</time></trkpt><trkpt lat="45.322469910959555" lon="9.374654138032705"><ele>84.0</ele><time>2026-04-18T14:49:08.002Z</time></trkpt><trkpt lat="45.32264203149766" lon="9.374387656900645"><ele>84.0</ele><time>2026-04-18T14:49:09.002Z</time></trkpt><trkpt lat="45.32281572719304" lon="9.374120569669945"><ele>83.5</ele><time>2026-04-18T14:49:10.002Z</time></trkpt><trkpt lat="45.322995739865576" lon="9.373848251530008"><ele>83.0</ele><time>2026-04-18T14:49:11.002Z</time></trkpt><trkpt lat="45.32317025169136" lon="9.373581695747575"><ele>83.0</ele><time>2026-04-18T14:49:12.003Z</time></trkpt><trkpt lat="45.323344880925085" lon="9.373315115603887"><ele>83.0</ele><time>2026-04-18T14:49:13.003Z</time></trkpt><trkpt lat="45.32351915548155" lon="9.373048300636853"><ele>82.5</ele><time>2026-04-18T14:49:14.003Z</time></trkpt><trkpt lat="45.32369270096726" lon="9.372780838030847"><ele>82.0</ele><time>2026-04-18T14:49:15.003Z</time></trkpt><trkpt lat="45.323866771614526" lon="9.37251201531755"><ele>83.5</ele><time>2026-04-18T14:49:16.003Z</time></trkpt><trkpt lat="45.32403957959479" lon="9.372245507676833"><ele>85.0</ele><time>2026-04-18T14:49:17.003Z</time></trkpt><trkpt lat="45.324211894722644" lon="9.371980147278146"><ele>85.0</ele><time>2026-04-18T14:49:18.003Z</time></trkpt><trkpt lat="45.32438169680112" lon="9.371713858142796"><ele>85.0</ele><time>2026-04-18T14:49:19.003Z</time></trkpt><trkpt lat="45.32455809545655" lon="9.371449695979415"><ele>83.5</ele><time>2026-04-18T14:49:20.003Z</time></trkpt><trkpt lat="45.324737163417495" lon="9.371188145385672"><ele>82.0</ele><time>2026-04-18T14:49:21.003Z</time></trkpt><trkpt lat="45.32491088961511" lon="9.37091649950492"><ele>82.0</ele><time>2026-04-18T14:49:22.003Z</time></trkpt><trkpt lat="45.32508418216323" lon="9.370643671552685"><ele>82.0</ele><time>2026-04-18T14:49:23.003Z</time></trkpt><trkpt lat="45.325261045867464" lon="9.370370842004547"><ele>82.0</ele><time>2026-04-18T14:49:24.003Z</time></trkpt><trkpt lat="45.32543383012362" lon="9.370109833534615"><ele>82.0</ele><time>2026-04-18T14:49:25.003Z</time></trkpt><trkpt lat="45.32560831354031" lon="9.369841368834502"><ele>82.5</ele><time>2026-04-18T14:49:26.003Z</time></trkpt><trkpt lat="45.325783635135664" lon="9.369573257277723"><ele>83.0</ele><time>2026-04-18T14:49:27.003Z</time></trkpt><trkpt lat="45.32596147689457" lon="9.36929990296511"><ele>83.0</ele><time>2026-04-18T14:49:28.003Z</time></trkpt><trkpt lat="45.32613629185156" lon="9.369022728459491"><ele>83.0</ele><time>2026-04-18T14:49:29.003Z</time></trkpt><trkpt lat="45.32631162676195" lon="9.368748271211757"><ele>82.0</ele><time>2026-04-18T14:49:30.003Z</time></trkpt><trkpt lat="45.32648948921888" lon="9.36848381199413"><ele>81.0</ele><time>2026-04-18T14:49:31.003Z</time></trkpt><trkpt lat="45.32666783329106" lon="9.36821435254402"><ele>82.0</ele><time>2026-04-18T14:49:32.003Z</time></trkpt><trkpt lat="45.32684028285823" lon="9.367947610294706"><ele>83.0</ele><time>2026-04-18T14:49:33.003Z</time></trkpt><trkpt lat="45.3270107823008" lon="9.367677895396321"><ele>83.0</ele><time>2026-04-18T14:49:34.003Z</time></trkpt><trkpt lat="45.32718810955516" lon="9.367409254080174"><ele>83.0</ele><time>2026-04-18T14:49:35.003Z</time></trkpt><trkpt lat="45.32736794059018" lon="9.367137424173814"><ele>83.0</ele><time>2026-04-18T14:49:36.003Z</time></trkpt><trkpt lat="45.327542668687194" lon="9.366866332269012"><ele>83.0</ele><time>2026-04-18T14:49:37.003Z</time></trkpt><trkpt lat="45.327718871758854" lon="9.366594813992593"><ele>83.0</ele><time>2026-04-18T14:49:38.003Z</time></trkpt><trkpt lat="45.32789527739429" lon="9.3663299173242"><ele>83.0</ele><time>2026-04-18T14:49:39.003Z</time></trkpt><trkpt lat="45.3280701222155" lon="9.366061027433098"><ele>83.0</ele><time>2026-04-18T14:49:40.003Z</time></trkpt><trkpt lat="45.328240662672776" lon="9.36579553880557"><ele>83.0</ele><time>2026-04-18T14:49:41.003Z</time></trkpt><trkpt lat="45.32841235035969" lon="9.36552754699536"><ele>83.0</ele><time>2026-04-18T14:49:42Z</time></trkpt><trkpt lat="45.328588746622636" lon="9.365261088257157"><ele>83.0</ele><time>2026-04-18T14:49:43Z</time></trkpt><trkpt lat="45.32876499650396" lon="9.364994265391388"><ele>84.0</ele><time>2026-04-18T14:49:44Z</time></trkpt><trkpt lat="45.3289410741555" lon="9.36472464853887"><ele>85.0</ele><time>2026-04-18T14:49:45Z</time></trkpt><trkpt lat="45.32911640505514" lon="9.364451607557053"><ele>85.0</ele><time>2026-04-18T14:49:46Z</time></trkpt><trkpt lat="45.32929391621035" lon="9.364181533444778"><ele>85.0</ele><time>2026-04-18T14:49:47Z</time></trkpt><trkpt lat="45.329472807455396" lon="9.363913874528574"><ele>85.0</ele><time>2026-04-18T14:49:48Z</time></trkpt><trkpt lat="45.329649291877494" lon="9.363639663888321"><ele>85.0</ele><time>2026-04-18T14:49:49Z</time></trkpt><trkpt lat="45.32982840313394" lon="9.363359346928602"><ele>85.0</ele><time>2026-04-18T14:49:50Z</time></trkpt><trkpt lat="45.3300094535643" lon="9.363081695749845"><ele>85.0</ele><time>2026-04-18T14:49:51Z</time></trkpt><trkpt lat="45.330190701896946" lon="9.362808530597256"><ele>85.5</ele><time>2026-04-18T14:49:52Z</time></trkpt><trkpt lat="45.33036825221117" lon="9.36253522914861"><ele>86.0</ele><time>2026-04-18T14:49:53Z</time></trkpt><trkpt lat="45.33054373703757" lon="9.362255765040924"><ele>86.0</ele><time>2026-04-18T14:49:54Z</time></trkpt><trkpt lat="45.33071625276621" lon="9.361975671484505"><ele>86.0</ele><time>2026-04-18T14:49:55Z</time></trkpt><trkpt lat="45.33089043266484" lon="9.361690888961023"><ele>86.0</ele><time>2026-04-18T14:49:56Z</time></trkpt><trkpt lat="45.331061027531604" lon="9.361401098607299"><ele>86.0</ele><time>2026-04-18T14:49:57Z</time></trkpt><trkpt lat="45.33123141563213" lon="9.361114449183859"><ele>85.5</ele><time>2026-04-18T14:49:58Z</time></trkpt><trkpt lat="45.33139566612978" lon="9.36081878109829"><ele>85.0</ele><time>2026-04-18T14:49:59Z</time></trkpt><trkpt lat="45.33155530486116" lon="9.360519328749934"><ele>84.0</ele><time>2026-04-18T14:50:00Z</time></trkpt><trkpt lat="45.33171542265852" lon="9.360223302034262"><ele>83.0</ele><time>2026-04-18T14:50:01Z</time></trkpt><trkpt lat="45.33187398700939" lon="9.359921549884278"><ele>83.5</ele><time>2026-04-18T14:50:02Z</time></trkpt><trkpt lat="45.33202667773553" lon="9.3596166112039"><ele>84.0</ele><time>2026-04-18T14:50:03Z</time></trkpt><trkpt lat="45.3321785478781" lon="9.359309781242478"><ele>84.0</ele><time>2026-04-18T14:50:04Z</time></trkpt><trkpt lat="45.33233135406642" lon="9.359003225692044"><ele>84.0</ele><time>2026-04-18T14:50:05Z</time></trkpt><trkpt lat="45.332476590769545" lon="9.358693788623048"><ele>84.5</ele><time>2026-04-18T14:50:06Z</time></trkpt><trkpt lat="45.33262115138593" lon="9.358381413502514"><ele>85.0</ele><time>2026-04-18T14:50:07Z</time></trkpt><trkpt lat="45.33276256693575" lon="9.358067398099347"><ele>83.5</ele><time>2026-04-18T14:50:08Z</time></trkpt><trkpt lat="45.33289421418467" lon="9.3577548621737"><ele>82.0</ele><time>2026-04-18T14:50:09Z</time></trkpt><trkpt lat="45.3330301709189" lon="9.357417746104433"><ele>81.0</ele><time>2026-04-18T14:50:10Z</time></trkpt><trkpt lat="45.3331699084217" lon="9.357085442763127"><ele>80.0</ele><time>2026-04-18T14:50:11Z</time></trkpt><trkpt lat="45.333305641044625" lon="9.356757561759949"><ele>80.0</ele><time>2026-04-18T14:50:12Z</time></trkpt><trkpt lat="45.333443373571015" lon="9.356434829478955"><ele>80.0</ele><time>2026-04-18T14:50:13Z</time></trkpt><trkpt lat="45.333573831997406" lon="9.356106434655624"><ele>80.0</ele><time>2026-04-18T14:50:14.001Z</time></trkpt><trkpt lat="45.33369979445204" lon="9.355775454150136"><ele>80.0</ele><time>2026-04-18T14:50:15.001Z</time></trkpt><trkpt lat="45.33383115600721" lon="9.35544860231989"><ele>80.5</ele><time>2026-04-18T14:50:16.001Z</time></trkpt><trkpt lat="45.333933763847355" lon="9.355104743320044"><ele>81.0</ele><time>2026-04-18T14:50:17.001Z</time></trkpt><trkpt lat="45.33404693098262" lon="9.354764798362236"><ele>81.0</ele><time>2026-04-18T14:50:18.001Z</time></trkpt><trkpt lat="45.33415495007953" lon="9.35442660483068"><ele>81.0</ele><time>2026-04-18T14:50:19.001Z</time></trkpt><trkpt lat="45.33426489590755" lon="9.3540814816371"><ele>80.5</ele><time>2026-04-18T14:50:20.001Z</time></trkpt><trkpt lat="45.334369010326846" lon="9.353735946013234"><ele>80.0</ele><time>2026-04-18T14:50:21.001Z</time></trkpt><trkpt lat="45.33447139075608" lon="9.353394593812348"><ele>80.0</ele><time>2026-04-18T14:50:22.001Z</time></trkpt><trkpt lat="45.33457317378604" lon="9.353050280308382"><ele>80.0</ele><time>2026-04-18T14:50:23.001Z</time></trkpt><trkpt lat="45.33467683385496" lon="9.352705437006362"><ele>79.5</ele><time>2026-04-18T14:50:24.001Z</time></trkpt><trkpt lat="45.33476903344518" lon="9.35235951471216"><ele>79.0</ele><time>2026-04-18T14:50:25.001Z</time></trkpt><trkpt lat="45.334859952337105" lon="9.352005993527085"><ele>79.0</ele><time>2026-04-18T14:50:26.001Z</time></trkpt><trkpt lat="45.334946986948125" lon="9.351654651964095"><ele>79.0</ele><time>2026-04-18T14:50:27.001Z</time></trkpt><trkpt lat="45.33503177448195" lon="9.351306540585435"><ele>80.0</ele><time>2026-04-18T14:50:28.001Z</time></trkpt><trkpt lat="45.33511326378401" lon="9.350956956112789"><ele>81.0</ele><time>2026-04-18T14:50:29.001Z</time></trkpt><trkpt lat="45.33519391685461" lon="9.350603190938314"><ele>80.5</ele><time>2026-04-18T14:50:30.001Z</time></trkpt><trkpt lat="45.33527253074794" lon="9.350251391535247"><ele>80.0</ele><time>2026-04-18T14:50:31.001Z</time></trkpt><trkpt lat="45.335344872940034" lon="9.349902147315722"><ele>79.5</ele><time>2026-04-18T14:50:32.001Z</time></trkpt><trkpt lat="45.33541737262379" lon="9.349549976693792"><ele>79.0</ele><time>2026-04-18T14:50:33.001Z</time></trkpt><trkpt lat="45.33548756134718" lon="9.34919824166033"><ele>79.5</ele><time>2026-04-18T14:50:34.001Z</time></trkpt><trkpt lat="45.33555539607704" lon="9.348842466799352"><ele>80.0</ele><time>2026-04-18T14:50:35.001Z</time></trkpt><trkpt lat="45.33561790677704" lon="9.34848543708866"><ele>80.0</ele><time>2026-04-18T14:50:36.001Z</time></trkpt><trkpt lat="45.33567825817203" lon="9.348126619932843"><ele>80.0</ele><time>2026-04-18T14:50:37.001Z</time></trkpt><trkpt lat="45.33573574867202" lon="9.347767300140163"><ele>80.0</ele><time>2026-04-18T14:50:38.001Z</time></trkpt><trkpt lat="45.335787153585656" lon="9.347405358352004"><ele>80.0</ele><time>2026-04-18T14:50:39.001Z</time></trkpt><trkpt lat="45.3358340346735" lon="9.34704005827796"><ele>79.5</ele><time>2026-04-18T14:50:40.001Z</time></trkpt><trkpt lat="45.33588777166851" lon="9.346679388275708"><ele>79.0</ele><time>2026-04-18T14:50:41.001Z</time></trkpt><trkpt lat="45.335941195767944" lon="9.346315851257852"><ele>79.0</ele><time>2026-04-18T14:50:42.001Z</time></trkpt><trkpt lat="45.335999309633486" lon="9.345955058512704"><ele>79.0</ele><time>2026-04-18T14:50:43.001Z</time></trkpt><trkpt lat="45.336055956863255" lon="9.345598016347079"><ele>79.0</ele><time>2026-04-18T14:50:44.001Z</time></trkpt><trkpt lat="45.33611107931865" lon="9.345237266772767"><ele>79.0</ele><time>2026-04-18T14:50:45.002Z</time></trkpt><trkpt lat="45.33616327734849" lon="9.344878610710165"><ele>78.5</ele><time>2026-04-18T14:50:46.002Z</time></trkpt><trkpt lat="45.33621850999961" lon="9.344523674413871"><ele>78.0</ele><time>2026-04-18T14:50:47.002Z</time></trkpt><trkpt lat="45.336269797794664" lon="9.344167364110646"><ele>76.5</ele><time>2026-04-18T14:50:48.002Z</time></trkpt><trkpt lat="45.336323049837944" lon="9.343811364709353"><ele>75.0</ele><time>2026-04-18T14:50:49.002Z</time></trkpt><trkpt lat="45.33637129009329" lon="9.34346204591488"><ele>76.0</ele><time>2026-04-18T14:50:50.002Z</time></trkpt><trkpt lat="45.336427379194035" lon="9.343107524232469"><ele>77.0</ele><time>2026-04-18T14:50:51.002Z</time></trkpt><trkpt lat="45.33648163261332" lon="9.34275426220063"><ele>77.0</ele><time>2026-04-18T14:50:52.002Z</time></trkpt><trkpt lat="45.33653493267196" lon="9.34240386197282"><ele>77.0</ele><time>2026-04-18T14:50:53.002Z</time></trkpt><trkpt lat="45.336590175859826" lon="9.342051839317943"><ele>76.5</ele><time>2026-04-18T14:50:54.002Z</time></trkpt><trkpt lat="45.33664267891995" lon="9.341700397225699"><ele>76.0</ele><time>2026-04-18T14:50:55.002Z</time></trkpt><trkpt lat="45.33669761132209" lon="9.341345562337555"><ele>74.5</ele><time>2026-04-18T14:50:56.002Z</time></trkpt><trkpt lat="45.336753194886214" lon="9.340992867352304"><ele>73.0</ele><time>2026-04-18T14:50:57.002Z</time></trkpt><trkpt lat="45.336809969019335" lon="9.340637749336732"><ele>74.0</ele><time>2026-04-18T14:50:58.002Z</time></trkpt><trkpt lat="45.33686105904416" lon="9.340281622928488"><ele>75.0</ele><time>2026-04-18T14:50:59.002Z</time></trkpt><trkpt lat="45.336916138631196" lon="9.33992174580513"><ele>77.0</ele><time>2026-04-18T14:51:00.002Z</time></trkpt><trkpt lat="45.33696851859778" lon="9.339565266737472"><ele>79.0</ele><time>2026-04-18T14:51:01.002Z</time></trkpt><trkpt lat="45.3370238357504" lon="9.339206788167788"><ele>80.5</ele><time>2026-04-18T14:51:02.002Z</time></trkpt><trkpt lat="45.33707435506547" lon="9.338847946912265"><ele>82.0</ele><time>2026-04-18T14:51:03.002Z</time></trkpt><trkpt lat="45.337127619231296" lon="9.33847968713877"><ele>82.0</ele><time>2026-04-18T14:51:04.002Z</time></trkpt><trkpt lat="45.337183877035145" lon="9.338117927129314"><ele>82.0</ele><time>2026-04-18T14:51:05.002Z</time></trkpt><trkpt lat="45.33724142418383" lon="9.337756219534306"><ele>83.0</ele><time>2026-04-18T14:51:06.002Z</time></trkpt><trkpt lat="45.337297333953344" lon="9.337392673285258"><ele>84.0</ele><time>2026-04-18T14:51:07.002Z</time></trkpt><trkpt lat="45.337351690341805" lon="9.337026652055235"><ele>84.0</ele><time>2026-04-18T14:51:08.002Z</time></trkpt><trkpt lat="45.33740596389297" lon="9.336660067190495"><ele>84.0</ele><time>2026-04-18T14:51:09.002Z</time></trkpt><trkpt lat="45.337460747706615" lon="9.33629699328174"><ele>84.0</ele><time>2026-04-18T14:51:10.002Z</time></trkpt><trkpt lat="45.33751467478143" lon="9.335936024544115"><ele>84.0</ele><time>2026-04-18T14:51:11.002Z</time></trkpt><trkpt lat="45.33756825761226" lon="9.335575091512236"><ele>83.5</ele><time>2026-04-18T14:51:12.002Z</time></trkpt><trkpt lat="45.33762686029326" lon="9.335216559615198"><ele>83.0</ele><time>2026-04-18T14:51:13.002Z</time></trkpt><trkpt lat="45.337682780200744" lon="9.334864324087214"><ele>83.5</ele><time>2026-04-18T14:51:14.002Z</time></trkpt><trkpt lat="45.33773843271446" lon="9.334514989748437"><ele>84.0</ele><time>2026-04-18T14:51:15.002Z</time></trkpt><trkpt lat="45.33779670396978" lon="9.334168956201129"><ele>84.0</ele><time>2026-04-18T14:51:16.002Z</time></trkpt><trkpt lat="45.337845092650646" lon="9.333820122923369"><ele>84.0</ele><time>2026-04-18T14:51:17.002Z</time></trkpt><trkpt lat="45.33789121343833" lon="9.333468451909608"><ele>84.0</ele><time>2026-04-18T14:51:18.003Z</time></trkpt><trkpt lat="45.337944598206704" lon="9.33311949222959"><ele>84.0</ele><time>2026-04-18T14:51:19.003Z</time></trkpt><trkpt lat="45.33799713849231" lon="9.33277328414983"><ele>84.0</ele><time>2026-04-18T14:51:20.003Z</time></trkpt><trkpt lat="45.33805319091355" lon="9.332429378372572"><ele>84.0</ele><time>2026-04-18T14:51:21.003Z</time></trkpt><trkpt lat="45.33810736222273" lon="9.33208670246338"><ele>85.0</ele><time>2026-04-18T14:51:22.003Z</time></trkpt><trkpt lat="45.33815900074084" lon="9.331745605242917"><ele>86.0</ele><time>2026-04-18T14:51:23.003Z</time></trkpt><trkpt lat="45.33821773895875" lon="9.331405001834039"><ele>86.5</ele><time>2026-04-18T14:51:24.003Z</time></trkpt><trkpt lat="45.338267614921314" lon="9.331066468581426"><ele>87.0</ele><time>2026-04-18T14:51:25.003Z</time></trkpt><trkpt lat="45.338324291754866" lon="9.33073314871228"><ele>87.0</ele><time>2026-04-18T14:51:26.003Z</time></trkpt><trkpt lat="45.33837785041386" lon="9.33041006749481"><ele>87.0</ele><time>2026-04-18T14:51:27.003Z</time></trkpt><trkpt lat="45.338435967782225" lon="9.330089654506658"><ele>87.0</ele><time>2026-04-18T14:51:28.003Z</time></trkpt><trkpt lat="45.338499136539596" lon="9.329770298984757"><ele>87.0</ele><time>2026-04-18T14:51:29.003Z</time></trkpt><trkpt lat="45.33856586594472" lon="9.329449578217925"><ele>87.5</ele><time>2026-04-18T14:51:30.003Z</time></trkpt><trkpt lat="45.33863241151097" lon="9.329131955381"><ele>88.0</ele><time>2026-04-18T14:51:31.003Z</time></trkpt><trkpt lat="45.33870031023681" lon="9.328813546446776"><ele>87.0</ele><time>2026-04-18T14:51:32.003Z</time></trkpt><trkpt lat="45.33877165585384" lon="9.328486351574593"><ele>86.0</ele><time>2026-04-18T14:51:33.003Z</time></trkpt><trkpt lat="45.33885028243658" lon="9.328138801976245"><ele>86.0</ele><time>2026-04-18T14:51:34.003Z</time></trkpt><trkpt lat="45.338940304603" lon="9.327778443867668"><ele>86.0</ele><time>2026-04-18T14:51:35.003Z</time></trkpt><trkpt lat="45.339022306251444" lon="9.327424960827683"><ele>86.0</ele><time>2026-04-18T14:51:36.003Z</time></trkpt><trkpt lat="45.33911535534423" lon="9.327062127945904"><ele>86.0</ele><time>2026-04-18T14:51:37.003Z</time></trkpt><trkpt lat="45.33922511678835" lon="9.326704282413475"><ele>87.0</ele><time>2026-04-18T14:51:38.003Z</time></trkpt><trkpt lat="45.33931624829991" lon="9.326341475411535"><ele>88.0</ele><time>2026-04-18T14:51:39.003Z</time></trkpt><trkpt lat="45.339421047281256" lon="9.325984978118369"><ele>88.0</ele><time>2026-04-18T14:51:40.003Z</time></trkpt><trkpt lat="45.339529938519135" lon="9.325633327203276"><ele>88.0</ele><time>2026-04-18T14:51:41.003Z</time></trkpt><trkpt lat="45.33964134039633" lon="9.325282033006031"><ele>88.5</ele><time>2026-04-18T14:51:42.003Z</time></trkpt><trkpt lat="45.33975437017967" lon="9.324931747995787"><ele>89.0</ele><time>2026-04-18T14:51:43.003Z</time></trkpt><trkpt lat="45.339869688420286" lon="9.324587502597804"><ele>89.0</ele><time>2026-04-18T14:51:44.003Z</time></trkpt><trkpt lat="45.33998976934622" lon="9.324246808702526"><ele>89.0</ele><time>2026-04-18T14:51:45.003Z</time></trkpt><trkpt lat="45.34011252453019" lon="9.323909258234833"><ele>88.5</ele><time>2026-04-18T14:51:46.003Z</time></trkpt><trkpt lat="45.34023737158404" lon="9.323578883178104"><ele>88.0</ele><time>2026-04-18T14:51:47.003Z</time></trkpt><trkpt lat="45.34036475465422" lon="9.32325101683819"><ele>88.0</ele><time>2026-04-18T14:51:47.999Z</time></trkpt><trkpt lat="45.34049900565172" lon="9.322928726766792"><ele>88.0</ele><time>2026-04-18T14:51:48.999Z</time></trkpt><trkpt lat="45.34063766137557" lon="9.322614353835966"><ele>88.5</ele><time>2026-04-18T14:51:49.999Z</time></trkpt><trkpt lat="45.34077214899836" lon="9.32230669396777"><ele>89.0</ele><time>2026-04-18T14:51:50.999Z</time></trkpt><trkpt lat="45.340905254184705" lon="9.32199125812588"><ele>89.5</ele><time>2026-04-18T14:51:51.999Z</time></trkpt><trkpt lat="45.341042171188434" lon="9.321666198948071"><ele>90.0</ele><time>2026-04-18T14:51:53Z</time></trkpt><trkpt lat="45.34118491423106" lon="9.321365451049322"><ele>90.5</ele><time>2026-04-18T14:51:54Z</time></trkpt><trkpt lat="45.34132447505284" lon="9.32105981796551"><ele>91.0</ele><time>2026-04-18T14:51:55Z</time></trkpt><trkpt lat="45.34146590681785" lon="9.320755594519763"><ele>90.0</ele><time>2026-04-18T14:51:56Z</time></trkpt><trkpt lat="45.34160791925674" lon="9.320463022519526"><ele>89.0</ele><time>2026-04-18T14:51:57Z</time></trkpt><trkpt lat="45.34175379104986" lon="9.32016928241304"><ele>89.0</ele><time>2026-04-18T14:51:58Z</time></trkpt><trkpt lat="45.34190130546389" lon="9.319883706772565"><ele>89.0</ele><time>2026-04-18T14:51:59Z</time></trkpt><trkpt lat="45.34205356038596" lon="9.319598355775435"><ele>89.0</ele><time>2026-04-18T14:52:00Z</time></trkpt><trkpt lat="45.34220633313586" lon="9.319319587379447"><ele>89.0</ele><time>2026-04-18T14:52:01Z</time></trkpt><trkpt lat="45.34236654025034" lon="9.319031523872841"><ele>90.0</ele><time>2026-04-18T14:52:02Z</time></trkpt><trkpt lat="45.34252883287967" lon="9.318747930203537"><ele>91.0</ele><time>2026-04-18T14:52:03Z</time></trkpt><trkpt lat="45.342692154706775" lon="9.318467186744726"><ele>91.0</ele><time>2026-04-18T14:52:04Z</time></trkpt><trkpt lat="45.342858551668165" lon="9.31818648735133"><ele>91.0</ele><time>2026-04-18T14:52:05Z</time></trkpt><trkpt lat="45.34302981689124" lon="9.317907306230092"><ele>90.0</ele><time>2026-04-18T14:52:06Z</time></trkpt><trkpt lat="45.34320017993728" lon="9.317632852541177"><ele>89.0</ele><time>2026-04-18T14:52:07Z</time></trkpt><trkpt lat="45.343371337517915" lon="9.31736190221448"><ele>89.0</ele><time>2026-04-18T14:52:08Z</time></trkpt><trkpt lat="45.34354673138814" lon="9.31709320261526"><ele>89.0</ele><time>2026-04-18T14:52:09Z</time></trkpt><trkpt lat="45.34372594320356" lon="9.316824744879954"><ele>89.0</ele><time>2026-04-18T14:52:10Z</time></trkpt><trkpt lat="45.343906036921375" lon="9.316566482324841"><ele>89.0</ele><time>2026-04-18T14:52:11Z</time></trkpt><trkpt lat="45.344085203267895" lon="9.316314192141274"><ele>89.0</ele><time>2026-04-18T14:52:12Z</time></trkpt><trkpt lat="45.344270082895314" lon="9.316057534030032"><ele>89.0</ele><time>2026-04-18T14:52:13Z</time></trkpt><trkpt lat="45.344454427944804" lon="9.315806569926925"><ele>89.0</ele><time>2026-04-18T14:52:14Z</time></trkpt><trkpt lat="45.34463954324277" lon="9.315554560154315"><ele>89.0</ele><time>2026-04-18T14:52:15Z</time></trkpt><trkpt lat="45.3448272568813" lon="9.315307396492495"><ele>89.5</ele><time>2026-04-18T14:52:16Z</time></trkpt><trkpt lat="45.34501532971262" lon="9.315066883803482"><ele>90.0</ele><time>2026-04-18T14:52:17Z</time></trkpt><trkpt lat="45.345207313974356" lon="9.314828505017509"><ele>90.0</ele><time>2026-04-18T14:52:18Z</time></trkpt><trkpt lat="45.345400589823576" lon="9.314594860573477"><ele>90.0</ele><time>2026-04-18T14:52:19Z</time></trkpt><trkpt lat="45.34559230371757" lon="9.314371453370926"><ele>90.0</ele><time>2026-04-18T14:52:20.001Z</time></trkpt><trkpt lat="45.34578376569381" lon="9.3141488215441"><ele>90.0</ele><time>2026-04-18T14:52:21.001Z</time></trkpt><trkpt lat="45.34597593159316" lon="9.313932507626019"><ele>89.5</ele><time>2026-04-18T14:52:22.001Z</time></trkpt><trkpt lat="45.3461695788061" lon="9.313699485770377"><ele>89.0</ele><time>2026-04-18T14:52:23.001Z</time></trkpt><trkpt lat="45.34636264882689" lon="9.31346626478234"><ele>89.0</ele><time>2026-04-18T14:52:24.001Z</time></trkpt><trkpt lat="45.34655362013443" lon="9.313233650386758"><ele>89.0</ele><time>2026-04-18T14:52:25.001Z</time></trkpt><trkpt lat="45.346739232316814" lon="9.313007124698574"><ele>90.5</ele><time>2026-04-18T14:52:26.001Z</time></trkpt><trkpt lat="45.34692558781092" lon="9.312779844573141"><ele>92.0</ele><time>2026-04-18T14:52:27.001Z</time></trkpt><trkpt lat="45.347108101418044" lon="9.312554210710184"><ele>90.5</ele><time>2026-04-18T14:52:28.001Z</time></trkpt><trkpt lat="45.34729682905548" lon="9.312346127703345"><ele>89.0</ele><time>2026-04-18T14:52:29.001Z</time></trkpt><trkpt lat="45.34747648314058" lon="9.312131763318842"><ele>89.0</ele><time>2026-04-18T14:52:30.001Z</time></trkpt><trkpt lat="45.347647665028475" lon="9.31192559993594"><ele>89.0</ele><time>2026-04-18T14:52:31.001Z</time></trkpt><trkpt lat="45.34781697372064" lon="9.31171902268122"><ele>89.0</ele><time>2026-04-18T14:52:32.001Z</time></trkpt><trkpt lat="45.3479819567381" lon="9.31151414823276"><ele>89.0</ele><time>2026-04-18T14:52:33.001Z</time></trkpt><trkpt lat="45.34813838395508" lon="9.311325273122188"><ele>89.0</ele><time>2026-04-18T14:52:34.001Z</time></trkpt><trkpt lat="45.348289956966426" lon="9.31115778453054"><ele>89.0</ele><time>2026-04-18T14:52:35.001Z</time></trkpt><trkpt lat="45.34843396160222" lon="9.311011352625446"><ele>89.0</ele><time>2026-04-18T14:52:36.001Z</time></trkpt><trkpt lat="45.34857444055021" lon="9.310868651499577"><ele>89.0</ele><time>2026-04-18T14:52:37.001Z</time></trkpt><trkpt lat="45.34870390215836" lon="9.310736920171472"><ele>89.0</ele><time>2026-04-18T14:52:38.001Z</time></trkpt><trkpt lat="45.34883271003818" lon="9.310610279557638"><ele>90.0</ele><time>2026-04-18T14:52:39.001Z</time></trkpt><trkpt lat="45.34895052360217" lon="9.310494252901387"><ele>91.0</ele><time>2026-04-18T14:52:40.001Z</time></trkpt><trkpt lat="45.349069413620875" lon="9.310374647956587"><ele>92.0</ele><time>2026-04-18T14:52:41.001Z</time></trkpt><trkpt lat="45.34916741175345" lon="9.310269748421844"><ele>93.0</ele><time>2026-04-18T14:52:42.001Z</time></trkpt><trkpt lat="45.349256766835644" lon="9.310171309077983"><ele>93.0</ele><time>2026-04-18T14:52:43.001Z</time></trkpt><trkpt lat="45.34933480996942" lon="9.310081927131417"><ele>93.0</ele><time>2026-04-18T14:52:44.001Z</time></trkpt><trkpt lat="45.349396979693445" lon="9.310007221381206"><ele>93.0</ele><time>2026-04-18T14:52:45.001Z</time></trkpt><trkpt lat="45.34946496301087" lon="9.309925529376377"><ele>93.0</ele><time>2026-04-18T14:52:46.001Z</time></trkpt><trkpt lat="45.34952010505054" lon="9.309856700987119"><ele>93.0</ele><time>2026-04-18T14:52:47.001Z</time></trkpt><trkpt lat="45.34958621582943" lon="9.30977364944999"><ele>93.0</ele><time>2026-04-18T14:52:48.001Z</time></trkpt><trkpt lat="45.34968167907982" lon="9.309652261233444"><ele>92.25</ele><time>2026-04-18T14:52:49.001Z</time></trkpt><trkpt lat="45.34977897039918" lon="9.309525659845287"><ele>91.5</ele><time>2026-04-18T14:52:50.001Z</time></trkpt><trkpt lat="45.3498866404858" lon="9.309386425220787"><ele>90.75</ele><time>2026-04-18T14:52:51.002Z</time></trkpt><trkpt lat="45.35000083583798" lon="9.309238754022164"><ele>90.0</ele><time>2026-04-18T14:52:52.002Z</time></trkpt><trkpt lat="45.35011287610016" lon="9.309093869731017"><ele>90.0</ele><time>2026-04-18T14:52:53.002Z</time></trkpt><trkpt lat="45.35022276363268" lon="9.308951769259261"><ele>90.0</ele><time>2026-04-18T14:52:54.002Z</time></trkpt><trkpt lat="45.35026848366746" lon="9.308713627943664"><ele>90.0</ele><time>2026-04-18T14:52:55.002Z</time></trkpt><trkpt lat="45.350413632546136" lon="9.308596968415515"><ele>90.33333333333333</ele><time>2026-04-18T14:52:56.002Z</time></trkpt><trkpt lat="45.35056127557291" lon="9.308465234680241"><ele>90.66666666666666</ele><time>2026-04-18T14:52:57.002Z</time></trkpt><trkpt lat="45.35070961187175" lon="9.308316933558384"><ele>91.0</ele><time>2026-04-18T14:52:58.002Z</time></trkpt><trkpt lat="45.35086085643051" lon="9.308155552128005"><ele>90.66666666666666</ele><time>2026-04-18T14:52:59.002Z</time></trkpt><trkpt lat="45.35101358632877" lon="9.307986770662131"><ele>90.33333333333333</ele><time>2026-04-18T14:53:00.002Z</time></trkpt><trkpt lat="45.35116657390135" lon="9.307810910746142"><ele>90.0</ele><time>2026-04-18T14:53:01.002Z</time></trkpt><trkpt lat="45.35132387324409" lon="9.307627965885093"><ele>90.0</ele><time>2026-04-18T14:53:02.002Z</time></trkpt><trkpt lat="45.35148054988629" lon="9.307438550842228"><ele>90.0</ele><time>2026-04-18T14:53:03.002Z</time></trkpt><trkpt lat="45.35162361656826" lon="9.307266730116432"><ele>90.0</ele><time>2026-04-18T14:53:04.002Z</time></trkpt><trkpt lat="45.35176967922906" lon="9.30708063472328"><ele>90.0</ele><time>2026-04-18T14:53:05.002Z</time></trkpt><trkpt lat="45.35192580482291" lon="9.306885313328145"><ele>90.0</ele><time>2026-04-18T14:53:06.002Z</time></trkpt><trkpt lat="45.352091056158635" lon="9.306689336100531"><ele>90.0</ele><time>2026-04-18T14:53:07.002Z</time></trkpt><trkpt lat="45.35225815615097" lon="9.306494385885607"><ele>90.33333333333333</ele><time>2026-04-18T14:53:08.002Z</time></trkpt><trkpt lat="45.352428504043075" lon="9.306299114144043"><ele>90.66666666666666</ele><time>2026-04-18T14:53:09.002Z</time></trkpt><trkpt lat="45.35260475331497" lon="9.30610481477468"><ele>91.0</ele><time>2026-04-18T14:53:10.002Z</time></trkpt><trkpt lat="45.352775162318615" lon="9.305919126816924"><ele>91.0</ele><time>2026-04-18T14:53:11.002Z</time></trkpt><trkpt lat="45.35294436219537" lon="9.305735608980727"><ele>91.0</ele><time>2026-04-18T14:53:12.002Z</time></trkpt><trkpt lat="45.35310947948625" lon="9.305551552822887"><ele>91.0</ele><time>2026-04-18T14:53:13.002Z</time></trkpt><trkpt lat="45.35327754529604" lon="9.30536453935823"><ele>91.0</ele><time>2026-04-18T14:53:14.002Z</time></trkpt><trkpt lat="45.353447520578456" lon="9.305170673942904"><ele>91.0</ele><time>2026-04-18T14:53:15.002Z</time></trkpt><trkpt lat="45.35362040908774" lon="9.304968913096639"><ele>91.0</ele><time>2026-04-18T14:53:16.002Z</time></trkpt><trkpt lat="45.35379492074295" lon="9.304764744229931"><ele>89.5</ele><time>2026-04-18T14:53:17.002Z</time></trkpt><trkpt lat="45.353971988833194" lon="9.304555136419435"><ele>88.0</ele><time>2026-04-18T14:53:18.002Z</time></trkpt><trkpt lat="45.35415261310035" lon="9.304343407745003"><ele>88.0</ele><time>2026-04-18T14:53:19.002Z</time></trkpt><trkpt lat="45.354332024371075" lon="9.304135755984312"><ele>88.0</ele><time>2026-04-18T14:53:20.002Z</time></trkpt><trkpt lat="45.35451462142179" lon="9.30392848988623"><ele>88.5</ele><time>2026-04-18T14:53:21.002Z</time></trkpt><trkpt lat="45.354694491321105" lon="9.303720443717092"><ele>89.0</ele><time>2026-04-18T14:53:22.002Z</time></trkpt><trkpt lat="45.35487494999665" lon="9.303508252272508"><ele>90.0</ele><time>2026-04-18T14:53:23.002Z</time></trkpt><trkpt lat="45.35505533678171" lon="9.303296912465537"><ele>91.0</ele><time>2026-04-18T14:53:24.003Z</time></trkpt><trkpt lat="45.35523215537326" lon="9.303082842882853"><ele>91.0</ele><time>2026-04-18T14:53:25.003Z</time></trkpt><trkpt lat="45.35541899598518" lon="9.302860476508277"><ele>91.0</ele><time>2026-04-18T14:53:26.003Z</time></trkpt><trkpt lat="45.35560521591706" lon="9.302648880075106"><ele>91.0</ele><time>2026-04-18T14:53:27.003Z</time></trkpt><trkpt lat="45.355792499847034" lon="9.302433074868375"><ele>91.0</ele><time>2026-04-18T14:53:28.003Z</time></trkpt><trkpt lat="45.355981943319925" lon="9.302212181956405"><ele>91.5</ele><time>2026-04-18T14:53:29.003Z</time></trkpt><trkpt lat="45.35617456251898" lon="9.301987674044522"><ele>92.0</ele><time>2026-04-18T14:53:30.003Z</time></trkpt><trkpt lat="45.35636716698944" lon="9.30176100669206"><ele>91.5</ele><time>2026-04-18T14:53:31.003Z</time></trkpt><trkpt lat="45.356561258786826" lon="9.301533054749171"><ele>91.0</ele><time>2026-04-18T14:53:32.003Z</time></trkpt><trkpt lat="45.35675875566194" lon="9.301301032974836"><ele>91.0</ele><time>2026-04-18T14:53:33.003Z</time></trkpt><trkpt lat="45.356955500773175" lon="9.301070413893957"><ele>91.0</ele><time>2026-04-18T14:53:34.003Z</time></trkpt><trkpt lat="45.35715333597208" lon="9.300837994853469"><ele>91.0</ele><time>2026-04-18T14:53:35.003Z</time></trkpt><trkpt lat="45.35735102898013" lon="9.300606968372533"><ele>91.0</ele><time>2026-04-18T14:53:36.003Z</time></trkpt><trkpt lat="45.35754831651928" lon="9.300375667674933"><ele>92.5</ele><time>2026-04-18T14:53:37.003Z</time></trkpt><trkpt lat="45.35774491506439" lon="9.300143317205164"><ele>94.0</ele><time>2026-04-18T14:53:38.003Z</time></trkpt><trkpt lat="45.357944108788175" lon="9.299909844770912"><ele>94.0</ele><time>2026-04-18T14:53:39.003Z</time></trkpt><trkpt lat="45.3581417587449" lon="9.299677680934721"><ele>94.0</ele><time>2026-04-18T14:53:40.003Z</time></trkpt><trkpt lat="45.358342774473435" lon="9.299442103967051"><ele>94.0</ele><time>2026-04-18T14:53:41.003Z</time></trkpt><trkpt lat="45.35853536658835" lon="9.299207758643174"><ele>94.0</ele><time>2026-04-18T14:53:42.003Z</time></trkpt><trkpt lat="45.35872839053554" lon="9.298975995571977"><ele>92.5</ele><time>2026-04-18T14:53:43.003Z</time></trkpt><trkpt lat="45.35892250067376" lon="9.298745276876376"><ele>91.0</ele><time>2026-04-18T14:53:44.003Z</time></trkpt><trkpt lat="45.359117977076316" lon="9.298520453358723"><ele>91.0</ele><time>2026-04-18T14:53:45.003Z</time></trkpt><trkpt lat="45.35931025382249" lon="9.298296387428094"><ele>91.0</ele><time>2026-04-18T14:53:46.003Z</time></trkpt><trkpt lat="45.35950166758719" lon="9.298074225756007"><ele>91.0</ele><time>2026-04-18T14:53:47.003Z</time></trkpt><trkpt lat="45.35968521696118" lon="9.297855938277557"><ele>91.0</ele><time>2026-04-18T14:53:48.003Z</time></trkpt><trkpt lat="45.359863186479444" lon="9.297647201478773"><ele>91.0</ele><time>2026-04-18T14:53:49.003Z</time></trkpt><trkpt lat="45.36004478498118" lon="9.297438730188587"><ele>91.0</ele><time>2026-04-18T14:53:50.003Z</time></trkpt><trkpt lat="45.360229842456995" lon="9.297226240965804"><ele>91.0</ele><time>2026-04-18T14:53:51.003Z</time></trkpt><trkpt lat="45.36041539310912" lon="9.297008007568259"><ele>91.0</ele><time>2026-04-18T14:53:52.003Z</time></trkpt><trkpt lat="45.36060080947412" lon="9.296790452636602"><ele>91.0</ele><time>2026-04-18T14:53:53.003Z</time></trkpt><trkpt lat="45.36078624057038" lon="9.296571714216464"><ele>91.0</ele><time>2026-04-18T14:53:53.999Z</time></trkpt><trkpt lat="45.360974209903524" lon="9.296350991915588"><ele>91.0</ele><time>2026-04-18T14:53:54.999Z</time></trkpt><trkpt lat="45.36115975404025" lon="9.296131289260813"><ele>91.0</ele><time>2026-04-18T14:53:55.999Z</time></trkpt><trkpt lat="45.36134863692225" lon="9.295911423880298"><ele>91.0</ele><time>2026-04-18T14:53:56.999Z</time></trkpt><trkpt lat="45.361539281490266" lon="9.295691794283918"><ele>91.0</ele><time>2026-04-18T14:53:57.999Z</time></trkpt><trkpt lat="45.36172688494584" lon="9.295474471261452"><ele>91.0</ele><time>2026-04-18T14:53:58.999Z</time></trkpt><trkpt lat="45.361915943586006" lon="9.295253854029113"><ele>91.0</ele><time>2026-04-18T14:53:59.999Z</time></trkpt><trkpt lat="45.36210383056785" lon="9.295031987026817"><ele>91.0</ele><time>2026-04-18T14:54:00.999Z</time></trkpt><trkpt lat="45.36229035993293" lon="9.29480543402551"><ele>91.0</ele><time>2026-04-18T14:54:02Z</time></trkpt><trkpt lat="45.36247674768479" lon="9.2945748492387"><ele>91.0</ele><time>2026-04-18T14:54:03Z</time></trkpt><trkpt lat="45.36266819225561" lon="9.294342584860878"><ele>91.0</ele><time>2026-04-18T14:54:04Z</time></trkpt><trkpt lat="45.36285890373745" lon="9.294109924618596"><ele>91.5</ele><time>2026-04-18T14:54:05Z</time></trkpt><trkpt lat="45.363052317864586" lon="9.293876787617114"><ele>92.0</ele><time>2026-04-18T14:54:06Z</time></trkpt><trkpt lat="45.36324391257526" lon="9.293645845117277"><ele>92.0</ele><time>2026-04-18T14:54:07Z</time></trkpt><trkpt lat="45.36343611203052" lon="9.293415474107135"><ele>92.0</ele><time>2026-04-18T14:54:08Z</time></trkpt><trkpt lat="45.36363072380167" lon="9.293190422570518"><ele>92.0</ele><time>2026-04-18T14:54:09Z</time></trkpt><trkpt lat="45.36382644032862" lon="9.292962830879524"><ele>92.0</ele><time>2026-04-18T14:54:10Z</time></trkpt><trkpt lat="45.36402046640527" lon="9.292732985816496"><ele>91.5</ele><time>2026-04-18T14:54:11Z</time></trkpt><trkpt lat="45.36421548158245" lon="9.292501795813545"><ele>91.0</ele><time>2026-04-18T14:54:12Z</time></trkpt><trkpt lat="45.36441260448853" lon="9.29226923194498"><ele>91.0</ele><time>2026-04-18T14:54:13Z</time></trkpt><trkpt lat="45.36461088157973" lon="9.292036272407817"><ele>91.0</ele><time>2026-04-18T14:54:14Z</time></trkpt><trkpt lat="45.36481448698771" lon="9.291798439066158"><ele>91.0</ele><time>2026-04-18T14:54:15Z</time></trkpt><trkpt lat="45.365026392833784" lon="9.291553571286624"><ele>91.0</ele><time>2026-04-18T14:54:16Z</time></trkpt><trkpt lat="45.36523737871715" lon="9.291308460339959"><ele>91.5</ele><time>2026-04-18T14:54:17Z</time></trkpt><trkpt lat="45.365448771736915" lon="9.29106208892512"><ele>92.0</ele><time>2026-04-18T14:54:18Z</time></trkpt><trkpt lat="45.365661277647604" lon="9.290813407878424"><ele>92.5</ele><time>2026-04-18T14:54:19Z</time></trkpt><trkpt lat="45.36587313669294" lon="9.290567938157245"><ele>93.0</ele><time>2026-04-18T14:54:20Z</time></trkpt><trkpt lat="45.366084367757246" lon="9.290324368652401"><ele>93.0</ele><time>2026-04-18T14:54:21Z</time></trkpt><trkpt lat="45.36629884206248" lon="9.290082377482744"><ele>93.0</ele><time>2026-04-18T14:54:22Z</time></trkpt><trkpt lat="45.36650940428144" lon="9.289846371014571"><ele>92.5</ele><time>2026-04-18T14:54:23Z</time></trkpt><trkpt lat="45.36671613062443" lon="9.289611372112349"><ele>92.0</ele><time>2026-04-18T14:54:24Z</time></trkpt><trkpt lat="45.366917812844406" lon="9.289378897498574"><ele>92.0</ele><time>2026-04-18T14:54:25Z</time></trkpt><trkpt lat="45.36711616824433" lon="9.289145840056998"><ele>92.0</ele><time>2026-04-18T14:54:26.001Z</time></trkpt><trkpt lat="45.36731028341009" lon="9.288917220964883"><ele>92.0</ele><time>2026-04-18T14:54:27.001Z</time></trkpt><trkpt lat="45.367505165991574" lon="9.288688475472926"><ele>92.0</ele><time>2026-04-18T14:54:28.001Z</time></trkpt><trkpt lat="45.367700437304705" lon="9.288460726532898"><ele>92.0</ele><time>2026-04-18T14:54:29.001Z</time></trkpt><trkpt lat="45.36789633274222" lon="9.288233799126578"><ele>92.0</ele><time>2026-04-18T14:54:30.001Z</time></trkpt><trkpt lat="45.368089099144676" lon="9.288007323072268"><ele>92.5</ele><time>2026-04-18T14:54:31.001Z</time></trkpt><trkpt lat="45.36828414371802" lon="9.287779217389815"><ele>93.0</ele><time>2026-04-18T14:54:32.001Z</time></trkpt><trkpt lat="45.36847645563211" lon="9.287554371161846"><ele>93.0</ele><time>2026-04-18T14:54:33.001Z</time></trkpt><trkpt lat="45.36867087965733" lon="9.287327048173305"><ele>93.0</ele><time>2026-04-18T14:54:34.001Z</time></trkpt><trkpt lat="45.368864774537236" lon="9.287098418101078"><ele>93.0</ele><time>2026-04-18T14:54:35.001Z</time></trkpt><trkpt lat="45.369058286157006" lon="9.28687039701231"><ele>93.0</ele><time>2026-04-18T14:54:36.001Z</time></trkpt><trkpt lat="45.369255248586406" lon="9.286638050473334"><ele>93.5</ele><time>2026-04-18T14:54:37.001Z</time></trkpt><trkpt lat="45.36945025264232" lon="9.286405507853447"><ele>94.0</ele><time>2026-04-18T14:54:38.001Z</time></trkpt><trkpt lat="45.36964385044934" lon="9.28617792143153"><ele>93.5</ele><time>2026-04-18T14:54:39.001Z</time></trkpt><trkpt lat="45.369838686442186" lon="9.285948616071364"><ele>93.0</ele><time>2026-04-18T14:54:40.001Z</time></trkpt><trkpt lat="45.37003052370969" lon="9.285721512506603"><ele>93.0</ele><time>2026-04-18T14:54:41.001Z</time></trkpt><trkpt lat="45.370225483233305" lon="9.285493008592857"><ele>93.0</ele><time>2026-04-18T14:54:42.001Z</time></trkpt><trkpt lat="45.37042445177878" lon="9.28526325253721"><ele>92.5</ele><time>2026-04-18T14:54:43.001Z</time></trkpt><trkpt lat="45.37062032830154" lon="9.285035830353548"><ele>92.0</ele><time>2026-04-18T14:54:44.001Z</time></trkpt><trkpt lat="45.370812328900556" lon="9.284811770413945"><ele>92.5</ele><time>2026-04-18T14:54:45.001Z</time></trkpt><trkpt lat="45.37100357942478" lon="9.28458878233997"><ele>93.0</ele><time>2026-04-18T14:54:46.001Z</time></trkpt><trkpt lat="45.371194699496534" lon="9.28436541786969"><ele>93.5</ele><time>2026-04-18T14:54:47.001Z</time></trkpt><trkpt lat="45.371386282093155" lon="9.28413894734804"><ele>94.0</ele><time>2026-04-18T14:54:48.001Z</time></trkpt><trkpt lat="45.37157620682282" lon="9.283914181341027"><ele>94.0</ele><time>2026-04-18T14:54:49.001Z</time></trkpt><trkpt lat="45.37176552436828" lon="9.28369119449088"><ele>94.0</ele><time>2026-04-18T14:54:50.001Z</time></trkpt><trkpt lat="45.37195645615182" lon="9.283468589329106"><ele>94.0</ele><time>2026-04-18T14:54:51.001Z</time></trkpt><trkpt lat="45.3721455420642" lon="9.283246345122771"><ele>94.0</ele><time>2026-04-18T14:54:52.001Z</time></trkpt><trkpt lat="45.372328298855464" lon="9.283022244408631"><ele>93.5</ele><time>2026-04-18T14:54:53.001Z</time></trkpt><trkpt lat="45.37250959887865" lon="9.282788242648401"><ele>93.0</ele><time>2026-04-18T14:54:54.001Z</time></trkpt><trkpt lat="45.372695344880796" lon="9.282542470233894"><ele>93.0</ele><time>2026-04-18T14:54:55.002Z</time></trkpt><trkpt lat="45.372885588115246" lon="9.28229867566348"><ele>93.0</ele><time>2026-04-18T14:54:56.002Z</time></trkpt><trkpt lat="45.37308728016796" lon="9.282052516379636"><ele>93.0</ele><time>2026-04-18T14:54:57.002Z</time></trkpt><trkpt lat="45.37329924006241" lon="9.281799853783387"><ele>93.0</ele><time>2026-04-18T14:54:58.002Z</time></trkpt><trkpt lat="45.37351149664373" lon="9.281555365773356"><ele>93.0</ele><time>2026-04-18T14:54:59.002Z</time></trkpt><trkpt lat="45.37372458295946" lon="9.281314950028184"><ele>93.0</ele><time>2026-04-18T14:55:00.002Z</time></trkpt><trkpt lat="45.373946274958094" lon="9.281065775885168"><ele>93.0</ele><time>2026-04-18T14:55:01.002Z</time></trkpt><trkpt lat="45.374158298231755" lon="9.28082838197127"><ele>93.0</ele><time>2026-04-18T14:55:02.002Z</time></trkpt><trkpt lat="45.374372315628975" lon="9.28058560947311"><ele>93.5</ele><time>2026-04-18T14:55:03.002Z</time></trkpt><trkpt lat="45.37458592487604" lon="9.280342391669851"><ele>94.0</ele><time>2026-04-18T14:55:04.002Z</time></trkpt><trkpt lat="45.374799158400364" lon="9.280097884085071"><ele>94.0</ele><time>2026-04-18T14:55:05.002Z</time></trkpt><trkpt lat="45.375012006202" lon="9.27985170098851"><ele>94.0</ele><time>2026-04-18T14:55:06.002Z</time></trkpt><trkpt lat="45.375223466748906" lon="9.279604224061917"><ele>94.5</ele><time>2026-04-18T14:55:07.002Z</time></trkpt><trkpt lat="45.37543340116158" lon="9.27935672532865"><ele>95.0</ele><time>2026-04-18T14:55:08.002Z</time></trkpt><trkpt lat="45.37564362355467" lon="9.279110939096945"><ele>94.5</ele><time>2026-04-18T14:55:09.002Z</time></trkpt><trkpt lat="45.3758548861475" lon="9.278865834290247"><ele>94.0</ele><time>2026-04-18T14:55:10.002Z</time></trkpt><trkpt lat="45.37606517698619" lon="9.278619712441824"><ele>94.0</ele><time>2026-04-18T14:55:11.002Z</time></trkpt><trkpt lat="45.37627463536923" lon="9.27837635698707"><ele>94.0</ele><time>2026-04-18T14:55:12.002Z</time></trkpt><trkpt lat="45.376480745776966" lon="9.278138119519415"><ele>95.0</ele><time>2026-04-18T14:55:13.002Z</time></trkpt><trkpt lat="45.37669015465625" lon="9.27789806474165"><ele>96.0</ele><time>2026-04-18T14:55:14.002Z</time></trkpt><trkpt lat="45.37689793002649" lon="9.277656046616597"><ele>96.0</ele><time>2026-04-18T14:55:15.002Z</time></trkpt><trkpt lat="45.37710691638789" lon="9.277413855527561"><ele>96.0</ele><time>2026-04-18T14:55:16.002Z</time></trkpt><trkpt lat="45.377315143076245" lon="9.277175145765256"><ele>96.0</ele><time>2026-04-18T14:55:17.002Z</time></trkpt><trkpt lat="45.37752261482805" lon="9.276939716982996"><ele>96.0</ele><time>2026-04-18T14:55:18.002Z</time></trkpt><trkpt lat="45.37772884030774" lon="9.276702991918336"><ele>96.0</ele><time>2026-04-18T14:55:19.002Z</time></trkpt><trkpt lat="45.37793585452314" lon="9.276463584748372"><ele>96.0</ele><time>2026-04-18T14:55:20.002Z</time></trkpt><trkpt lat="45.3781404699592" lon="9.276226164698217"><ele>96.0</ele><time>2026-04-18T14:55:21.002Z</time></trkpt><trkpt lat="45.378341659375714" lon="9.275990889647339"><ele>96.0</ele><time>2026-04-18T14:55:22.002Z</time></trkpt><trkpt lat="45.37853650398164" lon="9.27575966351093"><ele>96.0</ele><time>2026-04-18T14:55:23.002Z</time></trkpt><trkpt lat="45.378727274881896" lon="9.275532064584972"><ele>96.0</ele><time>2026-04-18T14:55:24.002Z</time></trkpt><trkpt lat="45.37891103925963" lon="9.275315536150147"><ele>95.5</ele><time>2026-04-18T14:55:25.002Z</time></trkpt><trkpt lat="45.379091029838506" lon="9.27510786788779"><ele>95.0</ele><time>2026-04-18T14:55:26.002Z</time></trkpt><trkpt lat="45.37926483880142" lon="9.274902768269772"><ele>96.0</ele><time>2026-04-18T14:55:27.002Z</time></trkpt><trkpt lat="45.37945674368115" lon="9.274687907242464"><ele>97.0</ele><time>2026-04-18T14:55:28.003Z</time></trkpt><trkpt lat="45.37965850974375" lon="9.274459030252686"><ele>95.5</ele><time>2026-04-18T14:55:29.003Z</time></trkpt><trkpt lat="45.37986788740098" lon="9.274217376580914"><ele>94.0</ele><time>2026-04-18T14:55:30.003Z</time></trkpt><trkpt lat="45.380076184689955" lon="9.273976284834767"><ele>95.5</ele><time>2026-04-18T14:55:31.003Z</time></trkpt><trkpt lat="45.3802790341631" lon="9.273746263904522"><ele>97.0</ele><time>2026-04-18T14:55:32.003Z</time></trkpt><trkpt lat="45.3804793615233" lon="9.273504253146145"><ele>96.5</ele><time>2026-04-18T14:55:33.003Z</time></trkpt><trkpt lat="45.38068467351077" lon="9.273264080942084"><ele>96.0</ele><time>2026-04-18T14:55:34.003Z</time></trkpt><trkpt lat="45.38090534323845" lon="9.273000449144472"><ele>96.0</ele><time>2026-04-18T14:55:35.003Z</time></trkpt><trkpt lat="45.38109419020738" lon="9.272784520452687"><ele>96.0</ele><time>2026-04-18T14:55:36.003Z</time></trkpt><trkpt lat="45.38135174893356" lon="9.272465882256805"><ele>96.0</ele><time>2026-04-18T14:55:37.003Z</time></trkpt><trkpt lat="45.38155942130533" lon="9.272220562509288"><ele>96.0</ele><time>2026-04-18T14:55:38.003Z</time></trkpt><trkpt lat="45.38176541207749" lon="9.271976934795845"><ele>96.0</ele><time>2026-04-18T14:55:39.003Z</time></trkpt><trkpt lat="45.38196931412037" lon="9.271738353192077"><ele>96.0</ele><time>2026-04-18T14:55:40.003Z</time></trkpt><trkpt lat="45.382173599339524" lon="9.271501872204496"><ele>95.0</ele><time>2026-04-18T14:55:41.003Z</time></trkpt><trkpt lat="45.382373489149295" lon="9.271263943222529"><ele>94.0</ele><time>2026-04-18T14:55:42.003Z</time></trkpt><trkpt lat="45.38257846026868" lon="9.271020608555865"><ele>94.0</ele><time>2026-04-18T14:55:43.003Z</time></trkpt><trkpt lat="45.38279143735697" lon="9.270752221605672"><ele>94.0</ele><time>2026-04-18T14:55:44.003Z</time></trkpt><trkpt lat="45.3830122220553" lon="9.270467119735946"><ele>95.0</ele><time>2026-04-18T14:55:45.003Z</time></trkpt><trkpt lat="45.38323855079971" lon="9.27017008236234"><ele>96.0</ele><time>2026-04-18T14:55:46.003Z</time></trkpt><trkpt lat="45.38335393469307" lon="9.270104523861107"><ele>97.0</ele><time>2026-04-18T14:55:47.003Z</time></trkpt><trkpt lat="45.383553034500466" lon="9.269874895542346"><ele>97.0</ele><time>2026-04-18T14:55:48.003Z</time></trkpt><trkpt lat="45.38374950634883" lon="9.269640553606406"><ele>97.0</ele><time>2026-04-18T14:55:49.003Z</time></trkpt><trkpt lat="45.383945921078436" lon="9.269409020915756"><ele>97.5</ele><time>2026-04-18T14:55:50.003Z</time></trkpt><trkpt lat="45.38414539548666" lon="9.269174212840621"><ele>98.0</ele><time>2026-04-18T14:55:51.003Z</time></trkpt><trkpt lat="45.384342229992455" lon="9.268940555543095"><ele>98.0</ele><time>2026-04-18T14:55:52.003Z</time></trkpt><trkpt lat="45.38454218547526" lon="9.26871153603215"><ele>98.0</ele><time>2026-04-18T14:55:53.003Z</time></trkpt><trkpt lat="45.38474741384082" lon="9.268476512080717"><ele>97.5</ele><time>2026-04-18T14:55:54.003Z</time></trkpt><trkpt lat="45.384940648134226" lon="9.268244650530887"><ele>97.0</ele><time>2026-04-18T14:55:55.003Z</time></trkpt><trkpt lat="45.38513929920084" lon="9.268011957477267"><ele>97.0</ele><time>2026-04-18T14:55:56.003Z</time></trkpt><trkpt lat="45.38533720585392" lon="9.267783873810307"><ele>97.0</ele><time>2026-04-18T14:55:57.003Z</time></trkpt><trkpt lat="45.38553093574408" lon="9.267554892516705"><ele>97.0</ele><time>2026-04-18T14:55:58.003Z</time></trkpt><trkpt lat="45.38572307777202" lon="9.26732921944241"><ele>97.0</ele><time>2026-04-18T14:55:59.003Z</time></trkpt><trkpt lat="45.38591841214393" lon="9.267101085123166"><ele>97.0</ele><time>2026-04-18T14:56:00Z</time></trkpt><trkpt lat="45.386111773817895" lon="9.266872957538869"><ele>97.0</ele><time>2026-04-18T14:56:01Z</time></trkpt><trkpt lat="45.386309530045374" lon="9.26663967821077"><ele>97.0</ele><time>2026-04-18T14:56:02Z</time></trkpt><trkpt lat="45.386503733167864" lon="9.266404962539"><ele>97.0</ele><time>2026-04-18T14:56:03Z</time></trkpt><trkpt lat="45.38669643918827" lon="9.266176671664413"><ele>97.0</ele><time>2026-04-18T14:56:04Z</time></trkpt><trkpt lat="45.386887098054245" lon="9.265951707252794"><ele>97.0</ele><time>2026-04-18T14:56:05Z</time></trkpt><trkpt lat="45.38707380315117" lon="9.265731045696663"><ele>97.5</ele><time>2026-04-18T14:56:06Z</time></trkpt><trkpt lat="45.387262795569704" lon="9.26551088572665"><ele>98.0</ele><time>2026-04-18T14:56:07Z</time></trkpt><trkpt lat="45.38745101800459" lon="9.265291940117937"><ele>98.0</ele><time>2026-04-18T14:56:08Z</time></trkpt><trkpt lat="45.3876350110882" lon="9.265076620542278"><ele>98.0</ele><time>2026-04-18T14:56:09Z</time></trkpt><trkpt lat="45.38781792865331" lon="9.264861061959984"><ele>96.5</ele><time>2026-04-18T14:56:10Z</time></trkpt><trkpt lat="45.388010118346216" lon="9.26463181817227"><ele>95.0</ele><time>2026-04-18T14:56:11Z</time></trkpt><trkpt lat="45.38820072265071" lon="9.264405752260828"><ele>95.0</ele><time>2026-04-18T14:56:12Z</time></trkpt><trkpt lat="45.38839624076585" lon="9.26417500184813"><ele>95.0</ele><time>2026-04-18T14:56:13Z</time></trkpt><trkpt lat="45.3885855507228" lon="9.263946948242832"><ele>95.5</ele><time>2026-04-18T14:56:14Z</time></trkpt><trkpt lat="45.38878201632031" lon="9.263719102983652"><ele>96.0</ele><time>2026-04-18T14:56:15Z</time></trkpt><trkpt lat="45.38897562568293" lon="9.263503091211142"><ele>96.0</ele><time>2026-04-18T14:56:16Z</time></trkpt><trkpt lat="45.3891751385871" lon="9.263291977057253"><ele>96.0</ele><time>2026-04-18T14:56:17Z</time></trkpt><trkpt lat="45.38937761458633" lon="9.263084256513803"><ele>96.0</ele><time>2026-04-18T14:56:18Z</time></trkpt><trkpt lat="45.389588273568506" lon="9.262878059904448"><ele>96.0</ele><time>2026-04-18T14:56:19Z</time></trkpt><trkpt lat="45.389810995745265" lon="9.262667685844951"><ele>96.0</ele><time>2026-04-18T14:56:20Z</time></trkpt><trkpt lat="45.39003330365033" lon="9.262469544397982"><ele>96.0</ele><time>2026-04-18T14:56:21Z</time></trkpt><trkpt lat="45.390260477358176" lon="9.262286395041682"><ele>97.5</ele><time>2026-04-18T14:56:22Z</time></trkpt><trkpt lat="45.39048961608282" lon="9.262122874991123"><ele>99.0</ele><time>2026-04-18T14:56:23Z</time></trkpt><trkpt lat="45.390719335042434" lon="9.261961258319735"><ele>99.0</ele><time>2026-04-18T14:56:24Z</time></trkpt><trkpt lat="45.3909512526882" lon="9.26181120352242"><ele>99.0</ele><time>2026-04-18T14:56:25Z</time></trkpt><trkpt lat="45.39118673326503" lon="9.261663986067976"><ele>99.0</ele><time>2026-04-18T14:56:26Z</time></trkpt><trkpt lat="45.3914192244353" lon="9.261526671127454"><ele>99.0</ele><time>2026-04-18T14:56:27Z</time></trkpt><trkpt lat="45.3916595016015" lon="9.261394935325933"><ele>98.5</ele><time>2026-04-18T14:56:28Z</time></trkpt><trkpt lat="45.39189647615011" lon="9.261274747138366"><ele>98.0</ele><time>2026-04-18T14:56:29Z</time></trkpt><trkpt lat="45.39213759737235" lon="9.261157515222463"><ele>99.5</ele><time>2026-04-18T14:56:30Z</time></trkpt><trkpt lat="45.39237081643555" lon="9.261050230778357"><ele>101.0</ele><time>2026-04-18T14:56:31.001Z</time></trkpt><trkpt lat="45.39261115359182" lon="9.260950687682302"><ele>101.0</ele><time>2026-04-18T14:56:32.001Z</time></trkpt><trkpt lat="45.39284348410912" lon="9.26086818588049"><ele>101.0</ele><time>2026-04-18T14:56:33.001Z</time></trkpt><trkpt lat="45.39309082501091" lon="9.260784699741116"><ele>101.0</ele><time>2026-04-18T14:56:34.001Z</time></trkpt><trkpt lat="45.393336961398134" lon="9.260710459542798"><ele>101.0</ele><time>2026-04-18T14:56:35.001Z</time></trkpt><trkpt lat="45.39358788551195" lon="9.260646509949499"><ele>101.5</ele><time>2026-04-18T14:56:36.001Z</time></trkpt><trkpt lat="45.393838648635224" lon="9.260587995167619"><ele>102.0</ele><time>2026-04-18T14:56:37.001Z</time></trkpt><trkpt lat="45.39408840915018" lon="9.260538670299875"><ele>102.0</ele><time>2026-04-18T14:56:38.001Z</time></trkpt><trkpt lat="45.394340844631614" lon="9.260499739333335"><ele>102.0</ele><time>2026-04-18T14:56:39.001Z</time></trkpt><trkpt lat="45.39459029494522" lon="9.260470144838536"><ele>101.0</ele><time>2026-04-18T14:56:40.001Z</time></trkpt><trkpt lat="45.39482999936299" lon="9.260447395304707"><ele>100.0</ele><time>2026-04-18T14:56:41.001Z</time></trkpt><trkpt lat="45.395064288580095" lon="9.260434810700042"><ele>100.0</ele><time>2026-04-18T14:56:42.001Z</time></trkpt><trkpt lat="45.39529859596329" lon="9.260430856078296"><ele>100.0</ele><time>2026-04-18T14:56:43.001Z</time></trkpt><trkpt lat="45.395536759534615" lon="9.260434078988789"><ele>100.0</ele><time>2026-04-18T14:56:44.001Z</time></trkpt><trkpt lat="45.3957815362155" lon="9.260446428094697"><ele>100.0</ele><time>2026-04-18T14:56:45.001Z</time></trkpt><trkpt lat="45.39602747192179" lon="9.260461350245961"><ele>100.0</ele><time>2026-04-18T14:56:46.001Z</time></trkpt><trkpt lat="45.39628529295275" lon="9.26048007032574"><ele>100.0</ele><time>2026-04-18T14:56:47.001Z</time></trkpt><trkpt lat="45.39654782094311" lon="9.260506358363912"><ele>100.0</ele><time>2026-04-18T14:56:48.001Z</time></trkpt><trkpt lat="45.39681241100805" lon="9.260532822191369"><ele>100.0</ele><time>2026-04-18T14:56:49.001Z</time></trkpt><trkpt lat="45.39707950481401" lon="9.260562186581671"><ele>100.0</ele><time>2026-04-18T14:56:50.001Z</time></trkpt><trkpt lat="45.39734479780704" lon="9.260593146046688"><ele>100.0</ele><time>2026-04-18T14:56:51.001Z</time></trkpt><trkpt lat="45.3976131532573" lon="9.260626377268398"><ele>100.0</ele><time>2026-04-18T14:56:52.001Z</time></trkpt><trkpt lat="45.39788103743139" lon="9.260660109332143"><ele>100.0</ele><time>2026-04-18T14:56:53.001Z</time></trkpt><trkpt lat="45.39815093760958" lon="9.260688351835881"><ele>100.5</ele><time>2026-04-18T14:56:54.001Z</time></trkpt><trkpt lat="45.398399788141724" lon="9.26071900799052"><ele>101.0</ele><time>2026-04-18T14:56:55.001Z</time></trkpt><trkpt lat="45.398661952883394" lon="9.260752138056363"><ele>101.0</ele><time>2026-04-18T14:56:56.001Z</time></trkpt><trkpt lat="45.398903471451" lon="9.260777315728575"><ele>101.0</ele><time>2026-04-18T14:56:57.001Z</time></trkpt><trkpt lat="45.399147482782695" lon="9.26080242425263"><ele>101.0</ele><time>2026-04-18T14:56:58.001Z</time></trkpt><trkpt lat="45.39939633308631" lon="9.260825824732606"><ele>101.0</ele><time>2026-04-18T14:56:59.001Z</time></trkpt><trkpt lat="45.39964125132645" lon="9.260854074117304"><ele>99.5</ele><time>2026-04-18T14:57:00.001Z</time></trkpt><trkpt lat="45.39988778321253" lon="9.260878214806672"><ele>98.0</ele><time>2026-04-18T14:57:01.001Z</time></trkpt><trkpt lat="45.400135238355055" lon="9.26090176709968"><ele>98.0</ele><time>2026-04-18T14:57:02.001Z</time></trkpt><trkpt lat="45.40038873059608" lon="9.260923684951846"><ele>98.0</ele><time>2026-04-18T14:57:03.002Z</time></trkpt><trkpt lat="45.400635318013975" lon="9.26095338507659"><ele>98.0</ele><time>2026-04-18T14:57:04.002Z</time></trkpt><trkpt lat="45.4008846560616" lon="9.260975985107995"><ele>98.0</ele><time>2026-04-18T14:57:05.002Z</time></trkpt><trkpt lat="45.40113553001137" lon="9.261005964690614"><ele>98.5</ele><time>2026-04-18T14:57:06.002Z</time></trkpt><trkpt lat="45.401390045694846" lon="9.261039515927006"><ele>99.0</ele><time>2026-04-18T14:57:07.002Z</time></trkpt><trkpt lat="45.40164446740342" lon="9.261067132517754"><ele>99.0</ele><time>2026-04-18T14:57:08.002Z</time></trkpt><trkpt lat="45.401893972217785" lon="9.261095045692826"><ele>99.0</ele><time>2026-04-18T14:57:09.002Z</time></trkpt><trkpt lat="45.40215159059973" lon="9.261124946664513"><ele>99.0</ele><time>2026-04-18T14:57:10.002Z</time></trkpt><trkpt lat="45.4024029920975" lon="9.261152868948741"><ele>99.0</ele><time>2026-04-18T14:57:11.002Z</time></trkpt><trkpt lat="45.40264339926613" lon="9.261179835683672"><ele>99.0</ele><time>2026-04-18T14:57:12.002Z</time></trkpt><trkpt lat="45.40289040370809" lon="9.261209036876572"><ele>99.0</ele><time>2026-04-18T14:57:13.002Z</time></trkpt><trkpt lat="45.40313195525368" lon="9.261242912702631"><ele>99.5</ele><time>2026-04-18T14:57:14.002Z</time></trkpt><trkpt lat="45.403374942151565" lon="9.261273101060828"><ele>100.0</ele><time>2026-04-18T14:57:15.002Z</time></trkpt><trkpt lat="45.40361210393652" lon="9.26130822413565"><ele>99.5</ele><time>2026-04-18T14:57:16.002Z</time></trkpt><trkpt lat="45.403852169826116" lon="9.261339677272296"><ele>99.0</ele><time>2026-04-18T14:57:17.002Z</time></trkpt><trkpt lat="45.404087880406045" lon="9.26137208182619"><ele>99.0</ele><time>2026-04-18T14:57:18.002Z</time></trkpt><trkpt lat="45.40432913396799" lon="9.261402390836146"><ele>99.0</ele><time>2026-04-18T14:57:19.002Z</time></trkpt><trkpt lat="45.40456888856192" lon="9.261433473443706"><ele>99.0</ele><time>2026-04-18T14:57:20.002Z</time></trkpt><trkpt lat="45.404812767640436" lon="9.261466872315141"><ele>99.0</ele><time>2026-04-18T14:57:21.002Z</time></trkpt><trkpt lat="45.40505468298353" lon="9.26149677784626"><ele>99.0</ele><time>2026-04-18T14:57:22.002Z</time></trkpt><trkpt lat="45.405297293926274" lon="9.26152062909727"><ele>99.0</ele><time>2026-04-18T14:57:23.002Z</time></trkpt><trkpt lat="45.40553558205011" lon="9.261538020676712"><ele>99.0</ele><time>2026-04-18T14:57:24.002Z</time></trkpt><trkpt lat="45.405774015520564" lon="9.261545196060018"><ele>99.0</ele><time>2026-04-18T14:57:25.002Z</time></trkpt><trkpt lat="45.4060148115855" lon="9.26154005751272"><ele>99.0</ele><time>2026-04-18T14:57:26.002Z</time></trkpt><trkpt lat="45.40625182476946" lon="9.261516969637068"><ele>99.0</ele><time>2026-04-18T14:57:27.002Z</time></trkpt><trkpt lat="45.40647985203941" lon="9.261480825025092"><ele>99.0</ele><time>2026-04-18T14:57:28.002Z</time></trkpt><trkpt lat="45.40670130026191" lon="9.26143195854882"><ele>99.0</ele><time>2026-04-18T14:57:29.002Z</time></trkpt><trkpt lat="45.40691948816141" lon="9.26136415466663"><ele>99.0</ele><time>2026-04-18T14:57:30.002Z</time></trkpt><trkpt lat="45.40713603985348" lon="9.261285076700615"><ele>98.66666666666666</ele><time>2026-04-18T14:57:31.002Z</time></trkpt><trkpt lat="45.40735136107962" lon="9.261192522716527"><ele>98.33333333333333</ele><time>2026-04-18T14:57:32.002Z</time></trkpt><trkpt lat="45.40755684101974" lon="9.26107193161323"><ele>98.0</ele><time>2026-04-18T14:57:33.002Z</time></trkpt><trkpt lat="45.407760374835185" lon="9.260929733599113"><ele>98.0</ele><time>2026-04-18T14:57:34.002Z</time></trkpt><trkpt lat="45.40795473635884" lon="9.260801092742403"><ele>98.0</ele><time>2026-04-18T14:57:35.002Z</time></trkpt><trkpt lat="45.408156689477345" lon="9.260652607866893"><ele>98.0</ele><time>2026-04-18T14:57:36.003Z</time></trkpt><trkpt lat="45.40834344923134" lon="9.260490063494311"><ele>98.0</ele><time>2026-04-18T14:57:37.003Z</time></trkpt><trkpt lat="45.40852886762594" lon="9.260308380538593"><ele>98.0</ele><time>2026-04-18T14:57:38.003Z</time></trkpt><trkpt lat="45.40870680912821" lon="9.260117042909263"><ele>98.0</ele><time>2026-04-18T14:57:39.003Z</time></trkpt><trkpt lat="45.40888170035135" lon="9.25991695097788"><ele>98.0</ele><time>2026-04-18T14:57:40.003Z</time></trkpt><trkpt lat="45.40905281188783" lon="9.25970296532229"><ele>98.0</ele><time>2026-04-18T14:57:41.003Z</time></trkpt><trkpt lat="45.40923102884011" lon="9.25947936859244"><ele>98.0</ele><time>2026-04-18T14:57:42.003Z</time></trkpt><trkpt lat="45.40941374676775" lon="9.259251814548314"><ele>98.0</ele><time>2026-04-18T14:57:43.003Z</time></trkpt><trkpt lat="45.40959990610846" lon="9.259021058173662"><ele>100.0</ele><time>2026-04-18T14:57:44.003Z</time></trkpt><trkpt lat="45.40978272613953" lon="9.258786155277521"><ele>102.0</ele><time>2026-04-18T14:57:45.003Z</time></trkpt><trkpt lat="45.40996895423105" lon="9.25854872439116"><ele>102.0</ele><time>2026-04-18T14:57:46.003Z</time></trkpt><trkpt lat="45.41014634768113" lon="9.258321490540016"><ele>102.0</ele><time>2026-04-18T14:57:47.003Z</time></trkpt><trkpt lat="45.410319674132026" lon="9.258099300644524"><ele>102.0</ele><time>2026-04-18T14:57:48.003Z</time></trkpt><trkpt lat="45.410488043011505" lon="9.257880602246173"><ele>102.0</ele><time>2026-04-18T14:57:49.003Z</time></trkpt><trkpt lat="45.41065511569823" lon="9.257664167706098"><ele>102.0</ele><time>2026-04-18T14:57:50.003Z</time></trkpt><trkpt lat="45.410824449431686" lon="9.257449299501388"><ele>102.0</ele><time>2026-04-18T14:57:51.003Z</time></trkpt><trkpt lat="45.41100264081933" lon="9.257232674354153"><ele>101.5</ele><time>2026-04-18T14:57:52.003Z</time></trkpt><trkpt lat="45.41117561815254" lon="9.25701389582483"><ele>101.0</ele><time>2026-04-18T14:57:53.003Z</time></trkpt><trkpt lat="45.41135352752227" lon="9.25679385924814"><ele>101.0</ele><time>2026-04-18T14:57:54.003Z</time></trkpt><trkpt lat="45.41153164496597" lon="9.256564416954967"><ele>101.0</ele><time>2026-04-18T14:57:55.003Z</time></trkpt><trkpt lat="45.4117074829228" lon="9.256343443401986"><ele>100.5</ele><time>2026-04-18T14:57:56.003Z</time></trkpt><trkpt lat="45.411884963230335" lon="9.256120487035677"><ele>100.0</ele><time>2026-04-18T14:57:57.003Z</time></trkpt><trkpt lat="45.41206448132163" lon="9.255896740057718"><ele>100.0</ele><time>2026-04-18T14:57:58.003Z</time></trkpt><trkpt lat="45.41224368050572" lon="9.255673329766873"><ele>100.0</ele><time>2026-04-18T14:57:59.003Z</time></trkpt><trkpt lat="45.412422592035" lon="9.255447597930972"><ele>100.0</ele><time>2026-04-18T14:58:00.003Z</time></trkpt><trkpt lat="45.41260299182045" lon="9.25521689800041"><ele>100.0</ele><time>2026-04-18T14:58:01.003Z</time></trkpt><trkpt lat="45.41278334237992" lon="9.254985273924776"><ele>100.5</ele><time>2026-04-18T14:58:02.003Z</time></trkpt><trkpt lat="45.41296423717645" lon="9.254753274268793"><ele>101.0</ele><time>2026-04-18T14:58:03.003Z</time></trkpt><trkpt lat="45.41314692797834" lon="9.25451459948025"><ele>101.0</ele><time>2026-04-18T14:58:04.003Z</time></trkpt><trkpt lat="45.41332759261302" lon="9.254276549532632"><ele>101.0</ele><time>2026-04-18T14:58:05.003Z</time></trkpt><trkpt lat="45.413506775484755" lon="9.254039043361637"><ele>102.0</ele><time>2026-04-18T14:58:05.999Z</time></trkpt><trkpt lat="45.41368564528856" lon="9.25379592668503"><ele>103.0</ele><time>2026-04-18T14:58:06.999Z</time></trkpt><trkpt lat="45.41386602259666" lon="9.253549882679389"><ele>103.0</ele><time>2026-04-18T14:58:07.999Z</time></trkpt><trkpt lat="45.414045669704805" lon="9.253305256940928"><ele>103.0</ele><time>2026-04-18T14:58:08.999Z</time></trkpt><trkpt lat="45.41422313868659" lon="9.253056679498995"><ele>104.5</ele><time>2026-04-18T14:58:09.999Z</time></trkpt><trkpt lat="45.414402465757334" lon="9.25280280089707"><ele>106.0</ele><time>2026-04-18T14:58:10.999Z</time></trkpt><trkpt lat="45.41458177878815" lon="9.252545458159736"><ele>102.5</ele><time>2026-04-18T14:58:11.999Z</time></trkpt><trkpt lat="45.414756767279066" lon="9.252287012563029"><ele>99.0</ele><time>2026-04-18T14:58:12.999Z</time></trkpt><trkpt lat="45.41493718607083" lon="9.252042506390607"><ele>99.0</ele><time>2026-04-18T14:58:13.999Z</time></trkpt><trkpt lat="45.415107983691755" lon="9.251777109121353"><ele>99.0</ele><time>2026-04-18T14:58:14.999Z</time></trkpt><trkpt lat="45.41528483944612" lon="9.251509504484359"><ele>99.0</ele><time>2026-04-18T14:58:15.999Z</time></trkpt><trkpt lat="45.41545856045389" lon="9.251249393671172"><ele>99.0</ele><time>2026-04-18T14:58:16.999Z</time></trkpt><trkpt lat="45.41563627246665" lon="9.250985516637362"><ele>99.5</ele><time>2026-04-18T14:58:17.999Z</time></trkpt><trkpt lat="45.415811165611956" lon="9.25072182086653"><ele>100.0</ele><time>2026-04-18T14:58:18.999Z</time></trkpt><trkpt lat="45.415981841002356" lon="9.250463009028287"><ele>101.5</ele><time>2026-04-18T14:58:19.999Z</time></trkpt><trkpt lat="45.416144890607356" lon="9.250215976560124"><ele>103.0</ele><time>2026-04-18T14:58:20.999Z</time></trkpt><trkpt lat="45.41629985239667" lon="9.249978401678012"><ele>102.5</ele><time>2026-04-18T14:58:21.999Z</time></trkpt><trkpt lat="45.41645408837185" lon="9.2497325509532"><ele>102.0</ele><time>2026-04-18T14:58:22.999Z</time></trkpt><trkpt lat="45.41661112368992" lon="9.249478784141429"><ele>102.0</ele><time>2026-04-18T14:58:24Z</time></trkpt><trkpt lat="45.4167701424017" lon="9.24922384769353"><ele>102.0</ele><time>2026-04-18T14:58:25Z</time></trkpt><trkpt lat="45.416929110183915" lon="9.24897785341969"><ele>102.0</ele><time>2026-04-18T14:58:26Z</time></trkpt><trkpt lat="45.41708746817759" lon="9.248732762685098"><ele>102.0</ele><time>2026-04-18T14:58:27Z</time></trkpt><trkpt lat="45.41725265841881" lon="9.24848783523575"><ele>101.0</ele><time>2026-04-18T14:58:28Z</time></trkpt><trkpt lat="45.41741957451112" lon="9.248252979177355"><ele>100.0</ele><time>2026-04-18T14:58:29Z</time></trkpt><trkpt lat="45.417596407143584" lon="9.24802801595029"><ele>100.0</ele><time>2026-04-18T14:58:30Z</time></trkpt><trkpt lat="45.417779107575186" lon="9.247814290354242"><ele>100.0</ele><time>2026-04-18T14:58:31Z</time></trkpt><trkpt lat="45.41796414497298" lon="9.24759752311107"><ele>100.5</ele><time>2026-04-18T14:58:32Z</time></trkpt><trkpt lat="45.418154159987736" lon="9.247396029505335"><ele>101.0</ele><time>2026-04-18T14:58:33Z</time></trkpt><trkpt lat="45.418358900787425" lon="9.247212788036778"><ele>101.0</ele><time>2026-04-18T14:58:34Z</time></trkpt><trkpt lat="45.418567035646035" lon="9.24704231332082"><ele>101.0</ele><time>2026-04-18T14:58:35Z</time></trkpt><trkpt lat="45.41878641799582" lon="9.24687859913097"><ele>103.0</ele><time>2026-04-18T14:58:36Z</time></trkpt><trkpt lat="45.419009160675735" lon="9.246728803160115"><ele>105.0</ele><time>2026-04-18T14:58:37Z</time></trkpt><trkpt lat="45.41923725367129" lon="9.246589491976206"><ele>105.0</ele><time>2026-04-18T14:58:38Z</time></trkpt><trkpt lat="45.41947291296571" lon="9.246464909144015"><ele>105.0</ele><time>2026-04-18T14:58:39Z</time></trkpt><trkpt lat="45.41971432819839" lon="9.246363618333017"><ele>105.0</ele><time>2026-04-18T14:58:40Z</time></trkpt><trkpt lat="45.419956003047794" lon="9.246283487559012"><ele>105.0</ele><time>2026-04-18T14:58:41Z</time></trkpt><trkpt lat="45.42020097652707" lon="9.24621649994685"><ele>105.0</ele><time>2026-04-18T14:58:42Z</time></trkpt><trkpt lat="45.42044221598501" lon="9.246162873523755"><ele>105.0</ele><time>2026-04-18T14:58:43.001Z</time></trkpt><trkpt lat="45.42067938439894" lon="9.246122709413598"><ele>106.0</ele><time>2026-04-18T14:58:44.001Z</time></trkpt><trkpt lat="45.4209106784763" lon="9.24609504342362"><ele>107.0</ele><time>2026-04-18T14:58:45.001Z</time></trkpt><trkpt lat="45.42113835858994" lon="9.246067964508953"><ele>107.0</ele><time>2026-04-18T14:58:46.001Z</time></trkpt><trkpt lat="45.42136440178198" lon="9.246039146523149"><ele>107.0</ele><time>2026-04-18T14:58:47.001Z</time></trkpt><trkpt lat="45.42158514213007" lon="9.246013139730122"><ele>107.0</ele><time>2026-04-18T14:58:48.001Z</time></trkpt><trkpt lat="45.42180670902516" lon="9.245985463539146"><ele>107.0</ele><time>2026-04-18T14:58:49.001Z</time></trkpt><trkpt lat="45.42203018826426" lon="9.245957006350494"><ele>107.0</ele><time>2026-04-18T14:58:50.001Z</time></trkpt><trkpt lat="45.42225474261506" lon="9.24592884736876"><ele>106.0</ele><time>2026-04-18T14:58:51.001Z</time></trkpt><trkpt lat="45.42248576415182" lon="9.245893100162519"><ele>105.0</ele><time>2026-04-18T14:58:52.001Z</time></trkpt><trkpt lat="45.42271127785633" lon="9.245869888118763"><ele>105.0</ele><time>2026-04-18T14:58:53.001Z</time></trkpt><trkpt lat="45.422937042409636" lon="9.245847261463357"><ele>105.0</ele><time>2026-04-18T14:58:54.001Z</time></trkpt><trkpt lat="45.42316559842481" lon="9.245821109703483"><ele>104.0</ele><time>2026-04-18T14:58:55.001Z</time></trkpt><trkpt lat="45.42339792998962" lon="9.245795999682167"><ele>103.0</ele><time>2026-04-18T14:58:56.001Z</time></trkpt><trkpt lat="45.42363343875053" lon="9.24577237007862"><ele>102.5</ele><time>2026-04-18T14:58:57.001Z</time></trkpt><trkpt lat="45.42386721483653" lon="9.245745409079086"><ele>102.0</ele><time>2026-04-18T14:58:58.001Z</time></trkpt><trkpt lat="45.424100796319586" lon="9.245711084637131"><ele>102.0</ele><time>2026-04-18T14:58:59.001Z</time></trkpt><trkpt lat="45.424336100391564" lon="9.245679178137387"><ele>102.0</ele><time>2026-04-18T14:59:00.001Z</time></trkpt><trkpt lat="45.42457083718767" lon="9.245653351877214"><ele>101.33333333333334</ele><time>2026-04-18T14:59:01.001Z</time></trkpt><trkpt lat="45.42479835455925" lon="9.245630616947007"><ele>100.66666666666667</ele><time>2026-04-18T14:59:02.001Z</time></trkpt><trkpt lat="45.42501642293275" lon="9.24561548402948"><ele>100.0</ele><time>2026-04-18T14:59:03.001Z</time></trkpt><trkpt lat="45.42522932906035" lon="9.245609577648015"><ele>101.33333333333334</ele><time>2026-04-18T14:59:04.001Z</time></trkpt><trkpt lat="45.425443735284986" lon="9.24561497063788"><ele>102.66666666666666</ele><time>2026-04-18T14:59:05.001Z</time></trkpt><trkpt lat="45.42565161146657" lon="9.245632228451113"><ele>104.0</ele><time>2026-04-18T14:59:06.001Z</time></trkpt><trkpt lat="45.42586399461715" lon="9.245656302955945"><ele>104.0</ele><time>2026-04-18T14:59:07.001Z</time></trkpt><trkpt lat="45.42607729534595" lon="9.245692833943815"><ele>104.0</ele><time>2026-04-18T14:59:08.001Z</time></trkpt><trkpt lat="45.426295753334024" lon="9.24574649340628"><ele>104.0</ele><time>2026-04-18T14:59:09.001Z</time></trkpt><trkpt lat="45.426509960040796" lon="9.245824862330954"><ele>102.5</ele><time>2026-04-18T14:59:10.001Z</time></trkpt><trkpt lat="45.426726270443424" lon="9.245924695581099"><ele>101.0</ele><time>2026-04-18T14:59:11.001Z</time></trkpt><trkpt lat="45.42694680839348" lon="9.246044386808983"><ele>102.5</ele><time>2026-04-18T14:59:12.002Z</time></trkpt><trkpt lat="45.427161683187244" lon="9.246180824339056"><ele>104.0</ele><time>2026-04-18T14:59:13.002Z</time></trkpt><trkpt lat="45.42737687771853" lon="9.246333681620055"><ele>105.0</ele><time>2026-04-18T14:59:14.002Z</time></trkpt><trkpt lat="45.42758325127252" lon="9.24653870308606"><ele>106.0</ele><time>2026-04-18T14:59:15.002Z</time></trkpt><trkpt lat="45.42778941688975" lon="9.246725980673766"><ele>109.0</ele><time>2026-04-18T14:59:16.002Z</time></trkpt><trkpt lat="45.42798529511595" lon="9.2469238991444"><ele>112.0</ele><time>2026-04-18T14:59:17.002Z</time></trkpt><trkpt lat="45.42816309227792" lon="9.247125626124006"><ele>111.66666666666667</ele><time>2026-04-18T14:59:18.002Z</time></trkpt><trkpt lat="45.42832883486779" lon="9.24733338821869"><ele>111.33333333333334</ele><time>2026-04-18T14:59:19.002Z</time></trkpt><trkpt lat="45.428486325348594" lon="9.247554933061982"><ele>111.0</ele><time>2026-04-18T14:59:20.002Z</time></trkpt><trkpt lat="45.42864836446606" lon="9.24778867132785"><ele>111.0</ele><time>2026-04-18T14:59:21.002Z</time></trkpt><trkpt lat="45.42879444873889" lon="9.248017436444135"><ele>111.0</ele><time>2026-04-18T14:59:22.002Z</time></trkpt><trkpt lat="45.42893785214967" lon="9.248246344896412"><ele>111.0</ele><time>2026-04-18T14:59:23.002Z</time></trkpt><trkpt lat="45.42908141571476" lon="9.248485052710318"><ele>110.66666666666666</ele><time>2026-04-18T14:59:24.002Z</time></trkpt><trkpt lat="45.4292250113845" lon="9.248729812986141"><ele>110.33333333333333</ele><time>2026-04-18T14:59:25.002Z</time></trkpt><trkpt lat="45.429369034816865" lon="9.248965132287122"><ele>110.0</ele><time>2026-04-18T14:59:26.002Z</time></trkpt><trkpt lat="45.42951805250091" lon="9.249210042701563"><ele>109.0</ele><time>2026-04-18T14:59:27.002Z</time></trkpt><trkpt lat="45.429663207062774" lon="9.24944542345495"><ele>108.0</ele><time>2026-04-18T14:59:28.002Z</time></trkpt><trkpt lat="45.42980344924885" lon="9.249667216413878"><ele>107.0</ele><time>2026-04-18T14:59:29.002Z</time></trkpt><trkpt lat="45.429941612092264" lon="9.249888625164298"><ele>107.0</ele><time>2026-04-18T14:59:30.002Z</time></trkpt><trkpt lat="45.430074191590904" lon="9.250101616682008"><ele>107.0</ele><time>2026-04-18T14:59:31.002Z</time></trkpt><trkpt lat="45.43020807655984" lon="9.250316303641993"><ele>107.0</ele><time>2026-04-18T14:59:32.002Z</time></trkpt><trkpt lat="45.43034036368514" lon="9.250534860526809"><ele>106.66666666666666</ele><time>2026-04-18T14:59:33.002Z</time></trkpt><trkpt lat="45.430474360664924" lon="9.25075147390294"><ele>106.33333333333334</ele><time>2026-04-18T14:59:34.002Z</time></trkpt><trkpt lat="45.43061330607711" lon="9.250976302736571"><ele>106.0</ele><time>2026-04-18T14:59:35.002Z</time></trkpt><trkpt lat="45.43075394720325" lon="9.251196551796637"><ele>106.0</ele><time>2026-04-18T14:59:36.002Z</time></trkpt><trkpt lat="45.430894482006195" lon="9.251417778290811"><ele>106.0</ele><time>2026-04-18T14:59:37.002Z</time></trkpt><trkpt lat="45.431035461779544" lon="9.251640278389967"><ele>106.0</ele><time>2026-04-18T14:59:38.002Z</time></trkpt><trkpt lat="45.431180211748064" lon="9.251850433320117"><ele>105.66666666666667</ele><time>2026-04-18T14:59:39.002Z</time></trkpt><trkpt lat="45.43132266281405" lon="9.252049902212738"><ele>105.33333333333334</ele><time>2026-04-18T14:59:40.002Z</time></trkpt><trkpt lat="45.431459170465025" lon="9.252243512110905"><ele>105.0</ele><time>2026-04-18T14:59:41.002Z</time></trkpt><trkpt lat="45.43159850135662" lon="9.252428966250962"><ele>104.66666666666666</ele><time>2026-04-18T14:59:42.002Z</time></trkpt><trkpt lat="45.43174637610646" lon="9.252611320692859"><ele>104.33333333333333</ele><time>2026-04-18T14:59:43.002Z</time></trkpt><trkpt lat="45.431889571545085" lon="9.25279058501291"><ele>104.0</ele><time>2026-04-18T14:59:44.003Z</time></trkpt><trkpt lat="45.43204571224053" lon="9.252959471011112"><ele>103.33333333333333</ele><time>2026-04-18T14:59:45.003Z</time></trkpt><trkpt lat="45.43219952180346" lon="9.253131678544285"><ele>102.66666666666666</ele><time>2026-04-18T14:59:46.003Z</time></trkpt><trkpt lat="45.43235699619083" lon="9.253306063917718"><ele>102.0</ele><time>2026-04-18T14:59:47.003Z</time></trkpt><trkpt lat="45.43252233849114" lon="9.253476983334284"><ele>102.0</ele><time>2026-04-18T14:59:48.003Z</time></trkpt><trkpt lat="45.43269268733647" lon="9.253647665140656"><ele>102.0</ele><time>2026-04-18T14:59:49.003Z</time></trkpt><trkpt lat="45.43287054389577" lon="9.253820271746369"><ele>102.0</ele><time>2026-04-18T14:59:50.003Z</time></trkpt><trkpt lat="45.43305337956218" lon="9.25398725946204"><ele>103.66666666666666</ele><time>2026-04-18T14:59:51.003Z</time></trkpt><trkpt lat="45.43324062339579" lon="9.254149772842645"><ele>105.33333333333333</ele><time>2026-04-18T14:59:52.003Z</time></trkpt><trkpt lat="45.433432318092684" lon="9.254321933386098"><ele>107.0</ele><time>2026-04-18T14:59:53.003Z</time></trkpt><trkpt lat="45.43363231502735" lon="9.25448647038827"><ele>107.0</ele><time>2026-04-18T14:59:54.003Z</time></trkpt><trkpt lat="45.43384560654575" lon="9.25464457740896"><ele>107.0</ele><time>2026-04-18T14:59:55.003Z</time></trkpt><trkpt lat="45.43405758419724" lon="9.254802085330265"><ele>107.0</ele><time>2026-04-18T14:59:56.003Z</time></trkpt><trkpt lat="45.43427578935383" lon="9.25495372824722"><ele>107.0</ele><time>2026-04-18T14:59:57.003Z</time></trkpt><trkpt lat="45.43449580258862" lon="9.255101621130503"><ele>106.5</ele><time>2026-04-18T14:59:58.003Z</time></trkpt><trkpt lat="45.434718809141074" lon="9.255253727927721"><ele>106.0</ele><time>2026-04-18T14:59:59.003Z</time></trkpt><trkpt lat="45.43494650673783" lon="9.255398199450964"><ele>106.0</ele><time>2026-04-18T15:00:00.003Z</time></trkpt><trkpt lat="45.435178104638744" lon="9.255533876164094"><ele>106.0</ele><time>2026-04-18T15:00:01.003Z</time></trkpt><trkpt lat="45.43541934804003" lon="9.25566145196436"><ele>107.0</ele><time>2026-04-18T15:00:02.003Z</time></trkpt><trkpt lat="45.43567429519602" lon="9.255794023347896"><ele>108.0</ele><time>2026-04-18T15:00:03.003Z</time></trkpt><trkpt lat="45.43589344718506" lon="9.255885814231782"><ele>108.0</ele><time>2026-04-18T15:00:04.003Z</time></trkpt><trkpt lat="45.436155401767984" lon="9.255986607287973"><ele>108.0</ele><time>2026-04-18T15:00:05.003Z</time></trkpt><trkpt lat="45.436404612336354" lon="9.256089113252346"><ele>107.0</ele><time>2026-04-18T15:00:06.003Z</time></trkpt><trkpt lat="45.43665585377822" lon="9.2561799167837"><ele>106.0</ele><time>2026-04-18T15:00:07.003Z</time></trkpt><trkpt lat="45.43690572444164" lon="9.256266664364986"><ele>107.0</ele><time>2026-04-18T15:00:08.003Z</time></trkpt><trkpt lat="45.43715507789851" lon="9.256345489841227"><ele>108.0</ele><time>2026-04-18T15:00:09.003Z</time></trkpt><trkpt lat="45.43740548701434" lon="9.256417881287765"><ele>105.5</ele><time>2026-04-18T15:00:10.003Z</time></trkpt><trkpt lat="45.43765578446381" lon="9.256487997862216"><ele>103.0</ele><time>2026-04-18T15:00:11.003Z</time></trkpt><trkpt lat="45.43790821952027" lon="9.256559022382191"><ele>103.5</ele><time>2026-04-18T15:00:11.998Z</time></trkpt><trkpt lat="45.43815541189209" lon="9.256627946761805"><ele>104.0</ele><time>2026-04-18T15:00:12.998Z</time></trkpt><trkpt lat="45.43840325550491" lon="9.256696534205485"><ele>104.0</ele><time>2026-04-18T15:00:13.998Z</time></trkpt><trkpt lat="45.43864183729415" lon="9.25676519431079"><ele>104.0</ele><time>2026-04-18T15:00:14.998Z</time></trkpt><trkpt lat="45.43888395314484" lon="9.25683977727286"><ele>104.0</ele><time>2026-04-18T15:00:15.998Z</time></trkpt><trkpt lat="45.43912433086888" lon="9.256908343125533"><ele>104.0</ele><time>2026-04-18T15:00:16.998Z</time></trkpt><trkpt lat="45.43936456314247" lon="9.256975742408677"><ele>104.0</ele><time>2026-04-18T15:00:17.998Z</time></trkpt><trkpt lat="45.439600978234395" lon="9.257039893096685"><ele>104.0</ele><time>2026-04-18T15:00:18.998Z</time></trkpt><trkpt lat="45.43984175547804" lon="9.257104343397204"><ele>104.5</ele><time>2026-04-18T15:00:19.999Z</time></trkpt><trkpt lat="45.4400803001722" lon="9.257169544323018"><ele>105.0</ele><time>2026-04-18T15:00:20.999Z</time></trkpt><trkpt lat="45.44031561266891" lon="9.25723572446845"><ele>104.0</ele><time>2026-04-18T15:00:21.999Z</time></trkpt><trkpt lat="45.44055716719837" lon="9.25730896245077"><ele>103.0</ele><time>2026-04-18T15:00:22.999Z</time></trkpt><trkpt lat="45.44079163317638" lon="9.257377614933157"><ele>103.0</ele><time>2026-04-18T15:00:23.999Z</time></trkpt><trkpt lat="45.441028616177746" lon="9.257447612422249"><ele>103.0</ele><time>2026-04-18T15:00:24.999Z</time></trkpt><trkpt lat="45.44126474217716" lon="9.257512585512897"><ele>100.5</ele><time>2026-04-18T15:00:25.999Z</time></trkpt><trkpt lat="45.44150515405757" lon="9.257579988157556"><ele>98.0</ele><time>2026-04-18T15:00:26.999Z</time></trkpt><trkpt lat="45.44174757412462" lon="9.257649926471498"><ele>98.0</ele><time>2026-04-18T15:00:27.999Z</time></trkpt><trkpt lat="45.441989183269506" lon="9.25771781425857"><ele>98.0</ele><time>2026-04-18T15:00:28.999Z</time></trkpt><trkpt lat="45.44223233914836" lon="9.257787899097746"><ele>101.0</ele><time>2026-04-18T15:00:29.999Z</time></trkpt><trkpt lat="45.44247865263834" lon="9.257859200769154"><ele>104.0</ele><time>2026-04-18T15:00:30.999Z</time></trkpt><trkpt lat="45.442724451407926" lon="9.257929907600976"><ele>100.5</ele><time>2026-04-18T15:00:31.999Z</time></trkpt><trkpt lat="45.44296972513026" lon="9.257997397695398"><ele>97.0</ele><time>2026-04-18T15:00:33Z</time></trkpt><trkpt lat="45.443217072009354" lon="9.258065512886875"><ele>99.0</ele><time>2026-04-18T15:00:34Z</time></trkpt><trkpt lat="45.44346399341303" lon="9.258133691817244"><ele>101.0</ele><time>2026-04-18T15:00:35Z</time></trkpt><trkpt lat="45.44371152369493" lon="9.258203721241163"><ele>96.5</ele><time>2026-04-18T15:00:36Z</time></trkpt><trkpt lat="45.443960963166255" lon="9.258277426308934"><ele>92.0</ele><time>2026-04-18T15:00:37Z</time></trkpt><trkpt lat="45.444209204656765" lon="9.258352373923929"><ele>92.0</ele><time>2026-04-18T15:00:38Z</time></trkpt><trkpt lat="45.44445724807195" lon="9.258420787295774"><ele>92.0</ele><time>2026-04-18T15:00:39Z</time></trkpt><trkpt lat="45.44470663760605" lon="9.258489938292065"><ele>91.5</ele><time>2026-04-18T15:00:40Z</time></trkpt><trkpt lat="45.44495458334055" lon="9.258562252576748"><ele>91.0</ele><time>2026-04-18T15:00:41Z</time></trkpt><trkpt lat="45.445201768208534" lon="9.258632549899533"><ele>91.0</ele><time>2026-04-18T15:00:42Z</time></trkpt><trkpt lat="45.44545004372982" lon="9.258704178793158"><ele>91.0</ele><time>2026-04-18T15:00:43Z</time></trkpt><trkpt lat="45.4456923384556" lon="9.258774686448003"><ele>96.0</ele><time>2026-04-18T15:00:44Z</time></trkpt><trkpt lat="45.44592019594617" lon="9.258839744254225"><ele>101.0</ele><time>2026-04-18T15:00:45Z</time></trkpt><trkpt lat="45.4461415983401" lon="9.258902848130292"><ele>102.66666666666666</ele><time>2026-04-18T15:00:46Z</time></trkpt><trkpt lat="45.44635710150716" lon="9.25895833487388"><ele>104.33333333333334</ele><time>2026-04-18T15:00:47Z</time></trkpt><trkpt lat="45.44657393829648" lon="9.259005184181666"><ele>106.0</ele><time>2026-04-18T15:00:48Z</time></trkpt><trkpt lat="45.446789842129284" lon="9.259037468659187"><ele>106.0</ele><time>2026-04-18T15:00:49Z</time></trkpt><trkpt lat="45.44700470510997" lon="9.259067423329581"><ele>106.0</ele><time>2026-04-18T15:00:50.001Z</time></trkpt><trkpt lat="45.44722302319253" lon="9.259083029860083"><ele>106.0</ele><time>2026-04-18T15:00:51.001Z</time></trkpt><trkpt lat="45.44743604028093" lon="9.259093966812989"><ele>105.66666666666667</ele><time>2026-04-18T15:00:52.001Z</time></trkpt><trkpt lat="45.44765363011074" lon="9.259094123827001"><ele>105.33333333333334</ele><time>2026-04-18T15:00:53.001Z</time></trkpt><trkpt lat="45.44786983918787" lon="9.259085189659455"><ele>105.0</ele><time>2026-04-18T15:00:54.001Z</time></trkpt><trkpt lat="45.448085470868676" lon="9.25905926571028"><ele>105.0</ele><time>2026-04-18T15:00:55.001Z</time></trkpt><trkpt lat="45.4483053527702" lon="9.259028046601983"><ele>105.0</ele><time>2026-04-18T15:00:56.001Z</time></trkpt><trkpt lat="45.448520753497306" lon="9.25898321313096"><ele>105.0</ele><time>2026-04-18T15:00:57.001Z</time></trkpt><trkpt lat="45.44873413207395" lon="9.25892818622927"><ele>106.33333333333334</ele><time>2026-04-18T15:00:58.001Z</time></trkpt><trkpt lat="45.44894566130312" lon="9.258865280841086"><ele>107.66666666666667</ele><time>2026-04-18T15:00:59.001Z</time></trkpt><trkpt lat="45.44915736081088" lon="9.258788797035006"><ele>109.0</ele><time>2026-04-18T15:01:00.001Z</time></trkpt><trkpt lat="45.44937273117681" lon="9.258696268459301"><ele>109.0</ele><time>2026-04-18T15:01:01.001Z</time></trkpt><trkpt lat="45.44959538065291" lon="9.2585806104848"><ele>109.0</ele><time>2026-04-18T15:01:02.001Z</time></trkpt><trkpt lat="45.44982667679308" lon="9.258452558759195"><ele>110.5</ele><time>2026-04-18T15:01:03.001Z</time></trkpt><trkpt lat="45.450056406912665" lon="9.258314742865092"><ele>112.0</ele><time>2026-04-18T15:01:04.001Z</time></trkpt><trkpt lat="45.45028033397954" lon="9.25816106595404"><ele>112.0</ele><time>2026-04-18T15:01:05.001Z</time></trkpt><trkpt lat="45.45049712967868" lon="9.258009165526598"><ele>112.0</ele><time>2026-04-18T15:01:06.001Z</time></trkpt><trkpt lat="45.450709909332545" lon="9.25785118577054"><ele>112.0</ele><time>2026-04-18T15:01:07.001Z</time></trkpt><trkpt lat="45.45091401551051" lon="9.257698043381307"><ele>112.0</ele><time>2026-04-18T15:01:08.001Z</time></trkpt><trkpt lat="45.45111914858149" lon="9.257534531375592"><ele>111.5</ele><time>2026-04-18T15:01:09.001Z</time></trkpt><trkpt lat="45.45132140397995" lon="9.257369787749772"><ele>111.0</ele><time>2026-04-18T15:01:10.001Z</time></trkpt><trkpt lat="45.45152589933681" lon="9.257198159412331"><ele>111.0</ele><time>2026-04-18T15:01:11.001Z</time></trkpt><trkpt lat="45.45172173395954" lon="9.257037118394186"><ele>111.0</ele><time>2026-04-18T15:01:12.001Z</time></trkpt><trkpt lat="45.45190692451713" lon="9.256883813961371"><ele>111.0</ele><time>2026-04-18T15:01:13.001Z</time></trkpt><trkpt lat="45.45208293089589" lon="9.25674014037053"><ele>110.66666666666666</ele><time>2026-04-18T15:01:14.001Z</time></trkpt><trkpt lat="45.45225599985071" lon="9.256601568308255"><ele>110.33333333333333</ele><time>2026-04-18T15:01:15.001Z</time></trkpt><trkpt lat="45.452421486346374" lon="9.256468698833734"><ele>110.0</ele><time>2026-04-18T15:01:16.001Z</time></trkpt><trkpt lat="45.45257644859746" lon="9.25634485234711"><ele>110.0</ele><time>2026-04-18T15:01:17.002Z</time></trkpt><trkpt lat="45.45272572876422" lon="9.256223988896881"><ele>110.0</ele><time>2026-04-18T15:01:18.002Z</time></trkpt><trkpt lat="45.45288027794551" lon="9.256103956601118"><ele>110.0</ele><time>2026-04-18T15:01:19.002Z</time></trkpt><trkpt lat="45.453026144346" lon="9.255988594612049"><ele>110.33333333333333</ele><time>2026-04-18T15:01:20.002Z</time></trkpt><trkpt lat="45.4531715076728" lon="9.25587048128891"><ele>110.66666666666666</ele><time>2026-04-18T15:01:21.002Z</time></trkpt><trkpt lat="45.45331580574945" lon="9.255750295315156"><ele>111.0</ele><time>2026-04-18T15:01:22.002Z</time></trkpt><trkpt lat="45.4534637589733" lon="9.255630438636672"><ele>111.0</ele><time>2026-04-18T15:01:23.002Z</time></trkpt><trkpt lat="45.45361083442564" lon="9.255503489169445"><ele>111.0</ele><time>2026-04-18T15:01:24.002Z</time></trkpt><trkpt lat="45.45376278365312" lon="9.25537882800182"><ele>111.0</ele><time>2026-04-18T15:01:25.002Z</time></trkpt><trkpt lat="45.453908341434705" lon="9.255261500052493"><ele>111.0</ele><time>2026-04-18T15:01:26.002Z</time></trkpt><trkpt lat="45.45405505118739" lon="9.255139683295246"><ele>111.0</ele><time>2026-04-18T15:01:27.002Z</time></trkpt><trkpt lat="45.45420255875569" lon="9.25501626540436"><ele>111.0</ele><time>2026-04-18T15:01:28.002Z</time></trkpt><trkpt lat="45.454346672704105" lon="9.254897740061013"><ele>110.33333333333334</ele><time>2026-04-18T15:01:29.002Z</time></trkpt><trkpt lat="45.45453063721357" lon="9.254749660886953"><ele>109.66666666666667</ele><time>2026-04-18T15:01:30.002Z</time></trkpt><trkpt lat="45.45469570088389" lon="9.254610816581646"><ele>109.0</ele><time>2026-04-18T15:01:31.002Z</time></trkpt><trkpt lat="45.45486344947399" lon="9.254475467316702"><ele>111.0</ele><time>2026-04-18T15:01:32.002Z</time></trkpt><trkpt lat="45.45503102127571" lon="9.254336808029814"><ele>113.0</ele><time>2026-04-18T15:01:33.002Z</time></trkpt><trkpt lat="45.45519914858463" lon="9.254193966401976"><ele>115.0</ele><time>2026-04-18T15:01:34.002Z</time></trkpt><trkpt lat="45.45537501986486" lon="9.254049317483027"><ele>113.66666666666667</ele><time>2026-04-18T15:01:35.002Z</time></trkpt><trkpt lat="45.455551632921015" lon="9.253897825184547"><ele>112.33333333333334</ele><time>2026-04-18T15:01:36.002Z</time></trkpt><trkpt lat="45.45573295206655" lon="9.253746590200358"><ele>111.0</ele><time>2026-04-18T15:01:37.002Z</time></trkpt><trkpt lat="45.4559112143423" lon="9.25359968285454"><ele>111.0</ele><time>2026-04-18T15:01:38.002Z</time></trkpt><trkpt lat="45.45608916612228" lon="9.253454376011858"><ele>111.0</ele><time>2026-04-18T15:01:39.002Z</time></trkpt><trkpt lat="45.456273117923125" lon="9.25330840237691"><ele>111.0</ele><time>2026-04-18T15:01:40.002Z</time></trkpt><trkpt lat="45.45644858572408" lon="9.253161424159623"><ele>111.33333333333334</ele><time>2026-04-18T15:01:41.002Z</time></trkpt><trkpt lat="45.45662441191995" lon="9.253020529172932"><ele>111.66666666666667</ele><time>2026-04-18T15:01:42.002Z</time></trkpt><trkpt lat="45.45680213063012" lon="9.252879031813313"><ele>112.0</ele><time>2026-04-18T15:01:43.002Z</time></trkpt><trkpt lat="45.456980945703066" lon="9.252746051051545"><ele>112.33333333333334</ele><time>2026-04-18T15:01:44.002Z</time></trkpt><trkpt lat="45.45716307492868" lon="9.252618569864268"><ele>112.66666666666666</ele><time>2026-04-18T15:01:45.002Z</time></trkpt><trkpt lat="45.45734742635406" lon="9.252499810280339"><ele>113.0</ele><time>2026-04-18T15:01:46.002Z</time></trkpt><trkpt lat="45.45752892326683" lon="9.25237908006713"><ele>113.33333333333333</ele><time>2026-04-18T15:01:47.002Z</time></trkpt><trkpt lat="45.45771482040217" lon="9.252269137089536"><ele>113.66666666666666</ele><time>2026-04-18T15:01:48.002Z</time></trkpt><trkpt lat="45.45790640051336" lon="9.25215922722644"><ele>114.0</ele><time>2026-04-18T15:01:49.003Z</time></trkpt><trkpt lat="45.458101142986294" lon="9.252053826341623"><ele>114.0</ele><time>2026-04-18T15:01:50.003Z</time></trkpt><trkpt lat="45.458299078632315" lon="9.251965698944106"><ele>114.0</ele><time>2026-04-18T15:01:51.003Z</time></trkpt><trkpt lat="45.45851222888495" lon="9.25191424883562"><ele>114.0</ele><time>2026-04-18T15:01:52.003Z</time></trkpt><trkpt lat="45.45871289966529" lon="9.251841455232027"><ele>113.66666666666666</ele><time>2026-04-18T15:01:53.003Z</time></trkpt><trkpt lat="45.45891469709745" lon="9.251762553287096"><ele>113.33333333333333</ele><time>2026-04-18T15:01:54.003Z</time></trkpt><trkpt lat="45.45911948490266" lon="9.251695822941848"><ele>113.0</ele><time>2026-04-18T15:01:55.003Z</time></trkpt><trkpt lat="45.459323012898444" lon="9.251632213635748"><ele>113.0</ele><time>2026-04-18T15:01:56.003Z</time></trkpt><trkpt lat="45.45952676356877" lon="9.25158112063505"><ele>113.0</ele><time>2026-04-18T15:01:57.003Z</time></trkpt><trkpt lat="45.4597380439316" lon="9.25153695204816"><ele>113.0</ele><time>2026-04-18T15:01:58.003Z</time></trkpt><trkpt lat="45.459944613089945" lon="9.25149769894186"><ele>113.0</ele><time>2026-04-18T15:01:59.003Z</time></trkpt><trkpt lat="45.4601475113868" lon="9.251455408587523"><ele>113.0</ele><time>2026-04-18T15:02:00.003Z</time></trkpt><trkpt lat="45.46034583185968" lon="9.25143211829142"><ele>113.0</ele><time>2026-04-18T15:02:01.003Z</time></trkpt><trkpt lat="45.46054987745825" lon="9.251420685677477"><ele>114.33333333333333</ele><time>2026-04-18T15:02:02.003Z</time></trkpt><trkpt lat="45.46075079043319" lon="9.251412368781201"><ele>115.66666666666666</ele><time>2026-04-18T15:02:03.003Z</time></trkpt><trkpt lat="45.46095489639251" lon="9.251401837996855"><ele>117.0</ele><time>2026-04-18T15:02:04.003Z</time></trkpt><trkpt lat="45.461162784543895" lon="9.251400862526696"><ele>116.66666666666666</ele><time>2026-04-18T15:02:05.003Z</time></trkpt><trkpt lat="45.46137107843559" lon="9.251413361626224"><ele>116.33333333333333</ele><time>2026-04-18T15:02:06.003Z</time></trkpt><trkpt lat="45.461576011889115" lon="9.251437896690547"><ele>116.0</ele><time>2026-04-18T15:02:07.003Z</time></trkpt><trkpt lat="45.461787092166986" lon="9.25145419320996"><ele>115.66666666666666</ele><time>2026-04-18T15:02:08.003Z</time></trkpt><trkpt lat="45.462000157305624" lon="9.251467559741887"><ele>115.33333333333334</ele><time>2026-04-18T15:02:09.003Z</time></trkpt><trkpt lat="45.462202351716925" lon="9.251498780943079"><ele>115.0</ele><time>2026-04-18T15:02:10.003Z</time></trkpt><trkpt lat="45.46240506941709" lon="9.251545444557959"><ele>113.66666666666667</ele><time>2026-04-18T15:02:11.003Z</time></trkpt><trkpt lat="45.46260752566018" lon="9.251601188090197"><ele>112.33333333333334</ele><time>2026-04-18T15:02:12.003Z</time></trkpt><trkpt lat="45.4628107369187" lon="9.251652927245882"><ele>111.0</ele><time>2026-04-18T15:02:13.003Z</time></trkpt><trkpt lat="45.46301811444405" lon="9.25169880988147"><ele>110.0</ele><time>2026-04-18T15:02:14.003Z</time></trkpt><trkpt lat="45.463220039498104" lon="9.251745189120491"><ele>109.0</ele><time>2026-04-18T15:02:15.003Z</time></trkpt><trkpt lat="45.463428941265114" lon="9.251799197163011"><ele>108.0</ele><time>2026-04-18T15:02:16.003Z</time></trkpt><trkpt lat="45.46364398392552" lon="9.251867451762967"><ele>108.33333333333334</ele><time>2026-04-18T15:02:17.003Z</time></trkpt><trkpt lat="45.46384945593494" lon="9.251928081802925"><ele>108.66666666666667</ele><time>2026-04-18T15:02:17.998Z</time></trkpt><trkpt lat="45.46405083477465" lon="9.251970741485302"><ele>109.0</ele><time>2026-04-18T15:02:18.998Z</time></trkpt><trkpt lat="45.46426126258857" lon="9.252032291238027"><ele>109.0</ele><time>2026-04-18T15:02:19.998Z</time></trkpt><trkpt lat="45.464487012723566" lon="9.252099519476921"><ele>109.0</ele><time>2026-04-18T15:02:20.998Z</time></trkpt><trkpt lat="45.464733658170516" lon="9.252165623574866"><ele>111.0</ele><time>2026-04-18T15:02:21.998Z</time></trkpt><trkpt lat="45.46497404341758" lon="9.252219545581223"><ele>113.0</ele><time>2026-04-18T15:02:22.998Z</time></trkpt><trkpt lat="45.46520975532611" lon="9.252255503266095"><ele>113.0</ele><time>2026-04-18T15:02:23.998Z</time></trkpt><trkpt lat="45.46543488784054" lon="9.2522787814795"><ele>113.0</ele><time>2026-04-18T15:02:24.998Z</time></trkpt><trkpt lat="45.465657240754254" lon="9.25230304047127"><ele>113.0</ele><time>2026-04-18T15:02:25.998Z</time></trkpt><trkpt lat="45.46587842000751" lon="9.252323635127746"><ele>113.33333333333333</ele><time>2026-04-18T15:02:26.998Z</time></trkpt><trkpt lat="45.466091096589075" lon="9.252330764608915"><ele>113.66666666666666</ele><time>2026-04-18T15:02:27.999Z</time></trkpt><trkpt lat="45.46630911865194" lon="9.252330266005183"><ele>114.0</ele><time>2026-04-18T15:02:28.999Z</time></trkpt><trkpt lat="45.46652889517102" lon="9.252320031393982"><ele>113.33333333333334</ele><time>2026-04-18T15:02:29.999Z</time></trkpt><trkpt lat="45.46673143600266" lon="9.252306670307211"><ele>112.66666666666667</ele><time>2026-04-18T15:02:30.999Z</time></trkpt><trkpt lat="45.466938131713974" lon="9.252302173343779"><ele>112.0</ele><time>2026-04-18T15:02:31.999Z</time></trkpt><trkpt lat="45.4671507364306" lon="9.252303677739592"><ele>113.0</ele><time>2026-04-18T15:02:32.999Z</time></trkpt><trkpt lat="45.46735134582735" lon="9.252287718728862"><ele>114.0</ele><time>2026-04-18T15:02:33.999Z</time></trkpt><trkpt lat="45.467561944279176" lon="9.252282555166126"><ele>115.0</ele><time>2026-04-18T15:02:34.999Z</time></trkpt><trkpt lat="45.46777193768766" lon="9.252288068909655"><ele>115.0</ele><time>2026-04-18T15:02:35.999Z</time></trkpt><trkpt lat="45.467981633931906" lon="9.252273067182944"><ele>115.0</ele><time>2026-04-18T15:02:36.999Z</time></trkpt><trkpt lat="45.46818876560805" lon="9.252266037577687"><ele>115.0</ele><time>2026-04-18T15:02:37.999Z</time></trkpt><trkpt lat="45.46839856158112" lon="9.252260653385079"><ele>115.0</ele><time>2026-04-18T15:02:38.999Z</time></trkpt><trkpt lat="45.468613138045875" lon="9.252248947569345"><ele>115.0</ele><time>2026-04-18T15:02:40Z</time></trkpt><trkpt lat="45.46882832825484" lon="9.252246163529051"><ele>115.0</ele><time>2026-04-18T15:02:41Z</time></trkpt><trkpt lat="45.469041054573275" lon="9.252246813238504"><ele>114.66666666666667</ele><time>2026-04-18T15:02:42Z</time></trkpt><trkpt lat="45.46925339690367" lon="9.252247085792048"><ele>114.33333333333334</ele><time>2026-04-18T15:02:43Z</time></trkpt><trkpt lat="45.469465332851804" lon="9.252249839962536"><ele>114.0</ele><time>2026-04-18T15:02:44Z</time></trkpt><trkpt lat="45.469674133865446" lon="9.252257471389571"><ele>114.0</ele><time>2026-04-18T15:02:45Z</time></trkpt><trkpt lat="45.46988158575516" lon="9.252268047309727"><ele>114.0</ele><time>2026-04-18T15:02:46Z</time></trkpt><trkpt lat="45.470085853358505" lon="9.252285980862279"><ele>114.0</ele><time>2026-04-18T15:02:47Z</time></trkpt><trkpt lat="45.47028318694571" lon="9.252301934103349"><ele>114.66666666666666</ele><time>2026-04-18T15:02:48Z</time></trkpt><trkpt lat="45.470479633730065" lon="9.252320850818508"><ele>115.33333333333333</ele><time>2026-04-18T15:02:49Z</time></trkpt><trkpt lat="45.47067106592999" lon="9.252344108108172"><ele>116.0</ele><time>2026-04-18T15:02:50Z</time></trkpt><trkpt lat="45.47086713574782" lon="9.252370271115929"><ele>116.0</ele><time>2026-04-18T15:02:51Z</time></trkpt><trkpt lat="45.47107016407306" lon="9.25239877139482"><ele>116.0</ele><time>2026-04-18T15:02:52Z</time></trkpt><trkpt lat="45.471278778383414" lon="9.25243167673668"><ele>116.0</ele><time>2026-04-18T15:02:53Z</time></trkpt><trkpt lat="45.4714783776017" lon="9.252467464862757"><ele>116.33333333333333</ele><time>2026-04-18T15:02:54Z</time></trkpt><trkpt lat="45.47167612929996" lon="9.25250223587228"><ele>116.66666666666666</ele><time>2026-04-18T15:02:55Z</time></trkpt><trkpt lat="45.47186650049" lon="9.252538764711707"><ele>117.0</ele><time>2026-04-18T15:02:56Z</time></trkpt><trkpt lat="45.4720553083585" lon="9.252582906365172"><ele>118.33333333333334</ele><time>2026-04-18T15:02:57Z</time></trkpt><trkpt lat="45.47224497177142" lon="9.25262938499437"><ele>119.66666666666667</ele><time>2026-04-18T15:02:58.001Z</time></trkpt><trkpt lat="45.472440156749336" lon="9.252677421823108"><ele>121.0</ele><time>2026-04-18T15:02:59.001Z</time></trkpt><trkpt lat="45.47263376772787" lon="9.252731915574087"><ele>121.0</ele><time>2026-04-18T15:03:00.001Z</time></trkpt><trkpt lat="45.47282756949779" lon="9.252790741034733"><ele>121.0</ele><time>2026-04-18T15:03:01.001Z</time></trkpt><trkpt lat="45.473004324782785" lon="9.252848876035928"><ele>121.0</ele><time>2026-04-18T15:03:02.001Z</time></trkpt><trkpt lat="45.47317778786217" lon="9.252907281730138"><ele>120.33333333333334</ele><time>2026-04-18T15:03:03.001Z</time></trkpt><trkpt lat="45.47336613964907" lon="9.252969111396737"><ele>119.66666666666666</ele><time>2026-04-18T15:03:04.001Z</time></trkpt><trkpt lat="45.47355690796634" lon="9.253034172537909"><ele>119.0</ele><time>2026-04-18T15:03:05.001Z</time></trkpt><trkpt lat="45.47375438892693" lon="9.253099134641179"><ele>119.33333333333333</ele><time>2026-04-18T15:03:06.001Z</time></trkpt><trkpt lat="45.47394730281393" lon="9.253164633770892"><ele>119.66666666666666</ele><time>2026-04-18T15:03:07.001Z</time></trkpt><trkpt lat="45.47413885062046" lon="9.25322923864908"><ele>120.0</ele><time>2026-04-18T15:03:08.001Z</time></trkpt><trkpt lat="45.47433253760654" lon="9.25329141511392"><ele>120.0</ele><time>2026-04-18T15:03:09.001Z</time></trkpt><trkpt lat="45.47452343488703" lon="9.25335384176569"><ele>120.0</ele><time>2026-04-18T15:03:10.001Z</time></trkpt><trkpt lat="45.474709452845076" lon="9.253415592150917"><ele>120.0</ele><time>2026-04-18T15:03:11.001Z</time></trkpt><trkpt lat="45.47489445750411" lon="9.253478536459701"><ele>120.0</ele><time>2026-04-18T15:03:12.001Z</time></trkpt><trkpt lat="45.47507888319591" lon="9.253539117411968"><ele>120.0</ele><time>2026-04-18T15:03:13.001Z</time></trkpt><trkpt lat="45.475267207631106" lon="9.2535973517929"><ele>120.0</ele><time>2026-04-18T15:03:14.001Z</time></trkpt><trkpt lat="45.47545402643745" lon="9.253646763139132"><ele>119.0</ele><time>2026-04-18T15:03:15.001Z</time></trkpt><trkpt lat="45.475647826003936" lon="9.253688066770057"><ele>118.0</ele><time>2026-04-18T15:03:16.001Z</time></trkpt><trkpt lat="45.47584685901877" lon="9.253723723301423"><ele>117.0</ele><time>2026-04-18T15:03:17.001Z</time></trkpt><trkpt lat="45.47605091213323" lon="9.253747737053006"><ele>117.0</ele><time>2026-04-18T15:03:18.001Z</time></trkpt><trkpt lat="45.47625931542197" lon="9.253760939748801"><ele>117.0</ele><time>2026-04-18T15:03:19.001Z</time></trkpt><trkpt lat="45.47646757125987" lon="9.253761770319455"><ele>117.0</ele><time>2026-04-18T15:03:20.001Z</time></trkpt><trkpt lat="45.47667641971545" lon="9.253751316918406"><ele>117.0</ele><time>2026-04-18T15:03:21.001Z</time></trkpt><trkpt lat="45.47688831914191" lon="9.253727252596455"><ele>117.0</ele><time>2026-04-18T15:03:22.001Z</time></trkpt><trkpt lat="45.47709912495293" lon="9.253697497024262"><ele>117.0</ele><time>2026-04-18T15:03:23.001Z</time></trkpt><trkpt lat="45.47730921209692" lon="9.253649120318379"><ele>117.0</ele><time>2026-04-18T15:03:24.001Z</time></trkpt><trkpt lat="45.47752281572581" lon="9.253589809997408"><ele>117.0</ele><time>2026-04-18T15:03:25.001Z</time></trkpt><trkpt lat="45.47773529439152" lon="9.253517822428226"><ele>117.0</ele><time>2026-04-18T15:03:26.002Z</time></trkpt><trkpt lat="45.47794411045704" lon="9.253435841402212"><ele>117.0</ele><time>2026-04-18T15:03:27.002Z</time></trkpt><trkpt lat="45.47815379688536" lon="9.253348286731475"><ele>117.0</ele><time>2026-04-18T15:03:28.002Z</time></trkpt><trkpt lat="45.4783574619954" lon="9.253256528915513"><ele>117.0</ele><time>2026-04-18T15:03:29.002Z</time></trkpt><trkpt lat="45.47856359503083" lon="9.253163454768474"><ele>116.66666666666666</ele><time>2026-04-18T15:03:30.002Z</time></trkpt><trkpt lat="45.47876369896299" lon="9.25307068084217"><ele>116.33333333333333</ele><time>2026-04-18T15:03:31.002Z</time></trkpt><trkpt lat="45.47896881622417" lon="9.25298211153744"><ele>116.0</ele><time>2026-04-18T15:03:32.002Z</time></trkpt><trkpt lat="45.47916912672004" lon="9.252881916264034"><ele>116.33333333333333</ele><time>2026-04-18T15:03:33.002Z</time></trkpt><trkpt lat="45.47937576601772" lon="9.252792378260043"><ele>116.66666666666666</ele><time>2026-04-18T15:03:34.002Z</time></trkpt><trkpt lat="45.47958504876414" lon="9.252697163269628"><ele>117.0</ele><time>2026-04-18T15:03:35.002Z</time></trkpt><trkpt lat="45.47979349341292" lon="9.25260409621643"><ele>117.0</ele><time>2026-04-18T15:03:36.002Z</time></trkpt><trkpt lat="45.48000120461232" lon="9.25250927671718"><ele>117.0</ele><time>2026-04-18T15:03:37.002Z</time></trkpt><trkpt lat="45.48021158419749" lon="9.252414321450226"><ele>117.0</ele><time>2026-04-18T15:03:38.002Z</time></trkpt><trkpt lat="45.48041886324628" lon="9.252320647938593"><ele>118.33333333333334</ele><time>2026-04-18T15:03:39.002Z</time></trkpt><trkpt lat="45.48062391490595" lon="9.252225790857919"><ele>119.66666666666667</ele><time>2026-04-18T15:03:40.002Z</time></trkpt><trkpt lat="45.480827565065404" lon="9.252133838274277"><ele>121.0</ele><time>2026-04-18T15:03:41.002Z</time></trkpt><trkpt lat="45.48103552106043" lon="9.252037422160624"><ele>121.0</ele><time>2026-04-18T15:03:42.002Z</time></trkpt><trkpt lat="45.481242860605605" lon="9.251941075036237"><ele>121.0</ele><time>2026-04-18T15:03:43.002Z</time></trkpt><trkpt lat="45.48145241148871" lon="9.251847963184067"><ele>121.0</ele><time>2026-04-18T15:03:44.002Z</time></trkpt><trkpt lat="45.481658276291746" lon="9.251756470002665"><ele>121.0</ele><time>2026-04-18T15:03:45.002Z</time></trkpt><trkpt lat="45.481865725101684" lon="9.251666266454329"><ele>121.0</ele><time>2026-04-18T15:03:46.002Z</time></trkpt><trkpt lat="45.482071982835635" lon="9.251579584464912"><ele>121.0</ele><time>2026-04-18T15:03:47.002Z</time></trkpt><trkpt lat="45.48227665161826" lon="9.251502080105599"><ele>120.66666666666667</ele><time>2026-04-18T15:03:48.002Z</time></trkpt><trkpt lat="45.48248053958869" lon="9.251435798007282"><ele>120.33333333333334</ele><time>2026-04-18T15:03:49.002Z</time></trkpt><trkpt lat="45.4826850636714" lon="9.251369593952"><ele>120.0</ele><time>2026-04-18T15:03:50.002Z</time></trkpt><trkpt lat="45.482897057078986" lon="9.251315381188679"><ele>119.33333333333334</ele><time>2026-04-18T15:03:51.002Z</time></trkpt><trkpt lat="45.48310860499961" lon="9.25127269628243"><ele>118.66666666666667</ele><time>2026-04-18T15:03:52.002Z</time></trkpt><trkpt lat="45.48332630296613" lon="9.251238682387681"><ele>118.0</ele><time>2026-04-18T15:03:53.002Z</time></trkpt><trkpt lat="45.48354401291945" lon="9.25120772102102"><ele>118.66666666666667</ele><time>2026-04-18T15:03:54.002Z</time></trkpt><trkpt lat="45.48376407372533" lon="9.251186908167577"><ele>119.33333333333334</ele><time>2026-04-18T15:03:55.002Z</time></trkpt><trkpt lat="45.48398910781008" lon="9.251174492258686"><ele>120.0</ele><time>2026-04-18T15:03:56.002Z</time></trkpt><trkpt lat="45.48422524617265" lon="9.251170768121588"><ele>120.0</ele><time>2026-04-18T15:03:57.002Z</time></trkpt><trkpt lat="45.48445755482285" lon="9.251184911561001"><ele>120.0</ele><time>2026-04-18T15:03:58.003Z</time></trkpt><trkpt lat="45.48468735805839" lon="9.251209768886909"><ele>119.0</ele><time>2026-04-18T15:03:59.003Z</time></trkpt><trkpt lat="45.484920591143684" lon="9.251236279034268"><ele>118.0</ele><time>2026-04-18T15:04:00.003Z</time></trkpt><trkpt lat="45.48515327830038" lon="9.251266408261097"><ele>118.0</ele><time>2026-04-18T15:04:01.003Z</time></trkpt><trkpt lat="45.4853881408559" lon="9.25130137324671"><ele>118.0</ele><time>2026-04-18T15:04:02.003Z</time></trkpt><trkpt lat="45.48562251444223" lon="9.251337382321271"><ele>118.0</ele><time>2026-04-18T15:04:03.003Z</time></trkpt><trkpt lat="45.48586195636526" lon="9.251375199592868"><ele>118.0</ele><time>2026-04-18T15:04:04.003Z</time></trkpt><trkpt lat="45.48609284158168" lon="9.251409963074813"><ele>118.5</ele><time>2026-04-18T15:04:05.003Z</time></trkpt><trkpt lat="45.486328137249615" lon="9.25144743810683"><ele>119.0</ele><time>2026-04-18T15:04:06.003Z</time></trkpt><trkpt lat="45.48656218570154" lon="9.251481881531156"><ele>119.0</ele><time>2026-04-18T15:04:07.003Z</time></trkpt><trkpt lat="45.48679466953859" lon="9.251518412722218"><ele>119.0</ele><time>2026-04-18T15:04:08.003Z</time></trkpt><trkpt lat="45.487025478063366" lon="9.251554107039395"><ele>118.5</ele><time>2026-04-18T15:04:09.003Z</time></trkpt><trkpt lat="45.48725389870606" lon="9.251585230358074"><ele>118.0</ele><time>2026-04-18T15:04:10.003Z</time></trkpt><trkpt lat="45.487483054192715" lon="9.251617191342678"><ele>118.0</ele><time>2026-04-18T15:04:11.003Z</time></trkpt><trkpt lat="45.48771420274816" lon="9.251651953579248"><ele>118.0</ele><time>2026-04-18T15:04:12.003Z</time></trkpt><trkpt lat="45.48794121888562" lon="9.25168654491899"><ele>118.5</ele><time>2026-04-18T15:04:13.003Z</time></trkpt><trkpt lat="45.48817021567251" lon="9.251721893329508"><ele>119.0</ele><time>2026-04-18T15:04:14.003Z</time></trkpt><trkpt lat="45.4883932205269" lon="9.251756608395766"><ele>119.0</ele><time>2026-04-18T15:04:15.003Z</time></trkpt><trkpt lat="45.48862112398113" lon="9.251792224393927"><ele>119.0</ele><time>2026-04-18T15:04:16.003Z</time></trkpt><trkpt lat="45.48884887707293" lon="9.251827888976232"><ele>120.0</ele><time>2026-04-18T15:04:17.003Z</time></trkpt><trkpt lat="45.489078797388316" lon="9.251864331268765"><ele>121.0</ele><time>2026-04-18T15:04:18.003Z</time></trkpt><trkpt lat="45.48930434176556" lon="9.251899092468841"><ele>121.0</ele><time>2026-04-18T15:04:19.003Z</time></trkpt><trkpt lat="45.48953516172427" lon="9.251937717545836"><ele>121.0</ele><time>2026-04-18T15:04:20.003Z</time></trkpt><trkpt lat="45.48976697752768" lon="9.251978470764636"><ele>121.0</ele><time>2026-04-18T15:04:21.003Z</time></trkpt><trkpt lat="45.489996787069565" lon="9.252015616865693"><ele>121.0</ele><time>2026-04-18T15:04:22.003Z</time></trkpt><trkpt lat="45.49023021145192" lon="9.252061642857782"><ele>123.5</ele><time>2026-04-18T15:04:23.003Z</time></trkpt><trkpt lat="45.4904633560629" lon="9.252115566317846"><ele>126.0</ele><time>2026-04-18T15:04:23.998Z</time></trkpt><trkpt lat="45.49069424777896" lon="9.252176142123702"><ele>126.0</ele><time>2026-04-18T15:04:24.998Z</time></trkpt><trkpt lat="45.49092574216184" lon="9.25224373384626"><ele>126.0</ele><time>2026-04-18T15:04:25.998Z</time></trkpt><trkpt lat="45.491156496063496" lon="9.252321420903456"><ele>125.5</ele><time>2026-04-18T15:04:26.998Z</time></trkpt><trkpt lat="45.491386844556715" lon="9.252414269312398"><ele>125.0</ele><time>2026-04-18T15:04:27.998Z</time></trkpt><trkpt lat="45.49161542878632" lon="9.25250686782427"><ele>125.0</ele><time>2026-04-18T15:04:28.998Z</time></trkpt><trkpt lat="45.49184121830372" lon="9.252608532993507"><ele>125.0</ele><time>2026-04-18T15:04:29.998Z</time></trkpt><trkpt lat="45.492060917268844" lon="9.252717159573361"><ele>123.0</ele><time>2026-04-18T15:04:30.998Z</time></trkpt><trkpt lat="45.4922704144336" lon="9.252839399616757"><ele>121.0</ele><time>2026-04-18T15:04:31.999Z</time></trkpt><trkpt lat="45.49247546857015" lon="9.252968753917738"><ele>121.0</ele><time>2026-04-18T15:04:32.999Z</time></trkpt><trkpt lat="45.49267824145416" lon="9.253103830350955"><ele>121.0</ele><time>2026-04-18T15:04:33.999Z</time></trkpt><trkpt lat="45.492875217649065" lon="9.253235709261846"><ele>121.0</ele><time>2026-04-18T15:04:34.999Z</time></trkpt><trkpt lat="45.493065070461185" lon="9.253359289969492"><ele>121.0</ele><time>2026-04-18T15:04:35.999Z</time></trkpt><trkpt lat="45.49325540909505" lon="9.253487658871752"><ele>121.0</ele><time>2026-04-18T15:04:36.999Z</time></trkpt><trkpt lat="45.49344400939317" lon="9.25361328264316"><ele>121.0</ele><time>2026-04-18T15:04:37.999Z</time></trkpt><trkpt lat="45.49363108278223" lon="9.253739547170248"><ele>120.66666666666667</ele><time>2026-04-18T15:04:38.999Z</time></trkpt><trkpt lat="45.493815540224176" lon="9.253864357961781"><ele>120.33333333333334</ele><time>2026-04-18T15:04:39.999Z</time></trkpt><trkpt lat="45.49399969099859" lon="9.253986844143052"><ele>120.0</ele><time>2026-04-18T15:04:40.999Z</time></trkpt><trkpt lat="45.494183206266634" lon="9.254108573030981"><ele>120.0</ele><time>2026-04-18T15:04:41.999Z</time></trkpt><trkpt lat="45.49437002346949" lon="9.254234861199846"><ele>120.0</ele><time>2026-04-18T15:04:42.999Z</time></trkpt><trkpt lat="45.49455458149955" lon="9.254359906499293"><ele>120.0</ele><time>2026-04-18T15:04:43.999Z</time></trkpt><trkpt lat="45.494746912292015" lon="9.254491655624964"><ele>120.0</ele><time>2026-04-18T15:04:44.999Z</time></trkpt><trkpt lat="45.494942432003796" lon="9.254625526858767"><ele>120.0</ele><time>2026-04-18T15:04:46Z</time></trkpt><trkpt lat="45.49513804878886" lon="9.254759256454477"><ele>120.0</ele><time>2026-04-18T15:04:47Z</time></trkpt><trkpt lat="45.495329082638655" lon="9.254882879684173"><ele>121.0</ele><time>2026-04-18T15:04:48Z</time></trkpt><trkpt lat="45.49552790901272" lon="9.25499880868057"><ele>122.0</ele><time>2026-04-18T15:04:49Z</time></trkpt><trkpt lat="45.49573022267202" lon="9.255104927959227"><ele>123.0</ele><time>2026-04-18T15:04:50Z</time></trkpt><trkpt lat="45.49593742093731" lon="9.255203151216879"><ele>123.0</ele><time>2026-04-18T15:04:51Z</time></trkpt><trkpt lat="45.49614845030125" lon="9.255293585999944"><ele>123.0</ele><time>2026-04-18T15:04:52Z</time></trkpt><trkpt lat="45.4963622993859" lon="9.255367661577635"><ele>123.0</ele><time>2026-04-18T15:04:53Z</time></trkpt><trkpt lat="45.49657942974434" lon="9.255430592935776"><ele>123.33333333333334</ele><time>2026-04-18T15:04:54Z</time></trkpt><trkpt lat="45.49679722126132" lon="9.255483209843073"><ele>123.66666666666667</ele><time>2026-04-18T15:04:55Z</time></trkpt><trkpt lat="45.497013541601596" lon="9.255524504531627"><ele>124.0</ele><time>2026-04-18T15:04:56Z</time></trkpt><trkpt lat="45.49723553948563" lon="9.255556376043554"><ele>124.0</ele><time>2026-04-18T15:04:57Z</time></trkpt><trkpt lat="45.497456042027316" lon="9.25557995114226"><ele>124.0</ele><time>2026-04-18T15:04:58Z</time></trkpt><trkpt lat="45.497678402853445" lon="9.255603975860199"><ele>124.0</ele><time>2026-04-18T15:04:59Z</time></trkpt><trkpt lat="45.49789774979831" lon="9.255627685509115"><ele>123.33333333333334</ele><time>2026-04-18T15:05:00Z</time></trkpt><trkpt lat="45.49811525687963" lon="9.255650311169052"><ele>122.66666666666666</ele><time>2026-04-18T15:05:01Z</time></trkpt><trkpt lat="45.498328843205805" lon="9.255672522585405"><ele>122.0</ele><time>2026-04-18T15:05:02Z</time></trkpt><trkpt lat="45.49853944702489" lon="9.255692564502231"><ele>123.33333333333333</ele><time>2026-04-18T15:05:03Z</time></trkpt><trkpt lat="45.49875265130272" lon="9.255713924644088"><ele>124.66666666666666</ele><time>2026-04-18T15:05:04.001Z</time></trkpt><trkpt lat="45.498966182414165" lon="9.255736306419141"><ele>126.0</ele><time>2026-04-18T15:05:05.001Z</time></trkpt><trkpt lat="45.49918096484038" lon="9.255760450381771"><ele>126.0</ele><time>2026-04-18T15:05:06.001Z</time></trkpt><trkpt lat="45.49939874327178" lon="9.25578554332992"><ele>126.0</ele><time>2026-04-18T15:05:07.001Z</time></trkpt><trkpt lat="45.4996162637209" lon="9.25580943355177"><ele>126.0</ele><time>2026-04-18T15:05:08.001Z</time></trkpt><trkpt lat="45.49983274613368" lon="9.255836170064299"><ele>125.33333333333334</ele><time>2026-04-18T15:05:09.001Z</time></trkpt><trkpt lat="45.50004721612095" lon="9.25586780341921"><ele>124.66666666666667</ele><time>2026-04-18T15:05:10.001Z</time></trkpt><trkpt lat="45.500259439005895" lon="9.255911027131113"><ele>124.0</ele><time>2026-04-18T15:05:11.001Z</time></trkpt><trkpt lat="45.50046845011676" lon="9.255966560449435"><ele>123.0</ele><time>2026-04-18T15:05:12.001Z</time></trkpt><trkpt lat="45.500670294448554" lon="9.256033791111843"><ele>122.0</ele><time>2026-04-18T15:05:13.001Z</time></trkpt><trkpt lat="45.50086947775039" lon="9.256108715526498"><ele>121.0</ele><time>2026-04-18T15:05:14.001Z</time></trkpt><trkpt lat="45.501060682776185" lon="9.256191805438759"><ele>121.0</ele><time>2026-04-18T15:05:15.001Z</time></trkpt><trkpt lat="45.50124120794727" lon="9.256282090227785"><ele>121.0</ele><time>2026-04-18T15:05:16.001Z</time></trkpt><trkpt lat="45.50142279919065" lon="9.256385727499783"><ele>121.0</ele><time>2026-04-18T15:05:17.001Z</time></trkpt><trkpt lat="45.50160388864729" lon="9.25649832000422"><ele>120.66666666666667</ele><time>2026-04-18T15:05:18.001Z</time></trkpt><trkpt lat="45.50178401510268" lon="9.256618506007584"><ele>120.33333333333334</ele><time>2026-04-18T15:05:19.001Z</time></trkpt><trkpt lat="45.501963238125946" lon="9.256747809003308"><ele>120.0</ele><time>2026-04-18T15:05:20.001Z</time></trkpt><trkpt lat="45.50214110313847" lon="9.25688224555844"><ele>120.0</ele><time>2026-04-18T15:05:21.001Z</time></trkpt><trkpt lat="45.502308170500584" lon="9.257011135798223"><ele>120.0</ele><time>2026-04-18T15:05:22.001Z</time></trkpt><trkpt lat="45.5024714607582" lon="9.257134369288293"><ele>120.0</ele><time>2026-04-18T15:05:23.001Z</time></trkpt><trkpt lat="45.50263614086296" lon="9.257259305521465"><ele>120.0</ele><time>2026-04-18T15:05:24.001Z</time></trkpt><trkpt lat="45.502804588381075" lon="9.257384092297693"><ele>120.0</ele><time>2026-04-18T15:05:25.001Z</time></trkpt><trkpt lat="45.50297139345721" lon="9.257505348517482"><ele>120.0</ele><time>2026-04-18T15:05:26.001Z</time></trkpt><trkpt lat="45.503138821062784" lon="9.257627998489893"><ele>120.0</ele><time>2026-04-18T15:05:27.001Z</time></trkpt><trkpt lat="45.50330262962324" lon="9.257750196075598"><ele>120.0</ele><time>2026-04-18T15:05:28.001Z</time></trkpt><trkpt lat="45.503468765260116" lon="9.257873601905109"><ele>120.0</ele><time>2026-04-18T15:05:29.001Z</time></trkpt><trkpt lat="45.50363004988133" lon="9.25799479732915"><ele>121.0</ele><time>2026-04-18T15:05:30.001Z</time></trkpt><trkpt lat="45.503792438552665" lon="9.258118303343993"><ele>122.0</ele><time>2026-04-18T15:05:31.001Z</time></trkpt><trkpt lat="45.50395734369745" lon="9.258242812052023"><ele>123.0</ele><time>2026-04-18T15:05:32.002Z</time></trkpt><trkpt lat="45.50412137970385" lon="9.258369192033765"><ele>123.0</ele><time>2026-04-18T15:05:33.002Z</time></trkpt><trkpt lat="45.50428727792062" lon="9.258496237371432"><ele>123.0</ele><time>2026-04-18T15:05:34.002Z</time></trkpt><trkpt lat="45.50445455448199" lon="9.258627400457152"><ele>123.0</ele><time>2026-04-18T15:05:35.002Z</time></trkpt><trkpt lat="45.50461741551294" lon="9.258756087628242"><ele>123.0</ele><time>2026-04-18T15:05:36.002Z</time></trkpt><trkpt lat="45.50478247684095" lon="9.258883226702807"><ele>123.0</ele><time>2026-04-18T15:05:37.002Z</time></trkpt><trkpt lat="45.50494744516863" lon="9.259009695968512"><ele>123.0</ele><time>2026-04-18T15:05:38.002Z</time></trkpt><trkpt lat="45.50511330452704" lon="9.259135542347021"><ele>122.33333333333334</ele><time>2026-04-18T15:05:39.002Z</time></trkpt><trkpt lat="45.505285494664676" lon="9.259265681987475"><ele>121.66666666666667</ele><time>2026-04-18T15:05:40.002Z</time></trkpt><trkpt lat="45.50545943674234" lon="9.259400851080361"><ele>121.0</ele><time>2026-04-18T15:05:41.002Z</time></trkpt><trkpt lat="45.50563649511905" lon="9.25953733617234"><ele>121.0</ele><time>2026-04-18T15:05:42.002Z</time></trkpt><trkpt lat="45.50581646107596" lon="9.259675916059049"><ele>121.0</ele><time>2026-04-18T15:05:43.002Z</time></trkpt><trkpt lat="45.50599623737556" lon="9.2598148511525"><ele>121.0</ele><time>2026-04-18T15:05:44.002Z</time></trkpt><trkpt lat="45.506179148481394" lon="9.25995886094232"><ele>121.66666666666667</ele><time>2026-04-18T15:05:45.002Z</time></trkpt><trkpt lat="45.50636357340978" lon="9.260103375408962"><ele>122.33333333333334</ele><time>2026-04-18T15:05:46.002Z</time></trkpt><trkpt lat="45.50655014255323" lon="9.260247039352523"><ele>123.0</ele><time>2026-04-18T15:05:47.002Z</time></trkpt><trkpt lat="45.5067384658702" lon="9.260393048921735"><ele>123.0</ele><time>2026-04-18T15:05:48.002Z</time></trkpt><trkpt lat="45.50693015747066" lon="9.260542257899617"><ele>123.0</ele><time>2026-04-18T15:05:49.002Z</time></trkpt><trkpt lat="45.507117293478835" lon="9.26068538324667"><ele>123.0</ele><time>2026-04-18T15:05:50.002Z</time></trkpt><trkpt lat="45.507306305777504" lon="9.26082626218053"><ele>123.33333333333334</ele><time>2026-04-18T15:05:51.002Z</time></trkpt><trkpt lat="45.50749317295665" lon="9.260967459842808"><ele>123.66666666666667</ele><time>2026-04-18T15:05:52.002Z</time></trkpt><trkpt lat="45.5076829739391" lon="9.261109122530026"><ele>124.0</ele><time>2026-04-18T15:05:53.002Z</time></trkpt><trkpt lat="45.50787443549666" lon="9.261255709988834"><ele>123.66666666666667</ele><time>2026-04-18T15:05:54.002Z</time></trkpt><trkpt lat="45.50806874051489" lon="9.261402453612916"><ele>123.33333333333334</ele><time>2026-04-18T15:05:55.002Z</time></trkpt><trkpt lat="45.50826394116195" lon="9.2615415440735"><ele>123.0</ele><time>2026-04-18T15:05:56.002Z</time></trkpt><trkpt lat="45.50846411737117" lon="9.261664515076244"><ele>123.33333333333334</ele><time>2026-04-18T15:05:57.002Z</time></trkpt><trkpt lat="45.508668667894035" lon="9.261768745306034"><ele>123.66666666666667</ele><time>2026-04-18T15:05:58.002Z</time></trkpt><trkpt lat="45.5088828449287" lon="9.261854619185343"><ele>124.0</ele><time>2026-04-18T15:05:59.002Z</time></trkpt><trkpt lat="45.50909646684279" lon="9.261921634587436"><ele>124.0</ele><time>2026-04-18T15:06:00.002Z</time></trkpt><trkpt lat="45.509317140016535" lon="9.261968609021135"><ele>124.0</ele><time>2026-04-18T15:06:01.002Z</time></trkpt><trkpt lat="45.50953694847492" lon="9.261993356527597"><ele>124.0</ele><time>2026-04-18T15:06:02.002Z</time></trkpt><trkpt lat="45.50975804857071" lon="9.26199740903318"><ele>124.33333333333334</ele><time>2026-04-18T15:06:03.002Z</time></trkpt><trkpt lat="45.509980481690334" lon="9.261987397398393"><ele>124.66666666666666</ele><time>2026-04-18T15:06:04.002Z</time></trkpt><trkpt lat="45.51019780936954" lon="9.261960314499369"><ele>125.0</ele><time>2026-04-18T15:06:05.003Z</time></trkpt><trkpt lat="45.510415299641956" lon="9.261918067505631"><ele>125.0</ele><time>2026-04-18T15:06:06.003Z</time></trkpt><trkpt lat="45.510630641590566" lon="9.26185860316639"><ele>125.0</ele><time>2026-04-18T15:06:07.003Z</time></trkpt><trkpt lat="45.51084827231643" lon="9.261791577683715"><ele>125.0</ele><time>2026-04-18T15:06:08.003Z</time></trkpt><trkpt lat="45.51106764833388" lon="9.261732138898617"><ele>126.0</ele><time>2026-04-18T15:06:09.003Z</time></trkpt><trkpt lat="45.511289206774045" lon="9.261688287353985"><ele>127.0</ele><time>2026-04-18T15:06:10.003Z</time></trkpt><trkpt lat="45.51151181775193" lon="9.26166499755694"><ele>128.0</ele><time>2026-04-18T15:06:11.003Z</time></trkpt><trkpt lat="45.51173662328106" lon="9.26166871450075"><ele>128.0</ele><time>2026-04-18T15:06:12.003Z</time></trkpt><trkpt lat="45.51195810745632" lon="9.261697511360321"><ele>128.0</ele><time>2026-04-18T15:06:13.003Z</time></trkpt><trkpt lat="45.512184340918715" lon="9.26174225293206"><ele>127.5</ele><time>2026-04-18T15:06:14.003Z</time></trkpt><trkpt lat="45.51241492096706" lon="9.261808987765377"><ele>127.0</ele><time>2026-04-18T15:06:15.003Z</time></trkpt><trkpt lat="45.51264561444086" lon="9.261893984010754"><ele>127.0</ele><time>2026-04-18T15:06:16.003Z</time></trkpt><trkpt lat="45.51287235642533" lon="9.26198223936521"><ele>127.0</ele><time>2026-04-18T15:06:17.003Z</time></trkpt><trkpt lat="45.513101786869676" lon="9.262063163442221"><ele>128.0</ele><time>2026-04-18T15:06:18.003Z</time></trkpt><trkpt lat="45.51332204817467" lon="9.262126267073386"><ele>129.0</ele><time>2026-04-18T15:06:19.003Z</time></trkpt><trkpt lat="45.513541630466904" lon="9.262160754566557"><ele>130.0</ele><time>2026-04-18T15:06:20.003Z</time></trkpt><trkpt lat="45.513770081772016" lon="9.262173168719146"><ele>130.5</ele><time>2026-04-18T15:06:21.003Z</time></trkpt><trkpt lat="45.51400459837673" lon="9.262165706779697"><ele>131.0</ele><time>2026-04-18T15:06:22.003Z</time></trkpt><trkpt lat="45.514248342147624" lon="9.262157234154367"><ele>131.0</ele><time>2026-04-18T15:06:23.003Z</time></trkpt><trkpt lat="45.51449555262656" lon="9.262148428260229"><ele>131.0</ele><time>2026-04-18T15:06:24.003Z</time></trkpt><trkpt lat="45.514748426549595" lon="9.262139197816946"><ele>130.0</ele><time>2026-04-18T15:06:25.003Z</time></trkpt><trkpt lat="45.51500142870013" lon="9.262124316864531"><ele>129.0</ele><time>2026-04-18T15:06:26.003Z</time></trkpt><trkpt lat="45.515256478201565" lon="9.262103036528105"><ele>128.5</ele><time>2026-04-18T15:06:27.003Z</time></trkpt><trkpt lat="45.51550923655306" lon="9.26208065102238"><ele>128.0</ele><time>2026-04-18T15:06:28.003Z</time></trkpt><trkpt lat="45.51575917561606" lon="9.262053764950117"><ele>128.0</ele><time>2026-04-18T15:06:29.003Z</time></trkpt><trkpt lat="45.516002575811946" lon="9.262021441575662"><ele>128.0</ele><time>2026-04-18T15:06:29.997Z</time></trkpt><trkpt lat="45.516234560812556" lon="9.261984137220164"><ele>126.5</ele><time>2026-04-18T15:06:30.997Z</time></trkpt><trkpt lat="45.51646198487173" lon="9.26194879092035"><ele>125.0</ele><time>2026-04-18T15:06:31.997Z</time></trkpt><trkpt lat="45.516692653157975" lon="9.261914242753148"><ele>125.0</ele><time>2026-04-18T15:06:32.998Z</time></trkpt><trkpt lat="45.51691857436424" lon="9.26187960093516"><ele>125.0</ele><time>2026-04-18T15:06:33.998Z</time></trkpt><trkpt lat="45.51714389636179" lon="9.26184545780518"><ele>124.0</ele><time>2026-04-18T15:06:34.998Z</time></trkpt><trkpt lat="45.517373248355725" lon="9.261808719961614"><ele>123.0</ele><time>2026-04-18T15:06:35.998Z</time></trkpt><trkpt lat="45.517614528602195" lon="9.261768001164311"><ele>123.0</ele><time>2026-04-18T15:06:36.998Z</time></trkpt><trkpt lat="45.51785697013281" lon="9.261725036505299"><ele>123.0</ele><time>2026-04-18T15:06:37.998Z</time></trkpt><trkpt lat="45.5180989588018" lon="9.261684355515245"><ele>124.0</ele><time>2026-04-18T15:06:38.998Z</time></trkpt><trkpt lat="45.51833550005806" lon="9.261647093710032"><ele>125.0</ele><time>2026-04-18T15:06:39.998Z</time></trkpt><trkpt lat="45.51857103541365" lon="9.261610168257313"><ele>127.0</ele><time>2026-04-18T15:06:40.998Z</time></trkpt><trkpt lat="45.51879863351886" lon="9.26157264292726"><ele>129.0</ele><time>2026-04-18T15:06:41.998Z</time></trkpt><trkpt lat="45.519025874348934" lon="9.261536473349203"><ele>129.0</ele><time>2026-04-18T15:06:42.998Z</time></trkpt><trkpt lat="45.51925348815623" lon="9.26149815270557"><ele>129.0</ele><time>2026-04-18T15:06:43.999Z</time></trkpt><trkpt lat="45.519481741888086" lon="9.261455849971606"><ele>129.5</ele><time>2026-04-18T15:06:44.999Z</time></trkpt><trkpt lat="45.51970894883341" lon="9.261411102635762"><ele>130.0</ele><time>2026-04-18T15:06:45.999Z</time></trkpt><trkpt lat="45.51993784734266" lon="9.261364097052837"><ele>130.0</ele><time>2026-04-18T15:06:46.999Z</time></trkpt><trkpt lat="45.5201692123304" lon="9.261311074084272"><ele>130.0</ele><time>2026-04-18T15:06:47.999Z</time></trkpt><trkpt lat="45.520410386040275" lon="9.261247523981398"><ele>129.5</ele><time>2026-04-18T15:06:48.999Z</time></trkpt><trkpt lat="45.520653014999574" lon="9.261181780521978"><ele>129.0</ele><time>2026-04-18T15:06:49.999Z</time></trkpt><trkpt lat="45.52089702675403" lon="9.261112778419607"><ele>129.0</ele><time>2026-04-18T15:06:50.999Z</time></trkpt><trkpt lat="45.521139572868826" lon="9.261041828476186"><ele>129.0</ele><time>2026-04-18T15:06:51.999Z</time></trkpt><trkpt lat="45.52137408455924" lon="9.260970113929174"><ele>130.0</ele><time>2026-04-18T15:06:52.999Z</time></trkpt><trkpt lat="45.521607995413014" lon="9.26089735698569"><ele>131.0</ele><time>2026-04-18T15:06:54Z</time></trkpt><trkpt lat="45.52183968132792" lon="9.260827677690013"><ele>129.5</ele><time>2026-04-18T15:06:55Z</time></trkpt><trkpt lat="45.52207011846801" lon="9.260760618582955"><ele>128.0</ele><time>2026-04-18T15:06:56Z</time></trkpt><trkpt lat="45.52229517391122" lon="9.26069591769707"><ele>128.0</ele><time>2026-04-18T15:06:57Z</time></trkpt><trkpt lat="45.52251604784616" lon="9.26063477696774"><ele>128.0</ele><time>2026-04-18T15:06:58Z</time></trkpt><trkpt lat="45.52272976067438" lon="9.260586042784803"><ele>128.0</ele><time>2026-04-18T15:06:59Z</time></trkpt><trkpt lat="45.522946793284206" lon="9.260553459078592"><ele>128.66666666666666</ele><time>2026-04-18T15:07:00Z</time></trkpt><trkpt lat="45.52316287746018" lon="9.26054421725006"><ele>129.33333333333334</ele><time>2026-04-18T15:07:01Z</time></trkpt><trkpt lat="45.52338044438569" lon="9.260555994721866"><ele>130.0</ele><time>2026-04-18T15:07:02Z</time></trkpt><trkpt lat="45.523598769150524" lon="9.260591529459209"><ele>130.66666666666669</ele><time>2026-04-18T15:07:03Z</time></trkpt><trkpt lat="45.52381521950607" lon="9.260649537040644"><ele>131.33333333333334</ele><time>2026-04-18T15:07:04Z</time></trkpt><trkpt lat="45.52402694084719" lon="9.260725067628961"><ele>132.0</ele><time>2026-04-18T15:07:05Z</time></trkpt><trkpt lat="45.52423618958274" lon="9.260817693776065"><ele>132.0</ele><time>2026-04-18T15:07:06Z</time></trkpt><trkpt lat="45.524438607804235" lon="9.260934362141201"><ele>132.0</ele><time>2026-04-18T15:07:07Z</time></trkpt><trkpt lat="45.52463426207321" lon="9.261075224829344"><ele>132.0</ele><time>2026-04-18T15:07:08Z</time></trkpt><trkpt lat="45.52482450874722" lon="9.261234969490413"><ele>131.66666666666666</ele><time>2026-04-18T15:07:09Z</time></trkpt><trkpt lat="45.52499836189083" lon="9.261402925119908"><ele>131.33333333333331</ele><time>2026-04-18T15:07:10Z</time></trkpt><trkpt lat="45.5251640273254" lon="9.26158262280949"><ele>131.0</ele><time>2026-04-18T15:07:11Z</time></trkpt><trkpt lat="45.525316839728234" lon="9.26177496173407"><ele>131.66666666666666</ele><time>2026-04-18T15:07:12.001Z</time></trkpt><trkpt lat="45.52546082689506" lon="9.261984094860628"><ele>132.33333333333334</ele><time>2026-04-18T15:07:13.001Z</time></trkpt><trkpt lat="45.525601134399885" lon="9.26222090441637"><ele>133.0</ele><time>2026-04-18T15:07:14.001Z</time></trkpt><trkpt lat="45.52573885309415" lon="9.262485238352252"><ele>133.0</ele><time>2026-04-18T15:07:15.001Z</time></trkpt><trkpt lat="45.525864216983145" lon="9.262769063686449"><ele>133.0</ele><time>2026-04-18T15:07:16.001Z</time></trkpt><trkpt lat="45.52597508515356" lon="9.263064036082811"><ele>133.66666666666669</ele><time>2026-04-18T15:07:17.001Z</time></trkpt><trkpt lat="45.526069899764984" lon="9.263357453363344"><ele>134.33333333333334</ele><time>2026-04-18T15:07:18.001Z</time></trkpt><trkpt lat="45.52616278973076" lon="9.263642831694478"><ele>135.0</ele><time>2026-04-18T15:07:19.001Z</time></trkpt><trkpt lat="45.526257544415195" lon="9.263924998091952"><ele>136.0</ele><time>2026-04-18T15:07:20.001Z</time></trkpt><trkpt lat="45.52637200157654" lon="9.26419981410051"><ele>137.0</ele><time>2026-04-18T15:07:21.001Z</time></trkpt><trkpt lat="45.52650624548012" lon="9.264467104625346"><ele>137.0</ele><time>2026-04-18T15:07:22.001Z</time></trkpt><trkpt lat="45.526657279185564" lon="9.26472808140785"><ele>137.0</ele><time>2026-04-18T15:07:23.001Z</time></trkpt><trkpt lat="45.526820594727255" lon="9.26498459646307"><ele>137.0</ele><time>2026-04-18T15:07:24.001Z</time></trkpt><trkpt lat="45.526994989045264" lon="9.265225715323167"><ele>137.0</ele><time>2026-04-18T15:07:25.001Z</time></trkpt><trkpt lat="45.52717961948941" lon="9.265455008831855"><ele>137.5</ele><time>2026-04-18T15:07:26.001Z</time></trkpt><trkpt lat="45.52737916078487" lon="9.265672484180559"><ele>138.0</ele><time>2026-04-18T15:07:27.001Z</time></trkpt><trkpt lat="45.52758994519475" lon="9.265868827677808"><ele>138.0</ele><time>2026-04-18T15:07:28.001Z</time></trkpt><trkpt lat="45.52781110853085" lon="9.266048263833493"><ele>138.0</ele><time>2026-04-18T15:07:29.001Z</time></trkpt><trkpt lat="45.52804260831604" lon="9.266223792061105"><ele>138.5</ele><time>2026-04-18T15:07:30.001Z</time></trkpt><trkpt lat="45.52828350494578" lon="9.266408444775221"><ele>139.0</ele><time>2026-04-18T15:07:31.001Z</time></trkpt><trkpt lat="45.52852881109967" lon="9.266602970733382"><ele>136.5</ele><time>2026-04-18T15:07:32.001Z</time></trkpt><trkpt lat="45.52877392529236" lon="9.266805053259418"><ele>134.0</ele><time>2026-04-18T15:07:33.001Z</time></trkpt><trkpt lat="45.529009938977346" lon="9.267014361292135"><ele>134.0</ele><time>2026-04-18T15:07:34.001Z</time></trkpt><trkpt lat="45.52923528217111" lon="9.267236833060133"><ele>134.0</ele><time>2026-04-18T15:07:35.001Z</time></trkpt><trkpt lat="45.529448729115785" lon="9.267471083312742"><ele>134.0</ele><time>2026-04-18T15:07:36.001Z</time></trkpt><trkpt lat="45.52965197514142" lon="9.267720803361701"><ele>134.0</ele><time>2026-04-18T15:07:37.001Z</time></trkpt><trkpt lat="45.52984247136883" lon="9.267983764026457"><ele>135.0</ele><time>2026-04-18T15:07:38.001Z</time></trkpt><trkpt lat="45.53002343450139" lon="9.268260151424878"><ele>136.0</ele><time>2026-04-18T15:07:39.002Z</time></trkpt><trkpt lat="45.530192223362015" lon="9.268546736305826"><ele>136.0</ele><time>2026-04-18T15:07:40.002Z</time></trkpt><trkpt lat="45.530348517549136" lon="9.268842822838856"><ele>136.0</ele><time>2026-04-18T15:07:41.002Z</time></trkpt><trkpt lat="45.53050192043229" lon="9.269145031664316"><ele>136.5</ele><time>2026-04-18T15:07:42.002Z</time></trkpt><trkpt lat="45.53065962218313" lon="9.269453879800151"><ele>137.0</ele><time>2026-04-18T15:07:43.002Z</time></trkpt><trkpt lat="45.53082296539897" lon="9.269770752196957"><ele>136.5</ele><time>2026-04-18T15:07:44.002Z</time></trkpt><trkpt lat="45.5309887423988" lon="9.270097255821383"><ele>136.0</ele><time>2026-04-18T15:07:45.002Z</time></trkpt><trkpt lat="45.53115111376234" lon="9.270434190339763"><ele>135.5</ele><time>2026-04-18T15:07:46.002Z</time></trkpt><trkpt lat="45.5313162794626" lon="9.270778372970897"><ele>135.0</ele><time>2026-04-18T15:07:47.002Z</time></trkpt><trkpt lat="45.53148636554755" lon="9.271137519170809"><ele>134.0</ele><time>2026-04-18T15:07:48.002Z</time></trkpt><trkpt lat="45.531654860401474" lon="9.271501736583138"><ele>133.0</ele><time>2026-04-18T15:07:49.002Z</time></trkpt><trkpt lat="45.53182700350811" lon="9.271872461018924"><ele>133.0</ele><time>2026-04-18T15:07:50.002Z</time></trkpt><trkpt lat="45.53200675105797" lon="9.272251240533338"><ele>133.0</ele><time>2026-04-18T15:07:51.002Z</time></trkpt><trkpt lat="45.532191861211274" lon="9.272637054967456"><ele>134.0</ele><time>2026-04-18T15:07:52.002Z</time></trkpt><trkpt lat="45.53238107831163" lon="9.273031171681259"><ele>135.0</ele><time>2026-04-18T15:07:53.002Z</time></trkpt><trkpt lat="45.532573722510136" lon="9.27343420818128"><ele>135.5</ele><time>2026-04-18T15:07:54.002Z</time></trkpt><trkpt lat="45.53276915946759" lon="9.273844175605987"><ele>136.0</ele><time>2026-04-18T15:07:55.002Z</time></trkpt><trkpt lat="45.53296756919911" lon="9.27425682553003"><ele>136.0</ele><time>2026-04-18T15:07:56.002Z</time></trkpt><trkpt lat="45.533169180172855" lon="9.27467484994684"><ele>136.0</ele><time>2026-04-18T15:07:57.002Z</time></trkpt><trkpt lat="45.53337271727728" lon="9.275100085932603"><ele>136.0</ele><time>2026-04-18T15:07:58.002Z</time></trkpt><trkpt lat="45.53357647732817" lon="9.275527605667284"><ele>136.0</ele><time>2026-04-18T15:07:59.002Z</time></trkpt><trkpt lat="45.533776697185935" lon="9.27595332360565"><ele>136.0</ele><time>2026-04-18T15:08:00.002Z</time></trkpt><trkpt lat="45.53397583715231" lon="9.276375580836664"><ele>136.0</ele><time>2026-04-18T15:08:01.002Z</time></trkpt><trkpt lat="45.534155593716584" lon="9.276759593435962"><ele>135.5</ele><time>2026-04-18T15:08:02.002Z</time></trkpt><trkpt lat="45.534334557077365" lon="9.277141491351314"><ele>135.0</ele><time>2026-04-18T15:08:03.002Z</time></trkpt><trkpt lat="45.53451341856378" lon="9.277522803654536"><ele>136.0</ele><time>2026-04-18T15:08:04.002Z</time></trkpt><trkpt lat="45.53469209700447" lon="9.277906353247731"><ele>137.0</ele><time>2026-04-18T15:08:05.002Z</time></trkpt><trkpt lat="45.53487437334781" lon="9.278292140346998"><ele>137.0</ele><time>2026-04-18T15:08:06.002Z</time></trkpt><trkpt lat="45.53504453194573" lon="9.278648471045527"><ele>137.0</ele><time>2026-04-18T15:08:07.002Z</time></trkpt><trkpt lat="45.535208807102975" lon="9.278992107128003"><ele>137.5</ele><time>2026-04-18T15:08:08.002Z</time></trkpt><trkpt lat="45.53537154852626" lon="9.279330287650344"><ele>138.0</ele><time>2026-04-18T15:08:09.002Z</time></trkpt><trkpt lat="45.535533984028724" lon="9.27966369118937"><ele>137.5</ele><time>2026-04-18T15:08:10.002Z</time></trkpt><trkpt lat="45.53569328827846" lon="9.27999441498364"><ele>137.0</ele><time>2026-04-18T15:08:11.003Z</time></trkpt><trkpt lat="45.53585359676577" lon="9.280322824868168"><ele>137.5</ele><time>2026-04-18T15:08:12.003Z</time></trkpt><trkpt lat="45.53601313300118" lon="9.280646715034319"><ele>138.0</ele><time>2026-04-18T15:08:13.003Z</time></trkpt><trkpt lat="45.53617081728429" lon="9.28096806424913"><ele>138.0</ele><time>2026-04-18T15:08:14.003Z</time></trkpt><trkpt lat="45.536330861937316" lon="9.281287639718999"><ele>138.0</ele><time>2026-04-18T15:08:15.003Z</time></trkpt><trkpt lat="45.53649151797799" lon="9.281604390816323"><ele>138.0</ele><time>2026-04-18T15:08:16.003Z</time></trkpt><trkpt lat="45.536651328213026" lon="9.281919419216587"><ele>138.0</ele><time>2026-04-18T15:08:17.003Z</time></trkpt><trkpt lat="45.53680890371455" lon="9.282228067078869"><ele>138.5</ele><time>2026-04-18T15:08:18.003Z</time></trkpt><trkpt lat="45.536959437230756" lon="9.282521567355118"><ele>139.0</ele><time>2026-04-18T15:08:19.003Z</time></trkpt><trkpt lat="45.537103055101184" lon="9.28279098903898"><ele>139.0</ele><time>2026-04-18T15:08:20.003Z</time></trkpt><trkpt lat="45.53724762274738" lon="9.283057090589697"><ele>139.0</ele><time>2026-04-18T15:08:21.003Z</time></trkpt><trkpt lat="45.53737943400097" lon="9.283320361254972"><ele>139.0</ele><time>2026-04-18T15:08:22.003Z</time></trkpt><trkpt lat="45.53750178881025" lon="9.28358398189208"><ele>139.0</ele><time>2026-04-18T15:08:23.003Z</time></trkpt><trkpt lat="45.53761127625256" lon="9.283858555168248"><ele>139.0</ele><time>2026-04-18T15:08:24.003Z</time></trkpt><trkpt lat="45.537706447105535" lon="9.284145976200751"><ele>140.0</ele><time>2026-04-18T15:08:25.003Z</time></trkpt><trkpt lat="45.53777984817767" lon="9.284441534217338"><ele>141.0</ele><time>2026-04-18T15:08:26.003Z</time></trkpt><trkpt lat="45.53783786915749" lon="9.284746487597268"><ele>142.0</ele><time>2026-04-18T15:08:27.003Z</time></trkpt><trkpt lat="45.537883207681546" lon="9.285052410736512"><ele>140.33333333333334</ele><time>2026-04-18T15:08:28.003Z</time></trkpt><trkpt lat="45.53790833405942" lon="9.285359536825391"><ele>138.66666666666666</ele><time>2026-04-18T15:08:29.003Z</time></trkpt><trkpt lat="45.53791520953734" lon="9.285672538158776"><ele>137.0</ele><time>2026-04-18T15:08:30.003Z</time></trkpt><trkpt lat="45.53790297310677" lon="9.285985654796882"><ele>137.66666666666666</ele><time>2026-04-18T15:08:31.003Z</time></trkpt><trkpt lat="45.537873906598094" lon="9.286292705433695"><ele>138.33333333333334</ele><time>2026-04-18T15:08:32.003Z</time></trkpt><trkpt lat="45.53781992294536" lon="9.28660124249817"><ele>139.0</ele><time>2026-04-18T15:08:33.003Z</time></trkpt><trkpt lat="45.537752338030444" lon="9.28691731989723"><ele>139.0</ele><time>2026-04-18T15:08:34.003Z</time></trkpt><trkpt lat="45.537662186743866" lon="9.287225319525458"><ele>139.0</ele><time>2026-04-18T15:08:35.003Z</time></trkpt><trkpt lat="45.53756165046805" lon="9.287522555017887"><ele>137.5</ele><time>2026-04-18T15:08:35.995Z</time></trkpt><trkpt lat="45.537453545299854" lon="9.287813251016138"><ele>136.0</ele><time>2026-04-18T15:08:36.995Z</time></trkpt><trkpt lat="45.53733490116628" lon="9.288098647226661"><ele>135.5</ele><time>2026-04-18T15:08:37.996Z</time></trkpt><trkpt lat="45.53721762920017" lon="9.288399604847475"><ele>135.0</ele><time>2026-04-18T15:08:38.996Z</time></trkpt><trkpt lat="45.537114659396416" lon="9.288707519970675"><ele>133.5</ele><time>2026-04-18T15:08:39.996Z</time></trkpt><trkpt lat="45.537020452752294" lon="9.28902996133563"><ele>132.0</ele><time>2026-04-18T15:08:40.996Z</time></trkpt><trkpt lat="45.536940103218306" lon="9.289372446746828"><ele>132.0</ele><time>2026-04-18T15:08:41.996Z</time></trkpt><trkpt lat="45.53687830070081" lon="9.289726303305734"><ele>132.0</ele><time>2026-04-18T15:08:42.997Z</time></trkpt><trkpt lat="45.53683036774436" lon="9.290089380532532"><ele>133.5</ele><time>2026-04-18T15:08:43.997Z</time></trkpt><trkpt lat="45.536796180345895" lon="9.2904506631581"><ele>135.0</ele><time>2026-04-18T15:08:44.997Z</time></trkpt><trkpt lat="45.536780019852706" lon="9.290824157547151"><ele>135.0</ele><time>2026-04-18T15:08:45.997Z</time></trkpt><trkpt lat="45.53678284469948" lon="9.291203081013728"><ele>135.0</ele><time>2026-04-18T15:08:46.997Z</time></trkpt><trkpt lat="45.53680413061213" lon="9.291583228649106"><ele>135.0</ele><time>2026-04-18T15:08:47.997Z</time></trkpt><trkpt lat="45.536844288571935" lon="9.291967286694572"><ele>135.0</ele><time>2026-04-18T15:08:48.997Z</time></trkpt><trkpt lat="45.53689513713618" lon="9.292357353033628"><ele>135.0</ele><time>2026-04-18T15:08:49.998Z</time></trkpt><trkpt lat="45.536939781915834" lon="9.292749390064792"><ele>135.0</ele><time>2026-04-18T15:08:50.998Z</time></trkpt><trkpt lat="45.536977598849994" lon="9.293139749346679"><ele>135.0</ele><time>2026-04-18T15:08:51.998Z</time></trkpt><trkpt lat="45.53701699964217" lon="9.293534906673827"><ele>135.0</ele><time>2026-04-18T15:08:52.998Z</time></trkpt><trkpt lat="45.537059265072955" lon="9.293930996303905"><ele>138.5</ele><time>2026-04-18T15:08:53.998Z</time></trkpt><trkpt lat="45.53710223059725" lon="9.29432775576035"><ele>142.0</ele><time>2026-04-18T15:08:54.998Z</time></trkpt><trkpt lat="45.537142605437715" lon="9.294720979448428"><ele>141.0</ele><time>2026-04-18T15:08:55.998Z</time></trkpt><trkpt lat="45.53718105528926" lon="9.295108728044715"><ele>140.0</ele><time>2026-04-18T15:08:56.999Z</time></trkpt><trkpt lat="45.53722002515666" lon="9.295494795066801"><ele>137.0</ele><time>2026-04-18T15:08:57.999Z</time></trkpt><trkpt lat="45.53725746514947" lon="9.295879034137918"><ele>134.0</ele><time>2026-04-18T15:08:58.999Z</time></trkpt><trkpt lat="45.53729395646372" lon="9.296261277391569"><ele>133.5</ele><time>2026-04-18T15:08:59.999Z</time></trkpt><trkpt lat="45.53733090595565" lon="9.296643836469954"><ele>133.0</ele><time>2026-04-18T15:09:00.999Z</time></trkpt><trkpt lat="45.53737159475197" lon="9.297017869189007"><ele>132.0</ele><time>2026-04-18T15:09:01.999Z</time></trkpt><trkpt lat="45.53741284488147" lon="9.2973897291803"><ele>131.0</ele><time>2026-04-18T15:09:02.999Z</time></trkpt><trkpt lat="45.53745260433172" lon="9.297763559305773"><ele>132.5</ele><time>2026-04-18T15:09:03.999Z</time></trkpt><trkpt lat="45.537492577511394" lon="9.298141157026585"><ele>134.0</ele><time>2026-04-18T15:09:04.999Z</time></trkpt><trkpt lat="45.53753503017587" lon="9.298523185298984"><ele>134.0</ele><time>2026-04-18T15:09:05.999Z</time></trkpt><trkpt lat="45.53757868940864" lon="9.298900899711148"><ele>134.0</ele><time>2026-04-18T15:09:07Z</time></trkpt><trkpt lat="45.537621785503234" lon="9.299275765137248"><ele>133.0</ele><time>2026-04-18T15:09:08Z</time></trkpt><trkpt lat="45.53766294167355" lon="9.299649024875585"><ele>132.0</ele><time>2026-04-18T15:09:09Z</time></trkpt><trkpt lat="45.53770208035499" lon="9.300023182136199"><ele>132.0</ele><time>2026-04-18T15:09:10Z</time></trkpt><trkpt lat="45.537742197539814" lon="9.300396675253337"><ele>132.0</ele><time>2026-04-18T15:09:11Z</time></trkpt><trkpt lat="45.53778189340453" lon="9.300757745359519"><ele>132.5</ele><time>2026-04-18T15:09:12Z</time></trkpt><trkpt lat="45.53781934377659" lon="9.30110879427712"><ele>133.0</ele><time>2026-04-18T15:09:13Z</time></trkpt><trkpt lat="45.53785641589454" lon="9.301445085815258"><ele>135.0</ele><time>2026-04-18T15:09:14Z</time></trkpt><trkpt lat="45.53789216994649" lon="9.301771686869062"><ele>137.0</ele><time>2026-04-18T15:09:15Z</time></trkpt><trkpt lat="45.53792373145026" lon="9.302085558478579"><ele>136.66666666666666</ele><time>2026-04-18T15:09:16Z</time></trkpt><trkpt lat="45.53795295679032" lon="9.302395694792674"><ele>136.33333333333334</ele><time>2026-04-18T15:09:17Z</time></trkpt><trkpt lat="45.53798325321868" lon="9.302707893952787"><ele>136.0</ele><time>2026-04-18T15:09:18Z</time></trkpt><trkpt lat="45.53801583265553" lon="9.303024204780357"><ele>135.33333333333334</ele><time>2026-04-18T15:09:19Z</time></trkpt><trkpt lat="45.53804977259103" lon="9.303339459231106"><ele>134.66666666666666</ele><time>2026-04-18T15:09:20Z</time></trkpt><trkpt lat="45.53808333890679" lon="9.30365604050235"><ele>134.0</ele><time>2026-04-18T15:09:21Z</time></trkpt><trkpt lat="45.538117444088314" lon="9.303970413345882"><ele>134.0</ele><time>2026-04-18T15:09:22Z</time></trkpt><trkpt lat="45.538152432362004" lon="9.30428796657131"><ele>134.0</ele><time>2026-04-18T15:09:23Z</time></trkpt><trkpt lat="45.53818815533661" lon="9.304600319127337"><ele>134.0</ele><time>2026-04-18T15:09:24.001Z</time></trkpt><trkpt lat="45.538222712986915" lon="9.304909508223778"><ele>134.33333333333331</ele><time>2026-04-18T15:09:25.001Z</time></trkpt><trkpt lat="45.5382558176119" lon="9.305217794798883"><ele>134.66666666666666</ele><time>2026-04-18T15:09:26.001Z</time></trkpt><trkpt lat="45.53828606278125" lon="9.305530428277633"><ele>135.0</ele><time>2026-04-18T15:09:27.001Z</time></trkpt><trkpt lat="45.53831976937207" lon="9.305857468379996"><ele>134.0</ele><time>2026-04-18T15:09:28.001Z</time></trkpt><trkpt lat="45.5383538260093" lon="9.306181509553094"><ele>133.0</ele><time>2026-04-18T15:09:29.001Z</time></trkpt><trkpt lat="45.53839045190805" lon="9.306505808256926"><ele>133.0</ele><time>2026-04-18T15:09:30.001Z</time></trkpt><trkpt lat="45.53842687650929" lon="9.306831968259464"><ele>133.0</ele><time>2026-04-18T15:09:31.001Z</time></trkpt><trkpt lat="45.538461216124404" lon="9.307160309063303"><ele>135.0</ele><time>2026-04-18T15:09:32.001Z</time></trkpt><trkpt lat="45.53849488667407" lon="9.307492274850562"><ele>137.0</ele><time>2026-04-18T15:09:33.001Z</time></trkpt><trkpt lat="45.53853090237977" lon="9.30783318539072"><ele>137.5</ele><time>2026-04-18T15:09:34.001Z</time></trkpt><trkpt lat="45.53856581904466" lon="9.3081821800017"><ele>138.0</ele><time>2026-04-18T15:09:35.001Z</time></trkpt><trkpt lat="45.53860042273683" lon="9.308542741171127"><ele>138.0</ele><time>2026-04-18T15:09:36.001Z</time></trkpt><trkpt lat="45.53863796814489" lon="9.30890691488415"><ele>138.0</ele><time>2026-04-18T15:09:37.001Z</time></trkpt><trkpt lat="45.53867751206267" lon="9.309284107966082"><ele>137.5</ele><time>2026-04-18T15:09:38.001Z</time></trkpt><trkpt lat="45.53871808952013" lon="9.30965175212198"><ele>137.0</ele><time>2026-04-18T15:09:39.001Z</time></trkpt><trkpt lat="45.53875790774032" lon="9.310023634934135"><ele>137.0</ele><time>2026-04-18T15:09:40.001Z</time></trkpt><trkpt lat="45.53879771753198" lon="9.310387859550037"><ele>137.0</ele><time>2026-04-18T15:09:41.001Z</time></trkpt><trkpt lat="45.538835424262615" lon="9.310738163733742"><ele>136.0</ele><time>2026-04-18T15:09:42.001Z</time></trkpt><trkpt lat="45.53887315298407" lon="9.311084442568898"><ele>135.0</ele><time>2026-04-18T15:09:43.001Z</time></trkpt><trkpt lat="45.5389134059087" lon="9.311428616459457"><ele>134.5</ele><time>2026-04-18T15:09:44.001Z</time></trkpt><trkpt lat="45.5389607262861" lon="9.311765231156654"><ele>134.0</ele><time>2026-04-18T15:09:45.001Z</time></trkpt><trkpt lat="45.539018178065" lon="9.312094499405259"><ele>134.5</ele><time>2026-04-18T15:09:46.001Z</time></trkpt><trkpt lat="45.539087425492674" lon="9.312417199217009"><ele>135.0</ele><time>2026-04-18T15:09:47.001Z</time></trkpt><trkpt lat="45.53916967666336" lon="9.312732916740485"><ele>135.0</ele><time>2026-04-18T15:09:48.001Z</time></trkpt><trkpt lat="45.53926931258211" lon="9.313040199164254"><ele>135.0</ele><time>2026-04-18T15:09:49.001Z</time></trkpt><trkpt lat="45.539389645848814" lon="9.313347936275298"><ele>135.0</ele><time>2026-04-18T15:09:50.002Z</time></trkpt><trkpt lat="45.53952486049644" lon="9.313654844879531"><ele>135.0</ele><time>2026-04-18T15:09:51.002Z</time></trkpt><trkpt lat="45.539670412999314" lon="9.313962589732162"><ele>135.0</ele><time>2026-04-18T15:09:52.002Z</time></trkpt><trkpt lat="45.53982679926978" lon="9.314262948394306"><ele>135.0</ele><time>2026-04-18T15:09:53.002Z</time></trkpt><trkpt lat="45.5399939242886" lon="9.314554318644932"><ele>135.5</ele><time>2026-04-18T15:09:54.002Z</time></trkpt><trkpt lat="45.54017186537445" lon="9.31483583837773"><ele>136.0</ele><time>2026-04-18T15:09:55.002Z</time></trkpt><trkpt lat="45.540359645151156" lon="9.315102261982112"><ele>136.0</ele><time>2026-04-18T15:09:56.002Z</time></trkpt><trkpt lat="45.540556831817824" lon="9.315348811952934"><ele>136.0</ele><time>2026-04-18T15:09:57.002Z</time></trkpt><trkpt lat="45.54076520022656" lon="9.315577693064872"><ele>136.0</ele><time>2026-04-18T15:09:58.002Z</time></trkpt><trkpt lat="45.54098771270892" lon="9.315793777997479"><ele>136.0</ele><time>2026-04-18T15:09:59.002Z</time></trkpt><trkpt lat="45.54122690658162" lon="9.315994585384217"><ele>136.5</ele><time>2026-04-18T15:10:00.002Z</time></trkpt><trkpt lat="45.54147894035269" lon="9.316179421857932"><ele>137.0</ele><time>2026-04-18T15:10:01.002Z</time></trkpt><trkpt lat="45.5417412913693" lon="9.316357618960545"><ele>138.0</ele><time>2026-04-18T15:10:02.002Z</time></trkpt><trkpt lat="45.54201172111795" lon="9.316532258180356"><ele>139.0</ele><time>2026-04-18T15:10:03.002Z</time></trkpt><trkpt lat="45.542279367434126" lon="9.316706251977955"><ele>139.5</ele><time>2026-04-18T15:10:04.002Z</time></trkpt><trkpt lat="45.54254575754133" lon="9.316878525595762"><ele>140.0</ele><time>2026-04-18T15:10:05.002Z</time></trkpt><trkpt lat="45.542813260396045" lon="9.31705753521228"><ele>140.0</ele><time>2026-04-18T15:10:06.002Z</time></trkpt><trkpt lat="45.54307884057155" lon="9.317242151572893"><ele>140.0</ele><time>2026-04-18T15:10:07.002Z</time></trkpt><trkpt lat="45.54334129169369" lon="9.31743959921971"><ele>140.0</ele><time>2026-04-18T15:10:08.002Z</time></trkpt><trkpt lat="45.54358362761806" lon="9.317653070514757"><ele>140.0</ele><time>2026-04-18T15:10:09.002Z</time></trkpt><trkpt lat="45.54380800454477" lon="9.31788135911102"><ele>140.0</ele><time>2026-04-18T15:10:10.002Z</time></trkpt><trkpt lat="45.54401684026742" lon="9.31812895231556"><ele>140.0</ele><time>2026-04-18T15:10:11.002Z</time></trkpt><trkpt lat="45.544214598549495" lon="9.318393931379742"><ele>140.0</ele><time>2026-04-18T15:10:12.002Z</time></trkpt><trkpt lat="45.54440346988143" lon="9.31866966375268"><ele>140.0</ele><time>2026-04-18T15:10:13.002Z</time></trkpt><trkpt lat="45.54458410796422" lon="9.318965175763694"><ele>140.5</ele><time>2026-04-18T15:10:14.002Z</time></trkpt><trkpt lat="45.5447528399436" lon="9.31927804390291"><ele>141.0</ele><time>2026-04-18T15:10:15.002Z</time></trkpt><trkpt lat="45.544909460577905" lon="9.319605230607271"><ele>141.5</ele><time>2026-04-18T15:10:16.002Z</time></trkpt><trkpt lat="45.54505523803211" lon="9.319945413941127"><ele>142.0</ele><time>2026-04-18T15:10:17.002Z</time></trkpt><trkpt lat="45.54519057333603" lon="9.320292718738566"><ele>141.0</ele><time>2026-04-18T15:10:18.002Z</time></trkpt><trkpt lat="45.54531921331234" lon="9.32063645407046"><ele>140.0</ele><time>2026-04-18T15:10:19.002Z</time></trkpt><trkpt lat="45.54544734943979" lon="9.320979134321098"><ele>140.0</ele><time>2026-04-18T15:10:20.002Z</time></trkpt><trkpt lat="45.54557774095705" lon="9.321320099179298"><ele>140.0</ele><time>2026-04-18T15:10:21.002Z</time></trkpt><trkpt lat="45.54571202229421" lon="9.321655602430925"><ele>140.5</ele><time>2026-04-18T15:10:22.003Z</time></trkpt><trkpt lat="45.54585455150448" lon="9.321980551746181"><ele>141.0</ele><time>2026-04-18T15:10:23.003Z</time></trkpt><trkpt lat="45.54600501129384" lon="9.32229853017005"><ele>141.0</ele><time>2026-04-18T15:10:24.003Z</time></trkpt><trkpt lat="45.546159783666255" lon="9.32260923728372"><ele>141.0</ele><time>2026-04-18T15:10:25.003Z</time></trkpt><trkpt lat="45.546321711877425" lon="9.322912995729178"><ele>141.5</ele><time>2026-04-18T15:10:26.003Z</time></trkpt><trkpt lat="45.546489379152256" lon="9.323209523851236"><ele>142.0</ele><time>2026-04-18T15:10:27.003Z</time></trkpt><trkpt lat="45.54666300012255" lon="9.323494861533145"><ele>142.0</ele><time>2026-04-18T15:10:28.003Z</time></trkpt><trkpt lat="45.546845146597676" lon="9.323771755601117"><ele>142.0</ele><time>2026-04-18T15:10:29.003Z</time></trkpt><trkpt lat="45.547031948710924" lon="9.324041170574176"><ele>142.5</ele><time>2026-04-18T15:10:30.003Z</time></trkpt><trkpt lat="45.54722816275322" lon="9.324299834038662"><ele>143.0</ele><time>2026-04-18T15:10:31.003Z</time></trkpt><trkpt lat="45.54742740043706" lon="9.324552306190162"><ele>143.5</ele><time>2026-04-18T15:10:32.003Z</time></trkpt><trkpt lat="45.54763113693681" lon="9.32479504319294"><ele>144.0</ele><time>2026-04-18T15:10:33.003Z</time></trkpt><trkpt lat="45.547842694563435" lon="9.325029314230049"><ele>144.5</ele><time>2026-04-18T15:10:34.003Z</time></trkpt><trkpt lat="45.548062757227775" lon="9.325250381008397"><ele>145.0</ele><time>2026-04-18T15:10:35.003Z</time></trkpt><trkpt lat="45.54828733401589" lon="9.325467176924658"><ele>144.0</ele><time>2026-04-18T15:10:36.003Z</time></trkpt><trkpt lat="45.54851094094324" lon="9.325670539402434"><ele>143.0</ele><time>2026-04-18T15:10:37.003Z</time></trkpt><trkpt lat="45.54875949384079" lon="9.325874846862224"><ele>142.0</ele><time>2026-04-18T15:10:38.003Z</time></trkpt><trkpt lat="45.54900820963698" lon="9.326062780431203"><ele>141.0</ele><time>2026-04-18T15:10:39.003Z</time></trkpt><trkpt lat="45.54926279270537" lon="9.326241746310378"><ele>142.0</ele><time>2026-04-18T15:10:40.003Z</time></trkpt><trkpt lat="45.54952789943952" lon="9.32641544100538"><ele>143.0</ele><time>2026-04-18T15:10:41.003Z</time></trkpt><trkpt lat="45.54980192819" lon="9.326581195288322"><ele>143.5</ele><time>2026-04-18T15:10:41.995Z</time></trkpt><trkpt lat="45.550089942226464" lon="9.32674361922376"><ele>144.0</ele><time>2026-04-18T15:10:42.996Z</time></trkpt><trkpt lat="45.550392105299366" lon="9.326905045884121"><ele>144.0</ele><time>2026-04-18T15:10:43.996Z</time></trkpt><trkpt lat="45.55069869974282" lon="9.327067201062212"><ele>144.0</ele><time>2026-04-18T15:10:44.996Z</time></trkpt><trkpt lat="45.55101111595807" lon="9.327239018580284"><ele>144.0</ele><time>2026-04-18T15:10:45.996Z</time></trkpt><trkpt lat="45.55132405218992" lon="9.32741464484222"><ele>144.0</ele><time>2026-04-18T15:10:46.997Z</time></trkpt><trkpt lat="45.55164029411827" lon="9.327598427245926"><ele>144.0</ele><time>2026-04-18T15:10:47.997Z</time></trkpt><trkpt lat="45.55196030017607" lon="9.327789717414245"><ele>144.0</ele><time>2026-04-18T15:10:48.997Z</time></trkpt><trkpt lat="45.5522794388583" lon="9.327979740886034"><ele>144.5</ele><time>2026-04-18T15:10:49.997Z</time></trkpt><trkpt lat="45.55260561619867" lon="9.328170959343845"><ele>145.0</ele><time>2026-04-18T15:10:50.997Z</time></trkpt><trkpt lat="45.552922505637845" lon="9.328354386347867"><ele>144.0</ele><time>2026-04-18T15:10:51.997Z</time></trkpt><trkpt lat="45.553217657058106" lon="9.328524939903383"><ele>143.0</ele><time>2026-04-18T15:10:52.998Z</time></trkpt><trkpt lat="45.55350084260227" lon="9.328692129756876"><ele>143.5</ele><time>2026-04-18T15:10:53.998Z</time></trkpt><trkpt lat="45.55378080851318" lon="9.328854629290836"><ele>144.0</ele><time>2026-04-18T15:10:54.998Z</time></trkpt><trkpt lat="45.554058973283574" lon="9.329016511474716"><ele>145.5</ele><time>2026-04-18T15:10:55.998Z</time></trkpt><trkpt lat="45.55432281189508" lon="9.329172768361886"><ele>147.0</ele><time>2026-04-18T15:10:56.998Z</time></trkpt><trkpt lat="45.55459169301802" lon="9.329331657525985"><ele>148.0</ele><time>2026-04-18T15:10:57.998Z</time></trkpt><trkpt lat="45.554861350743295" lon="9.32947849159138"><ele>149.0</ele><time>2026-04-18T15:10:58.998Z</time></trkpt><trkpt lat="45.5551253426854" lon="9.32963495455102"><ele>148.0</ele><time>2026-04-18T15:10:59.999Z</time></trkpt><trkpt lat="45.55538561534343" lon="9.329791452198736"><ele>147.0</ele><time>2026-04-18T15:11:00.999Z</time></trkpt><trkpt lat="45.55566008505033" lon="9.329950165358676"><ele>147.0</ele><time>2026-04-18T15:11:01.999Z</time></trkpt><trkpt lat="45.55593335481385" lon="9.330111270162678"><ele>147.0</ele><time>2026-04-18T15:11:02.999Z</time></trkpt><trkpt lat="45.556199231381626" lon="9.330268952363001"><ele>148.5</ele><time>2026-04-18T15:11:03.999Z</time></trkpt><trkpt lat="45.55645322395355" lon="9.330417850444189"><ele>150.0</ele><time>2026-04-18T15:11:04.999Z</time></trkpt><trkpt lat="45.55669798103517" lon="9.330559260121523"><ele>150.0</ele><time>2026-04-18T15:11:05.999Z</time></trkpt><trkpt lat="45.55694788011524" lon="9.33070273470851"><ele>150.0</ele><time>2026-04-18T15:11:06.999Z</time></trkpt><trkpt lat="45.5571977021962" lon="9.330845322170994"><ele>151.0</ele><time>2026-04-18T15:11:07.999Z</time></trkpt><trkpt lat="45.55744324022181" lon="9.33099285149573"><ele>152.0</ele><time>2026-04-18T15:11:09Z</time></trkpt><trkpt lat="45.557678950973745" lon="9.33113370204255"><ele>152.0</ele><time>2026-04-18T15:11:10Z</time></trkpt><trkpt lat="45.557915474155834" lon="9.33127436584174"><ele>152.0</ele><time>2026-04-18T15:11:11Z</time></trkpt><trkpt lat="45.558147529759296" lon="9.331411697520005"><ele>151.5</ele><time>2026-04-18T15:11:12Z</time></trkpt><trkpt lat="45.55837467919025" lon="9.331544789521283"><ele>151.0</ele><time>2026-04-18T15:11:13Z</time></trkpt><trkpt lat="45.558597697117975" lon="9.33167674244157"><ele>150.0</ele><time>2026-04-18T15:11:14Z</time></trkpt><trkpt lat="45.558817802694975" lon="9.331807735599387"><ele>149.0</ele><time>2026-04-18T15:11:15Z</time></trkpt><trkpt lat="45.55903285750796" lon="9.33193265914643"><ele>149.0</ele><time>2026-04-18T15:11:16Z</time></trkpt><trkpt lat="45.55924751204114" lon="9.332057121106857"><ele>149.0</ele><time>2026-04-18T15:11:17Z</time></trkpt><trkpt lat="45.55945265742328" lon="9.332174770402258"><ele>149.66666666666666</ele><time>2026-04-18T15:11:18Z</time></trkpt><trkpt lat="45.55965296435172" lon="9.332290582805824"><ele>150.33333333333334</ele><time>2026-04-18T15:11:19Z</time></trkpt><trkpt lat="45.559847358524124" lon="9.332407368140256"><ele>151.0</ele><time>2026-04-18T15:11:20Z</time></trkpt><trkpt lat="45.56003424186099" lon="9.332520951979983"><ele>151.0</ele><time>2026-04-18T15:11:21Z</time></trkpt><trkpt lat="45.56019692492785" lon="9.332665883543214"><ele>151.0</ele><time>2026-04-18T15:11:22Z</time></trkpt><trkpt lat="45.56034646296236" lon="9.332803640240904"><ele>151.0</ele><time>2026-04-18T15:11:23Z</time></trkpt><trkpt lat="45.56048876425967" lon="9.332933571418426"><ele>151.0</ele><time>2026-04-18T15:11:24.001Z</time></trkpt><trkpt lat="45.560624084990046" lon="9.333055693747584"><ele>151.0</ele><time>2026-04-18T15:11:25.001Z</time></trkpt><trkpt lat="45.56075886329665" lon="9.333170907290011"><ele>151.0</ele><time>2026-04-18T15:11:26.001Z</time></trkpt><trkpt lat="45.56089032995386" lon="9.333273861636613"><ele>151.2</ele><time>2026-04-18T15:11:27.001Z</time></trkpt><trkpt lat="45.561001400155604" lon="9.333356457607698"><ele>151.39999999999998</ele><time>2026-04-18T15:11:28.001Z</time></trkpt><trkpt lat="45.56109429015109" lon="9.333419998191873"><ele>151.6</ele><time>2026-04-18T15:11:29.001Z</time></trkpt><trkpt lat="45.56116643999632" lon="9.333466563980725"><ele>151.79999999999998</ele><time>2026-04-18T15:11:30.001Z</time></trkpt><trkpt lat="45.56123830630611" lon="9.333510248066071"><ele>152.0</ele><time>2026-04-18T15:11:31.001Z</time></trkpt><trkpt lat="45.56130965356069" lon="9.333547830735997"><ele>153.0</ele><time>2026-04-18T15:11:32.001Z</time></trkpt><trkpt lat="45.56138666400422" lon="9.333582458077778"><ele>154.0</ele><time>2026-04-18T15:11:33.001Z</time></trkpt><trkpt lat="45.56149502956394" lon="9.3336213972145"><ele>155.0</ele><time>2026-04-18T15:11:34.001Z</time></trkpt><trkpt lat="45.56161741527564" lon="9.333660026621978"><ele>156.0</ele><time>2026-04-18T15:11:35.001Z</time></trkpt><trkpt lat="45.56175579442319" lon="9.333700374868368"><ele>156.0</ele><time>2026-04-18T15:11:36.001Z</time></trkpt><trkpt lat="45.56193201088273" lon="9.333751256679813"><ele>156.0</ele><time>2026-04-18T15:11:37.001Z</time></trkpt><trkpt lat="45.56212409888546" lon="9.333807225762843"><ele>156.0</ele><time>2026-04-18T15:11:38.001Z</time></trkpt><trkpt lat="45.56229778372209" lon="9.333889507309111"><ele>155.33333333333334</ele><time>2026-04-18T15:11:39.001Z</time></trkpt><trkpt lat="45.5624584564055" lon="9.333977519025654"><ele>154.66666666666669</ele><time>2026-04-18T15:11:40.001Z</time></trkpt><trkpt lat="45.56263187569618" lon="9.334085135917249"><ele>154.0</ele><time>2026-04-18T15:11:41.001Z</time></trkpt><trkpt lat="45.56280469775955" lon="9.334214364564922"><ele>154.33333333333334</ele><time>2026-04-18T15:11:42.001Z</time></trkpt><trkpt lat="45.56295037389089" lon="9.334352837382436"><ele>154.66666666666666</ele><time>2026-04-18T15:11:43.001Z</time></trkpt><trkpt lat="45.56311445389435" lon="9.334505164521469"><ele>155.0</ele><time>2026-04-18T15:11:44.001Z</time></trkpt><trkpt lat="45.563278029972864" lon="9.334655859088716"><ele>154.66666666666666</ele><time>2026-04-18T15:11:45.001Z</time></trkpt><trkpt lat="45.56344115284978" lon="9.334807719672984"><ele>154.33333333333334</ele><time>2026-04-18T15:11:46.001Z</time></trkpt><trkpt lat="45.56361638524657" lon="9.334966629927226"><ele>154.0</ele><time>2026-04-18T15:11:47.001Z</time></trkpt><trkpt lat="45.56379455035911" lon="9.33511681935519"><ele>154.66666666666669</ele><time>2026-04-18T15:11:48.002Z</time></trkpt><trkpt lat="45.5639711245879" lon="9.335255074537486"><ele>155.33333333333334</ele><time>2026-04-18T15:11:49.002Z</time></trkpt><trkpt lat="45.56415647314564" lon="9.335378743651544"><ele>156.0</ele><time>2026-04-18T15:11:50.002Z</time></trkpt><trkpt lat="45.56434833421846" lon="9.33548906742885"><ele>155.33333333333334</ele><time>2026-04-18T15:11:51.002Z</time></trkpt><trkpt lat="45.56455026377672" lon="9.335588356458114"><ele>154.66666666666669</ele><time>2026-04-18T15:11:52.002Z</time></trkpt><trkpt lat="45.564761622842475" lon="9.335676529484731"><ele>154.0</ele><time>2026-04-18T15:11:53.002Z</time></trkpt><trkpt lat="45.564976223550005" lon="9.335758893581673"><ele>154.0</ele><time>2026-04-18T15:11:54.002Z</time></trkpt><trkpt lat="45.565206539466224" lon="9.335834319305533"><ele>154.0</ele><time>2026-04-18T15:11:55.002Z</time></trkpt><trkpt lat="45.56545520700859" lon="9.335905424900968"><ele>156.5</ele><time>2026-04-18T15:11:56.002Z</time></trkpt><trkpt lat="45.56571885910216" lon="9.335997431436176"><ele>159.0</ele><time>2026-04-18T15:11:57.002Z</time></trkpt><trkpt lat="45.56598694712948" lon="9.336109052493216"><ele>158.5</ele><time>2026-04-18T15:11:58.002Z</time></trkpt><trkpt lat="45.56626086629787" lon="9.336234317142349"><ele>158.0</ele><time>2026-04-18T15:11:59.002Z</time></trkpt><trkpt lat="45.56653843474408" lon="9.33636561407191"><ele>158.0</ele><time>2026-04-18T15:12:00.002Z</time></trkpt><trkpt lat="45.566804932151335" lon="9.33649042785012"><ele>158.0</ele><time>2026-04-18T15:12:01.002Z</time></trkpt><trkpt lat="45.5670830890404" lon="9.336607360038268"><ele>157.5</ele><time>2026-04-18T15:12:02.002Z</time></trkpt><trkpt lat="45.56735563210314" lon="9.336720024772669"><ele>157.0</ele><time>2026-04-18T15:12:03.002Z</time></trkpt><trkpt lat="45.56762859756182" lon="9.336843332695842"><ele>157.0</ele><time>2026-04-18T15:12:04.002Z</time></trkpt><trkpt lat="45.56790052015748" lon="9.336970175870388"><ele>157.0</ele><time>2026-04-18T15:12:05.002Z</time></trkpt><trkpt lat="45.568174146561724" lon="9.337099940207866"><ele>157.5</ele><time>2026-04-18T15:12:06.002Z</time></trkpt><trkpt lat="45.56845071668188" lon="9.337247065193907"><ele>158.0</ele><time>2026-04-18T15:12:07.002Z</time></trkpt><trkpt lat="45.56872889895493" lon="9.337405521807236"><ele>158.0</ele><time>2026-04-18T15:12:08.002Z</time></trkpt><trkpt lat="45.56900976130096" lon="9.337576937167638"><ele>158.0</ele><time>2026-04-18T15:12:09.002Z</time></trkpt><trkpt lat="45.56930046756422" lon="9.337764148573747"><ele>158.0</ele><time>2026-04-18T15:12:10.002Z</time></trkpt><trkpt lat="45.569600730106735" lon="9.337954878045908"><ele>158.0</ele><time>2026-04-18T15:12:11.002Z</time></trkpt><trkpt lat="45.569910179754174" lon="9.338147667861762"><ele>157.0</ele><time>2026-04-18T15:12:12.002Z</time></trkpt><trkpt lat="45.57022411361376" lon="9.338345138987"><ele>156.0</ele><time>2026-04-18T15:12:13.002Z</time></trkpt><trkpt lat="45.57054166273064" lon="9.338545388239497"><ele>156.0</ele><time>2026-04-18T15:12:14.002Z</time></trkpt><trkpt lat="45.57086461080905" lon="9.338748957834065"><ele>156.0</ele><time>2026-04-18T15:12:15.002Z</time></trkpt><trkpt lat="45.57119120388059" lon="9.338953765411595"><ele>157.0</ele><time>2026-04-18T15:12:16.002Z</time></trkpt><trkpt lat="45.57151651172349" lon="9.339159768732602"><ele>158.0</ele><time>2026-04-18T15:12:17.002Z</time></trkpt><trkpt lat="45.571846946597326" lon="9.339366073155597"><ele>159.0</ele><time>2026-04-18T15:12:18.002Z</time></trkpt><trkpt lat="45.57218076656248" lon="9.339571771772068"><ele>160.0</ele><time>2026-04-18T15:12:19.003Z</time></trkpt><trkpt lat="45.572517752572736" lon="9.339778879274773"><ele>160.5</ele><time>2026-04-18T15:12:20.003Z</time></trkpt><trkpt lat="45.57285580424473" lon="9.339984103000903"><ele>161.0</ele><time>2026-04-18T15:12:21.003Z</time></trkpt><trkpt lat="45.573182607388254" lon="9.340186105125321"><ele>161.5</ele><time>2026-04-18T15:12:22.003Z</time></trkpt><trkpt lat="45.57348071054992" lon="9.340362885683719"><ele>162.0</ele><time>2026-04-18T15:12:23.003Z</time></trkpt><trkpt lat="45.573761817251146" lon="9.340534126711537"><ele>161.0</ele><time>2026-04-18T15:12:24.003Z</time></trkpt><trkpt lat="45.574043134829054" lon="9.34069976662522"><ele>160.0</ele><time>2026-04-18T15:12:25.003Z</time></trkpt><trkpt lat="45.574323286908175" lon="9.340860540962485"><ele>160.0</ele><time>2026-04-18T15:12:26.003Z</time></trkpt><trkpt lat="45.574598403402156" lon="9.341011691752872"><ele>160.0</ele><time>2026-04-18T15:12:27.003Z</time></trkpt><trkpt lat="45.574868336312505" lon="9.341154652413234"><ele>160.0</ele><time>2026-04-18T15:12:28.003Z</time></trkpt><trkpt lat="45.57514117614358" lon="9.3412938999732"><ele>160.0</ele><time>2026-04-18T15:12:29.003Z</time></trkpt><trkpt lat="45.57541388089363" lon="9.341425697551212"><ele>161.0</ele><time>2026-04-18T15:12:30.003Z</time></trkpt><trkpt lat="45.57569523916299" lon="9.34155948087416"><ele>162.0</ele><time>2026-04-18T15:12:31.003Z</time></trkpt><trkpt lat="45.57596184324879" lon="9.341685501999436"><ele>163.0</ele><time>2026-04-18T15:12:32.003Z</time></trkpt><trkpt lat="45.576207024109756" lon="9.341798263005261"><ele>164.0</ele><time>2026-04-18T15:12:33.003Z</time></trkpt><trkpt lat="45.57644646424179" lon="9.341905698376122"><ele>164.0</ele><time>2026-04-18T15:12:34.003Z</time></trkpt><trkpt lat="45.576691300044175" lon="9.342014693276267"><ele>164.0</ele><time>2026-04-18T15:12:35.003Z</time></trkpt><trkpt lat="45.57693595212791" lon="9.34211711090475"><ele>164.0</ele><time>2026-04-18T15:12:36.003Z</time></trkpt><trkpt lat="45.577161552844814" lon="9.342217332369888"><ele>164.0</ele><time>2026-04-18T15:12:37.003Z</time></trkpt><trkpt lat="45.57738100084323" lon="9.34231280781818"><ele>164.0</ele><time>2026-04-18T15:12:38.003Z</time></trkpt><trkpt lat="45.57758172982716" lon="9.34240248963892"><ele>164.0</ele><time>2026-04-18T15:12:39.003Z</time></trkpt><trkpt lat="45.577767681372386" lon="9.342485490454692"><ele>164.0</ele><time>2026-04-18T15:12:40.003Z</time></trkpt><trkpt lat="45.57794874731669" lon="9.342564273791064"><ele>163.66666666666666</ele><time>2026-04-18T15:12:41.003Z</time></trkpt><trkpt lat="45.57812720453302" lon="9.342640401734116"><ele>163.33333333333334</ele><time>2026-04-18T15:12:42.003Z</time></trkpt><trkpt lat="45.57829477747286" lon="9.342718102854702"><ele>163.0</ele><time>2026-04-18T15:12:43.003Z</time></trkpt><trkpt lat="45.57845476893982" lon="9.342800745397332"><ele>163.0</ele><time>2026-04-18T15:12:44.003Z</time></trkpt><trkpt lat="45.57861509579768" lon="9.342891365767247"><ele>163.0</ele><time>2026-04-18T15:12:45.003Z</time></trkpt><trkpt lat="45.57878632605631" lon="9.34297972904461"><ele>163.0</ele><time>2026-04-18T15:12:46.003Z</time></trkpt><trkpt lat="45.57897541874679" lon="9.343079555490984"><ele>162.66666666666669</ele><time>2026-04-18T15:12:47.003Z</time></trkpt><trkpt lat="45.579165547458864" lon="9.34317679116588"><ele>162.33333333333334</ele><time>2026-04-18T15:12:47.998Z</time></trkpt><trkpt lat="45.57937898251301" lon="9.343282138145037"><ele>162.0</ele><time>2026-04-18T15:12:48.998Z</time></trkpt><trkpt lat="45.57960174949155" lon="9.343392608597064"><ele>164.0</ele><time>2026-04-18T15:12:49.998Z</time></trkpt><trkpt lat="45.5798349767296" lon="9.343514671997482"><ele>166.0</ele><time>2026-04-18T15:12:50.998Z</time></trkpt><trkpt lat="45.5800851272286" lon="9.343672474313697"><ele>166.0</ele><time>2026-04-18T15:12:51.998Z</time></trkpt><trkpt lat="45.58033533257112" lon="9.343858550832692"><ele>166.0</ele><time>2026-04-18T15:12:52.998Z</time></trkpt><trkpt lat="45.580577920424986" lon="9.344068541065951"><ele>165.5</ele><time>2026-04-18T15:12:53.998Z</time></trkpt><trkpt lat="45.58080086755743" lon="9.344287522891094"><ele>165.0</ele><time>2026-04-18T15:12:54.998Z</time></trkpt><trkpt lat="45.58099610245983" lon="9.344510876124946"><ele>166.0</ele><time>2026-04-18T15:12:55.999Z</time></trkpt><trkpt lat="45.5811792709788" lon="9.344733724763335"><ele>167.0</ele><time>2026-04-18T15:12:56.999Z</time></trkpt><trkpt lat="45.581343509748145" lon="9.344954547155169"><ele>167.0</ele><time>2026-04-18T15:12:57.999Z</time></trkpt><trkpt lat="45.58148872247291" lon="9.345164166440181"><ele>167.0</ele><time>2026-04-18T15:12:58.999Z</time></trkpt><trkpt lat="45.58162021439984" lon="9.345349775483749"><ele>167.0</ele><time>2026-04-18T15:12:59.999Z</time></trkpt><trkpt lat="45.58174097240054" lon="9.345521614164685"><ele>166.5</ele><time>2026-04-18T15:13:00.999Z</time></trkpt><trkpt lat="45.5818552139748" lon="9.345675798495826"><ele>166.0</ele><time>2026-04-18T15:13:01.999Z</time></trkpt><trkpt lat="45.58195523240798" lon="9.345811868103674"><ele>165.5</ele><time>2026-04-18T15:13:02.999Z</time></trkpt><trkpt lat="45.58205329071609" lon="9.345939273034189"><ele>165.0</ele><time>2026-04-18T15:13:03.999Z</time></trkpt><trkpt lat="45.582131746582576" lon="9.346041688470619"><ele>164.75</ele><time>2026-04-18T15:13:04.999Z</time></trkpt><trkpt lat="45.58220591326198" lon="9.34612097288419"><ele>164.5</ele><time>2026-04-18T15:13:05.999Z</time></trkpt><trkpt lat="45.58227677659003" lon="9.34616371447868"><ele>164.25</ele><time>2026-04-18T15:13:06.999Z</time></trkpt><trkpt lat="45.58232954854265" lon="9.34626011407064"><ele>164.0</ele><time>2026-04-18T15:13:08.999Z</time></trkpt><trkpt lat="45.5825075338005" lon="9.345943851740085"><ele>164.0</ele><time>2026-04-18T15:13:12Z</time></trkpt><trkpt lat="45.582552146713795" lon="9.345812489082022"><ele>164.0</ele><time>2026-04-18T15:13:13Z</time></trkpt><trkpt lat="45.58260664758545" lon="9.345665824665558"><ele>164.0</ele><time>2026-04-18T15:13:14Z</time></trkpt><trkpt lat="45.5826744096014" lon="9.345519549426536"><ele>164.0</ele><time>2026-04-18T15:13:15Z</time></trkpt><trkpt lat="45.58273990386315" lon="9.345400981388295"><ele>164.0</ele><time>2026-04-18T15:13:16Z</time></trkpt><trkpt lat="45.582806440607925" lon="9.345300698864785"><ele>164.75</ele><time>2026-04-18T15:13:17Z</time></trkpt><trkpt lat="45.582861980793595" lon="9.345190875890905"><ele>165.5</ele><time>2026-04-18T15:13:18Z</time></trkpt><trkpt lat="45.58297331546094" lon="9.345016896474272"><ele>166.25</ele><time>2026-04-18T15:13:19Z</time></trkpt><trkpt lat="45.58307541421691" lon="9.344910374633535"><ele>167.0</ele><time>2026-04-18T15:13:20Z</time></trkpt><trkpt lat="45.583189585679385" lon="9.344823113208054"><ele>167.0</ele><time>2026-04-18T15:13:21Z</time></trkpt><trkpt lat="45.58330008159287" lon="9.344756579513907"><ele>167.0</ele><time>2026-04-18T15:13:22Z</time></trkpt><trkpt lat="45.58340884029902" lon="9.344686872444152"><ele>167.0</ele><time>2026-04-18T15:13:23Z</time></trkpt><trkpt lat="45.583513373354904" lon="9.34461550718175"><ele>167.0</ele><time>2026-04-18T15:13:24Z</time></trkpt><trkpt lat="45.58360691977972" lon="9.34454244276283"><ele>167.2</ele><time>2026-04-18T15:13:25Z</time></trkpt><trkpt lat="45.583682687001875" lon="9.344457342220057"><ele>167.39999999999998</ele><time>2026-04-18T15:13:26Z</time></trkpt><trkpt lat="45.583743094733165" lon="9.3443382310111"><ele>167.60000000000002</ele><time>2026-04-18T15:13:27Z</time></trkpt><trkpt lat="45.58379903362891" lon="9.344191394317802"><ele>167.8</ele><time>2026-04-18T15:13:28Z</time></trkpt><trkpt lat="45.583856664668396" lon="9.344031998611396"><ele>168.0</ele><time>2026-04-18T15:13:29.001Z</time></trkpt><trkpt lat="45.58391723031707" lon="9.343880110220168"><ele>168.0</ele><time>2026-04-18T15:13:30.001Z</time></trkpt><trkpt lat="45.58397540966707" lon="9.343724368676138"><ele>168.0</ele><time>2026-04-18T15:13:31.001Z</time></trkpt><trkpt lat="45.58403898703894" lon="9.343572678208945"><ele>168.0</ele><time>2026-04-18T15:13:32.001Z</time></trkpt><trkpt lat="45.584099562760784" lon="9.34341618812929"><ele>168.0</ele><time>2026-04-18T15:13:33.001Z</time></trkpt><trkpt lat="45.58415266604711" lon="9.343265799960802"><ele>168.0</ele><time>2026-04-18T15:13:34.001Z</time></trkpt><trkpt lat="45.58420724053049" lon="9.343119919497038"><ele>168.0</ele><time>2026-04-18T15:13:35.001Z</time></trkpt><trkpt lat="45.58426039462202" lon="9.342963843992434"><ele>168.0</ele><time>2026-04-18T15:13:36.001Z</time></trkpt><trkpt lat="45.58432295753688" lon="9.342807110388172"><ele>168.0</ele><time>2026-04-18T15:13:37.001Z</time></trkpt><trkpt lat="45.58438721636004" lon="9.34265875392159"><ele>167.75</ele><time>2026-04-18T15:13:38.001Z</time></trkpt><trkpt lat="45.58445213517874" lon="9.342512004391757"><ele>167.5</ele><time>2026-04-18T15:13:39.001Z</time></trkpt><trkpt lat="45.584505055986114" lon="9.342358446529497"><ele>167.25</ele><time>2026-04-18T15:13:40.001Z</time></trkpt><trkpt lat="45.58456272223125" lon="9.342216958472482"><ele>167.0</ele><time>2026-04-18T15:13:41.001Z</time></trkpt><trkpt lat="45.58461284724533" lon="9.342095553790832"><ele>167.6</ele><time>2026-04-18T15:13:42.001Z</time></trkpt><trkpt lat="45.58465576004289" lon="9.341988541936471"><ele>168.2</ele><time>2026-04-18T15:13:43.001Z</time></trkpt><trkpt lat="45.584698577224025" lon="9.341879050912937"><ele>168.8</ele><time>2026-04-18T15:13:44.001Z</time></trkpt><trkpt lat="45.584744213118604" lon="9.341743863992678"><ele>169.4</ele><time>2026-04-18T15:13:45.001Z</time></trkpt><trkpt lat="45.58479939682278" lon="9.341582118626262"><ele>170.0</ele><time>2026-04-18T15:13:46.001Z</time></trkpt><trkpt lat="45.584856195897466" lon="9.341416863237928"><ele>170.0</ele><time>2026-04-18T15:13:47.001Z</time></trkpt><trkpt lat="45.58491309968553" lon="9.341260399540047"><ele>170.0</ele><time>2026-04-18T15:13:48.001Z</time></trkpt><trkpt lat="45.584969966354805" lon="9.341113972834943"><ele>170.0</ele><time>2026-04-18T15:13:49.001Z</time></trkpt><trkpt lat="45.58502460356461" lon="9.340992512231391"><ele>170.0</ele><time>2026-04-18T15:13:50.001Z</time></trkpt><trkpt lat="45.58507643640227" lon="9.340872066947206"><ele>170.0</ele><time>2026-04-18T15:13:51.001Z</time></trkpt><trkpt lat="45.58512715816098" lon="9.34074513182738"><ele>170.0</ele><time>2026-04-18T15:13:52.001Z</time></trkpt><trkpt lat="45.58516911292565" lon="9.340618567830639"><ele>170.0</ele><time>2026-04-18T15:13:53.001Z</time></trkpt><trkpt lat="45.58520670254711" lon="9.340505604228662"><ele>170.0</ele><time>2026-04-18T15:13:54.001Z</time></trkpt><trkpt lat="45.585246385481824" lon="9.340420913952329"><ele>170.0</ele><time>2026-04-18T15:13:55.001Z</time></trkpt><trkpt lat="45.58529426621346" lon="9.340331040335577"><ele>170.0</ele><time>2026-04-18T15:13:56.001Z</time></trkpt><trkpt lat="45.58535039372381" lon="9.340249851268656"><ele>170.0</ele><time>2026-04-18T15:13:57.002Z</time></trkpt><trkpt lat="45.58539455949375" lon="9.340180814665315"><ele>169.75</ele><time>2026-04-18T15:13:58.002Z</time></trkpt><trkpt lat="45.58531876288642" lon="9.340059460882655"><ele>169.5</ele><time>2026-04-18T15:14:01.002Z</time></trkpt><trkpt lat="45.58517933905402" lon="9.340043151341408"><ele>169.25</ele><time>2026-04-18T15:14:03.002Z</time></trkpt><trkpt lat="45.58508517272615" lon="9.340014182925644"><ele>169.0</ele><time>2026-04-18T15:14:04.002Z</time></trkpt><trkpt lat="45.58498687710517" lon="9.33998499103354"><ele>169.0</ele><time>2026-04-18T15:14:05.002Z</time></trkpt><trkpt lat="45.58488915513976" lon="9.339955969614358"><ele>169.0</ele><time>2026-04-18T15:14:06.002Z</time></trkpt><trkpt lat="45.5847864597401" lon="9.339925471213611"><ele>169.0</ele><time>2026-04-18T15:14:07.002Z</time></trkpt><trkpt lat="45.58468410479475" lon="9.339894990210462"><ele>169.0</ele><time>2026-04-18T15:14:08.002Z</time></trkpt><trkpt lat="45.58457308264153" lon="9.339880366791533"><ele>169.0</ele><time>2026-04-18T15:14:09.002Z</time></trkpt><trkpt lat="45.58446011285911" lon="9.33984189838207"><ele>169.0</ele><time>2026-04-18T15:14:10.002Z</time></trkpt><trkpt lat="45.5843420361579" lon="9.339807934580566"><ele>169.0</ele><time>2026-04-18T15:14:11.002Z</time></trkpt><trkpt lat="45.58422107317107" lon="9.339760731339709"><ele>169.0</ele><time>2026-04-18T15:14:12.002Z</time></trkpt><trkpt lat="45.58410522548322" lon="9.339716916520754"><ele>169.0</ele><time>2026-04-18T15:14:13.002Z</time></trkpt><trkpt lat="45.58399756020631" lon="9.339685424602484"><ele>169.0</ele><time>2026-04-18T15:14:14.002Z</time></trkpt><trkpt lat="45.58388821238058" lon="9.33965064085576"><ele>169.0</ele><time>2026-04-18T15:14:15.002Z</time></trkpt><trkpt lat="45.58379603711376" lon="9.339630110316152"><ele>169.0</ele><time>2026-04-18T15:14:16.002Z</time></trkpt><trkpt lat="45.58371412978967" lon="9.339607837565211"><ele>169.0</ele><time>2026-04-18T15:14:17.002Z</time></trkpt><trkpt lat="45.58364140476896" lon="9.339588437830129"><ele>169.0</ele><time>2026-04-18T15:14:18.002Z</time></trkpt><trkpt lat="45.58356838609616" lon="9.339561124647606"><ele>169.0</ele><time>2026-04-18T15:14:19.002Z</time></trkpt><trkpt lat="45.5835206184697" lon="9.339426454564174"><ele>169.0</ele><time>2026-04-18T15:14:21.002Z</time></trkpt><trkpt lat="45.58353205674687" lon="9.339331648459236"><ele>169.0</ele><time>2026-04-18T15:14:22.002Z</time></trkpt><trkpt lat="45.58354846387402" lon="9.339199543309904"><ele>169.0</ele><time>2026-04-18T15:14:23.002Z</time></trkpt><trkpt lat="45.58356735614069" lon="9.33904257074525"><ele>169.0</ele><time>2026-04-18T15:14:24.002Z</time></trkpt><trkpt lat="45.58358055976822" lon="9.338851832854976"><ele>169.0</ele><time>2026-04-18T15:14:25.002Z</time></trkpt><trkpt lat="45.58360850758581" lon="9.33861320853914"><ele>169.0</ele><time>2026-04-18T15:14:26.002Z</time></trkpt><trkpt lat="45.583637843695456" lon="9.338356738831948"><ele>169.0</ele><time>2026-04-18T15:14:27.002Z</time></trkpt><trkpt lat="45.58366666596669" lon="9.33812138637162"><ele>169.0</ele><time>2026-04-18T15:14:28.002Z</time></trkpt><trkpt lat="45.58370073277684" lon="9.337869217044153"><ele>168.75</ele><time>2026-04-18T15:14:29.003Z</time></trkpt><trkpt lat="45.58373269059683" lon="9.337645848145138"><ele>168.5</ele><time>2026-04-18T15:14:30.003Z</time></trkpt><trkpt lat="45.58375817840558" lon="9.33743699896642"><ele>168.25</ele><time>2026-04-18T15:14:31.003Z</time></trkpt><trkpt lat="45.58378446406681" lon="9.337239730956929"><ele>168.0</ele><time>2026-04-18T15:14:32.003Z</time></trkpt><trkpt lat="45.5838097052887" lon="9.337055129434717"><ele>167.8</ele><time>2026-04-18T15:14:33.003Z</time></trkpt><trkpt lat="45.58382379775866" lon="9.336901409350135"><ele>167.60000000000002</ele><time>2026-04-18T15:14:34.003Z</time></trkpt><trkpt lat="45.58383314710304" lon="9.336761994188693"><ele>167.39999999999998</ele><time>2026-04-18T15:14:35.003Z</time></trkpt><trkpt lat="45.583845296550024" lon="9.336597704622516"><ele>167.2</ele><time>2026-04-18T15:14:36.003Z</time></trkpt><trkpt lat="45.5838639078167" lon="9.336464158835136"><ele>167.0</ele><time>2026-04-18T15:14:37.003Z</time></trkpt><trkpt lat="45.58389444386903" lon="9.336301055484011"><ele>167.6</ele><time>2026-04-18T15:14:38.003Z</time></trkpt><trkpt lat="45.58390970969233" lon="9.336140683002272"><ele>168.2</ele><time>2026-04-18T15:14:39.003Z</time></trkpt><trkpt lat="45.58392119177397" lon="9.335989641425686"><ele>168.8</ele><time>2026-04-18T15:14:40.003Z</time></trkpt><trkpt lat="45.58393259129369" lon="9.335851586198254"><ele>169.4</ele><time>2026-04-18T15:14:41.003Z</time></trkpt><trkpt lat="45.58394588862152" lon="9.33573131248925"><ele>170.0</ele><time>2026-04-18T15:14:42.003Z</time></trkpt><trkpt lat="45.58396416931028" lon="9.335628796567631"><ele>170.0</ele><time>2026-04-18T15:14:43.003Z</time></trkpt><trkpt lat="45.583985554763196" lon="9.335525979322947"><ele>170.0</ele><time>2026-04-18T15:14:45.003Z</time></trkpt><trkpt lat="45.58413739772855" lon="9.335568585066799"><ele>170.0</ele><time>2026-04-18T15:14:47.003Z</time></trkpt><trkpt lat="45.58422224944402" lon="9.335603063863775"><ele>170.0</ele><time>2026-04-18T15:14:49.003Z</time></trkpt><trkpt lat="45.584287714737165" lon="9.335627475677187"><ele>170.0</ele><time>2026-04-18T15:14:51.003Z</time></trkpt><trkpt lat="45.58428752547388" lon="9.335935931635875"><ele>170.0</ele><time>2026-04-18T15:15:32Z</time></trkpt><trkpt lat="45.584259895165516" lon="9.336053129368379"><ele>170.0</ele><time>2026-04-18T15:15:52.001Z</time></trkpt><trkpt lat="45.58422359203315" lon="9.336158149425362"><ele>170.0</ele><time>2026-04-18T15:15:55.001Z</time></trkpt><trkpt lat="45.58408712181699" lon="9.336345613940399"><ele>170.0</ele><time>2026-04-18T15:16:04.002Z</time></trkpt><trkpt lat="45.58421279734896" lon="9.336182020206406"><ele>170.0</ele><time>2026-04-18T15:16:38.003Z</time></trkpt><trkpt lat="45.584442364094656" lon="9.336111685269826"><ele>170.0</ele><time>2026-04-18T15:21:29.001Z</time></trkpt><trkpt lat="45.58424713290804" lon="9.336148853209476"><ele>170.0</ele><time>2026-04-18T15:22:15.001Z</time></trkpt><trkpt lat="45.58422774500877" lon="9.335817919886257"><ele>170.0</ele><time>2026-04-18T15:25:00.001Z</time></trkpt><trkpt lat="45.58431614313477" lon="9.33594815220878"><ele>170.0</ele><time>2026-04-18T15:25:29Z</time></trkpt><trkpt lat="45.58428272328462" lon="9.33603289124167"><ele>170.0</ele><time>2026-04-18T15:26:01Z</time></trkpt><trkpt lat="45.58430623856623" lon="9.335828051997217"><ele>170.0</ele><time>2026-04-18T15:26:55.056Z</time></trkpt><trkpt lat="45.58423368887558" lon="9.335819849207365"><ele>170.0</ele><time>2026-04-18T15:27:01.001Z</time></trkpt><trkpt lat="45.58414568191027" lon="9.335844913932425"><ele>170.0</ele><time>2026-04-18T15:29:57.04Z</time></trkpt></trkseg></trk></gpx>